﻿<?xml version="1.0" encoding="utf-8"?><gpx creator="Garmin Desktop App" version="1.1" xsi:schemaLocation="http://www.topografix.com/GPX/1/1 http://www.topografix.com/GPX/1/1/gpx.xsd http://www.garmin.com/xmlschemas/WaypointExtension/v1 http://www8.garmin.com/xmlschemas/WaypointExtensionv1.xsd http://www.garmin.com/xmlschemas/TrackPointExtension/v1 http://www.garmin.com/xmlschemas/TrackPointExtensionv1.xsd http://www.garmin.com/xmlschemas/GpxExtensions/v3 http://www8.garmin.com/xmlschemas/GpxExtensionsv3.xsd http://www.garmin.com/xmlschemas/ActivityExtension/v1 http://www8.garmin.com/xmlschemas/ActivityExtensionv1.xsd http://www.garmin.com/xmlschemas/AdventuresExtensions/v1 http://www8.garmin.com/xmlschemas/AdventuresExtensionv1.xsd http://www.garmin.com/xmlschemas/PressureExtension/v1 http://www.garmin.com/xmlschemas/PressureExtensionv1.xsd http://www.garmin.com/xmlschemas/TripExtensions/v1 http://www.garmin.com/xmlschemas/TripExtensionsv1.xsd http://www.garmin.com/xmlschemas/TripMetaDataExtensions/v1 http://www.garmin.com/xmlschemas/TripMetaDataExtensionsv1.xsd http://www.garmin.com/xmlschemas/ViaPointTransportationModeExtensions/v1 http://www.garmin.com/xmlschemas/ViaPointTransportationModeExtensionsv1.xsd http://www.garmin.com/xmlschemas/CreationTimeExtension/v1 http://www.garmin.com/xmlschemas/CreationTimeExtensionsv1.xsd http://www.garmin.com/xmlschemas/AccelerationExtension/v1 http://www.garmin.com/xmlschemas/AccelerationExtensionv1.xsd http://www.garmin.com/xmlschemas/PowerExtension/v1 http://www.garmin.com/xmlschemas/PowerExtensionv1.xsd http://www.garmin.com/xmlschemas/VideoExtension/v1 http://www.garmin.com/xmlschemas/VideoExtensionv1.xsd" xmlns="http://www.topografix.com/GPX/1/1" xmlns:xsi="http://www.w3.org/2001/XMLSchema-instance" xmlns:wptx1="http://www.garmin.com/xmlschemas/WaypointExtension/v1" xmlns:gpxtrx="http://www.garmin.com/xmlschemas/GpxExtensions/v3" xmlns:gpxtpx="http://www.garmin.com/xmlschemas/TrackPointExtension/v1" xmlns:gpxx="http://www.garmin.com/xmlschemas/GpxExtensions/v3" xmlns:trp="http://www.garmin.com/xmlschemas/TripExtensions/v1" xmlns:adv="http://www.garmin.com/xmlschemas/AdventuresExtensions/v1" xmlns:prs="http://www.garmin.com/xmlschemas/PressureExtension/v1" xmlns:tmd="http://www.garmin.com/xmlschemas/TripMetaDataExtensions/v1" xmlns:vptm="http://www.garmin.com/xmlschemas/ViaPointTransportationModeExtensions/v1" xmlns:ctx="http://www.garmin.com/xmlschemas/CreationTimeExtension/v1" xmlns:gpxacc="http://www.garmin.com/xmlschemas/AccelerationExtension/v1" xmlns:gpxpx="http://www.garmin.com/xmlschemas/PowerExtension/v1" xmlns:vidx1="http://www.garmin.com/xmlschemas/VideoExtension/v1">

  <metadata>
    <link href="http://www.garmin.com">
      <text>Garmin International</text>
    </link>
    <time>2019-09-04T17:37:38Z</time>
    <bounds maxlat="57.884647976607084" maxlon="-5.221224026754499" minlat="57.059641974046826" minlon="-5.906116962432861" />
  </metadata>

  <trk>
    <name>Track vom: 2019-09-04 09:19</name>
    <extensions>
      <gpxx:TrackExtension>
        <gpxx:DisplayColor>DarkGray</gpxx:DisplayColor>
      </gpxx:TrackExtension>
    </extensions>
    <trkseg>
      <trkpt lat="57.841745037585497" lon="-5.22153097204864">
        <ele>36.670000000000002</ele>
        <time>2019-09-04T08:19:54Z</time>
      </trkpt>
      <trkpt lat="57.841940000653267" lon="-5.221243975684047">
        <ele>3.5</ele>
        <time>2019-09-04T08:20:31Z</time>
      </trkpt>
      <trkpt lat="57.841959027573466" lon="-5.22122897207737">
        <ele>4.94</ele>
        <time>2019-09-04T08:21:08Z</time>
      </trkpt>
      <trkpt lat="57.841973025351763" lon="-5.221224026754499">
        <ele>5.91</ele>
        <time>2019-09-04T08:21:50Z</time>
      </trkpt>
      <trkpt lat="57.841973025351763" lon="-5.221224026754499">
        <ele>5.91</ele>
        <time>2019-09-04T08:22:22Z</time>
      </trkpt>
      <trkpt lat="57.8418830037117" lon="-5.22135604172945">
        <ele>5.91</ele>
        <time>2019-09-04T08:22:24Z</time>
      </trkpt>
      <trkpt lat="57.842044020071626" lon="-5.221960041671991">
        <ele>5.42</ele>
        <time>2019-09-04T08:22:34Z</time>
      </trkpt>
      <trkpt lat="57.842081990092993" lon="-5.222103958949447">
        <ele>5.42</ele>
        <time>2019-09-04T08:22:35Z</time>
      </trkpt>
      <trkpt lat="57.842300003394485" lon="-5.223703980445862">
        <ele>5.42</ele>
        <time>2019-09-04T08:22:43Z</time>
      </trkpt>
      <trkpt lat="57.842577025294304" lon="-5.225277012214065">
        <ele>4.46</ele>
        <time>2019-09-04T08:22:52Z</time>
      </trkpt>
      <trkpt lat="57.843068037182093" lon="-5.227493019774556">
        <ele>4.94</ele>
        <time>2019-09-04T08:23:02Z</time>
      </trkpt>
      <trkpt lat="57.843876974657178" lon="-5.231402004137635">
        <ele>5.91</ele>
        <time>2019-09-04T08:23:18Z</time>
      </trkpt>
      <trkpt lat="57.844190038740635" lon="-5.234272973611951">
        <ele>7.83</ele>
        <time>2019-09-04T08:23:29Z</time>
      </trkpt>
      <trkpt lat="57.844392964616418" lon="-5.236064018681645">
        <ele>9.27</ele>
        <time>2019-09-04T08:23:36Z</time>
      </trkpt>
      <trkpt lat="57.844530008733273" lon="-5.236528962850571">
        <ele>9.27</ele>
        <time>2019-09-04T08:23:38Z</time>
      </trkpt>
      <trkpt lat="57.845119005069137" lon="-5.238710017874837">
        <ele>11.19</ele>
        <time>2019-09-04T08:23:47Z</time>
      </trkpt>
      <trkpt lat="57.845521001145244" lon="-5.241152001544833">
        <ele>14.08</ele>
        <time>2019-09-04T08:23:56Z</time>
      </trkpt>
      <trkpt lat="57.845904976129532" lon="-5.24348895996809">
        <ele>16.48</ele>
        <time>2019-09-04T08:24:03Z</time>
      </trkpt>
      <trkpt lat="57.846783986315131" lon="-5.247367015108466">
        <ele>17.920000000000002</ele>
        <time>2019-09-04T08:24:15Z</time>
      </trkpt>
      <trkpt lat="57.847628965973854" lon="-5.251090005040169">
        <ele>18.879999999999999</ele>
        <time>2019-09-04T08:24:27Z</time>
      </trkpt>
      <trkpt lat="57.848231960088015" lon="-5.254302034154534">
        <ele>20.32</ele>
        <time>2019-09-04T08:24:38Z</time>
      </trkpt>
      <trkpt lat="57.848793966695666" lon="-5.257468968629837">
        <ele>17.920000000000002</ele>
        <time>2019-09-04T08:24:48Z</time>
      </trkpt>
      <trkpt lat="57.84965998493135" lon="-5.26102096773684">
        <ele>15.039999999999999</ele>
        <time>2019-09-04T08:25:00Z</time>
      </trkpt>
      <trkpt lat="57.849756041541696" lon="-5.26127602905035">
        <ele>15.039999999999999</ele>
        <time>2019-09-04T08:25:01Z</time>
      </trkpt>
      <trkpt lat="57.849873974919319" lon="-5.261467974632978">
        <ele>14.56</ele>
        <time>2019-09-04T08:25:02Z</time>
      </trkpt>
      <trkpt lat="57.849992997944355" lon="-5.2616620156914">
        <ele>14.56</ele>
        <time>2019-09-04T08:25:03Z</time>
      </trkpt>
      <trkpt lat="57.850116966292262" lon="-5.261833006516099">
        <ele>14.56</ele>
        <time>2019-09-04T08:25:04Z</time>
      </trkpt>
      <trkpt lat="57.850242024287581" lon="-5.261974995955825">
        <ele>14.56</ele>
        <time>2019-09-04T08:25:05Z</time>
      </trkpt>
      <trkpt lat="57.851204015314579" lon="-5.263138990849257">
        <ele>15.52</ele>
        <time>2019-09-04T08:25:13Z</time>
      </trkpt>
      <trkpt lat="57.851300993934274" lon="-5.263288021087647">
        <ele>15.52</ele>
        <time>2019-09-04T08:25:14Z</time>
      </trkpt>
      <trkpt lat="57.851398978382349" lon="-5.263568982481957">
        <ele>16</ele>
        <time>2019-09-04T08:25:15Z</time>
      </trkpt>
      <trkpt lat="57.85148598253727" lon="-5.263814991340041">
        <ele>16</ele>
        <time>2019-09-04T08:25:16Z</time>
      </trkpt>
      <trkpt lat="57.851580027490854" lon="-5.264082038775086">
        <ele>16.48</ele>
        <time>2019-09-04T08:25:17Z</time>
      </trkpt>
      <trkpt lat="57.851622020825744" lon="-5.264367023482919">
        <ele>16.960000000000001</ele>
        <time>2019-09-04T08:25:18Z</time>
      </trkpt>
      <trkpt lat="57.851667031645775" lon="-5.264668017625809">
        <ele>16.960000000000001</ele>
        <time>2019-09-04T08:25:19Z</time>
      </trkpt>
      <trkpt lat="57.851711036637425" lon="-5.264962976798415">
        <ele>16.960000000000001</ele>
        <time>2019-09-04T08:25:20Z</time>
      </trkpt>
      <trkpt lat="57.852082019671798" lon="-5.267805028706789">
        <ele>19.359999999999999</ele>
        <time>2019-09-04T08:25:30Z</time>
      </trkpt>
      <trkpt lat="57.852654000744224" lon="-5.271704960614443">
        <ele>22.73</ele>
        <time>2019-09-04T08:25:42Z</time>
      </trkpt>
      <trkpt lat="57.853100001811981" lon="-5.276013007387519">
        <ele>23.210000000000001</ele>
        <time>2019-09-04T08:25:54Z</time>
      </trkpt>
      <trkpt lat="57.85320402123034" lon="-5.27986298315227">
        <ele>23.690000000000001</ele>
        <time>2019-09-04T08:26:05Z</time>
      </trkpt>
      <trkpt lat="57.853138977661729" lon="-5.282836966216564">
        <ele>20.809999999999999</ele>
        <time>2019-09-04T08:26:14Z</time>
      </trkpt>
      <trkpt lat="57.853175019845366" lon="-5.283163022249937">
        <ele>20.809999999999999</ele>
        <time>2019-09-04T08:26:15Z</time>
      </trkpt>
      <trkpt lat="57.853222964331508" lon="-5.283479019999504">
        <ele>20.809999999999999</ele>
        <time>2019-09-04T08:26:16Z</time>
      </trkpt>
      <trkpt lat="57.853931989520788" lon="-5.286688031628728">
        <ele>19.84</ele>
        <time>2019-09-04T08:26:26Z</time>
      </trkpt>
      <trkpt lat="57.854800019413233" lon="-5.289347022771835">
        <ele>21.289999999999999</ele>
        <time>2019-09-04T08:26:35Z</time>
      </trkpt>
      <trkpt lat="57.855537962168455" lon="-5.292456960305572">
        <ele>17.440000000000001</ele>
        <time>2019-09-04T08:26:45Z</time>
      </trkpt>
      <trkpt lat="57.856253022328019" lon="-5.29466399922967">
        <ele>14.56</ele>
        <time>2019-09-04T08:26:52Z</time>
      </trkpt>
      <trkpt lat="57.857014015316963" lon="-5.297317039221525">
        <ele>18.879999999999999</ele>
        <time>2019-09-04T08:27:00Z</time>
      </trkpt>
      <trkpt lat="57.857843991369009" lon="-5.299810990691185">
        <ele>22.73</ele>
        <time>2019-09-04T08:27:08Z</time>
      </trkpt>
      <trkpt lat="57.859397996217012" lon="-5.303673958405852">
        <ele>16.960000000000001</ele>
        <time>2019-09-04T08:27:21Z</time>
      </trkpt>
      <trkpt lat="57.860352024435997" lon="-5.307481018826366">
        <ele>18.879999999999999</ele>
        <time>2019-09-04T08:27:32Z</time>
      </trkpt>
      <trkpt lat="57.860560985282063" lon="-5.309941023588181">
        <ele>21.289999999999999</ele>
        <time>2019-09-04T08:27:39Z</time>
      </trkpt>
      <trkpt lat="57.860650001093745" lon="-5.311219012364745">
        <ele>24.170000000000002</ele>
        <time>2019-09-04T08:27:43Z</time>
      </trkpt>
      <trkpt lat="57.860709009692073" lon="-5.311499973759055">
        <ele>24.649999999999999</ele>
        <time>2019-09-04T08:27:44Z</time>
      </trkpt>
      <trkpt lat="57.86126003600657" lon="-5.31380700878799">
        <ele>32.82</ele>
        <time>2019-09-04T08:27:52Z</time>
      </trkpt>
      <trkpt lat="57.86137000657618" lon="-5.314713008701801">
        <ele>35.229999999999997</ele>
        <time>2019-09-04T08:27:55Z</time>
      </trkpt>
      <trkpt lat="57.86139003932476" lon="-5.315034035593271">
        <ele>36.189999999999998</ele>
        <time>2019-09-04T08:27:56Z</time>
      </trkpt>
      <trkpt lat="57.861741995438933" lon="-5.318227037787437">
        <ele>41.469999999999999</ele>
        <time>2019-09-04T08:28:06Z</time>
      </trkpt>
      <trkpt lat="57.862655036151409" lon="-5.323274033144116">
        <ele>45.32</ele>
        <time>2019-09-04T08:28:21Z</time>
      </trkpt>
      <trkpt lat="57.86312903277576" lon="-5.325832022354007">
        <ele>47.240000000000002</ele>
        <time>2019-09-04T08:28:30Z</time>
      </trkpt>
      <trkpt lat="57.863202039152384" lon="-5.326057998463512">
        <ele>47.719999999999999</ele>
        <time>2019-09-04T08:28:31Z</time>
      </trkpt>
      <trkpt lat="57.863287031650543" lon="-5.326263019815087">
        <ele>48.200000000000003</ele>
        <time>2019-09-04T08:28:32Z</time>
      </trkpt>
      <trkpt lat="57.863379986956716" lon="-5.326470974832773">
        <ele>48.68</ele>
        <time>2019-09-04T08:28:33Z</time>
      </trkpt>
      <trkpt lat="57.863494986668229" lon="-5.326661998406053">
        <ele>49.159999999999997</ele>
        <time>2019-09-04T08:28:34Z</time>
      </trkpt>
      <trkpt lat="57.863623984158039" lon="-5.326842041686177">
        <ele>49.159999999999997</ele>
        <time>2019-09-04T08:28:35Z</time>
      </trkpt>
      <trkpt lat="57.863769996911287" lon="-5.327010015025735">
        <ele>49.649999999999999</ele>
        <time>2019-09-04T08:28:36Z</time>
      </trkpt>
      <trkpt lat="57.864790996536613" lon="-5.3282689768821">
        <ele>52.530000000000001</ele>
        <time>2019-09-04T08:28:43Z</time>
      </trkpt>
      <trkpt lat="57.864902978762984" lon="-5.328494030982256">
        <ele>52.530000000000001</ele>
        <time>2019-09-04T08:28:44Z</time>
      </trkpt>
      <trkpt lat="57.86500096321106" lon="-5.32873903401196">
        <ele>53.009999999999998</ele>
        <time>2019-09-04T08:28:45Z</time>
      </trkpt>
      <trkpt lat="57.865090984851122" lon="-5.329000968486071">
        <ele>53.490000000000002</ele>
        <time>2019-09-04T08:28:46Z</time>
      </trkpt>
      <trkpt lat="57.865181006491184" lon="-5.329266004264355">
        <ele>53.490000000000002</ele>
        <time>2019-09-04T08:28:47Z</time>
      </trkpt>
      <trkpt lat="57.866212986409664" lon="-5.332004958763719">
        <ele>53.969999999999999</ele>
        <time>2019-09-04T08:28:58Z</time>
      </trkpt>
      <trkpt lat="57.867501033470035" lon="-5.334468986839056">
        <ele>53.009999999999998</ele>
        <time>2019-09-04T08:29:09Z</time>
      </trkpt>
      <trkpt lat="57.868139985948801" lon="-5.335300974547863">
        <ele>53.009999999999998</ele>
        <time>2019-09-04T08:29:15Z</time>
      </trkpt>
      <trkpt lat="57.868533013388515" lon="-5.335840014740825">
        <ele>54.93</ele>
        <time>2019-09-04T08:29:19Z</time>
      </trkpt>
      <trkpt lat="57.868604008108377" lon="-5.336055010557175">
        <ele>55.890000000000001</ele>
        <time>2019-09-04T08:29:20Z</time>
      </trkpt>
      <trkpt lat="57.868678020313382" lon="-5.336277969181538">
        <ele>56.859999999999999</ele>
        <time>2019-09-04T08:29:21Z</time>
      </trkpt>
      <trkpt lat="57.868747003376484" lon="-5.336514003574848">
        <ele>57.82</ele>
        <time>2019-09-04T08:29:22Z</time>
      </trkpt>
      <trkpt lat="57.868805006146431" lon="-5.336767975240946">
        <ele>58.780000000000001</ele>
        <time>2019-09-04T08:29:23Z</time>
      </trkpt>
      <trkpt lat="57.868865020573139" lon="-5.337027981877327">
        <ele>59.740000000000002</ele>
        <time>2019-09-04T08:29:24Z</time>
      </trkpt>
      <trkpt lat="57.869525011628866" lon="-5.339986961334944">
        <ele>72.239999999999995</ele>
        <time>2019-09-04T08:29:35Z</time>
      </trkpt>
      <trkpt lat="57.870796965435147" lon="-5.343337040394545">
        <ele>91.939999999999998</ele>
        <time>2019-09-04T08:29:48Z</time>
      </trkpt>
      <trkpt lat="57.87232699804008" lon="-5.347502008080483">
        <ele>108.29000000000001</ele>
        <time>2019-09-04T08:30:02Z</time>
      </trkpt>
      <trkpt lat="57.874070014804602" lon="-5.352583033964038">
        <ele>122.22</ele>
        <time>2019-09-04T08:30:17Z</time>
      </trkpt>
      <trkpt lat="57.875484963878989" lon="-5.356265958398581">
        <ele>139.53</ele>
        <time>2019-09-04T08:30:29Z</time>
      </trkpt>
      <trkpt lat="57.877008961513638" lon="-5.360241997987032">
        <ele>150.58000000000001</ele>
        <time>2019-09-04T08:30:42Z</time>
      </trkpt>
      <trkpt lat="57.878227019682527" lon="-5.364989005029202">
        <ele>157.78999999999999</ele>
        <time>2019-09-04T08:30:55Z</time>
      </trkpt>
      <trkpt lat="57.879164032638073" lon="-5.368671007454395">
        <ele>166.44999999999999</ele>
        <time>2019-09-04T08:31:06Z</time>
      </trkpt>
      <trkpt lat="57.879499979317188" lon="-5.370223000645638">
        <ele>170.77000000000001</ele>
        <time>2019-09-04T08:31:11Z</time>
      </trkpt>
      <trkpt lat="57.879522023722529" lon="-5.370543021708727">
        <ele>171.72999999999999</ele>
        <time>2019-09-04T08:31:12Z</time>
      </trkpt>
      <trkpt lat="57.879530992358923" lon="-5.370871005579829">
        <ele>172.69</ele>
        <time>2019-09-04T08:31:13Z</time>
      </trkpt>
      <trkpt lat="57.879496961832047" lon="-5.371202006936073">
        <ele>173.66</ele>
        <time>2019-09-04T08:31:14Z</time>
      </trkpt>
      <trkpt lat="57.879462009295821" lon="-5.371550023555756">
        <ele>174.62</ele>
        <time>2019-09-04T08:31:15Z</time>
      </trkpt>
      <trkpt lat="57.879427978768945" lon="-5.371889993548393">
        <ele>175.58000000000001</ele>
        <time>2019-09-04T08:31:16Z</time>
      </trkpt>
      <trkpt lat="57.879269979894161" lon="-5.373438969254494">
        <ele>177.97999999999999</ele>
        <time>2019-09-04T08:31:21Z</time>
      </trkpt>
      <trkpt lat="57.879272997379303" lon="-5.373766031116247">
        <ele>178.46000000000001</ele>
        <time>2019-09-04T08:31:22Z</time>
      </trkpt>
      <trkpt lat="57.879643980413675" lon="-5.376935983076692">
        <ele>173.66</ele>
        <time>2019-09-04T08:31:31Z</time>
      </trkpt>
      <trkpt lat="57.880885004997253" lon="-5.381317036226392">
        <ele>167.88999999999999</ele>
        <time>2019-09-04T08:31:43Z</time>
      </trkpt>
      <trkpt lat="57.882326021790504" lon="-5.385277988389134">
        <ele>167.41</ele>
        <time>2019-09-04T08:31:55Z</time>
      </trkpt>
      <trkpt lat="57.883247025310993" lon="-5.388307040557265">
        <ele>164.03999999999999</ele>
        <time>2019-09-04T08:32:04Z</time>
      </trkpt>
      <trkpt lat="57.883741976693273" lon="-5.391489984467626">
        <ele>156.83000000000001</ele>
        <time>2019-09-04T08:32:12Z</time>
      </trkpt>
      <trkpt lat="57.884172974154353" lon="-5.394985992461443">
        <ele>143.84999999999999</ele>
        <time>2019-09-04T08:32:21Z</time>
      </trkpt>
      <trkpt lat="57.884647976607084" lon="-5.399208962917328">
        <ele>129.43000000000001</ele>
        <time>2019-09-04T08:32:33Z</time>
      </trkpt>
      <trkpt lat="57.884613024070859" lon="-5.401925034821034">
        <ele>120.3</ele>
        <time>2019-09-04T08:32:41Z</time>
      </trkpt>
      <trkpt lat="57.88448796607554" lon="-5.405838964506984">
        <ele>103</ele>
        <time>2019-09-04T08:32:53Z</time>
      </trkpt>
      <trkpt lat="57.884349999949336" lon="-5.409362968057394">
        <ele>83.290000000000006</ele>
        <time>2019-09-04T08:33:03Z</time>
      </trkpt>
      <trkpt lat="57.883893018588424" lon="-5.412430996075273">
        <ele>65.989999999999995</ele>
        <time>2019-09-04T08:33:12Z</time>
      </trkpt>
      <trkpt lat="57.883359007537365" lon="-5.415520984679461">
        <ele>50.130000000000003</ele>
        <time>2019-09-04T08:33:22Z</time>
      </trkpt>
      <trkpt lat="57.882663980126381" lon="-5.418305033817887">
        <ele>35.710000000000001</ele>
        <time>2019-09-04T08:33:31Z</time>
      </trkpt>
      <trkpt lat="57.882184032350779" lon="-5.420578038319945">
        <ele>23.690000000000001</ele>
        <time>2019-09-04T08:33:38Z</time>
      </trkpt>
      <trkpt lat="57.882128041237593" lon="-5.420900993049145">
        <ele>21.77</ele>
        <time>2019-09-04T08:33:39Z</time>
      </trkpt>
      <trkpt lat="57.882043970748782" lon="-5.421187989413738">
        <ele>20.32</ele>
        <time>2019-09-04T08:33:40Z</time>
      </trkpt>
      <trkpt lat="57.881955038756132" lon="-5.421462999656797">
        <ele>19.359999999999999</ele>
        <time>2019-09-04T08:33:41Z</time>
      </trkpt>
      <trkpt lat="57.880905037745833" lon="-5.424356013536453">
        <ele>10.23</ele>
        <time>2019-09-04T08:33:52Z</time>
      </trkpt>
      <trkpt lat="57.880859021097422" lon="-5.424673017114401">
        <ele>9.75</ele>
        <time>2019-09-04T08:33:53Z</time>
      </trkpt>
      <trkpt lat="57.880837982520461" lon="-5.425012987107039">
        <ele>9.27</ele>
        <time>2019-09-04T08:33:54Z</time>
      </trkpt>
      <trkpt lat="57.880827002227306" lon="-5.425351029261947">
        <ele>8.789999999999999</ele>
        <time>2019-09-04T08:33:55Z</time>
      </trkpt>
      <trkpt lat="57.880827002227306" lon="-5.425697034224868">
        <ele>7.83</ele>
        <time>2019-09-04T08:33:56Z</time>
      </trkpt>
      <trkpt lat="57.880974020808935" lon="-5.429573999717832">
        <ele>3.98</ele>
        <time>2019-09-04T08:34:07Z</time>
      </trkpt>
      <trkpt lat="57.881046021357179" lon="-5.432772031053901">
        <ele>4.46</ele>
        <time>2019-09-04T08:34:16Z</time>
      </trkpt>
      <trkpt lat="57.880992041900754" lon="-5.43309397995472">
        <ele>4.46</ele>
        <time>2019-09-04T08:34:17Z</time>
      </trkpt>
      <trkpt lat="57.880926998332143" lon="-5.433411989361048">
        <ele>4.94</ele>
        <time>2019-09-04T08:34:18Z</time>
      </trkpt>
      <trkpt lat="57.880853991955519" lon="-5.433723963797092">
        <ele>4.94</ele>
        <time>2019-09-04T08:34:19Z</time>
      </trkpt>
      <trkpt lat="57.880781991407275" lon="-5.434035016223788">
        <ele>4.94</ele>
        <time>2019-09-04T08:34:20Z</time>
      </trkpt>
      <trkpt lat="57.880139015614986" lon="-5.437467992305756">
        <ele>7.83</ele>
        <time>2019-09-04T08:34:31Z</time>
      </trkpt>
      <trkpt lat="57.880060980096459" lon="-5.438128989189863">
        <ele>8.789999999999999</ele>
        <time>2019-09-04T08:34:33Z</time>
      </trkpt>
      <trkpt lat="57.880009012296796" lon="-5.438440963625908">
        <ele>8.789999999999999</ele>
        <time>2019-09-04T08:34:34Z</time>
      </trkpt>
      <trkpt lat="57.879922008141875" lon="-5.438715973868966">
        <ele>9.27</ele>
        <time>2019-09-04T08:34:35Z</time>
      </trkpt>
      <trkpt lat="57.879814971238375" lon="-5.438968017697334">
        <ele>9.75</ele>
        <time>2019-09-04T08:34:36Z</time>
      </trkpt>
      <trkpt lat="57.879706006497145" lon="-5.439226012676954">
        <ele>9.75</ele>
        <time>2019-09-04T08:34:37Z</time>
      </trkpt>
      <trkpt lat="57.879582038149238" lon="-5.43951996602118">
        <ele>10.23</ele>
        <time>2019-09-04T08:34:38Z</time>
      </trkpt>
      <trkpt lat="57.878335984423757" lon="-5.441407989710569">
        <ele>12.630000000000001</ele>
        <time>2019-09-04T08:34:47Z</time>
      </trkpt>
      <trkpt lat="57.878185026347637" lon="-5.441578980535269">
        <ele>12.15</ele>
        <time>2019-09-04T08:34:48Z</time>
      </trkpt>
      <trkpt lat="57.878014035522938" lon="-5.441661961376667">
        <ele>12.15</ele>
        <time>2019-09-04T08:34:49Z</time>
      </trkpt>
      <trkpt lat="57.877842960879207" lon="-5.44173002243042">
        <ele>12.15</ele>
        <time>2019-09-04T08:34:50Z</time>
      </trkpt>
      <trkpt lat="57.877671970054507" lon="-5.441761035472155">
        <ele>12.15</ele>
        <time>2019-09-04T08:34:51Z</time>
      </trkpt>
      <trkpt lat="57.877499973401427" lon="-5.44173002243042">
        <ele>12.15</ele>
        <time>2019-09-04T08:34:52Z</time>
      </trkpt>
      <trkpt lat="57.877329988405108" lon="-5.441699009388685">
        <ele>12.15</ele>
        <time>2019-09-04T08:34:53Z</time>
      </trkpt>
      <trkpt lat="57.877166038379073" lon="-5.441618962213397">
        <ele>12.15</ele>
        <time>2019-09-04T08:34:54Z</time>
      </trkpt>
      <trkpt lat="57.877007033675909" lon="-5.441507985815406">
        <ele>12.15</ele>
        <time>2019-09-04T08:34:55Z</time>
      </trkpt>
      <trkpt lat="57.875728039070964" lon="-5.440440969541669">
        <ele>9.75</ele>
        <time>2019-09-04T08:35:03Z</time>
      </trkpt>
      <trkpt lat="57.87557004019618" lon="-5.440335022285581">
        <ele>9.27</ele>
        <time>2019-09-04T08:35:04Z</time>
      </trkpt>
      <trkpt lat="57.873962977901101" lon="-5.43971199542284">
        <ele>4.94</ele>
        <time>2019-09-04T08:35:13Z</time>
      </trkpt>
      <trkpt lat="57.873801961541176" lon="-5.439649969339371">
        <ele>4.94</ele>
        <time>2019-09-04T08:35:14Z</time>
      </trkpt>
      <trkpt lat="57.873493004590273" lon="-5.439530024304986">
        <ele>5.42</ele>
        <time>2019-09-04T08:35:16Z</time>
      </trkpt>
      <trkpt lat="57.873337017372251" lon="-5.439503034576774">
        <ele>5.42</ele>
        <time>2019-09-04T08:35:17Z</time>
      </trkpt>
      <trkpt lat="57.873176001012325" lon="-5.439480990171433">
        <ele>5.91</ele>
        <time>2019-09-04T08:35:18Z</time>
      </trkpt>
      <trkpt lat="57.873018002137542" lon="-5.439504962414503">
        <ele>5.91</ele>
        <time>2019-09-04T08:35:19Z</time>
      </trkpt>
      <trkpt lat="57.872860003262758" lon="-5.43953999876976">
        <ele>6.39</ele>
        <time>2019-09-04T08:35:20Z</time>
      </trkpt>
      <trkpt lat="57.871589977294207" lon="-5.439662039279938">
        <ele>8.789999999999999</ele>
        <time>2019-09-04T08:35:28Z</time>
      </trkpt>
      <trkpt lat="57.870954964309931" lon="-5.439556008204818">
        <ele>9.27</ele>
        <time>2019-09-04T08:35:32Z</time>
      </trkpt>
      <trkpt lat="57.870796965435147" lon="-5.439575035125017">
        <ele>9.75</ele>
        <time>2019-09-04T08:35:33Z</time>
      </trkpt>
      <trkpt lat="57.870645001530647" lon="-5.4396450240165">
        <ele>10.23</ele>
        <time>2019-09-04T08:35:34Z</time>
      </trkpt>
      <trkpt lat="57.870492031797767" lon="-5.439761029556394">
        <ele>10.710000000000001</ele>
        <time>2019-09-04T08:35:35Z</time>
      </trkpt>
      <trkpt lat="57.870346019044518" lon="-5.439894972369075">
        <ele>11.19</ele>
        <time>2019-09-04T08:35:36Z</time>
      </trkpt>
      <trkpt lat="57.870203023776412" lon="-5.440059006214142">
        <ele>12.15</ele>
        <time>2019-09-04T08:35:37Z</time>
      </trkpt>
      <trkpt lat="57.869774037972093" lon="-5.440458990633488">
        <ele>13.6</ele>
        <time>2019-09-04T08:35:40Z</time>
      </trkpt>
      <trkpt lat="57.869624001905322" lon="-5.440547000616789">
        <ele>13.6</ele>
        <time>2019-09-04T08:35:41Z</time>
      </trkpt>
      <trkpt lat="57.868351964280009" lon="-5.440584970638156">
        <ele>13.6</ele>
        <time>2019-09-04T08:35:49Z</time>
      </trkpt>
      <trkpt lat="57.868208969011903" lon="-5.440522022545338">
        <ele>13.6</ele>
        <time>2019-09-04T08:35:50Z</time>
      </trkpt>
      <trkpt lat="57.868079971522093" lon="-5.440354971215129">
        <ele>14.08</ele>
        <time>2019-09-04T08:35:51Z</time>
      </trkpt>
      <trkpt lat="57.867931025102735" lon="-5.440164031460881">
        <ele>14.56</ele>
        <time>2019-09-04T08:35:52Z</time>
      </trkpt>
      <trkpt lat="57.867823988199234" lon="-5.439979964867234">
        <ele>15.039999999999999</ele>
        <time>2019-09-04T08:35:53Z</time>
      </trkpt>
      <trkpt lat="57.866958975791931" lon="-5.438478011637926">
        <ele>18.399999999999999</ele>
        <time>2019-09-04T08:36:00Z</time>
      </trkpt>
      <trkpt lat="57.866138974204659" lon="-5.437321979552507">
        <ele>20.32</ele>
        <time>2019-09-04T08:36:06Z</time>
      </trkpt>
      <trkpt lat="57.865963960066438" lon="-5.43719700537622">
        <ele>20.32</ele>
        <time>2019-09-04T08:36:07Z</time>
      </trkpt>
      <trkpt lat="57.865774026140571" lon="-5.43711100704968">
        <ele>20.32</ele>
        <time>2019-09-04T08:36:08Z</time>
      </trkpt>
      <trkpt lat="57.864578012377024" lon="-5.436730971559882">
        <ele>20.809999999999999</ele>
        <time>2019-09-04T08:36:15Z</time>
      </trkpt>
      <trkpt lat="57.864472987130284" lon="-5.436716973781586">
        <ele>20.809999999999999</ele>
        <time>2019-09-04T08:36:16Z</time>
      </trkpt>
      <trkpt lat="57.864365028217435" lon="-5.436751004308462">
        <ele>20.809999999999999</ele>
        <time>2019-09-04T08:36:17Z</time>
      </trkpt>
      <trkpt lat="57.864275006577373" lon="-5.436831973493099">
        <ele>20.32</ele>
        <time>2019-09-04T08:36:18Z</time>
      </trkpt>
      <trkpt lat="57.864171992987394" lon="-5.436947979032993">
        <ele>20.32</ele>
        <time>2019-09-04T08:36:19Z</time>
      </trkpt>
      <trkpt lat="57.864088006317616" lon="-5.437098015099764">
        <ele>20.809999999999999</ele>
        <time>2019-09-04T08:36:20Z</time>
      </trkpt>
      <trkpt lat="57.863311003893614" lon="-5.438501983880997">
        <ele>23.210000000000001</ele>
        <time>2019-09-04T08:36:28Z</time>
      </trkpt>
      <trkpt lat="57.862197970971465" lon="-5.440520010888577">
        <ele>26.57</ele>
        <time>2019-09-04T08:36:36Z</time>
      </trkpt>
      <trkpt lat="57.860741028562188" lon="-5.443822983652353">
        <ele>35.710000000000001</ele>
        <time>2019-09-04T08:36:47Z</time>
      </trkpt>
      <trkpt lat="57.859646016731858" lon="-5.445700027048588">
        <ele>36.670000000000002</ele>
        <time>2019-09-04T08:36:55Z</time>
      </trkpt>
      <trkpt lat="57.858039038255811" lon="-5.447724005207419">
        <ele>40.030000000000001</ele>
        <time>2019-09-04T08:37:05Z</time>
      </trkpt>
      <trkpt lat="57.856643032282591" lon="-5.448334962129593">
        <ele>39.07</ele>
        <time>2019-09-04T08:37:12Z</time>
      </trkpt>
      <trkpt lat="57.855341993272305" lon="-5.448717009276152">
        <ele>31.379999999999999</ele>
        <time>2019-09-04T08:37:19Z</time>
      </trkpt>
      <trkpt lat="57.855173014104366" lon="-5.448841983452439">
        <ele>29.940000000000001</ele>
        <time>2019-09-04T08:37:20Z</time>
      </trkpt>
      <trkpt lat="57.855038987472653" lon="-5.449051028117538">
        <ele>28.5</ele>
        <time>2019-09-04T08:37:21Z</time>
      </trkpt>
      <trkpt lat="57.854904038831592" lon="-5.449262000620365">
        <ele>26.57</ele>
        <time>2019-09-04T08:37:22Z</time>
      </trkpt>
      <trkpt lat="57.854797001928091" lon="-5.44953097589314">
        <ele>25.129999999999999</ele>
        <time>2019-09-04T08:37:23Z</time>
      </trkpt>
      <trkpt lat="57.854704968631268" lon="-5.449818978086114">
        <ele>23.210000000000001</ele>
        <time>2019-09-04T08:37:24Z</time>
      </trkpt>
      <trkpt lat="57.854618970304728" lon="-5.45008803717792">
        <ele>21.77</ele>
        <time>2019-09-04T08:37:25Z</time>
      </trkpt>
      <trkpt lat="57.854294003918767" lon="-5.451022032648325">
        <ele>15.039999999999999</ele>
        <time>2019-09-04T08:37:29Z</time>
      </trkpt>
      <trkpt lat="57.854185039177537" lon="-5.451197968795896">
        <ele>13.6</ele>
        <time>2019-09-04T08:37:30Z</time>
      </trkpt>
      <trkpt lat="57.854072973132133" lon="-5.45137801207602">
        <ele>12.15</ele>
        <time>2019-09-04T08:37:31Z</time>
      </trkpt>
      <trkpt lat="57.853961996734142" lon="-5.451557971537113">
        <ele>11.19</ele>
        <time>2019-09-04T08:37:32Z</time>
      </trkpt>
      <trkpt lat="57.853815983980894" lon="-5.451647993177176">
        <ele>9.75</ele>
        <time>2019-09-04T08:37:33Z</time>
      </trkpt>
      <trkpt lat="57.853667037561536" lon="-5.451740026473999">
        <ele>8.789999999999999</ele>
        <time>2019-09-04T08:37:34Z</time>
      </trkpt>
      <trkpt lat="57.853510966524482" lon="-5.451837005093694">
        <ele>7.83</ele>
        <time>2019-09-04T08:37:35Z</time>
      </trkpt>
      <trkpt lat="57.852336997166276" lon="-5.45204303227365">
        <ele>7.35</ele>
        <time>2019-09-04T08:37:43Z</time>
      </trkpt>
      <trkpt lat="57.852201964706182" lon="-5.452124001458287">
        <ele>7.35</ele>
        <time>2019-09-04T08:37:44Z</time>
      </trkpt>
      <trkpt lat="57.85206500440836" lon="-5.452212011441588">
        <ele>8.310000000000001</ele>
        <time>2019-09-04T08:37:45Z</time>
      </trkpt>
      <trkpt lat="57.851944975554943" lon="-5.452364981174469">
        <ele>8.310000000000001</ele>
        <time>2019-09-04T08:37:46Z</time>
      </trkpt>
      <trkpt lat="57.851823018863797" lon="-5.452529015019536">
        <ele>8.789999999999999</ele>
        <time>2019-09-04T08:37:47Z</time>
      </trkpt>
      <trkpt lat="57.851711958646774" lon="-5.452740993350744">
        <ele>8.789999999999999</ele>
        <time>2019-09-04T08:37:48Z</time>
      </trkpt>
      <trkpt lat="57.851596958935261" lon="-5.452961018308997">
        <ele>8.310000000000001</ele>
        <time>2019-09-04T08:37:49Z</time>
      </trkpt>
      <trkpt lat="57.850980972871184" lon="-5.454287035390735">
        <ele>6.87</ele>
        <time>2019-09-04T08:37:55Z</time>
      </trkpt>
      <trkpt lat="57.850902015343308" lon="-5.454516028985381">
        <ele>6.87</ele>
        <time>2019-09-04T08:37:56Z</time>
      </trkpt>
      <trkpt lat="57.850858010351658" lon="-5.454764971509576">
        <ele>6.39</ele>
        <time>2019-09-04T08:37:57Z</time>
      </trkpt>
      <trkpt lat="57.850835965946317" lon="-5.455031013116241">
        <ele>6.39</ele>
        <time>2019-09-04T08:37:58Z</time>
      </trkpt>
      <trkpt lat="57.85084099508822" lon="-5.455298982560635">
        <ele>6.39</ele>
        <time>2019-09-04T08:37:59Z</time>
      </trkpt>
      <trkpt lat="57.8508610278368" lon="-5.455581033602357">
        <ele>6.87</ele>
        <time>2019-09-04T08:38:00Z</time>
      </trkpt>
      <trkpt lat="57.850881982594728" lon="-5.455871969461441">
        <ele>6.87</ele>
        <time>2019-09-04T08:38:01Z</time>
      </trkpt>
      <trkpt lat="57.850932022556663" lon="-5.456777969375253">
        <ele>7.35</ele>
        <time>2019-09-04T08:38:04Z</time>
      </trkpt>
      <trkpt lat="57.850923975929618" lon="-5.457081981003285">
        <ele>7.35</ele>
        <time>2019-09-04T08:38:05Z</time>
      </trkpt>
      <trkpt lat="57.850915007293224" lon="-5.45741599984467">
        <ele>7.83</ele>
        <time>2019-09-04T08:38:06Z</time>
      </trkpt>
      <trkpt lat="57.850866978988051" lon="-5.457709031179547">
        <ele>8.310000000000001</ele>
        <time>2019-09-04T08:38:07Z</time>
      </trkpt>
      <trkpt lat="57.850817022845149" lon="-5.458021005615592">
        <ele>8.789999999999999</ele>
        <time>2019-09-04T08:38:08Z</time>
      </trkpt>
      <trkpt lat="57.850292986258864" lon="-5.461258012801409">
        <ele>13.6</ele>
        <time>2019-09-04T08:38:18Z</time>
      </trkpt>
      <trkpt lat="57.850102968513966" lon="-5.463708965107799">
        <ele>16.960000000000001</ele>
        <time>2019-09-04T08:38:26Z</time>
      </trkpt>
      <trkpt lat="57.850072961300611" lon="-5.463982969522476">
        <ele>16.960000000000001</ele>
        <time>2019-09-04T08:38:27Z</time>
      </trkpt>
      <trkpt lat="57.850033985450864" lon="-5.464240964502096">
        <ele>17.440000000000001</ele>
        <time>2019-09-04T08:38:28Z</time>
      </trkpt>
      <trkpt lat="57.849928038194776" lon="-5.464775981381536">
        <ele>18.399999999999999</ele>
        <time>2019-09-04T08:38:30Z</time>
      </trkpt>
      <trkpt lat="57.849399978294969" lon="-5.466773975640535">
        <ele>24.170000000000002</ele>
        <time>2019-09-04T08:38:38Z</time>
      </trkpt>
      <trkpt lat="57.849369971081614" lon="-5.466986037790775">
        <ele>24.649999999999999</ele>
        <time>2019-09-04T08:38:39Z</time>
      </trkpt>
      <trkpt lat="57.849388998001814" lon="-5.467297006398439">
        <ele>25.609999999999999</ele>
        <time>2019-09-04T08:38:40Z</time>
      </trkpt>
      <trkpt lat="57.849427973851562" lon="-5.467515019699931">
        <ele>26.09</ele>
        <time>2019-09-04T08:38:41Z</time>
      </trkpt>
      <trkpt lat="57.849470973014832" lon="-5.46772800385952">
        <ele>27.050000000000001</ele>
        <time>2019-09-04T08:38:42Z</time>
      </trkpt>
      <trkpt lat="57.849542973563075" lon="-5.467884996905923">
        <ele>28.02</ele>
        <time>2019-09-04T08:38:43Z</time>
      </trkpt>
      <trkpt lat="57.84963701851666" lon="-5.468064034357667">
        <ele>29.460000000000001</ele>
        <time>2019-09-04T08:38:44Z</time>
      </trkpt>
      <trkpt lat="57.849735002964735" lon="-5.468239970505238">
        <ele>31.379999999999999</ele>
        <time>2019-09-04T08:38:45Z</time>
      </trkpt>
      <trkpt lat="57.849847991019487" lon="-5.468400986865163">
        <ele>32.82</ele>
        <time>2019-09-04T08:38:46Z</time>
      </trkpt>
      <trkpt lat="57.851002011448145" lon="-5.46996102668345">
        <ele>50.609999999999999</ele>
        <time>2019-09-04T08:38:55Z</time>
      </trkpt>
      <trkpt lat="57.851112987846136" lon="-5.470210975036025">
        <ele>52.530000000000001</ele>
        <time>2019-09-04T08:38:56Z</time>
      </trkpt>
      <trkpt lat="57.851216001436114" lon="-5.470463018864393">
        <ele>54.93</ele>
        <time>2019-09-04T08:38:57Z</time>
      </trkpt>
      <trkpt lat="57.851441977545619" lon="-5.470936009660363">
        <ele>59.740000000000002</ele>
        <time>2019-09-04T08:38:59Z</time>
      </trkpt>
      <trkpt lat="57.851584972813725" lon="-5.471117980778217">
        <ele>62.619999999999997</ele>
        <time>2019-09-04T08:39:00Z</time>
      </trkpt>
      <trkpt lat="57.851739032194018" lon="-5.471288971602917">
        <ele>65.030000000000001</ele>
        <time>2019-09-04T08:39:01Z</time>
      </trkpt>
      <trkpt lat="57.852933034300804" lon="-5.472707021981478">
        <ele>87.620000000000005</ele>
        <time>2019-09-04T08:39:10Z</time>
      </trkpt>
      <trkpt lat="57.853004029020667" lon="-5.472919000312686">
        <ele>90.019999999999996</ele>
        <time>2019-09-04T08:39:11Z</time>
      </trkpt>
      <trkpt lat="57.853060020133853" lon="-5.473123015835881">
        <ele>92.420000000000002</ele>
        <time>2019-09-04T08:39:12Z</time>
      </trkpt>
      <trkpt lat="57.853073012083769" lon="-5.473385034129024">
        <ele>94.829999999999998</ele>
        <time>2019-09-04T08:39:13Z</time>
      </trkpt>
      <trkpt lat="57.853073012083769" lon="-5.473633976653218">
        <ele>97.230000000000004</ele>
        <time>2019-09-04T08:39:14Z</time>
      </trkpt>
      <trkpt lat="57.85303495824337" lon="-5.473904041573405">
        <ele>99.150000000000006</ele>
        <time>2019-09-04T08:39:15Z</time>
      </trkpt>
      <trkpt lat="57.852996988222003" lon="-5.474174022674561">
        <ele>101.08</ele>
        <time>2019-09-04T08:39:16Z</time>
      </trkpt>
      <trkpt lat="57.852961029857397" lon="-5.474435035139322">
        <ele>103</ele>
        <time>2019-09-04T08:39:17Z</time>
      </trkpt>
      <trkpt lat="57.852644026279449" lon="-5.475970013067126">
        <ele>104.92</ele>
        <time>2019-09-04T08:39:23Z</time>
      </trkpt>
      <trkpt lat="57.852545036002994" lon="-5.476221973076463">
        <ele>104.44</ele>
        <time>2019-09-04T08:39:24Z</time>
      </trkpt>
      <trkpt lat="57.852440010756254" lon="-5.476460019126535">
        <ele>103.95999999999999</ele>
        <time>2019-09-04T08:39:25Z</time>
      </trkpt>
      <trkpt lat="57.851562006399035" lon="-5.478161964565516">
        <ele>92.900000000000006</ele>
        <time>2019-09-04T08:39:33Z</time>
      </trkpt>
      <trkpt lat="57.851472990587354" lon="-5.478410990908742">
        <ele>91.459999999999994</ele>
        <time>2019-09-04T08:39:34Z</time>
      </trkpt>
      <trkpt lat="57.85139998421073" lon="-5.478667980059981">
        <ele>90.019999999999996</ele>
        <time>2019-09-04T08:39:35Z</time>
      </trkpt>
      <trkpt lat="57.851368971168995" lon="-5.478933015838265">
        <ele>88.579999999999998</ele>
        <time>2019-09-04T08:39:36Z</time>
      </trkpt>
      <trkpt lat="57.851343993097544" lon="-5.479152034968138">
        <ele>87.140000000000001</ele>
        <time>2019-09-04T08:39:37Z</time>
      </trkpt>
      <trkpt lat="57.851386992260814" lon="-5.479446994140744">
        <ele>85.689999999999998</ele>
        <time>2019-09-04T08:39:38Z</time>
      </trkpt>
      <trkpt lat="57.851424962282181" lon="-5.479697026312351">
        <ele>84.25</ele>
        <time>2019-09-04T08:39:39Z</time>
      </trkpt>
      <trkpt lat="57.851500986143947" lon="-5.479914033785462">
        <ele>82.810000000000002</ele>
        <time>2019-09-04T08:39:40Z</time>
      </trkpt>
      <trkpt lat="57.851588996127248" lon="-5.480130035430193">
        <ele>81.849999999999994</ele>
        <time>2019-09-04T08:39:41Z</time>
      </trkpt>
      <trkpt lat="57.851707013323903" lon="-5.480287028476596">
        <ele>80.890000000000001</ele>
        <time>2019-09-04T08:39:42Z</time>
      </trkpt>
      <trkpt lat="57.85183098167181" lon="-5.480406973510981">
        <ele>79.930000000000007</ele>
        <time>2019-09-04T08:39:43Z</time>
      </trkpt>
      <trkpt lat="57.851961990818381" lon="-5.480476962402463">
        <ele>79.450000000000003</ele>
        <time>2019-09-04T08:39:44Z</time>
      </trkpt>
      <trkpt lat="57.852089982479811" lon="-5.4805320315063">
        <ele>78.480000000000004</ele>
        <time>2019-09-04T08:39:45Z</time>
      </trkpt>
      <trkpt lat="57.852223003283143" lon="-5.480556003749371">
        <ele>78</ele>
        <time>2019-09-04T08:39:46Z</time>
      </trkpt>
      <trkpt lat="57.852359963580966" lon="-5.480580981820822">
        <ele>77.519999999999996</ele>
        <time>2019-09-04T08:39:47Z</time>
      </trkpt>
      <trkpt lat="57.853106958791614" lon="-5.480778040364385">
        <ele>74.159999999999997</ele>
        <time>2019-09-04T08:39:52Z</time>
      </trkpt>
      <trkpt lat="57.853250959888101" lon="-5.480877030640841">
        <ele>73.200000000000003</ele>
        <time>2019-09-04T08:39:53Z</time>
      </trkpt>
      <trkpt lat="57.853377023711801" lon="-5.481039974838495">
        <ele>72.719999999999999</ele>
        <time>2019-09-04T08:39:54Z</time>
      </trkpt>
      <trkpt lat="57.853501997888088" lon="-5.481200991198421">
        <ele>71.760000000000005</ele>
        <time>2019-09-04T08:39:55Z</time>
      </trkpt>
      <trkpt lat="57.853576010093093" lon="-5.481412969529629">
        <ele>70.790000000000006</ele>
        <time>2019-09-04T08:39:56Z</time>
      </trkpt>
      <trkpt lat="57.853653039783239" lon="-5.48165000975132">
        <ele>69.829999999999998</ele>
        <time>2019-09-04T08:39:57Z</time>
      </trkpt>
      <trkpt lat="57.853733003139496" lon="-5.481897024437785">
        <ele>68.870000000000005</ele>
        <time>2019-09-04T08:39:58Z</time>
      </trkpt>
      <trkpt lat="57.853788994252682" lon="-5.482161976397038">
        <ele>67.909999999999997</ele>
        <time>2019-09-04T08:39:59Z</time>
      </trkpt>
      <trkpt lat="57.853826964274049" lon="-5.482458025217056">
        <ele>66.469999999999999</ele>
        <time>2019-09-04T08:40:00Z</time>
      </trkpt>
      <trkpt lat="57.853992003947496" lon="-5.48390599898994">
        <ele>60.700000000000003</ele>
        <time>2019-09-04T08:40:05Z</time>
      </trkpt>
      <trkpt lat="57.85400097258389" lon="-5.484189977869391">
        <ele>59.259999999999998</ele>
        <time>2019-09-04T08:40:06Z</time>
      </trkpt>
      <trkpt lat="57.853979011997581" lon="-5.484446967020631">
        <ele>58.299999999999997</ele>
        <time>2019-09-04T08:40:07Z</time>
      </trkpt>
      <trkpt lat="57.853939030319452" lon="-5.484707979485393">
        <ele>56.859999999999999</ele>
        <time>2019-09-04T08:40:08Z</time>
      </trkpt>
      <trkpt lat="57.853897958993912" lon="-5.484973015263677">
        <ele>55.890000000000001</ele>
        <time>2019-09-04T08:40:09Z</time>
      </trkpt>
      <trkpt lat="57.853840040042996" lon="-5.485242996364832">
        <ele>55.409999999999997</ele>
        <time>2019-09-04T08:40:10Z</time>
      </trkpt>
      <trkpt lat="57.85376301035285" lon="-5.485510965809226">
        <ele>54.450000000000003</ele>
        <time>2019-09-04T08:40:11Z</time>
      </trkpt>
      <trkpt lat="57.853461010381579" lon="-5.486568007618189">
        <ele>52.049999999999997</ele>
        <time>2019-09-04T08:40:15Z</time>
      </trkpt>
      <trkpt lat="57.853432008996606" lon="-5.486859027296305">
        <ele>51.090000000000003</ele>
        <time>2019-09-04T08:40:16Z</time>
      </trkpt>
      <trkpt lat="57.853413987904787" lon="-5.487146023660898">
        <ele>50.130000000000003</ele>
        <time>2019-09-04T08:40:17Z</time>
      </trkpt>
      <trkpt lat="57.853423962369561" lon="-5.487436037510634">
        <ele>49.159999999999997</ele>
        <time>2019-09-04T08:40:18Z</time>
      </trkpt>
      <trkpt lat="57.853467967361212" lon="-5.487721022218466">
        <ele>48.200000000000003</ele>
        <time>2019-09-04T08:40:19Z</time>
      </trkpt>
      <trkpt lat="57.853535022586584" lon="-5.487995026633143">
        <ele>47.240000000000002</ele>
        <time>2019-09-04T08:40:20Z</time>
      </trkpt>
      <trkpt lat="57.853625966235995" lon="-5.488259978592396">
        <ele>46.280000000000001</ele>
        <time>2019-09-04T08:40:21Z</time>
      </trkpt>
      <trkpt lat="57.85372001118958" lon="-5.488531971350312">
        <ele>45.32</ele>
        <time>2019-09-04T08:40:22Z</time>
      </trkpt>
      <trkpt lat="57.853897036984563" lon="-5.489044021815062">
        <ele>43.880000000000003</ele>
        <time>2019-09-04T08:40:24Z</time>
      </trkpt>
      <trkpt lat="57.854007007554173" lon="-5.489253988489509">
        <ele>43.399999999999999</ele>
        <time>2019-09-04T08:40:25Z</time>
      </trkpt>
      <trkpt lat="57.854113038629293" lon="-5.489458004012704">
        <ele>42.920000000000002</ele>
        <time>2019-09-04T08:40:26Z</time>
      </trkpt>
      <trkpt lat="57.854230972006917" lon="-5.489593958482146">
        <ele>42.439999999999998</ele>
        <time>2019-09-04T08:40:27Z</time>
      </trkpt>
      <trkpt lat="57.854371033608913" lon="-5.489697977900505">
        <ele>41.950000000000003</ele>
        <time>2019-09-04T08:40:28Z</time>
      </trkpt>
      <trkpt lat="57.85451696254313" lon="-5.489806020632386">
        <ele>41.469999999999999</ele>
        <time>2019-09-04T08:40:29Z</time>
      </trkpt>
      <trkpt lat="57.854671021923423" lon="-5.489912973716855">
        <ele>41.469999999999999</ele>
        <time>2019-09-04T08:40:30Z</time>
      </trkpt>
      <trkpt lat="57.854835977777839" lon="-5.48998698592186">
        <ele>41.469999999999999</ele>
        <time>2019-09-04T08:40:31Z</time>
      </trkpt>
      <trkpt lat="57.856058981269598" lon="-5.490785026922822">
        <ele>46.759999999999998</ele>
        <time>2019-09-04T08:40:39Z</time>
      </trkpt>
      <trkpt lat="57.857737960293889" lon="-5.492294020950794">
        <ele>52.530000000000001</ele>
        <time>2019-09-04T08:40:50Z</time>
      </trkpt>
      <trkpt lat="57.858537007123232" lon="-5.49342499114573">
        <ele>53.969999999999999</ele>
        <time>2019-09-04T08:40:56Z</time>
      </trkpt>
      <trkpt lat="57.85913597792387" lon="-5.495192985981703">
        <ele>49.159999999999997</ele>
        <time>2019-09-04T08:41:02Z</time>
      </trkpt>
      <trkpt lat="57.860078020021319" lon="-5.499355020001531">
        <ele>27.050000000000001</ele>
        <time>2019-09-04T08:41:14Z</time>
      </trkpt>
      <trkpt lat="57.860522009432316" lon="-5.502456994727254">
        <ele>19.84</ele>
        <time>2019-09-04T08:41:23Z</time>
      </trkpt>
      <trkpt lat="57.860656036064029" lon="-5.505527034401894">
        <ele>20.32</ele>
        <time>2019-09-04T08:41:32Z</time>
      </trkpt>
      <trkpt lat="57.860830966383219" lon="-5.508103966712952">
        <ele>26.57</ele>
        <time>2019-09-04T08:41:39Z</time>
      </trkpt>
      <trkpt lat="57.861507972702384" lon="-5.510860020294786">
        <ele>32.82</ele>
        <time>2019-09-04T08:41:47Z</time>
      </trkpt>
      <trkpt lat="57.862408021464944" lon="-5.51245903596282">
        <ele>33.780000000000001</ele>
        <time>2019-09-04T08:41:53Z</time>
      </trkpt>
      <trkpt lat="57.862785961478949" lon="-5.513193961232901">
        <ele>33.299999999999997</ele>
        <time>2019-09-04T08:41:56Z</time>
      </trkpt>
      <trkpt lat="57.862896015867591" lon="-5.513466959819198">
        <ele>33.299999999999997</ele>
        <time>2019-09-04T08:41:57Z</time>
      </trkpt>
      <trkpt lat="57.862995006144047" lon="-5.513768959790468">
        <ele>33.299999999999997</ele>
        <time>2019-09-04T08:41:58Z</time>
      </trkpt>
      <trkpt lat="57.863844009116292" lon="-5.516731962561607">
        <ele>34.259999999999998</ele>
        <time>2019-09-04T08:42:07Z</time>
      </trkpt>
      <trkpt lat="57.864194959402084" lon="-5.519575020298362">
        <ele>33.780000000000001</ele>
        <time>2019-09-04T08:42:15Z</time>
      </trkpt>
      <trkpt lat="57.864175010472536" lon="-5.519903004169464">
        <ele>32.82</ele>
        <time>2019-09-04T08:42:16Z</time>
      </trkpt>
      <trkpt lat="57.864153971895576" lon="-5.520243979990482">
        <ele>31.859999999999999</ele>
        <time>2019-09-04T08:42:17Z</time>
      </trkpt>
      <trkpt lat="57.863961020484567" lon="-5.522155975922942">
        <ele>26.09</ele>
        <time>2019-09-04T08:42:24Z</time>
      </trkpt>
      <trkpt lat="57.863961020484567" lon="-5.522398967295885">
        <ele>25.129999999999999</ele>
        <time>2019-09-04T08:42:25Z</time>
      </trkpt>
      <trkpt lat="57.864010976627469" lon="-5.522613041102886">
        <ele>24.649999999999999</ele>
        <time>2019-09-04T08:42:26Z</time>
      </trkpt>
      <trkpt lat="57.864066967740655" lon="-5.522834993898869">
        <ele>24.170000000000002</ele>
        <time>2019-09-04T08:42:27Z</time>
      </trkpt>
      <trkpt lat="57.864153971895576" lon="-5.523024005815387">
        <ele>23.690000000000001</ele>
        <time>2019-09-04T08:42:28Z</time>
      </trkpt>
      <trkpt lat="57.864249022677541" lon="-5.523227015510202">
        <ele>23.210000000000001</ele>
        <time>2019-09-04T08:42:29Z</time>
      </trkpt>
      <trkpt lat="57.864348012953997" lon="-5.523442011326551">
        <ele>22.73</ele>
        <time>2019-09-04T08:42:30Z</time>
      </trkpt>
      <trkpt lat="57.864856040105224" lon="-5.524674989283085">
        <ele>22.73</ele>
        <time>2019-09-04T08:42:35Z</time>
      </trkpt>
      <trkpt lat="57.86493600346148" lon="-5.524957962334156">
        <ele>23.210000000000001</ele>
        <time>2019-09-04T08:42:36Z</time>
      </trkpt>
      <trkpt lat="57.86499802954495" lon="-5.525249987840653">
        <ele>23.210000000000001</ele>
        <time>2019-09-04T08:42:37Z</time>
      </trkpt>
      <trkpt lat="57.865606974810362" lon="-5.528946993872523">
        <ele>14.08</ele>
        <time>2019-09-04T08:42:48Z</time>
      </trkpt>
      <trkpt lat="57.866254979744554" lon="-5.532445013523102">
        <ele>11.67</ele>
        <time>2019-09-04T08:42:59Z</time>
      </trkpt>
      <trkpt lat="57.866668039932847" lon="-5.534434961155057">
        <ele>11.67</ele>
        <time>2019-09-04T08:43:06Z</time>
      </trkpt>
      <trkpt lat="57.866682037711143" lon="-5.534707037732005">
        <ele>11.67</ele>
        <time>2019-09-04T08:43:07Z</time>
      </trkpt>
      <trkpt lat="57.866671979427338" lon="-5.534989004954696">
        <ele>11.67</ele>
        <time>2019-09-04T08:43:08Z</time>
      </trkpt>
      <trkpt lat="57.866660999134183" lon="-5.535269966349006">
        <ele>11.67</ele>
        <time>2019-09-04T08:43:09Z</time>
      </trkpt>
      <trkpt lat="57.866651024669409" lon="-5.535542964935303">
        <ele>11.19</ele>
        <time>2019-09-04T08:43:10Z</time>
      </trkpt>
      <trkpt lat="57.866338966414332" lon="-5.538170021027327">
        <ele>8.789999999999999</ele>
        <time>2019-09-04T08:43:20Z</time>
      </trkpt>
      <trkpt lat="57.866293033584952" lon="-5.538423992693424">
        <ele>8.789999999999999</ele>
        <time>2019-09-04T08:43:21Z</time>
      </trkpt>
      <trkpt lat="57.866232013329864" lon="-5.538666984066367">
        <ele>8.310000000000001</ele>
        <time>2019-09-04T08:43:22Z</time>
      </trkpt>
      <trkpt lat="57.865479988977313" lon="-5.540577974170446">
        <ele>12.630000000000001</ele>
        <time>2019-09-04T08:43:31Z</time>
      </trkpt>
      <trkpt lat="57.864357987418771" lon="-5.542493993416429">
        <ele>21.289999999999999</ele>
        <time>2019-09-04T08:43:41Z</time>
      </trkpt>
      <trkpt lat="57.863004980608821" lon="-5.544315967708826">
        <ele>30.899999999999999</ele>
        <time>2019-09-04T08:43:51Z</time>
      </trkpt>
      <trkpt lat="57.861304963007569" lon="-5.546739008277655">
        <ele>39.07</ele>
        <time>2019-09-04T08:44:04Z</time>
      </trkpt>
      <trkpt lat="57.860024040564895" lon="-5.549232037737966">
        <ele>40.030000000000001</ele>
        <time>2019-09-04T08:44:15Z</time>
      </trkpt>
      <trkpt lat="57.859893031418324" lon="-5.549439992755652">
        <ele>40.030000000000001</ele>
        <time>2019-09-04T08:44:16Z</time>
      </trkpt>
      <trkpt lat="57.859777025878429" lon="-5.549619030207396">
        <ele>40.030000000000001</ele>
        <time>2019-09-04T08:44:17Z</time>
      </trkpt>
      <trkpt lat="57.859618021175265" lon="-5.54977803491056">
        <ele>40.509999999999998</ele>
        <time>2019-09-04T08:44:18Z</time>
      </trkpt>
      <trkpt lat="57.859471002593637" lon="-5.549924969673157">
        <ele>40.990000000000002</ele>
        <time>2019-09-04T08:44:19Z</time>
      </trkpt>
      <trkpt lat="57.859319038689137" lon="-5.55003703571856">
        <ele>41.469999999999999</ele>
        <time>2019-09-04T08:44:20Z</time>
      </trkpt>
      <trkpt lat="57.859167996793985" lon="-5.550135020166636">
        <ele>41.950000000000003</ele>
        <time>2019-09-04T08:44:21Z</time>
      </trkpt>
      <trkpt lat="57.857679035514593" lon="-5.551100028678775">
        <ele>47.240000000000002</ele>
        <time>2019-09-04T08:44:31Z</time>
      </trkpt>
      <trkpt lat="57.855871981009841" lon="-5.552574992179871">
        <ele>53.969999999999999</ele>
        <time>2019-09-04T08:44:42Z</time>
      </trkpt>
      <trkpt lat="57.854760037735105" lon="-5.553628010675311">
        <ele>54.93</ele>
        <time>2019-09-04T08:44:49Z</time>
      </trkpt>
      <trkpt lat="57.854596003890038" lon="-5.553696993738413">
        <ele>54.93</ele>
        <time>2019-09-04T08:44:50Z</time>
      </trkpt>
      <trkpt lat="57.853277027606964" lon="-5.554175013676286">
        <ele>57.340000000000003</ele>
        <time>2019-09-04T08:44:58Z</time>
      </trkpt>
      <trkpt lat="57.853122968226671" lon="-5.55429101921618">
        <ele>57.82</ele>
        <time>2019-09-04T08:44:59Z</time>
      </trkpt>
      <trkpt lat="57.852983996272087" lon="-5.554468967020512">
        <ele>58.299999999999997</ele>
        <time>2019-09-04T08:45:00Z</time>
      </trkpt>
      <trkpt lat="57.851440971717238" lon="-5.556454975157976">
        <ele>62.619999999999997</ele>
        <time>2019-09-04T08:45:10Z</time>
      </trkpt>
      <trkpt lat="57.850058041512966" lon="-5.558134960010648">
        <ele>68.390000000000001</ele>
        <time>2019-09-04T08:45:19Z</time>
      </trkpt>
      <trkpt lat="57.849882021546364" lon="-5.558222969993949">
        <ele>68.870000000000005</ele>
        <time>2019-09-04T08:45:20Z</time>
      </trkpt>
      <trkpt lat="57.848107991740108" lon="-5.558954039588571">
        <ele>69.829999999999998</ele>
        <time>2019-09-04T08:45:29Z</time>
      </trkpt>
      <trkpt lat="57.847511032596231" lon="-5.559293003752828">
        <ele>69.349999999999994</ele>
        <time>2019-09-04T08:45:32Z</time>
      </trkpt>
      <trkpt lat="57.847314979881048" lon="-5.559425018727779">
        <ele>68.870000000000005</ele>
        <time>2019-09-04T08:45:33Z</time>
      </trkpt>
      <trkpt lat="57.847143989056349" lon="-5.559644959867001">
        <ele>68.870000000000005</ele>
        <time>2019-09-04T08:45:34Z</time>
      </trkpt>
      <trkpt lat="57.846970986574888" lon="-5.559868002310395">
        <ele>68.870000000000005</ele>
        <time>2019-09-04T08:45:35Z</time>
      </trkpt>
      <trkpt lat="57.846796978265047" lon="-5.560092972591519">
        <ele>68.390000000000001</ele>
        <time>2019-09-04T08:45:36Z</time>
      </trkpt>
      <trkpt lat="57.845323020592332" lon="-5.561744961887598">
        <ele>65.030000000000001</ele>
        <time>2019-09-04T08:45:44Z</time>
      </trkpt>
      <trkpt lat="57.843777984380722" lon="-5.563398962840438">
        <ele>59.259999999999998</ele>
        <time>2019-09-04T08:45:53Z</time>
      </trkpt>
      <trkpt lat="57.843627026304603" lon="-5.563670033589006">
        <ele>58.299999999999997</ele>
        <time>2019-09-04T08:45:54Z</time>
      </trkpt>
      <trkpt lat="57.84349299967289" lon="-5.563969016075134">
        <ele>57.340000000000003</ele>
        <time>2019-09-04T08:45:55Z</time>
      </trkpt>
      <trkpt lat="57.843069965019822" lon="-5.564817013218999">
        <ele>53.969999999999999</ele>
        <time>2019-09-04T08:45:58Z</time>
      </trkpt>
      <trkpt lat="57.842916995286942" lon="-5.5650569871068">
        <ele>53.009999999999998</ele>
        <time>2019-09-04T08:45:59Z</time>
      </trkpt>
      <trkpt lat="57.842748016119003" lon="-5.565242981538177">
        <ele>52.530000000000001</ele>
        <time>2019-09-04T08:46:00Z</time>
      </trkpt>
      <trkpt lat="57.842565961182117" lon="-5.565408021211624">
        <ele>51.57</ele>
        <time>2019-09-04T08:46:01Z</time>
      </trkpt>
      <trkpt lat="57.842382984235883" lon="-5.565574988722801">
        <ele>51.090000000000003</ele>
        <time>2019-09-04T08:46:02Z</time>
      </trkpt>
      <trkpt lat="57.840482974424958" lon="-5.567535012960434">
        <ele>47.240000000000002</ele>
        <time>2019-09-04T08:46:13Z</time>
      </trkpt>
      <trkpt lat="57.840106962248683" lon="-5.568284019827843">
        <ele>46.280000000000001</ele>
        <time>2019-09-04T08:46:16Z</time>
      </trkpt>
      <trkpt lat="57.840005038306117" lon="-5.568577973172069">
        <ele>45.32</ele>
        <time>2019-09-04T08:46:17Z</time>
      </trkpt>
      <trkpt lat="57.839914010837674" lon="-5.568877961486578">
        <ele>44.359999999999999</ele>
        <time>2019-09-04T08:46:18Z</time>
      </trkpt>
      <trkpt lat="57.839833041653037" lon="-5.569190019741654">
        <ele>43.399999999999999</ele>
        <time>2019-09-04T08:46:19Z</time>
      </trkpt>
      <trkpt lat="57.839762968942523" lon="-5.569511968642473">
        <ele>42.439999999999998</ele>
        <time>2019-09-04T08:46:20Z</time>
      </trkpt>
      <trkpt lat="57.839716030284762" lon="-5.569850010797381">
        <ele>40.990000000000002</ele>
        <time>2019-09-04T08:46:21Z</time>
      </trkpt>
      <trkpt lat="57.839671019464731" lon="-5.570175983011723">
        <ele>40.030000000000001</ele>
        <time>2019-09-04T08:46:22Z</time>
      </trkpt>
      <trkpt lat="57.839647969231009" lon="-5.570539003238082">
        <ele>38.590000000000003</ele>
        <time>2019-09-04T08:46:23Z</time>
      </trkpt>
      <trkpt lat="57.8396260086447" lon="-5.570893976837397">
        <ele>37.149999999999999</ele>
        <time>2019-09-04T08:46:24Z</time>
      </trkpt>
      <trkpt lat="57.839444037526846" lon="-5.57328499853611">
        <ele>28.5</ele>
        <time>2019-09-04T08:46:31Z</time>
      </trkpt>
      <trkpt lat="57.839401960372925" lon="-5.573580041527748">
        <ele>27.050000000000001</ele>
        <time>2019-09-04T08:46:32Z</time>
      </trkpt>
      <trkpt lat="57.839356027543545" lon="-5.573841976001859">
        <ele>26.09</ele>
        <time>2019-09-04T08:46:33Z</time>
      </trkpt>
      <trkpt lat="57.839271035045385" lon="-5.574071975424886">
        <ele>25.129999999999999</ele>
        <time>2019-09-04T08:46:34Z</time>
      </trkpt>
      <trkpt lat="57.839185958728194" lon="-5.574299041181803">
        <ele>24.649999999999999</ele>
        <time>2019-09-04T08:46:35Z</time>
      </trkpt>
      <trkpt lat="57.839085962623358" lon="-5.574498027563095">
        <ele>24.170000000000002</ele>
        <time>2019-09-04T08:46:36Z</time>
      </trkpt>
      <trkpt lat="57.838973980396986" lon="-5.574684021994472">
        <ele>23.690000000000001</ele>
        <time>2019-09-04T08:46:37Z</time>
      </trkpt>
      <trkpt lat="57.838865015655756" lon="-5.574865993112326">
        <ele>23.690000000000001</ele>
        <time>2019-09-04T08:46:38Z</time>
      </trkpt>
      <trkpt lat="57.838119026273489" lon="-5.576232997700572">
        <ele>24.170000000000002</ele>
        <time>2019-09-04T08:46:45Z</time>
      </trkpt>
      <trkpt lat="57.838035961613059" lon="-5.57648797519505">
        <ele>23.690000000000001</ele>
        <time>2019-09-04T08:46:46Z</time>
      </trkpt>
      <trkpt lat="57.83795197494328" lon="-5.576750999316573">
        <ele>23.690000000000001</ele>
        <time>2019-09-04T08:46:47Z</time>
      </trkpt>
      <trkpt lat="57.837893972173333" lon="-5.577037995681167">
        <ele>23.210000000000001</ele>
        <time>2019-09-04T08:46:48Z</time>
      </trkpt>
      <trkpt lat="57.837834963575006" lon="-5.577329015359283">
        <ele>22.73</ele>
        <time>2019-09-04T08:46:49Z</time>
      </trkpt>
      <trkpt lat="57.837719963863492" lon="-5.577894961461425">
        <ele>22.25</ele>
        <time>2019-09-04T08:46:51Z</time>
      </trkpt>
      <trkpt lat="57.837653998285532" lon="-5.578158991411328">
        <ele>21.289999999999999</ele>
        <time>2019-09-04T08:46:52Z</time>
      </trkpt>
      <trkpt lat="57.837550984695554" lon="-5.578374993056059">
        <ele>20.809999999999999</ele>
        <time>2019-09-04T08:46:53Z</time>
      </trkpt>
      <trkpt lat="57.837454006075859" lon="-5.578576996922493">
        <ele>19.84</ele>
        <time>2019-09-04T08:46:54Z</time>
      </trkpt>
      <trkpt lat="57.837322996929288" lon="-5.578699037432671">
        <ele>19.359999999999999</ele>
        <time>2019-09-04T08:46:55Z</time>
      </trkpt>
      <trkpt lat="57.837185030803084" lon="-5.578805990517139">
        <ele>18.399999999999999</ele>
        <time>2019-09-04T08:46:56Z</time>
      </trkpt>
      <trkpt lat="57.837031977251172" lon="-5.578917972743511">
        <ele>17.440000000000001</ele>
        <time>2019-09-04T08:46:57Z</time>
      </trkpt>
      <trkpt lat="57.835676036775112" lon="-5.579531025141478">
        <ele>15.039999999999999</ele>
        <time>2019-09-04T08:47:05Z</time>
      </trkpt>
      <trkpt lat="57.834197971969843" lon="-5.580025976523757">
        <ele>16.48</ele>
        <time>2019-09-04T08:47:14Z</time>
      </trkpt>
      <trkpt lat="57.832161001861095" lon="-5.580129995942116">
        <ele>18.399999999999999</ele>
        <time>2019-09-04T08:47:25Z</time>
      </trkpt>
      <trkpt lat="57.831995962187648" lon="-5.580110969021916">
        <ele>18.879999999999999</ele>
        <time>2019-09-04T08:47:26Z</time>
      </trkpt>
      <trkpt lat="57.831852966919541" lon="-5.580027988180518">
        <ele>19.359999999999999</ele>
        <time>2019-09-04T08:47:27Z</time>
      </trkpt>
      <trkpt lat="57.831724975258112" lon="-5.579918017610908">
        <ele>20.32</ele>
        <time>2019-09-04T08:47:28Z</time>
      </trkpt>
      <trkpt lat="57.831613998860121" lon="-5.579751972109079">
        <ele>21.289999999999999</ele>
        <time>2019-09-04T08:47:29Z</time>
      </trkpt>
      <trkpt lat="57.831555996090174" lon="-5.579542005434632">
        <ele>21.77</ele>
        <time>2019-09-04T08:47:30Z</time>
      </trkpt>
      <trkpt lat="57.831520959734917" lon="-5.579294990748167">
        <ele>22.73</ele>
        <time>2019-09-04T08:47:31Z</time>
      </trkpt>
      <trkpt lat="57.831530012190342" lon="-5.579057028517127">
        <ele>23.690000000000001</ele>
        <time>2019-09-04T08:47:32Z</time>
      </trkpt>
      <trkpt lat="57.831555996090174" lon="-5.578779000788927">
        <ele>24.649999999999999</ele>
        <time>2019-09-04T08:47:33Z</time>
      </trkpt>
      <trkpt lat="57.831626990810037" lon="-5.578518994152546">
        <ele>25.609999999999999</ele>
        <time>2019-09-04T08:47:34Z</time>
      </trkpt>
      <trkpt lat="57.831706032156944" lon="-5.578231997787952">
        <ele>26.57</ele>
        <time>2019-09-04T08:47:35Z</time>
      </trkpt>
      <trkpt lat="57.832164019346237" lon="-5.576532986015081">
        <ele>32.82</ele>
        <time>2019-09-04T08:47:41Z</time>
      </trkpt>
      <trkpt lat="57.832181034609675" lon="-5.576302986592054">
        <ele>33.299999999999997</ele>
        <time>2019-09-04T08:47:42Z</time>
      </trkpt>
      <trkpt lat="57.83217198215425" lon="-5.576098971068859">
        <ele>33.780000000000001</ele>
        <time>2019-09-04T08:47:43Z</time>
      </trkpt>
      <trkpt lat="57.832162007689476" lon="-5.575912976637483">
        <ele>33.780000000000001</ele>
        <time>2019-09-04T08:47:44Z</time>
      </trkpt>
      <trkpt lat="57.832101993262768" lon="-5.575810968875885">
        <ele>34.259999999999998</ele>
        <time>2019-09-04T08:47:45Z</time>
      </trkpt>
      <trkpt lat="57.832026975229383" lon="-5.575721031054854">
        <ele>34.740000000000002</ele>
        <time>2019-09-04T08:47:46Z</time>
      </trkpt>
      <trkpt lat="57.83195598050952" lon="-5.57564701884985">
        <ele>35.229999999999997</ele>
        <time>2019-09-04T08:47:47Z</time>
      </trkpt>
      <trkpt lat="57.831859001889825" lon="-5.57564701884985">
        <ele>35.710000000000001</ele>
        <time>2019-09-04T08:47:48Z</time>
      </trkpt>
      <trkpt lat="57.831770991906524" lon="-5.575688006356359">
        <ele>35.710000000000001</ele>
        <time>2019-09-04T08:47:49Z</time>
      </trkpt>
      <trkpt lat="57.831674013286829" lon="-5.575775010511279">
        <ele>36.189999999999998</ele>
        <time>2019-09-04T08:47:50Z</time>
      </trkpt>
      <trkpt lat="57.831583991646767" lon="-5.575910964980722">
        <ele>37.149999999999999</ele>
        <time>2019-09-04T08:47:51Z</time>
      </trkpt>
      <trkpt lat="57.831497993320227" lon="-5.576104000210762">
        <ele>37.630000000000003</ele>
        <time>2019-09-04T08:47:52Z</time>
      </trkpt>
      <trkpt lat="57.831402020528913" lon="-5.576322013512254">
        <ele>38.109999999999999</ele>
        <time>2019-09-04T08:47:53Z</time>
      </trkpt>
      <trkpt lat="57.830673968419433" lon="-5.577966962009668">
        <ele>45.799999999999997</ele>
        <time>2019-09-04T08:48:00Z</time>
      </trkpt>
      <trkpt lat="57.830561986193061" lon="-5.5781190097332">
        <ele>46.759999999999998</ele>
        <time>2019-09-04T08:48:01Z</time>
      </trkpt>
      <trkpt lat="57.830441035330296" lon="-5.578229986131191">
        <ele>47.240000000000002</ele>
        <time>2019-09-04T08:48:02Z</time>
      </trkpt>
      <trkpt lat="57.830298040062189" lon="-5.57831103913486">
        <ele>47.719999999999999</ele>
        <time>2019-09-04T08:48:03Z</time>
      </trkpt>
      <trkpt lat="57.830139035359025" lon="-5.578358983621001">
        <ele>48.68</ele>
        <time>2019-09-04T08:48:04Z</time>
      </trkpt>
      <trkpt lat="57.829820020124316" lon="-5.578408017754555">
        <ele>50.130000000000003</ele>
        <time>2019-09-04T08:48:06Z</time>
      </trkpt>
      <trkpt lat="57.829669984057546" lon="-5.57839896529913">
        <ele>50.609999999999999</ele>
        <time>2019-09-04T08:48:07Z</time>
      </trkpt>
      <trkpt lat="57.829525982961059" lon="-5.57835303246975">
        <ele>51.090000000000003</ele>
        <time>2019-09-04T08:48:08Z</time>
      </trkpt>
      <trkpt lat="57.829382987692952" lon="-5.578253958374262">
        <ele>52.049999999999997</ele>
        <time>2019-09-04T08:48:09Z</time>
      </trkpt>
      <trkpt lat="57.829233035445213" lon="-5.578151028603315">
        <ele>52.530000000000001</ele>
        <time>2019-09-04T08:48:10Z</time>
      </trkpt>
      <trkpt lat="57.828904967755079" lon="-5.577945001423359">
        <ele>53.969999999999999</ele>
        <time>2019-09-04T08:48:12Z</time>
      </trkpt>
      <trkpt lat="57.828721990808845" lon="-5.57788398116827">
        <ele>54.450000000000003</ele>
        <time>2019-09-04T08:48:13Z</time>
      </trkpt>
      <trkpt lat="57.828528033569455" lon="-5.577859003096819">
        <ele>55.409999999999997</ele>
        <time>2019-09-04T08:48:14Z</time>
      </trkpt>
      <trkpt lat="57.826730031520128" lon="-5.577660016715527">
        <ele>65.510000000000005</ele>
        <time>2019-09-04T08:48:23Z</time>
      </trkpt>
      <trkpt lat="57.826173976063728" lon="-5.577587010338903">
        <ele>68.870000000000005</ele>
        <time>2019-09-04T08:48:26Z</time>
      </trkpt>
      <trkpt lat="57.826002985239029" lon="-5.577487014234066">
        <ele>69.829999999999998</ele>
        <time>2019-09-04T08:48:27Z</time>
      </trkpt>
      <trkpt lat="57.825830988585949" lon="-5.577385006472468">
        <ele>71.269999999999996</ele>
        <time>2019-09-04T08:48:28Z</time>
      </trkpt>
      <trkpt lat="57.82568296417594" lon="-5.57726196013391">
        <ele>72.239999999999995</ele>
        <time>2019-09-04T08:48:29Z</time>
      </trkpt>
      <trkpt lat="57.82553100027144" lon="-5.577133968472481">
        <ele>73.680000000000007</ele>
        <time>2019-09-04T08:48:30Z</time>
      </trkpt>
      <trkpt lat="57.825235035270452" lon="-5.576886031776667">
        <ele>76.560000000000002</ele>
        <time>2019-09-04T08:48:32Z</time>
      </trkpt>
      <trkpt lat="57.825089022517204" lon="-5.576815959066153">
        <ele>78</ele>
        <time>2019-09-04T08:48:33Z</time>
      </trkpt>
      <trkpt lat="57.824947033077478" lon="-5.576795004308224">
        <ele>78.969999999999999</ele>
        <time>2019-09-04T08:48:34Z</time>
      </trkpt>
      <trkpt lat="57.824817029759288" lon="-5.576775977388024">
        <ele>79.450000000000003</ele>
        <time>2019-09-04T08:48:35Z</time>
      </trkpt>
      <trkpt lat="57.82469498924911" lon="-5.576800033450127">
        <ele>79.930000000000007</ele>
        <time>2019-09-04T08:48:36Z</time>
      </trkpt>
      <trkpt lat="57.824584012851119" lon="-5.576899023726583">
        <ele>80.409999999999997</ele>
        <time>2019-09-04T08:48:37Z</time>
      </trkpt>
      <trkpt lat="57.824470018967986" lon="-5.5770000256598">
        <ele>80.890000000000001</ele>
        <time>2019-09-04T08:48:38Z</time>
      </trkpt>
      <trkpt lat="57.82434999011457" lon="-5.577105972915888">
        <ele>81.370000000000005</ele>
        <time>2019-09-04T08:48:39Z</time>
      </trkpt>
      <trkpt lat="57.82424395903945" lon="-5.57728098705411">
        <ele>81.370000000000005</ele>
        <time>2019-09-04T08:48:40Z</time>
      </trkpt>
      <trkpt lat="57.824129965156317" lon="-5.577471004799008">
        <ele>81.849999999999994</ele>
        <time>2019-09-04T08:48:41Z</time>
      </trkpt>
      <trkpt lat="57.82400700263679" lon="-5.577673008665443">
        <ele>82.329999999999998</ele>
        <time>2019-09-04T08:48:42Z</time>
      </trkpt>
      <trkpt lat="57.82271702773869" lon="-5.579551979899406">
        <ele>85.209999999999994</ele>
        <time>2019-09-04T08:48:51Z</time>
      </trkpt>
      <trkpt lat="57.822270020842552" lon="-5.579969985410571">
        <ele>85.689999999999998</ele>
        <time>2019-09-04T08:48:54Z</time>
      </trkpt>
      <trkpt lat="57.82211696729064" lon="-5.580047015100718">
        <ele>85.689999999999998</ele>
        <time>2019-09-04T08:48:55Z</time>
      </trkpt>
      <trkpt lat="57.821989981457591" lon="-5.580110969021916">
        <ele>85.689999999999998</ele>
        <time>2019-09-04T08:48:56Z</time>
      </trkpt>
      <trkpt lat="57.821804992854595" lon="-5.580099988728762">
        <ele>85.689999999999998</ele>
        <time>2019-09-04T08:48:57Z</time>
      </trkpt>
      <trkpt lat="57.821635007858276" lon="-5.580091020092368">
        <ele>86.180000000000007</ele>
        <time>2019-09-04T08:48:58Z</time>
      </trkpt>
      <trkpt lat="57.821466028690338" lon="-5.580039974302054">
        <ele>86.659999999999997</ele>
        <time>2019-09-04T08:48:59Z</time>
      </trkpt>
      <trkpt lat="57.82129998318851" lon="-5.579980965703726">
        <ele>87.140000000000001</ele>
        <time>2019-09-04T08:49:00Z</time>
      </trkpt>
      <trkpt lat="57.820876026526093" lon="-5.579883987084031">
        <ele>89.060000000000002</ele>
        <time>2019-09-04T08:49:03Z</time>
      </trkpt>
      <trkpt lat="57.820755997672677" lon="-5.579893961548805">
        <ele>89.540000000000006</ele>
        <time>2019-09-04T08:49:04Z</time>
      </trkpt>
      <trkpt lat="57.820647032931447" lon="-5.579981971532106">
        <ele>90.019999999999996</ele>
        <time>2019-09-04T08:49:05Z</time>
      </trkpt>
      <trkpt lat="57.820544019341469" lon="-5.580100994557142">
        <ele>90.5</ele>
        <time>2019-09-04T08:49:06Z</time>
      </trkpt>
      <trkpt lat="57.82043999992311" lon="-5.580248013138771">
        <ele>90.5</ele>
        <time>2019-09-04T08:49:07Z</time>
      </trkpt>
      <trkpt lat="57.820327011868358" lon="-5.580407017841935">
        <ele>90.980000000000004</ele>
        <time>2019-09-04T08:49:08Z</time>
      </trkpt>
      <trkpt lat="57.820208994671702" lon="-5.580571973696351">
        <ele>90.980000000000004</ele>
        <time>2019-09-04T08:49:09Z</time>
      </trkpt>
      <trkpt lat="57.820079997181892" lon="-5.580754028633237">
        <ele>91.459999999999994</ele>
        <time>2019-09-04T08:49:10Z</time>
      </trkpt>
      <trkpt lat="57.819945970550179" lon="-5.580863999202848">
        <ele>91.939999999999998</ele>
        <time>2019-09-04T08:49:11Z</time>
      </trkpt>
      <trkpt lat="57.819475997239351" lon="-5.581245040521026">
        <ele>92.420000000000002</ele>
        <time>2019-09-04T08:49:14Z</time>
      </trkpt>
      <trkpt lat="57.819338031113148" lon="-5.581401027739048">
        <ele>92.420000000000002</ele>
        <time>2019-09-04T08:49:15Z</time>
      </trkpt>
      <trkpt lat="57.819221019744873" lon="-5.581587022170425">
        <ele>92.420000000000002</ele>
        <time>2019-09-04T08:49:16Z</time>
      </trkpt>
      <trkpt lat="57.818887000903487" lon="-5.582093959674239">
        <ele>91.459999999999994</ele>
        <time>2019-09-04T08:49:19Z</time>
      </trkpt>
      <trkpt lat="57.818766972050071" lon="-5.582199990749359">
        <ele>91.459999999999994</ele>
        <time>2019-09-04T08:49:20Z</time>
      </trkpt>
      <trkpt lat="57.818640992045403" lon="-5.582246007397771">
        <ele>90.980000000000004</ele>
        <time>2019-09-04T08:49:21Z</time>
      </trkpt>
      <trkpt lat="57.818503025919199" lon="-5.582263022661209">
        <ele>90.5</ele>
        <time>2019-09-04T08:49:22Z</time>
      </trkpt>
      <trkpt lat="57.818357013165951" lon="-5.582271991297603">
        <ele>90.5</ele>
        <time>2019-09-04T08:49:23Z</time>
      </trkpt>
      <trkpt lat="57.81820303760469" lon="-5.582237960770726">
        <ele>90.5</ele>
        <time>2019-09-04T08:49:24Z</time>
      </trkpt>
      <trkpt lat="57.817919980734587" lon="-5.582147017121315">
        <ele>90.5</ele>
        <time>2019-09-04T08:49:26Z</time>
      </trkpt>
      <trkpt lat="57.817798024043441" lon="-5.582075016573072">
        <ele>90.980000000000004</ele>
        <time>2019-09-04T08:49:27Z</time>
      </trkpt>
      <trkpt lat="57.817691992968321" lon="-5.581977032124996">
        <ele>91.459999999999994</ele>
        <time>2019-09-04T08:49:28Z</time>
      </trkpt>
      <trkpt lat="57.817593002691865" lon="-5.581844011321664">
        <ele>91.939999999999998</ele>
        <time>2019-09-04T08:49:29Z</time>
      </trkpt>
      <trkpt lat="57.817499963566661" lon="-5.581682994961739">
        <ele>92.420000000000002</ele>
        <time>2019-09-04T08:49:30Z</time>
      </trkpt>
      <trkpt lat="57.81741002574563" lon="-5.58149297721684">
        <ele>93.390000000000001</ele>
        <time>2019-09-04T08:49:31Z</time>
      </trkpt>
      <trkpt lat="57.817219002172351" lon="-5.581089975312352">
        <ele>94.829999999999998</ele>
        <time>2019-09-04T08:49:33Z</time>
      </trkpt>
      <trkpt lat="57.816987996920943" lon="-5.580743970349431">
        <ele>97.709999999999994</ele>
        <time>2019-09-04T08:49:35Z</time>
      </trkpt>
      <trkpt lat="57.816861011087894" lon="-5.580581026151776">
        <ele>99.150000000000006</ele>
        <time>2019-09-04T08:49:36Z</time>
      </trkpt>
      <trkpt lat="57.815652005374432" lon="-5.579226007685065">
        <ele>107.31999999999999</ele>
        <time>2019-09-04T08:49:44Z</time>
      </trkpt>
      <trkpt lat="57.814839966595173" lon="-5.578533997759223">
        <ele>110.69</ele>
        <time>2019-09-04T08:49:49Z</time>
      </trkpt>
      <trkpt lat="57.81470300629735" lon="-5.578348003327847">
        <ele>111.65000000000001</ele>
        <time>2019-09-04T08:49:50Z</time>
      </trkpt>
      <trkpt lat="57.814569985494018" lon="-5.578138958662748">
        <ele>112.13</ele>
        <time>2019-09-04T08:49:51Z</time>
      </trkpt>
      <trkpt lat="57.814053995534778" lon="-5.577378971502185">
        <ele>114.05</ele>
        <time>2019-09-04T08:49:55Z</time>
      </trkpt>
      <trkpt lat="57.813943019136786" lon="-5.577257014811039">
        <ele>114.53</ele>
        <time>2019-09-04T08:49:56Z</time>
      </trkpt>
      <trkpt lat="57.813817039132118" lon="-5.577193982899189">
        <ele>114.53</ele>
        <time>2019-09-04T08:49:57Z</time>
      </trkpt>
      <trkpt lat="57.813729029148817" lon="-5.577148972079158">
        <ele>114.05</ele>
        <time>2019-09-04T08:49:58Z</time>
      </trkpt>
      <trkpt lat="57.813606988638639" lon="-5.577235976234078">
        <ele>113.56999999999999</ele>
        <time>2019-09-04T08:49:59Z</time>
      </trkpt>
      <trkpt lat="57.813530964776874" lon="-5.577337983995676">
        <ele>113.09</ele>
        <time>2019-09-04T08:50:00Z</time>
      </trkpt>
      <trkpt lat="57.813445972278714" lon="-5.577483996748924">
        <ele>112.13</ele>
        <time>2019-09-04T08:50:01Z</time>
      </trkpt>
      <trkpt lat="57.81339299865067" lon="-5.577673008665443">
        <ele>111.17</ele>
        <time>2019-09-04T08:50:02Z</time>
      </trkpt>
      <trkpt lat="57.813338013365865" lon="-5.577923962846398">
        <ele>109.73</ele>
        <time>2019-09-04T08:50:03Z</time>
      </trkpt>
      <trkpt lat="57.813277998939157" lon="-5.578195033594966">
        <ele>108.77</ele>
        <time>2019-09-04T08:50:04Z</time>
      </trkpt>
      <trkpt lat="57.813216978684068" lon="-5.578471971675754">
        <ele>107.31999999999999</ele>
        <time>2019-09-04T08:50:05Z</time>
      </trkpt>
      <trkpt lat="57.813100973144174" lon="-5.578993996605277">
        <ele>104.44</ele>
        <time>2019-09-04T08:50:07Z</time>
      </trkpt>
      <trkpt lat="57.813036013394594" lon="-5.579219972714782">
        <ele>103.48</ele>
        <time>2019-09-04T08:50:08Z</time>
      </trkpt>
      <trkpt lat="57.812944985926151" lon="-5.579404039308429">
        <ele>102.04000000000001</ele>
        <time>2019-09-04T08:50:09Z</time>
      </trkpt>
      <trkpt lat="57.812850018963218" lon="-5.579592967405915">
        <ele>101.08</ele>
        <time>2019-09-04T08:50:10Z</time>
      </trkpt>
      <trkpt lat="57.812749017030001" lon="-5.579794971272349">
        <ele>100.11</ele>
        <time>2019-09-04T08:50:11Z</time>
      </trkpt>
      <trkpt lat="57.81210201792419" lon="-5.58149297721684">
        <ele>95.790000000000006</ele>
        <time>2019-09-04T08:50:18Z</time>
      </trkpt>
      <trkpt lat="57.811182020232081" lon="-5.582947991788387">
        <ele>91.939999999999998</ele>
        <time>2019-09-04T08:50:26Z</time>
      </trkpt>
      <trkpt lat="57.810918996110559" lon="-5.583182014524937">
        <ele>90.5</ele>
        <time>2019-09-04T08:50:28Z</time>
      </trkpt>
      <trkpt lat="57.810780024155974" lon="-5.583239011466503">
        <ele>90.019999999999996</ele>
        <time>2019-09-04T08:50:29Z</time>
      </trkpt>
      <trkpt lat="57.810635017231107" lon="-5.583287961781025">
        <ele>89.540000000000006</ele>
        <time>2019-09-04T08:50:30Z</time>
      </trkpt>
      <trkpt lat="57.809014962986112" lon="-5.583450989797711">
        <ele>82.810000000000002</ele>
        <time>2019-09-04T08:50:40Z</time>
      </trkpt>
      <trkpt lat="57.80851699411869" lon="-5.583397010341287">
        <ele>82.329999999999998</ele>
        <time>2019-09-04T08:50:43Z</time>
      </trkpt>
      <trkpt lat="57.808376010507345" lon="-5.583376977592707">
        <ele>81.849999999999994</ele>
        <time>2019-09-04T08:50:44Z</time>
      </trkpt>
      <trkpt lat="57.808251958340406" lon="-5.583272036164999">
        <ele>81.370000000000005</ele>
        <time>2019-09-04T08:50:45Z</time>
      </trkpt>
      <trkpt lat="57.808139976114035" lon="-5.583142032846808">
        <ele>80.890000000000001</ele>
        <time>2019-09-04T08:50:46Z</time>
      </trkpt>
      <trkpt lat="57.808039980009198" lon="-5.5829749815166">
        <ele>80.890000000000001</ele>
        <time>2019-09-04T08:50:47Z</time>
      </trkpt>
      <trkpt lat="57.807962028309703" lon="-5.582749005407095">
        <ele>80.409999999999997</ele>
        <time>2019-09-04T08:50:48Z</time>
      </trkpt>
      <trkpt lat="57.807886004447937" lon="-5.582496039569378">
        <ele>80.409999999999997</ele>
        <time>2019-09-04T08:50:49Z</time>
      </trkpt>
      <trkpt lat="57.807806041091681" lon="-5.582229997962713">
        <ele>79.930000000000007</ele>
        <time>2019-09-04T08:50:50Z</time>
      </trkpt>
      <trkpt lat="57.807487025856972" lon="-5.581283010542393">
        <ele>78.969999999999999</ele>
        <time>2019-09-04T08:50:54Z</time>
      </trkpt>
      <trkpt lat="57.807392980903387" lon="-5.581097016111016">
        <ele>78.969999999999999</ele>
        <time>2019-09-04T08:50:55Z</time>
      </trkpt>
      <trkpt lat="57.807271024212241" lon="-5.580992996692658">
        <ele>78.480000000000004</ele>
        <time>2019-09-04T08:50:56Z</time>
      </trkpt>
      <trkpt lat="57.807144038379192" lon="-5.580885959789157">
        <ele>78.480000000000004</ele>
        <time>2019-09-04T08:50:57Z</time>
      </trkpt>
      <trkpt lat="57.807008000090718" lon="-5.580862993374467">
        <ele>78.480000000000004</ele>
        <time>2019-09-04T08:50:58Z</time>
      </trkpt>
      <trkpt lat="57.806867016479373" lon="-5.580841032788158">
        <ele>78.480000000000004</ele>
        <time>2019-09-04T08:50:59Z</time>
      </trkpt>
      <trkpt lat="57.80673298984766" lon="-5.580931976437569">
        <ele>78.480000000000004</ele>
        <time>2019-09-04T08:51:00Z</time>
      </trkpt>
      <trkpt lat="57.806608015671372" lon="-5.581068014726043">
        <ele>78.480000000000004</ele>
        <time>2019-09-04T08:51:01Z</time>
      </trkpt>
      <trkpt lat="57.806476000696421" lon="-5.581222996115685">
        <ele>78</ele>
        <time>2019-09-04T08:51:02Z</time>
      </trkpt>
      <trkpt lat="57.806353960186243" lon="-5.581429023295641">
        <ele>78</ele>
        <time>2019-09-04T08:51:03Z</time>
      </trkpt>
      <trkpt lat="57.806225968524814" lon="-5.581660028547049">
        <ele>77.519999999999996</ele>
        <time>2019-09-04T08:51:04Z</time>
      </trkpt>
      <trkpt lat="57.805031966418028" lon="-5.583774028345943">
        <ele>74.640000000000001</ele>
        <time>2019-09-04T08:51:13Z</time>
      </trkpt>
      <trkpt lat="57.804354960098863" lon="-5.584587994962931">
        <ele>71.269999999999996</ele>
        <time>2019-09-04T08:51:18Z</time>
      </trkpt>
      <trkpt lat="57.804243983700871" lon="-5.584702994674444">
        <ele>71.269999999999996</ele>
        <time>2019-09-04T08:51:19Z</time>
      </trkpt>
      <trkpt lat="57.804134013131261" lon="-5.584725961089134">
        <ele>71.269999999999996</ele>
        <time>2019-09-04T08:51:20Z</time>
      </trkpt>
      <trkpt lat="57.804019013419747" lon="-5.584751022979617">
        <ele>70.790000000000006</ele>
        <time>2019-09-04T08:51:21Z</time>
      </trkpt>
      <trkpt lat="57.803899990394711" lon="-5.584738031029701">
        <ele>70.790000000000006</ele>
        <time>2019-09-04T08:51:22Z</time>
      </trkpt>
      <trkpt lat="57.80378901399672" lon="-5.584664018824697">
        <ele>70.790000000000006</ele>
        <time>2019-09-04T08:51:23Z</time>
      </trkpt>
      <trkpt lat="57.803678037598729" lon="-5.584583971649408">
        <ele>70.790000000000006</ele>
        <time>2019-09-04T08:51:24Z</time>
      </trkpt>
      <trkpt lat="57.803569994866848" lon="-5.584448017179966">
        <ele>70.790000000000006</ele>
        <time>2019-09-04T08:51:25Z</time>
      </trkpt>
      <trkpt lat="57.803456000983715" lon="-5.584303010255098">
        <ele>70.790000000000006</ele>
        <time>2019-09-04T08:51:26Z</time>
      </trkpt>
      <trkpt lat="57.803350975736976" lon="-5.584119027480483">
        <ele>71.760000000000005</ele>
        <time>2019-09-04T08:51:27Z</time>
      </trkpt>
      <trkpt lat="57.802852001041174" lon="-5.58323297649622">
        <ele>75.120000000000005</ele>
        <time>2019-09-04T08:51:32Z</time>
      </trkpt>
      <trkpt lat="57.802768014371395" lon="-5.58303901925683">
        <ele>75.120000000000005</ele>
        <time>2019-09-04T08:51:33Z</time>
      </trkpt>
      <trkpt lat="57.802295023575425" lon="-5.580822005867958">
        <ele>70.790000000000006</ele>
        <time>2019-09-04T08:51:41Z</time>
      </trkpt>
      <trkpt lat="57.801847010850906" lon="-5.577077977359295">
        <ele>66.469999999999999</ele>
        <time>2019-09-04T08:51:52Z</time>
      </trkpt>
      <trkpt lat="57.801650958135724" lon="-5.57575698941946">
        <ele>63.579999999999998</ele>
        <time>2019-09-04T08:51:56Z</time>
      </trkpt>
      <trkpt lat="57.801584992557764" lon="-5.575438980013132">
        <ele>63.100000000000001</ele>
        <time>2019-09-04T08:51:57Z</time>
      </trkpt>
      <trkpt lat="57.801475021988153" lon="-5.575176039710641">
        <ele>62.140000000000001</ele>
        <time>2019-09-04T08:51:58Z</time>
      </trkpt>
      <trkpt lat="57.801362033933401" lon="-5.574906980618835">
        <ele>61.659999999999997</ele>
        <time>2019-09-04T08:51:59Z</time>
      </trkpt>
      <trkpt lat="57.801239993423223" lon="-5.574616966769099">
        <ele>61.18</ele>
        <time>2019-09-04T08:52:00Z</time>
      </trkpt>
      <trkpt lat="57.80110202729702" lon="-5.57442300952971">
        <ele>60.219999999999999</ele>
        <time>2019-09-04T08:52:01Z</time>
      </trkpt>
      <trkpt lat="57.799239987507463" lon="-5.571853034198284">
        <ele>55.409999999999997</ele>
        <time>2019-09-04T08:52:13Z</time>
      </trkpt>
      <trkpt lat="57.798816030845046" lon="-5.571378031745553">
        <ele>54.93</ele>
        <time>2019-09-04T08:52:16Z</time>
      </trkpt>
      <trkpt lat="57.798684015870094" lon="-5.571283986791968">
        <ele>53.969999999999999</ele>
        <time>2019-09-04T08:52:17Z</time>
      </trkpt>
      <trkpt lat="57.798539008945227" lon="-5.571250962093473">
        <ele>53.490000000000002</ele>
        <time>2019-09-04T08:52:18Z</time>
      </trkpt>
      <trkpt lat="57.797369984909892" lon="-5.571279041469097">
        <ele>45.799999999999997</ele>
        <time>2019-09-04T08:52:26Z</time>
      </trkpt>
      <trkpt lat="57.797241993248463" lon="-5.571348024532199">
        <ele>44.840000000000003</ele>
        <time>2019-09-04T08:52:27Z</time>
      </trkpt>
      <trkpt lat="57.797133028507233" lon="-5.571484984830022">
        <ele>43.880000000000003</ele>
        <time>2019-09-04T08:52:28Z</time>
      </trkpt>
      <trkpt lat="57.79702297411859" lon="-5.571635020896792">
        <ele>42.920000000000002</ele>
        <time>2019-09-04T08:52:29Z</time>
      </trkpt>
      <trkpt lat="57.796930018812418" lon="-5.571825038641691">
        <ele>41.950000000000003</ele>
        <time>2019-09-04T08:52:30Z</time>
      </trkpt>
      <trkpt lat="57.796836979687214" lon="-5.572045985609293">
        <ele>40.990000000000002</ele>
        <time>2019-09-04T08:52:31Z</time>
      </trkpt>
      <trkpt lat="57.79674201272428" lon="-5.572273973375559">
        <ele>40.030000000000001</ele>
        <time>2019-09-04T08:52:32Z</time>
      </trkpt>
      <trkpt lat="57.79566896148026" lon="-5.574921984225512">
        <ele>24.170000000000002</ele>
        <time>2019-09-04T08:52:42Z</time>
      </trkpt>
      <trkpt lat="57.795551028102636" lon="-5.575152989476919">
        <ele>22.25</ele>
        <time>2019-09-04T08:52:43Z</time>
      </trkpt>
      <trkpt lat="57.795422030612826" lon="-5.575355999171734">
        <ele>20.809999999999999</ele>
        <time>2019-09-04T08:52:44Z</time>
      </trkpt>
      <trkpt lat="57.795297978445888" lon="-5.575552973896265">
        <ele>19.84</ele>
        <time>2019-09-04T08:52:45Z</time>
      </trkpt>
      <trkpt lat="57.795163029804826" lon="-5.575727988034487">
        <ele>18.879999999999999</ele>
        <time>2019-09-04T08:52:46Z</time>
      </trkpt>
      <trkpt lat="57.795011987909675" lon="-5.575846005231142">
        <ele>17.920000000000002</ele>
        <time>2019-09-04T08:52:47Z</time>
      </trkpt>
      <trkpt lat="57.794860024005175" lon="-5.575938960537314">
        <ele>17.440000000000001</ele>
        <time>2019-09-04T08:52:48Z</time>
      </trkpt>
      <trkpt lat="57.794703030958772" lon="-5.575978020206094">
        <ele>16.960000000000001</ele>
        <time>2019-09-04T08:52:49Z</time>
      </trkpt>
      <trkpt lat="57.794551989063621" lon="-5.576008027419448">
        <ele>16</ele>
        <time>2019-09-04T08:52:50Z</time>
      </trkpt>
      <trkpt lat="57.794401030987501" lon="-5.575958993285894">
        <ele>15.52</ele>
        <time>2019-09-04T08:52:51Z</time>
      </trkpt>
      <trkpt lat="57.794247977435589" lon="-5.575909959152341">
        <ele>15.039999999999999</ele>
        <time>2019-09-04T08:52:52Z</time>
      </trkpt>
      <trkpt lat="57.794094001874328" lon="-5.575860003009439">
        <ele>15.039999999999999</ele>
        <time>2019-09-04T08:52:53Z</time>
      </trkpt>
      <trkpt lat="57.792298011481762" lon="-5.57504503056407">
        <ele>12.630000000000001</ele>
        <time>2019-09-04T08:53:05Z</time>
      </trkpt>
      <trkpt lat="57.79180197045207" lon="-5.574960960075259">
        <ele>12.630000000000001</ele>
        <time>2019-09-04T08:53:08Z</time>
      </trkpt>
      <trkpt lat="57.789954012259841" lon="-5.574821988120675">
        <ele>12.15</ele>
        <time>2019-09-04T08:53:18Z</time>
      </trkpt>
      <trkpt lat="57.789777992293239" lon="-5.574759040027857">
        <ele>12.630000000000001</ele>
        <time>2019-09-04T08:53:19Z</time>
      </trkpt>
      <trkpt lat="57.789614964276552" lon="-5.574701959267259">
        <ele>12.630000000000001</ele>
        <time>2019-09-04T08:53:20Z</time>
      </trkpt>
      <trkpt lat="57.789316987618804" lon="-5.57459601201117">
        <ele>13.6</ele>
        <time>2019-09-04T08:53:22Z</time>
      </trkpt>
      <trkpt lat="57.789173992350698" lon="-5.574544966220856">
        <ele>14.08</ele>
        <time>2019-09-04T08:53:23Z</time>
      </trkpt>
      <trkpt lat="57.78902999125421" lon="-5.574566004797816">
        <ele>14.08</ele>
        <time>2019-09-04T08:53:24Z</time>
      </trkpt>
      <trkpt lat="57.787815034389496" lon="-5.575029021129012">
        <ele>13.6</ele>
        <time>2019-09-04T08:53:31Z</time>
      </trkpt>
      <trkpt lat="57.787659969180822" lon="-5.575171010568738">
        <ele>13.119999999999999</ele>
        <time>2019-09-04T08:53:32Z</time>
      </trkpt>
      <trkpt lat="57.7875039819628" lon="-5.575315011665225">
        <ele>12.630000000000001</ele>
        <time>2019-09-04T08:53:33Z</time>
      </trkpt>
      <trkpt lat="57.787358975037932" lon="-5.575482985004783">
        <ele>12.630000000000001</ele>
        <time>2019-09-04T08:53:34Z</time>
      </trkpt>
      <trkpt lat="57.787221008911729" lon="-5.575688006356359">
        <ele>12.15</ele>
        <time>2019-09-04T08:53:35Z</time>
      </trkpt>
      <trkpt lat="57.785836989060044" lon="-5.577865960076451">
        <ele>16.960000000000001</ele>
        <time>2019-09-04T08:53:45Z</time>
      </trkpt>
      <trkpt lat="57.784490017220378" lon="-5.580156985670328">
        <ele>20.32</ele>
        <time>2019-09-04T08:53:55Z</time>
      </trkpt>
      <trkpt lat="57.784202015027404" lon="-5.580584965646267">
        <ele>20.809999999999999</ele>
        <time>2019-09-04T08:53:57Z</time>
      </trkpt>
      <trkpt lat="57.784077040851116" lon="-5.580839021131396">
        <ele>20.809999999999999</ele>
        <time>2019-09-04T08:53:58Z</time>
      </trkpt>
      <trkpt lat="57.783426018431783" lon="-5.582107035443187">
        <ele>21.77</ele>
        <time>2019-09-04T08:54:03Z</time>
      </trkpt>
      <trkpt lat="57.782917991280556" lon="-5.58297598734498">
        <ele>22.73</ele>
        <time>2019-09-04T08:54:07Z</time>
      </trkpt>
      <trkpt lat="57.782836016267538" lon="-5.583223002031446">
        <ele>22.73</ele>
        <time>2019-09-04T08:54:08Z</time>
      </trkpt>
      <trkpt lat="57.782768039032817" lon="-5.583487031981349">
        <ele>23.210000000000001</ele>
        <time>2019-09-04T08:54:09Z</time>
      </trkpt>
      <trkpt lat="57.782697966322303" lon="-5.583761958405376">
        <ele>23.210000000000001</ele>
        <time>2019-09-04T08:54:10Z</time>
      </trkpt>
      <trkpt lat="57.78262797743082" lon="-5.584039986133575">
        <ele>23.210000000000001</ele>
        <time>2019-09-04T08:54:11Z</time>
      </trkpt>
      <trkpt lat="57.781962035223842" lon="-5.586975999176502">
        <ele>25.609999999999999</ele>
        <time>2019-09-04T08:54:21Z</time>
      </trkpt>
      <trkpt lat="57.781784003600478" lon="-5.58772299438715">
        <ele>25.609999999999999</ele>
        <time>2019-09-04T08:54:24Z</time>
      </trkpt>
      <trkpt lat="57.781699011102319" lon="-5.587907982990146">
        <ele>26.09</ele>
        <time>2019-09-04T08:54:25Z</time>
      </trkpt>
      <trkpt lat="57.781612006947398" lon="-5.588096994906664">
        <ele>26.57</ele>
        <time>2019-09-04T08:54:26Z</time>
      </trkpt>
      <trkpt lat="57.781516034156084" lon="-5.588211994618177">
        <ele>27.050000000000001</ele>
        <time>2019-09-04T08:54:27Z</time>
      </trkpt>
      <trkpt lat="57.781392987817526" lon="-5.588309979066253">
        <ele>27.530000000000001</ele>
        <time>2019-09-04T08:54:28Z</time>
      </trkpt>
      <trkpt lat="57.781266001984477" lon="-5.58841098099947">
        <ele>28.02</ele>
        <time>2019-09-04T08:54:29Z</time>
      </trkpt>
      <trkpt lat="57.781134992837906" lon="-5.588515000417829">
        <ele>28.02</ele>
        <time>2019-09-04T08:54:30Z</time>
      </trkpt>
      <trkpt lat="57.780257994309068" lon="-5.589154036715627">
        <ele>29.460000000000001</ele>
        <time>2019-09-04T08:54:36Z</time>
      </trkpt>
      <trkpt lat="57.780105024576187" lon="-5.589222013950348">
        <ele>29.940000000000001</ele>
        <time>2019-09-04T08:54:37Z</time>
      </trkpt>
      <trkpt lat="57.779944008216262" lon="-5.589293008670211">
        <ele>30.420000000000002</ele>
        <time>2019-09-04T08:54:38Z</time>
      </trkpt>
      <trkpt lat="57.779771005734801" lon="-5.589370038360357">
        <ele>30.899999999999999</ele>
        <time>2019-09-04T08:54:39Z</time>
      </trkpt>
      <trkpt lat="57.77959599159658" lon="-5.589447990059853">
        <ele>30.899999999999999</ele>
        <time>2019-09-04T08:54:40Z</time>
      </trkpt>
      <trkpt lat="57.779417959973216" lon="-5.58952703140676">
        <ele>31.379999999999999</ele>
        <time>2019-09-04T08:54:41Z</time>
      </trkpt>
      <trkpt lat="57.778770960867405" lon="-5.589813021942973">
        <ele>33.299999999999997</ele>
        <time>2019-09-04T08:54:45Z</time>
      </trkpt>
      <trkpt lat="57.778636012226343" lon="-5.589965991675854">
        <ele>33.780000000000001</ele>
        <time>2019-09-04T08:54:46Z</time>
      </trkpt>
      <trkpt lat="57.778508020564914" lon="-5.590146034955978">
        <ele>34.259999999999998</ele>
        <time>2019-09-04T08:54:47Z</time>
      </trkpt>
      <trkpt lat="57.778366031125188" lon="-5.590346027165651">
        <ele>34.740000000000002</ele>
        <time>2019-09-04T08:54:48Z</time>
      </trkpt>
      <trkpt lat="57.77826402336359" lon="-5.590572003275156">
        <ele>35.229999999999997</ele>
        <time>2019-09-04T08:54:49Z</time>
      </trkpt>
      <trkpt lat="57.778149023652077" lon="-5.590825974941254">
        <ele>35.229999999999997</ele>
        <time>2019-09-04T08:54:50Z</time>
      </trkpt>
      <trkpt lat="57.77802798897028" lon="-5.591092016547918">
        <ele>35.710000000000001</ele>
        <time>2019-09-04T08:54:51Z</time>
      </trkpt>
      <trkpt lat="57.776817977428436" lon="-5.593309029936791">
        <ele>32.82</ele>
        <time>2019-09-04T08:55:00Z</time>
      </trkpt>
      <trkpt lat="57.77585900388658" lon="-5.594466989859939">
        <ele>25.609999999999999</ele>
        <time>2019-09-04T08:55:06Z</time>
      </trkpt>
      <trkpt lat="57.774125961586833" lon="-5.595575999468565">
        <ele>12.630000000000001</ele>
        <time>2019-09-04T08:55:16Z</time>
      </trkpt>
      <trkpt lat="57.77240096591413" lon="-5.595898032188416">
        <ele>5.42</ele>
        <time>2019-09-04T08:55:26Z</time>
      </trkpt>
      <trkpt lat="57.771203024312854" lon="-5.596235990524292">
        <ele>5.91</ele>
        <time>2019-09-04T08:55:34Z</time>
      </trkpt>
      <trkpt lat="57.769872983917594" lon="-5.597435021772981">
        <ele>5.42</ele>
        <time>2019-09-04T08:55:44Z</time>
      </trkpt>
      <trkpt lat="57.768707983195782" lon="-5.598575966432691">
        <ele>3.98</ele>
        <time>2019-09-04T08:55:53Z</time>
      </trkpt>
      <trkpt lat="57.767711961641908" lon="-5.6001400295645">
        <ele>4.94</ele>
        <time>2019-09-04T08:56:03Z</time>
      </trkpt>
      <trkpt lat="57.76653103530407" lon="-5.602131988853216">
        <ele>8.789999999999999</ele>
        <time>2019-09-04T08:56:16Z</time>
      </trkpt>
      <trkpt lat="57.765627969056368" lon="-5.603454988449812">
        <ele>10.23</ele>
        <time>2019-09-04T08:56:26Z</time>
      </trkpt>
      <trkpt lat="57.765260003507137" lon="-5.603967038914561">
        <ele>10.23</ele>
        <time>2019-09-04T08:56:30Z</time>
      </trkpt>
      <trkpt lat="57.765151038765907" lon="-5.604076003655791">
        <ele>10.710000000000001</ele>
        <time>2019-09-04T08:56:31Z</time>
      </trkpt>
      <trkpt lat="57.765034027397633" lon="-5.604129983112216">
        <ele>10.710000000000001</ele>
        <time>2019-09-04T08:56:32Z</time>
      </trkpt>
      <trkpt lat="57.764913998544216" lon="-5.604145992547274">
        <ele>11.19</ele>
        <time>2019-09-04T08:56:33Z</time>
      </trkpt>
      <trkpt lat="57.7647939696908" lon="-5.604160996153951">
        <ele>11.19</ele>
        <time>2019-09-04T08:56:34Z</time>
      </trkpt>
      <trkpt lat="57.764676958322525" lon="-5.604122020304203">
        <ele>11.67</ele>
        <time>2019-09-04T08:56:35Z</time>
      </trkpt>
      <trkpt lat="57.764561958611012" lon="-5.604062005877495">
        <ele>11.67</ele>
        <time>2019-09-04T08:56:36Z</time>
      </trkpt>
      <trkpt lat="57.763089006766677" lon="-5.603268994018436">
        <ele>16</ele>
        <time>2019-09-04T08:56:47Z</time>
      </trkpt>
      <trkpt lat="57.762402025982738" lon="-5.602899016812444">
        <ele>16.48</ele>
        <time>2019-09-04T08:56:52Z</time>
      </trkpt>
      <trkpt lat="57.762304963544011" lon="-5.602765996009111">
        <ele>16.48</ele>
        <time>2019-09-04T08:56:53Z</time>
      </trkpt>
      <trkpt lat="57.762216031551361" lon="-5.602632975205779">
        <ele>16.48</ele>
        <time>2019-09-04T08:56:54Z</time>
      </trkpt>
      <trkpt lat="57.762134978547692" lon="-5.602469025179744">
        <ele>16.48</ele>
        <time>2019-09-04T08:56:55Z</time>
      </trkpt>
      <trkpt lat="57.762047974392772" lon="-5.60229099355638">
        <ele>16.48</ele>
        <time>2019-09-04T08:56:56Z</time>
      </trkpt>
      <trkpt lat="57.761153038591146" lon="-5.600289981812239">
        <ele>16.48</ele>
        <time>2019-09-04T08:57:05Z</time>
      </trkpt>
      <trkpt lat="57.760893031954765" lon="-5.599726969376206">
        <ele>16.48</ele>
        <time>2019-09-04T08:57:08Z</time>
      </trkpt>
      <trkpt lat="57.7607979811728" lon="-5.599610963836312">
        <ele>16.48</ele>
        <time>2019-09-04T08:57:09Z</time>
      </trkpt>
      <trkpt lat="57.760690022259951" lon="-5.599549021571875">
        <ele>16.48</ele>
        <time>2019-09-04T08:57:10Z</time>
      </trkpt>
      <trkpt lat="57.760578962042928" lon="-5.599543992429972">
        <ele>16.48</ele>
        <time>2019-09-04T08:57:11Z</time>
      </trkpt>
      <trkpt lat="57.760461028665304" lon="-5.599539969116449">
        <ele>16.48</ele>
        <time>2019-09-04T08:57:12Z</time>
      </trkpt>
      <trkpt lat="57.760330019518733" lon="-5.599534017965198">
        <ele>16.48</ele>
        <time>2019-09-04T08:57:13Z</time>
      </trkpt>
      <trkpt lat="57.759268032386899" lon="-5.599485989660025">
        <ele>15.52</ele>
        <time>2019-09-04T08:57:20Z</time>
      </trkpt>
      <trkpt lat="57.75843596085906" lon="-5.599436033517122">
        <ele>15.52</ele>
        <time>2019-09-04T08:57:25Z</time>
      </trkpt>
      <trkpt lat="57.756681963801384" lon="-5.59861502610147">
        <ele>17.440000000000001</ele>
        <time>2019-09-04T08:57:36Z</time>
      </trkpt>
      <trkpt lat="57.755630034953356" lon="-5.597706008702517">
        <ele>15.52</ele>
        <time>2019-09-04T08:57:43Z</time>
      </trkpt>
      <trkpt lat="57.754741972312331" lon="-5.596860023215413">
        <ele>16.960000000000001</ele>
        <time>2019-09-04T08:57:49Z</time>
      </trkpt>
      <trkpt lat="57.754582967609167" lon="-5.596835967153311">
        <ele>16.960000000000001</ele>
        <time>2019-09-04T08:57:50Z</time>
      </trkpt>
      <trkpt lat="57.754417005926371" lon="-5.59681098908186">
        <ele>17.440000000000001</ele>
        <time>2019-09-04T08:57:51Z</time>
      </trkpt>
      <trkpt lat="57.75424400344491" lon="-5.596835967153311">
        <ele>17.920000000000002</ele>
        <time>2019-09-04T08:57:52Z</time>
      </trkpt>
      <trkpt lat="57.754071000963449" lon="-5.596877038478851">
        <ele>18.879999999999999</ele>
        <time>2019-09-04T08:57:53Z</time>
      </trkpt>
      <trkpt lat="57.753574959933758" lon="-5.596995977684856">
        <ele>22.73</ele>
        <time>2019-09-04T08:57:56Z</time>
      </trkpt>
      <trkpt lat="57.753428025171161" lon="-5.596997989341617">
        <ele>24.649999999999999</ele>
        <time>2019-09-04T08:57:57Z</time>
      </trkpt>
      <trkpt lat="57.753284024074674" lon="-5.596935041248798">
        <ele>26.09</ele>
        <time>2019-09-04T08:57:58Z</time>
      </trkpt>
      <trkpt lat="57.753141028806567" lon="-5.596872009336948">
        <ele>28.02</ele>
        <time>2019-09-04T08:57:59Z</time>
      </trkpt>
      <trkpt lat="57.75299996137619" lon="-5.596809983253479">
        <ele>29.460000000000001</ele>
        <time>2019-09-04T08:58:00Z</time>
      </trkpt>
      <trkpt lat="57.751447968184948" lon="-5.596311008557677">
        <ele>45.799999999999997</ele>
        <time>2019-09-04T08:58:10Z</time>
      </trkpt>
      <trkpt lat="57.750481031835079" lon="-5.596078997477889">
        <ele>56.859999999999999</ele>
        <time>2019-09-04T08:58:16Z</time>
      </trkpt>
      <trkpt lat="57.750326972454786" lon="-5.596126019954681">
        <ele>58.780000000000001</ele>
        <time>2019-09-04T08:58:17Z</time>
      </trkpt>
      <trkpt lat="57.750175008550286" lon="-5.596192991361022">
        <ele>60.219999999999999</ele>
        <time>2019-09-04T08:58:18Z</time>
      </trkpt>
      <trkpt lat="57.750034024938941" lon="-5.596311008557677">
        <ele>62.140000000000001</ele>
        <time>2019-09-04T08:58:19Z</time>
      </trkpt>
      <trkpt lat="57.749899998307228" lon="-5.596465989947319">
        <ele>64.069999999999993</ele>
        <time>2019-09-04T08:58:20Z</time>
      </trkpt>
      <trkpt lat="57.749773012474179" lon="-5.596668999642134">
        <ele>65.989999999999995</ele>
        <time>2019-09-04T08:58:21Z</time>
      </trkpt>
      <trkpt lat="57.749652983620763" lon="-5.596903022378683">
        <ele>67.909999999999997</ele>
        <time>2019-09-04T08:58:22Z</time>
      </trkpt>
      <trkpt lat="57.749533960595727" lon="-5.597150037065148">
        <ele>70.310000000000002</ele>
        <time>2019-09-04T08:58:23Z</time>
      </trkpt>
      <trkpt lat="57.749124001711607" lon="-5.598112028092146">
        <ele>77.040000000000006</ele>
        <time>2019-09-04T08:58:27Z</time>
      </trkpt>
      <trkpt lat="57.749058036133647" lon="-5.598352001979947">
        <ele>78.480000000000004</ele>
        <time>2019-09-04T08:58:28Z</time>
      </trkpt>
      <trkpt lat="57.749016964808106" lon="-5.598601028323174">
        <ele>79.930000000000007</ele>
        <time>2019-09-04T08:58:29Z</time>
      </trkpt>
      <trkpt lat="57.748990980908275" lon="-5.598843013867736">
        <ele>81.370000000000005</ele>
        <time>2019-09-04T08:58:30Z</time>
      </trkpt>
      <trkpt lat="57.7490000333637" lon="-5.599094973877072">
        <ele>82.329999999999998</ele>
        <time>2019-09-04T08:58:31Z</time>
      </trkpt>
      <trkpt lat="57.74902299977839" lon="-5.599364032968879">
        <ele>83.290000000000006</ele>
        <time>2019-09-04T08:58:32Z</time>
      </trkpt>
      <trkpt lat="57.749048983678222" lon="-5.599655974656344">
        <ele>84.25</ele>
        <time>2019-09-04T08:58:33Z</time>
      </trkpt>
      <trkpt lat="57.749104974791408" lon="-5.599952023476362">
        <ele>85.209999999999994</ele>
        <time>2019-09-04T08:58:34Z</time>
      </trkpt>
      <trkpt lat="57.74951996281743" lon="-5.602499032393098">
        <ele>92.900000000000006</ele>
        <time>2019-09-04T08:58:42Z</time>
      </trkpt>
      <trkpt lat="57.749521974474192" lon="-5.606044996529818">
        <ele>97.709999999999994</ele>
        <time>2019-09-04T08:58:52Z</time>
      </trkpt>
      <trkpt lat="57.749424995854497" lon="-5.607826989144087">
        <ele>101.08</ele>
        <time>2019-09-04T08:58:57Z</time>
      </trkpt>
      <trkpt lat="57.749372022226453" lon="-5.60815698467195">
        <ele>102.04000000000001</ele>
        <time>2019-09-04T08:58:58Z</time>
      </trkpt>
      <trkpt lat="57.749313013628125" lon="-5.60852101072669">
        <ele>103</ele>
        <time>2019-09-04T08:58:59Z</time>
      </trkpt>
      <trkpt lat="57.748392010107636" lon="-5.61210997402668">
        <ele>119.81999999999999</ele>
        <time>2019-09-04T08:59:11Z</time>
      </trkpt>
      <trkpt lat="57.747617019340396" lon="-5.614940039813519">
        <ele>127.51000000000001</ele>
        <time>2019-09-04T08:59:21Z</time>
      </trkpt>
      <trkpt lat="57.747569996863604" lon="-5.615241033956409">
        <ele>127.98999999999999</ele>
        <time>2019-09-04T08:59:22Z</time>
      </trkpt>
      <trkpt lat="57.747521968558431" lon="-5.61554797925055">
        <ele>128.47</ele>
        <time>2019-09-04T08:59:23Z</time>
      </trkpt>
      <trkpt lat="57.747338991612196" lon="-5.619096960872412">
        <ele>130.40000000000001</ele>
        <time>2019-09-04T08:59:33Z</time>
      </trkpt>
      <trkpt lat="57.747145034372807" lon="-5.623009968549013">
        <ele>129.43000000000001</ele>
        <time>2019-09-04T08:59:44Z</time>
      </trkpt>
      <trkpt lat="57.747284006327391" lon="-5.62697796151042">
        <ele>126.55</ele>
        <time>2019-09-04T08:59:54Z</time>
      </trkpt>
      <trkpt lat="57.747568991035223" lon="-5.629988992586732">
        <ele>126.06999999999999</ele>
        <time>2019-09-04T09:00:02Z</time>
      </trkpt>
      <trkpt lat="57.747640991583467" lon="-5.630298033356667">
        <ele>126.06999999999999</ele>
        <time>2019-09-04T09:00:03Z</time>
      </trkpt>
      <trkpt lat="57.74771299213171" lon="-5.63060699030757">
        <ele>126.06999999999999</ele>
        <time>2019-09-04T09:00:04Z</time>
      </trkpt>
      <trkpt lat="57.747767977416515" lon="-5.630933968350291">
        <ele>125.59</ele>
        <time>2019-09-04T09:00:05Z</time>
      </trkpt>
      <trkpt lat="57.747808964923024" lon="-5.631268993020058">
        <ele>125.59</ele>
        <time>2019-09-04T09:00:06Z</time>
      </trkpt>
      <trkpt lat="57.747828997671604" lon="-5.631608041003346">
        <ele>125.59</ele>
        <time>2019-09-04T09:00:07Z</time>
      </trkpt>
      <trkpt lat="57.747822040691972" lon="-5.631948010995984">
        <ele>125.59</ele>
        <time>2019-09-04T09:00:08Z</time>
      </trkpt>
      <trkpt lat="57.747814999893308" lon="-5.632286975160241">
        <ele>125.59</ele>
        <time>2019-09-04T09:00:09Z</time>
      </trkpt>
      <trkpt lat="57.747791027650237" lon="-5.632623005658388">
        <ele>125.59</ele>
        <time>2019-09-04T09:00:10Z</time>
      </trkpt>
      <trkpt lat="57.747736964374781" lon="-5.632940009236336">
        <ele>126.06999999999999</ele>
        <time>2019-09-04T09:00:11Z</time>
      </trkpt>
      <trkpt lat="57.747682984918356" lon="-5.633256006985903">
        <ele>126.55</ele>
        <time>2019-09-04T09:00:12Z</time>
      </trkpt>
      <trkpt lat="57.747588017955422" lon="-5.633541997522116">
        <ele>126.55</ele>
        <time>2019-09-04T09:00:13Z</time>
      </trkpt>
      <trkpt lat="57.747492967173457" lon="-5.633827988058329">
        <ele>127.03</ele>
        <time>2019-09-04T09:00:14Z</time>
      </trkpt>
      <trkpt lat="57.747390037402511" lon="-5.634112972766161">
        <ele>127.98999999999999</ele>
        <time>2019-09-04T09:00:15Z</time>
      </trkpt>
      <trkpt lat="57.747278977185488" lon="-5.634397035464644">
        <ele>128.47</ele>
        <time>2019-09-04T09:00:16Z</time>
      </trkpt>
      <trkpt lat="57.745827985927463" lon="-5.638166964054108">
        <ele>136.16</ele>
        <time>2019-09-04T09:00:28Z</time>
      </trkpt>
      <trkpt lat="57.744745966047049" lon="-5.641047991812229">
        <ele>133.75999999999999</ele>
        <time>2019-09-04T09:00:37Z</time>
      </trkpt>
      <trkpt lat="57.743426989763975" lon="-5.642827972769737">
        <ele>136.63999999999999</ele>
        <time>2019-09-04T09:00:45Z</time>
      </trkpt>
      <trkpt lat="57.741771982982755" lon="-5.644772993400693">
        <ele>140.49000000000001</ele>
        <time>2019-09-04T09:00:55Z</time>
      </trkpt>
      <trkpt lat="57.740821978077292" lon="-5.646148966625333">
        <ele>142.41</ele>
        <time>2019-09-04T09:01:02Z</time>
      </trkpt>
      <trkpt lat="57.740715024992824" lon="-5.646369997411966">
        <ele>142.88999999999999</ele>
        <time>2019-09-04T09:01:03Z</time>
      </trkpt>
      <trkpt lat="57.74062198586762" lon="-5.646628998219967">
        <ele>142.88999999999999</ele>
        <time>2019-09-04T09:01:04Z</time>
      </trkpt>
      <trkpt lat="57.739949002861977" lon="-5.649545984342694">
        <ele>139.05000000000001</ele>
        <time>2019-09-04T09:01:13Z</time>
      </trkpt>
      <trkpt lat="57.73987096734345" lon="-5.650170017033815">
        <ele>137.13</ele>
        <time>2019-09-04T09:01:15Z</time>
      </trkpt>
      <trkpt lat="57.73987096734345" lon="-5.650462964549661">
        <ele>135.68000000000001</ele>
        <time>2019-09-04T09:01:16Z</time>
      </trkpt>
      <trkpt lat="57.73987197317183" lon="-5.650776028633118">
        <ele>134.72</ele>
        <time>2019-09-04T09:01:17Z</time>
      </trkpt>
      <trkpt lat="57.740080012008548" lon="-5.653174007311463">
        <ele>125.11</ele>
        <time>2019-09-04T09:01:24Z</time>
      </trkpt>
      <trkpt lat="57.740056961774826" lon="-5.653521018102765">
        <ele>123.67</ele>
        <time>2019-09-04T09:01:25Z</time>
      </trkpt>
      <trkpt lat="57.739767031744123" lon="-5.657802997156978">
        <ele>102.04000000000001</ele>
        <time>2019-09-04T09:01:37Z</time>
      </trkpt>
      <trkpt lat="57.739625964313745" lon="-5.659588007256389">
        <ele>96.269999999999996</ele>
        <time>2019-09-04T09:01:42Z</time>
      </trkpt>
      <trkpt lat="57.739557987079024" lon="-5.659921020269394">
        <ele>95.310000000000002</ele>
        <time>2019-09-04T09:01:43Z</time>
      </trkpt>
      <trkpt lat="57.739474000409245" lon="-5.660244980826974">
        <ele>94.349999999999994</ele>
        <time>2019-09-04T09:01:44Z</time>
      </trkpt>
      <trkpt lat="57.739353971555829" lon="-5.660525020211935">
        <ele>92.900000000000006</ele>
        <time>2019-09-04T09:01:45Z</time>
      </trkpt>
      <trkpt lat="57.739228997379541" lon="-5.660816039890051">
        <ele>91.939999999999998</ele>
        <time>2019-09-04T09:01:46Z</time>
      </trkpt>
      <trkpt lat="57.73875399492681" lon="-5.662009036168456">
        <ele>89.060000000000002</ele>
        <time>2019-09-04T09:01:50Z</time>
      </trkpt>
      <trkpt lat="57.738653998821974" lon="-5.662316987290978">
        <ele>89.060000000000002</ele>
        <time>2019-09-04T09:01:51Z</time>
      </trkpt>
      <trkpt lat="57.738600019365549" lon="-5.662659974768758">
        <ele>89.060000000000002</ele>
        <time>2019-09-04T09:01:52Z</time>
      </trkpt>
      <trkpt lat="57.738096015527844" lon="-5.66601499915123">
        <ele>88.099999999999994</ele>
        <time>2019-09-04T09:02:02Z</time>
      </trkpt>
      <trkpt lat="57.737580025568604" lon="-5.668573994189501">
        <ele>83.769999999999996</ele>
        <time>2019-09-04T09:02:10Z</time>
      </trkpt>
      <trkpt lat="57.737540965899825" lon="-5.66887398250401">
        <ele>83.290000000000006</ele>
        <time>2019-09-04T09:02:11Z</time>
      </trkpt>
      <trkpt lat="57.737531997263432" lon="-5.669177994132042">
        <ele>82.810000000000002</ele>
        <time>2019-09-04T09:02:12Z</time>
      </trkpt>
      <trkpt lat="57.737531997263432" lon="-5.669486029073596">
        <ele>82.329999999999998</ele>
        <time>2019-09-04T09:02:13Z</time>
      </trkpt>
      <trkpt lat="57.737539960071445" lon="-5.66979599185288">
        <ele>81.849999999999994</ele>
        <time>2019-09-04T09:02:14Z</time>
      </trkpt>
      <trkpt lat="57.737564016133547" lon="-5.670114001259208">
        <ele>81.849999999999994</ele>
        <time>2019-09-04T09:02:15Z</time>
      </trkpt>
      <trkpt lat="57.737605003640056" lon="-5.672678025439382">
        <ele>81.849999999999994</ele>
        <time>2019-09-04T09:02:23Z</time>
      </trkpt>
      <trkpt lat="57.737456979230046" lon="-5.676684994250536">
        <ele>81.370000000000005</ele>
        <time>2019-09-04T09:02:34Z</time>
      </trkpt>
      <trkpt lat="57.737427977845073" lon="-5.676984982565045">
        <ele>80.890000000000001</ele>
        <time>2019-09-04T09:02:35Z</time>
      </trkpt>
      <trkpt lat="57.737351031973958" lon="-5.677235014736652">
        <ele>80.409999999999997</ele>
        <time>2019-09-04T09:02:36Z</time>
      </trkpt>
      <trkpt lat="57.737269978970289" lon="-5.677478006109595">
        <ele>79.450000000000003</ele>
        <time>2019-09-04T09:02:37Z</time>
      </trkpt>
      <trkpt lat="57.737178029492497" lon="-5.677700964733958">
        <ele>78.969999999999999</ele>
        <time>2019-09-04T09:02:38Z</time>
      </trkpt>
      <trkpt lat="57.737060012295842" lon="-5.677935993298888">
        <ele>78.480000000000004</ele>
        <time>2019-09-04T09:02:39Z</time>
      </trkpt>
      <trkpt lat="57.736933026462793" lon="-5.678088963031769">
        <ele>78</ele>
        <time>2019-09-04T09:02:40Z</time>
      </trkpt>
      <trkpt lat="57.736783996224403" lon="-5.678266994655132">
        <ele>77.519999999999996</ele>
        <time>2019-09-04T09:02:41Z</time>
      </trkpt>
      <trkpt lat="57.736627003178" lon="-5.678457012400031">
        <ele>77.040000000000006</ele>
        <time>2019-09-04T09:02:42Z</time>
      </trkpt>
      <trkpt lat="57.736178990453482" lon="-5.679027987644076">
        <ele>75.599999999999994</ele>
        <time>2019-09-04T09:02:45Z</time>
      </trkpt>
      <trkpt lat="57.736078994348645" lon="-5.679294029250741">
        <ele>75.599999999999994</ele>
        <time>2019-09-04T09:02:46Z</time>
      </trkpt>
      <trkpt lat="57.735995007678866" lon="-5.679566022008658">
        <ele>75.599999999999994</ele>
        <time>2019-09-04T09:02:47Z</time>
      </trkpt>
      <trkpt lat="57.735944967716932" lon="-5.679872967302799">
        <ele>75.599999999999994</ele>
        <time>2019-09-04T09:02:48Z</time>
      </trkpt>
      <trkpt lat="57.73589501157403" lon="-5.680178990587592">
        <ele>75.599999999999994</ele>
        <time>2019-09-04T09:02:49Z</time>
      </trkpt>
      <trkpt lat="57.735785041004419" lon="-5.680697998031974">
        <ele>75.599999999999994</ele>
        <time>2019-09-04T09:02:51Z</time>
      </trkpt>
      <trkpt lat="57.735729971900582" lon="-5.680919028818607">
        <ele>75.120000000000005</ele>
        <time>2019-09-04T09:02:52Z</time>
      </trkpt>
      <trkpt lat="57.735626958310604" lon="-5.6811180151999">
        <ele>75.120000000000005</ele>
        <time>2019-09-04T09:02:53Z</time>
      </trkpt>
      <trkpt lat="57.735517993569374" lon="-5.681330999359489">
        <ele>75.120000000000005</ele>
        <time>2019-09-04T09:02:54Z</time>
      </trkpt>
      <trkpt lat="57.73540198802948" lon="-5.681556975468993">
        <ele>74.640000000000001</ele>
        <time>2019-09-04T09:02:55Z</time>
      </trkpt>
      <trkpt lat="57.734831012785435" lon="-5.682757012546063">
        <ele>73.680000000000007</ele>
        <time>2019-09-04T09:03:00Z</time>
      </trkpt>
      <trkpt lat="57.734760018065572" lon="-5.68305297754705">
        <ele>73.680000000000007</ele>
        <time>2019-09-04T09:03:01Z</time>
      </trkpt>
      <trkpt lat="57.734689023345709" lon="-5.683347014710307">
        <ele>73.680000000000007</ele>
        <time>2019-09-04T09:03:02Z</time>
      </trkpt>
      <trkpt lat="57.734551979228854" lon="-5.683917989954352">
        <ele>74.640000000000001</ele>
        <time>2019-09-04T09:03:04Z</time>
      </trkpt>
      <trkpt lat="57.734488025307655" lon="-5.684185959398747">
        <ele>75.120000000000005</ele>
        <time>2019-09-04T09:03:05Z</time>
      </trkpt>
      <trkpt lat="57.73439297452569" lon="-5.684414030984044">
        <ele>76.079999999999998</ele>
        <time>2019-09-04T09:03:06Z</time>
      </trkpt>
      <trkpt lat="57.734281998127699" lon="-5.684611005708575">
        <ele>77.040000000000006</ele>
        <time>2019-09-04T09:03:07Z</time>
      </trkpt>
      <trkpt lat="57.734168004244566" lon="-5.684812003746629">
        <ele>78.480000000000004</ele>
        <time>2019-09-04T09:03:08Z</time>
      </trkpt>
      <trkpt lat="57.73325202986598" lon="-5.686595002189279">
        <ele>79.930000000000007</ele>
        <time>2019-09-04T09:03:16Z</time>
      </trkpt>
      <trkpt lat="57.733182040974498" lon="-5.686866994947195">
        <ele>78.969999999999999</ele>
        <time>2019-09-04T09:03:17Z</time>
      </trkpt>
      <trkpt lat="57.733128983527422" lon="-5.687149967998266">
        <ele>78</ele>
        <time>2019-09-04T09:03:18Z</time>
      </trkpt>
      <trkpt lat="57.732902001589537" lon="-5.688668014481664">
        <ele>74.159999999999997</ele>
        <time>2019-09-04T09:03:24Z</time>
      </trkpt>
      <trkpt lat="57.732876017689705" lon="-5.688836993649602">
        <ele>73.200000000000003</ele>
        <time>2019-09-04T09:03:25Z</time>
      </trkpt>
      <trkpt lat="57.732793036848307" lon="-5.689028017222881">
        <ele>72.239999999999995</ele>
        <time>2019-09-04T09:03:26Z</time>
      </trkpt>
      <trkpt lat="57.732720030471683" lon="-5.68919699639082">
        <ele>71.269999999999996</ele>
        <time>2019-09-04T09:03:27Z</time>
      </trkpt>
      <trkpt lat="57.732646018266678" lon="-5.6893689930439">
        <ele>70.310000000000002</ele>
        <time>2019-09-04T09:03:28Z</time>
      </trkpt>
      <trkpt lat="57.732560019940138" lon="-5.689509976655245">
        <ele>68.870000000000005</ele>
        <time>2019-09-04T09:03:29Z</time>
      </trkpt>
      <trkpt lat="57.732450971379876" lon="-5.689598992466927">
        <ele>67.430000000000007</ele>
        <time>2019-09-04T09:03:30Z</time>
      </trkpt>
      <trkpt lat="57.732338989153504" lon="-5.68969001993537">
        <ele>66.469999999999999</ele>
        <time>2019-09-04T09:03:31Z</time>
      </trkpt>
      <trkpt lat="57.73222197778523" lon="-5.689773000776768">
        <ele>65.030000000000001</ele>
        <time>2019-09-04T09:03:32Z</time>
      </trkpt>
      <trkpt lat="57.730864025652409" lon="-5.690385969355702">
        <ele>51.57</ele>
        <time>2019-09-04T09:03:43Z</time>
      </trkpt>
      <trkpt lat="57.730478961020708" lon="-5.690467022359371">
        <ele>45.799999999999997</ele>
        <time>2019-09-04T09:03:47Z</time>
      </trkpt>
      <trkpt lat="57.729037022218108" lon="-5.690232999622822">
        <ele>31.859999999999999</ele>
        <time>2019-09-04T09:03:57Z</time>
      </trkpt>
      <trkpt lat="57.728582974523306" lon="-5.690108025446534">
        <ele>28.02</ele>
        <time>2019-09-04T09:04:01Z</time>
      </trkpt>
      <trkpt lat="57.728467974811792" lon="-5.69012001156807">
        <ele>27.050000000000001</ele>
        <time>2019-09-04T09:04:02Z</time>
      </trkpt>
      <trkpt lat="57.728352975100279" lon="-5.690140966325998">
        <ele>26.57</ele>
        <time>2019-09-04T09:04:03Z</time>
      </trkpt>
      <trkpt lat="57.728237975388765" lon="-5.690198969095945">
        <ele>25.609999999999999</ele>
        <time>2019-09-04T09:04:04Z</time>
      </trkpt>
      <trkpt lat="57.728122975677252" lon="-5.690268035978079">
        <ele>25.129999999999999</ele>
        <time>2019-09-04T09:04:05Z</time>
      </trkpt>
      <trkpt lat="57.726857978850603" lon="-5.690803974866867">
        <ele>22.73</ele>
        <time>2019-09-04T09:04:16Z</time>
      </trkpt>
      <trkpt lat="57.726739961653948" lon="-5.690781008452177">
        <ele>23.210000000000001</ele>
        <time>2019-09-04T09:04:17Z</time>
      </trkpt>
      <trkpt lat="57.726623034104705" lon="-5.690725017338991">
        <ele>23.210000000000001</ele>
        <time>2019-09-04T09:04:18Z</time>
      </trkpt>
      <trkpt lat="57.72650501690805" lon="-5.690669026225805">
        <ele>23.210000000000001</ele>
        <time>2019-09-04T09:04:19Z</time>
      </trkpt>
      <trkpt lat="57.726386999711394" lon="-5.690613035112619">
        <ele>23.210000000000001</ele>
        <time>2019-09-04T09:04:20Z</time>
      </trkpt>
      <trkpt lat="57.724826959893107" lon="-5.6893499661237">
        <ele>19.359999999999999</ele>
        <time>2019-09-04T09:04:32Z</time>
      </trkpt>
      <trkpt lat="57.723508989438415" lon="-5.688448995351791">
        <ele>16</ele>
        <time>2019-09-04T09:04:41Z</time>
      </trkpt>
      <trkpt lat="57.721955990418792" lon="-5.686961961910129">
        <ele>17.440000000000001</ele>
        <time>2019-09-04T09:04:53Z</time>
      </trkpt>
      <trkpt lat="57.721168007701635" lon="-5.686636995524168">
        <ele>17.920000000000002</ele>
        <time>2019-09-04T09:05:00Z</time>
      </trkpt>
      <trkpt lat="57.7204480022192" lon="-5.686410013586283">
        <ele>20.32</ele>
        <time>2019-09-04T09:05:06Z</time>
      </trkpt>
      <trkpt lat="57.72006100974977" lon="-5.686380006372929">
        <ele>22.73</ele>
        <time>2019-09-04T09:05:09Z</time>
      </trkpt>
      <trkpt lat="57.71917998790741" lon="-5.686496011912823">
        <ele>28.02</ele>
        <time>2019-09-04T09:05:16Z</time>
      </trkpt>
      <trkpt lat="57.719070017337799" lon="-5.68646902218461">
        <ele>28.02</ele>
        <time>2019-09-04T09:05:17Z</time>
      </trkpt>
      <trkpt lat="57.718971027061343" lon="-5.686397021636367">
        <ele>28.02</ele>
        <time>2019-09-04T09:05:18Z</time>
      </trkpt>
      <trkpt lat="57.7188799995929" lon="-5.68627598695457">
        <ele>28.02</ele>
        <time>2019-09-04T09:05:19Z</time>
      </trkpt>
      <trkpt lat="57.718786038458347" lon="-5.686151012778282">
        <ele>28.02</ele>
        <time>2019-09-04T09:05:20Z</time>
      </trkpt>
      <trkpt lat="57.718705991283059" lon="-5.686009023338556">
        <ele>28.5</ele>
        <time>2019-09-04T09:05:21Z</time>
      </trkpt>
      <trkpt lat="57.718640025705099" lon="-5.685852030292153">
        <ele>28.5</ele>
        <time>2019-09-04T09:05:22Z</time>
      </trkpt>
      <trkpt lat="57.7186019718647" lon="-5.685668969526887">
        <ele>28.98</ele>
        <time>2019-09-04T09:05:23Z</time>
      </trkpt>
      <trkpt lat="57.718564001843333" lon="-5.685489010065794">
        <ele>28.98</ele>
        <time>2019-09-04T09:05:24Z</time>
      </trkpt>
      <trkpt lat="57.718517985194921" lon="-5.685283988714218">
        <ele>28.98</ele>
        <time>2019-09-04T09:05:25Z</time>
      </trkpt>
      <trkpt lat="57.71847196854651" lon="-5.685077961534262">
        <ele>28.5</ele>
        <time>2019-09-04T09:05:26Z</time>
      </trkpt>
      <trkpt lat="57.718425029888749" lon="-5.684866989031434">
        <ele>28.02</ele>
        <time>2019-09-04T09:05:27Z</time>
      </trkpt>
      <trkpt lat="57.718378007411957" lon="-5.684654004871845">
        <ele>27.530000000000001</ele>
        <time>2019-09-04T09:05:28Z</time>
      </trkpt>
      <trkpt lat="57.718308018520474" lon="-5.684453006833792">
        <ele>27.050000000000001</ele>
        <time>2019-09-04T09:05:29Z</time>
      </trkpt>
      <trkpt lat="57.718217996880412" lon="-5.684300037100911">
        <ele>27.050000000000001</ele>
        <time>2019-09-04T09:05:30Z</time>
      </trkpt>
      <trkpt lat="57.718118000775576" lon="-5.68412896245718">
        <ele>26.09</ele>
        <time>2019-09-04T09:05:31Z</time>
      </trkpt>
      <trkpt lat="57.718013981357217" lon="-5.683952020481229">
        <ele>25.609999999999999</ele>
        <time>2019-09-04T09:05:32Z</time>
      </trkpt>
      <trkpt lat="57.71791398525238" lon="-5.68378203548491">
        <ele>24.649999999999999</ele>
        <time>2019-09-04T09:05:33Z</time>
      </trkpt>
      <trkpt lat="57.71763201802969" lon="-5.683298986405134">
        <ele>21.289999999999999</ele>
        <time>2019-09-04T09:05:36Z</time>
      </trkpt>
      <trkpt lat="57.717524981126189" lon="-5.683227991685271">
        <ele>19.84</ele>
        <time>2019-09-04T09:05:37Z</time>
      </trkpt>
      <trkpt lat="57.717414004728198" lon="-5.683167977258563">
        <ele>17.920000000000002</ele>
        <time>2019-09-04T09:05:38Z</time>
      </trkpt>
      <trkpt lat="57.717314008623362" lon="-5.683134030550718">
        <ele>16.48</ele>
        <time>2019-09-04T09:05:39Z</time>
      </trkpt>
      <trkpt lat="57.717201020568609" lon="-5.683152973651886">
        <ele>15.52</ele>
        <time>2019-09-04T09:05:40Z</time>
      </trkpt>
      <trkpt lat="57.71707696840167" lon="-5.683175018057227">
        <ele>14.56</ele>
        <time>2019-09-04T09:05:41Z</time>
      </trkpt>
      <trkpt lat="57.716561984270811" lon="-5.68324500694871">
        <ele>13.119999999999999</ele>
        <time>2019-09-04T09:05:45Z</time>
      </trkpt>
      <trkpt lat="57.716454025357962" lon="-5.683219023048878">
        <ele>13.119999999999999</ele>
        <time>2019-09-04T09:05:46Z</time>
      </trkpt>
      <trkpt lat="57.716349000111222" lon="-5.683188010007143">
        <ele>13.119999999999999</ele>
        <time>2019-09-04T09:05:47Z</time>
      </trkpt>
      <trkpt lat="57.716251015663147" lon="-5.683086002245545">
        <ele>13.119999999999999</ele>
        <time>2019-09-04T09:05:48Z</time>
      </trkpt>
      <trkpt lat="57.716145990416408" lon="-5.682977037504315">
        <ele>12.630000000000001</ele>
        <time>2019-09-04T09:05:49Z</time>
      </trkpt>
      <trkpt lat="57.716031996533275" lon="-5.682857008650899">
        <ele>12.15</ele>
        <time>2019-09-04T09:05:50Z</time>
      </trkpt>
      <trkpt lat="57.715095989406109" lon="-5.681866016238928">
        <ele>10.710000000000001</ele>
        <time>2019-09-04T09:05:57Z</time>
      </trkpt>
      <trkpt lat="57.714218990877271" lon="-5.680886004120112">
        <ele>15.039999999999999</ele>
        <time>2019-09-04T09:06:04Z</time>
      </trkpt>
      <trkpt lat="57.714100973680615" lon="-5.680745020508766">
        <ele>16</ele>
        <time>2019-09-04T09:06:05Z</time>
      </trkpt>
      <trkpt lat="57.713652038946748" lon="-5.680207991972566">
        <ele>18.399999999999999</ele>
        <time>2019-09-04T09:06:09Z</time>
      </trkpt>
      <trkpt lat="57.713564028963447" lon="-5.680102966725826">
        <ele>18.399999999999999</ele>
        <time>2019-09-04T09:06:10Z</time>
      </trkpt>
      <trkpt lat="57.713451962918043" lon="-5.679890988394618">
        <ele>18.399999999999999</ele>
        <time>2019-09-04T09:06:11Z</time>
      </trkpt>
      <trkpt lat="57.71335800178349" lon="-5.67970298230648">
        <ele>18.399999999999999</ele>
        <time>2019-09-04T09:06:12Z</time>
      </trkpt>
      <trkpt lat="57.713276026770473" lon="-5.679479017853737">
        <ele>17.920000000000002</ele>
        <time>2019-09-04T09:06:13Z</time>
      </trkpt>
      <trkpt lat="57.712598014622927" lon="-5.677821999415755">
        <ele>14.08</ele>
        <time>2019-09-04T09:06:21Z</time>
      </trkpt>
      <trkpt lat="57.71249801851809" lon="-5.677627036347985">
        <ele>14.08</ele>
        <time>2019-09-04T09:06:22Z</time>
      </trkpt>
      <trkpt lat="57.7123680151999" lon="-5.677484963089228">
        <ele>14.08</ele>
        <time>2019-09-04T09:06:23Z</time>
      </trkpt>
      <trkpt lat="57.712243041023612" lon="-5.677354037761688">
        <ele>14.08</ele>
        <time>2019-09-04T09:06:24Z</time>
      </trkpt>
      <trkpt lat="57.712118988856673" lon="-5.677224034443498">
        <ele>14.08</ele>
        <time>2019-09-04T09:06:25Z</time>
      </trkpt>
      <trkpt lat="57.711985968053341" lon="-5.677134012803435">
        <ele>14.08</ele>
        <time>2019-09-04T09:06:26Z</time>
      </trkpt>
      <trkpt lat="57.711848001927137" lon="-5.67708196118474">
        <ele>14.56</ele>
        <time>2019-09-04T09:06:27Z</time>
      </trkpt>
      <trkpt lat="57.711701989173889" lon="-5.67703602835536">
        <ele>15.52</ele>
        <time>2019-09-04T09:06:28Z</time>
      </trkpt>
      <trkpt lat="57.711550025269389" lon="-5.676997974514961">
        <ele>16.48</ele>
        <time>2019-09-04T09:06:29Z</time>
      </trkpt>
      <trkpt lat="57.709999037906528" lon="-5.67660603672266">
        <ele>25.609999999999999</ele>
        <time>2019-09-04T09:06:38Z</time>
      </trkpt>
      <trkpt lat="57.708905031904578" lon="-5.676056016236544">
        <ele>30.420000000000002</ele>
        <time>2019-09-04T09:06:45Z</time>
      </trkpt>
      <trkpt lat="57.708526002243161" lon="-5.67570498213172">
        <ele>31.859999999999999</ele>
        <time>2019-09-04T09:06:48Z</time>
      </trkpt>
      <trkpt lat="57.708409996703267" lon="-5.675539020448923">
        <ele>32.340000000000003</ele>
        <time>2019-09-04T09:06:49Z</time>
      </trkpt>
      <trkpt lat="57.707672975957394" lon="-5.674490025267005">
        <ele>37.630000000000003</ele>
        <time>2019-09-04T09:06:57Z</time>
      </trkpt>
      <trkpt lat="57.70762000232935" lon="-5.674414001405239">
        <ele>38.109999999999999</ele>
        <time>2019-09-04T09:06:58Z</time>
      </trkpt>
      <trkpt lat="57.70757700316608" lon="-5.67435298115015">
        <ele>38.590000000000003</ele>
        <time>2019-09-04T09:06:59Z</time>
      </trkpt>
      <trkpt lat="57.707515982910991" lon="-5.674290033057332">
        <ele>39.07</ele>
        <time>2019-09-04T09:07:00Z</time>
      </trkpt>
      <trkpt lat="57.707322025671601" lon="-5.674091968685389">
        <ele>40.030000000000001</ele>
        <time>2019-09-04T09:07:04Z</time>
      </trkpt>
      <trkpt lat="57.707271985709667" lon="-5.674042012542486">
        <ele>39.549999999999997</ele>
        <time>2019-09-04T09:07:05Z</time>
      </trkpt>
      <trkpt lat="57.707182969897985" lon="-5.673949979245663">
        <ele>39.549999999999997</ele>
        <time>2019-09-04T09:07:07Z</time>
      </trkpt>
      <trkpt lat="57.707092026248574" lon="-5.673858029767871">
        <ele>39.07</ele>
        <time>2019-09-04T09:07:09Z</time>
      </trkpt>
      <trkpt lat="57.707049027085304" lon="-5.67381402477622">
        <ele>38.590000000000003</ele>
        <time>2019-09-04T09:07:10Z</time>
      </trkpt>
      <trkpt lat="57.707007033750415" lon="-5.673772031441331">
        <ele>38.109999999999999</ele>
        <time>2019-09-04T09:07:11Z</time>
      </trkpt>
      <trkpt lat="57.706848029047251" lon="-5.673609003424645">
        <ele>37.149999999999999</ele>
        <time>2019-09-04T09:07:15Z</time>
      </trkpt>
      <trkpt lat="57.706769993528724" lon="-5.673529962077737">
        <ele>37.149999999999999</ele>
        <time>2019-09-04T09:07:17Z</time>
      </trkpt>
      <trkpt lat="57.706732023507357" lon="-5.673490986227989">
        <ele>36.670000000000002</ele>
        <time>2019-09-04T09:07:18Z</time>
      </trkpt>
      <trkpt lat="57.706695981323719" lon="-5.673455027863383">
        <ele>36.670000000000002</ele>
        <time>2019-09-04T09:07:19Z</time>
      </trkpt>
      <trkpt lat="57.706663040444255" lon="-5.673419991508126">
        <ele>36.670000000000002</ele>
        <time>2019-09-04T09:07:20Z</time>
      </trkpt>
      <trkpt lat="57.706629009917378" lon="-5.67338596098125">
        <ele>36.670000000000002</ele>
        <time>2019-09-04T09:07:21Z</time>
      </trkpt>
      <trkpt lat="57.706594979390502" lon="-5.673351008445025">
        <ele>36.670000000000002</ele>
        <time>2019-09-04T09:07:22Z</time>
      </trkpt>
      <trkpt lat="57.706562960520387" lon="-5.673318989574909">
        <ele>36.670000000000002</ele>
        <time>2019-09-04T09:07:23Z</time>
      </trkpt>
      <trkpt lat="57.706533959135413" lon="-5.673288982361555">
        <ele>36.670000000000002</ele>
        <time>2019-09-04T09:07:24Z</time>
      </trkpt>
      <trkpt lat="57.706509986892343" lon="-5.673264004290104">
        <ele>36.670000000000002</ele>
        <time>2019-09-04T09:07:25Z</time>
      </trkpt>
      <trkpt lat="57.70648299716413" lon="-5.673237014561892">
        <ele>36.189999999999998</ele>
        <time>2019-09-04T09:07:26Z</time>
      </trkpt>
      <trkpt lat="57.706470005214214" lon="-5.673222010955215">
        <ele>36.189999999999998</ele>
        <time>2019-09-04T09:07:27Z</time>
      </trkpt>
      <trkpt lat="57.706447960808873" lon="-5.673196027055383">
        <ele>36.189999999999998</ele>
        <time>2019-09-04T09:07:28Z</time>
      </trkpt>
      <trkpt lat="57.706418037414551" lon="-5.673160990700126">
        <ele>36.670000000000002</ele>
        <time>2019-09-04T09:07:29Z</time>
      </trkpt>
      <trkpt lat="57.706377971917391" lon="-5.673113968223333">
        <ele>36.670000000000002</ele>
        <time>2019-09-04T09:07:30Z</time>
      </trkpt>
      <trkpt lat="57.706164987757802" lon="-5.672864019870758">
        <ele>37.149999999999999</ele>
        <time>2019-09-04T09:07:34Z</time>
      </trkpt>
      <trkpt lat="57.706128023564816" lon="-5.672820014879108">
        <ele>37.149999999999999</ele>
        <time>2019-09-04T09:07:35Z</time>
      </trkpt>
      <trkpt lat="57.706092987209558" lon="-5.672780033200979">
        <ele>37.149999999999999</ele>
        <time>2019-09-04T09:07:36Z</time>
      </trkpt>
      <trkpt lat="57.706055017188191" lon="-5.672736028209329">
        <ele>37.630000000000003</ele>
        <time>2019-09-04T09:07:37Z</time>
      </trkpt>
      <trkpt lat="57.706012018024921" lon="-5.672684982419014">
        <ele>37.630000000000003</ele>
        <time>2019-09-04T09:07:38Z</time>
      </trkpt>
      <trkpt lat="57.705962983891368" lon="-5.672626979649067">
        <ele>37.630000000000003</ele>
        <time>2019-09-04T09:07:39Z</time>
      </trkpt>
      <trkpt lat="57.705664001405239" lon="-5.672249961644411">
        <ele>38.590000000000003</ele>
        <time>2019-09-04T09:07:45Z</time>
      </trkpt>
      <trkpt lat="57.70553600974381" lon="-5.672081988304853">
        <ele>38.590000000000003</ele>
        <time>2019-09-04T09:07:48Z</time>
      </trkpt>
      <trkpt lat="57.705487981438637" lon="-5.672019040212035">
        <ele>38.590000000000003</ele>
        <time>2019-09-04T09:07:49Z</time>
      </trkpt>
      <trkpt lat="57.705436013638973" lon="-5.671949973329902">
        <ele>38.590000000000003</ele>
        <time>2019-09-04T09:07:50Z</time>
      </trkpt>
      <trkpt lat="57.705378010869026" lon="-5.671874033287168">
        <ele>39.07</ele>
        <time>2019-09-04T09:07:51Z</time>
      </trkpt>
      <trkpt lat="57.705313973128796" lon="-5.671790968626738">
        <ele>39.549999999999997</ele>
        <time>2019-09-04T09:07:52Z</time>
      </trkpt>
      <trkpt lat="57.704675020650029" lon="-5.670879017561674">
        <ele>42.920000000000002</ele>
        <time>2019-09-04T09:08:01Z</time>
      </trkpt>
      <trkpt lat="57.704600002616644" lon="-5.670755971223116">
        <ele>42.439999999999998</ele>
        <time>2019-09-04T09:08:02Z</time>
      </trkpt>
      <trkpt lat="57.704395987093449" lon="-5.670304019004107">
        <ele>41.950000000000003</ele>
        <time>2019-09-04T09:08:05Z</time>
      </trkpt>
      <trkpt lat="57.704346030950546" lon="-5.670149037614465">
        <ele>41.469999999999999</ele>
        <time>2019-09-04T09:08:06Z</time>
      </trkpt>
      <trkpt lat="57.704310994595289" lon="-5.669981986284256">
        <ele>41.469999999999999</ele>
        <time>2019-09-04T09:08:07Z</time>
      </trkpt>
      <trkpt lat="57.704276964068413" lon="-5.66981703042984">
        <ele>40.990000000000002</ele>
        <time>2019-09-04T09:08:08Z</time>
      </trkpt>
      <trkpt lat="57.704247962683439" lon="-5.66964696161449">
        <ele>40.030000000000001</ele>
        <time>2019-09-04T09:08:09Z</time>
      </trkpt>
      <trkpt lat="57.704232959076762" lon="-5.669471025466919">
        <ele>39.549999999999997</ele>
        <time>2019-09-04T09:08:10Z</time>
      </trkpt>
      <trkpt lat="57.704132040962577" lon="-5.66822899505496">
        <ele>36.189999999999998</ele>
        <time>2019-09-04T09:08:17Z</time>
      </trkpt>
      <trkpt lat="57.7041170373559" lon="-5.668045012280345">
        <ele>35.229999999999997</ele>
        <time>2019-09-04T09:08:18Z</time>
      </trkpt>
      <trkpt lat="57.704094992950559" lon="-5.667833033949137">
        <ele>34.259999999999998</ele>
        <time>2019-09-04T09:08:19Z</time>
      </trkpt>
      <trkpt lat="57.70403397269547" lon="-5.667641004547477">
        <ele>33.299999999999997</ele>
        <time>2019-09-04T09:08:20Z</time>
      </trkpt>
      <trkpt lat="57.703974964097142" lon="-5.667452998459339">
        <ele>32.340000000000003</ele>
        <time>2019-09-04T09:08:21Z</time>
      </trkpt>
      <trkpt lat="57.703908998519182" lon="-5.667286030948162">
        <ele>31.859999999999999</ele>
        <time>2019-09-04T09:08:22Z</time>
      </trkpt>
      <trkpt lat="57.703721998259425" lon="-5.6669179815799">
        <ele>31.379999999999999</ele>
        <time>2019-09-04T09:08:25Z</time>
      </trkpt>
      <trkpt lat="57.703654021024704" lon="-5.666858972981572">
        <ele>31.379999999999999</ele>
        <time>2019-09-04T09:08:26Z</time>
      </trkpt>
      <trkpt lat="57.703585037961602" lon="-5.666798036545515">
        <ele>31.859999999999999</ele>
        <time>2019-09-04T09:08:27Z</time>
      </trkpt>
      <trkpt lat="57.703514965251088" lon="-5.666737016290426">
        <ele>32.340000000000003</ele>
        <time>2019-09-04T09:08:28Z</time>
      </trkpt>
      <trkpt lat="57.703441958874464" lon="-5.666672978550196">
        <ele>32.82</ele>
        <time>2019-09-04T09:08:29Z</time>
      </trkpt>
      <trkpt lat="57.703363001346588" lon="-5.666631991043687">
        <ele>32.82</ele>
        <time>2019-09-04T09:08:30Z</time>
      </trkpt>
      <trkpt lat="57.703275997191668" lon="-5.666601983830333">
        <ele>32.82</ele>
        <time>2019-09-04T09:08:31Z</time>
      </trkpt>
      <trkpt lat="57.703184969723225" lon="-5.666569964960218">
        <ele>32.340000000000003</ele>
        <time>2019-09-04T09:08:32Z</time>
      </trkpt>
      <trkpt lat="57.703092014417052" lon="-5.666538029909134">
        <ele>31.859999999999999</ele>
        <time>2019-09-04T09:08:33Z</time>
      </trkpt>
      <trkpt lat="57.702992018312216" lon="-5.666502993553877">
        <ele>31.379999999999999</ele>
        <time>2019-09-04T09:08:34Z</time>
      </trkpt>
      <trkpt lat="57.702420959249139" lon="-5.666141984984279">
        <ele>26.57</ele>
        <time>2019-09-04T09:08:39Z</time>
      </trkpt>
      <trkpt lat="57.70175501704216" lon="-5.665696989744902">
        <ele>20.32</ele>
        <time>2019-09-04T09:08:46Z</time>
      </trkpt>
      <trkpt lat="57.701674969866872" lon="-5.665591964498162">
        <ele>19.359999999999999</ele>
        <time>2019-09-04T09:08:47Z</time>
      </trkpt>
      <trkpt lat="57.701226035133004" lon="-5.665001040324569">
        <ele>16.960000000000001</ele>
        <time>2019-09-04T09:08:53Z</time>
      </trkpt>
      <trkpt lat="57.701144982129335" lon="-5.664894003421068">
        <ele>16.960000000000001</ele>
        <time>2019-09-04T09:08:54Z</time>
      </trkpt>
      <trkpt lat="57.701059989631176" lon="-5.664782021194696">
        <ele>17.440000000000001</ele>
        <time>2019-09-04T09:08:55Z</time>
      </trkpt>
      <trkpt lat="57.700965022668242" lon="-5.664690993726254">
        <ele>17.440000000000001</ele>
        <time>2019-09-04T09:08:56Z</time>
      </trkpt>
      <trkpt lat="57.700857985764742" lon="-5.664627961814404">
        <ele>17.440000000000001</ele>
        <time>2019-09-04T09:08:57Z</time>
      </trkpt>
      <trkpt lat="57.700750026851892" lon="-5.664564007893205">
        <ele>17.920000000000002</ele>
        <time>2019-09-04T09:08:58Z</time>
      </trkpt>
      <trkpt lat="57.699986016377807" lon="-5.664068972691894">
        <ele>16</ele>
        <time>2019-09-04T09:09:05Z</time>
      </trkpt>
      <trkpt lat="57.699509002268314" lon="-5.663485005497932">
        <ele>14.08</ele>
        <time>2019-09-04T09:09:10Z</time>
      </trkpt>
      <trkpt lat="57.698774999007583" lon="-5.662025967612863">
        <ele>15.039999999999999</ele>
        <time>2019-09-04T09:09:18Z</time>
      </trkpt>
      <trkpt lat="57.698414996266365" lon="-5.661162966862321">
        <ele>16</ele>
        <time>2019-09-04T09:09:23Z</time>
      </trkpt>
      <trkpt lat="57.698351964354515" lon="-5.66098703071475">
        <ele>16</ele>
        <time>2019-09-04T09:09:24Z</time>
      </trkpt>
      <trkpt lat="57.698292033746839" lon="-5.6608169618994">
        <ele>16</ele>
        <time>2019-09-04T09:09:25Z</time>
      </trkpt>
      <trkpt lat="57.697746036574244" lon="-5.659353984519839">
        <ele>16.48</ele>
        <time>2019-09-04T09:09:33Z</time>
      </trkpt>
      <trkpt lat="57.697253013029695" lon="-5.658122012391686">
        <ele>15.52</ele>
        <time>2019-09-04T09:09:38Z</time>
      </trkpt>
      <trkpt lat="57.696591010317206" lon="-5.656962040811777">
        <ele>16</ele>
        <time>2019-09-04T09:09:45Z</time>
      </trkpt>
      <trkpt lat="57.696507023647428" lon="-5.656847963109613">
        <ele>16.48</ele>
        <time>2019-09-04T09:09:46Z</time>
      </trkpt>
      <trkpt lat="57.696414990350604" lon="-5.656772023066878">
        <ele>16.48</ele>
        <time>2019-09-04T09:09:47Z</time>
      </trkpt>
      <trkpt lat="57.696306025609374" lon="-5.656743021681905">
        <ele>16.960000000000001</ele>
        <time>2019-09-04T09:09:48Z</time>
      </trkpt>
      <trkpt lat="57.69619002006948" lon="-5.656726006418467">
        <ele>16.960000000000001</ele>
        <time>2019-09-04T09:09:49Z</time>
      </trkpt>
      <trkpt lat="57.696064040064812" lon="-5.656721983104944">
        <ele>16.960000000000001</ele>
        <time>2019-09-04T09:09:50Z</time>
      </trkpt>
      <trkpt lat="57.695928001776338" lon="-5.656742015853524">
        <ele>17.440000000000001</ele>
        <time>2019-09-04T09:09:51Z</time>
      </trkpt>
      <trkpt lat="57.69430099055171" lon="-5.656933961436153">
        <ele>22.25</ele>
        <time>2019-09-04T09:10:03Z</time>
      </trkpt>
      <trkpt lat="57.693886002525687" lon="-5.65699003636837">
        <ele>22.25</ele>
        <time>2019-09-04T09:10:06Z</time>
      </trkpt>
      <trkpt lat="57.693766979500651" lon="-5.657062958925962">
        <ele>22.25</ele>
        <time>2019-09-04T09:10:07Z</time>
      </trkpt>
      <trkpt lat="57.693650973960757" lon="-5.657144011929631">
        <ele>22.25</ele>
        <time>2019-09-04T09:10:08Z</time>
      </trkpt>
      <trkpt lat="57.693536980077624" lon="-5.657266974449158">
        <ele>22.25</ele>
        <time>2019-09-04T09:10:09Z</time>
      </trkpt>
      <trkpt lat="57.693415023386478" lon="-5.657397983595729">
        <ele>22.25</ele>
        <time>2019-09-04T09:10:10Z</time>
      </trkpt>
      <trkpt lat="57.693299017846584" lon="-5.657546008005738">
        <ele>22.25</ele>
        <time>2019-09-04T09:10:11Z</time>
      </trkpt>
      <trkpt lat="57.69215002655983" lon="-5.65913999453187">
        <ele>22.73</ele>
        <time>2019-09-04T09:10:21Z</time>
      </trkpt>
      <trkpt lat="57.691355003044009" lon="-5.660256966948509">
        <ele>22.73</ele>
        <time>2019-09-04T09:10:30Z</time>
      </trkpt>
      <trkpt lat="57.691170014441013" lon="-5.660499958321452">
        <ele>23.210000000000001</ele>
        <time>2019-09-04T09:10:32Z</time>
      </trkpt>
      <trkpt lat="57.691064989194274" lon="-5.660588974133134">
        <ele>23.690000000000001</ele>
        <time>2019-09-04T09:10:33Z</time>
      </trkpt>
      <trkpt lat="57.690958958119154" lon="-5.660680001601577">
        <ele>23.690000000000001</ele>
        <time>2019-09-04T09:10:34Z</time>
      </trkpt>
      <trkpt lat="57.690848987549543" lon="-5.660723000764847">
        <ele>23.690000000000001</ele>
        <time>2019-09-04T09:10:35Z</time>
      </trkpt>
      <trkpt lat="57.690740022808313" lon="-5.660714032128453">
        <ele>23.690000000000001</ele>
        <time>2019-09-04T09:10:36Z</time>
      </trkpt>
      <trkpt lat="57.690639020875096" lon="-5.660699028521776">
        <ele>24.170000000000002</ele>
        <time>2019-09-04T09:10:37Z</time>
      </trkpt>
      <trkpt lat="57.690541036427021" lon="-5.660618981346488">
        <ele>24.170000000000002</ele>
        <time>2019-09-04T09:10:38Z</time>
      </trkpt>
      <trkpt lat="57.690441040322185" lon="-5.66053700633347">
        <ele>24.649999999999999</ele>
        <time>2019-09-04T09:10:39Z</time>
      </trkpt>
      <trkpt lat="57.690337020903826" lon="-5.660452013835311">
        <ele>25.129999999999999</ele>
        <time>2019-09-04T09:10:40Z</time>
      </trkpt>
      <trkpt lat="57.689209990203381" lon="-5.65961399115622">
        <ele>26.57</ele>
        <time>2019-09-04T09:10:49Z</time>
      </trkpt>
      <trkpt lat="57.688271971419454" lon="-5.658992975950241">
        <ele>27.530000000000001</ele>
        <time>2019-09-04T09:10:57Z</time>
      </trkpt>
      <trkpt lat="57.688166024163365" lon="-5.658886022865772">
        <ele>27.530000000000001</ele>
        <time>2019-09-04T09:10:58Z</time>
      </trkpt>
      <trkpt lat="57.688082037493587" lon="-5.658743027597666">
        <ele>28.02</ele>
        <time>2019-09-04T09:10:59Z</time>
      </trkpt>
      <trkpt lat="57.688010036945343" lon="-5.658588968217373">
        <ele>28.02</ele>
        <time>2019-09-04T09:11:00Z</time>
      </trkpt>
      <trkpt lat="57.687943987548351" lon="-5.65842904150486">
        <ele>28.02</ele>
        <time>2019-09-04T09:11:01Z</time>
      </trkpt>
      <trkpt lat="57.687873998656869" lon="-5.658257966861129">
        <ele>28.02</ele>
        <time>2019-09-04T09:11:02Z</time>
      </trkpt>
      <trkpt lat="57.687800992280245" lon="-5.658081024885178">
        <ele>27.530000000000001</ele>
        <time>2019-09-04T09:11:03Z</time>
      </trkpt>
      <trkpt lat="57.687373012304306" lon="-5.656393999233842">
        <ele>26.57</ele>
        <time>2019-09-04T09:11:10Z</time>
      </trkpt>
      <trkpt lat="57.68690999597311" lon="-5.653879009187222">
        <ele>25.609999999999999</ele>
        <time>2019-09-04T09:11:20Z</time>
      </trkpt>
      <trkpt lat="57.686424013227224" lon="-5.651908004656434">
        <ele>27.530000000000001</ele>
        <time>2019-09-04T09:11:28Z</time>
      </trkpt>
      <trkpt lat="57.686266014352441" lon="-5.65119001083076">
        <ele>28.5</ele>
        <time>2019-09-04T09:11:31Z</time>
      </trkpt>
      <trkpt lat="57.686248999089003" lon="-5.650951964780688">
        <ele>28.98</ele>
        <time>2019-09-04T09:11:32Z</time>
      </trkpt>
      <trkpt lat="57.686230977997184" lon="-5.650708973407745">
        <ele>29.460000000000001</ele>
        <time>2019-09-04T09:11:33Z</time>
      </trkpt>
      <trkpt lat="57.686069961637259" lon="-5.648515010252595">
        <ele>33.299999999999997</ele>
        <time>2019-09-04T09:11:41Z</time>
      </trkpt>
      <trkpt lat="57.685864018276334" lon="-5.646728994324803">
        <ele>35.229999999999997</ele>
        <time>2019-09-04T09:11:48Z</time>
      </trkpt>
      <trkpt lat="57.685502003878355" lon="-5.644366974011064">
        <ele>37.149999999999999</ele>
        <time>2019-09-04T09:11:57Z</time>
      </trkpt>
      <trkpt lat="57.685304023325443" lon="-5.642336960881949">
        <ele>42.439999999999998</ele>
        <time>2019-09-04T09:12:06Z</time>
      </trkpt>
      <trkpt lat="57.685304023325443" lon="-5.642130011692643">
        <ele>42.920000000000002</ele>
        <time>2019-09-04T09:12:07Z</time>
      </trkpt>
      <trkpt lat="57.685304023325443" lon="-5.641948962584138">
        <ele>42.920000000000002</ele>
        <time>2019-09-04T09:12:08Z</time>
      </trkpt>
      <trkpt lat="57.685316009446979" lon="-5.641747964546084">
        <ele>43.880000000000003</ele>
        <time>2019-09-04T09:12:09Z</time>
      </trkpt>
      <trkpt lat="57.685368983075023" lon="-5.641603963449597">
        <ele>43.880000000000003</ele>
        <time>2019-09-04T09:12:10Z</time>
      </trkpt>
      <trkpt lat="57.685425980016589" lon="-5.641448982059956">
        <ele>44.359999999999999</ele>
        <time>2019-09-04T09:12:11Z</time>
      </trkpt>
      <trkpt lat="57.685483982786536" lon="-5.641289977356792">
        <ele>45.32</ele>
        <time>2019-09-04T09:12:12Z</time>
      </trkpt>
      <trkpt lat="57.685546008870006" lon="-5.641122004017234">
        <ele>45.799999999999997</ele>
        <time>2019-09-04T09:12:13Z</time>
      </trkpt>
      <trkpt lat="57.685948004946113" lon="-5.640023974701762">
        <ele>49.649999999999999</ele>
        <time>2019-09-04T09:12:19Z</time>
      </trkpt>
      <trkpt lat="57.686011958867311" lon="-5.639848960563541">
        <ele>50.130000000000003</ele>
        <time>2019-09-04T09:12:20Z</time>
      </trkpt>
      <trkpt lat="57.686036014929414" lon="-5.639685010537505">
        <ele>50.609999999999999</ele>
        <time>2019-09-04T09:12:21Z</time>
      </trkpt>
      <trkpt lat="57.686122013255954" lon="-5.639097020030022">
        <ele>53.490000000000002</ele>
        <time>2019-09-04T09:12:25Z</time>
      </trkpt>
      <trkpt lat="57.686138022691011" lon="-5.638981014490128">
        <ele>53.969999999999999</ele>
        <time>2019-09-04T09:12:26Z</time>
      </trkpt>
      <trkpt lat="57.686153026297688" lon="-5.638881018385291">
        <ele>54.450000000000003</ele>
        <time>2019-09-04T09:12:27Z</time>
      </trkpt>
      <trkpt lat="57.68617901019752" lon="-5.638704998418689">
        <ele>55.409999999999997</ele>
        <time>2019-09-04T09:12:29Z</time>
      </trkpt>
      <trkpt lat="57.686202982440591" lon="-5.63853501342237">
        <ele>56.369999999999997</ele>
        <time>2019-09-04T09:12:31Z</time>
      </trkpt>
      <trkpt lat="57.686223015189171" lon="-5.638447003439069">
        <ele>56.859999999999999</ele>
        <time>2019-09-04T09:12:32Z</time>
      </trkpt>
      <trkpt lat="57.686276994645596" lon="-5.638231001794338">
        <ele>58.299999999999997</ele>
        <time>2019-09-04T09:12:34Z</time>
      </trkpt>
      <trkpt lat="57.686337009072304" lon="-5.637984992936254">
        <ele>59.259999999999998</ele>
        <time>2019-09-04T09:12:36Z</time>
      </trkpt>
      <trkpt lat="57.6863700337708" lon="-5.637851972132921">
        <ele>59.740000000000002</ele>
        <time>2019-09-04T09:12:37Z</time>
      </trkpt>
      <trkpt lat="57.686400962993503" lon="-5.637724986299872">
        <ele>59.259999999999998</ele>
        <time>2019-09-04T09:12:38Z</time>
      </trkpt>
      <trkpt lat="57.686431976035237" lon="-5.637600012123585">
        <ele>58.780000000000001</ele>
        <time>2019-09-04T09:12:39Z</time>
      </trkpt>
      <trkpt lat="57.686462989076972" lon="-5.637475959956646">
        <ele>58.299999999999997</ele>
        <time>2019-09-04T09:12:40Z</time>
      </trkpt>
      <trkpt lat="57.686494002118707" lon="-5.637348974123597">
        <ele>57.82</ele>
        <time>2019-09-04T09:12:41Z</time>
      </trkpt>
      <trkpt lat="57.686527026817203" lon="-5.637213019654155">
        <ele>57.82</ele>
        <time>2019-09-04T09:12:42Z</time>
      </trkpt>
      <trkpt lat="57.686561979353428" lon="-5.637073963880539">
        <ele>57.82</ele>
        <time>2019-09-04T09:12:43Z</time>
      </trkpt>
      <trkpt lat="57.686597015708685" lon="-5.636925017461181">
        <ele>58.299999999999997</ele>
        <time>2019-09-04T09:12:44Z</time>
      </trkpt>
      <trkpt lat="57.686625011265278" lon="-5.636761989444494">
        <ele>58.780000000000001</ele>
        <time>2019-09-04T09:12:45Z</time>
      </trkpt>
      <trkpt lat="57.686761971563101" lon="-5.63589203171432">
        <ele>62.619999999999997</ele>
        <time>2019-09-04T09:12:51Z</time>
      </trkpt>
      <trkpt lat="57.686792984604836" lon="-5.635716011747718">
        <ele>63.579999999999998</ele>
        <time>2019-09-04T09:12:52Z</time>
      </trkpt>
      <trkpt lat="57.686851993203163" lon="-5.635623978450894">
        <ele>64.549999999999997</ele>
        <time>2019-09-04T09:12:53Z</time>
      </trkpt>
      <trkpt lat="57.687149969860911" lon="-5.635128021240234">
        <ele>69.829999999999998</ele>
        <time>2019-09-04T09:12:58Z</time>
      </trkpt>
      <trkpt lat="57.687235968187451" lon="-5.634956024587154">
        <ele>70.790000000000006</ele>
        <time>2019-09-04T09:12:59Z</time>
      </trkpt>
      <trkpt lat="57.687277961522341" lon="-5.634762989357114">
        <ele>71.760000000000005</ele>
        <time>2019-09-04T09:13:00Z</time>
      </trkpt>
      <trkpt lat="57.687277961522341" lon="-5.634636003524065">
        <ele>72.719999999999999</ele>
        <time>2019-09-04T09:13:01Z</time>
      </trkpt>
      <trkpt lat="57.687263041734695" lon="-5.634392006322742">
        <ele>74.159999999999997</ele>
        <time>2019-09-04T09:13:02Z</time>
      </trkpt>
      <trkpt lat="57.687224987894297" lon="-5.634159995242953">
        <ele>75.120000000000005</ele>
        <time>2019-09-04T09:13:03Z</time>
      </trkpt>
      <trkpt lat="57.68684696406126" lon="-5.631840974092484">
        <ele>84.25</ele>
        <time>2019-09-04T09:13:11Z</time>
      </trkpt>
      <trkpt lat="57.686572959646583" lon="-5.629609962925315">
        <ele>89.540000000000006</ele>
        <time>2019-09-04T09:13:19Z</time>
      </trkpt>
      <trkpt lat="57.68658603541553" lon="-5.629409970715642">
        <ele>90.019999999999996</ele>
        <time>2019-09-04T09:13:20Z</time>
      </trkpt>
      <trkpt lat="57.686624005436897" lon="-5.629032030701637">
        <ele>91.939999999999998</ele>
        <time>2019-09-04T09:13:22Z</time>
      </trkpt>
      <trkpt lat="57.686630040407181" lon="-5.62884796410799">
        <ele>92.420000000000002</ele>
        <time>2019-09-04T09:13:23Z</time>
      </trkpt>
      <trkpt lat="57.686617970466614" lon="-5.6286730337888">
        <ele>92.900000000000006</ele>
        <time>2019-09-04T09:13:24Z</time>
      </trkpt>
      <trkpt lat="57.686591986566782" lon="-5.628283023834229">
        <ele>94.349999999999994</ele>
        <time>2019-09-04T09:13:26Z</time>
      </trkpt>
      <trkpt lat="57.686605984345078" lon="-5.628130976110697">
        <ele>94.829999999999998</ele>
        <time>2019-09-04T09:13:27Z</time>
      </trkpt>
      <trkpt lat="57.686621993780136" lon="-5.627949004992843">
        <ele>95.310000000000002</ele>
        <time>2019-09-04T09:13:28Z</time>
      </trkpt>
      <trkpt lat="57.686639009043574" lon="-5.627765022218227">
        <ele>96.269999999999996</ele>
        <time>2019-09-04T09:13:29Z</time>
      </trkpt>
      <trkpt lat="57.686655018478632" lon="-5.627587996423245">
        <ele>96.75</ele>
        <time>2019-09-04T09:13:30Z</time>
      </trkpt>
      <trkpt lat="57.686610007658601" lon="-5.627435026690364">
        <ele>97.709999999999994</ele>
        <time>2019-09-04T09:13:31Z</time>
      </trkpt>
      <trkpt lat="57.686554016545415" lon="-5.627262024208903">
        <ele>98.670000000000002</ele>
        <time>2019-09-04T09:13:32Z</time>
      </trkpt>
      <trkpt lat="57.686494002118707" lon="-5.627078041434288">
        <ele>99.150000000000006</ele>
        <time>2019-09-04T09:13:33Z</time>
      </trkpt>
      <trkpt lat="57.685869969427586" lon="-5.625135032460094">
        <ele>107.31999999999999</ele>
        <time>2019-09-04T09:13:44Z</time>
      </trkpt>
      <trkpt lat="57.685810960829258" lon="-5.624776035547257">
        <ele>108.29000000000001</ele>
        <time>2019-09-04T09:13:46Z</time>
      </trkpt>
      <trkpt lat="57.685808027163148" lon="-5.624603033065796">
        <ele>108.77</ele>
        <time>2019-09-04T09:13:47Z</time>
      </trkpt>
      <trkpt lat="57.685824036598206" lon="-5.624438999220729">
        <ele>108.77</ele>
        <time>2019-09-04T09:13:48Z</time>
      </trkpt>
      <trkpt lat="57.685848008841276" lon="-5.624258033931255">
        <ele>109.25</ele>
        <time>2019-09-04T09:13:49Z</time>
      </trkpt>
      <trkpt lat="57.685911962762475" lon="-5.624148985370994">
        <ele>109.25</ele>
        <time>2019-09-04T09:13:50Z</time>
      </trkpt>
      <trkpt lat="57.685991004109383" lon="-5.624013030901551">
        <ele>109.25</ele>
        <time>2019-09-04T09:13:51Z</time>
      </trkpt>
      <trkpt lat="57.686073984950781" lon="-5.623962990939617">
        <ele>109.73</ele>
        <time>2019-09-04T09:13:52Z</time>
      </trkpt>
      <trkpt lat="57.686184039339423" lon="-5.623941030353308">
        <ele>109.73</ele>
        <time>2019-09-04T09:13:53Z</time>
      </trkpt>
      <trkpt lat="57.686300966888666" lon="-5.623930972069502">
        <ele>109.73</ele>
        <time>2019-09-04T09:13:54Z</time>
      </trkpt>
      <trkpt lat="57.686424013227224" lon="-5.623920997604728">
        <ele>109.73</ele>
        <time>2019-09-04T09:13:55Z</time>
      </trkpt>
      <trkpt lat="57.686656024307013" lon="-5.623900964856148">
        <ele>109.25</ele>
        <time>2019-09-04T09:13:57Z</time>
      </trkpt>
      <trkpt lat="57.68675803206861" lon="-5.623891996219754">
        <ele>109.25</ele>
        <time>2019-09-04T09:13:58Z</time>
      </trkpt>
      <trkpt lat="57.686858028173447" lon="-5.623870035633445">
        <ele>109.25</ele>
        <time>2019-09-04T09:13:59Z</time>
      </trkpt>
      <trkpt lat="57.68692902289331" lon="-5.62375201843679">
        <ele>108.77</ele>
        <time>2019-09-04T09:14:00Z</time>
      </trkpt>
      <trkpt lat="57.686989037320018" lon="-5.623616985976696">
        <ele>108.77</ele>
        <time>2019-09-04T09:14:01Z</time>
      </trkpt>
      <trkpt lat="57.687026001513004" lon="-5.623448006808758">
        <ele>108.29000000000001</ele>
        <time>2019-09-04T09:14:02Z</time>
      </trkpt>
      <trkpt lat="57.687047040089965" lon="-5.623253965750337">
        <ele>107.81</ele>
        <time>2019-09-04T09:14:03Z</time>
      </trkpt>
      <trkpt lat="57.687055002897978" lon="-5.623032012954354">
        <ele>107.31999999999999</ele>
        <time>2019-09-04T09:14:04Z</time>
      </trkpt>
      <trkpt lat="57.68714401870966" lon="-5.620554992929101">
        <ele>107.31999999999999</ele>
        <time>2019-09-04T09:14:13Z</time>
      </trkpt>
      <trkpt lat="57.686999011784792" lon="-5.618176963180304">
        <ele>107.81</ele>
        <time>2019-09-04T09:14:21Z</time>
      </trkpt>
      <trkpt lat="57.686825003474951" lon="-5.616971980780363">
        <ele>108.29000000000001</ele>
        <time>2019-09-04T09:14:26Z</time>
      </trkpt>
      <trkpt lat="57.686769012361765" lon="-5.61412800103426">
        <ele>109.73</ele>
        <time>2019-09-04T09:14:37Z</time>
      </trkpt>
      <trkpt lat="57.686783010140061" lon="-5.613860031589866">
        <ele>109.73</ele>
        <time>2019-09-04T09:14:38Z</time>
      </trkpt>
      <trkpt lat="57.686817962676287" lon="-5.613372037187219">
        <ele>110.69</ele>
        <time>2019-09-04T09:14:40Z</time>
      </trkpt>
      <trkpt lat="57.686859034001827" lon="-5.613158969208598">
        <ele>111.65000000000001</ele>
        <time>2019-09-04T09:14:41Z</time>
      </trkpt>
      <trkpt lat="57.687021978199482" lon="-5.612294962629676">
        <ele>113.56999999999999</ele>
        <time>2019-09-04T09:14:45Z</time>
      </trkpt>
      <trkpt lat="57.687047040089965" lon="-5.612063035368919">
        <ele>114.05</ele>
        <time>2019-09-04T09:14:46Z</time>
      </trkpt>
      <trkpt lat="57.687057014554739" lon="-5.611820966005325">
        <ele>115.01000000000001</ele>
        <time>2019-09-04T09:14:47Z</time>
      </trkpt>
      <trkpt lat="57.687050979584455" lon="-5.611576968804002">
        <ele>115.5</ele>
        <time>2019-09-04T09:14:48Z</time>
      </trkpt>
      <trkpt lat="57.687010997906327" lon="-5.611338000744581">
        <ele>115.98</ele>
        <time>2019-09-04T09:14:49Z</time>
      </trkpt>
      <trkpt lat="57.686971016228199" lon="-5.611092997714877">
        <ele>116.45999999999999</ele>
        <time>2019-09-04T09:14:50Z</time>
      </trkpt>
      <trkpt lat="57.686924999579787" lon="-5.610850006341934">
        <ele>116.94</ele>
        <time>2019-09-04T09:14:51Z</time>
      </trkpt>
      <trkpt lat="57.686848975718021" lon="-5.61062796972692">
        <ele>117.42</ele>
        <time>2019-09-04T09:14:52Z</time>
      </trkpt>
      <trkpt lat="57.686771024018526" lon="-5.610401993617415">
        <ele>117.90000000000001</ele>
        <time>2019-09-04T09:14:53Z</time>
      </trkpt>
      <trkpt lat="57.686245981603861" lon="-5.609025014564395">
        <ele>119.81999999999999</ele>
        <time>2019-09-04T09:14:59Z</time>
      </trkpt>
      <trkpt lat="57.685849014669657" lon="-5.608147010207176">
        <ele>120.78</ele>
        <time>2019-09-04T09:15:04Z</time>
      </trkpt>
      <trkpt lat="57.685787994414568" lon="-5.607970990240574">
        <ele>120.78</ele>
        <time>2019-09-04T09:15:05Z</time>
      </trkpt>
      <trkpt lat="57.685562018305063" lon="-5.605958998203278">
        <ele>120.3</ele>
        <time>2019-09-04T09:15:14Z</time>
      </trkpt>
      <trkpt lat="57.685687998309731" lon="-5.603670990094543">
        <ele>115.5</ele>
        <time>2019-09-04T09:15:23Z</time>
      </trkpt>
      <trkpt lat="57.685711970552802" lon="-5.603349041193724">
        <ele>115.5</ele>
        <time>2019-09-04T09:15:24Z</time>
      </trkpt>
      <trkpt lat="57.685768967494369" lon="-5.603112000972033">
        <ele>115.01000000000001</ele>
        <time>2019-09-04T09:15:25Z</time>
      </trkpt>
      <trkpt lat="57.686414960771799" lon="-5.600448986515403">
        <ele>116.45999999999999</ele>
        <time>2019-09-04T09:15:34Z</time>
      </trkpt>
      <trkpt lat="57.68686699680984" lon="-5.598919959738851">
        <ele>116.94</ele>
        <time>2019-09-04T09:15:39Z</time>
      </trkpt>
      <trkpt lat="57.686922987923026" lon="-5.598587030544877">
        <ele>117.42</ele>
        <time>2019-09-04T09:15:40Z</time>
      </trkpt>
      <trkpt lat="57.686978979036212" lon="-5.598241025581956">
        <ele>117.42</ele>
        <time>2019-09-04T09:15:41Z</time>
      </trkpt>
      <trkpt lat="57.687035975977778" lon="-5.597888985648751">
        <ele>117.42</ele>
        <time>2019-09-04T09:15:42Z</time>
      </trkpt>
      <trkpt lat="57.687092972919345" lon="-5.597533006221056">
        <ele>117.42</ele>
        <time>2019-09-04T09:15:43Z</time>
      </trkpt>
      <trkpt lat="57.687760004773736" lon="-5.593876987695694">
        <ele>115.98</ele>
        <time>2019-09-04T09:15:53Z</time>
      </trkpt>
      <trkpt lat="57.688661981374025" lon="-5.590120973065496">
        <ele>118.38</ele>
        <time>2019-09-04T09:16:03Z</time>
      </trkpt>
      <trkpt lat="57.688974039629102" lon="-5.588748017325997">
        <ele>119.34</ele>
        <time>2019-09-04T09:16:07Z</time>
      </trkpt>
      <trkpt lat="57.689089039340615" lon="-5.588477030396462">
        <ele>119.34</ele>
        <time>2019-09-04T09:16:08Z</time>
      </trkpt>
      <trkpt lat="57.689204961061478" lon="-5.588201014325023">
        <ele>119.81999999999999</ele>
        <time>2019-09-04T09:16:09Z</time>
      </trkpt>
      <trkpt lat="57.689330019056797" lon="-5.587926004081965">
        <ele>120.3</ele>
        <time>2019-09-04T09:16:10Z</time>
      </trkpt>
      <trkpt lat="57.689473014324903" lon="-5.587676977738738">
        <ele>120.78</ele>
        <time>2019-09-04T09:16:11Z</time>
      </trkpt>
      <trkpt lat="57.69028203561902" lon="-5.586114004254341">
        <ele>125.59</ele>
        <time>2019-09-04T09:16:18Z</time>
      </trkpt>
      <trkpt lat="57.690804982557893" lon="-5.584527980536223">
        <ele>128.47</ele>
        <time>2019-09-04T09:16:24Z</time>
      </trkpt>
      <trkpt lat="57.690873965620995" lon="-5.584228998050094">
        <ele>128.47</ele>
        <time>2019-09-04T09:16:25Z</time>
      </trkpt>
      <trkpt lat="57.690947977825999" lon="-5.583908976987004">
        <ele>128.94999999999999</ele>
        <time>2019-09-04T09:16:26Z</time>
      </trkpt>
      <trkpt lat="57.691395990550518" lon="-5.580730978399515">
        <ele>126.06999999999999</ele>
        <time>2019-09-04T09:16:36Z</time>
      </trkpt>
      <trkpt lat="57.691620038822293" lon="-5.576528962701559">
        <ele>120.78</ele>
        <time>2019-09-04T09:16:47Z</time>
      </trkpt>
      <trkpt lat="57.691901000216603" lon="-5.571235958486795">
        <ele>110.20999999999999</ele>
        <time>2019-09-04T09:16:59Z</time>
      </trkpt>
      <trkpt lat="57.692134017124772" lon="-5.566848032176495">
        <ele>100.59999999999999</ele>
        <time>2019-09-04T09:17:10Z</time>
      </trkpt>
      <trkpt lat="57.692407015711069" lon="-5.561712021008134">
        <ele>91.939999999999998</ele>
        <time>2019-09-04T09:17:22Z</time>
      </trkpt>
      <trkpt lat="57.692467030137777" lon="-5.559044983237982">
        <ele>86.180000000000007</ele>
        <time>2019-09-04T09:17:29Z</time>
      </trkpt>
      <trkpt lat="57.692128987982869" lon="-5.556323966011405">
        <ele>79.930000000000007</ele>
        <time>2019-09-04T09:17:37Z</time>
      </trkpt>
      <trkpt lat="57.691369000822306" lon="-5.553964963182807">
        <ele>72.239999999999995</ele>
        <time>2019-09-04T09:17:45Z</time>
      </trkpt>
      <trkpt lat="57.690301984548569" lon="-5.552184982225299">
        <ele>64.549999999999997</ele>
        <time>2019-09-04T09:17:52Z</time>
      </trkpt>
      <trkpt lat="57.689646016806364" lon="-5.551334973424673">
        <ele>61.18</ele>
        <time>2019-09-04T09:17:56Z</time>
      </trkpt>
      <trkpt lat="57.687738966196775" lon="-5.54905098862946">
        <ele>53.969999999999999</ele>
        <time>2019-09-04T09:18:07Z</time>
      </trkpt>
      <trkpt lat="57.685463028028607" lon="-5.546842021867633">
        <ele>49.649999999999999</ele>
        <time>2019-09-04T09:18:20Z</time>
      </trkpt>
      <trkpt lat="57.684410009533167" lon="-5.545610971748829">
        <ele>47.719999999999999</ele>
        <time>2019-09-04T09:18:27Z</time>
      </trkpt>
      <trkpt lat="57.683768961578608" lon="-5.543903997167945">
        <ele>46.759999999999998</ele>
        <time>2019-09-04T09:18:33Z</time>
      </trkpt>
      <trkpt lat="57.683030012995005" lon="-5.540327019989491">
        <ele>40.509999999999998</ele>
        <time>2019-09-04T09:18:43Z</time>
      </trkpt>
      <trkpt lat="57.682400029152632" lon="-5.537153966724873">
        <ele>31.859999999999999</ele>
        <time>2019-09-04T09:18:51Z</time>
      </trkpt>
      <trkpt lat="57.681890996173024" lon="-5.534190963953733">
        <ele>25.609999999999999</ele>
        <time>2019-09-04T09:18:59Z</time>
      </trkpt>
      <trkpt lat="57.681928966194391" lon="-5.531962970271707">
        <ele>20.32</ele>
        <time>2019-09-04T09:19:05Z</time>
      </trkpt>
      <trkpt lat="57.681971965357661" lon="-5.531606990844011">
        <ele>19.359999999999999</ele>
        <time>2019-09-04T09:19:06Z</time>
      </trkpt>
      <trkpt lat="57.682456020265818" lon="-5.528953028842807">
        <ele>16</ele>
        <time>2019-09-04T09:19:14Z</time>
      </trkpt>
      <trkpt lat="57.682570014148951" lon="-5.526395039632917">
        <ele>15.52</ele>
        <time>2019-09-04T09:19:21Z</time>
      </trkpt>
      <trkpt lat="57.682210011407733" lon="-5.523841995745897">
        <ele>16</ele>
        <time>2019-09-04T09:19:28Z</time>
      </trkpt>
      <trkpt lat="57.681960985064507" lon="-5.522103002294898">
        <ele>15.52</ele>
        <time>2019-09-04T09:19:33Z</time>
      </trkpt>
      <trkpt lat="57.681840034201741" lon="-5.519262040033937">
        <ele>14.56</ele>
        <time>2019-09-04T09:19:41Z</time>
      </trkpt>
      <trkpt lat="57.681783037260175" lon="-5.518921986222267">
        <ele>14.56</ele>
        <time>2019-09-04T09:19:42Z</time>
      </trkpt>
      <trkpt lat="57.681724028661847" lon="-5.518599031493068">
        <ele>14.56</ele>
        <time>2019-09-04T09:19:43Z</time>
      </trkpt>
      <trkpt lat="57.68114903010428" lon="-5.515754967927933">
        <ele>14.08</ele>
        <time>2019-09-04T09:19:52Z</time>
      </trkpt>
      <trkpt lat="57.681135032325983" lon="-5.515397982671857">
        <ele>14.08</ele>
        <time>2019-09-04T09:19:53Z</time>
      </trkpt>
      <trkpt lat="57.681126985698938" lon="-5.515031022951007">
        <ele>14.08</ele>
        <time>2019-09-04T09:19:54Z</time>
      </trkpt>
      <trkpt lat="57.681120028719306" lon="-5.513666030019522">
        <ele>14.56</ele>
        <time>2019-09-04T09:19:58Z</time>
      </trkpt>
      <trkpt lat="57.681050961837173" lon="-5.513025987893343">
        <ele>14.56</ele>
        <time>2019-09-04T09:20:00Z</time>
      </trkpt>
      <trkpt lat="57.680918024852872" lon="-5.512385023757815">
        <ele>14.56</ele>
        <time>2019-09-04T09:20:02Z</time>
      </trkpt>
      <trkpt lat="57.680842000991106" lon="-5.512061985209584">
        <ele>14.56</ele>
        <time>2019-09-04T09:20:03Z</time>
      </trkpt>
      <trkpt lat="57.680766982957721" lon="-5.511742969974876">
        <ele>14.56</ele>
        <time>2019-09-04T09:20:04Z</time>
      </trkpt>
      <trkpt lat="57.680446039885283" lon="-5.509877996519208">
        <ele>15.039999999999999</ele>
        <time>2019-09-04T09:20:10Z</time>
      </trkpt>
      <trkpt lat="57.680358029901981" lon="-5.508922040462494">
        <ele>15.039999999999999</ele>
        <time>2019-09-04T09:20:13Z</time>
      </trkpt>
      <trkpt lat="57.680329028517008" lon="-5.508607970550656">
        <ele>15.52</ele>
        <time>2019-09-04T09:20:14Z</time>
      </trkpt>
      <trkpt lat="57.680115038529038" lon="-5.507348002865911">
        <ele>16.48</ele>
        <time>2019-09-04T09:20:18Z</time>
      </trkpt>
      <trkpt lat="57.680039014667273" lon="-5.507055977359414">
        <ele>16.48</ele>
        <time>2019-09-04T09:20:19Z</time>
      </trkpt>
      <trkpt lat="57.679933989420533" lon="-5.506784990429878">
        <ele>16.48</ele>
        <time>2019-09-04T09:20:20Z</time>
      </trkpt>
      <trkpt lat="57.679828964173794" lon="-5.506514003500342">
        <ele>16.48</ele>
        <time>2019-09-04T09:20:21Z</time>
      </trkpt>
      <trkpt lat="57.679702984169126" lon="-5.506269000470638">
        <ele>16.48</ele>
        <time>2019-09-04T09:20:22Z</time>
      </trkpt>
      <trkpt lat="57.679565018042922" lon="-5.506015028804541">
        <ele>16.48</ele>
        <time>2019-09-04T09:20:23Z</time>
      </trkpt>
      <trkpt lat="57.678367998450994" lon="-5.503831040114164">
        <ele>16.960000000000001</ele>
        <time>2019-09-04T09:20:31Z</time>
      </trkpt>
      <trkpt lat="57.677555037662387" lon="-5.502418018877506">
        <ele>16.960000000000001</ele>
        <time>2019-09-04T09:20:37Z</time>
      </trkpt>
      <trkpt lat="57.676787003874779" lon="-5.501367012038827">
        <ele>17.440000000000001</ele>
        <time>2019-09-04T09:20:42Z</time>
      </trkpt>
      <trkpt lat="57.676620958372951" lon="-5.501175988465548">
        <ele>17.440000000000001</ele>
        <time>2019-09-04T09:20:43Z</time>
      </trkpt>
      <trkpt lat="57.676456002518535" lon="-5.500985970720649">
        <ele>17.440000000000001</ele>
        <time>2019-09-04T09:20:44Z</time>
      </trkpt>
      <trkpt lat="57.675250014290214" lon="-5.49939701333642">
        <ele>17.920000000000002</ele>
        <time>2019-09-04T09:20:52Z</time>
      </trkpt>
      <trkpt lat="57.67433999106288" lon="-5.497132977470756">
        <ele>17.440000000000001</ele>
        <time>2019-09-04T09:21:00Z</time>
      </trkpt>
      <trkpt lat="57.674257010221481" lon="-5.496792001649737">
        <ele>16.960000000000001</ele>
        <time>2019-09-04T09:21:01Z</time>
      </trkpt>
      <trkpt lat="57.674181992188096" lon="-5.496456976979971">
        <ele>16.48</ele>
        <time>2019-09-04T09:21:02Z</time>
      </trkpt>
      <trkpt lat="57.674134969711304" lon="-5.496097980067134">
        <ele>16</ele>
        <time>2019-09-04T09:21:03Z</time>
      </trkpt>
      <trkpt lat="57.674088031053543" lon="-5.495743006467819">
        <ele>16</ele>
        <time>2019-09-04T09:21:04Z</time>
      </trkpt>
      <trkpt lat="57.674064980819821" lon="-5.493069011718035">
        <ele>16</ele>
        <time>2019-09-04T09:21:11Z</time>
      </trkpt>
      <trkpt lat="57.674116026610136" lon="-5.490204999223352">
        <ele>16</ele>
        <time>2019-09-04T09:21:19Z</time>
      </trkpt>
      <trkpt lat="57.674204958602786" lon="-5.488773034885526">
        <ele>14.08</ele>
        <time>2019-09-04T09:21:23Z</time>
      </trkpt>
      <trkpt lat="57.674248041585088" lon="-5.488414959982038">
        <ele>14.08</ele>
        <time>2019-09-04T09:21:24Z</time>
      </trkpt>
      <trkpt lat="57.674307972192764" lon="-5.488069038838148">
        <ele>13.6</ele>
        <time>2019-09-04T09:21:25Z</time>
      </trkpt>
      <trkpt lat="57.674395982176065" lon="-5.487757986411452">
        <ele>13.119999999999999</ele>
        <time>2019-09-04T09:21:26Z</time>
      </trkpt>
      <trkpt lat="57.674486003816128" lon="-5.487438971176744">
        <ele>13.119999999999999</ele>
        <time>2019-09-04T09:21:27Z</time>
      </trkpt>
      <trkpt lat="57.6745979860425" lon="-5.487133031710982">
        <ele>13.119999999999999</ele>
        <time>2019-09-04T09:21:28Z</time>
      </trkpt>
      <trkpt lat="57.675547990947962" lon="-5.484545035287738">
        <ele>13.6</ele>
        <time>2019-09-04T09:21:37Z</time>
      </trkpt>
      <trkpt lat="57.675810009241104" lon="-5.48248803243041">
        <ele>16.48</ele>
        <time>2019-09-04T09:21:43Z</time>
      </trkpt>
      <trkpt lat="57.675755023956299" lon="-5.478826984763145">
        <ele>23.210000000000001</ele>
        <time>2019-09-04T09:21:53Z</time>
      </trkpt>
      <trkpt lat="57.675732979550958" lon="-5.473938994109631">
        <ele>33.780000000000001</ele>
        <time>2019-09-04T09:22:06Z</time>
      </trkpt>
      <trkpt lat="57.675818977877498" lon="-5.468681026250124">
        <ele>43.880000000000003</ele>
        <time>2019-09-04T09:22:20Z</time>
      </trkpt>
      <trkpt lat="57.675500968471169" lon="-5.466759977862239">
        <ele>46.280000000000001</ele>
        <time>2019-09-04T09:22:26Z</time>
      </trkpt>
      <trkpt lat="57.675384040921926" lon="-5.466488990932703">
        <ele>46.759999999999998</ele>
        <time>2019-09-04T09:22:27Z</time>
      </trkpt>
      <trkpt lat="57.675267029553652" lon="-5.466221021488309">
        <ele>46.759999999999998</ele>
        <time>2019-09-04T09:22:28Z</time>
      </trkpt>
      <trkpt lat="57.675140965729952" lon="-5.46596797183156">
        <ele>46.759999999999998</ele>
        <time>2019-09-04T09:22:29Z</time>
      </trkpt>
      <trkpt lat="57.675005011260509" lon="-5.465740989893675">
        <ele>47.240000000000002</ele>
        <time>2019-09-04T09:22:30Z</time>
      </trkpt>
      <trkpt lat="57.674849024042487" lon="-5.465552983805537">
        <ele>47.240000000000002</ele>
        <time>2019-09-04T09:22:31Z</time>
      </trkpt>
      <trkpt lat="57.674695970490575" lon="-5.465366989374161">
        <ele>47.240000000000002</ele>
        <time>2019-09-04T09:22:32Z</time>
      </trkpt>
      <trkpt lat="57.67453302629292" lon="-5.4651939868927">
        <ele>47.240000000000002</ele>
        <time>2019-09-04T09:22:33Z</time>
      </trkpt>
      <trkpt lat="57.674363041296601" lon="-5.465050991624594">
        <ele>47.240000000000002</ele>
        <time>2019-09-04T09:22:34Z</time>
      </trkpt>
      <trkpt lat="57.673255037516356" lon="-5.46405203640461">
        <ele>48.200000000000003</ele>
        <time>2019-09-04T09:22:41Z</time>
      </trkpt>
      <trkpt lat="57.672983966767788" lon="-5.463676024228334">
        <ele>48.200000000000003</ele>
        <time>2019-09-04T09:22:43Z</time>
      </trkpt>
      <trkpt lat="57.672555986791849" lon="-5.462673967704177">
        <ele>47.240000000000002</ele>
        <time>2019-09-04T09:22:47Z</time>
      </trkpt>
      <trkpt lat="57.672464959323406" lon="-5.462394012138248">
        <ele>47.240000000000002</ele>
        <time>2019-09-04T09:22:48Z</time>
      </trkpt>
      <trkpt lat="57.672396982088685" lon="-5.462098969146609">
        <ele>46.759999999999998</ele>
        <time>2019-09-04T09:22:49Z</time>
      </trkpt>
      <trkpt lat="57.671822989359498" lon="-5.458816029131413">
        <ele>41.469999999999999</ele>
        <time>2019-09-04T09:22:59Z</time>
      </trkpt>
      <trkpt lat="57.670793021097779" lon="-5.455262018367648">
        <ele>37.630000000000003</ele>
        <time>2019-09-04T09:23:10Z</time>
      </trkpt>
      <trkpt lat="57.669802028685808" lon="-5.453219013288617">
        <ele>36.670000000000002</ele>
        <time>2019-09-04T09:23:17Z</time>
      </trkpt>
      <trkpt lat="57.668191026896238" lon="-5.451281033456326">
        <ele>31.859999999999999</ele>
        <time>2019-09-04T09:23:26Z</time>
      </trkpt>
      <trkpt lat="57.667375970631838" lon="-5.44963700696826">
        <ele>28.98</ele>
        <time>2019-09-04T09:23:32Z</time>
      </trkpt>
      <trkpt lat="57.666694018989801" lon="-5.44686796143651">
        <ele>26.57</ele>
        <time>2019-09-04T09:23:40Z</time>
      </trkpt>
      <trkpt lat="57.665544021874666" lon="-5.443002982065082">
        <ele>24.649999999999999</ele>
        <time>2019-09-04T09:23:51Z</time>
      </trkpt>
      <trkpt lat="57.664277013391256" lon="-5.43863601051271">
        <ele>24.170000000000002</ele>
        <time>2019-09-04T09:24:04Z</time>
      </trkpt>
      <trkpt lat="57.663474027067423" lon="-5.434930035844445">
        <ele>23.690000000000001</ele>
        <time>2019-09-04T09:24:14Z</time>
      </trkpt>
      <trkpt lat="57.662537014111876" lon="-5.431351969018579">
        <ele>29.940000000000001</ele>
        <time>2019-09-04T09:24:24Z</time>
      </trkpt>
      <trkpt lat="57.661681976169348" lon="-5.428085960447788">
        <ele>31.379999999999999</ele>
        <time>2019-09-04T09:24:34Z</time>
      </trkpt>
      <trkpt lat="57.660609008744359" lon="-5.424257023259997">
        <ele>23.210000000000001</ele>
        <time>2019-09-04T09:24:46Z</time>
      </trkpt>
      <trkpt lat="57.659704014658928" lon="-5.422185016795993">
        <ele>21.289999999999999</ele>
        <time>2019-09-04T09:24:53Z</time>
      </trkpt>
      <trkpt lat="57.658180017024279" lon="-5.420045033097267">
        <ele>19.84</ele>
        <time>2019-09-04T09:25:02Z</time>
      </trkpt>
      <trkpt lat="57.656284030526876" lon="-5.417477991431952">
        <ele>22.25</ele>
        <time>2019-09-04T09:25:14Z</time>
      </trkpt>
      <trkpt lat="57.654587030410767" lon="-5.415172968059778">
        <ele>24.649999999999999</ele>
        <time>2019-09-04T09:25:25Z</time>
      </trkpt>
      <trkpt lat="57.653595032170415" lon="-5.413298020139337">
        <ele>27.050000000000001</ele>
        <time>2019-09-04T09:25:33Z</time>
      </trkpt>
      <trkpt lat="57.653365032747388" lon="-5.41246703825891">
        <ele>27.050000000000001</ele>
        <time>2019-09-04T09:25:36Z</time>
      </trkpt>
      <trkpt lat="57.653308035805821" lon="-5.412179036065936">
        <ele>27.050000000000001</ele>
        <time>2019-09-04T09:25:37Z</time>
      </trkpt>
      <trkpt lat="57.653290014714003" lon="-5.411877036094666">
        <ele>27.050000000000001</ele>
        <time>2019-09-04T09:25:38Z</time>
      </trkpt>
      <trkpt lat="57.653271993622184" lon="-5.411577969789505">
        <ele>27.050000000000001</ele>
        <time>2019-09-04T09:25:39Z</time>
      </trkpt>
      <trkpt lat="57.65328599140048" lon="-5.411280998960137">
        <ele>27.050000000000001</ele>
        <time>2019-09-04T09:25:40Z</time>
      </trkpt>
      <trkpt lat="57.653307029977441" lon="-5.410986039787531">
        <ele>27.530000000000001</ele>
        <time>2019-09-04T09:25:41Z</time>
      </trkpt>
      <trkpt lat="57.653356986120343" lon="-5.410703988745809">
        <ele>28.02</ele>
        <time>2019-09-04T09:25:42Z</time>
      </trkpt>
      <trkpt lat="57.653410965576768" lon="-5.410422021523118">
        <ele>28.02</ele>
        <time>2019-09-04T09:25:43Z</time>
      </trkpt>
      <trkpt lat="57.653471985831857" lon="-5.410137958824635">
        <ele>28.5</ele>
        <time>2019-09-04T09:25:44Z</time>
      </trkpt>
      <trkpt lat="57.653568964451551" lon="-5.409896979108453">
        <ele>28.5</ele>
        <time>2019-09-04T09:25:45Z</time>
      </trkpt>
      <trkpt lat="57.653666026890278" lon="-5.409652981907129">
        <ele>28.5</ele>
        <time>2019-09-04T09:25:46Z</time>
      </trkpt>
      <trkpt lat="57.653771974146366" lon="-5.409407978877425">
        <ele>28.5</ele>
        <time>2019-09-04T09:25:47Z</time>
      </trkpt>
      <trkpt lat="57.654405981302261" lon="-5.408039968460798">
        <ele>28.02</ele>
        <time>2019-09-04T09:25:53Z</time>
      </trkpt>
      <trkpt lat="57.654472030699253" lon="-5.407758001238108">
        <ele>28.02</ele>
        <time>2019-09-04T09:25:54Z</time>
      </trkpt>
      <trkpt lat="57.654539002105594" lon="-5.407469999045134">
        <ele>27.530000000000001</ele>
        <time>2019-09-04T09:25:55Z</time>
      </trkpt>
      <trkpt lat="57.654577977955341" lon="-5.407152995467186">
        <ele>27.050000000000001</ele>
        <time>2019-09-04T09:25:56Z</time>
      </trkpt>
      <trkpt lat="57.654608990997076" lon="-5.406822999939323">
        <ele>27.050000000000001</ele>
        <time>2019-09-04T09:25:57Z</time>
      </trkpt>
      <trkpt lat="57.655015010386705" lon="-5.402929019182921">
        <ele>23.690000000000001</ele>
        <time>2019-09-04T09:26:08Z</time>
      </trkpt>
      <trkpt lat="57.65536998398602" lon="-5.399162024259567">
        <ele>18.879999999999999</ele>
        <time>2019-09-04T09:26:18Z</time>
      </trkpt>
      <trkpt lat="57.655147025361657" lon="-5.396780977025628">
        <ele>16.48</ele>
        <time>2019-09-04T09:26:24Z</time>
      </trkpt>
      <trkpt lat="57.654378991574049" lon="-5.393613036721945">
        <ele>16.960000000000001</ele>
        <time>2019-09-04T09:26:33Z</time>
      </trkpt>
      <trkpt lat="57.654267009347677" lon="-5.393340960144997">
        <ele>16.960000000000001</ele>
        <time>2019-09-04T09:26:34Z</time>
      </trkpt>
      <trkpt lat="57.654154021292925" lon="-5.393067039549351">
        <ele>16.960000000000001</ele>
        <time>2019-09-04T09:26:35Z</time>
      </trkpt>
      <trkpt lat="57.65401597134769" lon="-5.392832010984421">
        <ele>16.48</ele>
        <time>2019-09-04T09:26:36Z</time>
      </trkpt>
      <trkpt lat="57.653868030756712" lon="-5.392606034874916">
        <ele>16.48</ele>
        <time>2019-09-04T09:26:37Z</time>
      </trkpt>
      <trkpt lat="57.653720006346703" lon="-5.39237997494638">
        <ele>16.48</ele>
        <time>2019-09-04T09:26:38Z</time>
      </trkpt>
      <trkpt lat="57.651954023167491" lon="-5.390019966289401">
        <ele>17.440000000000001</ele>
        <time>2019-09-04T09:26:49Z</time>
      </trkpt>
      <trkpt lat="57.650322988629341" lon="-5.388050973415375">
        <ele>23.210000000000001</ele>
        <time>2019-09-04T09:26:59Z</time>
      </trkpt>
      <trkpt lat="57.649070983752608" lon="-5.385789033025503">
        <ele>30.420000000000002</ele>
        <time>2019-09-04T09:27:09Z</time>
      </trkpt>
      <trkpt lat="57.647916041314602" lon="-5.383086958900094">
        <ele>28.98</ele>
        <time>2019-09-04T09:27:18Z</time>
      </trkpt>
      <trkpt lat="57.646649032831192" lon="-5.37996000610292">
        <ele>28.02</ele>
        <time>2019-09-04T09:27:28Z</time>
      </trkpt>
      <trkpt lat="57.645496018230915" lon="-5.37680396810174">
        <ele>27.530000000000001</ele>
        <time>2019-09-04T09:27:38Z</time>
      </trkpt>
      <trkpt lat="57.644461020827293" lon="-5.374190993607044">
        <ele>21.289999999999999</ele>
        <time>2019-09-04T09:27:46Z</time>
      </trkpt>
      <trkpt lat="57.643169034272432" lon="-5.371569972485304">
        <ele>17.920000000000002</ele>
        <time>2019-09-04T09:27:55Z</time>
      </trkpt>
      <trkpt lat="57.641784008592367" lon="-5.369206024333835">
        <ele>17.920000000000002</ele>
        <time>2019-09-04T09:28:05Z</time>
      </trkpt>
      <trkpt lat="57.641623998060822" lon="-5.36902598105371">
        <ele>18.399999999999999</ele>
        <time>2019-09-04T09:28:06Z</time>
      </trkpt>
      <trkpt lat="57.641134997829795" lon="-5.368492975831032">
        <ele>18.879999999999999</ele>
        <time>2019-09-04T09:28:09Z</time>
      </trkpt>
      <trkpt lat="57.639675959944725" lon="-5.36741397343576">
        <ele>17.920000000000002</ele>
        <time>2019-09-04T09:28:17Z</time>
      </trkpt>
      <trkpt lat="57.637896984815598" lon="-5.366133973002434">
        <ele>15.039999999999999</ele>
        <time>2019-09-04T09:28:27Z</time>
      </trkpt>
      <trkpt lat="57.636187998577952" lon="-5.364567982032895">
        <ele>13.119999999999999</ele>
        <time>2019-09-04T09:28:37Z</time>
      </trkpt>
      <trkpt lat="57.635952970013022" lon="-5.36401703953743">
        <ele>12.630000000000001</ele>
        <time>2019-09-04T09:28:39Z</time>
      </trkpt>
      <trkpt lat="57.635835958644748" lon="-5.363741023465991">
        <ele>12.630000000000001</ele>
        <time>2019-09-04T09:28:40Z</time>
      </trkpt>
      <trkpt lat="57.635732023045421" lon="-5.363441035151482">
        <ele>12.630000000000001</ele>
        <time>2019-09-04T09:28:41Z</time>
      </trkpt>
      <trkpt lat="57.635659016668797" lon="-5.363105004653335">
        <ele>12.15</ele>
        <time>2019-09-04T09:28:42Z</time>
      </trkpt>
      <trkpt lat="57.635583998635411" lon="-5.362765034660697">
        <ele>12.15</ele>
        <time>2019-09-04T09:28:43Z</time>
      </trkpt>
      <trkpt lat="57.635513003915548" lon="-5.362431015819311">
        <ele>12.15</ele>
        <time>2019-09-04T09:28:44Z</time>
      </trkpt>
      <trkpt lat="57.635087035596371" lon="-5.360189024358988">
        <ele>11.67</ele>
        <time>2019-09-04T09:28:51Z</time>
      </trkpt>
      <trkpt lat="57.634299974888563" lon="-5.358351040631533">
        <ele>11.19</ele>
        <time>2019-09-04T09:28:57Z</time>
      </trkpt>
      <trkpt lat="57.633391041308641" lon="-5.356641970574856">
        <ele>11.19</ele>
        <time>2019-09-04T09:29:04Z</time>
      </trkpt>
      <trkpt lat="57.63330495916307" lon="-5.356366960331798">
        <ele>11.19</ele>
        <time>2019-09-04T09:29:05Z</time>
      </trkpt>
      <trkpt lat="57.633204963058233" lon="-5.356050040572882">
        <ele>11.19</ele>
        <time>2019-09-04T09:29:06Z</time>
      </trkpt>
      <trkpt lat="57.632533991709352" lon="-5.353459026664496">
        <ele>11.19</ele>
        <time>2019-09-04T09:29:15Z</time>
      </trkpt>
      <trkpt lat="57.632407005876303" lon="-5.353225003927946">
        <ele>10.710000000000001</ele>
        <time>2019-09-04T09:29:16Z</time>
      </trkpt>
      <trkpt lat="57.632266022264957" lon="-5.352988969534636">
        <ele>10.710000000000001</ele>
        <time>2019-09-04T09:29:17Z</time>
      </trkpt>
      <trkpt lat="57.632113974541426" lon="-5.352773973718286">
        <ele>10.23</ele>
        <time>2019-09-04T09:29:18Z</time>
      </trkpt>
      <trkpt lat="57.631942983716726" lon="-5.352584961801767">
        <ele>9.75</ele>
        <time>2019-09-04T09:29:19Z</time>
      </trkpt>
      <trkpt lat="57.631760006770492" lon="-5.352425035089254">
        <ele>9.75</ele>
        <time>2019-09-04T09:29:20Z</time>
      </trkpt>
      <trkpt lat="57.63158499263227" lon="-5.352271981537342">
        <ele>9.27</ele>
        <time>2019-09-04T09:29:21Z</time>
      </trkpt>
      <trkpt lat="57.631422970443964" lon="-5.352129992097616">
        <ele>9.27</ele>
        <time>2019-09-04T09:29:22Z</time>
      </trkpt>
      <trkpt lat="57.631270000711083" lon="-5.351953972131014">
        <ele>9.27</ele>
        <time>2019-09-04T09:29:23Z</time>
      </trkpt>
      <trkpt lat="57.631144020706415" lon="-5.351727996021509">
        <ele>8.789999999999999</ele>
        <time>2019-09-04T09:29:24Z</time>
      </trkpt>
      <trkpt lat="57.631015023216605" lon="-5.351496990770102">
        <ele>8.789999999999999</ele>
        <time>2019-09-04T09:29:25Z</time>
      </trkpt>
      <trkpt lat="57.630908992141485" lon="-5.351306973025203">
        <ele>8.789999999999999</ele>
        <time>2019-09-04T09:29:26Z</time>
      </trkpt>
      <trkpt lat="57.630817964673042" lon="-5.350976977497339">
        <ele>9.27</ele>
        <time>2019-09-04T09:29:27Z</time>
      </trkpt>
      <trkpt lat="57.630738001316786" lon="-5.350686041638255">
        <ele>9.27</ele>
        <time>2019-09-04T09:29:28Z</time>
      </trkpt>
      <trkpt lat="57.630663989111781" lon="-5.350392004474998">
        <ele>9.27</ele>
        <time>2019-09-04T09:29:29Z</time>
      </trkpt>
      <trkpt lat="57.630614032968879" lon="-5.350070977583528">
        <ele>9.75</ele>
        <time>2019-09-04T09:29:30Z</time>
      </trkpt>
      <trkpt lat="57.630417980253696" lon="-5.348826013505459">
        <ele>10.710000000000001</ele>
        <time>2019-09-04T09:29:34Z</time>
      </trkpt>
      <trkpt lat="57.630371041595936" lon="-5.348531976342201">
        <ele>10.710000000000001</ele>
        <time>2019-09-04T09:29:35Z</time>
      </trkpt>
      <trkpt lat="57.629804005846381" lon="-5.345689002424479">
        <ele>10.23</ele>
        <time>2019-09-04T09:29:44Z</time>
      </trkpt>
      <trkpt lat="57.629694035276771" lon="-5.345373004674912">
        <ele>10.23</ele>
        <time>2019-09-04T09:29:45Z</time>
      </trkpt>
      <trkpt lat="57.629579035565257" lon="-5.345042003318667">
        <ele>9.75</ele>
        <time>2019-09-04T09:29:46Z</time>
      </trkpt>
      <trkpt lat="57.629438973963261" lon="-5.344795994460583">
        <ele>9.75</ele>
        <time>2019-09-04T09:29:47Z</time>
      </trkpt>
      <trkpt lat="57.629281980916858" lon="-5.344551997259259">
        <ele>9.75</ele>
        <time>2019-09-04T09:29:48Z</time>
      </trkpt>
      <trkpt lat="57.629099003970623" lon="-5.344369020313025">
        <ele>9.27</ele>
        <time>2019-09-04T09:29:49Z</time>
      </trkpt>
      <trkpt lat="57.628905968740582" lon="-5.344220995903015">
        <ele>8.789999999999999</ele>
        <time>2019-09-04T09:29:50Z</time>
      </trkpt>
      <trkpt lat="57.628702959045768" lon="-5.344085963442922">
        <ele>8.310000000000001</ele>
        <time>2019-09-04T09:29:51Z</time>
      </trkpt>
      <trkpt lat="57.628500033169985" lon="-5.34395101480186">
        <ele>7.83</ele>
        <time>2019-09-04T09:29:52Z</time>
      </trkpt>
      <trkpt lat="57.627948001027107" lon="-5.343582965433598">
        <ele>6.87</ele>
        <time>2019-09-04T09:29:55Z</time>
      </trkpt>
      <trkpt lat="57.627782039344311" lon="-5.343359000980854">
        <ele>6.39</ele>
        <time>2019-09-04T09:29:56Z</time>
      </trkpt>
      <trkpt lat="57.627634014934301" lon="-5.343160014599562">
        <ele>5.91</ele>
        <time>2019-09-04T09:29:57Z</time>
      </trkpt>
      <trkpt lat="57.627492025494576" lon="-5.342940995469689">
        <ele>5.91</ele>
        <time>2019-09-04T09:29:58Z</time>
      </trkpt>
      <trkpt lat="57.62737300246954" lon="-5.342662967741489">
        <ele>5.91</ele>
        <time>2019-09-04T09:29:59Z</time>
      </trkpt>
      <trkpt lat="57.626183023676276" lon="-5.339885037392378">
        <ele>7.35</ele>
        <time>2019-09-04T09:30:09Z</time>
      </trkpt>
      <trkpt lat="57.62513997964561" lon="-5.337068969383836">
        <ele>6.87</ele>
        <time>2019-09-04T09:30:18Z</time>
      </trkpt>
      <trkpt lat="57.624694984406233" lon="-5.33574596978724">
        <ele>6.39</ele>
        <time>2019-09-04T09:30:22Z</time>
      </trkpt>
      <trkpt lat="57.624572021886706" lon="-5.335460985079408">
        <ele>6.39</ele>
        <time>2019-09-04T09:30:23Z</time>
      </trkpt>
      <trkpt lat="57.624416034668684" lon="-5.335231991484761">
        <ele>5.91</ele>
        <time>2019-09-04T09:30:24Z</time>
      </trkpt>
      <trkpt lat="57.62425702996552" lon="-5.334999980404973">
        <ele>6.39</ele>
        <time>2019-09-04T09:30:25Z</time>
      </trkpt>
      <trkpt lat="57.624056031927466" lon="-5.334840975701809">
        <ele>6.39</ele>
        <time>2019-09-04T09:30:26Z</time>
      </trkpt>
      <trkpt lat="57.623854028061032" lon="-5.334682976827025">
        <ele>6.39</ele>
        <time>2019-09-04T09:30:27Z</time>
      </trkpt>
      <trkpt lat="57.622787011787295" lon="-5.333679998293519">
        <ele>5.91</ele>
        <time>2019-09-04T09:30:33Z</time>
      </trkpt>
      <trkpt lat="57.621528971940279" lon="-5.331889959052205">
        <ele>7.35</ele>
        <time>2019-09-04T09:30:41Z</time>
      </trkpt>
      <trkpt lat="57.619922999292612" lon="-5.329430960118771">
        <ele>6.39</ele>
        <time>2019-09-04T09:30:51Z</time>
      </trkpt>
      <trkpt lat="57.618762021884322" lon="-5.327524999156594">
        <ele>4.46</ele>
        <time>2019-09-04T09:30:59Z</time>
      </trkpt>
      <trkpt lat="57.618664959445596" lon="-5.327263986691833">
        <ele>4.46</ele>
        <time>2019-09-04T09:31:00Z</time>
      </trkpt>
      <trkpt lat="57.618568986654282" lon="-5.326983025297523">
        <ele>4.46</ele>
        <time>2019-09-04T09:31:01Z</time>
      </trkpt>
      <trkpt lat="57.618484999984503" lon="-5.326704997569323">
        <ele>4.46</ele>
        <time>2019-09-04T09:31:02Z</time>
      </trkpt>
      <trkpt lat="57.618416016921401" lon="-5.326397968456149">
        <ele>4.46</ele>
        <time>2019-09-04T09:31:03Z</time>
      </trkpt>
      <trkpt lat="57.618346028029919" lon="-5.326084988191724">
        <ele>4.94</ele>
        <time>2019-09-04T09:31:04Z</time>
      </trkpt>
      <trkpt lat="57.617783015593886" lon="-5.323931006714702">
        <ele>4.94</ele>
        <time>2019-09-04T09:31:11Z</time>
      </trkpt>
      <trkpt lat="57.616487005725503" lon="-5.321429008617997">
        <ele>7.35</ele>
        <time>2019-09-04T09:31:20Z</time>
      </trkpt>
      <trkpt lat="57.615733975544572" lon="-5.320073990151286">
        <ele>9.75</ele>
        <time>2019-09-04T09:31:25Z</time>
      </trkpt>
      <trkpt lat="57.614105036482215" lon="-5.317456992343068">
        <ele>13.119999999999999</ele>
        <time>2019-09-04T09:31:36Z</time>
      </trkpt>
      <trkpt lat="57.613224014639854" lon="-5.316087976098061">
        <ele>14.08</ele>
        <time>2019-09-04T09:31:43Z</time>
      </trkpt>
      <trkpt lat="57.612710036337376" lon="-5.31528901308775">
        <ele>14.56</ele>
        <time>2019-09-04T09:31:47Z</time>
      </trkpt>
      <trkpt lat="57.611620975658298" lon="-5.313600981608033">
        <ele>16.960000000000001</ele>
        <time>2019-09-04T09:31:56Z</time>
      </trkpt>
      <trkpt lat="57.610435020178556" lon="-5.311726033687592">
        <ele>18.399999999999999</ele>
        <time>2019-09-04T09:32:05Z</time>
      </trkpt>
      <trkpt lat="57.609189972281456" lon="-5.309560988098383">
        <ele>19.359999999999999</ele>
        <time>2019-09-04T09:32:14Z</time>
      </trkpt>
      <trkpt lat="57.608195040374994" lon="-5.308117037639022">
        <ele>20.32</ele>
        <time>2019-09-04T09:32:21Z</time>
      </trkpt>
      <trkpt lat="57.608040980994701" lon="-5.307980999350548">
        <ele>20.809999999999999</ele>
        <time>2019-09-04T09:32:22Z</time>
      </trkpt>
      <trkpt lat="57.606700966134667" lon="-5.307059995830059">
        <ele>24.649999999999999</ele>
        <time>2019-09-04T09:32:31Z</time>
      </trkpt>
      <trkpt lat="57.605894962325692" lon="-5.306425988674164">
        <ele>27.530000000000001</ele>
        <time>2019-09-04T09:32:38Z</time>
      </trkpt>
      <trkpt lat="57.605332033708692" lon="-5.305394008755684">
        <ele>29.460000000000001</ele>
        <time>2019-09-04T09:32:47Z</time>
      </trkpt>
      <trkpt lat="57.604945041239262" lon="-5.304573001340032">
        <ele>30.420000000000002</ele>
        <time>2019-09-04T09:32:55Z</time>
      </trkpt>
      <trkpt lat="57.604588977992535" lon="-5.303628025576472">
        <ele>30.899999999999999</ele>
        <time>2019-09-04T09:33:02Z</time>
      </trkpt>
      <trkpt lat="57.604565005749464" lon="-5.30353800393641">
        <ele>30.420000000000002</ele>
        <time>2019-09-04T09:33:03Z</time>
      </trkpt>
      <trkpt lat="57.604543967172503" lon="-5.303456028923392">
        <ele>30.420000000000002</ele>
        <time>2019-09-04T09:33:04Z</time>
      </trkpt>
      <trkpt lat="57.60447196662426" lon="-5.303387967869639">
        <ele>30.420000000000002</ele>
        <time>2019-09-04T09:33:05Z</time>
      </trkpt>
      <trkpt lat="57.604437014088035" lon="-5.303418980911374">
        <ele>30.420000000000002</ele>
        <time>2019-09-04T09:33:06Z</time>
      </trkpt>
      <trkpt lat="57.604388985782862" lon="-5.303460974246264">
        <ele>30.420000000000002</ele>
        <time>2019-09-04T09:33:07Z</time>
      </trkpt>
      <trkpt lat="57.604330983012915" lon="-5.303511014208198">
        <ele>30.420000000000002</ele>
        <time>2019-09-04T09:33:08Z</time>
      </trkpt>
      <trkpt lat="57.604267029091716" lon="-5.303568011149764">
        <ele>30.899999999999999</ele>
        <time>2019-09-04T09:33:09Z</time>
      </trkpt>
      <trkpt lat="57.604194022715092" lon="-5.303630959242582">
        <ele>30.899999999999999</ele>
        <time>2019-09-04T09:33:10Z</time>
      </trkpt>
      <trkpt lat="57.603443004190922" lon="-5.304255997762084">
        <ele>29.940000000000001</ele>
        <time>2019-09-04T09:33:18Z</time>
      </trkpt>
      <trkpt lat="57.603092975914478" lon="-5.304541988298297">
        <ele>28.5</ele>
        <time>2019-09-04T09:33:26Z</time>
      </trkpt>
      <trkpt lat="57.602927014231682" lon="-5.304675009101629">
        <ele>28.5</ele>
        <time>2019-09-04T09:33:32Z</time>
      </trkpt>
      <trkpt lat="57.602961966767907" lon="-5.304714990779758">
        <ele>28.5</ele>
        <time>2019-09-04T09:33:33Z</time>
      </trkpt>
      <trkpt lat="57.602974958717823" lon="-5.304771987721324">
        <ele>28.98</ele>
        <time>2019-09-04T09:33:34Z</time>
      </trkpt>
      <trkpt lat="57.60298702865839" lon="-5.304826973006129">
        <ele>29.460000000000001</ele>
        <time>2019-09-04T09:33:35Z</time>
      </trkpt>
      <trkpt lat="57.602994991466403" lon="-5.304867038503289">
        <ele>29.460000000000001</ele>
        <time>2019-09-04T09:33:36Z</time>
      </trkpt>
      <trkpt lat="57.603003960102797" lon="-5.304906014353037">
        <ele>29.460000000000001</ele>
        <time>2019-09-04T09:33:37Z</time>
      </trkpt>
      <trkpt lat="57.603012006729841" lon="-5.304941972717643">
        <ele>29.460000000000001</ele>
        <time>2019-09-04T09:33:38Z</time>
      </trkpt>
      <trkpt lat="57.603019969537854" lon="-5.3049770090729">
        <ele>29.460000000000001</ele>
        <time>2019-09-04T09:33:39Z</time>
      </trkpt>
      <trkpt lat="57.603027010336518" lon="-5.305012967437506">
        <ele>29.460000000000001</ele>
        <time>2019-09-04T09:33:40Z</time>
      </trkpt>
      <trkpt lat="57.603034973144531" lon="-5.305046997964382">
        <ele>29.460000000000001</ele>
        <time>2019-09-04T09:33:41Z</time>
      </trkpt>
      <trkpt lat="57.603042013943195" lon="-5.305078011006117">
        <ele>29.460000000000001</ele>
        <time>2019-09-04T09:33:42Z</time>
      </trkpt>
      <trkpt lat="57.603047965094447" lon="-5.30510600656271">
        <ele>29.460000000000001</ele>
        <time>2019-09-04T09:33:43Z</time>
      </trkpt>
      <trkpt lat="57.60305299423635" lon="-5.3051289729774">
        <ele>29.460000000000001</ele>
        <time>2019-09-04T09:33:44Z</time>
      </trkpt>
      <trkpt lat="57.602829029783607" lon="-5.305271968245506">
        <ele>29.460000000000001</ele>
        <time>2019-09-04T09:33:53Z</time>
      </trkpt>
      <trkpt lat="57.602702965959907" lon="-5.305003998801112">
        <ele>30.899999999999999</ele>
        <time>2019-09-04T09:34:02Z</time>
      </trkpt>
      <trkpt lat="57.604939006268978" lon="-5.304833007976413">
        <ele>19.84</ele>
        <time>2019-09-04T10:23:15Z</time>
      </trkpt>
      <trkpt lat="57.605030033737421" lon="-5.304904002696276">
        <ele>31.379999999999999</ele>
        <time>2019-09-04T10:23:18Z</time>
      </trkpt>
      <trkpt lat="57.604982005432248" lon="-5.305088991299272">
        <ele>31.379999999999999</ele>
        <time>2019-09-04T10:23:27Z</time>
      </trkpt>
      <trkpt lat="57.605070015415549" lon="-5.304837031289935">
        <ele>31.859999999999999</ele>
        <time>2019-09-04T10:23:30Z</time>
      </trkpt>
      <trkpt lat="57.604885026812553" lon="-5.304947001859546">
        <ele>28.5</ele>
        <time>2019-09-04T10:23:43Z</time>
      </trkpt>
      <trkpt lat="57.604999020695686" lon="-5.304686995223165">
        <ele>27.530000000000001</ele>
        <time>2019-09-04T10:23:48Z</time>
      </trkpt>
      <trkpt lat="57.604927020147443" lon="-5.304527990520001">
        <ele>29.940000000000001</ele>
        <time>2019-09-04T10:24:00Z</time>
      </trkpt>
      <trkpt lat="57.60490003041923" lon="-5.30446202494204">
        <ele>29.940000000000001</ele>
        <time>2019-09-04T10:24:01Z</time>
      </trkpt>
      <trkpt lat="57.60485895909369" lon="-5.304363034665585">
        <ele>29.940000000000001</ele>
        <time>2019-09-04T10:24:02Z</time>
      </trkpt>
      <trkpt lat="57.604700038209558" lon="-5.303976964205504">
        <ele>29.940000000000001</ele>
        <time>2019-09-04T10:24:05Z</time>
      </trkpt>
      <trkpt lat="57.604644969105721" lon="-5.303843021392822">
        <ele>29.460000000000001</ele>
        <time>2019-09-04T10:24:06Z</time>
      </trkpt>
      <trkpt lat="57.604573974385858" lon="-5.303569016978145">
        <ele>29.460000000000001</ele>
        <time>2019-09-04T10:24:08Z</time>
      </trkpt>
      <trkpt lat="57.604547990486026" lon="-5.303471032530069">
        <ele>29.460000000000001</ele>
        <time>2019-09-04T10:24:09Z</time>
      </trkpt>
      <trkpt lat="57.604528963565826" lon="-5.303399031981826">
        <ele>29.460000000000001</ele>
        <time>2019-09-04T10:24:10Z</time>
      </trkpt>
      <trkpt lat="57.604528963565826" lon="-5.303399031981826">
        <ele>29.460000000000001</ele>
        <time>2019-09-04T10:24:11Z</time>
      </trkpt>
      <trkpt lat="57.604490993544459" lon="-5.303371958434582">
        <ele>29.460000000000001</ele>
        <time>2019-09-04T10:24:12Z</time>
      </trkpt>
      <trkpt lat="57.604445982724428" lon="-5.303411018103361">
        <ele>29.940000000000001</ele>
        <time>2019-09-04T10:24:13Z</time>
      </trkpt>
      <trkpt lat="57.604387979954481" lon="-5.303460974246264">
        <ele>29.940000000000001</ele>
        <time>2019-09-04T10:24:14Z</time>
      </trkpt>
      <trkpt lat="57.604323020204902" lon="-5.30351797118783">
        <ele>29.940000000000001</ele>
        <time>2019-09-04T10:24:15Z</time>
      </trkpt>
      <trkpt lat="57.603559009730816" lon="-5.304161030799151">
        <ele>31.859999999999999</ele>
        <time>2019-09-04T10:24:22Z</time>
      </trkpt>
      <trkpt lat="57.602663990110159" lon="-5.30487097799778">
        <ele>35.710000000000001</ele>
        <time>2019-09-04T10:24:32Z</time>
      </trkpt>
      <trkpt lat="57.601950019598007" lon="-5.305357966572046">
        <ele>36.189999999999998</ele>
        <time>2019-09-04T10:24:38Z</time>
      </trkpt>
      <trkpt lat="57.601721026003361" lon="-5.305397026240826">
        <ele>35.710000000000001</ele>
        <time>2019-09-04T10:24:40Z</time>
      </trkpt>
      <trkpt lat="57.600255031138659" lon="-5.305590983480215">
        <ele>35.229999999999997</ele>
        <time>2019-09-04T10:24:51Z</time>
      </trkpt>
      <trkpt lat="57.598273968324065" lon="-5.305802961811423">
        <ele>40.030000000000001</ele>
        <time>2019-09-04T10:25:04Z</time>
      </trkpt>
      <trkpt lat="57.596341017633677" lon="-5.30600999481976">
        <ele>39.549999999999997</ele>
        <time>2019-09-04T10:25:18Z</time>
      </trkpt>
      <trkpt lat="57.596218977123499" lon="-5.306079983711243">
        <ele>39.07</ele>
        <time>2019-09-04T10:25:19Z</time>
      </trkpt>
      <trkpt lat="57.596126021817327" lon="-5.306133041158319">
        <ele>38.590000000000003</ele>
        <time>2019-09-04T10:25:20Z</time>
      </trkpt>
      <trkpt lat="57.595632998272777" lon="-5.30656797811389">
        <ele>36.670000000000002</ele>
        <time>2019-09-04T10:25:25Z</time>
      </trkpt>
      <trkpt lat="57.59533803910017" lon="-5.306877018883824">
        <ele>35.710000000000001</ele>
        <time>2019-09-04T10:25:28Z</time>
      </trkpt>
      <trkpt lat="57.595229996368289" lon="-5.306990006938577">
        <ele>35.229999999999997</ele>
        <time>2019-09-04T10:25:29Z</time>
      </trkpt>
      <trkpt lat="57.595106028020382" lon="-5.307070976123214">
        <ele>34.740000000000002</ele>
        <time>2019-09-04T10:25:30Z</time>
      </trkpt>
      <trkpt lat="57.594164991751313" lon="-5.307446988299489">
        <ele>35.710000000000001</ele>
        <time>2019-09-04T10:25:38Z</time>
      </trkpt>
      <trkpt lat="57.594020990654826" lon="-5.307522006332874">
        <ele>36.189999999999998</ele>
        <time>2019-09-04T10:25:41Z</time>
      </trkpt>
      <trkpt lat="57.593940021470189" lon="-5.307570034638047">
        <ele>36.670000000000002</ele>
        <time>2019-09-04T10:25:42Z</time>
      </trkpt>
      <trkpt lat="57.59321398101747" lon="-5.308003965765238">
        <ele>38.109999999999999</ele>
        <time>2019-09-04T10:25:48Z</time>
      </trkpt>
      <trkpt lat="57.593095963820815" lon="-5.308074960485101">
        <ele>38.590000000000003</ele>
        <time>2019-09-04T10:25:49Z</time>
      </trkpt>
      <trkpt lat="57.591984020546079" lon="-5.308697987347841">
        <ele>44.840000000000003</ele>
        <time>2019-09-04T10:25:57Z</time>
      </trkpt>
      <trkpt lat="57.590588014572859" lon="-5.309277009218931">
        <ele>53.969999999999999</ele>
        <time>2019-09-04T10:26:08Z</time>
      </trkpt>
      <trkpt lat="57.588882967829704" lon="-5.309829963371158">
        <ele>58.780000000000001</ele>
        <time>2019-09-04T10:26:20Z</time>
      </trkpt>
      <trkpt lat="57.587672034278512" lon="-5.310221984982491">
        <ele>58.780000000000001</ele>
        <time>2019-09-04T10:26:29Z</time>
      </trkpt>
      <trkpt lat="57.587297027930617" lon="-5.310344025492668">
        <ele>60.219999999999999</ele>
        <time>2019-09-04T10:26:35Z</time>
      </trkpt>
      <trkpt lat="57.587146991863847" lon="-5.31039297580719">
        <ele>60.700000000000003</ele>
        <time>2019-09-04T10:26:36Z</time>
      </trkpt>
      <trkpt lat="57.586239986121655" lon="-5.310794971883297">
        <ele>63.100000000000001</ele>
        <time>2019-09-04T10:26:45Z</time>
      </trkpt>
      <trkpt lat="57.584886979311705" lon="-5.311436019837856">
        <ele>64.549999999999997</ele>
        <time>2019-09-04T10:26:57Z</time>
      </trkpt>
      <trkpt lat="57.583551993593574" lon="-5.312069021165371">
        <ele>65.510000000000005</ele>
        <time>2019-09-04T10:27:07Z</time>
      </trkpt>
      <trkpt lat="57.583190985023975" lon="-5.312274964526296">
        <ele>66.469999999999999</ele>
        <time>2019-09-04T10:27:10Z</time>
      </trkpt>
      <trkpt lat="57.581850970163941" lon="-5.313746994361281">
        <ele>69.349999999999994</ele>
        <time>2019-09-04T10:27:22Z</time>
      </trkpt>
      <trkpt lat="57.5805579777807" lon="-5.315276021137834">
        <ele>73.680000000000007</ele>
        <time>2019-09-04T10:27:32Z</time>
      </trkpt>
      <trkpt lat="57.579924976453185" lon="-5.316025028005242">
        <ele>77.519999999999996</ele>
        <time>2019-09-04T10:27:40Z</time>
      </trkpt>
      <trkpt lat="57.579364981502295" lon="-5.316687030717731">
        <ele>79.450000000000003</ele>
        <time>2019-09-04T10:27:48Z</time>
      </trkpt>
      <trkpt lat="57.578837005421519" lon="-5.317311985418201">
        <ele>79.450000000000003</ele>
        <time>2019-09-04T10:27:53Z</time>
      </trkpt>
      <trkpt lat="57.578837005421519" lon="-5.317311985418201">
        <ele>79.930000000000007</ele>
        <time>2019-09-04T10:27:54Z</time>
      </trkpt>
      <trkpt lat="57.578742960467935" lon="-5.317463027313352">
        <ele>79.930000000000007</ele>
        <time>2019-09-04T10:27:55Z</time>
      </trkpt>
      <trkpt lat="57.578096967190504" lon="-5.318839000537992">
        <ele>79.930000000000007</ele>
        <time>2019-09-04T10:28:02Z</time>
      </trkpt>
      <trkpt lat="57.57802102714777" lon="-5.319005968049169">
        <ele>79.930000000000007</ele>
        <time>2019-09-04T10:28:03Z</time>
      </trkpt>
      <trkpt lat="57.577157020568848" lon="-5.320912012830377">
        <ele>79.930000000000007</ele>
        <time>2019-09-04T10:28:13Z</time>
      </trkpt>
      <trkpt lat="57.576541034504771" lon="-5.322248004376888">
        <ele>79.930000000000007</ele>
        <time>2019-09-04T10:28:20Z</time>
      </trkpt>
      <trkpt lat="57.576056979596615" lon="-5.323006985709071">
        <ele>80.409999999999997</ele>
        <time>2019-09-04T10:28:26Z</time>
      </trkpt>
      <trkpt lat="57.575794039294124" lon="-5.323419962078333">
        <ele>79.450000000000003</ele>
        <time>2019-09-04T10:28:30Z</time>
      </trkpt>
      <trkpt lat="57.575612990185618" lon="-5.323725985363126">
        <ele>79.450000000000003</ele>
        <time>2019-09-04T10:28:31Z</time>
      </trkpt>
      <trkpt lat="57.57553000934422" lon="-5.323940981179476">
        <ele>78.969999999999999</ele>
        <time>2019-09-04T10:28:32Z</time>
      </trkpt>
      <trkpt lat="57.575455997139215" lon="-5.32418598420918">
        <ele>78.969999999999999</ele>
        <time>2019-09-04T10:28:33Z</time>
      </trkpt>
      <trkpt lat="57.57538097910583" lon="-5.324434004724026">
        <ele>78.969999999999999</ele>
        <time>2019-09-04T10:28:34Z</time>
      </trkpt>
      <trkpt lat="57.575308978557587" lon="-5.324674984440208">
        <ele>79.450000000000003</ele>
        <time>2019-09-04T10:28:35Z</time>
      </trkpt>
      <trkpt lat="57.574569024145603" lon="-5.326427975669503">
        <ele>83.290000000000006</ele>
        <time>2019-09-04T10:28:44Z</time>
      </trkpt>
      <trkpt lat="57.57351097650826" lon="-5.327860023826361">
        <ele>84.730000000000004</ele>
        <time>2019-09-04T10:28:53Z</time>
      </trkpt>
      <trkpt lat="57.5730150192976" lon="-5.328635014593601">
        <ele>85.689999999999998</ele>
        <time>2019-09-04T10:28:58Z</time>
      </trkpt>
      <trkpt lat="57.572931032627821" lon="-5.328797958791256">
        <ele>86.180000000000007</ele>
        <time>2019-09-04T10:28:59Z</time>
      </trkpt>
      <trkpt lat="57.572876969352365" lon="-5.328994011506438">
        <ele>86.659999999999997</ele>
        <time>2019-09-04T10:29:00Z</time>
      </trkpt>
      <trkpt lat="57.572818966582417" lon="-5.329206995666027">
        <ele>87.140000000000001</ele>
        <time>2019-09-04T10:29:01Z</time>
      </trkpt>
      <trkpt lat="57.572788959369063" lon="-5.329450992867351">
        <ele>87.620000000000005</ele>
        <time>2019-09-04T10:29:02Z</time>
      </trkpt>
      <trkpt lat="57.572772027924657" lon="-5.329701025038958">
        <ele>87.620000000000005</ele>
        <time>2019-09-04T10:29:03Z</time>
      </trkpt>
      <trkpt lat="57.572701033204794" lon="-5.330425975844264">
        <ele>89.540000000000006</ele>
        <time>2019-09-04T10:29:07Z</time>
      </trkpt>
      <trkpt lat="57.572144977748394" lon="-5.33262899145484">
        <ele>93.870000000000005</ele>
        <time>2019-09-04T10:29:15Z</time>
      </trkpt>
      <trkpt lat="57.571742981672287" lon="-5.334441997110844">
        <ele>98.189999999999998</ele>
        <time>2019-09-04T10:29:23Z</time>
      </trkpt>
      <trkpt lat="57.571272002533078" lon="-5.336498999968171">
        <ele>102.04000000000001</ele>
        <time>2019-09-04T10:29:32Z</time>
      </trkpt>
      <trkpt lat="57.570729022845626" lon="-5.338028026744723">
        <ele>103.95999999999999</ele>
        <time>2019-09-04T10:29:39Z</time>
      </trkpt>
      <trkpt lat="57.569851018488407" lon="-5.34002099186182">
        <ele>105.88</ele>
        <time>2019-09-04T10:29:49Z</time>
      </trkpt>
      <trkpt lat="57.568843010812998" lon="-5.342546040192246">
        <ele>105.88</ele>
        <time>2019-09-04T10:30:00Z</time>
      </trkpt>
      <trkpt lat="57.568079000338912" lon="-5.344689963385463">
        <ele>106.36</ele>
        <time>2019-09-04T10:30:10Z</time>
      </trkpt>
      <trkpt lat="57.567693013697863" lon="-5.345531003549695">
        <ele>107.31999999999999</ele>
        <time>2019-09-04T10:30:16Z</time>
      </trkpt>
      <trkpt lat="57.56682900711894" lon="-5.347519023343921">
        <ele>108.29000000000001</ele>
        <time>2019-09-04T10:30:26Z</time>
      </trkpt>
      <trkpt lat="57.566602025181055" lon="-5.348740015178919">
        <ele>110.20999999999999</ele>
        <time>2019-09-04T10:30:32Z</time>
      </trkpt>
      <trkpt lat="57.56659003905952" lon="-5.348928021267057">
        <ele>110.69</ele>
        <time>2019-09-04T10:30:33Z</time>
      </trkpt>
      <trkpt lat="57.566576041281223" lon="-5.349122984334827">
        <ele>110.69</ele>
        <time>2019-09-04T10:30:34Z</time>
      </trkpt>
      <trkpt lat="57.566734040156007" lon="-5.35095602273941">
        <ele>110.69</ele>
        <time>2019-09-04T10:30:43Z</time>
      </trkpt>
      <trkpt lat="57.567317001521587" lon="-5.352796018123627">
        <ele>111.17</ele>
        <time>2019-09-04T10:30:52Z</time>
      </trkpt>
      <trkpt lat="57.567337034270167" lon="-5.353000033646822">
        <ele>110.69</ele>
        <time>2019-09-04T10:30:53Z</time>
      </trkpt>
      <trkpt lat="57.567346002906561" lon="-5.353201031684876">
        <ele>111.17</ele>
        <time>2019-09-04T10:30:54Z</time>
      </trkpt>
      <trkpt lat="57.567333010956645" lon="-5.353398006409407">
        <ele>111.17</ele>
        <time>2019-09-04T10:30:55Z</time>
      </trkpt>
      <trkpt lat="57.567290011793375" lon="-5.353572014719248">
        <ele>111.65000000000001</ele>
        <time>2019-09-04T10:30:56Z</time>
      </trkpt>
      <trkpt lat="57.567234020680189" lon="-5.353745017200708">
        <ele>111.65000000000001</ele>
        <time>2019-09-04T10:30:57Z</time>
      </trkpt>
      <trkpt lat="57.567165959626436" lon="-5.353911984711886">
        <ele>112.13</ele>
        <time>2019-09-04T10:30:58Z</time>
      </trkpt>
      <trkpt lat="57.566868988797069" lon="-5.354634001851082">
        <ele>111.65000000000001</ele>
        <time>2019-09-04T10:31:03Z</time>
      </trkpt>
      <trkpt lat="57.566748959943652" lon="-5.355042032897472">
        <ele>111.65000000000001</ele>
        <time>2019-09-04T10:31:04Z</time>
      </trkpt>
      <trkpt lat="57.566717024892569" lon="-5.355273960158229">
        <ele>111.65000000000001</ele>
        <time>2019-09-04T10:31:05Z</time>
      </trkpt>
      <trkpt lat="57.566500017419457" lon="-5.356878004968166">
        <ele>109.25</ele>
        <time>2019-09-04T10:31:13Z</time>
      </trkpt>
      <trkpt lat="57.566260965541005" lon="-5.358468974009156">
        <ele>105.88</ele>
        <time>2019-09-04T10:31:20Z</time>
      </trkpt>
      <trkpt lat="57.566200029104948" lon="-5.358743984252214">
        <ele>105.88</ele>
        <time>2019-09-04T10:31:22Z</time>
      </trkpt>
      <trkpt lat="57.565804990008473" lon="-5.359975034371018">
        <ele>106.36</ele>
        <time>2019-09-04T10:31:28Z</time>
      </trkpt>
      <trkpt lat="57.565715974196792" lon="-5.3602350410074">
        <ele>105.88</ele>
        <time>2019-09-04T10:31:30Z</time>
      </trkpt>
      <trkpt lat="57.565361000597477" lon="-5.361502971500158">
        <ele>104.44</ele>
        <time>2019-09-04T10:31:36Z</time>
      </trkpt>
      <trkpt lat="57.564949030056596" lon="-5.363802965730429">
        <ele>102.52</ele>
        <time>2019-09-04T10:31:45Z</time>
      </trkpt>
      <trkpt lat="57.56489303894341" lon="-5.364034976810217">
        <ele>102.04000000000001</ele>
        <time>2019-09-04T10:31:46Z</time>
      </trkpt>
      <trkpt lat="57.564825983718038" lon="-5.364247038960457">
        <ele>102.04000000000001</ele>
        <time>2019-09-04T10:31:47Z</time>
      </trkpt>
      <trkpt lat="57.564758006483316" lon="-5.364452982321382">
        <ele>102.04000000000001</ele>
        <time>2019-09-04T10:31:48Z</time>
      </trkpt>
      <trkpt lat="57.564675025641918" lon="-5.364644005894661">
        <ele>101.56</ele>
        <time>2019-09-04T10:31:49Z</time>
      </trkpt>
      <trkpt lat="57.564581986516714" lon="-5.364833017811179">
        <ele>101.56</ele>
        <time>2019-09-04T10:31:50Z</time>
      </trkpt>
      <trkpt lat="57.563729966059327" lon="-5.366791030392051">
        <ele>102.52</ele>
        <time>2019-09-04T10:32:00Z</time>
      </trkpt>
      <trkpt lat="57.56366902962327" lon="-5.366968978196383">
        <ele>102.04000000000001</ele>
        <time>2019-09-04T10:32:02Z</time>
      </trkpt>
      <trkpt lat="57.563634999096394" lon="-5.367122031748295">
        <ele>101.56</ele>
        <time>2019-09-04T10:32:03Z</time>
      </trkpt>
      <trkpt lat="57.563622007146478" lon="-5.36730500869453">
        <ele>101.56</ele>
        <time>2019-09-04T10:32:04Z</time>
      </trkpt>
      <trkpt lat="57.563511030748487" lon="-5.369394030421972">
        <ele>97.709999999999994</ele>
        <time>2019-09-04T10:32:11Z</time>
      </trkpt>
      <trkpt lat="57.563544977456331" lon="-5.370923979207873">
        <ele>97.230000000000004</ele>
        <time>2019-09-04T10:32:17Z</time>
      </trkpt>
      <trkpt lat="57.563584959134459" lon="-5.3711730055511">
        <ele>97.230000000000004</ele>
        <time>2019-09-04T10:32:18Z</time>
      </trkpt>
      <trkpt lat="57.563624018803239" lon="-5.371417002752423">
        <ele>97.709999999999994</ele>
        <time>2019-09-04T10:32:19Z</time>
      </trkpt>
      <trkpt lat="57.563662994652987" lon="-5.371654964983463">
        <ele>97.709999999999994</ele>
        <time>2019-09-04T10:32:20Z</time>
      </trkpt>
      <trkpt lat="57.563747987151146" lon="-5.371849006041884">
        <ele>98.189999999999998</ele>
        <time>2019-09-04T10:32:22Z</time>
      </trkpt>
      <trkpt lat="57.563923001289368" lon="-5.37224899046123">
        <ele>99.150000000000006</ele>
        <time>2019-09-04T10:32:23Z</time>
      </trkpt>
      <trkpt lat="57.564859008416533" lon="-5.373800983652473">
        <ele>106.36</ele>
        <time>2019-09-04T10:32:33Z</time>
      </trkpt>
      <trkpt lat="57.565051037818193" lon="-5.374088985845447">
        <ele>107.81</ele>
        <time>2019-09-04T10:32:35Z</time>
      </trkpt>
      <trkpt lat="57.565148016437888" lon="-5.374242961406708">
        <ele>108.29000000000001</ele>
        <time>2019-09-04T10:32:37Z</time>
      </trkpt>
      <trkpt lat="57.565276008099318" lon="-5.374668007716537">
        <ele>108.29000000000001</ele>
        <time>2019-09-04T10:32:38Z</time>
      </trkpt>
      <trkpt lat="57.56530400365591" lon="-5.374913010746241">
        <ele>108.77</ele>
        <time>2019-09-04T10:32:39Z</time>
      </trkpt>
      <trkpt lat="57.565330993384123" lon="-5.375161031261087">
        <ele>109.25</ele>
        <time>2019-09-04T10:32:40Z</time>
      </trkpt>
      <trkpt lat="57.565358988940716" lon="-5.375410979613662">
        <ele>109.25</ele>
        <time>2019-09-04T10:32:41Z</time>
      </trkpt>
      <trkpt lat="57.565376004204154" lon="-5.375657994300127">
        <ele>109.25</ele>
        <time>2019-09-04T10:32:42Z</time>
      </trkpt>
      <trkpt lat="57.565369969233871" lon="-5.375912971794605">
        <ele>109.73</ele>
        <time>2019-09-04T10:32:43Z</time>
      </trkpt>
      <trkpt lat="57.565365023910999" lon="-5.376166021451354">
        <ele>110.20999999999999</ele>
        <time>2019-09-04T10:32:44Z</time>
      </trkpt>
      <trkpt lat="57.565359994769096" lon="-5.376424016430974">
        <ele>110.69</ele>
        <time>2019-09-04T10:32:45Z</time>
      </trkpt>
      <trkpt lat="57.565343985334039" lon="-5.376686034724116">
        <ele>110.69</ele>
        <time>2019-09-04T10:32:46Z</time>
      </trkpt>
      <trkpt lat="57.565343985334039" lon="-5.376686034724116">
        <ele>111.17</ele>
        <time>2019-09-04T10:32:47Z</time>
      </trkpt>
      <trkpt lat="57.565020024776459" lon="-5.379129024222493">
        <ele>112.13</ele>
        <time>2019-09-04T10:32:56Z</time>
      </trkpt>
      <trkpt lat="57.564901001751423" lon="-5.382491005584598">
        <ele>105.40000000000001</ele>
        <time>2019-09-04T10:33:07Z</time>
      </trkpt>
      <trkpt lat="57.564667984843254" lon="-5.384695027023554">
        <ele>104.44</ele>
        <time>2019-09-04T10:33:15Z</time>
      </trkpt>
      <trkpt lat="57.564608976244926" lon="-5.384928965941072">
        <ele>104.92</ele>
        <time>2019-09-04T10:33:16Z</time>
      </trkpt>
      <trkpt lat="57.563929958269" lon="-5.386769967153668">
        <ele>103</ele>
        <time>2019-09-04T10:33:25Z</time>
      </trkpt>
      <trkpt lat="57.563115991652012" lon="-5.388976000249386">
        <ele>97.709999999999994</ele>
        <time>2019-09-04T10:33:34Z</time>
      </trkpt>
      <trkpt lat="57.562004970386624" lon="-5.391989964991808">
        <ele>96.269999999999996</ele>
        <time>2019-09-04T10:33:46Z</time>
      </trkpt>
      <trkpt lat="57.561096958816051" lon="-5.394030036404729">
        <ele>93.390000000000001</ele>
        <time>2019-09-04T10:33:55Z</time>
      </trkpt>
      <trkpt lat="57.560844998806715" lon="-5.394317032769322">
        <ele>93.390000000000001</ele>
        <time>2019-09-04T10:33:57Z</time>
      </trkpt>
      <trkpt lat="57.560725975781679" lon="-5.394448963925242">
        <ele>93.390000000000001</ele>
        <time>2019-09-04T10:33:58Z</time>
      </trkpt>
      <trkpt lat="57.560609970241785" lon="-5.394558012485504">
        <ele>93.390000000000001</ele>
        <time>2019-09-04T10:33:59Z</time>
      </trkpt>
      <trkpt lat="57.560278968885541" lon="-5.39482899941504">
        <ele>93.870000000000005</ele>
        <time>2019-09-04T10:34:02Z</time>
      </trkpt>
      <trkpt lat="57.560177966952324" lon="-5.394936958327889">
        <ele>93.870000000000005</ele>
        <time>2019-09-04T10:34:03Z</time>
      </trkpt>
      <trkpt lat="57.560177966952324" lon="-5.394936958327889">
        <ele>93.870000000000005</ele>
        <time>2019-09-04T10:34:04Z</time>
      </trkpt>
      <trkpt lat="57.559944028034806" lon="-5.395458983257413">
        <ele>93.870000000000005</ele>
        <time>2019-09-04T10:34:06Z</time>
      </trkpt>
      <trkpt lat="57.559873033314943" lon="-5.395671967417002">
        <ele>94.349999999999994</ele>
        <time>2019-09-04T10:34:07Z</time>
      </trkpt>
      <trkpt lat="57.559873033314943" lon="-5.395671967417002">
        <ele>94.349999999999994</ele>
        <time>2019-09-04T10:34:08Z</time>
      </trkpt>
      <trkpt lat="57.558906013146043" lon="-5.398345962166786">
        <ele>91.459999999999994</ele>
        <time>2019-09-04T10:34:20Z</time>
      </trkpt>
      <trkpt lat="57.558557996526361" lon="-5.399088012054563">
        <ele>90.980000000000004</ele>
        <time>2019-09-04T10:34:25Z</time>
      </trkpt>
      <trkpt lat="57.557582007721066" lon="-5.400485023856163">
        <ele>91.459999999999994</ele>
        <time>2019-09-04T10:34:34Z</time>
      </trkpt>
      <trkpt lat="57.557515036314726" lon="-5.400674035772681">
        <ele>91.459999999999994</ele>
        <time>2019-09-04T10:34:36Z</time>
      </trkpt>
      <trkpt lat="57.557389978319407" lon="-5.401074020192027">
        <ele>91.459999999999994</ele>
        <time>2019-09-04T10:34:38Z</time>
      </trkpt>
      <trkpt lat="57.557257963344455" lon="-5.401433017104864">
        <ele>91.459999999999994</ele>
        <time>2019-09-04T10:34:39Z</time>
      </trkpt>
      <trkpt lat="57.556849010288715" lon="-5.402406994253397">
        <ele>91.939999999999998</ele>
        <time>2019-09-04T10:34:45Z</time>
      </trkpt>
      <trkpt lat="57.556849010288715" lon="-5.402406994253397">
        <ele>91.939999999999998</ele>
        <time>2019-09-04T10:34:46Z</time>
      </trkpt>
      <trkpt lat="57.556796036660671" lon="-5.402564993128181">
        <ele>91.939999999999998</ele>
        <time>2019-09-04T10:34:47Z</time>
      </trkpt>
      <trkpt lat="57.556748008355498" lon="-5.402975035831332">
        <ele>91.939999999999998</ele>
        <time>2019-09-04T10:34:48Z</time>
      </trkpt>
      <trkpt lat="57.556720012798905" lon="-5.403195982798934">
        <ele>91.939999999999998</ele>
        <time>2019-09-04T10:34:49Z</time>
      </trkpt>
      <trkpt lat="57.556720012798905" lon="-5.403195982798934">
        <ele>91.939999999999998</ele>
        <time>2019-09-04T10:34:50Z</time>
      </trkpt>
      <trkpt lat="57.55668698810041" lon="-5.403421958908439">
        <ele>91.939999999999998</ele>
        <time>2019-09-04T10:34:51Z</time>
      </trkpt>
      <trkpt lat="57.556621022522449" lon="-5.403877012431622">
        <ele>91.939999999999998</ele>
        <time>2019-09-04T10:34:52Z</time>
      </trkpt>
      <trkpt lat="57.556551033630967" lon="-5.404352014884353">
        <ele>91.939999999999998</ele>
        <time>2019-09-04T10:34:54Z</time>
      </trkpt>
      <trkpt lat="57.556479033082724" lon="-5.404846966266632">
        <ele>91.459999999999994</ele>
        <time>2019-09-04T10:34:56Z</time>
      </trkpt>
      <trkpt lat="57.556456988677382" lon="-5.405104039236903">
        <ele>90.980000000000004</ele>
        <time>2019-09-04T10:34:57Z</time>
      </trkpt>
      <trkpt lat="57.556479033082724" lon="-5.40533596649766">
        <ele>90.980000000000004</ele>
        <time>2019-09-04T10:34:58Z</time>
      </trkpt>
      <trkpt lat="57.556507028639317" lon="-5.405559008941054">
        <ele>90.5</ele>
        <time>2019-09-04T10:34:59Z</time>
      </trkpt>
      <trkpt lat="57.556548016145825" lon="-5.405779033899307">
        <ele>90.5</ele>
        <time>2019-09-04T10:35:01Z</time>
      </trkpt>
      <trkpt lat="57.556590009480715" lon="-5.40600199252367">
        <ele>90.019999999999996</ele>
        <time>2019-09-04T10:35:02Z</time>
      </trkpt>
      <trkpt lat="57.556633008643985" lon="-5.406229980289936">
        <ele>90.019999999999996</ele>
        <time>2019-09-04T10:35:03Z</time>
      </trkpt>
      <trkpt lat="57.556667039170861" lon="-5.406927019357681">
        <ele>90.019999999999996</ele>
        <time>2019-09-04T10:35:05Z</time>
      </trkpt>
      <trkpt lat="57.556667039170861" lon="-5.406927019357681">
        <ele>89.540000000000006</ele>
        <time>2019-09-04T10:35:06Z</time>
      </trkpt>
      <trkpt lat="57.556637031957507" lon="-5.407434040680528">
        <ele>89.540000000000006</ele>
        <time>2019-09-04T10:35:07Z</time>
      </trkpt>
      <trkpt lat="57.556164041161537" lon="-5.409816009923816">
        <ele>88.099999999999994</ele>
        <time>2019-09-04T10:35:16Z</time>
      </trkpt>
      <trkpt lat="57.555689960718155" lon="-5.412461003288627">
        <ele>86.659999999999997</ele>
        <time>2019-09-04T10:35:27Z</time>
      </trkpt>
      <trkpt lat="57.555383015424013" lon="-5.413679983466864">
        <ele>86.180000000000007</ele>
        <time>2019-09-04T10:35:35Z</time>
      </trkpt>
      <trkpt lat="57.555260974913836" lon="-5.414023976773024">
        <ele>85.689999999999998</ele>
        <time>2019-09-04T10:35:38Z</time>
      </trkpt>
      <trkpt lat="57.555227028205991" lon="-5.41412103921175">
        <ele>85.209999999999994</ele>
        <time>2019-09-04T10:35:39Z</time>
      </trkpt>
      <trkpt lat="57.555197020992637" lon="-5.414203014224768">
        <ele>84.730000000000004</ele>
        <time>2019-09-04T10:35:40Z</time>
      </trkpt>
      <trkpt lat="57.555175982415676" lon="-5.414262022823095">
        <ele>84.730000000000004</ele>
        <time>2019-09-04T10:35:41Z</time>
      </trkpt>
      <trkpt lat="57.555159972980618" lon="-5.414307033643127">
        <ele>84.25</ele>
        <time>2019-09-04T10:35:42Z</time>
      </trkpt>
      <trkpt lat="57.555272961035371" lon="-5.414793016389012">
        <ele>84.730000000000004</ele>
        <time>2019-09-04T10:35:48Z</time>
      </trkpt>
      <trkpt lat="57.555251000449061" lon="-5.415040031075478">
        <ele>86.659999999999997</ele>
        <time>2019-09-04T10:35:53Z</time>
      </trkpt>
      <trkpt lat="57.555244965478778" lon="-5.415131980553269">
        <ele>87.140000000000001</ele>
        <time>2019-09-04T10:36:05Z</time>
      </trkpt>
      <trkpt lat="57.555237002670765" lon="-5.415134998038411">
        <ele>87.620000000000005</ele>
        <time>2019-09-04T10:36:21Z</time>
      </trkpt>
      <trkpt lat="57.55520498380065" lon="-5.41502402164042">
        <ele>89.060000000000002</ele>
        <time>2019-09-04T10:36:26Z</time>
      </trkpt>
      <trkpt lat="57.555214958265424" lon="-5.414995020255446">
        <ele>89.060000000000002</ele>
        <time>2019-09-04T10:36:27Z</time>
      </trkpt>
      <trkpt lat="57.555298022925854" lon="-5.414888989180327">
        <ele>86.659999999999997</ele>
        <time>2019-09-04T10:36:41Z</time>
      </trkpt>
      <trkpt lat="57.555284025147557" lon="-5.414864011108875">
        <ele>86.659999999999997</ele>
        <time>2019-09-04T10:36:54Z</time>
      </trkpt>
      <trkpt lat="57.55531202070415" lon="-5.414803996682167">
        <ele>94.349999999999994</ele>
        <time>2019-09-04T10:41:29Z</time>
      </trkpt>
      <trkpt lat="57.555301040410995" lon="-5.414835009723902">
        <ele>89.060000000000002</ele>
        <time>2019-09-04T10:42:09Z</time>
      </trkpt>
      <trkpt lat="57.555274972692132" lon="-5.414836015552282">
        <ele>89.540000000000006</ele>
        <time>2019-09-04T10:42:32Z</time>
      </trkpt>
      <trkpt lat="57.555180005729198" lon="-5.41425196453929">
        <ele>89.060000000000002</ele>
        <time>2019-09-04T10:42:40Z</time>
      </trkpt>
      <trkpt lat="57.555172964930534" lon="-5.414270991459489">
        <ele>88.579999999999998</ele>
        <time>2019-09-04T10:42:43Z</time>
      </trkpt>
      <trkpt lat="57.555158967152238" lon="-5.414310973137617">
        <ele>88.099999999999994</ele>
        <time>2019-09-04T10:42:44Z</time>
      </trkpt>
      <trkpt lat="57.555141029879451" lon="-5.414360007271171">
        <ele>88.099999999999994</ele>
        <time>2019-09-04T10:42:45Z</time>
      </trkpt>
      <trkpt lat="57.555123008787632" lon="-5.414412980899215">
        <ele>88.099999999999994</ele>
        <time>2019-09-04T10:42:46Z</time>
      </trkpt>
      <trkpt lat="57.555099036544561" lon="-5.414479030296207">
        <ele>87.620000000000005</ele>
        <time>2019-09-04T10:42:47Z</time>
      </trkpt>
      <trkpt lat="57.555072968825698" lon="-5.414524041116238">
        <ele>87.620000000000005</ele>
        <time>2019-09-04T10:42:48Z</time>
      </trkpt>
      <trkpt lat="57.554835006594658" lon="-5.414930982515216">
        <ele>87.140000000000001</ele>
        <time>2019-09-04T10:42:54Z</time>
      </trkpt>
      <trkpt lat="57.554557984694839" lon="-5.415406990796328">
        <ele>87.140000000000001</ele>
        <time>2019-09-04T10:43:00Z</time>
      </trkpt>
      <trkpt lat="57.55449797026813" lon="-5.415508998557925">
        <ele>87.140000000000001</ele>
        <time>2019-09-04T10:43:01Z</time>
      </trkpt>
      <trkpt lat="57.554469974711537" lon="-5.415645036846399">
        <ele>87.140000000000001</ele>
        <time>2019-09-04T10:43:02Z</time>
      </trkpt>
      <trkpt lat="57.554404009133577" lon="-5.415961034595966">
        <ele>86.659999999999997</ele>
        <time>2019-09-04T10:43:04Z</time>
      </trkpt>
      <trkpt lat="57.554366961121559" lon="-5.416136970743537">
        <ele>86.659999999999997</ele>
        <time>2019-09-04T10:43:05Z</time>
      </trkpt>
      <trkpt lat="57.554326979443431" lon="-5.416330005973578">
        <ele>86.659999999999997</ele>
        <time>2019-09-04T10:43:06Z</time>
      </trkpt>
      <trkpt lat="57.554284986108541" lon="-5.416532009840012">
        <ele>86.180000000000007</ele>
        <time>2019-09-04T10:43:07Z</time>
      </trkpt>
      <trkpt lat="57.55423997528851" lon="-5.416745999827981">
        <ele>85.689999999999998</ele>
        <time>2019-09-04T10:43:08Z</time>
      </trkpt>
      <trkpt lat="57.554197981953621" lon="-5.416945992037654">
        <ele>85.209999999999994</ele>
        <time>2019-09-04T10:43:09Z</time>
      </trkpt>
      <trkpt lat="57.553511001169682" lon="-5.419006012380123">
        <ele>81.849999999999994</ele>
        <time>2019-09-04T10:43:18Z</time>
      </trkpt>
      <trkpt lat="57.553469007834792" lon="-5.419298959895968">
        <ele>81.370000000000005</ele>
        <time>2019-09-04T10:43:19Z</time>
      </trkpt>
      <trkpt lat="57.553043039515615" lon="-5.421244986355305">
        <ele>78</ele>
        <time>2019-09-04T10:43:26Z</time>
      </trkpt>
      <trkpt lat="57.553046979010105" lon="-5.421433998271823">
        <ele>78</ele>
        <time>2019-09-04T10:43:27Z</time>
      </trkpt>
      <trkpt lat="57.55305603146553" lon="-5.421629967167974">
        <ele>78</ele>
        <time>2019-09-04T10:43:28Z</time>
      </trkpt>
      <trkpt lat="57.553083021193743" lon="-5.421820990741253">
        <ele>78</ele>
        <time>2019-09-04T10:43:29Z</time>
      </trkpt>
      <trkpt lat="57.553132977336645" lon="-5.422018971294165">
        <ele>78</ele>
        <time>2019-09-04T10:43:30Z</time>
      </trkpt>
      <trkpt lat="57.553447969257832" lon="-5.423672972247005">
        <ele>77.040000000000006</ele>
        <time>2019-09-04T10:43:36Z</time>
      </trkpt>
      <trkpt lat="57.553477976471186" lon="-5.423969021067023">
        <ele>76.560000000000002</ele>
        <time>2019-09-04T10:43:37Z</time>
      </trkpt>
      <trkpt lat="57.553474036976695" lon="-5.424266997724772">
        <ele>76.560000000000002</ele>
        <time>2019-09-04T10:43:38Z</time>
      </trkpt>
      <trkpt lat="57.553446963429451" lon="-5.424547959119082">
        <ele>76.560000000000002</ele>
        <time>2019-09-04T10:43:39Z</time>
      </trkpt>
      <trkpt lat="57.553420979529619" lon="-5.424825986847282">
        <ele>76.079999999999998</ele>
        <time>2019-09-04T10:43:40Z</time>
      </trkpt>
      <trkpt lat="57.553396001458168" lon="-5.425094962120056">
        <ele>75.599999999999994</ele>
        <time>2019-09-04T10:43:41Z</time>
      </trkpt>
      <trkpt lat="57.55314202979207" lon="-5.427039982751012">
        <ele>71.760000000000005</ele>
        <time>2019-09-04T10:43:49Z</time>
      </trkpt>
      <trkpt lat="57.553102970123291" lon="-5.427305018529296">
        <ele>71.269999999999996</ele>
        <time>2019-09-04T10:43:50Z</time>
      </trkpt>
      <trkpt lat="57.553060976788402" lon="-5.427588997408748">
        <ele>70.790000000000006</ele>
        <time>2019-09-04T10:43:51Z</time>
      </trkpt>
      <trkpt lat="57.55305603146553" lon="-5.427832994610071">
        <ele>70.790000000000006</ele>
        <time>2019-09-04T10:43:52Z</time>
      </trkpt>
      <trkpt lat="57.553172037005424" lon="-5.430700024589896">
        <ele>68.390000000000001</ele>
        <time>2019-09-04T10:44:03Z</time>
      </trkpt>
      <trkpt lat="57.553386026993394" lon="-5.432146992534399">
        <ele>68.870000000000005</ele>
        <time>2019-09-04T10:44:11Z</time>
      </trkpt>
      <trkpt lat="57.553527010604739" lon="-5.433886991813779">
        <ele>69.349999999999994</ele>
        <time>2019-09-04T10:44:18Z</time>
      </trkpt>
      <trkpt lat="57.553305979818106" lon="-5.435741990804672">
        <ele>68.870000000000005</ele>
        <time>2019-09-04T10:44:25Z</time>
      </trkpt>
      <trkpt lat="57.55322702229023" lon="-5.436154967173934">
        <ele>68.870000000000005</ele>
        <time>2019-09-04T10:44:27Z</time>
      </trkpt>
      <trkpt lat="57.55316399037838" lon="-5.436481023207307">
        <ele>68.870000000000005</ele>
        <time>2019-09-04T10:44:29Z</time>
      </trkpt>
      <trkpt lat="57.553125014528632" lon="-5.436687972396612">
        <ele>68.870000000000005</ele>
        <time>2019-09-04T10:44:30Z</time>
      </trkpt>
      <trkpt lat="57.553125014528632" lon="-5.436828033998609">
        <ele>69.349999999999994</ele>
        <time>2019-09-04T10:44:31Z</time>
      </trkpt>
      <trkpt lat="57.553133983165026" lon="-5.437039006501436">
        <ele>68.870000000000005</ele>
        <time>2019-09-04T10:44:32Z</time>
      </trkpt>
      <trkpt lat="57.553171031177044" lon="-5.437242016196251">
        <ele>68.390000000000001</ele>
        <time>2019-09-04T10:44:33Z</time>
      </trkpt>
      <trkpt lat="57.553211012855172" lon="-5.437464974820614">
        <ele>68.390000000000001</ele>
        <time>2019-09-04T10:44:34Z</time>
      </trkpt>
      <trkpt lat="57.5532509945333" lon="-5.437689023092389">
        <ele>67.430000000000007</ele>
        <time>2019-09-04T10:44:35Z</time>
      </trkpt>
      <trkpt lat="57.553298017010093" lon="-5.438114991411567">
        <ele>66.469999999999999</ele>
        <time>2019-09-04T10:44:37Z</time>
      </trkpt>
      <trkpt lat="57.55331402644515" lon="-5.438333004713059">
        <ele>65.989999999999995</ele>
        <time>2019-09-04T10:44:38Z</time>
      </trkpt>
      <trkpt lat="57.553301034495234" lon="-5.438545988872647">
        <ele>65.510000000000005</ele>
        <time>2019-09-04T10:44:39Z</time>
      </trkpt>
      <trkpt lat="57.553276978433132" lon="-5.438781017437577">
        <ele>65.030000000000001</ele>
        <time>2019-09-04T10:44:40Z</time>
      </trkpt>
      <trkpt lat="57.5532509945333" lon="-5.439021997153759">
        <ele>64.549999999999997</ele>
        <time>2019-09-04T10:44:41Z</time>
      </trkpt>
      <trkpt lat="57.553209001198411" lon="-5.439270017668605">
        <ele>64.069999999999993</ele>
        <time>2019-09-04T10:44:42Z</time>
      </trkpt>
      <trkpt lat="57.552769035100937" lon="-5.441853990778327">
        <ele>60.700000000000003</ele>
        <time>2019-09-04T10:44:51Z</time>
      </trkpt>
      <trkpt lat="57.552721006795764" lon="-5.442453967407346">
        <ele>60.219999999999999</ele>
        <time>2019-09-04T10:44:53Z</time>
      </trkpt>
      <trkpt lat="57.552614975720644" lon="-5.44493299908936">
        <ele>61.659999999999997</ele>
        <time>2019-09-04T10:45:01Z</time>
      </trkpt>
      <trkpt lat="57.552613969892263" lon="-5.448011001572013">
        <ele>61.18</ele>
        <time>2019-09-04T10:45:11Z</time>
      </trkpt>
      <trkpt lat="57.552639031782746" lon="-5.451518995687366">
        <ele>58.299999999999997</ele>
        <time>2019-09-04T10:45:22Z</time>
      </trkpt>
      <trkpt lat="57.552685970440507" lon="-5.452908966690302">
        <ele>56.369999999999997</ele>
        <time>2019-09-04T10:45:27Z</time>
      </trkpt>
      <trkpt lat="57.552722012624145" lon="-5.453163022175431">
        <ele>56.369999999999997</ele>
        <time>2019-09-04T10:45:28Z</time>
      </trkpt>
      <trkpt lat="57.552931979298592" lon="-5.453897025436163">
        <ele>55.409999999999997</ele>
        <time>2019-09-04T10:45:31Z</time>
      </trkpt>
      <trkpt lat="57.552931979298592" lon="-5.454150997102261">
        <ele>54.93</ele>
        <time>2019-09-04T10:45:32Z</time>
      </trkpt>
      <trkpt lat="57.55292896181345" lon="-5.454411003738642">
        <ele>54.93</ele>
        <time>2019-09-04T10:45:33Z</time>
      </trkpt>
      <trkpt lat="57.552888980135322" lon="-5.454668998718262">
        <ele>55.409999999999997</ele>
        <time>2019-09-04T10:45:34Z</time>
      </trkpt>
      <trkpt lat="57.55284296348691" lon="-5.45490100979805">
        <ele>55.409999999999997</ele>
        <time>2019-09-04T10:45:35Z</time>
      </trkpt>
      <trkpt lat="57.552421018481255" lon="-5.457365037873387">
        <ele>54.93</ele>
        <time>2019-09-04T10:45:46Z</time>
      </trkpt>
      <trkpt lat="57.552290009334683" lon="-5.458055958151817">
        <ele>54.450000000000003</ele>
        <time>2019-09-04T10:45:49Z</time>
      </trkpt>
      <trkpt lat="57.552221026271582" lon="-5.458255028352141">
        <ele>54.450000000000003</ele>
        <time>2019-09-04T10:45:50Z</time>
      </trkpt>
      <trkpt lat="57.552126981317997" lon="-5.458435993641615">
        <ele>54.450000000000003</ele>
        <time>2019-09-04T10:45:51Z</time>
      </trkpt>
      <trkpt lat="57.552031008526683" lon="-5.458621988072991">
        <ele>54.450000000000003</ele>
        <time>2019-09-04T10:45:52Z</time>
      </trkpt>
      <trkpt lat="57.551926989108324" lon="-5.458785016089678">
        <ele>54.450000000000003</ele>
        <time>2019-09-04T10:45:53Z</time>
      </trkpt>
      <trkpt lat="57.551797991618514" lon="-5.458914013579488">
        <ele>54.450000000000003</ele>
        <time>2019-09-04T10:45:54Z</time>
      </trkpt>
      <trkpt lat="57.551663964986801" lon="-5.459045022726059">
        <ele>54.93</ele>
        <time>2019-09-04T10:45:55Z</time>
      </trkpt>
      <trkpt lat="57.550880005583167" lon="-5.459708031266928">
        <ele>56.859999999999999</ele>
        <time>2019-09-04T10:46:01Z</time>
      </trkpt>
      <trkpt lat="57.550244992598891" lon="-5.460470030084252">
        <ele>58.299999999999997</ele>
        <time>2019-09-04T10:46:06Z</time>
      </trkpt>
      <trkpt lat="57.549045039340854" lon="-5.462875971570611">
        <ele>57.340000000000003</ele>
        <time>2019-09-04T10:46:16Z</time>
      </trkpt>
      <trkpt lat="57.547975005581975" lon="-5.465817013755441">
        <ele>52.049999999999997</ele>
        <time>2019-09-04T10:46:27Z</time>
      </trkpt>
      <trkpt lat="57.547016032040119" lon="-5.468755038455129">
        <ele>46.280000000000001</ele>
        <time>2019-09-04T10:46:37Z</time>
      </trkpt>
      <trkpt lat="57.545828986912966" lon="-5.471951980143786">
        <ele>40.030000000000001</ele>
        <time>2019-09-04T10:46:49Z</time>
      </trkpt>
      <trkpt lat="57.544798012822866" lon="-5.474080983549357">
        <ele>38.109999999999999</ele>
        <time>2019-09-04T10:46:58Z</time>
      </trkpt>
      <trkpt lat="57.544668009504676" lon="-5.474262032657862">
        <ele>37.630000000000003</ele>
        <time>2019-09-04T10:46:59Z</time>
      </trkpt>
      <trkpt lat="57.544529037550092" lon="-5.474393963813782">
        <ele>37.630000000000003</ele>
        <time>2019-09-04T10:47:00Z</time>
      </trkpt>
      <trkpt lat="57.543480964377522" lon="-5.47550599090755">
        <ele>34.740000000000002</ele>
        <time>2019-09-04T10:47:08Z</time>
      </trkpt>
      <trkpt lat="57.543390020728111" lon="-5.475662983953953">
        <ele>34.740000000000002</ele>
        <time>2019-09-04T10:47:09Z</time>
      </trkpt>
      <trkpt lat="57.54330201074481" lon="-5.475840009748936">
        <ele>34.740000000000002</ele>
        <time>2019-09-04T10:47:10Z</time>
      </trkpt>
      <trkpt lat="57.54323503933847" lon="-5.476045031100512">
        <ele>34.259999999999998</ele>
        <time>2019-09-04T10:47:11Z</time>
      </trkpt>
      <trkpt lat="57.543193968012929" lon="-5.476272013038397">
        <ele>33.780000000000001</ele>
        <time>2019-09-04T10:47:12Z</time>
      </trkpt>
      <trkpt lat="57.543147029355168" lon="-5.476534031331539">
        <ele>33.299999999999997</ele>
        <time>2019-09-04T10:47:13Z</time>
      </trkpt>
      <trkpt lat="57.54312900826335" lon="-5.476728994399309">
        <ele>32.82</ele>
        <time>2019-09-04T10:47:14Z</time>
      </trkpt>
      <trkpt lat="57.543036974966526" lon="-5.477674975991249">
        <ele>30.899999999999999</ele>
        <time>2019-09-04T10:47:18Z</time>
      </trkpt>
      <trkpt lat="57.542994981631637" lon="-5.477942023426294">
        <ele>30.420000000000002</ele>
        <time>2019-09-04T10:47:19Z</time>
      </trkpt>
      <trkpt lat="57.542919963598251" lon="-5.478187026455998">
        <ele>29.940000000000001</ele>
        <time>2019-09-04T10:47:20Z</time>
      </trkpt>
      <trkpt lat="57.542840000241995" lon="-5.478438986465335">
        <ele>29.460000000000001</ele>
        <time>2019-09-04T10:47:21Z</time>
      </trkpt>
      <trkpt lat="57.5427430216223" lon="-5.478672003373504">
        <ele>28.98</ele>
        <time>2019-09-04T10:47:22Z</time>
      </trkpt>
      <trkpt lat="57.54164700396359" lon="-5.481406012549996">
        <ele>24.170000000000002</ele>
        <time>2019-09-04T10:47:33Z</time>
      </trkpt>
      <trkpt lat="57.540983995422721" lon="-5.483787981793284">
        <ele>22.25</ele>
        <time>2019-09-04T10:47:42Z</time>
      </trkpt>
      <trkpt lat="57.540535982698202" lon="-5.486006001010537">
        <ele>19.84</ele>
        <time>2019-09-04T10:47:51Z</time>
      </trkpt>
      <trkpt lat="57.540505975484848" lon="-5.486252009868622">
        <ele>19.359999999999999</ele>
        <time>2019-09-04T10:47:52Z</time>
      </trkpt>
      <trkpt lat="57.540430035442114" lon="-5.488109020516276">
        <ele>18.879999999999999</ele>
        <time>2019-09-04T10:48:00Z</time>
      </trkpt>
      <trkpt lat="57.540719965472817" lon="-5.490162000060082">
        <ele>20.809999999999999</ele>
        <time>2019-09-04T10:48:08Z</time>
      </trkpt>
      <trkpt lat="57.541120033711195" lon="-5.492498958483338">
        <ele>20.32</ele>
        <time>2019-09-04T10:48:17Z</time>
      </trkpt>
      <trkpt lat="57.541375011205673" lon="-5.4950359929353">
        <ele>16</ele>
        <time>2019-09-04T10:48:26Z</time>
      </trkpt>
      <trkpt lat="57.541855964809656" lon="-5.497906040400267">
        <ele>13.119999999999999</ele>
        <time>2019-09-04T10:48:35Z</time>
      </trkpt>
      <trkpt lat="57.542530037462711" lon="-5.500050969421864">
        <ele>11.19</ele>
        <time>2019-09-04T10:48:43Z</time>
      </trkpt>
      <trkpt lat="57.542600026354194" lon="-5.500290021300316">
        <ele>11.19</ele>
        <time>2019-09-04T10:48:44Z</time>
      </trkpt>
      <trkpt lat="57.542674960568547" lon="-5.500546004623175">
        <ele>11.19</ele>
        <time>2019-09-04T10:48:45Z</time>
      </trkpt>
      <trkpt lat="57.542714020237327" lon="-5.500790001824498">
        <ele>10.710000000000001</ele>
        <time>2019-09-04T10:48:46Z</time>
      </trkpt>
      <trkpt lat="57.542755007743835" lon="-5.501046990975738">
        <ele>10.710000000000001</ele>
        <time>2019-09-04T10:48:47Z</time>
      </trkpt>
      <trkpt lat="57.542752996087074" lon="-5.501314960420132">
        <ele>10.710000000000001</ele>
        <time>2019-09-04T10:48:48Z</time>
      </trkpt>
      <trkpt lat="57.542744027450681" lon="-5.501576978713274">
        <ele>10.710000000000001</ele>
        <time>2019-09-04T10:48:49Z</time>
      </trkpt>
      <trkpt lat="57.542716031894088" lon="-5.501832040026784">
        <ele>10.710000000000001</ele>
        <time>2019-09-04T10:48:50Z</time>
      </trkpt>
      <trkpt lat="57.542670015245676" lon="-5.502080982550979">
        <ele>10.710000000000001</ele>
        <time>2019-09-04T10:48:51Z</time>
      </trkpt>
      <trkpt lat="57.542617963626981" lon="-5.502317016944289">
        <ele>10.710000000000001</ele>
        <time>2019-09-04T10:48:52Z</time>
      </trkpt>
      <trkpt lat="57.54253095947206" lon="-5.50251399166882">
        <ele>10.710000000000001</ele>
        <time>2019-09-04T10:48:53Z</time>
      </trkpt>
      <trkpt lat="57.54244496114552" lon="-5.502709960564971">
        <ele>10.710000000000001</ele>
        <time>2019-09-04T10:48:54Z</time>
      </trkpt>
      <trkpt lat="57.542345970869064" lon="-5.502876006066799">
        <ele>11.19</ele>
        <time>2019-09-04T10:48:55Z</time>
      </trkpt>
      <trkpt lat="57.542231976985931" lon="-5.503005003556609">
        <ele>11.19</ele>
        <time>2019-09-04T10:48:56Z</time>
      </trkpt>
      <trkpt lat="57.54210096783936" lon="-5.503099970519543">
        <ele>11.19</ele>
        <time>2019-09-04T10:48:57Z</time>
      </trkpt>
      <trkpt lat="57.541967025026679" lon="-5.503194015473127">
        <ele>11.19</ele>
        <time>2019-09-04T10:48:58Z</time>
      </trkpt>
      <trkpt lat="57.541832998394966" lon="-5.503288982436061">
        <ele>10.710000000000001</ele>
        <time>2019-09-04T10:48:59Z</time>
      </trkpt>
      <trkpt lat="57.541696038097143" lon="-5.503385039046407">
        <ele>10.710000000000001</ele>
        <time>2019-09-04T10:49:00Z</time>
      </trkpt>
      <trkpt lat="57.541554970666766" lon="-5.50345896743238">
        <ele>10.710000000000001</ele>
        <time>2019-09-04T10:49:01Z</time>
      </trkpt>
      <trkpt lat="57.53952101804316" lon="-5.504323979839683">
        <ele>10.23</ele>
        <time>2019-09-04T10:49:14Z</time>
      </trkpt>
      <trkpt lat="57.538288962095976" lon="-5.504817003384233">
        <ele>11.67</ele>
        <time>2019-09-04T10:49:23Z</time>
      </trkpt>
      <trkpt lat="57.536629009991884" lon="-5.505411028862">
        <ele>10.710000000000001</ele>
        <time>2019-09-04T10:49:35Z</time>
      </trkpt>
      <trkpt lat="57.536484003067017" lon="-5.505511024966836">
        <ele>10.710000000000001</ele>
        <time>2019-09-04T10:49:36Z</time>
      </trkpt>
      <trkpt lat="57.535268040373921" lon="-5.506463963538408">
        <ele>8.789999999999999</ele>
        <time>2019-09-04T10:49:45Z</time>
      </trkpt>
      <trkpt lat="57.534521967172623" lon="-5.506699997931719">
        <ele>9.75</ele>
        <time>2019-09-04T10:49:51Z</time>
      </trkpt>
      <trkpt lat="57.534387018531561" lon="-5.506742997094989">
        <ele>9.75</ele>
        <time>2019-09-04T10:49:52Z</time>
      </trkpt>
      <trkpt lat="57.534259026870131" lon="-5.5068080406636">
        <ele>10.23</ele>
        <time>2019-09-04T10:49:53Z</time>
      </trkpt>
      <trkpt lat="57.534134974703193" lon="-5.506911976262927">
        <ele>10.23</ele>
        <time>2019-09-04T10:49:54Z</time>
      </trkpt>
      <trkpt lat="57.534012012183666" lon="-5.507040973752737">
        <ele>10.23</ele>
        <time>2019-09-04T10:49:55Z</time>
      </trkpt>
      <trkpt lat="57.533901035785675" lon="-5.507215987890959">
        <ele>10.23</ele>
        <time>2019-09-04T10:49:56Z</time>
      </trkpt>
      <trkpt lat="57.533807996660471" lon="-5.507421009242535">
        <ele>10.23</ele>
        <time>2019-09-04T10:49:57Z</time>
      </trkpt>
      <trkpt lat="57.533713029697537" lon="-5.507630975916982">
        <ele>10.23</ele>
        <time>2019-09-04T10:49:58Z</time>
      </trkpt>
      <trkpt lat="57.533617978915572" lon="-5.507841026410461">
        <ele>10.710000000000001</ele>
        <time>2019-09-04T10:49:59Z</time>
      </trkpt>
      <trkpt lat="57.53356902860105" lon="-5.5080980155617">
        <ele>10.710000000000001</ele>
        <time>2019-09-04T10:50:00Z</time>
      </trkpt>
      <trkpt lat="57.533531980589032" lon="-5.508366990834475">
        <ele>11.19</ele>
        <time>2019-09-04T10:50:01Z</time>
      </trkpt>
      <trkpt lat="57.533490993082523" lon="-5.50865700468421">
        <ele>11.19</ele>
        <time>2019-09-04T10:50:02Z</time>
      </trkpt>
      <trkpt lat="57.533490993082523" lon="-5.508917011320591">
        <ele>10.710000000000001</ele>
        <time>2019-09-04T10:50:03Z</time>
      </trkpt>
      <trkpt lat="57.533490993082523" lon="-5.509212976321578">
        <ele>10.23</ele>
        <time>2019-09-04T10:50:04Z</time>
      </trkpt>
      <trkpt lat="57.533490993082523" lon="-5.509515982121229">
        <ele>10.23</ele>
        <time>2019-09-04T10:50:05Z</time>
      </trkpt>
      <trkpt lat="57.533673970028758" lon="-5.511939022690058">
        <ele>7.83</ele>
        <time>2019-09-04T10:50:13Z</time>
      </trkpt>
      <trkpt lat="57.533639017492533" lon="-5.512207997962833">
        <ele>7.35</ele>
        <time>2019-09-04T10:50:14Z</time>
      </trkpt>
      <trkpt lat="57.533604986965656" lon="-5.512470016255975">
        <ele>7.35</ele>
        <time>2019-09-04T10:50:15Z</time>
      </trkpt>
      <trkpt lat="57.533565005287528" lon="-5.512727005407214">
        <ele>7.35</ele>
        <time>2019-09-04T10:50:16Z</time>
      </trkpt>
      <trkpt lat="57.53348596394062" lon="-5.512955999001861">
        <ele>7.35</ele>
        <time>2019-09-04T10:50:17Z</time>
      </trkpt>
      <trkpt lat="57.533407006412745" lon="-5.513188010081649">
        <ele>7.35</ele>
        <time>2019-09-04T10:50:18Z</time>
      </trkpt>
      <trkpt lat="57.533327965065837" lon="-5.513420021161437">
        <ele>7.35</ele>
        <time>2019-09-04T10:50:19Z</time>
      </trkpt>
      <trkpt lat="57.533237021416426" lon="-5.513641973957419">
        <ele>7.35</ele>
        <time>2019-09-04T10:50:20Z</time>
      </trkpt>
      <trkpt lat="57.53313903696835" lon="-5.513860993087292">
        <ele>7.35</ele>
        <time>2019-09-04T10:50:21Z</time>
      </trkpt>
      <trkpt lat="57.532342001795769" lon="-5.516065014526248">
        <ele>5.91</ele>
        <time>2019-09-04T10:50:30Z</time>
      </trkpt>
      <trkpt lat="57.531880997121334" lon="-5.517848012968898">
        <ele>3.98</ele>
        <time>2019-09-04T10:50:38Z</time>
      </trkpt>
      <trkpt lat="57.531820982694626" lon="-5.518011040985584">
        <ele>4.46</ele>
        <time>2019-09-04T10:50:39Z</time>
      </trkpt>
      <trkpt lat="57.531141964718699" lon="-5.519131030887365">
        <ele>5.91</ele>
        <time>2019-09-04T10:50:47Z</time>
      </trkpt>
      <trkpt lat="57.530983965843916" lon="-5.51950796507299">
        <ele>6.39</ele>
        <time>2019-09-04T10:50:49Z</time>
      </trkpt>
      <trkpt lat="57.530919006094337" lon="-5.519725978374481">
        <ele>6.87</ele>
        <time>2019-09-04T10:50:50Z</time>
      </trkpt>
      <trkpt lat="57.530853040516376" lon="-5.519952038303018">
        <ele>6.87</ele>
        <time>2019-09-04T10:50:51Z</time>
      </trkpt>
      <trkpt lat="57.530050976201892" lon="-5.522702978923917">
        <ele>6.87</ele>
        <time>2019-09-04T10:51:02Z</time>
      </trkpt>
      <trkpt lat="57.529686028137803" lon="-5.523862028494477">
        <ele>5.42</ele>
        <time>2019-09-04T10:51:07Z</time>
      </trkpt>
      <trkpt lat="57.52961402758956" lon="-5.524065960198641">
        <ele>5.42</ele>
        <time>2019-09-04T10:51:08Z</time>
      </trkpt>
      <trkpt lat="57.529468014836311" lon="-5.524431997910142">
        <ele>4.94</ele>
        <time>2019-09-04T10:51:10Z</time>
      </trkpt>
      <trkpt lat="57.529370030388236" lon="-5.524573987349868">
        <ele>4.94</ele>
        <time>2019-09-04T10:51:11Z</time>
      </trkpt>
      <trkpt lat="57.529167020693421" lon="-5.524866012856364">
        <ele>4.94</ele>
        <time>2019-09-04T10:51:13Z</time>
      </trkpt>
      <trkpt lat="57.528917994350195" lon="-5.525111015886068">
        <ele>4.94</ele>
        <time>2019-09-04T10:51:15Z</time>
      </trkpt>
      <trkpt lat="57.528274012729526" lon="-5.525660030543804">
        <ele>5.91</ele>
        <time>2019-09-04T10:51:20Z</time>
      </trkpt>
      <trkpt lat="57.527426015585661" lon="-5.526683041825891">
        <ele>12.15</ele>
        <time>2019-09-04T10:51:27Z</time>
      </trkpt>
      <trkpt lat="57.527333982288837" lon="-5.526889991015196">
        <ele>13.119999999999999</ele>
        <time>2019-09-04T10:51:28Z</time>
      </trkpt>
      <trkpt lat="57.527243038639426" lon="-5.527096018195152">
        <ele>14.08</ele>
        <time>2019-09-04T10:51:29Z</time>
      </trkpt>
      <trkpt lat="57.527158968150616" lon="-5.527299027889967">
        <ele>15.52</ele>
        <time>2019-09-04T10:51:30Z</time>
      </trkpt>
      <trkpt lat="57.52712401561439" lon="-5.527554005384445">
        <ele>16.48</ele>
        <time>2019-09-04T10:51:31Z</time>
      </trkpt>
      <trkpt lat="57.527086967602372" lon="-5.527814012020826">
        <ele>17.440000000000001</ele>
        <time>2019-09-04T10:51:32Z</time>
      </trkpt>
      <trkpt lat="57.527053020894527" lon="-5.528076030313969">
        <ele>18.399999999999999</ele>
        <time>2019-09-04T10:51:33Z</time>
      </trkpt>
      <trkpt lat="57.527033993974328" lon="-5.528334025293589">
        <ele>19.359999999999999</ele>
        <time>2019-09-04T10:51:34Z</time>
      </trkpt>
      <trkpt lat="57.527070958167315" lon="-5.528591014444828">
        <ele>19.84</ele>
        <time>2019-09-04T10:51:35Z</time>
      </trkpt>
      <trkpt lat="57.527111023664474" lon="-5.528841968625784">
        <ele>20.809999999999999</ele>
        <time>2019-09-04T10:51:36Z</time>
      </trkpt>
      <trkpt lat="57.527160979807377" lon="-5.529085965827107">
        <ele>21.289999999999999</ele>
        <time>2019-09-04T10:51:37Z</time>
      </trkpt>
      <trkpt lat="57.527237003669143" lon="-5.529322000220418">
        <ele>22.25</ele>
        <time>2019-09-04T10:51:38Z</time>
      </trkpt>
      <trkpt lat="57.52731503918767" lon="-5.529564991593361">
        <ele>22.73</ele>
        <time>2019-09-04T10:51:39Z</time>
      </trkpt>
      <trkpt lat="57.527858018875122" lon="-5.53093601949513">
        <ele>27.050000000000001</ele>
        <time>2019-09-04T10:51:45Z</time>
      </trkpt>
      <trkpt lat="57.527925996109843" lon="-5.53117398172617">
        <ele>27.530000000000001</ele>
        <time>2019-09-04T10:51:46Z</time>
      </trkpt>
      <trkpt lat="57.527970001101494" lon="-5.531436000019312">
        <ele>28.5</ele>
        <time>2019-09-04T10:51:47Z</time>
      </trkpt>
      <trkpt lat="57.527994979172945" lon="-5.53171101026237">
        <ele>28.98</ele>
        <time>2019-09-04T10:51:48Z</time>
      </trkpt>
      <trkpt lat="57.528020041063428" lon="-5.531980991363525">
        <ele>29.460000000000001</ele>
        <time>2019-09-04T10:51:49Z</time>
      </trkpt>
      <trkpt lat="57.528033033013344" lon="-5.532277040183544">
        <ele>30.420000000000002</ele>
        <time>2019-09-04T10:51:50Z</time>
      </trkpt>
      <trkpt lat="57.527997996658087" lon="-5.53254802711308">
        <ele>30.420000000000002</ele>
        <time>2019-09-04T10:51:51Z</time>
      </trkpt>
      <trkpt lat="57.527735978364944" lon="-5.534688010811806">
        <ele>37.630000000000003</ele>
        <time>2019-09-04T10:51:59Z</time>
      </trkpt>
      <trkpt lat="57.527670012786984" lon="-5.537138041108847">
        <ele>41.469999999999999</ele>
        <time>2019-09-04T10:52:07Z</time>
      </trkpt>
      <trkpt lat="57.527614021673799" lon="-5.539652025327086">
        <ele>49.159999999999997</ele>
        <time>2019-09-04T10:52:15Z</time>
      </trkpt>
      <trkpt lat="57.527603041380644" lon="-5.540809985250235">
        <ele>55.409999999999997</ele>
        <time>2019-09-04T10:52:19Z</time>
      </trkpt>
      <trkpt lat="57.527827005833387" lon="-5.542985005304217">
        <ele>66.950000000000003</ele>
        <time>2019-09-04T10:52:26Z</time>
      </trkpt>
      <trkpt lat="57.527827005833387" lon="-5.543267978355289">
        <ele>68.870000000000005</ele>
        <time>2019-09-04T10:52:27Z</time>
      </trkpt>
      <trkpt lat="57.527827005833387" lon="-5.543550029397011">
        <ele>70.790000000000006</ele>
        <time>2019-09-04T10:52:28Z</time>
      </trkpt>
      <trkpt lat="57.527801021933556" lon="-5.543842976912856">
        <ele>72.239999999999995</ele>
        <time>2019-09-04T10:52:29Z</time>
      </trkpt>
      <trkpt lat="57.527770008891821" lon="-5.544133996590972">
        <ele>74.159999999999997</ele>
        <time>2019-09-04T10:52:30Z</time>
      </trkpt>
      <trkpt lat="57.527737990021706" lon="-5.544429961591959">
        <ele>76.079999999999998</ele>
        <time>2019-09-04T10:52:31Z</time>
      </trkpt>
      <trkpt lat="57.527613015845418" lon="-5.546188987791538">
        <ele>86.180000000000007</ele>
        <time>2019-09-04T10:52:37Z</time>
      </trkpt>
      <trkpt lat="57.527637993916869" lon="-5.546480007469654">
        <ele>87.620000000000005</ele>
        <time>2019-09-04T10:52:38Z</time>
      </trkpt>
      <trkpt lat="57.527688033878803" lon="-5.546760968863964">
        <ele>89.060000000000002</ele>
        <time>2019-09-04T10:52:39Z</time>
      </trkpt>
      <trkpt lat="57.527759028598666" lon="-5.547028016299009">
        <ele>90.5</ele>
        <time>2019-09-04T10:52:40Z</time>
      </trkpt>
      <trkpt lat="57.52783203497529" lon="-5.547305960208178">
        <ele>91.939999999999998</ele>
        <time>2019-09-04T10:52:41Z</time>
      </trkpt>
      <trkpt lat="57.527924990281463" lon="-5.547580970451236">
        <ele>93.390000000000001</ele>
        <time>2019-09-04T10:52:42Z</time>
      </trkpt>
      <trkpt lat="57.52869201824069" lon="-5.549875013530254">
        <ele>101.08</ele>
        <time>2019-09-04T10:52:50Z</time>
      </trkpt>
      <trkpt lat="57.528738034889102" lon="-5.550150023773313">
        <ele>101.56</ele>
        <time>2019-09-04T10:52:51Z</time>
      </trkpt>
      <trkpt lat="57.528783967718482" lon="-5.550430985167623">
        <ele>102.04000000000001</ele>
        <time>2019-09-04T10:52:52Z</time>
      </trkpt>
      <trkpt lat="57.528802994638681" lon="-5.550720999017358">
        <ele>102.52</ele>
        <time>2019-09-04T10:52:53Z</time>
      </trkpt>
      <trkpt lat="57.528811041265726" lon="-5.550999026745558">
        <ele>103</ele>
        <time>2019-09-04T10:52:54Z</time>
      </trkpt>
      <trkpt lat="57.528793020173907" lon="-5.551287028938532">
        <ele>103</ele>
        <time>2019-09-04T10:52:55Z</time>
      </trkpt>
      <trkpt lat="57.528773993253708" lon="-5.551596991717815">
        <ele>103.48</ele>
        <time>2019-09-04T10:52:56Z</time>
      </trkpt>
      <trkpt lat="57.528722025454044" lon="-5.551909971982241">
        <ele>103.48</ele>
        <time>2019-09-04T10:52:57Z</time>
      </trkpt>
      <trkpt lat="57.528658993542194" lon="-5.55222999304533">
        <ele>103.48</ele>
        <time>2019-09-04T10:52:58Z</time>
      </trkpt>
      <trkpt lat="57.528582969680429" lon="-5.552548002451658">
        <ele>103.48</ele>
        <time>2019-09-04T10:52:59Z</time>
      </trkpt>
      <trkpt lat="57.528484985232353" lon="-5.552858971059322">
        <ele>103</ele>
        <time>2019-09-04T10:53:00Z</time>
      </trkpt>
      <trkpt lat="57.528118025511503" lon="-5.554146012291312">
        <ele>103</ele>
        <time>2019-09-04T10:53:04Z</time>
      </trkpt>
      <trkpt lat="57.528045019134879" lon="-5.554471984505653">
        <ele>103.95999999999999</ele>
        <time>2019-09-04T10:53:05Z</time>
      </trkpt>
      <trkpt lat="57.528020041063428" lon="-5.554826958104968">
        <ele>104.92</ele>
        <time>2019-09-04T10:53:06Z</time>
      </trkpt>
      <trkpt lat="57.527997996658087" lon="-5.555176986381412">
        <ele>106.36</ele>
        <time>2019-09-04T10:53:07Z</time>
      </trkpt>
      <trkpt lat="57.527976036071777" lon="-5.555528020486236">
        <ele>107.31999999999999</ele>
        <time>2019-09-04T10:53:08Z</time>
      </trkpt>
      <trkpt lat="57.527703959494829" lon="-5.558033036068082">
        <ele>111.17</ele>
        <time>2019-09-04T10:53:16Z</time>
      </trkpt>
      <trkpt lat="57.52725200727582" lon="-5.560925966128707">
        <ele>103</ele>
        <time>2019-09-04T10:53:25Z</time>
      </trkpt>
      <trkpt lat="57.527273967862129" lon="-5.561613030731678">
        <ele>102.04000000000001</ele>
        <time>2019-09-04T10:53:27Z</time>
      </trkpt>
      <trkpt lat="57.527286037802696" lon="-5.56196297518909">
        <ele>102.04000000000001</ele>
        <time>2019-09-04T10:53:28Z</time>
      </trkpt>
      <trkpt lat="57.527566999197006" lon="-5.564322983846068">
        <ele>101.08</ele>
        <time>2019-09-04T10:53:36Z</time>
      </trkpt>
      <trkpt lat="57.527644028887153" lon="-5.565509023144841">
        <ele>99.629999999999995</ele>
        <time>2019-09-04T10:53:43Z</time>
      </trkpt>
      <trkpt lat="57.527644028887153" lon="-5.565921999514103">
        <ele>99.150000000000006</ele>
        <time>2019-09-04T10:53:47Z</time>
      </trkpt>
      <trkpt lat="57.527641011402011" lon="-5.566009003669024">
        <ele>99.150000000000006</ele>
        <time>2019-09-04T10:53:48Z</time>
      </trkpt>
      <trkpt lat="57.527568005025387" lon="-5.56649599224329">
        <ele>98.189999999999998</ele>
        <time>2019-09-04T10:53:59Z</time>
      </trkpt>
      <trkpt lat="57.527556018903852" lon="-5.566551983356476">
        <ele>98.189999999999998</ele>
        <time>2019-09-04T10:54:15Z</time>
      </trkpt>
      <trkpt lat="57.527608992531896" lon="-5.566746024414897">
        <ele>103.48</ele>
        <time>2019-09-04T10:57:31Z</time>
      </trkpt>
      <trkpt lat="57.5275759678334" lon="-5.566694978624582">
        <ele>101.56</ele>
        <time>2019-09-04T10:58:10Z</time>
      </trkpt>
      <trkpt lat="57.52757403999567" lon="-5.566676035523415">
        <ele>104.44</ele>
        <time>2019-09-04T10:58:42Z</time>
      </trkpt>
      <trkpt lat="57.52757403999567" lon="-5.566705036908388">
        <ele>103.95999999999999</ele>
        <time>2019-09-04T10:59:22Z</time>
      </trkpt>
      <trkpt lat="57.527556018903852" lon="-5.566801009699702">
        <ele>103.95999999999999</ele>
        <time>2019-09-04T10:59:36Z</time>
      </trkpt>
      <trkpt lat="57.527483012527227" lon="-5.566793968901038">
        <ele>103.95999999999999</ele>
        <time>2019-09-04T10:59:38Z</time>
      </trkpt>
      <trkpt lat="57.527465997263789" lon="-5.566847026348114">
        <ele>103.95999999999999</ele>
        <time>2019-09-04T10:59:39Z</time>
      </trkpt>
      <trkpt lat="57.52744403667748" lon="-5.566913997754455">
        <ele>103.48</ele>
        <time>2019-09-04T10:59:40Z</time>
      </trkpt>
      <trkpt lat="57.527418974786997" lon="-5.566992033272982">
        <ele>103.48</ele>
        <time>2019-09-04T10:59:41Z</time>
      </trkpt>
      <trkpt lat="57.527387961745262" lon="-5.567089011892676">
        <ele>103</ele>
        <time>2019-09-04T10:59:42Z</time>
      </trkpt>
      <trkpt lat="57.527349991723895" lon="-5.56720401160419">
        <ele>103</ele>
        <time>2019-09-04T10:59:43Z</time>
      </trkpt>
      <trkpt lat="57.526949001476169" lon="-5.568448975682259">
        <ele>97.709999999999994</ele>
        <time>2019-09-04T10:59:50Z</time>
      </trkpt>
      <trkpt lat="57.526810029521585" lon="-5.569169986993074">
        <ele>93.870000000000005</ele>
        <time>2019-09-04T10:59:53Z</time>
      </trkpt>
      <trkpt lat="57.526767030358315" lon="-5.569415995851159">
        <ele>92.420000000000002</ele>
        <time>2019-09-04T10:59:54Z</time>
      </trkpt>
      <trkpt lat="57.526756972074509" lon="-5.56967499665916">
        <ele>90.980000000000004</ele>
        <time>2019-09-04T10:59:55Z</time>
      </trkpt>
      <trkpt lat="57.526763007044792" lon="-5.569944977760315">
        <ele>89.540000000000006</ele>
        <time>2019-09-04T10:59:56Z</time>
      </trkpt>
      <trkpt lat="57.526768958196044" lon="-5.570223005488515">
        <ele>88.099999999999994</ele>
        <time>2019-09-04T10:59:57Z</time>
      </trkpt>
      <trkpt lat="57.526774993166327" lon="-5.570540009066463">
        <ele>86.180000000000007</ele>
        <time>2019-09-04T10:59:58Z</time>
      </trkpt>
      <trkpt lat="57.526903990656137" lon="-5.573325986042619">
        <ele>69.349999999999994</ele>
        <time>2019-09-04T11:00:08Z</time>
      </trkpt>
      <trkpt lat="57.527042962610722" lon="-5.576082039624453">
        <ele>57.340000000000003</ele>
        <time>2019-09-04T11:00:17Z</time>
      </trkpt>
      <trkpt lat="57.526972973719239" lon="-5.578881008550525">
        <ele>51.090000000000003</ele>
        <time>2019-09-04T11:00:26Z</time>
      </trkpt>
      <trkpt lat="57.526558991521597" lon="-5.582033023238182">
        <ele>42.920000000000002</ele>
        <time>2019-09-04T11:00:36Z</time>
      </trkpt>
      <trkpt lat="57.526324968785048" lon="-5.583868995308876">
        <ele>44.359999999999999</ele>
        <time>2019-09-04T11:00:42Z</time>
      </trkpt>
      <trkpt lat="57.526354975998402" lon="-5.586810959503055">
        <ele>35.229999999999997</ele>
        <time>2019-09-04T11:00:51Z</time>
      </trkpt>
      <trkpt lat="57.526313988491893" lon="-5.58709803968668">
        <ele>33.780000000000001</ele>
        <time>2019-09-04T11:00:52Z</time>
      </trkpt>
      <trkpt lat="57.525992039591074" lon="-5.589760970324278">
        <ele>22.25</ele>
        <time>2019-09-04T11:01:01Z</time>
      </trkpt>
      <trkpt lat="57.525998996570706" lon="-5.59008602052927">
        <ele>20.809999999999999</ele>
        <time>2019-09-04T11:01:02Z</time>
      </trkpt>
      <trkpt lat="57.526047024875879" lon="-5.590422973036766">
        <ele>19.359999999999999</ele>
        <time>2019-09-04T11:01:03Z</time>
      </trkpt>
      <trkpt lat="57.526106033474207" lon="-5.590777024626732">
        <ele>17.920000000000002</ele>
        <time>2019-09-04T11:01:04Z</time>
      </trkpt>
      <trkpt lat="57.52620100043714" lon="-5.591134009882808">
        <ele>16.48</ele>
        <time>2019-09-04T11:01:05Z</time>
      </trkpt>
      <trkpt lat="57.526299990713596" lon="-5.591500969603658">
        <ele>15.039999999999999</ele>
        <time>2019-09-04T11:01:06Z</time>
      </trkpt>
      <trkpt lat="57.527301041409373" lon="-5.594721967354417">
        <ele>11.19</ele>
        <time>2019-09-04T11:01:15Z</time>
      </trkpt>
      <trkpt lat="57.527518970891833" lon="-5.595665015280247">
        <ele>9.27</ele>
        <time>2019-09-04T11:01:18Z</time>
      </trkpt>
      <trkpt lat="57.527562975883484" lon="-5.595999034121633">
        <ele>8.310000000000001</ele>
        <time>2019-09-04T11:01:19Z</time>
      </trkpt>
      <trkpt lat="57.527589965611696" lon="-5.596345039084554">
        <ele>7.83</ele>
        <time>2019-09-04T11:01:20Z</time>
      </trkpt>
      <trkpt lat="57.527628019452095" lon="-5.599667960777879">
        <ele>5.91</ele>
        <time>2019-09-04T11:01:30Z</time>
      </trkpt>
      <trkpt lat="57.527673030272126" lon="-5.599955962970853">
        <ele>6.87</ele>
        <time>2019-09-04T11:01:31Z</time>
      </trkpt>
      <trkpt lat="57.527718963101506" lon="-5.600258968770504">
        <ele>7.35</ele>
        <time>2019-09-04T11:01:32Z</time>
      </trkpt>
      <trkpt lat="57.527796998620033" lon="-5.60053096152842">
        <ele>8.310000000000001</ele>
        <time>2019-09-04T11:01:33Z</time>
      </trkpt>
      <trkpt lat="57.527915015816689" lon="-5.600760038942099">
        <ele>9.27</ele>
        <time>2019-09-04T11:01:34Z</time>
      </trkpt>
      <trkpt lat="57.528028003871441" lon="-5.600965982303023">
        <ele>10.23</ele>
        <time>2019-09-04T11:01:35Z</time>
      </trkpt>
      <trkpt lat="57.528164964169264" lon="-5.601144013926387">
        <ele>11.67</ele>
        <time>2019-09-04T11:01:36Z</time>
      </trkpt>
      <trkpt lat="57.528310976922512" lon="-5.601326990872622">
        <ele>13.119999999999999</ele>
        <time>2019-09-04T11:01:37Z</time>
      </trkpt>
      <trkpt lat="57.529567005112767" lon="-5.60301803983748">
        <ele>24.170000000000002</ele>
        <time>2019-09-04T11:01:45Z</time>
      </trkpt>
      <trkpt lat="57.530450960621238" lon="-5.604813024401665">
        <ele>27.050000000000001</ele>
        <time>2019-09-04T11:01:52Z</time>
      </trkpt>
      <trkpt lat="57.531238021329045" lon="-5.605907030403614">
        <ele>29.460000000000001</ele>
        <time>2019-09-04T11:01:58Z</time>
      </trkpt>
      <trkpt lat="57.531336005777121" lon="-5.606118002906442">
        <ele>30.420000000000002</ele>
        <time>2019-09-04T11:01:59Z</time>
      </trkpt>
      <trkpt lat="57.531422004103661" lon="-5.606354959309101">
        <ele>30.899999999999999</ele>
        <time>2019-09-04T11:02:00Z</time>
      </trkpt>
      <trkpt lat="57.53148403018713" lon="-5.606621000915766">
        <ele>31.859999999999999</ele>
        <time>2019-09-04T11:02:01Z</time>
      </trkpt>
      <trkpt lat="57.531531974673271" lon="-5.606900034472346">
        <ele>32.340000000000003</ele>
        <time>2019-09-04T11:02:02Z</time>
      </trkpt>
      <trkpt lat="57.531582014635205" lon="-5.60718996450305">
        <ele>32.82</ele>
        <time>2019-09-04T11:02:03Z</time>
      </trkpt>
      <trkpt lat="57.53157002851367" lon="-5.607476960867643">
        <ele>33.780000000000001</ele>
        <time>2019-09-04T11:02:04Z</time>
      </trkpt>
      <trkpt lat="57.53154999576509" lon="-5.607772003859282">
        <ele>34.259999999999998</ele>
        <time>2019-09-04T11:02:05Z</time>
      </trkpt>
      <trkpt lat="57.531491992995143" lon="-5.608040979132056">
        <ele>34.740000000000002</ele>
        <time>2019-09-04T11:02:06Z</time>
      </trkpt>
      <trkpt lat="57.531422004103661" lon="-5.608298974111676">
        <ele>35.229999999999997</ele>
        <time>2019-09-04T11:02:07Z</time>
      </trkpt>
      <trkpt lat="57.531330976635218" lon="-5.608524028211832">
        <ele>35.710000000000001</ele>
        <time>2019-09-04T11:02:08Z</time>
      </trkpt>
      <trkpt lat="57.53122603520751" lon="-5.608728965744376">
        <ele>36.189999999999998</ele>
        <time>2019-09-04T11:02:09Z</time>
      </trkpt>
      <trkpt lat="57.531105000525713" lon="-5.608904985710979">
        <ele>36.189999999999998</ele>
        <time>2019-09-04T11:02:10Z</time>
      </trkpt>
      <trkpt lat="57.530965022742748" lon="-5.609060972929001">
        <ele>36.189999999999998</ele>
        <time>2019-09-04T11:02:11Z</time>
      </trkpt>
      <trkpt lat="57.530807023867965" lon="-5.609198017045856">
        <ele>36.670000000000002</ele>
        <time>2019-09-04T11:02:12Z</time>
      </trkpt>
      <trkpt lat="57.52950900234282" lon="-5.610652025789022">
        <ele>35.710000000000001</ele>
        <time>2019-09-04T11:02:21Z</time>
      </trkpt>
      <trkpt lat="57.528454978018999" lon="-5.612332010641694">
        <ele>34.259999999999998</ele>
        <time>2019-09-04T11:02:30Z</time>
      </trkpt>
      <trkpt lat="57.527131978422403" lon="-5.613382011651993">
        <ele>32.82</ele>
        <time>2019-09-04T11:02:38Z</time>
      </trkpt>
      <trkpt lat="57.52587896771729" lon="-5.614727977663279">
        <ele>29.460000000000001</ele>
        <time>2019-09-04T11:02:46Z</time>
      </trkpt>
      <trkpt lat="57.524761995300651" lon="-5.615688962861896">
        <ele>28.02</ele>
        <time>2019-09-04T11:02:54Z</time>
      </trkpt>
      <trkpt lat="57.523606969043612" lon="-5.616699988022447">
        <ele>25.609999999999999</ele>
        <time>2019-09-04T11:03:02Z</time>
      </trkpt>
      <trkpt lat="57.522405004128814" lon="-5.617660973221064">
        <ele>20.809999999999999</ele>
        <time>2019-09-04T11:03:11Z</time>
      </trkpt>
      <trkpt lat="57.521434966474771" lon="-5.618671998381615">
        <ele>14.08</ele>
        <time>2019-09-04T11:03:18Z</time>
      </trkpt>
      <trkpt lat="57.520930962637067" lon="-5.619473978877068">
        <ele>10.710000000000001</ele>
        <time>2019-09-04T11:03:22Z</time>
      </trkpt>
      <trkpt lat="57.520833984017372" lon="-5.619728034362197">
        <ele>10.23</ele>
        <time>2019-09-04T11:03:23Z</time>
      </trkpt>
      <trkpt lat="57.520740022882819" lon="-5.619990974664688">
        <ele>9.27</ele>
        <time>2019-09-04T11:03:24Z</time>
      </trkpt>
      <trkpt lat="57.520694006234407" lon="-5.620285011827946">
        <ele>8.789999999999999</ele>
        <time>2019-09-04T11:03:25Z</time>
      </trkpt>
      <trkpt lat="57.520646983757615" lon="-5.620586005970836">
        <ele>8.310000000000001</ele>
        <time>2019-09-04T11:03:26Z</time>
      </trkpt>
      <trkpt lat="57.520638015121222" lon="-5.62091700732708">
        <ele>8.310000000000001</ele>
        <time>2019-09-04T11:03:27Z</time>
      </trkpt>
      <trkpt lat="57.520676990970969" lon="-5.62121900729835">
        <ele>8.310000000000001</ele>
        <time>2019-09-04T11:03:28Z</time>
      </trkpt>
      <trkpt lat="57.520722001791" lon="-5.621515978127718">
        <ele>8.310000000000001</ele>
        <time>2019-09-04T11:03:29Z</time>
      </trkpt>
      <trkpt lat="57.520769024267793" lon="-5.621826024726033">
        <ele>8.789999999999999</ele>
        <time>2019-09-04T11:03:30Z</time>
      </trkpt>
      <trkpt lat="57.520837001502514" lon="-5.622110003605485">
        <ele>8.789999999999999</ele>
        <time>2019-09-04T11:03:31Z</time>
      </trkpt>
      <trkpt lat="57.52091696485877" lon="-5.622370010241866">
        <ele>8.789999999999999</ele>
        <time>2019-09-04T11:03:32Z</time>
      </trkpt>
      <trkpt lat="57.521534962579608" lon="-5.624812999740243">
        <ele>8.310000000000001</ele>
        <time>2019-09-04T11:03:41Z</time>
      </trkpt>
      <trkpt lat="57.521832017228007" lon="-5.628040032461286">
        <ele>9.75</ele>
        <time>2019-09-04T11:03:51Z</time>
      </trkpt>
      <trkpt lat="57.521913992241025" lon="-5.631621032953262">
        <ele>15.039999999999999</ele>
        <time>2019-09-04T11:04:01Z</time>
      </trkpt>
      <trkpt lat="57.522095963358879" lon="-5.632612025365233">
        <ele>15.52</ele>
        <time>2019-09-04T11:04:04Z</time>
      </trkpt>
      <trkpt lat="57.522168969735503" lon="-5.632903967052698">
        <ele>15.52</ele>
        <time>2019-09-04T11:04:05Z</time>
      </trkpt>
      <trkpt lat="57.522251028567553" lon="-5.633180988952518">
        <ele>15.039999999999999</ele>
        <time>2019-09-04T11:04:06Z</time>
      </trkpt>
      <trkpt lat="57.522365022450686" lon="-5.633397996425629">
        <ele>14.56</ele>
        <time>2019-09-04T11:04:07Z</time>
      </trkpt>
      <trkpt lat="57.522477004677057" lon="-5.633612992241979">
        <ele>14.08</ele>
        <time>2019-09-04T11:04:08Z</time>
      </trkpt>
      <trkpt lat="57.52263299189508" lon="-5.633737966418266">
        <ele>13.6</ele>
        <time>2019-09-04T11:04:09Z</time>
      </trkpt>
      <trkpt lat="57.522787973284721" lon="-5.63385397195816">
        <ele>13.119999999999999</ele>
        <time>2019-09-04T11:04:10Z</time>
      </trkpt>
      <trkpt lat="57.522956030443311" lon="-5.63389303162694">
        <ele>13.119999999999999</ele>
        <time>2019-09-04T11:04:11Z</time>
      </trkpt>
      <trkpt lat="57.523129032924771" lon="-5.633905017748475">
        <ele>13.119999999999999</ele>
        <time>2019-09-04T11:04:12Z</time>
      </trkpt>
      <trkpt lat="57.523303041234612" lon="-5.63391700387001">
        <ele>13.119999999999999</ele>
        <time>2019-09-04T11:04:13Z</time>
      </trkpt>
      <trkpt lat="57.523464979603887" lon="-5.633928989991546">
        <ele>13.6</ele>
        <time>2019-09-04T11:04:14Z</time>
      </trkpt>
      <trkpt lat="57.524163024500012" lon="-5.634058993309736">
        <ele>17.440000000000001</ele>
        <time>2019-09-04T11:04:19Z</time>
      </trkpt>
      <trkpt lat="57.524278024211526" lon="-5.634136022999883">
        <ele>17.920000000000002</ele>
        <time>2019-09-04T11:04:20Z</time>
      </trkpt>
      <trkpt lat="57.524376008659601" lon="-5.634276000782847">
        <ele>18.399999999999999</ele>
        <time>2019-09-04T11:04:21Z</time>
      </trkpt>
      <trkpt lat="57.524467036128044" lon="-5.634441040456295">
        <ele>18.399999999999999</ele>
        <time>2019-09-04T11:04:22Z</time>
      </trkpt>
      <trkpt lat="57.524559991434216" lon="-5.634632986038923">
        <ele>18.399999999999999</ele>
        <time>2019-09-04T11:04:23Z</time>
      </trkpt>
      <trkpt lat="57.524661999195814" lon="-5.634842030704022">
        <ele>18.879999999999999</ele>
        <time>2019-09-04T11:04:24Z</time>
      </trkpt>
      <trkpt lat="57.52564100548625" lon="-5.637348974123597">
        <ele>25.129999999999999</ele>
        <time>2019-09-04T11:04:34Z</time>
      </trkpt>
      <trkpt lat="57.525932025164366" lon="-5.638463012874126">
        <ele>28.5</ele>
        <time>2019-09-04T11:04:38Z</time>
      </trkpt>
      <trkpt lat="57.525972006842494" lon="-5.638775993138552">
        <ele>28.98</ele>
        <time>2019-09-04T11:04:39Z</time>
      </trkpt>
      <trkpt lat="57.526012994349003" lon="-5.639100037515163">
        <ele>29.460000000000001</ele>
        <time>2019-09-04T11:04:40Z</time>
      </trkpt>
      <trkpt lat="57.526040989905596" lon="-5.639430033043027">
        <ele>29.940000000000001</ele>
        <time>2019-09-04T11:04:41Z</time>
      </trkpt>
      <trkpt lat="57.526022968813777" lon="-5.639771008864045">
        <ele>30.420000000000002</ele>
        <time>2019-09-04T11:04:42Z</time>
      </trkpt>
      <trkpt lat="57.526004025712609" lon="-5.640118019655347">
        <ele>30.420000000000002</ele>
        <time>2019-09-04T11:04:43Z</time>
      </trkpt>
      <trkpt lat="57.52598499879241" lon="-5.640463018789887">
        <ele>30.899999999999999</ele>
        <time>2019-09-04T11:04:44Z</time>
      </trkpt>
      <trkpt lat="57.525945017114282" lon="-5.640793014317751">
        <ele>30.420000000000002</ele>
        <time>2019-09-04T11:04:45Z</time>
      </trkpt>
      <trkpt lat="57.525594988837838" lon="-5.643064007163048">
        <ele>25.129999999999999</ele>
        <time>2019-09-04T11:04:53Z</time>
      </trkpt>
      <trkpt lat="57.52553204074502" lon="-5.643259976059198">
        <ele>24.649999999999999</ele>
        <time>2019-09-04T11:04:54Z</time>
      </trkpt>
      <trkpt lat="57.524811029434204" lon="-5.644584987312555">
        <ele>21.77</ele>
        <time>2019-09-04T11:05:03Z</time>
      </trkpt>
      <trkpt lat="57.5240099709481" lon="-5.645676981657744">
        <ele>21.77</ele>
        <time>2019-09-04T11:05:11Z</time>
      </trkpt>
      <trkpt lat="57.523884996771812" lon="-5.645750993862748">
        <ele>21.77</ele>
        <time>2019-09-04T11:05:12Z</time>
      </trkpt>
      <trkpt lat="57.523757005110383" lon="-5.645807990804315">
        <ele>22.25</ele>
        <time>2019-09-04T11:05:13Z</time>
      </trkpt>
      <trkpt lat="57.523630019277334" lon="-5.645864987745881">
        <ele>22.73</ele>
        <time>2019-09-04T11:05:14Z</time>
      </trkpt>
      <trkpt lat="57.523504039272666" lon="-5.645920978859067">
        <ele>22.73</ele>
        <time>2019-09-04T11:05:15Z</time>
      </trkpt>
      <trkpt lat="57.523378981277347" lon="-5.645958026871085">
        <ele>23.210000000000001</ele>
        <time>2019-09-04T11:05:16Z</time>
      </trkpt>
      <trkpt lat="57.522764001041651" lon="-5.645786030218005">
        <ele>25.129999999999999</ele>
        <time>2019-09-04T11:05:23Z</time>
      </trkpt>
      <trkpt lat="57.521832017228007" lon="-5.645283032208681">
        <ele>28.02</ele>
        <time>2019-09-04T11:05:33Z</time>
      </trkpt>
      <trkpt lat="57.521244026720524" lon="-5.645353021100164">
        <ele>29.460000000000001</ele>
        <time>2019-09-04T11:05:39Z</time>
      </trkpt>
      <trkpt lat="57.521159034222364" lon="-5.645413035526872">
        <ele>29.460000000000001</ele>
        <time>2019-09-04T11:05:40Z</time>
      </trkpt>
      <trkpt lat="57.521067000925541" lon="-5.645492998883128">
        <ele>29.460000000000001</ele>
        <time>2019-09-04T11:05:41Z</time>
      </trkpt>
      <trkpt lat="57.520965998992324" lon="-5.645578997209668">
        <ele>29.460000000000001</ele>
        <time>2019-09-04T11:05:42Z</time>
      </trkpt>
      <trkpt lat="57.520868014544249" lon="-5.645705983042717">
        <ele>29.460000000000001</ele>
        <time>2019-09-04T11:05:43Z</time>
      </trkpt>
      <trkpt lat="57.520772963762283" lon="-5.645870016887784">
        <ele>29.460000000000001</ele>
        <time>2019-09-04T11:05:44Z</time>
      </trkpt>
      <trkpt lat="57.520681014284492" lon="-5.646029021590948">
        <ele>29.940000000000001</ele>
        <time>2019-09-04T11:05:45Z</time>
      </trkpt>
      <trkpt lat="57.520594010129571" lon="-5.646250974386931">
        <ele>29.940000000000001</ele>
        <time>2019-09-04T11:05:46Z</time>
      </trkpt>
      <trkpt lat="57.520513962954283" lon="-5.646455995738506">
        <ele>29.940000000000001</ele>
        <time>2019-09-04T11:05:47Z</time>
      </trkpt>
      <trkpt lat="57.520063016563654" lon="-5.647571040317416">
        <ele>28.5</ele>
        <time>2019-09-04T11:05:54Z</time>
      </trkpt>
      <trkpt lat="57.51971298828721" lon="-5.648172022774816">
        <ele>25.609999999999999</ele>
        <time>2019-09-04T11:05:59Z</time>
      </trkpt>
      <trkpt lat="57.519622966647148" lon="-5.648281993344426">
        <ele>25.129999999999999</ele>
        <time>2019-09-04T11:06:00Z</time>
      </trkpt>
      <trkpt lat="57.519533028826118" lon="-5.648391963914037">
        <ele>23.690000000000001</ele>
        <time>2019-09-04T11:06:01Z</time>
      </trkpt>
      <trkpt lat="57.519426997750998" lon="-5.648458013311029">
        <ele>22.25</ele>
        <time>2019-09-04T11:06:02Z</time>
      </trkpt>
      <trkpt lat="57.519314009696245" lon="-5.648496989160776">
        <ele>20.809999999999999</ele>
        <time>2019-09-04T11:06:03Z</time>
      </trkpt>
      <trkpt lat="57.519202027469873" lon="-5.648536970838904">
        <ele>19.84</ele>
        <time>2019-09-04T11:06:04Z</time>
      </trkpt>
      <trkpt lat="57.519086021929979" lon="-5.648577036336064">
        <ele>18.879999999999999</ele>
        <time>2019-09-04T11:06:05Z</time>
      </trkpt>
      <trkpt lat="57.518961969763041" lon="-5.648565972223878">
        <ele>17.440000000000001</ele>
        <time>2019-09-04T11:06:06Z</time>
      </trkpt>
      <trkpt lat="57.518832972273231" lon="-5.64854702912271">
        <ele>16.48</ele>
        <time>2019-09-04T11:06:07Z</time>
      </trkpt>
      <trkpt lat="57.518699029460549" lon="-5.64852699637413">
        <ele>15.039999999999999</ele>
        <time>2019-09-04T11:06:08Z</time>
      </trkpt>
      <trkpt lat="57.517896965146065" lon="-5.648338990285993">
        <ele>7.83</ele>
        <time>2019-09-04T11:06:14Z</time>
      </trkpt>
      <trkpt lat="57.517761010676622" lon="-5.64829096198082">
        <ele>7.35</ele>
        <time>2019-09-04T11:06:15Z</time>
      </trkpt>
      <trkpt lat="57.517620027065277" lon="-5.648242011666298">
        <ele>6.39</ele>
        <time>2019-09-04T11:06:16Z</time>
      </trkpt>
      <trkpt lat="57.516334997490048" lon="-5.647448999807239">
        <ele>3.02</ele>
        <time>2019-09-04T11:06:25Z</time>
      </trkpt>
      <trkpt lat="57.515378035604954" lon="-5.646780962124467">
        <ele>1.1</ele>
        <time>2019-09-04T11:06:32Z</time>
      </trkpt>
      <trkpt lat="57.51524300314486" lon="-5.64668096601963">
        <ele>1.1</ele>
        <time>2019-09-04T11:06:33Z</time>
      </trkpt>
      <trkpt lat="57.514645960181952" lon="-5.645843027159572">
        <ele>0.62</ele>
        <time>2019-09-04T11:06:38Z</time>
      </trkpt>
      <trkpt lat="57.514290986582637" lon="-5.645360983908176">
        <ele>0.62</ele>
        <time>2019-09-04T11:06:41Z</time>
      </trkpt>
      <trkpt lat="57.514157965779305" lon="-5.645212959498167">
        <ele>1.1</ele>
        <time>2019-09-04T11:06:42Z</time>
      </trkpt>
      <trkpt lat="57.51386702992022" lon="-5.645085973665118">
        <ele>3.02</ele>
        <time>2019-09-04T11:06:44Z</time>
      </trkpt>
      <trkpt lat="57.513564024120569" lon="-5.644953958690167">
        <ele>5.42</ele>
        <time>2019-09-04T11:06:46Z</time>
      </trkpt>
      <trkpt lat="57.512589041143656" lon="-5.644528996199369">
        <ele>11.67</ele>
        <time>2019-09-04T11:06:54Z</time>
      </trkpt>
      <trkpt lat="57.512354012578726" lon="-5.644425982609391">
        <ele>14.08</ele>
        <time>2019-09-04T11:06:58Z</time>
      </trkpt>
      <trkpt lat="57.512291986495256" lon="-5.644399998709559">
        <ele>14.56</ele>
        <time>2019-09-04T11:06:59Z</time>
      </trkpt>
      <trkpt lat="57.512237001210451" lon="-5.644375020638108">
        <ele>15.039999999999999</ele>
        <time>2019-09-04T11:07:00Z</time>
      </trkpt>
      <trkpt lat="57.512196013703942" lon="-5.64435800537467">
        <ele>15.52</ele>
        <time>2019-09-04T11:07:01Z</time>
      </trkpt>
      <trkpt lat="57.512156032025814" lon="-5.644339984282851">
        <ele>15.52</ele>
        <time>2019-09-04T11:07:02Z</time>
      </trkpt>
      <trkpt lat="57.512109009549022" lon="-5.644320035353303">
        <ele>16</ele>
        <time>2019-09-04T11:07:03Z</time>
      </trkpt>
      <trkpt lat="57.512054024264216" lon="-5.644295979291201">
        <ele>16.48</ele>
        <time>2019-09-04T11:07:04Z</time>
      </trkpt>
      <trkpt lat="57.511985963210464" lon="-5.644266977906227">
        <ele>16.960000000000001</ele>
        <time>2019-09-04T11:07:05Z</time>
      </trkpt>
      <trkpt lat="57.511912034824491" lon="-5.644235964864492">
        <ele>17.440000000000001</ele>
        <time>2019-09-04T11:07:06Z</time>
      </trkpt>
      <trkpt lat="57.511740038171411" lon="-5.644162036478519">
        <ele>17.920000000000002</ele>
        <time>2019-09-04T11:07:08Z</time>
      </trkpt>
      <trkpt lat="57.511662002652884" lon="-5.644119959324598">
        <ele>17.920000000000002</ele>
        <time>2019-09-04T11:07:09Z</time>
      </trkpt>
      <trkpt lat="57.511586984619498" lon="-5.644065979868174">
        <ele>17.440000000000001</ele>
        <time>2019-09-04T11:07:10Z</time>
      </trkpt>
      <trkpt lat="57.511349022388458" lon="-5.643893983215094">
        <ele>16.960000000000001</ele>
        <time>2019-09-04T11:07:13Z</time>
      </trkpt>
      <trkpt lat="57.511265035718679" lon="-5.643775966018438">
        <ele>16.48</ele>
        <time>2019-09-04T11:07:14Z</time>
      </trkpt>
      <trkpt lat="57.511208960786462" lon="-5.643653003498912">
        <ele>16.48</ele>
        <time>2019-09-04T11:07:15Z</time>
      </trkpt>
      <trkpt lat="57.511161016300321" lon="-5.643547978252173">
        <ele>16</ele>
        <time>2019-09-04T11:07:16Z</time>
      </trkpt>
      <trkpt lat="57.511116005480289" lon="-5.643450999632478">
        <ele>16</ele>
        <time>2019-09-04T11:07:17Z</time>
      </trkpt>
      <trkpt lat="57.5110740121454" lon="-5.643357960507274">
        <ele>15.52</ele>
        <time>2019-09-04T11:07:18Z</time>
      </trkpt>
      <trkpt lat="57.511039981618524" lon="-5.643234997987747">
        <ele>15.52</ele>
        <time>2019-09-04T11:07:19Z</time>
      </trkpt>
      <trkpt lat="57.511016009375453" lon="-5.643138019368053">
        <ele>15.039999999999999</ele>
        <time>2019-09-04T11:07:20Z</time>
      </trkpt>
      <trkpt lat="57.510999999940395" lon="-5.643075993284583">
        <ele>14.56</ele>
        <time>2019-09-04T11:07:21Z</time>
      </trkpt>
      <trkpt lat="57.510987007990479" lon="-5.643023019656539">
        <ele>14.08</ele>
        <time>2019-09-04T11:07:22Z</time>
      </trkpt>
      <trkpt lat="57.510975021868944" lon="-5.642974991351366">
        <ele>13.6</ele>
        <time>2019-09-04T11:07:23Z</time>
      </trkpt>
      <trkpt lat="57.510963035747409" lon="-5.642926963046193">
        <ele>13.6</ele>
        <time>2019-09-04T11:07:24Z</time>
      </trkpt>
      <trkpt lat="57.510949959978461" lon="-5.642877006903291">
        <ele>13.119999999999999</ele>
        <time>2019-09-04T11:07:25Z</time>
      </trkpt>
      <trkpt lat="57.510937973856926" lon="-5.642830990254879">
        <ele>13.6</ele>
        <time>2019-09-04T11:07:26Z</time>
      </trkpt>
      <trkpt lat="57.510926993563771" lon="-5.642951019108295">
        <ele>13.6</ele>
        <time>2019-09-04T11:07:27Z</time>
      </trkpt>
      <trkpt lat="57.510907966643572" lon="-5.642969962209463">
        <ele>13.6</ele>
        <time>2019-09-04T11:07:28Z</time>
      </trkpt>
      <trkpt lat="57.510852981358767" lon="-5.6430250313133">
        <ele>13.119999999999999</ele>
        <time>2019-09-04T11:07:29Z</time>
      </trkpt>
      <trkpt lat="57.510852981358767" lon="-5.6430250313133">
        <ele>13.119999999999999</ele>
        <time>2019-09-04T11:07:30Z</time>
      </trkpt>
      <trkpt lat="57.510820040479302" lon="-5.643174983561039">
        <ele>13.119999999999999</ele>
        <time>2019-09-04T11:07:32Z</time>
      </trkpt>
      <trkpt lat="57.510790033265948" lon="-5.643311021849513">
        <ele>12.630000000000001</ele>
        <time>2019-09-04T11:07:33Z</time>
      </trkpt>
      <trkpt lat="57.510757008567452" lon="-5.643460974097252">
        <ele>11.67</ele>
        <time>2019-09-04T11:07:34Z</time>
      </trkpt>
      <trkpt lat="57.510724989697337" lon="-5.643603969365358">
        <ele>11.19</ele>
        <time>2019-09-04T11:07:35Z</time>
      </trkpt>
      <trkpt lat="57.510647960007191" lon="-5.643655015155673">
        <ele>10.710000000000001</ele>
        <time>2019-09-04T11:07:36Z</time>
      </trkpt>
      <trkpt lat="57.510595992207527" lon="-5.643689967691898">
        <ele>10.710000000000001</ele>
        <time>2019-09-04T11:07:37Z</time>
      </trkpt>
      <trkpt lat="57.510529020801187" lon="-5.643683010712266">
        <ele>10.710000000000001</ele>
        <time>2019-09-04T11:07:38Z</time>
      </trkpt>
      <trkpt lat="57.510452996939421" lon="-5.643675969913602">
        <ele>10.23</ele>
        <time>2019-09-04T11:07:39Z</time>
      </trkpt>
      <trkpt lat="57.510380996391177" lon="-5.643668007105589">
        <ele>9.75</ele>
        <time>2019-09-04T11:07:40Z</time>
      </trkpt>
      <trkpt lat="57.510307990014553" lon="-5.643573040142655">
        <ele>9.27</ele>
        <time>2019-09-04T11:07:41Z</time>
      </trkpt>
      <trkpt lat="57.510234983637929" lon="-5.643478995189071">
        <ele>8.789999999999999</ele>
        <time>2019-09-04T11:07:42Z</time>
      </trkpt>
      <trkpt lat="57.510158037766814" lon="-5.643378999084234">
        <ele>8.310000000000001</ele>
        <time>2019-09-04T11:07:43Z</time>
      </trkpt>
      <trkpt lat="57.510083019733429" lon="-5.64328302629292">
        <ele>7.35</ele>
        <time>2019-09-04T11:07:44Z</time>
      </trkpt>
      <trkpt lat="57.510015964508057" lon="-5.643196022138">
        <ele>6.39</ele>
        <time>2019-09-04T11:07:45Z</time>
      </trkpt>
      <trkpt lat="57.509954022243619" lon="-5.643116980791092">
        <ele>5.91</ele>
        <time>2019-09-04T11:07:46Z</time>
      </trkpt>
      <trkpt lat="57.509866012260318" lon="-5.643002986907959">
        <ele>4.94</ele>
        <time>2019-09-04T11:07:47Z</time>
      </trkpt>
      <trkpt lat="57.509801974520087" lon="-5.642830990254879">
        <ele>4.46</ele>
        <time>2019-09-04T11:07:48Z</time>
      </trkpt>
      <trkpt lat="57.509801974520087" lon="-5.642718002200127">
        <ele>3.98</ele>
        <time>2019-09-04T11:07:49Z</time>
      </trkpt>
      <trkpt lat="57.509801974520087" lon="-5.64257500693202">
        <ele>3.98</ele>
        <time>2019-09-04T11:07:50Z</time>
      </trkpt>
      <trkpt lat="57.509801974520087" lon="-5.642423965036869">
        <ele>3.5</ele>
        <time>2019-09-04T11:07:51Z</time>
      </trkpt>
      <trkpt lat="57.509770961478353" lon="-5.642318017780781">
        <ele>3.98</ele>
        <time>2019-09-04T11:07:52Z</time>
      </trkpt>
      <trkpt lat="57.509731985628605" lon="-5.642186002805829">
        <ele>3.98</ele>
        <time>2019-09-04T11:07:53Z</time>
      </trkpt>
      <trkpt lat="57.509628972038627" lon="-5.6420389842242">
        <ele>3.98</ele>
        <time>2019-09-04T11:07:54Z</time>
      </trkpt>
      <trkpt lat="57.509534005075693" lon="-5.642010988667607">
        <ele>3.98</ele>
        <time>2019-09-04T11:07:55Z</time>
      </trkpt>
      <trkpt lat="57.509480025619268" lon="-5.64199497923255">
        <ele>4.46</ele>
        <time>2019-09-04T11:07:56Z</time>
      </trkpt>
      <trkpt lat="57.509371982887387" lon="-5.642149960622191">
        <ele>4.94</ele>
        <time>2019-09-04T11:07:57Z</time>
      </trkpt>
      <trkpt lat="57.509329989552498" lon="-5.642208969220519">
        <ele>5.42</ele>
        <time>2019-09-04T11:07:58Z</time>
      </trkpt>
      <trkpt lat="57.509299982339144" lon="-5.642350958660245">
        <ele>5.91</ele>
        <time>2019-09-04T11:07:59Z</time>
      </trkpt>
      <trkpt lat="57.509268969297409" lon="-5.642494959756732">
        <ele>6.87</ele>
        <time>2019-09-04T11:08:00Z</time>
      </trkpt>
      <trkpt lat="57.509272992610931" lon="-5.642607025802136">
        <ele>7.35</ele>
        <time>2019-09-04T11:08:01Z</time>
      </trkpt>
      <trkpt lat="57.509286990389228" lon="-5.642787991091609">
        <ele>8.310000000000001</ele>
        <time>2019-09-04T11:08:02Z</time>
      </trkpt>
      <trkpt lat="57.509329989552498" lon="-5.64294196665287">
        <ele>9.27</ele>
        <time>2019-09-04T11:08:03Z</time>
      </trkpt>
      <trkpt lat="57.509384974837303" lon="-5.643138019368053">
        <ele>10.23</ele>
        <time>2019-09-04T11:08:04Z</time>
      </trkpt>
      <trkpt lat="57.50944297760725" lon="-5.643343962728977">
        <ele>11.19</ele>
        <time>2019-09-04T11:08:05Z</time>
      </trkpt>
      <trkpt lat="57.509498968720436" lon="-5.643546972423792">
        <ele>11.67</ele>
        <time>2019-09-04T11:08:06Z</time>
      </trkpt>
      <trkpt lat="57.509597958996892" lon="-5.64392700791359">
        <ele>13.6</ele>
        <time>2019-09-04T11:08:08Z</time>
      </trkpt>
      <trkpt lat="57.509627966210246" lon="-5.644102022051811">
        <ele>13.6</ele>
        <time>2019-09-04T11:08:09Z</time>
      </trkpt>
      <trkpt lat="57.509612962603569" lon="-5.644329003989697">
        <ele>14.08</ele>
        <time>2019-09-04T11:08:10Z</time>
      </trkpt>
      <trkpt lat="57.50957096926868" lon="-5.644511980935931">
        <ele>14.08</ele>
        <time>2019-09-04T11:08:11Z</time>
      </trkpt>
      <trkpt lat="57.509525958448648" lon="-5.644674003124237">
        <ele>14.56</ele>
        <time>2019-09-04T11:08:12Z</time>
      </trkpt>
      <trkpt lat="57.509477008134127" lon="-5.644847005605698">
        <ele>14.56</ele>
        <time>2019-09-04T11:08:13Z</time>
      </trkpt>
      <trkpt lat="57.509016003459692" lon="-5.646492959931493">
        <ele>17.440000000000001</ele>
        <time>2019-09-04T11:08:21Z</time>
      </trkpt>
      <trkpt lat="57.508954983204603" lon="-5.646687000989914">
        <ele>17.920000000000002</ele>
        <time>2019-09-04T11:08:22Z</time>
      </trkpt>
      <trkpt lat="57.508866973221302" lon="-5.646815998479724">
        <ele>18.399999999999999</ele>
        <time>2019-09-04T11:08:23Z</time>
      </trkpt>
      <trkpt lat="57.508508982136846" lon="-5.647339029237628">
        <ele>17.440000000000001</ele>
        <time>2019-09-04T11:08:27Z</time>
      </trkpt>
      <trkpt lat="57.508406974375248" lon="-5.647487975656986">
        <ele>16.960000000000001</ele>
        <time>2019-09-04T11:08:28Z</time>
      </trkpt>
      <trkpt lat="57.508305972442031" lon="-5.647531980648637">
        <ele>16.960000000000001</ele>
        <time>2019-09-04T11:08:29Z</time>
      </trkpt>
      <trkpt lat="57.508212011307478" lon="-5.647573973983526">
        <ele>16.48</ele>
        <time>2019-09-04T11:08:30Z</time>
      </trkpt>
      <trkpt lat="57.508125007152557" lon="-5.647613033652306">
        <ele>16</ele>
        <time>2019-09-04T11:08:31Z</time>
      </trkpt>
      <trkpt lat="57.508038002997637" lon="-5.647652009502053">
        <ele>15.039999999999999</ele>
        <time>2019-09-04T11:08:32Z</time>
      </trkpt>
      <trkpt lat="57.507972959429026" lon="-5.647755023092032">
        <ele>14.08</ele>
        <time>2019-09-04T11:08:33Z</time>
      </trkpt>
      <trkpt lat="57.507924009114504" lon="-5.647854013368487">
        <ele>13.119999999999999</ele>
        <time>2019-09-04T11:08:34Z</time>
      </trkpt>
      <trkpt lat="57.507900958880782" lon="-5.648005977272987">
        <ele>12.630000000000001</ele>
        <time>2019-09-04T11:08:35Z</time>
      </trkpt>
      <trkpt lat="57.50791403464973" lon="-5.648131035268307">
        <ele>12.15</ele>
        <time>2019-09-04T11:08:36Z</time>
      </trkpt>
      <trkpt lat="57.507969019934535" lon="-5.648251986131072">
        <ele>11.67</ele>
        <time>2019-09-04T11:08:37Z</time>
      </trkpt>
      <trkpt lat="57.508030962198973" lon="-5.648389030247927">
        <ele>11.19</ele>
        <time>2019-09-04T11:08:38Z</time>
      </trkpt>
      <trkpt lat="57.508105980232358" lon="-5.648550968617201">
        <ele>11.19</ele>
        <time>2019-09-04T11:08:39Z</time>
      </trkpt>
      <trkpt lat="57.508184015750885" lon="-5.648722965270281">
        <ele>10.710000000000001</ele>
        <time>2019-09-04T11:08:40Z</time>
      </trkpt>
      <trkpt lat="57.508298009634018" lon="-5.649328976869583">
        <ele>11.19</ele>
        <time>2019-09-04T11:08:43Z</time>
      </trkpt>
      <trkpt lat="57.508279988542199" lon="-5.649475995451212">
        <ele>11.67</ele>
        <time>2019-09-04T11:08:44Z</time>
      </trkpt>
      <trkpt lat="57.50825903378427" lon="-5.64960197545588">
        <ele>12.630000000000001</ele>
        <time>2019-09-04T11:08:45Z</time>
      </trkpt>
      <trkpt lat="57.50821896828711" lon="-5.649838009849191">
        <ele>14.08</ele>
        <time>2019-09-04T11:08:47Z</time>
      </trkpt>
      <trkpt lat="57.508198013529181" lon="-5.650025010108948">
        <ele>14.56</ele>
        <time>2019-09-04T11:08:48Z</time>
      </trkpt>
      <trkpt lat="57.508222991600633" lon="-5.65015995875001">
        <ele>15.52</ele>
        <time>2019-09-04T11:08:49Z</time>
      </trkpt>
      <trkpt lat="57.508298009634018" lon="-5.650381995365024">
        <ele>16</ele>
        <time>2019-09-04T11:08:50Z</time>
      </trkpt>
      <trkpt lat="57.508377972990274" lon="-5.65046195872128">
        <ele>16.960000000000001</ele>
        <time>2019-09-04T11:08:51Z</time>
      </trkpt>
      <trkpt lat="57.508449973538518" lon="-5.650534965097904">
        <ele>18.399999999999999</ele>
        <time>2019-09-04T11:08:52Z</time>
      </trkpt>
      <trkpt lat="57.50862498767674" lon="-5.650548962876201">
        <ele>19.359999999999999</ele>
        <time>2019-09-04T11:08:53Z</time>
      </trkpt>
      <trkpt lat="57.508759014308453" lon="-5.650559021160007">
        <ele>20.32</ele>
        <time>2019-09-04T11:08:54Z</time>
      </trkpt>
      <trkpt lat="57.50888298265636" lon="-5.650568995624781">
        <ele>21.289999999999999</ele>
        <time>2019-09-04T11:08:55Z</time>
      </trkpt>
      <trkpt lat="57.508996976539493" lon="-5.650585005059838">
        <ele>22.25</ele>
        <time>2019-09-04T11:08:56Z</time>
      </trkpt>
      <trkpt lat="57.509091021493077" lon="-5.650651976466179">
        <ele>22.73</ele>
        <time>2019-09-04T11:08:57Z</time>
      </trkpt>
      <trkpt lat="57.509137038141489" lon="-5.650685001164675">
        <ele>23.690000000000001</ele>
        <time>2019-09-04T11:08:58Z</time>
      </trkpt>
      <trkpt lat="57.509230999276042" lon="-5.650860015302897">
        <ele>24.649999999999999</ele>
        <time>2019-09-04T11:08:59Z</time>
      </trkpt>
      <trkpt lat="57.509296964854002" lon="-5.650982977822423">
        <ele>26.09</ele>
        <time>2019-09-04T11:09:00Z</time>
      </trkpt>
      <trkpt lat="57.509367037564516" lon="-5.651112981140614">
        <ele>27.050000000000001</ele>
        <time>2019-09-04T11:09:01Z</time>
      </trkpt>
      <trkpt lat="57.509517995640635" lon="-5.651393020525575">
        <ele>30.420000000000002</ele>
        <time>2019-09-04T11:09:03Z</time>
      </trkpt>
      <trkpt lat="57.509600976482034" lon="-5.651563005521894">
        <ele>32.340000000000003</ele>
        <time>2019-09-04T11:09:04Z</time>
      </trkpt>
      <trkpt lat="57.509706001728773" lon="-5.65189803019166">
        <ele>35.229999999999997</ele>
        <time>2019-09-04T11:09:06Z</time>
      </trkpt>
      <trkpt lat="57.509780013933778" lon="-5.652004983276129">
        <ele>36.670000000000002</ele>
        <time>2019-09-04T11:09:07Z</time>
      </trkpt>
      <trkpt lat="57.509875986725092" lon="-5.652118977159262">
        <ele>38.109999999999999</ele>
        <time>2019-09-04T11:09:08Z</time>
      </trkpt>
      <trkpt lat="57.50997900031507" lon="-5.65224202349782">
        <ele>39.07</ele>
        <time>2019-09-04T11:09:09Z</time>
      </trkpt>
      <trkpt lat="57.510086037218571" lon="-5.652368003502488">
        <ele>40.030000000000001</ele>
        <time>2019-09-04T11:09:10Z</time>
      </trkpt>
      <trkpt lat="57.510312013328075" lon="-5.652636978775263">
        <ele>41.469999999999999</ele>
        <time>2019-09-04T11:09:12Z</time>
      </trkpt>
      <trkpt lat="57.510423995554447" lon="-5.65278097987175">
        <ele>41.469999999999999</ele>
        <time>2019-09-04T11:09:13Z</time>
      </trkpt>
      <trkpt lat="57.510694982483983" lon="-5.653277020901442">
        <ele>41.950000000000003</ele>
        <time>2019-09-04T11:09:16Z</time>
      </trkpt>
      <trkpt lat="57.510847030207515" lon="-5.653611961752176">
        <ele>41.950000000000003</ele>
        <time>2019-09-04T11:09:18Z</time>
      </trkpt>
      <trkpt lat="57.510938979685307" lon="-5.653817988932133">
        <ele>41.469999999999999</ele>
        <time>2019-09-04T11:09:19Z</time>
      </trkpt>
      <trkpt lat="57.511048028245568" lon="-5.654235994443297">
        <ele>40.509999999999998</ele>
        <time>2019-09-04T11:09:21Z</time>
      </trkpt>
      <trkpt lat="57.511132014915347" lon="-5.654492983594537">
        <ele>39.549999999999997</ele>
        <time>2019-09-04T11:09:22Z</time>
      </trkpt>
      <trkpt lat="57.511260006576777" lon="-5.654699010774493">
        <ele>38.590000000000003</ele>
        <time>2019-09-04T11:09:23Z</time>
      </trkpt>
      <trkpt lat="57.511634007096291" lon="-5.655028000473976">
        <ele>37.149999999999999</ele>
        <time>2019-09-04T11:09:26Z</time>
      </trkpt>
      <trkpt lat="57.512190984562039" lon="-5.655525969341397">
        <ele>38.590000000000003</ele>
        <time>2019-09-04T11:09:31Z</time>
      </trkpt>
      <trkpt lat="57.512488039210439" lon="-5.656072972342372">
        <ele>40.030000000000001</ele>
        <time>2019-09-04T11:09:35Z</time>
      </trkpt>
      <trkpt lat="57.512561967596412" lon="-5.656227031722665">
        <ele>39.549999999999997</ele>
        <time>2019-09-04T11:09:36Z</time>
      </trkpt>
      <trkpt lat="57.512720972299576" lon="-5.656558033078909">
        <ele>39.549999999999997</ele>
        <time>2019-09-04T11:09:38Z</time>
      </trkpt>
      <trkpt lat="57.512913001701236" lon="-5.65707896836102">
        <ele>39.549999999999997</ele>
        <time>2019-09-04T11:09:41Z</time>
      </trkpt>
      <trkpt lat="57.512933034449816" lon="-5.657305028289557">
        <ele>39.549999999999997</ele>
        <time>2019-09-04T11:09:42Z</time>
      </trkpt>
      <trkpt lat="57.513032024726272" lon="-5.657695960253477">
        <ele>39.549999999999997</ele>
        <time>2019-09-04T11:09:44Z</time>
      </trkpt>
      <trkpt lat="57.513435026630759" lon="-5.658589974045754">
        <ele>41.469999999999999</ele>
        <time>2019-09-04T11:09:50Z</time>
      </trkpt>
      <trkpt lat="57.513490011915565" lon="-5.658733975142241">
        <ele>42.439999999999998</ele>
        <time>2019-09-04T11:09:51Z</time>
      </trkpt>
      <trkpt lat="57.513507027179003" lon="-5.658944025635719">
        <ele>42.439999999999998</ele>
        <time>2019-09-04T11:09:52Z</time>
      </trkpt>
      <trkpt lat="57.513498980551958" lon="-5.65911996178329">
        <ele>41.950000000000003</ele>
        <time>2019-09-04T11:09:53Z</time>
      </trkpt>
      <trkpt lat="57.513491017743945" lon="-5.659300005063415">
        <ele>41.950000000000003</ele>
        <time>2019-09-04T11:09:54Z</time>
      </trkpt>
      <trkpt lat="57.51348196528852" lon="-5.659493962302804">
        <ele>41.469999999999999</ele>
        <time>2019-09-04T11:09:55Z</time>
      </trkpt>
      <trkpt lat="57.513472996652126" lon="-5.659695966169238">
        <ele>40.509999999999998</ele>
        <time>2019-09-04T11:09:56Z</time>
      </trkpt>
      <trkpt lat="57.513414993882179" lon="-5.660958029329777">
        <ele>36.189999999999998</ele>
        <time>2019-09-04T11:10:02Z</time>
      </trkpt>
      <trkpt lat="57.513355985283852" lon="-5.662240041419864">
        <ele>31.859999999999999</ele>
        <time>2019-09-04T11:10:08Z</time>
      </trkpt>
      <trkpt lat="57.513362020254135" lon="-5.663491040468216">
        <ele>28.5</ele>
        <time>2019-09-04T11:10:15Z</time>
      </trkpt>
      <trkpt lat="57.513391021639109" lon="-5.66365197300911">
        <ele>27.050000000000001</ele>
        <time>2019-09-04T11:10:16Z</time>
      </trkpt>
      <trkpt lat="57.513423040509224" lon="-5.663812989369035">
        <ele>25.129999999999999</ele>
        <time>2019-09-04T11:10:17Z</time>
      </trkpt>
      <trkpt lat="57.513484982773662" lon="-5.663889013230801">
        <ele>23.690000000000001</ele>
        <time>2019-09-04T11:10:18Z</time>
      </trkpt>
      <trkpt lat="57.513541979715228" lon="-5.663938969373703">
        <ele>21.77</ele>
        <time>2019-09-04T11:10:19Z</time>
      </trkpt>
      <trkpt lat="57.513622026890516" lon="-5.664009964093566">
        <ele>20.32</ele>
        <time>2019-09-04T11:10:20Z</time>
      </trkpt>
      <trkpt lat="57.513638958334923" lon="-5.664002001285553">
        <ele>19.359999999999999</ele>
        <time>2019-09-04T11:10:21Z</time>
      </trkpt>
      <trkpt lat="57.51369796693325" lon="-5.663975011557341">
        <ele>17.920000000000002</ele>
        <time>2019-09-04T11:10:22Z</time>
      </trkpt>
      <trkpt lat="57.5137800257653" lon="-5.663937963545322">
        <ele>16.960000000000001</ele>
        <time>2019-09-04T11:10:23Z</time>
      </trkpt>
      <trkpt lat="57.513871975243092" lon="-5.663905022665858">
        <ele>16.48</ele>
        <time>2019-09-04T11:10:24Z</time>
      </trkpt>
      <trkpt lat="57.514008013531566" lon="-5.663923965767026">
        <ele>16.48</ele>
        <time>2019-09-04T11:10:25Z</time>
      </trkpt>
      <trkpt lat="57.51408495940268" lon="-5.664015999063849">
        <ele>16.960000000000001</ele>
        <time>2019-09-04T11:10:26Z</time>
      </trkpt>
      <trkpt lat="57.514222003519535" lon="-5.664181960746646">
        <ele>17.440000000000001</ele>
        <time>2019-09-04T11:10:27Z</time>
      </trkpt>
      <trkpt lat="57.514262991026044" lon="-5.664256978780031">
        <ele>17.920000000000002</ele>
        <time>2019-09-04T11:10:28Z</time>
      </trkpt>
      <trkpt lat="57.514880988746881" lon="-5.665406975895166">
        <ele>21.289999999999999</ele>
        <time>2019-09-04T11:10:38Z</time>
      </trkpt>
      <trkpt lat="57.515551038086414" lon="-5.666653029620647">
        <ele>20.809999999999999</ele>
        <time>2019-09-04T11:10:46Z</time>
      </trkpt>
      <trkpt lat="57.515613986179233" lon="-5.66683298908174">
        <ele>20.809999999999999</ele>
        <time>2019-09-04T11:10:47Z</time>
      </trkpt>
      <trkpt lat="57.515651034191251" lon="-5.667031975463033">
        <ele>20.32</ele>
        <time>2019-09-04T11:10:48Z</time>
      </trkpt>
      <trkpt lat="57.516113966703415" lon="-5.668716989457607">
        <ele>15.039999999999999</ele>
        <time>2019-09-04T11:10:56Z</time>
      </trkpt>
      <trkpt lat="57.516325023025274" lon="-5.669253012165427">
        <ele>13.6</ele>
        <time>2019-09-04T11:10:59Z</time>
      </trkpt>
      <trkpt lat="57.516401968896389" lon="-5.669430959969759">
        <ele>13.119999999999999</ele>
        <time>2019-09-04T11:11:00Z</time>
      </trkpt>
      <trkpt lat="57.516499031335115" lon="-5.66953799687326">
        <ele>13.119999999999999</ele>
        <time>2019-09-04T11:11:01Z</time>
      </trkpt>
      <trkpt lat="57.516603972762823" lon="-5.669652996584773">
        <ele>13.119999999999999</ele>
        <time>2019-09-04T11:11:02Z</time>
      </trkpt>
      <trkpt lat="57.516716038808227" lon="-5.669712005183101">
        <ele>13.6</ele>
        <time>2019-09-04T11:11:03Z</time>
      </trkpt>
      <trkpt lat="57.517823958769441" lon="-5.670341989025474">
        <ele>24.170000000000002</ele>
        <time>2019-09-04T11:11:12Z</time>
      </trkpt>
      <trkpt lat="57.518148003146052" lon="-5.670657986775041">
        <ele>30.899999999999999</ele>
        <time>2019-09-04T11:11:15Z</time>
      </trkpt>
      <trkpt lat="57.518238024786115" lon="-5.670756977051497">
        <ele>32.82</ele>
        <time>2019-09-04T11:11:16Z</time>
      </trkpt>
      <trkpt lat="57.518460983410478" lon="-5.670951018109918">
        <ele>38.109999999999999</ele>
        <time>2019-09-04T11:11:19Z</time>
      </trkpt>
      <trkpt lat="57.518533989787102" lon="-5.670981025323272">
        <ele>39.549999999999997</ele>
        <time>2019-09-04T11:11:20Z</time>
      </trkpt>
      <trkpt lat="57.519204961135983" lon="-5.671176994219422">
        <ele>46.280000000000001</ele>
        <time>2019-09-04T11:11:27Z</time>
      </trkpt>
      <trkpt lat="57.519317027181387" lon="-5.671122008934617">
        <ele>46.759999999999998</ele>
        <time>2019-09-04T11:11:28Z</time>
      </trkpt>
      <trkpt lat="57.519406965002418" lon="-5.671054031699896">
        <ele>46.759999999999998</ele>
        <time>2019-09-04T11:11:29Z</time>
      </trkpt>
      <trkpt lat="57.519575022161007" lon="-5.671008015051484">
        <ele>46.759999999999998</ele>
        <time>2019-09-04T11:11:31Z</time>
      </trkpt>
      <trkpt lat="57.519667977467179" lon="-5.671038022264838">
        <ele>46.759999999999998</ele>
        <time>2019-09-04T11:11:32Z</time>
      </trkpt>
      <trkpt lat="57.519769985228777" lon="-5.671070041134954">
        <ele>46.759999999999998</ele>
        <time>2019-09-04T11:11:33Z</time>
      </trkpt>
      <trkpt lat="57.519876016303897" lon="-5.671103987842798">
        <ele>46.759999999999998</ele>
        <time>2019-09-04T11:11:34Z</time>
      </trkpt>
      <trkpt lat="57.519979029893875" lon="-5.671137012541294">
        <ele>46.759999999999998</ele>
        <time>2019-09-04T11:11:35Z</time>
      </trkpt>
      <trkpt lat="57.520231995731592" lon="-5.671335998922586">
        <ele>46.759999999999998</ele>
        <time>2019-09-04T11:11:38Z</time>
      </trkpt>
      <trkpt lat="57.520295027643442" lon="-5.671413028612733">
        <ele>46.280000000000001</ele>
        <time>2019-09-04T11:11:39Z</time>
      </trkpt>
      <trkpt lat="57.520358981564641" lon="-5.671559041365981">
        <ele>45.799999999999997</ele>
        <time>2019-09-04T11:11:40Z</time>
      </trkpt>
      <trkpt lat="57.520680008456111" lon="-5.672283992171288">
        <ele>40.030000000000001</ele>
        <time>2019-09-04T11:11:44Z</time>
      </trkpt>
      <trkpt lat="57.521635964512825" lon="-5.674441996961832">
        <ele>23.690000000000001</ele>
        <time>2019-09-04T11:11:53Z</time>
      </trkpt>
      <trkpt lat="57.522125970572233" lon="-5.675738006830216">
        <ele>21.77</ele>
        <time>2019-09-04T11:11:59Z</time>
      </trkpt>
      <trkpt lat="57.522637015208602" lon="-5.677350014448166">
        <ele>23.690000000000001</ele>
        <time>2019-09-04T11:12:07Z</time>
      </trkpt>
      <trkpt lat="57.522780010476708" lon="-5.677739018574357">
        <ele>22.73</ele>
        <time>2019-09-04T11:12:09Z</time>
      </trkpt>
      <trkpt lat="57.522886963561177" lon="-5.677932975813747">
        <ele>22.25</ele>
        <time>2019-09-04T11:12:10Z</time>
      </trkpt>
      <trkpt lat="57.523100031539798" lon="-5.6782600376755">
        <ele>21.289999999999999</ele>
        <time>2019-09-04T11:12:12Z</time>
      </trkpt>
      <trkpt lat="57.523193992674351" lon="-5.678439997136593">
        <ele>20.809999999999999</ele>
        <time>2019-09-04T11:12:13Z</time>
      </trkpt>
      <trkpt lat="57.523288037627935" lon="-5.678634960204363">
        <ele>20.32</ele>
        <time>2019-09-04T11:12:14Z</time>
      </trkpt>
      <trkpt lat="57.523822970688343" lon="-5.679748998954892">
        <ele>17.920000000000002</ele>
        <time>2019-09-04T11:12:20Z</time>
      </trkpt>
      <trkpt lat="57.523891031742096" lon="-5.679889982566237">
        <ele>17.920000000000002</ele>
        <time>2019-09-04T11:12:21Z</time>
      </trkpt>
      <trkpt lat="57.523961020633578" lon="-5.680000958964229">
        <ele>18.399999999999999</ele>
        <time>2019-09-04T11:12:22Z</time>
      </trkpt>
      <trkpt lat="57.524047018960118" lon="-5.6800870411098">
        <ele>18.879999999999999</ele>
        <time>2019-09-04T11:12:23Z</time>
      </trkpt>
      <trkpt lat="57.524141985923052" lon="-5.680114030838013">
        <ele>19.84</ele>
        <time>2019-09-04T11:12:24Z</time>
      </trkpt>
      <trkpt lat="57.524247011169791" lon="-5.680144038051367">
        <ele>20.809999999999999</ele>
        <time>2019-09-04T11:12:25Z</time>
      </trkpt>
      <trkpt lat="57.524328986182809" lon="-5.680168010294437">
        <ele>21.289999999999999</ele>
        <time>2019-09-04T11:12:26Z</time>
      </trkpt>
      <trkpt lat="57.524435017257929" lon="-5.68030396476388">
        <ele>21.289999999999999</ele>
        <time>2019-09-04T11:12:27Z</time>
      </trkpt>
      <trkpt lat="57.524516992270947" lon="-5.680409995839">
        <ele>21.289999999999999</ele>
        <time>2019-09-04T11:12:28Z</time>
      </trkpt>
      <trkpt lat="57.524628974497318" lon="-5.680553996935487">
        <ele>21.77</ele>
        <time>2019-09-04T11:12:29Z</time>
      </trkpt>
      <trkpt lat="57.524653030559421" lon="-5.680687017738819">
        <ele>21.77</ele>
        <time>2019-09-04T11:12:30Z</time>
      </trkpt>
      <trkpt lat="57.524685971438885" lon="-5.680869994685054">
        <ele>22.25</ele>
        <time>2019-09-04T11:12:31Z</time>
      </trkpt>
      <trkpt lat="57.524718996137381" lon="-5.681058000773192">
        <ele>22.73</ele>
        <time>2019-09-04T11:12:32Z</time>
      </trkpt>
      <trkpt lat="57.525072963908315" lon="-5.683078039437532">
        <ele>23.690000000000001</ele>
        <time>2019-09-04T11:12:42Z</time>
      </trkpt>
      <trkpt lat="57.525137001648545" lon="-5.683626970276237">
        <ele>22.25</ele>
        <time>2019-09-04T11:12:44Z</time>
      </trkpt>
      <trkpt lat="57.525170026347041" lon="-5.683906003832817">
        <ele>21.77</ele>
        <time>2019-09-04T11:12:45Z</time>
      </trkpt>
      <trkpt lat="57.525202967226505" lon="-5.685128001496196">
        <ele>22.25</ele>
        <time>2019-09-04T11:12:50Z</time>
      </trkpt>
      <trkpt lat="57.525204978883266" lon="-5.685293041169643">
        <ele>22.25</ele>
        <time>2019-09-04T11:12:51Z</time>
      </trkpt>
      <trkpt lat="57.525206990540028" lon="-5.685434024780989">
        <ele>22.73</ele>
        <time>2019-09-04T11:12:52Z</time>
      </trkpt>
      <trkpt lat="57.525230962783098" lon="-5.685557993128896">
        <ele>22.73</ele>
        <time>2019-09-04T11:12:53Z</time>
      </trkpt>
      <trkpt lat="57.525279996916652" lon="-5.685660000890493">
        <ele>22.73</ele>
        <time>2019-09-04T11:12:54Z</time>
      </trkpt>
      <trkpt lat="57.525331964716315" lon="-5.685768965631723">
        <ele>22.73</ele>
        <time>2019-09-04T11:12:55Z</time>
      </trkpt>
      <trkpt lat="57.525388039648533" lon="-5.685885976999998">
        <ele>23.210000000000001</ele>
        <time>2019-09-04T11:12:56Z</time>
      </trkpt>
      <trkpt lat="57.525444030761719" lon="-5.686005000025034">
        <ele>23.210000000000001</ele>
        <time>2019-09-04T11:12:57Z</time>
      </trkpt>
      <trkpt lat="57.525978041812778" lon="-5.68715600296855">
        <ele>33.299999999999997</ele>
        <time>2019-09-04T11:13:05Z</time>
      </trkpt>
      <trkpt lat="57.526039984077215" lon="-5.687304027378559">
        <ele>34.740000000000002</ele>
        <time>2019-09-04T11:13:06Z</time>
      </trkpt>
      <trkpt lat="57.526099998503923" lon="-5.687505025416613">
        <ele>35.710000000000001</ele>
        <time>2019-09-04T11:13:07Z</time>
      </trkpt>
      <trkpt lat="57.526257997378707" lon="-5.688646975904703">
        <ele>40.509999999999998</ele>
        <time>2019-09-04T11:13:13Z</time>
      </trkpt>
      <trkpt lat="57.526291022077203" lon="-5.68883003666997">
        <ele>40.990000000000002</ele>
        <time>2019-09-04T11:13:14Z</time>
      </trkpt>
      <trkpt lat="57.526376014575362" lon="-5.688957022503018">
        <ele>41.469999999999999</ele>
        <time>2019-09-04T11:13:15Z</time>
      </trkpt>
      <trkpt lat="57.526487996801734" lon="-5.689056012779474">
        <ele>41.950000000000003</ele>
        <time>2019-09-04T11:13:16Z</time>
      </trkpt>
      <trkpt lat="57.52661095932126" lon="-5.689132958650589">
        <ele>42.439999999999998</ele>
        <time>2019-09-04T11:13:17Z</time>
      </trkpt>
      <trkpt lat="57.526740040630102" lon="-5.689213005825877">
        <ele>43.399999999999999</ele>
        <time>2019-09-04T11:13:18Z</time>
      </trkpt>
      <trkpt lat="57.526859985664487" lon="-5.689288023859263">
        <ele>44.359999999999999</ele>
        <time>2019-09-04T11:13:19Z</time>
      </trkpt>
      <trkpt lat="57.526960987597704" lon="-5.6893499661237">
        <ele>45.32</ele>
        <time>2019-09-04T11:13:20Z</time>
      </trkpt>
      <trkpt lat="57.527034999802709" lon="-5.689402017742395">
        <ele>46.280000000000001</ele>
        <time>2019-09-04T11:13:21Z</time>
      </trkpt>
      <trkpt lat="57.527076993137598" lon="-5.689513999968767">
        <ele>47.719999999999999</ele>
        <time>2019-09-04T11:13:22Z</time>
      </trkpt>
      <trkpt lat="57.527097025886178" lon="-5.689618019387126">
        <ele>48.200000000000003</ele>
        <time>2019-09-04T11:13:23Z</time>
      </trkpt>
      <trkpt lat="57.527097025886178" lon="-5.689766965806484">
        <ele>49.159999999999997</ele>
        <time>2019-09-04T11:13:24Z</time>
      </trkpt>
      <trkpt lat="57.527097025886178" lon="-5.689941979944706">
        <ele>50.609999999999999</ele>
        <time>2019-09-04T11:13:25Z</time>
      </trkpt>
      <trkpt lat="57.527071963995695" lon="-5.690159993246198">
        <ele>51.090000000000003</ele>
        <time>2019-09-04T11:13:26Z</time>
      </trkpt>
      <trkpt lat="57.527011027559638" lon="-5.690351016819477">
        <ele>52.049999999999997</ele>
        <time>2019-09-04T11:13:27Z</time>
      </trkpt>
      <trkpt lat="57.52695101313293" lon="-5.690539022907615">
        <ele>53.009999999999998</ele>
        <time>2019-09-04T11:13:28Z</time>
      </trkpt>
      <trkpt lat="57.526834001764655" lon="-5.690903970971704">
        <ele>53.009999999999998</ele>
        <time>2019-09-04T11:13:30Z</time>
      </trkpt>
      <trkpt lat="57.52677901647985" lon="-5.691075967624784">
        <ele>52.530000000000001</ele>
        <time>2019-09-04T11:13:31Z</time>
      </trkpt>
      <trkpt lat="57.52675898373127" lon="-5.691260034218431">
        <ele>52.049999999999997</ele>
        <time>2019-09-04T11:13:32Z</time>
      </trkpt>
      <trkpt lat="57.526767030358315" lon="-5.691395988687873">
        <ele>51.57</ele>
        <time>2019-09-04T11:13:33Z</time>
      </trkpt>
      <trkpt lat="57.526806006208062" lon="-5.691572008654475">
        <ele>51.090000000000003</ele>
        <time>2019-09-04T11:13:34Z</time>
      </trkpt>
      <trkpt lat="57.526869960129261" lon="-5.691635040566325">
        <ele>50.609999999999999</ele>
        <time>2019-09-04T11:13:35Z</time>
      </trkpt>
      <trkpt lat="57.526970040053129" lon="-5.691653983667493">
        <ele>50.609999999999999</ele>
        <time>2019-09-04T11:13:36Z</time>
      </trkpt>
      <trkpt lat="57.527068024501204" lon="-5.691661024466157">
        <ele>50.609999999999999</ele>
        <time>2019-09-04T11:13:37Z</time>
      </trkpt>
      <trkpt lat="57.527181012555957" lon="-5.69166898727417">
        <ele>50.609999999999999</ele>
        <time>2019-09-04T11:13:38Z</time>
      </trkpt>
      <trkpt lat="57.527306992560625" lon="-5.691592041403055">
        <ele>51.090000000000003</ele>
        <time>2019-09-04T11:13:39Z</time>
      </trkpt>
      <trkpt lat="57.527420986443758" lon="-5.691521968692541">
        <ele>51.57</ele>
        <time>2019-09-04T11:13:40Z</time>
      </trkpt>
      <trkpt lat="57.527525005862117" lon="-5.691457008942962">
        <ele>52.049999999999997</ele>
        <time>2019-09-04T11:13:41Z</time>
      </trkpt>
      <trkpt lat="57.527795992791653" lon="-5.691289035603404">
        <ele>53.490000000000002</ele>
        <time>2019-09-04T11:13:44Z</time>
      </trkpt>
      <trkpt lat="57.527895988896489" lon="-5.691307978704572">
        <ele>53.490000000000002</ele>
        <time>2019-09-04T11:13:45Z</time>
      </trkpt>
      <trkpt lat="57.527993973344564" lon="-5.691335974261165">
        <ele>53.490000000000002</ele>
        <time>2019-09-04T11:13:46Z</time>
      </trkpt>
      <trkpt lat="57.528100004419684" lon="-5.691365981474519">
        <ele>53.490000000000002</ele>
        <time>2019-09-04T11:13:47Z</time>
      </trkpt>
      <trkpt lat="57.528212992474437" lon="-5.691398000344634">
        <ele>53.009999999999998</ele>
        <time>2019-09-04T11:13:48Z</time>
      </trkpt>
      <trkpt lat="57.528443997725844" lon="-5.691463965922594">
        <ele>52.049999999999997</ele>
        <time>2019-09-04T11:13:50Z</time>
      </trkpt>
      <trkpt lat="57.528791008517146" lon="-5.691562034189701">
        <ele>49.649999999999999</ele>
        <time>2019-09-04T11:13:53Z</time>
      </trkpt>
      <trkpt lat="57.528903996571898" lon="-5.691593969240785">
        <ele>48.68</ele>
        <time>2019-09-04T11:13:54Z</time>
      </trkpt>
      <trkpt lat="57.529004998505116" lon="-5.691666975617409">
        <ele>48.200000000000003</ele>
        <time>2019-09-04T11:13:55Z</time>
      </trkpt>
      <trkpt lat="57.529201973229647" lon="-5.691933017224073">
        <ele>46.759999999999998</ele>
        <time>2019-09-04T11:13:57Z</time>
      </trkpt>
      <trkpt lat="57.529297024011612" lon="-5.692086992785335">
        <ele>46.759999999999998</ele>
        <time>2019-09-04T11:13:58Z</time>
      </trkpt>
      <trkpt lat="57.529747970402241" lon="-5.693158032372594">
        <ele>43.399999999999999</ele>
        <time>2019-09-04T11:14:04Z</time>
      </trkpt>
      <trkpt lat="57.529794992879033" lon="-5.693354001268745">
        <ele>42.920000000000002</ele>
        <time>2019-09-04T11:14:05Z</time>
      </trkpt>
      <trkpt lat="57.529843021184206" lon="-5.693553993478417">
        <ele>41.950000000000003</ele>
        <time>2019-09-04T11:14:06Z</time>
      </trkpt>
      <trkpt lat="57.529844027012587" lon="-5.693782987073064">
        <ele>40.509999999999998</ele>
        <time>2019-09-04T11:14:07Z</time>
      </trkpt>
      <trkpt lat="57.529844027012587" lon="-5.693998988717794">
        <ele>39.549999999999997</ele>
        <time>2019-09-04T11:14:08Z</time>
      </trkpt>
      <trkpt lat="57.529844027012587" lon="-5.69422303698957">
        <ele>37.630000000000003</ele>
        <time>2019-09-04T11:14:09Z</time>
      </trkpt>
      <trkpt lat="57.529844027012587" lon="-5.694480026140809">
        <ele>36.189999999999998</ele>
        <time>2019-09-04T11:14:10Z</time>
      </trkpt>
      <trkpt lat="57.529876967892051" lon="-5.694666020572186">
        <ele>34.259999999999998</ele>
        <time>2019-09-04T11:14:11Z</time>
      </trkpt>
      <trkpt lat="57.530007977038622" lon="-5.695390971377492">
        <ele>27.050000000000001</ele>
        <time>2019-09-04T11:14:16Z</time>
      </trkpt>
      <trkpt lat="57.530020968988538" lon="-5.695466995239258">
        <ele>25.609999999999999</ele>
        <time>2019-09-04T11:14:17Z</time>
      </trkpt>
      <trkpt lat="57.530051982030272" lon="-5.695634968578816">
        <ele>18.879999999999999</ele>
        <time>2019-09-04T11:14:25Z</time>
      </trkpt>
      <trkpt lat="57.53008802421391" lon="-5.696038976311684">
        <ele>15.52</ele>
        <time>2019-09-04T11:14:44Z</time>
      </trkpt>
      <trkpt lat="57.530100010335445" lon="-5.696371989324689">
        <ele>14.56</ele>
        <time>2019-09-04T11:14:47Z</time>
      </trkpt>
      <trkpt lat="57.530062962323427" lon="-5.696580028161407">
        <ele>13.6</ele>
        <time>2019-09-04T11:14:49Z</time>
      </trkpt>
      <trkpt lat="57.530039995908737" lon="-5.696693016216159">
        <ele>13.119999999999999</ele>
        <time>2019-09-04T11:14:50Z</time>
      </trkpt>
      <trkpt lat="57.530015017837286" lon="-5.696818996220827">
        <ele>12.630000000000001</ele>
        <time>2019-09-04T11:14:51Z</time>
      </trkpt>
      <trkpt lat="57.529975958168507" lon="-5.696900971233845">
        <ele>12.630000000000001</ele>
        <time>2019-09-04T11:14:52Z</time>
      </trkpt>
      <trkpt lat="57.529935976490378" lon="-5.696986969560385">
        <ele>12.15</ele>
        <time>2019-09-04T11:14:53Z</time>
      </trkpt>
      <trkpt lat="57.529850983992219" lon="-5.697166007012129">
        <ele>11.19</ele>
        <time>2019-09-04T11:14:55Z</time>
      </trkpt>
      <trkpt lat="57.529805973172188" lon="-5.697260973975062">
        <ele>10.710000000000001</ele>
        <time>2019-09-04T11:14:56Z</time>
      </trkpt>
      <trkpt lat="57.529761968180537" lon="-5.697355018928647">
        <ele>9.75</ele>
        <time>2019-09-04T11:14:57Z</time>
      </trkpt>
      <trkpt lat="57.529719974845648" lon="-5.697443028911948">
        <ele>9.27</ele>
        <time>2019-09-04T11:14:58Z</time>
      </trkpt>
      <trkpt lat="57.529683010652661" lon="-5.697521986439824">
        <ele>8.789999999999999</ele>
        <time>2019-09-04T11:14:59Z</time>
      </trkpt>
      <trkpt lat="57.529649985954165" lon="-5.697590969502926">
        <ele>7.83</ele>
        <time>2019-09-04T11:15:00Z</time>
      </trkpt>
      <trkpt lat="57.529649985954165" lon="-5.697686020284891">
        <ele>6.87</ele>
        <time>2019-09-04T11:15:01Z</time>
      </trkpt>
      <trkpt lat="57.529649985954165" lon="-5.697779981419444">
        <ele>6.39</ele>
        <time>2019-09-04T11:15:02Z</time>
      </trkpt>
      <trkpt lat="57.529649985954165" lon="-5.697879977524281">
        <ele>5.42</ele>
        <time>2019-09-04T11:15:03Z</time>
      </trkpt>
      <trkpt lat="57.52965996041894" lon="-5.697962958365679">
        <ele>4.46</ele>
        <time>2019-09-04T11:15:04Z</time>
      </trkpt>
      <trkpt lat="57.529690973460674" lon="-5.698058009147644">
        <ele>3.5</ele>
        <time>2019-09-04T11:15:05Z</time>
      </trkpt>
      <trkpt lat="57.52972299233079" lon="-5.698153981938958">
        <ele>2.54</ele>
        <time>2019-09-04T11:15:06Z</time>
      </trkpt>
      <trkpt lat="57.529773032292724" lon="-5.698215002194047">
        <ele>1.58</ele>
        <time>2019-09-04T11:15:07Z</time>
      </trkpt>
      <trkpt lat="57.529828017577529" lon="-5.698250038549304">
        <ele>1.1</ele>
        <time>2019-09-04T11:15:08Z</time>
      </trkpt>
      <trkpt lat="57.529883002862334" lon="-5.698283985257149">
        <ele>0.14</ele>
        <time>2019-09-04T11:15:09Z</time>
      </trkpt>
      <trkpt lat="57.530220039188862" lon="-5.698494035750628">
        <ele>-1.79</ele>
        <time>2019-09-04T11:15:13Z</time>
      </trkpt>
      <trkpt lat="57.530916994437575" lon="-5.699137011542916">
        <ele>-2.75</ele>
        <time>2019-09-04T11:15:19Z</time>
      </trkpt>
      <trkpt lat="57.531054960563779" lon="-5.699228961020708">
        <ele>-3.23</ele>
        <time>2019-09-04T11:15:20Z</time>
      </trkpt>
      <trkpt lat="57.531193010509014" lon="-5.699319988489151">
        <ele>-3.23</ele>
        <time>2019-09-04T11:15:21Z</time>
      </trkpt>
      <trkpt lat="57.531448993831873" lon="-5.699491985142231">
        <ele>-2.75</ele>
        <time>2019-09-04T11:15:23Z</time>
      </trkpt>
      <trkpt lat="57.531552007421851" lon="-5.699559962376952">
        <ele>-2.27</ele>
        <time>2019-09-04T11:15:24Z</time>
      </trkpt>
      <trkpt lat="57.531639011576772" lon="-5.699698012322187">
        <ele>-1.79</ele>
        <time>2019-09-04T11:15:25Z</time>
      </trkpt>
      <trkpt lat="57.531706988811493" lon="-5.699813012033701">
        <ele>-1.79</ele>
        <time>2019-09-04T11:15:26Z</time>
      </trkpt>
      <trkpt lat="57.531769014894962" lon="-5.69991703145206">
        <ele>-1.3</ele>
        <time>2019-09-04T11:15:27Z</time>
      </trkpt>
      <trkpt lat="57.532016029581428" lon="-5.700332019478083">
        <ele>1.1</ele>
        <time>2019-09-04T11:15:31Z</time>
      </trkpt>
      <trkpt lat="57.532090963795781" lon="-5.700418017804623">
        <ele>1.58</ele>
        <time>2019-09-04T11:15:32Z</time>
      </trkpt>
      <trkpt lat="57.532191965728998" lon="-5.70051901973784">
        <ele>2.54</ele>
        <time>2019-09-04T11:15:33Z</time>
      </trkpt>
      <trkpt lat="57.532305037602782" lon="-5.700588002800942">
        <ele>3.02</ele>
        <time>2019-09-04T11:15:34Z</time>
      </trkpt>
      <trkpt lat="57.532437974587083" lon="-5.700662015005946">
        <ele>3.98</ele>
        <time>2019-09-04T11:15:35Z</time>
      </trkpt>
      <trkpt lat="57.533724009990692" lon="-5.70127297192812">
        <ele>8.310000000000001</ele>
        <time>2019-09-04T11:15:45Z</time>
      </trkpt>
      <trkpt lat="57.533855019137263" lon="-5.701260985806584">
        <ele>8.310000000000001</ele>
        <time>2019-09-04T11:15:46Z</time>
      </trkpt>
      <trkpt lat="57.53397798165679" lon="-5.701219998300076">
        <ele>8.310000000000001</ele>
        <time>2019-09-04T11:15:47Z</time>
      </trkpt>
      <trkpt lat="57.534092981368303" lon="-5.701131988316774">
        <ele>8.310000000000001</ele>
        <time>2019-09-04T11:15:48Z</time>
      </trkpt>
      <trkpt lat="57.534208986908197" lon="-5.701040038838983">
        <ele>8.310000000000001</ele>
        <time>2019-09-04T11:15:49Z</time>
      </trkpt>
      <trkpt lat="57.534324992448092" lon="-5.700948005542159">
        <ele>8.310000000000001</ele>
        <time>2019-09-04T11:15:50Z</time>
      </trkpt>
      <trkpt lat="57.534433035179973" lon="-5.700862007215619">
        <ele>8.310000000000001</ele>
        <time>2019-09-04T11:15:51Z</time>
      </trkpt>
      <trkpt lat="57.53453403711319" lon="-5.700781960040331">
        <ele>8.789999999999999</ele>
        <time>2019-09-04T11:15:52Z</time>
      </trkpt>
      <trkpt lat="57.534641996026039" lon="-5.700726974755526">
        <ele>8.789999999999999</ele>
        <time>2019-09-04T11:15:53Z</time>
      </trkpt>
      <trkpt lat="57.535076010972261" lon="-5.700765028595924">
        <ele>8.310000000000001</ele>
        <time>2019-09-04T11:15:57Z</time>
      </trkpt>
      <trkpt lat="57.53518195822835" lon="-5.700808027759194">
        <ele>7.83</ele>
        <time>2019-09-04T11:15:58Z</time>
      </trkpt>
      <trkpt lat="57.535291006788611" lon="-5.700862007215619">
        <ele>7.35</ele>
        <time>2019-09-04T11:15:59Z</time>
      </trkpt>
      <trkpt lat="57.53539502620697" lon="-5.700913975015283">
        <ele>6.87</ele>
        <time>2019-09-04T11:16:00Z</time>
      </trkpt>
      <trkpt lat="57.535467026755214" lon="-5.701011037454009">
        <ele>6.39</ele>
        <time>2019-09-04T11:16:01Z</time>
      </trkpt>
      <trkpt lat="57.535553025081754" lon="-5.701131988316774">
        <ele>6.87</ele>
        <time>2019-09-04T11:16:02Z</time>
      </trkpt>
      <trkpt lat="57.535641035065055" lon="-5.701256962493062">
        <ele>7.35</ele>
        <time>2019-09-04T11:16:03Z</time>
      </trkpt>
      <trkpt lat="57.535732984542847" lon="-5.701386965811253">
        <ele>7.83</ele>
        <time>2019-09-04T11:16:04Z</time>
      </trkpt>
      <trkpt lat="57.536524990573525" lon="-5.703064016997814">
        <ele>15.52</ele>
        <time>2019-09-04T11:16:14Z</time>
      </trkpt>
      <trkpt lat="57.536903014406562" lon="-5.704434961080551">
        <ele>16.960000000000001</ele>
        <time>2019-09-04T11:16:22Z</time>
      </trkpt>
      <trkpt lat="57.537004016339779" lon="-5.704558007419109">
        <ele>16.960000000000001</ele>
        <time>2019-09-04T11:16:23Z</time>
      </trkpt>
      <trkpt lat="57.537099989131093" lon="-5.704673007130623">
        <ele>16.48</ele>
        <time>2019-09-04T11:16:24Z</time>
      </trkpt>
      <trkpt lat="57.537891995161772" lon="-5.705626029521227">
        <ele>12.630000000000001</ele>
        <time>2019-09-04T11:16:32Z</time>
      </trkpt>
      <trkpt lat="57.538302959874272" lon="-5.706121986731887">
        <ele>10.710000000000001</ele>
        <time>2019-09-04T11:16:36Z</time>
      </trkpt>
      <trkpt lat="57.539239972829819" lon="-5.707278018817306">
        <ele>9.75</ele>
        <time>2019-09-04T11:16:45Z</time>
      </trkpt>
      <trkpt lat="57.539309961721301" lon="-5.707434006035328">
        <ele>9.75</ele>
        <time>2019-09-04T11:16:46Z</time>
      </trkpt>
      <trkpt lat="57.539375005289912" lon="-5.707604996860027">
        <ele>9.27</ele>
        <time>2019-09-04T11:16:47Z</time>
      </trkpt>
      <trkpt lat="57.539436025545001" lon="-5.707765007391572">
        <ele>9.75</ele>
        <time>2019-09-04T11:16:48Z</time>
      </trkpt>
      <trkpt lat="57.539487993344665" lon="-5.707947984337807">
        <ele>9.75</ele>
        <time>2019-09-04T11:16:49Z</time>
      </trkpt>
      <trkpt lat="57.539897030219436" lon="-5.709387995302677">
        <ele>12.15</ele>
        <time>2019-09-04T11:16:56Z</time>
      </trkpt>
      <trkpt lat="57.539946986362338" lon="-5.70956401526928">
        <ele>12.630000000000001</ele>
        <time>2019-09-04T11:16:57Z</time>
      </trkpt>
      <trkpt lat="57.53999400883913" lon="-5.709728971123695">
        <ele>13.119999999999999</ele>
        <time>2019-09-04T11:16:58Z</time>
      </trkpt>
      <trkpt lat="57.54001404158771" lon="-5.709878001362085">
        <ele>13.119999999999999</ele>
        <time>2019-09-04T11:16:59Z</time>
      </trkpt>
      <trkpt lat="57.54001404158771" lon="-5.710026025772095">
        <ele>13.6</ele>
        <time>2019-09-04T11:17:00Z</time>
      </trkpt>
      <trkpt lat="57.540007000789046" lon="-5.710132978856564">
        <ele>13.6</ele>
        <time>2019-09-04T11:17:01Z</time>
      </trkpt>
      <trkpt lat="57.539942041039467" lon="-5.710230963304639">
        <ele>14.56</ele>
        <time>2019-09-04T11:17:02Z</time>
      </trkpt>
      <trkpt lat="57.53986400552094" lon="-5.710347974672914">
        <ele>14.56</ele>
        <time>2019-09-04T11:17:03Z</time>
      </trkpt>
      <trkpt lat="57.539756968617439" lon="-5.710508991032839">
        <ele>15.039999999999999</ele>
        <time>2019-09-04T11:17:04Z</time>
      </trkpt>
      <trkpt lat="57.539667030796409" lon="-5.710563976317644">
        <ele>16</ele>
        <time>2019-09-04T11:17:05Z</time>
      </trkpt>
      <trkpt lat="57.539539039134979" lon="-5.710643017664552">
        <ele>16.48</ele>
        <time>2019-09-04T11:17:06Z</time>
      </trkpt>
      <trkpt lat="57.538847029209137" lon="-5.711130006238818">
        <ele>22.25</ele>
        <time>2019-09-04T11:17:13Z</time>
      </trkpt>
      <trkpt lat="57.538680983707309" lon="-5.711276018992066">
        <ele>23.210000000000001</ele>
        <time>2019-09-04T11:17:16Z</time>
      </trkpt>
      <trkpt lat="57.538631027564406" lon="-5.711320023983717">
        <ele>23.690000000000001</ele>
        <time>2019-09-04T11:17:17Z</time>
      </trkpt>
      <trkpt lat="57.538578975945711" lon="-5.711366040632129">
        <ele>23.690000000000001</ele>
        <time>2019-09-04T11:17:18Z</time>
      </trkpt>
      <trkpt lat="57.538526002317667" lon="-5.711437035351992">
        <ele>24.170000000000002</ele>
        <time>2019-09-04T11:17:19Z</time>
      </trkpt>
      <trkpt lat="57.538465987890959" lon="-5.711521022021771">
        <ele>24.649999999999999</ele>
        <time>2019-09-04T11:17:20Z</time>
      </trkpt>
      <trkpt lat="57.53801504150033" lon="-5.712054027244449">
        <ele>23.690000000000001</ele>
        <time>2019-09-04T11:17:26Z</time>
      </trkpt>
      <trkpt lat="57.537920996546745" lon="-5.712134996429086">
        <ele>23.690000000000001</ele>
        <time>2019-09-04T11:17:27Z</time>
      </trkpt>
      <trkpt lat="57.53782301209867" lon="-5.712157962843776">
        <ele>24.649999999999999</ele>
        <time>2019-09-04T11:17:28Z</time>
      </trkpt>
      <trkpt lat="57.537724021822214" lon="-5.712154023349285">
        <ele>25.609999999999999</ele>
        <time>2019-09-04T11:17:29Z</time>
      </trkpt>
      <trkpt lat="57.537626037374139" lon="-5.712150000035763">
        <ele>27.050000000000001</ele>
        <time>2019-09-04T11:17:30Z</time>
      </trkpt>
      <trkpt lat="57.537439037114382" lon="-5.71214203722775">
        <ele>29.460000000000001</ele>
        <time>2019-09-04T11:17:32Z</time>
      </trkpt>
      <trkpt lat="57.537034023553133" lon="-5.712225018069148">
        <ele>33.299999999999997</ele>
        <time>2019-09-04T11:17:36Z</time>
      </trkpt>
      <trkpt lat="57.536926986649632" lon="-5.712298024445772">
        <ele>34.259999999999998</ele>
        <time>2019-09-04T11:17:37Z</time>
      </trkpt>
      <trkpt lat="57.53657897002995" lon="-5.712516037747264">
        <ele>36.189999999999998</ele>
        <time>2019-09-04T11:17:40Z</time>
      </trkpt>
      <trkpt lat="57.53616800531745" lon="-5.712622990831733">
        <ele>36.189999999999998</ele>
        <time>2019-09-04T11:17:44Z</time>
      </trkpt>
      <trkpt lat="57.536090975627303" lon="-5.712706977501512">
        <ele>36.189999999999998</ele>
        <time>2019-09-04T11:17:45Z</time>
      </trkpt>
      <trkpt lat="57.536034984514117" lon="-5.71280999109149">
        <ele>36.189999999999998</ele>
        <time>2019-09-04T11:17:46Z</time>
      </trkpt>
      <trkpt lat="57.535982010886073" lon="-5.712908981367946">
        <ele>35.710000000000001</ele>
        <time>2019-09-04T11:17:47Z</time>
      </trkpt>
      <trkpt lat="57.535979999229312" lon="-5.71306899189949">
        <ele>35.710000000000001</ele>
        <time>2019-09-04T11:17:48Z</time>
      </trkpt>
      <trkpt lat="57.535979999229312" lon="-5.713209975510836">
        <ele>35.229999999999997</ele>
        <time>2019-09-04T11:17:49Z</time>
      </trkpt>
      <trkpt lat="57.536036996170878" lon="-5.71332698687911">
        <ele>35.229999999999997</ele>
        <time>2019-09-04T11:17:50Z</time>
      </trkpt>
      <trkpt lat="57.5361049734056" lon="-5.713465958833695">
        <ele>34.740000000000002</ele>
        <time>2019-09-04T11:17:51Z</time>
      </trkpt>
      <trkpt lat="57.536182003095746" lon="-5.713622029870749">
        <ele>34.740000000000002</ele>
        <time>2019-09-04T11:17:52Z</time>
      </trkpt>
      <trkpt lat="57.536266995593905" lon="-5.71379603818059">
        <ele>35.229999999999997</ele>
        <time>2019-09-04T11:17:53Z</time>
      </trkpt>
      <trkpt lat="57.536356011405587" lon="-5.713978009298444">
        <ele>36.189999999999998</ele>
        <time>2019-09-04T11:17:54Z</time>
      </trkpt>
      <trkpt lat="57.53644896671176" lon="-5.714168027043343">
        <ele>37.630000000000003</ele>
        <time>2019-09-04T11:17:55Z</time>
      </trkpt>
      <trkpt lat="57.53745898604393" lon="-5.715479962527752">
        <ele>50.609999999999999</ele>
        <time>2019-09-04T11:18:03Z</time>
      </trkpt>
      <trkpt lat="57.538433969020844" lon="-5.716487970203161">
        <ele>64.069999999999993</ele>
        <time>2019-09-04T11:18:12Z</time>
      </trkpt>
      <trkpt lat="57.53851099871099" lon="-5.716643035411835">
        <ele>65.510000000000005</ele>
        <time>2019-09-04T11:18:13Z</time>
      </trkpt>
      <trkpt lat="57.538670003414154" lon="-5.716960038989782">
        <ele>68.390000000000001</ele>
        <time>2019-09-04T11:18:15Z</time>
      </trkpt>
      <trkpt lat="57.538742003962398" lon="-5.717122983187437">
        <ele>70.310000000000002</ele>
        <time>2019-09-04T11:18:16Z</time>
      </trkpt>
      <trkpt lat="57.539063030853868" lon="-5.71796796284616">
        <ele>76.079999999999998</ele>
        <time>2019-09-04T11:18:21Z</time>
      </trkpt>
      <trkpt lat="57.539139976724982" lon="-5.718110958114266">
        <ele>76.560000000000002</ele>
        <time>2019-09-04T11:18:22Z</time>
      </trkpt>
      <trkpt lat="57.539227986708283" lon="-5.718208020552993">
        <ele>77.040000000000006</ele>
        <time>2019-09-04T11:18:23Z</time>
      </trkpt>
      <trkpt lat="57.539312979206443" lon="-5.718300975859165">
        <ele>77.519999999999996</ele>
        <time>2019-09-04T11:18:24Z</time>
      </trkpt>
      <trkpt lat="57.539395038038492" lon="-5.718390997499228">
        <ele>78</ele>
        <time>2019-09-04T11:18:25Z</time>
      </trkpt>
      <trkpt lat="57.539481958374381" lon="-5.718486970290542">
        <ele>78.480000000000004</ele>
        <time>2019-09-04T11:18:26Z</time>
      </trkpt>
      <trkpt lat="57.53956401720643" lon="-5.718576991930604">
        <ele>78.480000000000004</ele>
        <time>2019-09-04T11:18:27Z</time>
      </trkpt>
      <trkpt lat="57.539682034403086" lon="-5.718628959730268">
        <ele>78.969999999999999</ele>
        <time>2019-09-04T11:18:28Z</time>
      </trkpt>
      <trkpt lat="57.539790999144316" lon="-5.71867698803544">
        <ele>79.450000000000003</ele>
        <time>2019-09-04T11:18:29Z</time>
      </trkpt>
      <trkpt lat="57.539893006905913" lon="-5.718721998855472">
        <ele>79.930000000000007</ele>
        <time>2019-09-04T11:18:30Z</time>
      </trkpt>
      <trkpt lat="57.539997026324272" lon="-5.718767009675503">
        <ele>80.409999999999997</ele>
        <time>2019-09-04T11:18:31Z</time>
      </trkpt>
      <trkpt lat="57.54010003991425" lon="-5.718813026323915">
        <ele>80.890000000000001</ele>
        <time>2019-09-04T11:18:32Z</time>
      </trkpt>
      <trkpt lat="57.540192995220423" lon="-5.718958033248782">
        <ele>81.370000000000005</ele>
        <time>2019-09-04T11:18:33Z</time>
      </trkpt>
      <trkpt lat="57.540282011032104" lon="-5.719097005203366">
        <ele>81.370000000000005</ele>
        <time>2019-09-04T11:18:34Z</time>
      </trkpt>
      <trkpt lat="57.540371026843786" lon="-5.719236982986331">
        <ele>81.849999999999994</ele>
        <time>2019-09-04T11:18:35Z</time>
      </trkpt>
      <trkpt lat="57.54044403322041" lon="-5.719348965212703">
        <ele>82.329999999999998</ele>
        <time>2019-09-04T11:18:36Z</time>
      </trkpt>
      <trkpt lat="57.54055299796164" lon="-5.719405962154269">
        <ele>82.810000000000002</ele>
        <time>2019-09-04T11:18:37Z</time>
      </trkpt>
      <trkpt lat="57.54066196270287" lon="-5.719462037086487">
        <ele>83.769999999999996</ele>
        <time>2019-09-04T11:18:38Z</time>
      </trkpt>
      <trkpt lat="57.541324971243739" lon="-5.719845006242394">
        <ele>88.099999999999994</ele>
        <time>2019-09-04T11:18:44Z</time>
      </trkpt>
      <trkpt lat="57.541365958750248" lon="-5.719885993748903">
        <ele>89.060000000000002</ele>
        <time>2019-09-04T11:18:45Z</time>
      </trkpt>
      <trkpt lat="57.54145204089582" lon="-5.720142982900143">
        <ele>89.540000000000006</ele>
        <time>2019-09-04T11:18:46Z</time>
      </trkpt>
      <trkpt lat="57.541652033105493" lon="-5.720492005348206">
        <ele>91.939999999999998</ele>
        <time>2019-09-04T11:18:49Z</time>
      </trkpt>
      <trkpt lat="57.541684973984957" lon="-5.720650004222989">
        <ele>92.900000000000006</ele>
        <time>2019-09-04T11:18:50Z</time>
      </trkpt>
      <trkpt lat="57.541719004511833" lon="-5.720813032239676">
        <ele>93.870000000000005</ele>
        <time>2019-09-04T11:18:51Z</time>
      </trkpt>
      <trkpt lat="57.541727973148227" lon="-5.720988968387246">
        <ele>94.829999999999998</ele>
        <time>2019-09-04T11:18:52Z</time>
      </trkpt>
      <trkpt lat="57.541721016168594" lon="-5.721204970031977">
        <ele>96.269999999999996</ele>
        <time>2019-09-04T11:18:53Z</time>
      </trkpt>
      <trkpt lat="57.54169100895524" lon="-5.722163021564484">
        <ele>103</ele>
        <time>2019-09-04T11:18:57Z</time>
      </trkpt>
      <trkpt lat="57.541681034490466" lon="-5.72237198241055">
        <ele>104.44</ele>
        <time>2019-09-04T11:18:58Z</time>
      </trkpt>
      <trkpt lat="57.54166703671217" lon="-5.722589995712042">
        <ele>105.88</ele>
        <time>2019-09-04T11:18:59Z</time>
      </trkpt>
      <trkpt lat="57.54162797704339" lon="-5.722727039828897">
        <ele>106.84</ele>
        <time>2019-09-04T11:19:00Z</time>
      </trkpt>
      <trkpt lat="57.54158103838563" lon="-5.722889984026551">
        <ele>108.29000000000001</ele>
        <time>2019-09-04T11:19:01Z</time>
      </trkpt>
      <trkpt lat="57.541530998423696" lon="-5.723064998164773">
        <ele>108.77</ele>
        <time>2019-09-04T11:19:02Z</time>
      </trkpt>
      <trkpt lat="57.541490010917187" lon="-5.723258033394814">
        <ele>109.25</ele>
        <time>2019-09-04T11:19:03Z</time>
      </trkpt>
      <trkpt lat="57.541474001482129" lon="-5.723464982584119">
        <ele>109.73</ele>
        <time>2019-09-04T11:19:04Z</time>
      </trkpt>
      <trkpt lat="57.541445000097156" lon="-5.723842000588775">
        <ele>111.17</ele>
        <time>2019-09-04T11:19:06Z</time>
      </trkpt>
      <trkpt lat="57.541431002318859" lon="-5.724026989191771">
        <ele>111.65000000000001</ele>
        <time>2019-09-04T11:19:07Z</time>
      </trkpt>
      <trkpt lat="57.541386997327209" lon="-5.724164033308625">
        <ele>113.09</ele>
        <time>2019-09-04T11:19:08Z</time>
      </trkpt>
      <trkpt lat="57.541284989565611" lon="-5.724485982209444">
        <ele>114.53</ele>
        <time>2019-09-04T11:19:10Z</time>
      </trkpt>
      <trkpt lat="57.541100000962615" lon="-5.725015969946981">
        <ele>118.38</ele>
        <time>2019-09-04T11:19:13Z</time>
      </trkpt>
      <trkpt lat="57.541017020121217" lon="-5.72514203377068">
        <ele>119.81999999999999</ele>
        <time>2019-09-04T11:19:14Z</time>
      </trkpt>
      <trkpt lat="57.540914006531239" lon="-5.725244041532278">
        <ele>121.26000000000001</ele>
        <time>2019-09-04T11:19:15Z</time>
      </trkpt>
      <trkpt lat="57.540805041790009" lon="-5.725343031808734">
        <ele>122.22</ele>
        <time>2019-09-04T11:19:16Z</time>
      </trkpt>
      <trkpt lat="57.540683001279831" lon="-5.725396005436778">
        <ele>123.67</ele>
        <time>2019-09-04T11:19:17Z</time>
      </trkpt>
      <trkpt lat="57.54057495854795" lon="-5.725416960194707">
        <ele>125.11</ele>
        <time>2019-09-04T11:19:18Z</time>
      </trkpt>
      <trkpt lat="57.540462976321578" lon="-5.725387036800385">
        <ele>126.55</ele>
        <time>2019-09-04T11:19:19Z</time>
      </trkpt>
      <trkpt lat="57.540363986045122" lon="-5.725346971303225">
        <ele>127.98999999999999</ele>
        <time>2019-09-04T11:19:20Z</time>
      </trkpt>
      <trkpt lat="57.540262984111905" lon="-5.72535702958703">
        <ele>128.94999999999999</ele>
        <time>2019-09-04T11:19:21Z</time>
      </trkpt>
      <trkpt lat="57.540157036855817" lon="-5.725401034578681">
        <ele>129.91999999999999</ele>
        <time>2019-09-04T11:19:22Z</time>
      </trkpt>
      <trkpt lat="57.540045976638794" lon="-5.725484015420079">
        <ele>130.40000000000001</ele>
        <time>2019-09-04T11:19:23Z</time>
      </trkpt>
      <trkpt lat="57.539933994412422" lon="-5.725568002089858">
        <ele>130.88</ele>
        <time>2019-09-04T11:19:24Z</time>
      </trkpt>
      <trkpt lat="57.539827963337302" lon="-5.725647965446115">
        <ele>130.88</ele>
        <time>2019-09-04T11:19:25Z</time>
      </trkpt>
      <trkpt lat="57.539600981399417" lon="-5.725793978199363">
        <ele>130.40000000000001</ele>
        <time>2019-09-04T11:19:27Z</time>
      </trkpt>
      <trkpt lat="57.539084991440177" lon="-5.726007968187332">
        <ele>125.11</ele>
        <time>2019-09-04T11:19:31Z</time>
      </trkpt>
      <trkpt lat="57.538960017263889" lon="-5.726060019806027">
        <ele>123.67</ele>
        <time>2019-09-04T11:19:32Z</time>
      </trkpt>
      <trkpt lat="57.538846023380756" lon="-5.726106958463788">
        <ele>122.70999999999999</ele>
        <time>2019-09-04T11:19:33Z</time>
      </trkpt>
      <trkpt lat="57.538745021447539" lon="-5.726207960397005">
        <ele>121.73999999999999</ele>
        <time>2019-09-04T11:19:34Z</time>
      </trkpt>
      <trkpt lat="57.538664974272251" lon="-5.726339975371957">
        <ele>121.26000000000001</ele>
        <time>2019-09-04T11:19:35Z</time>
      </trkpt>
      <trkpt lat="57.538580987602472" lon="-5.726480958983302">
        <ele>120.78</ele>
        <time>2019-09-04T11:19:36Z</time>
      </trkpt>
      <trkpt lat="57.538491971790791" lon="-5.726627977564931">
        <ele>120.3</ele>
        <time>2019-09-04T11:19:37Z</time>
      </trkpt>
      <trkpt lat="57.53840496763587" lon="-5.72677499614656">
        <ele>119.34</ele>
        <time>2019-09-04T11:19:38Z</time>
      </trkpt>
      <trkpt lat="57.537854025140405" lon="-5.727368015795946">
        <ele>112.61</ele>
        <time>2019-09-04T11:19:43Z</time>
      </trkpt>
      <trkpt lat="57.537751011550426" lon="-5.727471029385924">
        <ele>110.69</ele>
        <time>2019-09-04T11:19:44Z</time>
      </trkpt>
      <trkpt lat="57.537652021273971" lon="-5.72757001966238">
        <ele>109.25</ele>
        <time>2019-09-04T11:19:45Z</time>
      </trkpt>
      <trkpt lat="57.537554958835244" lon="-5.727666998282075">
        <ele>107.31999999999999</ele>
        <time>2019-09-04T11:19:46Z</time>
      </trkpt>
      <trkpt lat="57.537460997700691" lon="-5.727760959416628">
        <ele>105.88</ele>
        <time>2019-09-04T11:19:47Z</time>
      </trkpt>
      <trkpt lat="57.537376005202532" lon="-5.727874031290412">
        <ele>104.44</ele>
        <time>2019-09-04T11:19:48Z</time>
      </trkpt>
      <trkpt lat="57.537302998825908" lon="-5.727995987981558">
        <ele>103</ele>
        <time>2019-09-04T11:19:49Z</time>
      </trkpt>
      <trkpt lat="57.537223035469651" lon="-5.728140994906426">
        <ele>101.56</ele>
        <time>2019-09-04T11:19:50Z</time>
      </trkpt>
      <trkpt lat="57.537195961922407" lon="-5.72832296602428">
        <ele>100.59999999999999</ele>
        <time>2019-09-04T11:19:51Z</time>
      </trkpt>
      <trkpt lat="57.537166038528085" lon="-5.728525975719094">
        <ele>100.11</ele>
        <time>2019-09-04T11:19:52Z</time>
      </trkpt>
      <trkpt lat="57.537133013829589" lon="-5.728752035647631">
        <ele>99.629999999999995</ele>
        <time>2019-09-04T11:19:53Z</time>
      </trkpt>
      <trkpt lat="57.536989012733102" lon="-5.729734981432557">
        <ele>99.629999999999995</ele>
        <time>2019-09-04T11:19:57Z</time>
      </trkpt>
      <trkpt lat="57.536917012184858" lon="-5.729927010834217">
        <ele>99.629999999999995</ele>
        <time>2019-09-04T11:19:58Z</time>
      </trkpt>
      <trkpt lat="57.53683595918119" lon="-5.730108981952071">
        <ele>99.629999999999995</ele>
        <time>2019-09-04T11:19:59Z</time>
      </trkpt>
      <trkpt lat="57.536732023581862" lon="-5.730244014412165">
        <ele>99.629999999999995</ele>
        <time>2019-09-04T11:20:00Z</time>
      </trkpt>
      <trkpt lat="57.53661802969873" lon="-5.730378963053227">
        <ele>99.629999999999995</ele>
        <time>2019-09-04T11:20:01Z</time>
      </trkpt>
      <trkpt lat="57.536372020840645" lon="-5.730573004111648">
        <ele>99.150000000000006</ele>
        <time>2019-09-04T11:20:03Z</time>
      </trkpt>
      <trkpt lat="57.536251991987228" lon="-5.730667971074581">
        <ele>98.670000000000002</ele>
        <time>2019-09-04T11:20:04Z</time>
      </trkpt>
      <trkpt lat="57.536116037517786" lon="-5.730674006044865">
        <ele>98.670000000000002</ele>
        <time>2019-09-04T11:20:05Z</time>
      </trkpt>
      <trkpt lat="57.535977987572551" lon="-5.730666965246201">
        <ele>98.189999999999998</ele>
        <time>2019-09-04T11:20:06Z</time>
      </trkpt>
      <trkpt lat="57.535832980647683" lon="-5.730661014094949">
        <ele>98.189999999999998</ele>
        <time>2019-09-04T11:20:07Z</time>
      </trkpt>
      <trkpt lat="57.535684034228325" lon="-5.730653973296285">
        <ele>98.189999999999998</ele>
        <time>2019-09-04T11:20:08Z</time>
      </trkpt>
      <trkpt lat="57.535535003989935" lon="-5.730647016316652">
        <ele>98.189999999999998</ele>
        <time>2019-09-04T11:20:09Z</time>
      </trkpt>
      <trkpt lat="57.535386979579926" lon="-5.730640981346369">
        <ele>98.670000000000002</ele>
        <time>2019-09-04T11:20:10Z</time>
      </trkpt>
      <trkpt lat="57.534530013799667" lon="-5.730863017961383">
        <ele>98.189999999999998</ele>
        <time>2019-09-04T11:20:16Z</time>
      </trkpt>
      <trkpt lat="57.534409984946251" lon="-5.730982962995768">
        <ele>97.709999999999994</ele>
        <time>2019-09-04T11:20:17Z</time>
      </trkpt>
      <trkpt lat="57.534285010769963" lon="-5.731109026819468">
        <ele>97.230000000000004</ele>
        <time>2019-09-04T11:20:18Z</time>
      </trkpt>
      <trkpt lat="57.533639017492533" lon="-5.731770023703575">
        <ele>94.349999999999994</ele>
        <time>2019-09-04T11:20:23Z</time>
      </trkpt>
      <trkpt lat="57.533534998074174" lon="-5.731944032013416">
        <ele>93.870000000000005</ele>
        <time>2019-09-04T11:20:24Z</time>
      </trkpt>
      <trkpt lat="57.533433996140957" lon="-5.732141006737948">
        <ele>92.900000000000006</ele>
        <time>2019-09-04T11:20:25Z</time>
      </trkpt>
      <trkpt lat="57.533345986157656" lon="-5.732359020039439">
        <ele>92.420000000000002</ele>
        <time>2019-09-04T11:20:26Z</time>
      </trkpt>
      <trkpt lat="57.533259987831116" lon="-5.732569992542267">
        <ele>91.939999999999998</ele>
        <time>2019-09-04T11:20:27Z</time>
      </trkpt>
      <trkpt lat="57.533107018098235" lon="-5.732950028032064">
        <ele>90.5</ele>
        <time>2019-09-04T11:20:29Z</time>
      </trkpt>
      <trkpt lat="57.533069970086217" lon="-5.733165023848414">
        <ele>89.540000000000006</ele>
        <time>2019-09-04T11:20:30Z</time>
      </trkpt>
      <trkpt lat="57.53305496647954" lon="-5.733374990522862">
        <ele>89.060000000000002</ele>
        <time>2019-09-04T11:20:31Z</time>
      </trkpt>
      <trkpt lat="57.533045997843146" lon="-5.733591997995973">
        <ele>89.060000000000002</ele>
        <time>2019-09-04T11:20:32Z</time>
      </trkpt>
      <trkpt lat="57.533044992014766" lon="-5.733815040439367">
        <ele>89.060000000000002</ele>
        <time>2019-09-04T11:20:33Z</time>
      </trkpt>
      <trkpt lat="57.533056978136301" lon="-5.734054008498788">
        <ele>88.579999999999998</ele>
        <time>2019-09-04T11:20:34Z</time>
      </trkpt>
      <trkpt lat="57.533069970086217" lon="-5.73431502096355">
        <ele>88.099999999999994</ele>
        <time>2019-09-04T11:20:35Z</time>
      </trkpt>
      <trkpt lat="57.533085979521275" lon="-5.734594976529479">
        <ele>87.620000000000005</ele>
        <time>2019-09-04T11:20:36Z</time>
      </trkpt>
      <trkpt lat="57.533253030851483" lon="-5.73534700088203">
        <ele>86.180000000000007</ele>
        <time>2019-09-04T11:20:39Z</time>
      </trkpt>
      <trkpt lat="57.533307010307908" lon="-5.735570965334773">
        <ele>85.209999999999994</ele>
        <time>2019-09-04T11:20:40Z</time>
      </trkpt>
      <trkpt lat="57.533389991149306" lon="-5.735771963372827">
        <ele>84.730000000000004</ele>
        <time>2019-09-04T11:20:41Z</time>
      </trkpt>
      <trkpt lat="57.533656032755971" lon="-5.736414017155767">
        <ele>83.290000000000006</ele>
        <time>2019-09-04T11:20:44Z</time>
      </trkpt>
      <trkpt lat="57.534071020781994" lon="-5.737416995689273">
        <ele>81.849999999999994</ele>
        <time>2019-09-04T11:20:49Z</time>
      </trkpt>
      <trkpt lat="57.534156013280153" lon="-5.737537024542689">
        <ele>81.849999999999994</ele>
        <time>2019-09-04T11:20:50Z</time>
      </trkpt>
      <trkpt lat="57.534263972193003" lon="-5.737614976242185">
        <ele>81.849999999999994</ele>
        <time>2019-09-04T11:20:51Z</time>
      </trkpt>
      <trkpt lat="57.534387018531561" lon="-5.737675996497273">
        <ele>81.849999999999994</ele>
        <time>2019-09-04T11:20:52Z</time>
      </trkpt>
      <trkpt lat="57.534524984657764" lon="-5.737694017589092">
        <ele>82.329999999999998</ele>
        <time>2019-09-04T11:20:53Z</time>
      </trkpt>
      <trkpt lat="57.534797983244061" lon="-5.737729975953698">
        <ele>82.810000000000002</ele>
        <time>2019-09-04T11:20:55Z</time>
      </trkpt>
      <trkpt lat="57.534926980733871" lon="-5.737805999815464">
        <ele>82.810000000000002</ele>
        <time>2019-09-04T11:20:56Z</time>
      </trkpt>
      <trkpt lat="57.535035023465753" lon="-5.737923011183739">
        <ele>82.810000000000002</ele>
        <time>2019-09-04T11:20:57Z</time>
      </trkpt>
      <trkpt lat="57.535138037055731" lon="-5.738041028380394">
        <ele>82.810000000000002</ele>
        <time>2019-09-04T11:20:58Z</time>
      </trkpt>
      <trkpt lat="57.535225041210651" lon="-5.738172037526965">
        <ele>82.810000000000002</ele>
        <time>2019-09-04T11:20:59Z</time>
      </trkpt>
      <trkpt lat="57.535282960161567" lon="-5.738358031958342">
        <ele>82.810000000000002</ele>
        <time>2019-09-04T11:21:00Z</time>
      </trkpt>
      <trkpt lat="57.535321014001966" lon="-5.738532962277532">
        <ele>83.290000000000006</ele>
        <time>2019-09-04T11:21:01Z</time>
      </trkpt>
      <trkpt lat="57.535356972366571" lon="-5.738701019436121">
        <ele>83.290000000000006</ele>
        <time>2019-09-04T11:21:02Z</time>
      </trkpt>
      <trkpt lat="57.535393014550209" lon="-5.738867986947298">
        <ele>83.290000000000006</ele>
        <time>2019-09-04T11:21:03Z</time>
      </trkpt>
      <trkpt lat="57.535431990399957" lon="-5.739021962508559">
        <ele>82.810000000000002</ele>
        <time>2019-09-04T11:21:04Z</time>
      </trkpt>
      <trkpt lat="57.535508014261723" lon="-5.739166969433427">
        <ele>82.329999999999998</ele>
        <time>2019-09-04T11:21:05Z</time>
      </trkpt>
      <trkpt lat="57.535615973174572" lon="-5.739368973299861">
        <ele>81.849999999999994</ele>
        <time>2019-09-04T11:21:06Z</time>
      </trkpt>
      <trkpt lat="57.53569501452148" lon="-5.739467963576317">
        <ele>80.890000000000001</ele>
        <time>2019-09-04T11:21:07Z</time>
      </trkpt>
      <trkpt lat="57.536251991987228" lon="-5.740159973502159">
        <ele>76.079999999999998</ele>
        <time>2019-09-04T11:21:12Z</time>
      </trkpt>
      <trkpt lat="57.536352993920445" lon="-5.740298023447394">
        <ele>75.120000000000005</ele>
        <time>2019-09-04T11:21:13Z</time>
      </trkpt>
      <trkpt lat="57.536648036912084" lon="-5.740780988708139">
        <ele>71.760000000000005</ele>
        <time>2019-09-04T11:21:16Z</time>
      </trkpt>
      <trkpt lat="57.53674996085465" lon="-5.740948040038347">
        <ele>70.310000000000002</ele>
        <time>2019-09-04T11:21:17Z</time>
      </trkpt>
      <trkpt lat="57.536860015243292" lon="-5.741129005327821">
        <ele>69.349999999999994</ele>
        <time>2019-09-04T11:21:18Z</time>
      </trkpt>
      <trkpt lat="57.53700602799654" lon="-5.741209974512458">
        <ele>67.909999999999997</ele>
        <time>2019-09-04T11:21:19Z</time>
      </trkpt>
      <trkpt lat="57.537156986072659" lon="-5.741294967010617">
        <ele>66.950000000000003</ele>
        <time>2019-09-04T11:21:20Z</time>
      </trkpt>
      <trkpt lat="57.538360962644219" lon="-5.741969039663672">
        <ele>60.219999999999999</ele>
        <time>2019-09-04T11:21:29Z</time>
      </trkpt>
      <trkpt lat="57.538480991497636" lon="-5.742046991363168">
        <ele>59.740000000000002</ele>
        <time>2019-09-04T11:21:30Z</time>
      </trkpt>
      <trkpt lat="57.538567995652556" lon="-5.742171965539455">
        <ele>59.740000000000002</ele>
        <time>2019-09-04T11:21:31Z</time>
      </trkpt>
      <trkpt lat="57.53866296261549" lon="-5.74230900965631">
        <ele>59.740000000000002</ele>
        <time>2019-09-04T11:21:32Z</time>
      </trkpt>
      <trkpt lat="57.538738986477256" lon="-5.74235200881958">
        <ele>59.740000000000002</ele>
        <time>2019-09-04T11:21:33Z</time>
      </trkpt>
      <trkpt lat="57.53883303143084" lon="-5.742403976619244">
        <ele>59.740000000000002</ele>
        <time>2019-09-04T11:21:34Z</time>
      </trkpt>
      <trkpt lat="57.538935039192438" lon="-5.74239500798285">
        <ele>60.219999999999999</ele>
        <time>2019-09-04T11:21:35Z</time>
      </trkpt>
      <trkpt lat="57.539039980620146" lon="-5.742365000769496">
        <ele>60.219999999999999</ele>
        <time>2019-09-04T11:21:36Z</time>
      </trkpt>
      <trkpt lat="57.539148023352027" lon="-5.742334993556142">
        <ele>60.700000000000003</ele>
        <time>2019-09-04T11:21:37Z</time>
      </trkpt>
      <trkpt lat="57.539258999750018" lon="-5.742295011878014">
        <ele>60.700000000000003</ele>
        <time>2019-09-04T11:21:38Z</time>
      </trkpt>
      <trkpt lat="57.539358995854855" lon="-5.742213036864996">
        <ele>60.700000000000003</ele>
        <time>2019-09-04T11:21:39Z</time>
      </trkpt>
      <trkpt lat="57.539780018851161" lon="-5.741886980831623">
        <ele>60.219999999999999</ele>
        <time>2019-09-04T11:21:44Z</time>
      </trkpt>
      <trkpt lat="57.540306989103556" lon="-5.741738034412265">
        <ele>58.299999999999997</ele>
        <time>2019-09-04T11:21:50Z</time>
      </trkpt>
      <trkpt lat="57.540390975773335" lon="-5.741757983341813">
        <ele>57.82</ele>
        <time>2019-09-04T11:21:51Z</time>
      </trkpt>
      <trkpt lat="57.541421027854085" lon="-5.742082027718425">
        <ele>49.159999999999997</ele>
        <time>2019-09-04T11:22:03Z</time>
      </trkpt>
      <trkpt lat="57.542498018592596" lon="-5.742595000192523">
        <ele>39.549999999999997</ele>
        <time>2019-09-04T11:22:14Z</time>
      </trkpt>
      <trkpt lat="57.542827008292079" lon="-5.742751993238926">
        <ele>33.299999999999997</ele>
        <time>2019-09-04T11:22:20Z</time>
      </trkpt>
      <trkpt lat="57.542976960539818" lon="-5.742803039029241">
        <ele>27.050000000000001</ele>
        <time>2019-09-04T11:22:29Z</time>
      </trkpt>
      <trkpt lat="57.543050972744823" lon="-5.742803039029241">
        <ele>25.129999999999999</ele>
        <time>2019-09-04T11:22:34Z</time>
      </trkpt>
      <trkpt lat="57.543316008523107" lon="-5.742803039029241">
        <ele>21.77</ele>
        <time>2019-09-04T11:22:38Z</time>
      </trkpt>
      <trkpt lat="57.543382979929447" lon="-5.742803039029241">
        <ele>20.809999999999999</ele>
        <time>2019-09-04T11:22:39Z</time>
      </trkpt>
      <trkpt lat="57.543462021276355" lon="-5.742918960750103">
        <ele>20.32</ele>
        <time>2019-09-04T11:22:40Z</time>
      </trkpt>
      <trkpt lat="57.543529998511076" lon="-5.743019040673971">
        <ele>19.84</ele>
        <time>2019-09-04T11:22:41Z</time>
      </trkpt>
      <trkpt lat="57.543606022372842" lon="-5.743132028728724">
        <ele>18.879999999999999</ele>
        <time>2019-09-04T11:22:42Z</time>
      </trkpt>
      <trkpt lat="57.543690009042621" lon="-5.74325499124825">
        <ele>18.399999999999999</ele>
        <time>2019-09-04T11:22:43Z</time>
      </trkpt>
      <trkpt lat="57.544365003705025" lon="-5.744292000308633">
        <ele>15.039999999999999</ele>
        <time>2019-09-04T11:22:51Z</time>
      </trkpt>
      <trkpt lat="57.544412026181817" lon="-5.744409011676908">
        <ele>14.56</ele>
        <time>2019-09-04T11:22:52Z</time>
      </trkpt>
      <trkpt lat="57.544460976496339" lon="-5.744543038308621">
        <ele>14.56</ele>
        <time>2019-09-04T11:22:53Z</time>
      </trkpt>
      <trkpt lat="57.544490983709693" lon="-5.744681004434824">
        <ele>15.039999999999999</ele>
        <time>2019-09-04T11:22:54Z</time>
      </trkpt>
      <trkpt lat="57.544519985094666" lon="-5.744815031066537">
        <ele>16</ele>
        <time>2019-09-04T11:22:55Z</time>
      </trkpt>
      <trkpt lat="57.544546974822879" lon="-5.744944028556347">
        <ele>16.48</ele>
        <time>2019-09-04T11:22:56Z</time>
      </trkpt>
      <trkpt lat="57.544585028663278" lon="-5.745119964703918">
        <ele>17.440000000000001</ele>
        <time>2019-09-04T11:22:57Z</time>
      </trkpt>
      <trkpt lat="57.544644959270954" lon="-5.745165981352329">
        <ele>17.920000000000002</ele>
        <time>2019-09-04T11:22:58Z</time>
      </trkpt>
      <trkpt lat="57.544728023931384" lon="-5.74523001909256">
        <ele>18.399999999999999</ele>
        <time>2019-09-04T11:22:59Z</time>
      </trkpt>
      <trkpt lat="57.544813016429543" lon="-5.74529598467052">
        <ele>19.359999999999999</ele>
        <time>2019-09-04T11:23:00Z</time>
      </trkpt>
      <trkpt lat="57.5448929797858" lon="-5.745394974946976">
        <ele>20.32</ele>
        <time>2019-09-04T11:23:01Z</time>
      </trkpt>
      <trkpt lat="57.544960035011172" lon="-5.745533024892211">
        <ele>21.289999999999999</ele>
        <time>2019-09-04T11:23:02Z</time>
      </trkpt>
      <trkpt lat="57.545544002205133" lon="-5.746569028124213">
        <ele>25.609999999999999</ele>
        <time>2019-09-04T11:23:10Z</time>
      </trkpt>
      <trkpt lat="57.545649027451873" lon="-5.746733983978629">
        <ele>27.050000000000001</ele>
        <time>2019-09-04T11:23:12Z</time>
      </trkpt>
      <trkpt lat="57.545700995251536" lon="-5.746815036982298">
        <ele>28.02</ele>
        <time>2019-09-04T11:23:13Z</time>
      </trkpt>
      <trkpt lat="57.545736031606793" lon="-5.746940011158586">
        <ele>28.5</ele>
        <time>2019-09-04T11:23:14Z</time>
      </trkpt>
      <trkpt lat="57.54577400162816" lon="-5.747073031961918">
        <ele>28.5</ele>
        <time>2019-09-04T11:23:15Z</time>
      </trkpt>
      <trkpt lat="57.545792022719979" lon="-5.747227007523179">
        <ele>28.98</ele>
        <time>2019-09-04T11:23:16Z</time>
      </trkpt>
      <trkpt lat="57.545800991356373" lon="-5.74740001000464">
        <ele>28.98</ele>
        <time>2019-09-04T11:23:17Z</time>
      </trkpt>
      <trkpt lat="57.54588296636939" lon="-5.748565010726452">
        <ele>27.530000000000001</ele>
        <time>2019-09-04T11:23:26Z</time>
      </trkpt>
      <trkpt lat="57.545900987461209" lon="-5.748682022094727">
        <ele>27.050000000000001</ele>
        <time>2019-09-04T11:23:27Z</time>
      </trkpt>
      <trkpt lat="57.546054041013122" lon="-5.749286022037268">
        <ele>26.57</ele>
        <time>2019-09-04T11:23:31Z</time>
      </trkpt>
      <trkpt lat="57.546113971620798" lon="-5.749436980113387">
        <ele>26.57</ele>
        <time>2019-09-04T11:23:32Z</time>
      </trkpt>
      <trkpt lat="57.546175997704268" lon="-5.749590033665299">
        <ele>26.09</ele>
        <time>2019-09-04T11:23:33Z</time>
      </trkpt>
      <trkpt lat="57.546251015737653" lon="-5.749737974256277">
        <ele>25.609999999999999</ele>
        <time>2019-09-04T11:23:34Z</time>
      </trkpt>
      <trkpt lat="57.546342965215445" lon="-5.749860014766455">
        <ele>25.609999999999999</ele>
        <time>2019-09-04T11:23:35Z</time>
      </trkpt>
      <trkpt lat="57.547461027279496" lon="-5.750985033810139">
        <ele>23.210000000000001</ele>
        <time>2019-09-04T11:23:45Z</time>
      </trkpt>
      <trkpt lat="57.548508010804653" lon="-5.752173000946641">
        <ele>24.170000000000002</ele>
        <time>2019-09-04T11:23:54Z</time>
      </trkpt>
      <trkpt lat="57.549117961898446" lon="-5.75341796502471">
        <ele>23.690000000000001</ele>
        <time>2019-09-04T11:24:01Z</time>
      </trkpt>
      <trkpt lat="57.549192979931831" lon="-5.753646036610007">
        <ele>22.73</ele>
        <time>2019-09-04T11:24:02Z</time>
      </trkpt>
      <trkpt lat="57.549982974305749" lon="-5.75554202310741">
        <ele>17.440000000000001</ele>
        <time>2019-09-04T11:24:10Z</time>
      </trkpt>
      <trkpt lat="57.550512962043285" lon="-5.756449028849602">
        <ele>19.84</ele>
        <time>2019-09-04T11:24:15Z</time>
      </trkpt>
      <trkpt lat="57.550628967583179" lon="-5.75655497610569">
        <ele>20.809999999999999</ele>
        <time>2019-09-04T11:24:16Z</time>
      </trkpt>
      <trkpt lat="57.550767017528415" lon="-5.756635023280978">
        <ele>21.77</ele>
        <time>2019-09-04T11:24:17Z</time>
      </trkpt>
      <trkpt lat="57.550903977826238" lon="-5.756664024665952">
        <ele>22.73</ele>
        <time>2019-09-04T11:24:18Z</time>
      </trkpt>
      <trkpt lat="57.551043033599854" lon="-5.756692020222545">
        <ele>23.690000000000001</ele>
        <time>2019-09-04T11:24:19Z</time>
      </trkpt>
      <trkpt lat="57.551177982240915" lon="-5.756720015779138">
        <ele>24.649999999999999</ele>
        <time>2019-09-04T11:24:20Z</time>
      </trkpt>
      <trkpt lat="57.551322989165783" lon="-5.756750022992492">
        <ele>26.09</ele>
        <time>2019-09-04T11:24:21Z</time>
      </trkpt>
      <trkpt lat="57.551447041332722" lon="-5.756706018000841">
        <ele>27.050000000000001</ele>
        <time>2019-09-04T11:24:22Z</time>
      </trkpt>
      <trkpt lat="57.552570970728993" lon="-5.756028005853295">
        <ele>40.030000000000001</ele>
        <time>2019-09-04T11:24:30Z</time>
      </trkpt>
      <trkpt lat="57.553590964525938" lon="-5.755560966208577">
        <ele>50.609999999999999</ele>
        <time>2019-09-04T11:24:38Z</time>
      </trkpt>
      <trkpt lat="57.554251961410046" lon="-5.755346976220608">
        <ele>50.609999999999999</ele>
        <time>2019-09-04T11:24:43Z</time>
      </trkpt>
      <trkpt lat="57.554382970556617" lon="-5.75537103228271">
        <ele>50.130000000000003</ele>
        <time>2019-09-04T11:24:44Z</time>
      </trkpt>
      <trkpt lat="57.55451800301671" lon="-5.7553939986974">
        <ele>50.130000000000003</ele>
        <time>2019-09-04T11:24:45Z</time>
      </trkpt>
      <trkpt lat="57.555155027657747" lon="-5.755662973970175">
        <ele>51.090000000000003</ele>
        <time>2019-09-04T11:24:50Z</time>
      </trkpt>
      <trkpt lat="57.555252006277442" lon="-5.755802029743791">
        <ele>51.57</ele>
        <time>2019-09-04T11:24:51Z</time>
      </trkpt>
      <trkpt lat="57.555348984897137" lon="-5.755941001698375">
        <ele>51.57</ele>
        <time>2019-09-04T11:24:52Z</time>
      </trkpt>
      <trkpt lat="57.555447975173593" lon="-5.756083996966481">
        <ele>51.57</ele>
        <time>2019-09-04T11:24:53Z</time>
      </trkpt>
      <trkpt lat="57.555522993206978" lon="-5.756269991397858">
        <ele>51.57</ele>
        <time>2019-09-04T11:24:54Z</time>
      </trkpt>
      <trkpt lat="57.55559197627008" lon="-5.756461014971137">
        <ele>51.090000000000003</ele>
        <time>2019-09-04T11:24:55Z</time>
      </trkpt>
      <trkpt lat="57.555665988475084" lon="-5.756665030494332">
        <ele>50.130000000000003</ele>
        <time>2019-09-04T11:24:56Z</time>
      </trkpt>
      <trkpt lat="57.555743018165231" lon="-5.756879020482302">
        <ele>49.649999999999999</ele>
        <time>2019-09-04T11:24:57Z</time>
      </trkpt>
      <trkpt lat="57.555803032591939" lon="-5.757104996591806">
        <ele>48.68</ele>
        <time>2019-09-04T11:24:58Z</time>
      </trkpt>
      <trkpt lat="57.556236041709781" lon="-5.75917499139905">
        <ele>33.299999999999997</ele>
        <time>2019-09-04T11:25:07Z</time>
      </trkpt>
      <trkpt lat="57.556296978145838" lon="-5.759382024407387">
        <ele>31.379999999999999</ele>
        <time>2019-09-04T11:25:08Z</time>
      </trkpt>
      <trkpt lat="57.55634400062263" lon="-5.75954002328217">
        <ele>29.460000000000001</ele>
        <time>2019-09-04T11:25:09Z</time>
      </trkpt>
      <trkpt lat="57.556433016434312" lon="-5.759629039093852">
        <ele>27.530000000000001</ele>
        <time>2019-09-04T11:25:10Z</time>
      </trkpt>
      <trkpt lat="57.556524965912104" lon="-5.759715959429741">
        <ele>26.09</ele>
        <time>2019-09-04T11:25:11Z</time>
      </trkpt>
      <trkpt lat="57.556641977280378" lon="-5.75977697968483">
        <ele>24.170000000000002</ele>
        <time>2019-09-04T11:25:12Z</time>
      </trkpt>
      <trkpt lat="57.55677399225533" lon="-5.759845962747932">
        <ele>22.73</ele>
        <time>2019-09-04T11:25:13Z</time>
      </trkpt>
      <trkpt lat="57.557921977713704" lon="-5.76050503179431">
        <ele>8.789999999999999</ele>
        <time>2019-09-04T11:25:21Z</time>
      </trkpt>
      <trkpt lat="57.558024991303682" lon="-5.760580971837044">
        <ele>7.83</ele>
        <time>2019-09-04T11:25:22Z</time>
      </trkpt>
      <trkpt lat="57.558115012943745" lon="-5.760716004297137">
        <ele>6.87</ele>
        <time>2019-09-04T11:25:23Z</time>
      </trkpt>
      <trkpt lat="57.558196987956762" lon="-5.76085195876658">
        <ele>6.39</ele>
        <time>2019-09-04T11:25:24Z</time>
      </trkpt>
      <trkpt lat="57.558274017646909" lon="-5.76097802259028">
        <ele>5.91</ele>
        <time>2019-09-04T11:25:25Z</time>
      </trkpt>
      <trkpt lat="57.558347024023533" lon="-5.761097967624664">
        <ele>5.91</ele>
        <time>2019-09-04T11:25:26Z</time>
      </trkpt>
      <trkpt lat="57.558417012915015" lon="-5.761212967336178">
        <ele>5.42</ele>
        <time>2019-09-04T11:25:27Z</time>
      </trkpt>
      <trkpt lat="57.558565959334373" lon="-5.761456964537501">
        <ele>6.39</ele>
        <time>2019-09-04T11:25:29Z</time>
      </trkpt>
      <trkpt lat="57.558657992631197" lon="-5.761610018089414">
        <ele>6.39</ele>
        <time>2019-09-04T11:25:30Z</time>
      </trkpt>
      <trkpt lat="57.559240031987429" lon="-5.762672005221248">
        <ele>11.67</ele>
        <time>2019-09-04T11:25:37Z</time>
      </trkpt>
      <trkpt lat="57.559284958988428" lon="-5.762888006865978">
        <ele>12.630000000000001</ele>
        <time>2019-09-04T11:25:38Z</time>
      </trkpt>
      <trkpt lat="57.559327958151698" lon="-5.763094034045935">
        <ele>13.6</ele>
        <time>2019-09-04T11:25:39Z</time>
      </trkpt>
      <trkpt lat="57.559370035305619" lon="-5.763311963528395">
        <ele>14.08</ele>
        <time>2019-09-04T11:25:40Z</time>
      </trkpt>
      <trkpt lat="57.559375986456871" lon="-5.763545986264944">
        <ele>14.56</ele>
        <time>2019-09-04T11:25:41Z</time>
      </trkpt>
      <trkpt lat="57.559382021427155" lon="-5.763783026486635">
        <ele>15.52</ele>
        <time>2019-09-04T11:25:42Z</time>
      </trkpt>
      <trkpt lat="57.559388978406787" lon="-5.764013025909662">
        <ele>16.48</ele>
        <time>2019-09-04T11:25:43Z</time>
      </trkpt>
      <trkpt lat="57.559356959536672" lon="-5.764235984534025">
        <ele>17.440000000000001</ele>
        <time>2019-09-04T11:25:44Z</time>
      </trkpt>
      <trkpt lat="57.559312032535672" lon="-5.764429019764066">
        <ele>18.879999999999999</ele>
        <time>2019-09-04T11:25:45Z</time>
      </trkpt>
      <trkpt lat="57.559269033372402" lon="-5.764613002538681">
        <ele>20.32</ele>
        <time>2019-09-04T11:25:46Z</time>
      </trkpt>
      <trkpt lat="57.559186974540353" lon="-5.764965964481235">
        <ele>23.210000000000001</ele>
        <time>2019-09-04T11:25:48Z</time>
      </trkpt>
      <trkpt lat="57.559118997305632" lon="-5.765099991112948">
        <ele>24.649999999999999</ele>
        <time>2019-09-04T11:25:49Z</time>
      </trkpt>
      <trkpt lat="57.559039033949375" lon="-5.765223037451506">
        <ele>25.609999999999999</ele>
        <time>2019-09-04T11:25:50Z</time>
      </trkpt>
      <trkpt lat="57.558955969288945" lon="-5.765351029112935">
        <ele>27.050000000000001</ele>
        <time>2019-09-04T11:25:51Z</time>
      </trkpt>
      <trkpt lat="57.558867959305644" lon="-5.765486983582377">
        <ele>28.5</ele>
        <time>2019-09-04T11:25:52Z</time>
      </trkpt>
      <trkpt lat="57.557786023244262" lon="-5.767159005627036">
        <ele>45.32</ele>
        <time>2019-09-04T11:26:02Z</time>
      </trkpt>
      <trkpt lat="57.557072974741459" lon="-5.768260974436998">
        <ele>49.649999999999999</ele>
        <time>2019-09-04T11:26:09Z</time>
      </trkpt>
      <trkpt lat="57.556980019435287" lon="-5.768453003838658">
        <ele>49.159999999999997</ele>
        <time>2019-09-04T11:26:10Z</time>
      </trkpt>
      <trkpt lat="57.556910030543804" lon="-5.768676968291402">
        <ele>48.68</ele>
        <time>2019-09-04T11:26:11Z</time>
      </trkpt>
      <trkpt lat="57.556841969490051" lon="-5.768895987421274">
        <ele>47.719999999999999</ele>
        <time>2019-09-04T11:26:12Z</time>
      </trkpt>
      <trkpt lat="57.556801987811923" lon="-5.769145013764501">
        <ele>46.759999999999998</ele>
        <time>2019-09-04T11:26:13Z</time>
      </trkpt>
      <trkpt lat="57.556782038882375" lon="-5.769380964338779">
        <ele>45.32</ele>
        <time>2019-09-04T11:26:14Z</time>
      </trkpt>
      <trkpt lat="57.556762006133795" lon="-5.769611969590187">
        <ele>44.359999999999999</ele>
        <time>2019-09-04T11:26:15Z</time>
      </trkpt>
      <trkpt lat="57.55675102584064" lon="-5.770275983959436">
        <ele>40.030000000000001</ele>
        <time>2019-09-04T11:26:18Z</time>
      </trkpt>
      <trkpt lat="57.556766029447317" lon="-5.770472036674619">
        <ele>38.590000000000003</ele>
        <time>2019-09-04T11:26:19Z</time>
      </trkpt>
      <trkpt lat="57.556809028610587" lon="-5.770687032490969">
        <ele>37.630000000000003</ele>
        <time>2019-09-04T11:26:20Z</time>
      </trkpt>
      <trkpt lat="57.556874994188547" lon="-5.770905967801809">
        <ele>36.189999999999998</ele>
        <time>2019-09-04T11:26:21Z</time>
      </trkpt>
      <trkpt lat="57.556946994736791" lon="-5.771145019680262">
        <ele>34.740000000000002</ele>
        <time>2019-09-04T11:26:22Z</time>
      </trkpt>
      <trkpt lat="57.557030981406569" lon="-5.771387005224824">
        <ele>33.780000000000001</ele>
        <time>2019-09-04T11:26:23Z</time>
      </trkpt>
      <trkpt lat="57.557119997218251" lon="-5.771609041839838">
        <ele>33.299999999999997</ele>
        <time>2019-09-04T11:26:24Z</time>
      </trkpt>
      <trkpt lat="57.557950979098678" lon="-5.773173021152616">
        <ele>34.259999999999998</ele>
        <time>2019-09-04T11:26:33Z</time>
      </trkpt>
      <trkpt lat="57.558808028697968" lon="-5.774620994925499">
        <ele>31.379999999999999</ele>
        <time>2019-09-04T11:26:41Z</time>
      </trkpt>
      <trkpt lat="57.560204034671187" lon="-5.777414012700319">
        <ele>34.259999999999998</ele>
        <time>2019-09-04T11:26:53Z</time>
      </trkpt>
      <trkpt lat="57.561347996816039" lon="-5.779539998620749">
        <ele>32.82</ele>
        <time>2019-09-04T11:27:03Z</time>
      </trkpt>
      <trkpt lat="57.562540993094444" lon="-5.781681993976235">
        <ele>36.670000000000002</ele>
        <time>2019-09-04T11:27:13Z</time>
      </trkpt>
      <trkpt lat="57.564134979620576" lon="-5.784348025918007">
        <ele>37.149999999999999</ele>
        <time>2019-09-04T11:27:25Z</time>
      </trkpt>
      <trkpt lat="57.564897984266281" lon="-5.78555703163147">
        <ele>42.920000000000002</ele>
        <time>2019-09-04T11:27:31Z</time>
      </trkpt>
      <trkpt lat="57.565036034211516" lon="-5.785669013857842">
        <ele>44.359999999999999</ele>
        <time>2019-09-04T11:27:32Z</time>
      </trkpt>
      <trkpt lat="57.565546995028853" lon="-5.786080984398723">
        <ele>49.159999999999997</ele>
        <time>2019-09-04T11:27:36Z</time>
      </trkpt>
      <trkpt lat="57.565649002790451" lon="-5.786262033507228">
        <ele>49.649999999999999</ele>
        <time>2019-09-04T11:27:37Z</time>
      </trkpt>
      <trkpt lat="57.565750004723668" lon="-5.786445010453463">
        <ele>50.130000000000003</ele>
        <time>2019-09-04T11:27:38Z</time>
      </trkpt>
      <trkpt lat="57.566767986863852" lon="-5.788099011406303">
        <ele>46.759999999999998</ele>
        <time>2019-09-04T11:27:47Z</time>
      </trkpt>
      <trkpt lat="57.567059006541967" lon="-5.788406962528825">
        <ele>44.359999999999999</ele>
        <time>2019-09-04T11:27:49Z</time>
      </trkpt>
      <trkpt lat="57.567220022901893" lon="-5.788490027189255">
        <ele>43.399999999999999</ele>
        <time>2019-09-04T11:27:50Z</time>
      </trkpt>
      <trkpt lat="57.567372992634773" lon="-5.788548029959202">
        <ele>43.399999999999999</ele>
        <time>2019-09-04T11:27:51Z</time>
      </trkpt>
      <trkpt lat="57.567520011216402" lon="-5.788585999980569">
        <ele>43.880000000000003</ele>
        <time>2019-09-04T11:27:52Z</time>
      </trkpt>
      <trkpt lat="57.567668035626411" lon="-5.78860997222364">
        <ele>43.399999999999999</ele>
        <time>2019-09-04T11:27:53Z</time>
      </trkpt>
      <trkpt lat="57.568229036405683" lon="-5.788665041327477">
        <ele>42.439999999999998</ele>
        <time>2019-09-04T11:27:57Z</time>
      </trkpt>
      <trkpt lat="57.568367002531886" lon="-5.788622964173555">
        <ele>41.469999999999999</ele>
        <time>2019-09-04T11:27:58Z</time>
      </trkpt>
      <trkpt lat="57.569088013842702" lon="-5.788272013887763">
        <ele>37.149999999999999</ele>
        <time>2019-09-04T11:28:04Z</time>
      </trkpt>
      <trkpt lat="57.569195972755551" lon="-5.788260027766228">
        <ele>36.670000000000002</ele>
        <time>2019-09-04T11:28:05Z</time>
      </trkpt>
      <trkpt lat="57.569312984123826" lon="-5.788279976695776">
        <ele>35.229999999999997</ele>
        <time>2019-09-04T11:28:06Z</time>
      </trkpt>
      <trkpt lat="57.569837020710111" lon="-5.78848198056221">
        <ele>30.420000000000002</ele>
        <time>2019-09-04T11:28:10Z</time>
      </trkpt>
      <trkpt lat="57.56996501237154" lon="-5.788581976667047">
        <ele>29.460000000000001</ele>
        <time>2019-09-04T11:28:11Z</time>
      </trkpt>
      <trkpt lat="57.570527018979192" lon="-5.789172984659672">
        <ele>27.050000000000001</ele>
        <time>2019-09-04T11:28:16Z</time>
      </trkpt>
      <trkpt lat="57.570608993992209" lon="-5.789400972425938">
        <ele>26.57</ele>
        <time>2019-09-04T11:28:17Z</time>
      </trkpt>
      <trkpt lat="57.570689963176847" lon="-5.789615968242288">
        <ele>26.57</ele>
        <time>2019-09-04T11:28:18Z</time>
      </trkpt>
      <trkpt lat="57.571525974199176" lon="-5.791766010224819">
        <ele>22.25</ele>
        <time>2019-09-04T11:28:28Z</time>
      </trkpt>
      <trkpt lat="57.572486959397793" lon="-5.793511960655451">
        <ele>20.32</ele>
        <time>2019-09-04T11:28:38Z</time>
      </trkpt>
      <trkpt lat="57.573377033695579" lon="-5.79509798437357">
        <ele>34.740000000000002</ele>
        <time>2019-09-04T11:28:48Z</time>
      </trkpt>
      <trkpt lat="57.573420032858849" lon="-5.795298982411623">
        <ele>35.710000000000001</ele>
        <time>2019-09-04T11:28:49Z</time>
      </trkpt>
      <trkpt lat="57.573439981788397" lon="-5.795457987114787">
        <ele>37.149999999999999</ele>
        <time>2019-09-04T11:28:50Z</time>
      </trkpt>
      <trkpt lat="57.573426989838481" lon="-5.795658985152841">
        <ele>37.630000000000003</ele>
        <time>2019-09-04T11:28:51Z</time>
      </trkpt>
      <trkpt lat="57.573407040908933" lon="-5.795839028432965">
        <ele>37.630000000000003</ele>
        <time>2019-09-04T11:28:52Z</time>
      </trkpt>
      <trkpt lat="57.57338298484683" lon="-5.796041032299399">
        <ele>37.149999999999999</ele>
        <time>2019-09-04T11:28:53Z</time>
      </trkpt>
      <trkpt lat="57.573306038975716" lon="-5.796260973438621">
        <ele>36.670000000000002</ele>
        <time>2019-09-04T11:28:54Z</time>
      </trkpt>
      <trkpt lat="57.573232026770711" lon="-5.796459037810564">
        <ele>36.189999999999998</ele>
        <time>2019-09-04T11:28:55Z</time>
      </trkpt>
      <trkpt lat="57.573160026222467" lon="-5.796650983393192">
        <ele>35.710000000000001</ele>
        <time>2019-09-04T11:28:56Z</time>
      </trkpt>
      <trkpt lat="57.573042009025812" lon="-5.796805964782834">
        <ele>35.229999999999997</ele>
        <time>2019-09-04T11:28:57Z</time>
      </trkpt>
      <trkpt lat="57.572923991829157" lon="-5.796891963109374">
        <ele>35.229999999999997</ele>
        <time>2019-09-04T11:28:58Z</time>
      </trkpt>
      <trkpt lat="57.572802035138011" lon="-5.796934040263295">
        <ele>35.710000000000001</ele>
        <time>2019-09-04T11:28:59Z</time>
      </trkpt>
      <trkpt lat="57.572679994627833" lon="-5.796957006677985">
        <ele>36.670000000000002</ele>
        <time>2019-09-04T11:29:00Z</time>
      </trkpt>
      <trkpt lat="57.572559965774417" lon="-5.796977961435914">
        <ele>37.630000000000003</ele>
        <time>2019-09-04T11:29:01Z</time>
      </trkpt>
      <trkpt lat="57.572443038225174" lon="-5.797000005841255">
        <ele>39.07</ele>
        <time>2019-09-04T11:29:02Z</time>
      </trkpt>
      <trkpt lat="57.57232703268528" lon="-5.797058008611202">
        <ele>40.030000000000001</ele>
        <time>2019-09-04T11:29:03Z</time>
      </trkpt>
      <trkpt lat="57.57219904102385" lon="-5.797135960310698">
        <ele>41.469999999999999</ele>
        <time>2019-09-04T11:29:04Z</time>
      </trkpt>
      <trkpt lat="57.572107007727027" lon="-5.79729001969099">
        <ele>42.439999999999998</ele>
        <time>2019-09-04T11:29:05Z</time>
      </trkpt>
      <trkpt lat="57.572037018835545" lon="-5.797513984143734">
        <ele>43.399999999999999</ele>
        <time>2019-09-04T11:29:06Z</time>
      </trkpt>
      <trkpt lat="57.571991002187133" lon="-5.797729985788465">
        <ele>44.359999999999999</ele>
        <time>2019-09-04T11:29:07Z</time>
      </trkpt>
      <trkpt lat="57.571946997195482" lon="-5.797937018796802">
        <ele>44.840000000000003</ele>
        <time>2019-09-04T11:29:08Z</time>
      </trkpt>
      <trkpt lat="57.571930987760425" lon="-5.798179004341364">
        <ele>44.840000000000003</ele>
        <time>2019-09-04T11:29:09Z</time>
      </trkpt>
      <trkpt lat="57.571949008852243" lon="-5.798405986279249">
        <ele>43.880000000000003</ele>
        <time>2019-09-04T11:29:10Z</time>
      </trkpt>
      <trkpt lat="57.571979016065598" lon="-5.798663981258869">
        <ele>42.920000000000002</ele>
        <time>2019-09-04T11:29:11Z</time>
      </trkpt>
      <trkpt lat="57.572041964158416" lon="-5.798898003995419">
        <ele>41.469999999999999</ele>
        <time>2019-09-04T11:29:12Z</time>
      </trkpt>
      <trkpt lat="57.572128968313336" lon="-5.799129009246826">
        <ele>40.030000000000001</ele>
        <time>2019-09-04T11:29:13Z</time>
      </trkpt>
      <trkpt lat="57.572238016873598" lon="-5.799263035878539">
        <ele>39.549999999999997</ele>
        <time>2019-09-04T11:29:14Z</time>
      </trkpt>
      <trkpt lat="57.572354022413492" lon="-5.799380969256163">
        <ele>39.07</ele>
        <time>2019-09-04T11:29:15Z</time>
      </trkpt>
      <trkpt lat="57.57247899658978" lon="-5.799490017816424">
        <ele>39.549999999999997</ele>
        <time>2019-09-04T11:29:16Z</time>
      </trkpt>
      <trkpt lat="57.572605982422829" lon="-5.799600994214416">
        <ele>40.030000000000001</ele>
        <time>2019-09-04T11:29:17Z</time>
      </trkpt>
      <trkpt lat="57.573522040620446" lon="-5.800401968881488">
        <ele>47.240000000000002</ele>
        <time>2019-09-04T11:29:25Z</time>
      </trkpt>
      <trkpt lat="57.574591990560293" lon="-5.801438977941871">
        <ele>45.799999999999997</ele>
        <time>2019-09-04T11:29:35Z</time>
      </trkpt>
      <trkpt lat="57.57469299249351" lon="-5.801598988473415">
        <ele>45.32</ele>
        <time>2019-09-04T11:29:36Z</time>
      </trkpt>
      <trkpt lat="57.57477899082005" lon="-5.801797974854708">
        <ele>45.32</ele>
        <time>2019-09-04T11:29:37Z</time>
      </trkpt>
      <trkpt lat="57.574854008853436" lon="-5.80201699398458">
        <ele>44.840000000000003</ele>
        <time>2019-09-04T11:29:38Z</time>
      </trkpt>
      <trkpt lat="57.574931960552931" lon="-5.802244981750846">
        <ele>44.359999999999999</ele>
        <time>2019-09-04T11:29:39Z</time>
      </trkpt>
      <trkpt lat="57.575881965458393" lon="-5.805037999525666">
        <ele>33.299999999999997</ele>
        <time>2019-09-04T11:29:50Z</time>
      </trkpt>
      <trkpt lat="57.576357973739505" lon="-5.806360999122262">
        <ele>35.229999999999997</ele>
        <time>2019-09-04T11:29:56Z</time>
      </trkpt>
      <trkpt lat="57.57645595818758" lon="-5.806502988561988">
        <ele>35.710000000000001</ele>
        <time>2019-09-04T11:29:57Z</time>
      </trkpt>
      <trkpt lat="57.576571041718125" lon="-5.806645983830094">
        <ele>36.189999999999998</ele>
        <time>2019-09-04T11:29:58Z</time>
      </trkpt>
      <trkpt lat="57.576701967045665" lon="-5.806750003248453">
        <ele>37.149999999999999</ele>
        <time>2019-09-04T11:29:59Z</time>
      </trkpt>
      <trkpt lat="57.5768400169909" lon="-5.806858967989683">
        <ele>38.109999999999999</ele>
        <time>2019-09-04T11:30:00Z</time>
      </trkpt>
      <trkpt lat="57.57750797085464" lon="-5.807389039546251">
        <ele>44.840000000000003</ele>
        <time>2019-09-04T11:30:06Z</time>
      </trkpt>
      <trkpt lat="57.577583994716406" lon="-5.807448970153928">
        <ele>45.32</ele>
        <time>2019-09-04T11:30:07Z</time>
      </trkpt>
      <trkpt lat="57.577651971951127" lon="-5.807503033429384">
        <ele>45.799999999999997</ele>
        <time>2019-09-04T11:30:08Z</time>
      </trkpt>
      <trkpt lat="57.577696982771158" lon="-5.807683998718858">
        <ele>45.799999999999997</ele>
        <time>2019-09-04T11:30:09Z</time>
      </trkpt>
      <trkpt lat="57.577719027176499" lon="-5.807837974280119">
        <ele>45.32</ele>
        <time>2019-09-04T11:30:10Z</time>
      </trkpt>
      <trkpt lat="57.57774299941957" lon="-5.808002008125186">
        <ele>45.32</ele>
        <time>2019-09-04T11:30:11Z</time>
      </trkpt>
      <trkpt lat="57.577833021059632" lon="-5.809301035478711">
        <ele>40.509999999999998</ele>
        <time>2019-09-04T11:30:19Z</time>
      </trkpt>
      <trkpt lat="57.577830003574491" lon="-5.809484012424946">
        <ele>40.030000000000001</ele>
        <time>2019-09-04T11:30:20Z</time>
      </trkpt>
      <trkpt lat="57.577825980260968" lon="-5.809680987149477">
        <ele>40.030000000000001</ele>
        <time>2019-09-04T11:30:21Z</time>
      </trkpt>
      <trkpt lat="57.577810976654291" lon="-5.809891037642956">
        <ele>40.030000000000001</ele>
        <time>2019-09-04T11:30:22Z</time>
      </trkpt>
      <trkpt lat="57.577766971662641" lon="-5.810082983225584">
        <ele>40.030000000000001</ele>
        <time>2019-09-04T11:30:23Z</time>
      </trkpt>
      <trkpt lat="57.577299010008574" lon="-5.812161024659872">
        <ele>41.950000000000003</ele>
        <time>2019-09-04T11:30:32Z</time>
      </trkpt>
      <trkpt lat="57.576800035312772" lon="-5.813423004001379">
        <ele>40.990000000000002</ele>
        <time>2019-09-04T11:30:38Z</time>
      </trkpt>
      <trkpt lat="57.576543968170881" lon="-5.814243005588651">
        <ele>36.670000000000002</ele>
        <time>2019-09-04T11:30:42Z</time>
      </trkpt>
      <trkpt lat="57.576449001207948" lon="-5.814427994191647">
        <ele>34.740000000000002</ele>
        <time>2019-09-04T11:30:43Z</time>
      </trkpt>
      <trkpt lat="57.576329978182912" lon="-5.814540982246399">
        <ele>32.82</ele>
        <time>2019-09-04T11:30:44Z</time>
      </trkpt>
      <trkpt lat="57.57522800937295" lon="-5.815894994884729">
        <ele>21.289999999999999</ele>
        <time>2019-09-04T11:30:53Z</time>
      </trkpt>
      <trkpt lat="57.57473599165678" lon="-5.816549034789205">
        <ele>18.399999999999999</ele>
        <time>2019-09-04T11:30:59Z</time>
      </trkpt>
      <trkpt lat="57.574525019153953" lon="-5.816709967330098">
        <ele>18.399999999999999</ele>
        <time>2019-09-04T11:31:03Z</time>
      </trkpt>
      <trkpt lat="57.574466010555625" lon="-5.816739974543452">
        <ele>18.399999999999999</ele>
        <time>2019-09-04T11:31:04Z</time>
      </trkpt>
      <trkpt lat="57.574344975873828" lon="-5.816799988970161">
        <ele>18.399999999999999</ele>
        <time>2019-09-04T11:31:06Z</time>
      </trkpt>
      <trkpt lat="57.574287978932261" lon="-5.816828990355134">
        <ele>18.879999999999999</ele>
        <time>2019-09-04T11:31:07Z</time>
      </trkpt>
      <trkpt lat="57.573945997282863" lon="-5.816999981179833">
        <ele>21.289999999999999</ele>
        <time>2019-09-04T11:31:16Z</time>
      </trkpt>
      <trkpt lat="57.573945997282863" lon="-5.816999981179833">
        <ele>21.289999999999999</ele>
        <time>2019-09-04T11:31:43Z</time>
      </trkpt>
      <trkpt lat="57.573945997282863" lon="-5.816999981179833">
        <ele>21.289999999999999</ele>
        <time>2019-09-04T11:32:28Z</time>
      </trkpt>
      <trkpt lat="57.573945997282863" lon="-5.816999981179833">
        <ele>21.77</ele>
        <time>2019-09-04T11:33:12Z</time>
      </trkpt>
      <trkpt lat="57.573945997282863" lon="-5.816999981179833">
        <ele>21.77</ele>
        <time>2019-09-04T11:33:48Z</time>
      </trkpt>
      <trkpt lat="57.573945997282863" lon="-5.816999981179833">
        <ele>22.25</ele>
        <time>2019-09-04T11:34:44Z</time>
      </trkpt>
      <trkpt lat="57.57389604113996" lon="-5.817024959251285">
        <ele>22.73</ele>
        <time>2019-09-04T11:35:05Z</time>
      </trkpt>
      <trkpt lat="57.573494967073202" lon="-5.817569028586149">
        <ele>26.09</ele>
        <time>2019-09-04T11:35:10Z</time>
      </trkpt>
      <trkpt lat="57.572643030434847" lon="-5.818450972437859">
        <ele>33.780000000000001</ele>
        <time>2019-09-04T11:35:18Z</time>
      </trkpt>
      <trkpt lat="57.571502001956105" lon="-5.819085985422134">
        <ele>37.149999999999999</ele>
        <time>2019-09-04T11:35:28Z</time>
      </trkpt>
      <trkpt lat="57.570347981527448" lon="-5.819722004234791">
        <ele>42.439999999999998</ele>
        <time>2019-09-04T11:35:37Z</time>
      </trkpt>
      <trkpt lat="57.570039024576545" lon="-5.8198700286448">
        <ele>44.359999999999999</ele>
        <time>2019-09-04T11:35:40Z</time>
      </trkpt>
      <trkpt lat="57.569933999329805" lon="-5.819919984787703">
        <ele>44.840000000000003</ele>
        <time>2019-09-04T11:35:41Z</time>
      </trkpt>
      <trkpt lat="57.569596040993929" lon="-5.820188038051128">
        <ele>44.840000000000003</ele>
        <time>2019-09-04T11:35:44Z</time>
      </trkpt>
      <trkpt lat="57.569475006312132" lon="-5.820298008620739">
        <ele>44.840000000000003</ele>
        <time>2019-09-04T11:35:45Z</time>
      </trkpt>
      <trkpt lat="57.569339973852038" lon="-5.820427006110549">
        <ele>44.359999999999999</ele>
        <time>2019-09-04T11:35:46Z</time>
      </trkpt>
      <trkpt lat="57.569235032424331" lon="-5.820615012198687">
        <ele>43.880000000000003</ele>
        <time>2019-09-04T11:35:47Z</time>
      </trkpt>
      <trkpt lat="57.56912698969245" lon="-5.820807041600347">
        <ele>43.880000000000003</ele>
        <time>2019-09-04T11:35:48Z</time>
      </trkpt>
      <trkpt lat="57.5690190307796" lon="-5.820998987182975">
        <ele>43.399999999999999</ele>
        <time>2019-09-04T11:35:49Z</time>
      </trkpt>
      <trkpt lat="57.568818032741547" lon="-5.821355972439051">
        <ele>43.399999999999999</ele>
        <time>2019-09-04T11:35:51Z</time>
      </trkpt>
      <trkpt lat="57.568728011101484" lon="-5.821453034877777">
        <ele>43.880000000000003</ele>
        <time>2019-09-04T11:35:52Z</time>
      </trkpt>
      <trkpt lat="57.568623991683125" lon="-5.821471977978945">
        <ele>43.880000000000003</ele>
        <time>2019-09-04T11:35:53Z</time>
      </trkpt>
      <trkpt lat="57.568516032770276" lon="-5.821493016555905">
        <ele>44.359999999999999</ele>
        <time>2019-09-04T11:35:54Z</time>
      </trkpt>
      <trkpt lat="57.568402960896492" lon="-5.821513971313834">
        <ele>44.840000000000003</ele>
        <time>2019-09-04T11:35:55Z</time>
      </trkpt>
      <trkpt lat="57.567405011504889" lon="-5.821681022644043">
        <ele>46.280000000000001</ele>
        <time>2019-09-04T11:36:02Z</time>
      </trkpt>
      <trkpt lat="57.566204974427819" lon="-5.821716981008649">
        <ele>48.200000000000003</ele>
        <time>2019-09-04T11:36:10Z</time>
      </trkpt>
      <trkpt lat="57.565493015572429" lon="-5.821905992925167">
        <ele>48.200000000000003</ele>
        <time>2019-09-04T11:36:17Z</time>
      </trkpt>
      <trkpt lat="57.565014995634556" lon="-5.822109002619982">
        <ele>47.719999999999999</ele>
        <time>2019-09-04T11:36:22Z</time>
      </trkpt>
      <trkpt lat="57.564883986487985" lon="-5.822196006774902">
        <ele>47.240000000000002</ele>
        <time>2019-09-04T11:36:23Z</time>
      </trkpt>
      <trkpt lat="57.56480997428298" lon="-5.822343025356531">
        <ele>47.240000000000002</ele>
        <time>2019-09-04T11:36:24Z</time>
      </trkpt>
      <trkpt lat="57.564525995403528" lon="-5.822871001437306">
        <ele>46.759999999999998</ele>
        <time>2019-09-04T11:36:27Z</time>
      </trkpt>
      <trkpt lat="57.564418036490679" lon="-5.82296303473413">
        <ele>46.759999999999998</ele>
        <time>2019-09-04T11:36:28Z</time>
      </trkpt>
      <trkpt lat="57.563730971887708" lon="-5.823553958907723">
        <ele>48.200000000000003</ele>
        <time>2019-09-04T11:36:34Z</time>
      </trkpt>
      <trkpt lat="57.562491036951542" lon="-5.824090987443924">
        <ele>51.090000000000003</ele>
        <time>2019-09-04T11:36:44Z</time>
      </trkpt>
      <trkpt lat="57.562388023361564" lon="-5.824114037677646">
        <ele>51.57</ele>
        <time>2019-09-04T11:36:45Z</time>
      </trkpt>
      <trkpt lat="57.562298001721501" lon="-5.824164999648929">
        <ele>51.57</ele>
        <time>2019-09-04T11:36:46Z</time>
      </trkpt>
      <trkpt lat="57.562216026708484" lon="-5.824258960783482">
        <ele>51.57</ele>
        <time>2019-09-04T11:36:47Z</time>
      </trkpt>
      <trkpt lat="57.562133967876434" lon="-5.824354011565447">
        <ele>52.049999999999997</ele>
        <time>2019-09-04T11:36:48Z</time>
      </trkpt>
      <trkpt lat="57.562046041712165" lon="-5.824487032368779">
        <ele>52.049999999999997</ele>
        <time>2019-09-04T11:36:49Z</time>
      </trkpt>
      <trkpt lat="57.562019973993301" lon="-5.824669003486633">
        <ele>52.530000000000001</ele>
        <time>2019-09-04T11:36:50Z</time>
      </trkpt>
      <trkpt lat="57.561987033113837" lon="-5.824900008738041">
        <ele>53.490000000000002</ele>
        <time>2019-09-04T11:36:51Z</time>
      </trkpt>
      <trkpt lat="57.561990972608328" lon="-5.825067982077599">
        <ele>53.969999999999999</ele>
        <time>2019-09-04T11:36:52Z</time>
      </trkpt>
      <trkpt lat="57.56199499592185" lon="-5.825269985944033">
        <ele>54.93</ele>
        <time>2019-09-04T11:36:53Z</time>
      </trkpt>
      <trkpt lat="57.562003964558244" lon="-5.825679022818804">
        <ele>56.369999999999997</ele>
        <time>2019-09-04T11:36:55Z</time>
      </trkpt>
      <trkpt lat="57.561901034787297" lon="-5.82659499719739">
        <ele>57.340000000000003</ele>
        <time>2019-09-04T11:37:00Z</time>
      </trkpt>
      <trkpt lat="57.561871027573943" lon="-5.82670203410089">
        <ele>57.340000000000003</ele>
        <time>2019-09-04T11:37:01Z</time>
      </trkpt>
      <trkpt lat="57.561815036460757" lon="-5.826894985511899">
        <ele>56.859999999999999</ele>
        <time>2019-09-04T11:37:02Z</time>
      </trkpt>
      <trkpt lat="57.561744963750243" lon="-5.826974026858807">
        <ele>55.890000000000001</ele>
        <time>2019-09-04T11:37:03Z</time>
      </trkpt>
      <trkpt lat="57.561652008444071" lon="-5.827078968286514">
        <ele>55.409999999999997</ele>
        <time>2019-09-04T11:37:04Z</time>
      </trkpt>
      <trkpt lat="57.561529967933893" lon="-5.827147029340267">
        <ele>54.450000000000003</ele>
        <time>2019-09-04T11:37:05Z</time>
      </trkpt>
      <trkpt lat="57.561400970444083" lon="-5.827211989089847">
        <ele>53.969999999999999</ele>
        <time>2019-09-04T11:37:06Z</time>
      </trkpt>
      <trkpt lat="57.560133961960673" lon="-5.827982034534216">
        <ele>46.759999999999998</ele>
        <time>2019-09-04T11:37:14Z</time>
      </trkpt>
      <trkpt lat="57.558703003451228" lon="-5.829101018607616">
        <ele>43.880000000000003</ele>
        <time>2019-09-04T11:37:23Z</time>
      </trkpt>
      <trkpt lat="57.557215970009565" lon="-5.830317987129092">
        <ele>30.420000000000002</ele>
        <time>2019-09-04T11:37:33Z</time>
      </trkpt>
      <trkpt lat="57.556040994822979" lon="-5.831454992294312">
        <ele>23.210000000000001</ele>
        <time>2019-09-04T11:37:41Z</time>
      </trkpt>
      <trkpt lat="57.55537798628211" lon="-5.831765960901976">
        <ele>24.170000000000002</ele>
        <time>2019-09-04T11:37:46Z</time>
      </trkpt>
      <trkpt lat="57.555280001834035" lon="-5.831896970048547">
        <ele>24.649999999999999</ele>
        <time>2019-09-04T11:37:47Z</time>
      </trkpt>
      <trkpt lat="57.55518302321434" lon="-5.832029990851879">
        <ele>25.129999999999999</ele>
        <time>2019-09-04T11:37:48Z</time>
      </trkpt>
      <trkpt lat="57.555114040151238" lon="-5.83222595974803">
        <ele>26.09</ele>
        <time>2019-09-04T11:37:49Z</time>
      </trkpt>
      <trkpt lat="57.555045979097486" lon="-5.832420000806451">
        <ele>26.57</ele>
        <time>2019-09-04T11:37:50Z</time>
      </trkpt>
      <trkpt lat="57.554982025176287" lon="-5.832603983581066">
        <ele>26.57</ele>
        <time>2019-09-04T11:37:51Z</time>
      </trkpt>
      <trkpt lat="57.554922010749578" lon="-5.832776986062527">
        <ele>26.57</ele>
        <time>2019-09-04T11:37:52Z</time>
      </trkpt>
      <trkpt lat="57.554854033514857" lon="-5.832936996594071">
        <ele>27.050000000000001</ele>
        <time>2019-09-04T11:37:53Z</time>
      </trkpt>
      <trkpt lat="57.554012993350625" lon="-5.833861017599702">
        <ele>29.940000000000001</ele>
        <time>2019-09-04T11:38:02Z</time>
      </trkpt>
      <trkpt lat="57.552838018164039" lon="-5.834714965894818">
        <ele>29.940000000000001</ele>
        <time>2019-09-04T11:38:12Z</time>
      </trkpt>
      <trkpt lat="57.552468040958047" lon="-5.835119979456067">
        <ele>25.609999999999999</ele>
        <time>2019-09-04T11:38:15Z</time>
      </trkpt>
      <trkpt lat="57.552366033196449" lon="-5.835261968895793">
        <ele>24.170000000000002</ele>
        <time>2019-09-04T11:38:16Z</time>
      </trkpt>
      <trkpt lat="57.552280034869909" lon="-5.835418039932847">
        <ele>23.210000000000001</ele>
        <time>2019-09-04T11:38:17Z</time>
      </trkpt>
      <trkpt lat="57.552242986857891" lon="-5.835619037970901">
        <ele>22.73</ele>
        <time>2019-09-04T11:38:18Z</time>
      </trkpt>
      <trkpt lat="57.552201999351382" lon="-5.835843002423644">
        <ele>22.73</ele>
        <time>2019-09-04T11:38:19Z</time>
      </trkpt>
      <trkpt lat="57.552162017673254" lon="-5.836065961048007">
        <ele>22.25</ele>
        <time>2019-09-04T11:38:20Z</time>
      </trkpt>
      <trkpt lat="57.552123963832855" lon="-5.836275005713105">
        <ele>21.77</ele>
        <time>2019-09-04T11:38:21Z</time>
      </trkpt>
      <trkpt lat="57.552136033773422" lon="-5.83650098182261">
        <ele>21.77</ele>
        <time>2019-09-04T11:38:22Z</time>
      </trkpt>
      <trkpt lat="57.552159000188112" lon="-5.836723018437624">
        <ele>21.77</ele>
        <time>2019-09-04T11:38:23Z</time>
      </trkpt>
      <trkpt lat="57.552182972431183" lon="-5.836962992325425">
        <ele>21.77</ele>
        <time>2019-09-04T11:38:24Z</time>
      </trkpt>
      <trkpt lat="57.552209040150046" lon="-5.837211012840271">
        <ele>21.289999999999999</ele>
        <time>2019-09-04T11:38:25Z</time>
      </trkpt>
      <trkpt lat="57.552266959100962" lon="-5.837992960587144">
        <ele>19.84</ele>
        <time>2019-09-04T11:38:28Z</time>
      </trkpt>
      <trkpt lat="57.552266959100962" lon="-5.838274005800486">
        <ele>18.879999999999999</ele>
        <time>2019-09-04T11:38:29Z</time>
      </trkpt>
      <trkpt lat="57.552266959100962" lon="-5.838552033528686">
        <ele>17.920000000000002</ele>
        <time>2019-09-04T11:38:30Z</time>
      </trkpt>
      <trkpt lat="57.552228989079595" lon="-5.838837018236518">
        <ele>17.440000000000001</ele>
        <time>2019-09-04T11:38:31Z</time>
      </trkpt>
      <trkpt lat="57.55217500962317" lon="-5.839096019044519">
        <ele>17.440000000000001</ele>
        <time>2019-09-04T11:38:32Z</time>
      </trkpt>
      <trkpt lat="57.552122035995126" lon="-5.839352002367377">
        <ele>17.920000000000002</ele>
        <time>2019-09-04T11:38:33Z</time>
      </trkpt>
      <trkpt lat="57.551591964438558" lon="-5.841079009696841">
        <ele>24.170000000000002</ele>
        <time>2019-09-04T11:38:41Z</time>
      </trkpt>
      <trkpt lat="57.551459027454257" lon="-5.841469019651413">
        <ele>25.129999999999999</ele>
        <time>2019-09-04T11:38:43Z</time>
      </trkpt>
      <trkpt lat="57.551397001370788" lon="-5.841651996597648">
        <ele>25.609999999999999</ele>
        <time>2019-09-04T11:38:44Z</time>
      </trkpt>
      <trkpt lat="57.551304968073964" lon="-5.841804966330528">
        <ele>26.09</ele>
        <time>2019-09-04T11:38:45Z</time>
      </trkpt>
      <trkpt lat="57.551205977797508" lon="-5.841903034597635">
        <ele>27.050000000000001</ele>
        <time>2019-09-04T11:38:46Z</time>
      </trkpt>
      <trkpt lat="57.551087960600853" lon="-5.841910997405648">
        <ele>28.5</ele>
        <time>2019-09-04T11:38:47Z</time>
      </trkpt>
      <trkpt lat="57.550982013344765" lon="-5.841878978535533">
        <ele>29.940000000000001</ele>
        <time>2019-09-04T11:38:48Z</time>
      </trkpt>
      <trkpt lat="57.550867013633251" lon="-5.841834973543882">
        <ele>30.899999999999999</ele>
        <time>2019-09-04T11:38:49Z</time>
      </trkpt>
      <trkpt lat="57.550743967294693" lon="-5.841760039329529">
        <ele>31.859999999999999</ele>
        <time>2019-09-04T11:38:50Z</time>
      </trkpt>
      <trkpt lat="57.54933999851346" lon="-5.840898966416717">
        <ele>41.469999999999999</ele>
        <time>2019-09-04T11:39:00Z</time>
      </trkpt>
      <trkpt lat="57.5478770211339" lon="-5.840554973110557">
        <ele>44.359999999999999</ele>
        <time>2019-09-04T11:39:09Z</time>
      </trkpt>
      <trkpt lat="57.546713026240468" lon="-5.84047400392592">
        <ele>44.840000000000003</ele>
        <time>2019-09-04T11:39:16Z</time>
      </trkpt>
      <trkpt lat="57.545060031116009" lon="-5.841228039935231">
        <ele>55.890000000000001</ele>
        <time>2019-09-04T11:39:26Z</time>
      </trkpt>
      <trkpt lat="57.543790005147457" lon="-5.842099003493786">
        <ele>69.829999999999998</ele>
        <time>2019-09-04T11:39:35Z</time>
      </trkpt>
      <trkpt lat="57.543697971850634" lon="-5.842210985720158">
        <ele>70.790000000000006</ele>
        <time>2019-09-04T11:39:36Z</time>
      </trkpt>
      <trkpt lat="57.543627982959151" lon="-5.842361021786928">
        <ele>72.239999999999995</ele>
        <time>2019-09-04T11:39:37Z</time>
      </trkpt>
      <trkpt lat="57.543552964925766" lon="-5.842518014833331">
        <ele>73.200000000000003</ele>
        <time>2019-09-04T11:39:38Z</time>
      </trkpt>
      <trkpt lat="57.543494962155819" lon="-5.842718007043004">
        <ele>74.159999999999997</ele>
        <time>2019-09-04T11:39:39Z</time>
      </trkpt>
      <trkpt lat="57.543440982699394" lon="-5.842942977324128">
        <ele>74.640000000000001</ele>
        <time>2019-09-04T11:39:40Z</time>
      </trkpt>
      <trkpt lat="57.542899008840322" lon="-5.845191003754735">
        <ele>74.640000000000001</ele>
        <time>2019-09-04T11:39:48Z</time>
      </trkpt>
      <trkpt lat="57.542353011667728" lon="-5.847150022163987">
        <ele>78.969999999999999</ele>
        <time>2019-09-04T11:39:56Z</time>
      </trkpt>
      <trkpt lat="57.541980016976595" lon="-5.847942028194666">
        <ele>77.040000000000006</ele>
        <time>2019-09-04T11:40:01Z</time>
      </trkpt>
      <trkpt lat="57.541883960366249" lon="-5.848049987107515">
        <ele>76.079999999999998</ele>
        <time>2019-09-04T11:40:02Z</time>
      </trkpt>
      <trkpt lat="57.541773989796638" lon="-5.84812399931252">
        <ele>74.159999999999997</ele>
        <time>2019-09-04T11:40:03Z</time>
      </trkpt>
      <trkpt lat="57.541644992306828" lon="-5.8481440320611">
        <ele>72.239999999999995</ele>
        <time>2019-09-04T11:40:04Z</time>
      </trkpt>
      <trkpt lat="57.541510965675116" lon="-5.848164986819029">
        <ele>70.790000000000006</ele>
        <time>2019-09-04T11:40:05Z</time>
      </trkpt>
      <trkpt lat="57.540790038183331" lon="-5.848216032609344">
        <ele>64.069999999999993</ele>
        <time>2019-09-04T11:40:10Z</time>
      </trkpt>
      <trkpt lat="57.540646037086844" lon="-5.848194994032383">
        <ele>63.100000000000001</ele>
        <time>2019-09-04T11:40:11Z</time>
      </trkpt>
      <trkpt lat="57.540507987141609" lon="-5.848174961283803">
        <ele>61.659999999999997</ele>
        <time>2019-09-04T11:40:12Z</time>
      </trkpt>
      <trkpt lat="57.540365997701883" lon="-5.848176972940564">
        <ele>60.700000000000003</ele>
        <time>2019-09-04T11:40:13Z</time>
      </trkpt>
      <trkpt lat="57.540226019918919" lon="-5.848280992358923">
        <ele>59.740000000000002</ele>
        <time>2019-09-04T11:40:14Z</time>
      </trkpt>
      <trkpt lat="57.540103979408741" lon="-5.848431028425694">
        <ele>59.259999999999998</ele>
        <time>2019-09-04T11:40:15Z</time>
      </trkpt>
      <trkpt lat="57.539981016889215" lon="-5.848580980673432">
        <ele>58.780000000000001</ele>
        <time>2019-09-04T11:40:16Z</time>
      </trkpt>
      <trkpt lat="57.53986400552094" lon="-5.848724981769919">
        <ele>58.299999999999997</ele>
        <time>2019-09-04T11:40:17Z</time>
      </trkpt>
      <trkpt lat="57.53866296261549" lon="-5.849595023319125">
        <ele>46.280000000000001</ele>
        <time>2019-09-04T11:40:25Z</time>
      </trkpt>
      <trkpt lat="57.537041986361146" lon="-5.8505529910326">
        <ele>43.880000000000003</ele>
        <time>2019-09-04T11:40:35Z</time>
      </trkpt>
      <trkpt lat="57.536154007539153" lon="-5.850849039852619">
        <ele>47.719999999999999</ele>
        <time>2019-09-04T11:40:42Z</time>
      </trkpt>
      <trkpt lat="57.535220012068748" lon="-5.851013995707035">
        <ele>48.68</ele>
        <time>2019-09-04T11:40:53Z</time>
      </trkpt>
      <trkpt lat="57.53414997830987" lon="-5.850929003208876">
        <ele>50.609999999999999</ele>
        <time>2019-09-04T11:41:03Z</time>
      </trkpt>
      <trkpt lat="57.532868972048163" lon="-5.850769998505712">
        <ele>51.57</ele>
        <time>2019-09-04T11:41:13Z</time>
      </trkpt>
      <trkpt lat="57.531907986849546" lon="-5.85124097764492">
        <ele>50.609999999999999</ele>
        <time>2019-09-04T11:41:21Z</time>
      </trkpt>
      <trkpt lat="57.530816998332739" lon="-5.851717991754413">
        <ele>45.799999999999997</ele>
        <time>2019-09-04T11:41:29Z</time>
      </trkpt>
      <trkpt lat="57.530101016163826" lon="-5.851860987022519">
        <ele>43.880000000000003</ele>
        <time>2019-09-04T11:41:34Z</time>
      </trkpt>
      <trkpt lat="57.529970007017255" lon="-5.851838020607829">
        <ele>43.880000000000003</ele>
        <time>2019-09-04T11:41:35Z</time>
      </trkpt>
      <trkpt lat="57.529838997870684" lon="-5.851814970374107">
        <ele>43.880000000000003</ele>
        <time>2019-09-04T11:41:36Z</time>
      </trkpt>
      <trkpt lat="57.528582969680429" lon="-5.851769037544727">
        <ele>42.439999999999998</ele>
        <time>2019-09-04T11:41:46Z</time>
      </trkpt>
      <trkpt lat="57.528063040226698" lon="-5.851828968152404">
        <ele>41.950000000000003</ele>
        <time>2019-09-04T11:41:50Z</time>
      </trkpt>
      <trkpt lat="57.527944017201662" lon="-5.85175696760416">
        <ele>41.950000000000003</ele>
        <time>2019-09-04T11:41:51Z</time>
      </trkpt>
      <trkpt lat="57.526710033416748" lon="-5.851179035380483">
        <ele>45.32</ele>
        <time>2019-09-04T11:41:59Z</time>
      </trkpt>
      <trkpt lat="57.525374041870236" lon="-5.851275008171797">
        <ele>47.240000000000002</ele>
        <time>2019-09-04T11:42:07Z</time>
      </trkpt>
      <trkpt lat="57.524472987279296" lon="-5.851051965728402">
        <ele>48.68</ele>
        <time>2019-09-04T11:42:13Z</time>
      </trkpt>
      <trkpt lat="57.52431096509099" lon="-5.851090019568801">
        <ele>48.68</ele>
        <time>2019-09-04T11:42:14Z</time>
      </trkpt>
      <trkpt lat="57.522999029606581" lon="-5.851399982348084">
        <ele>46.280000000000001</ele>
        <time>2019-09-04T11:42:22Z</time>
      </trkpt>
      <trkpt lat="57.52243802882731" lon="-5.851746993139386">
        <ele>45.32</ele>
        <time>2019-09-04T11:42:26Z</time>
      </trkpt>
      <trkpt lat="57.52231003716588" lon="-5.85175596177578">
        <ele>45.32</ele>
        <time>2019-09-04T11:42:27Z</time>
      </trkpt>
      <trkpt lat="57.522185984998941" lon="-5.851764008402824">
        <ele>45.32</ele>
        <time>2019-09-04T11:42:28Z</time>
      </trkpt>
      <trkpt lat="57.521546026691794" lon="-5.851651020348072">
        <ele>45.32</ele>
        <time>2019-09-04T11:42:33Z</time>
      </trkpt>
      <trkpt lat="57.521425997838378" lon="-5.851697036996484">
        <ele>45.32</ele>
        <time>2019-09-04T11:42:34Z</time>
      </trkpt>
      <trkpt lat="57.520715966820717" lon="-5.851981015875936">
        <ele>41.950000000000003</ele>
        <time>2019-09-04T11:42:39Z</time>
      </trkpt>
      <trkpt lat="57.520564002916217" lon="-5.852099033072591">
        <ele>40.509999999999998</ele>
        <time>2019-09-04T11:42:40Z</time>
      </trkpt>
      <trkpt lat="57.520266026258469" lon="-5.852358033880591">
        <ele>37.630000000000003</ele>
        <time>2019-09-04T11:42:42Z</time>
      </trkpt>
      <trkpt lat="57.519289031624794" lon="-5.85362596437335">
        <ele>30.420000000000002</ele>
        <time>2019-09-04T11:42:50Z</time>
      </trkpt>
      <trkpt lat="57.519222982227802" lon="-5.853832997381687">
        <ele>29.940000000000001</ele>
        <time>2019-09-04T11:42:51Z</time>
      </trkpt>
      <trkpt lat="57.519155004993081" lon="-5.854048999026418">
        <ele>29.460000000000001</ele>
        <time>2019-09-04T11:42:52Z</time>
      </trkpt>
      <trkpt lat="57.518883012235165" lon="-5.854874029755592">
        <ele>28.98</ele>
        <time>2019-09-04T11:42:56Z</time>
      </trkpt>
      <trkpt lat="57.518796008080244" lon="-5.855065975338221">
        <ele>28.98</ele>
        <time>2019-09-04T11:42:57Z</time>
      </trkpt>
      <trkpt lat="57.518706992268562" lon="-5.855262028053403">
        <ele>28.98</ele>
        <time>2019-09-04T11:42:58Z</time>
      </trkpt>
      <trkpt lat="57.518566008657217" lon="-5.855379039421678">
        <ele>28.5</ele>
        <time>2019-09-04T11:42:59Z</time>
      </trkpt>
      <trkpt lat="57.518426030874252" lon="-5.855494039133191">
        <ele>28.02</ele>
        <time>2019-09-04T11:43:00Z</time>
      </trkpt>
      <trkpt lat="57.518281023949385" lon="-5.855612978339195">
        <ele>28.02</ele>
        <time>2019-09-04T11:43:01Z</time>
      </trkpt>
      <trkpt lat="57.516935979947448" lon="-5.856962967664003">
        <ele>35.229999999999997</ele>
        <time>2019-09-04T11:43:10Z</time>
      </trkpt>
      <trkpt lat="57.515750024467707" lon="-5.857676016166806">
        <ele>40.990000000000002</ele>
        <time>2019-09-04T11:43:18Z</time>
      </trkpt>
      <trkpt lat="57.513728979974985" lon="-5.858242968097329">
        <ele>44.359999999999999</ele>
        <time>2019-09-04T11:43:29Z</time>
      </trkpt>
      <trkpt lat="57.51174196600914" lon="-5.85880002938211">
        <ele>47.240000000000002</ele>
        <time>2019-09-04T11:43:40Z</time>
      </trkpt>
      <trkpt lat="57.510145967826247" lon="-5.859247036278248">
        <ele>50.609999999999999</ele>
        <time>2019-09-04T11:43:52Z</time>
      </trkpt>
      <trkpt lat="57.508812993764877" lon="-5.859518023207784">
        <ele>54.450000000000003</ele>
        <time>2019-09-04T11:44:01Z</time>
      </trkpt>
      <trkpt lat="57.507397038862109" lon="-5.859626987949014">
        <ele>57.340000000000003</ele>
        <time>2019-09-04T11:44:11Z</time>
      </trkpt>
      <trkpt lat="57.505227969959378" lon="-5.859797978773713">
        <ele>59.740000000000002</ele>
        <time>2019-09-04T11:44:27Z</time>
      </trkpt>
      <trkpt lat="57.503497023135424" lon="-5.859904009848833">
        <ele>59.740000000000002</ele>
        <time>2019-09-04T11:44:38Z</time>
      </trkpt>
      <trkpt lat="57.501918040215969" lon="-5.85998103953898">
        <ele>54.450000000000003</ele>
        <time>2019-09-04T11:44:49Z</time>
      </trkpt>
      <trkpt lat="57.500776005908847" lon="-5.859861010685563">
        <ele>53.009999999999998</ele>
        <time>2019-09-04T11:44:56Z</time>
      </trkpt>
      <trkpt lat="57.499155029654503" lon="-5.859882971271873">
        <ele>54.450000000000003</ele>
        <time>2019-09-04T11:45:05Z</time>
      </trkpt>
      <trkpt lat="57.497186036780477" lon="-5.860342970117927">
        <ele>55.409999999999997</ele>
        <time>2019-09-04T11:45:16Z</time>
      </trkpt>
      <trkpt lat="57.494912026450038" lon="-5.860874969512224">
        <ele>56.859999999999999</ele>
        <time>2019-09-04T11:45:29Z</time>
      </trkpt>
      <trkpt lat="57.493321979418397" lon="-5.861184010282159">
        <ele>53.009999999999998</ele>
        <time>2019-09-04T11:45:39Z</time>
      </trkpt>
      <trkpt lat="57.49208296649158" lon="-5.861022993922234">
        <ele>54.93</ele>
        <time>2019-09-04T11:45:48Z</time>
      </trkpt>
      <trkpt lat="57.490626024082303" lon="-5.860887039452791">
        <ele>61.18</ele>
        <time>2019-09-04T11:45:58Z</time>
      </trkpt>
      <trkpt lat="57.48905198648572" lon="-5.861023999750614">
        <ele>68.390000000000001</ele>
        <time>2019-09-04T11:46:08Z</time>
      </trkpt>
      <trkpt lat="57.487982958555222" lon="-5.861587012186647">
        <ele>68.870000000000005</ele>
        <time>2019-09-04T11:46:16Z</time>
      </trkpt>
      <trkpt lat="57.487925961613655" lon="-5.861617019400001">
        <ele>68.870000000000005</ele>
        <time>2019-09-04T11:46:17Z</time>
      </trkpt>
      <trkpt lat="57.487340988591313" lon="-5.861924970522523">
        <ele>66.950000000000003</ele>
        <time>2019-09-04T11:46:23Z</time>
      </trkpt>
      <trkpt lat="57.486105998978019" lon="-5.862575992941856">
        <ele>61.18</ele>
        <time>2019-09-04T11:46:30Z</time>
      </trkpt>
      <trkpt lat="57.48400297947228" lon="-5.863638985902071">
        <ele>56.369999999999997</ele>
        <time>2019-09-04T11:46:41Z</time>
      </trkpt>
      <trkpt lat="57.482599010691047" lon="-5.863662036135793">
        <ele>55.409999999999997</ele>
        <time>2019-09-04T11:46:49Z</time>
      </trkpt>
      <trkpt lat="57.480848031118512" lon="-5.863179992884398">
        <ele>52.530000000000001</ele>
        <time>2019-09-04T11:46:59Z</time>
      </trkpt>
      <trkpt lat="57.479444984346628" lon="-5.86331401951611">
        <ele>46.759999999999998</ele>
        <time>2019-09-04T11:47:08Z</time>
      </trkpt>
      <trkpt lat="57.477508010342717" lon="-5.863881977275014">
        <ele>32.340000000000003</ele>
        <time>2019-09-04T11:47:19Z</time>
      </trkpt>
      <trkpt lat="57.476584995165467" lon="-5.864138966426253">
        <ele>27.050000000000001</ele>
        <time>2019-09-04T11:47:25Z</time>
      </trkpt>
      <trkpt lat="57.475369032472372" lon="-5.863767983391881">
        <ele>24.649999999999999</ele>
        <time>2019-09-04T11:47:33Z</time>
      </trkpt>
      <trkpt lat="57.473387969657779" lon="-5.862929038703442">
        <ele>37.149999999999999</ele>
        <time>2019-09-04T11:47:46Z</time>
      </trkpt>
      <trkpt lat="57.473253021016717" lon="-5.862843962386251">
        <ele>38.590000000000003</ele>
        <time>2019-09-04T11:47:47Z</time>
      </trkpt>
      <trkpt lat="57.4720140080899" lon="-5.861189961433411">
        <ele>49.159999999999997</ele>
        <time>2019-09-04T11:47:57Z</time>
      </trkpt>
      <trkpt lat="57.471517967060208" lon="-5.86054396815598">
        <ele>52.049999999999997</ele>
        <time>2019-09-04T11:48:01Z</time>
      </trkpt>
      <trkpt lat="57.47136902064085" lon="-5.860403990373015">
        <ele>53.009999999999998</ele>
        <time>2019-09-04T11:48:02Z</time>
      </trkpt>
      <trkpt lat="57.471201969310641" lon="-5.860291002318263">
        <ele>53.490000000000002</ele>
        <time>2019-09-04T11:48:03Z</time>
      </trkpt>
      <trkpt lat="57.471037013456225" lon="-5.8602200075984">
        <ele>53.969999999999999</ele>
        <time>2019-09-04T11:48:04Z</time>
      </trkpt>
      <trkpt lat="57.470864010974765" lon="-5.860187988728285">
        <ele>54.93</ele>
        <time>2019-09-04T11:48:05Z</time>
      </trkpt>
      <trkpt lat="57.470706012099981" lon="-5.86017600260675">
        <ele>55.409999999999997</ele>
        <time>2019-09-04T11:48:06Z</time>
      </trkpt>
      <trkpt lat="57.470524962991476" lon="-5.860248003154993">
        <ele>56.859999999999999</ele>
        <time>2019-09-04T11:48:07Z</time>
      </trkpt>
      <trkpt lat="57.470362018793821" lon="-5.860312040895224">
        <ele>58.299999999999997</ele>
        <time>2019-09-04T11:48:08Z</time>
      </trkpt>
      <trkpt lat="57.46900599449873" lon="-5.860849991440773">
        <ele>65.030000000000001</ele>
        <time>2019-09-04T11:48:17Z</time>
      </trkpt>
      <trkpt lat="57.467498006299138" lon="-5.861448040232062">
        <ele>56.859999999999999</ele>
        <time>2019-09-04T11:48:27Z</time>
      </trkpt>
      <trkpt lat="57.465361962094903" lon="-5.862055979669094">
        <ele>28.5</ele>
        <time>2019-09-04T11:48:40Z</time>
      </trkpt>
      <trkpt lat="57.463650964200497" lon="-5.862020021304488">
        <ele>16.48</ele>
        <time>2019-09-04T11:48:51Z</time>
      </trkpt>
      <trkpt lat="57.462419997900724" lon="-5.86148701608181">
        <ele>16</ele>
        <time>2019-09-04T11:49:00Z</time>
      </trkpt>
      <trkpt lat="57.461405033245683" lon="-5.861063981428742">
        <ele>22.73</ele>
        <time>2019-09-04T11:49:08Z</time>
      </trkpt>
      <trkpt lat="57.459876006469131" lon="-5.860757036134601">
        <ele>26.57</ele>
        <time>2019-09-04T11:49:19Z</time>
      </trkpt>
      <trkpt lat="57.458501039072871" lon="-5.860796011984348">
        <ele>27.530000000000001</ele>
        <time>2019-09-04T11:49:28Z</time>
      </trkpt>
      <trkpt lat="57.457123976200819" lon="-5.861169006675482">
        <ele>28.02</ele>
        <time>2019-09-04T11:49:36Z</time>
      </trkpt>
      <trkpt lat="57.455775998532772" lon="-5.861433036625385">
        <ele>28.02</ele>
        <time>2019-09-04T11:49:44Z</time>
      </trkpt>
      <trkpt lat="57.454158961772919" lon="-5.860940013080835">
        <ele>28.5</ele>
        <time>2019-09-04T11:49:53Z</time>
      </trkpt>
      <trkpt lat="57.451573982834816" lon="-5.860080029815435">
        <ele>28.98</ele>
        <time>2019-09-04T11:50:06Z</time>
      </trkpt>
      <trkpt lat="57.450007991865277" lon="-5.859630005434156">
        <ele>28.02</ele>
        <time>2019-09-04T11:50:15Z</time>
      </trkpt>
      <trkpt lat="57.448776019737124" lon="-5.8589749597013">
        <ele>28.5</ele>
        <time>2019-09-04T11:50:23Z</time>
      </trkpt>
      <trkpt lat="57.447583023458719" lon="-5.857738964259625">
        <ele>29.460000000000001</ele>
        <time>2019-09-04T11:50:32Z</time>
      </trkpt>
      <trkpt lat="57.446268992498517" lon="-5.8570840023458">
        <ele>29.460000000000001</ele>
        <time>2019-09-04T11:50:40Z</time>
      </trkpt>
      <trkpt lat="57.444795034825802" lon="-5.855980021879077">
        <ele>27.050000000000001</ele>
        <time>2019-09-04T11:50:49Z</time>
      </trkpt>
      <trkpt lat="57.443391988053918" lon="-5.854252008721232">
        <ele>28.98</ele>
        <time>2019-09-04T11:50:59Z</time>
      </trkpt>
      <trkpt lat="57.442648010328412" lon="-5.852556014433503">
        <ele>28.98</ele>
        <time>2019-09-04T11:51:07Z</time>
      </trkpt>
      <trkpt lat="57.44219396263361" lon="-5.85059599019587">
        <ele>27.050000000000001</ele>
        <time>2019-09-04T11:51:15Z</time>
      </trkpt>
      <trkpt lat="57.442163033410907" lon="-5.850343024358153">
        <ele>26.57</ele>
        <time>2019-09-04T11:51:16Z</time>
      </trkpt>
      <trkpt lat="57.44215096347034" lon="-5.850076982751489">
        <ele>26.57</ele>
        <time>2019-09-04T11:51:17Z</time>
      </trkpt>
      <trkpt lat="57.442005034536123" lon="-5.846853973343968">
        <ele>24.170000000000002</ele>
        <time>2019-09-04T11:51:28Z</time>
      </trkpt>
      <trkpt lat="57.441550986841321" lon="-5.84421400912106">
        <ele>26.57</ele>
        <time>2019-09-04T11:51:37Z</time>
      </trkpt>
      <trkpt lat="57.441332973539829" lon="-5.842467974871397">
        <ele>25.129999999999999</ele>
        <time>2019-09-04T11:51:43Z</time>
      </trkpt>
      <trkpt lat="57.441359041258693" lon="-5.842169998213649">
        <ele>24.649999999999999</ele>
        <time>2019-09-04T11:51:44Z</time>
      </trkpt>
      <trkpt lat="57.441387036815286" lon="-5.841857017949224">
        <ele>24.170000000000002</ele>
        <time>2019-09-04T11:51:45Z</time>
      </trkpt>
      <trkpt lat="57.441566996276379" lon="-5.839425008744001">
        <ele>26.57</ele>
        <time>2019-09-04T11:51:53Z</time>
      </trkpt>
      <trkpt lat="57.441638996824622" lon="-5.836855033412576">
        <ele>27.050000000000001</ele>
        <time>2019-09-04T11:52:02Z</time>
      </trkpt>
      <trkpt lat="57.441688030958176" lon="-5.836580023169518">
        <ele>27.050000000000001</ele>
        <time>2019-09-04T11:52:03Z</time>
      </trkpt>
      <trkpt lat="57.441753996536136" lon="-5.836319010704756">
        <ele>27.050000000000001</ele>
        <time>2019-09-04T11:52:04Z</time>
      </trkpt>
      <trkpt lat="57.442101007327437" lon="-5.834796018898487">
        <ele>30.420000000000002</ele>
        <time>2019-09-04T11:52:10Z</time>
      </trkpt>
      <trkpt lat="57.442135959863663" lon="-5.834526037797332">
        <ele>30.899999999999999</ele>
        <time>2019-09-04T11:52:11Z</time>
      </trkpt>
      <trkpt lat="57.442156998440623" lon="-5.834247004240751">
        <ele>31.379999999999999</ele>
        <time>2019-09-04T11:52:12Z</time>
      </trkpt>
      <trkpt lat="57.442173007875681" lon="-5.8339630253613">
        <ele>31.859999999999999</ele>
        <time>2019-09-04T11:52:13Z</time>
      </trkpt>
      <trkpt lat="57.442188011482358" lon="-5.833658007904887">
        <ele>32.340000000000003</ele>
        <time>2019-09-04T11:52:14Z</time>
      </trkpt>
      <trkpt lat="57.442168984562159" lon="-5.831782976165414">
        <ele>32.82</ele>
        <time>2019-09-04T11:52:20Z</time>
      </trkpt>
      <trkpt lat="57.442184993997216" lon="-5.831458009779453">
        <ele>32.340000000000003</ele>
        <time>2019-09-04T11:52:21Z</time>
      </trkpt>
      <trkpt lat="57.44264499284327" lon="-5.828618975356221">
        <ele>31.859999999999999</ele>
        <time>2019-09-04T11:52:30Z</time>
      </trkpt>
      <trkpt lat="57.442869963124394" lon="-5.827351966872811">
        <ele>30.899999999999999</ele>
        <time>2019-09-04T11:52:36Z</time>
      </trkpt>
      <trkpt lat="57.443197024986148" lon="-5.825581960380077">
        <ele>28.98</ele>
        <time>2019-09-04T11:52:45Z</time>
      </trkpt>
      <trkpt lat="57.443770011886954" lon="-5.82322396337986">
        <ele>24.649999999999999</ele>
        <time>2019-09-04T11:52:53Z</time>
      </trkpt>
      <trkpt lat="57.444221964105964" lon="-5.82060101442039">
        <ele>21.77</ele>
        <time>2019-09-04T11:53:02Z</time>
      </trkpt>
      <trkpt lat="57.444164967164397" lon="-5.81765997223556">
        <ele>10.710000000000001</ele>
        <time>2019-09-04T11:53:12Z</time>
      </trkpt>
      <trkpt lat="57.44397503323853" lon="-5.814651036635041">
        <ele>4.94</ele>
        <time>2019-09-04T11:53:24Z</time>
      </trkpt>
      <trkpt lat="57.443769006058574" lon="-5.81215700134635">
        <ele>4.46</ele>
        <time>2019-09-04T11:53:34Z</time>
      </trkpt>
      <trkpt lat="57.443265002220869" lon="-5.810280963778496">
        <ele>3.5</ele>
        <time>2019-09-04T11:53:43Z</time>
      </trkpt>
      <trkpt lat="57.44271095842123" lon="-5.808946983888745">
        <ele>3.5</ele>
        <time>2019-09-04T11:53:52Z</time>
      </trkpt>
      <trkpt lat="57.442632000893354" lon="-5.808830978348851">
        <ele>3.5</ele>
        <time>2019-09-04T11:53:53Z</time>
      </trkpt>
      <trkpt lat="57.442564023658633" lon="-5.808839024975896">
        <ele>3.5</ele>
        <time>2019-09-04T11:53:54Z</time>
      </trkpt>
      <trkpt lat="57.442483976483345" lon="-5.808847993612289">
        <ele>3.5</ele>
        <time>2019-09-04T11:53:55Z</time>
      </trkpt>
      <trkpt lat="57.442402001470327" lon="-5.808942038565874">
        <ele>3.02</ele>
        <time>2019-09-04T11:53:56Z</time>
      </trkpt>
      <trkpt lat="57.442310974001884" lon="-5.809071036055684">
        <ele>3.02</ele>
        <time>2019-09-04T11:53:57Z</time>
      </trkpt>
      <trkpt lat="57.442204020917416" lon="-5.809220988303423">
        <ele>2.54</ele>
        <time>2019-09-04T11:53:58Z</time>
      </trkpt>
      <trkpt lat="57.442093966528773" lon="-5.809375969693065">
        <ele>2.54</ele>
        <time>2019-09-04T11:53:59Z</time>
      </trkpt>
      <trkpt lat="57.441995982080698" lon="-5.809515025466681">
        <ele>2.54</ele>
        <time>2019-09-04T11:54:00Z</time>
      </trkpt>
      <trkpt lat="57.441874025389552" lon="-5.809585014358163">
        <ele>2.54</ele>
        <time>2019-09-04T11:54:01Z</time>
      </trkpt>
      <trkpt lat="57.441756008192897" lon="-5.809653997421265">
        <ele>2.54</ele>
        <time>2019-09-04T11:54:02Z</time>
      </trkpt>
      <trkpt lat="57.441631034016609" lon="-5.809647040441632">
        <ele>2.54</ele>
        <time>2019-09-04T11:54:03Z</time>
      </trkpt>
      <trkpt lat="57.441515028476715" lon="-5.809628013521433">
        <ele>2.54</ele>
        <time>2019-09-04T11:54:04Z</time>
      </trkpt>
      <trkpt lat="57.441413020715117" lon="-5.809532962739468">
        <ele>2.54</ele>
        <time>2019-09-04T11:54:05Z</time>
      </trkpt>
      <trkpt lat="57.441319981589913" lon="-5.809412011876702">
        <ele>2.54</ele>
        <time>2019-09-04T11:54:06Z</time>
      </trkpt>
      <trkpt lat="57.441244041547179" lon="-5.809252001345158">
        <ele>2.54</ele>
        <time>2019-09-04T11:54:07Z</time>
      </trkpt>
      <trkpt lat="57.441197019070387" lon="-5.809058966115117">
        <ele>2.54</ele>
        <time>2019-09-04T11:54:08Z</time>
      </trkpt>
      <trkpt lat="57.441147984936833" lon="-5.808861991390586">
        <ele>3.02</ele>
        <time>2019-09-04T11:54:09Z</time>
      </trkpt>
      <trkpt lat="57.441098028793931" lon="-5.808657975867391">
        <ele>3.02</ele>
        <time>2019-09-04T11:54:10Z</time>
      </trkpt>
      <trkpt lat="57.441046983003616" lon="-5.808450020849705">
        <ele>3.02</ele>
        <time>2019-09-04T11:54:11Z</time>
      </trkpt>
      <trkpt lat="57.440996021032333" lon="-5.808241982012987">
        <ele>3.02</ele>
        <time>2019-09-04T11:54:12Z</time>
      </trkpt>
      <trkpt lat="57.440943969413638" lon="-5.808034026995301">
        <ele>3.5</ele>
        <time>2019-09-04T11:54:13Z</time>
      </trkpt>
      <trkpt lat="57.440866017714143" lon="-5.807863958179951">
        <ele>3.5</ele>
        <time>2019-09-04T11:54:14Z</time>
      </trkpt>
      <trkpt lat="57.440779013559222" lon="-5.807704031467438">
        <ele>3.5</ele>
        <time>2019-09-04T11:54:15Z</time>
      </trkpt>
      <trkpt lat="57.440679017454386" lon="-5.807562964037061">
        <ele>3.98</ele>
        <time>2019-09-04T11:54:16Z</time>
      </trkpt>
      <trkpt lat="57.440573992207646" lon="-5.807415023446083">
        <ele>4.46</ele>
        <time>2019-09-04T11:54:17Z</time>
      </trkpt>
      <trkpt lat="57.440021960064769" lon="-5.806639026850462">
        <ele>5.91</ele>
        <time>2019-09-04T11:54:22Z</time>
      </trkpt>
      <trkpt lat="57.43993797339499" lon="-5.806553028523922">
        <ele>5.91</ele>
        <time>2019-09-04T11:54:23Z</time>
      </trkpt>
      <trkpt lat="57.439838983118534" lon="-5.806451020762324">
        <ele>5.91</ele>
        <time>2019-09-04T11:54:24Z</time>
      </trkpt>
      <trkpt lat="57.439746027812362" lon="-5.806354964151979">
        <ele>5.91</ele>
        <time>2019-09-04T11:54:25Z</time>
      </trkpt>
      <trkpt lat="57.439662963151932" lon="-5.806268965825439">
        <ele>5.91</ele>
        <time>2019-09-04T11:54:26Z</time>
      </trkpt>
      <trkpt lat="57.438865005970001" lon="-5.805687010288239">
        <ele>6.39</ele>
        <time>2019-09-04T11:54:36Z</time>
      </trkpt>
      <trkpt lat="57.438160004094243" lon="-5.805424991995096">
        <ele>8.310000000000001</ele>
        <time>2019-09-04T11:54:45Z</time>
      </trkpt>
      <trkpt lat="57.437962023541331" lon="-5.805351985618472">
        <ele>8.310000000000001</ele>
        <time>2019-09-04T11:54:48Z</time>
      </trkpt>
      <trkpt lat="57.437884993851185" lon="-5.805424991995096">
        <ele>8.310000000000001</ele>
        <time>2019-09-04T11:54:49Z</time>
      </trkpt>
      <trkpt lat="57.437811987474561" lon="-5.805494980886579">
        <ele>8.310000000000001</ele>
        <time>2019-09-04T11:54:50Z</time>
      </trkpt>
      <trkpt lat="57.437113020569086" lon="-5.806367034092546">
        <ele>8.310000000000001</ele>
        <time>2019-09-04T11:54:58Z</time>
      </trkpt>
      <trkpt lat="57.436665007844567" lon="-5.807216037064791">
        <ele>7.83</ele>
        <time>2019-09-04T11:55:05Z</time>
      </trkpt>
      <trkpt lat="57.436596024781466" lon="-5.80734696239233">
        <ele>7.83</ele>
        <time>2019-09-04T11:55:06Z</time>
      </trkpt>
      <trkpt lat="57.436526035889983" lon="-5.807480989024043">
        <ele>8.310000000000001</ele>
        <time>2019-09-04T11:55:07Z</time>
      </trkpt>
      <trkpt lat="57.435771999880672" lon="-5.80891496501863">
        <ele>8.310000000000001</ele>
        <time>2019-09-04T11:55:17Z</time>
      </trkpt>
      <trkpt lat="57.43488603271544" lon="-5.810600984841585">
        <ele>9.75</ele>
        <time>2019-09-04T11:55:28Z</time>
      </trkpt>
      <trkpt lat="57.433828990906477" lon="-5.812665028497577">
        <ele>9.75</ele>
        <time>2019-09-04T11:55:41Z</time>
      </trkpt>
      <trkpt lat="57.433698987588286" lon="-5.812929980456829">
        <ele>10.710000000000001</ele>
        <time>2019-09-04T11:55:43Z</time>
      </trkpt>
      <trkpt lat="57.433583987876773" lon="-5.813333988189697">
        <ele>10.710000000000001</ele>
        <time>2019-09-04T11:55:45Z</time>
      </trkpt>
      <trkpt lat="57.433529002591968" lon="-5.813549989834428">
        <ele>10.23</ele>
        <time>2019-09-04T11:55:47Z</time>
      </trkpt>
      <trkpt lat="57.43327796459198" lon="-5.814510975033045">
        <ele>7.35</ele>
        <time>2019-09-04T11:55:55Z</time>
      </trkpt>
      <trkpt lat="57.433228008449078" lon="-5.814699986949563">
        <ele>6.87</ele>
        <time>2019-09-04T11:55:57Z</time>
      </trkpt>
      <trkpt lat="57.433124994859099" lon="-5.815086979418993">
        <ele>5.42</ele>
        <time>2019-09-04T11:56:02Z</time>
      </trkpt>
      <trkpt lat="57.433106973767281" lon="-5.815155040472746">
        <ele>4.94</ele>
        <time>2019-09-04T11:56:03Z</time>
      </trkpt>
      <trkpt lat="57.433090964332223" lon="-5.815215976908803">
        <ele>4.94</ele>
        <time>2019-09-04T11:56:04Z</time>
      </trkpt>
      <trkpt lat="57.433076966553926" lon="-5.815268028527498">
        <ele>4.46</ele>
        <time>2019-09-04T11:56:05Z</time>
      </trkpt>
      <trkpt lat="57.433064980432391" lon="-5.815314967185259">
        <ele>3.98</ele>
        <time>2019-09-04T11:56:06Z</time>
      </trkpt>
      <trkpt lat="57.433052994310856" lon="-5.815356960520148">
        <ele>3.5</ele>
        <time>2019-09-04T11:56:07Z</time>
      </trkpt>
      <trkpt lat="57.433027010411024" lon="-5.815457962453365">
        <ele>3.02</ele>
        <time>2019-09-04T11:56:08Z</time>
      </trkpt>
      <trkpt lat="57.433027010411024" lon="-5.815457962453365">
        <ele>2.54</ele>
        <time>2019-09-04T11:56:09Z</time>
      </trkpt>
      <trkpt lat="57.433027010411024" lon="-5.815457962453365">
        <ele>2.54</ele>
        <time>2019-09-04T11:56:13Z</time>
      </trkpt>
      <trkpt lat="57.433027010411024" lon="-5.815457962453365">
        <ele>2.06</ele>
        <time>2019-09-04T11:56:14Z</time>
      </trkpt>
      <trkpt lat="57.433004966005683" lon="-5.815505990758538">
        <ele>2.06</ele>
        <time>2019-09-04T11:56:15Z</time>
      </trkpt>
      <trkpt lat="57.432992979884148" lon="-5.815533986315131">
        <ele>2.06</ele>
        <time>2019-09-04T11:56:16Z</time>
      </trkpt>
      <trkpt lat="57.432992979884148" lon="-5.815533986315131">
        <ele>1.58</ele>
        <time>2019-09-04T11:56:17Z</time>
      </trkpt>
      <trkpt lat="57.432866999879479" lon="-5.815812014043331">
        <ele>2.54</ele>
        <time>2019-09-04T11:56:31Z</time>
      </trkpt>
      <trkpt lat="57.432756023481488" lon="-5.816000020131469">
        <ele>3.02</ele>
        <time>2019-09-04T11:56:47Z</time>
      </trkpt>
      <trkpt lat="57.432701960206032" lon="-5.816077971830964">
        <ele>3.02</ele>
        <time>2019-09-04T11:56:50Z</time>
      </trkpt>
      <trkpt lat="57.432668013498187" lon="-5.816127005964518">
        <ele>3.02</ele>
        <time>2019-09-04T11:56:51Z</time>
      </trkpt>
      <trkpt lat="57.432584026828408" lon="-5.816190037876368">
        <ele>3.5</ele>
        <time>2019-09-04T11:56:54Z</time>
      </trkpt>
      <trkpt lat="57.43256701156497" lon="-5.816198000684381">
        <ele>3.5</ele>
        <time>2019-09-04T11:56:55Z</time>
      </trkpt>
      <trkpt lat="57.432557037100196" lon="-5.816202023997903">
        <ele>3.5</ele>
        <time>2019-09-04T11:56:56Z</time>
      </trkpt>
      <trkpt lat="57.432557037100196" lon="-5.816202023997903">
        <ele>3.98</ele>
        <time>2019-09-04T11:57:09Z</time>
      </trkpt>
      <trkpt lat="57.432557037100196" lon="-5.816202023997903">
        <ele>3.98</ele>
        <time>2019-09-04T11:57:11Z</time>
      </trkpt>
      <trkpt lat="57.432603975757957" lon="-5.816181991249323">
        <ele>3.98</ele>
        <time>2019-09-04T11:57:14Z</time>
      </trkpt>
      <trkpt lat="57.432618979364634" lon="-5.816176040098071">
        <ele>3.98</ele>
        <time>2019-09-04T11:57:15Z</time>
      </trkpt>
      <trkpt lat="57.432618979364634" lon="-5.816176040098071">
        <ele>4.46</ele>
        <time>2019-09-04T11:57:30Z</time>
      </trkpt>
      <trkpt lat="57.432618979364634" lon="-5.816176040098071">
        <ele>4.46</ele>
        <time>2019-09-04T11:58:02Z</time>
      </trkpt>
      <trkpt lat="57.43263297714293" lon="-5.815976969897747">
        <ele>3.98</ele>
        <time>2019-09-04T14:07:42Z</time>
      </trkpt>
      <trkpt lat="57.432629037648439" lon="-5.81606799736619">
        <ele>10.710000000000001</ele>
        <time>2019-09-04T14:08:11Z</time>
      </trkpt>
      <trkpt lat="57.432687962427735" lon="-5.816137986257672">
        <ele>12.15</ele>
        <time>2019-09-04T14:08:28Z</time>
      </trkpt>
      <trkpt lat="57.432757029309869" lon="-5.815997002646327">
        <ele>8.789999999999999</ele>
        <time>2019-09-04T14:08:51Z</time>
      </trkpt>
      <trkpt lat="57.43293397128582" lon="-5.815664995461702">
        <ele>7.35</ele>
        <time>2019-09-04T14:09:03Z</time>
      </trkpt>
      <trkpt lat="57.433051988482475" lon="-5.815364001318812">
        <ele>8.789999999999999</ele>
        <time>2019-09-04T14:09:13Z</time>
      </trkpt>
      <trkpt lat="57.433090964332223" lon="-5.815213965252042">
        <ele>8.789999999999999</ele>
        <time>2019-09-04T14:09:15Z</time>
      </trkpt>
      <trkpt lat="57.433161037042737" lon="-5.814953036606312">
        <ele>8.789999999999999</ele>
        <time>2019-09-04T14:09:18Z</time>
      </trkpt>
      <trkpt lat="57.433216022327542" lon="-5.814744997769594">
        <ele>8.310000000000001</ele>
        <time>2019-09-04T14:09:20Z</time>
      </trkpt>
      <trkpt lat="57.433410985395312" lon="-5.814008982852101">
        <ele>6.87</ele>
        <time>2019-09-04T14:09:29Z</time>
      </trkpt>
      <trkpt lat="57.43349002674222" lon="-5.813700025901198">
        <ele>5.91</ele>
        <time>2019-09-04T14:09:33Z</time>
      </trkpt>
      <trkpt lat="57.433508969843388" lon="-5.813626013696194">
        <ele>5.42</ele>
        <time>2019-09-04T14:09:34Z</time>
      </trkpt>
      <trkpt lat="57.433527996763587" lon="-5.813552001491189">
        <ele>5.42</ele>
        <time>2019-09-04T14:09:35Z</time>
      </trkpt>
      <trkpt lat="57.433583987876773" lon="-5.813161991536617">
        <ele>5.42</ele>
        <time>2019-09-04T14:09:40Z</time>
      </trkpt>
      <trkpt lat="57.433565966784954" lon="-5.81312301568687">
        <ele>5.42</ele>
        <time>2019-09-04T14:09:41Z</time>
      </trkpt>
      <trkpt lat="57.433534031733871" lon="-5.813054032623768">
        <ele>5.91</ele>
        <time>2019-09-04T14:09:42Z</time>
      </trkpt>
      <trkpt lat="57.433452978730202" lon="-5.812880024313927">
        <ele>6.39</ele>
        <time>2019-09-04T14:09:44Z</time>
      </trkpt>
      <trkpt lat="57.433411991223693" lon="-5.812772987410426">
        <ele>7.35</ele>
        <time>2019-09-04T14:09:45Z</time>
      </trkpt>
      <trkpt lat="57.433368992060423" lon="-5.812639966607094">
        <ele>8.310000000000001</ele>
        <time>2019-09-04T14:09:46Z</time>
      </trkpt>
      <trkpt lat="57.432877980172634" lon="-5.81091295927763">
        <ele>20.809999999999999</ele>
        <time>2019-09-04T14:09:57Z</time>
      </trkpt>
      <trkpt lat="57.432786030694842" lon="-5.810622023418546">
        <ele>22.73</ele>
        <time>2019-09-04T14:09:59Z</time>
      </trkpt>
      <trkpt lat="57.432731967419386" lon="-5.81048003397882">
        <ele>24.170000000000002</ele>
        <time>2019-09-04T14:10:00Z</time>
      </trkpt>
      <trkpt lat="57.432575980201364" lon="-5.810269983485341">
        <ele>27.050000000000001</ele>
        <time>2019-09-04T14:10:02Z</time>
      </trkpt>
      <trkpt lat="57.432500040158629" lon="-5.810166969895363">
        <ele>28.5</ele>
        <time>2019-09-04T14:10:03Z</time>
      </trkpt>
      <trkpt lat="57.432426027953625" lon="-5.810066973790526">
        <ele>29.940000000000001</ele>
        <time>2019-09-04T14:10:04Z</time>
      </trkpt>
      <trkpt lat="57.432273980230093" lon="-5.809951974079013">
        <ele>33.299999999999997</ele>
        <time>2019-09-04T14:10:06Z</time>
      </trkpt>
      <trkpt lat="57.432120004668832" lon="-5.809871004894376">
        <ele>35.710000000000001</ele>
        <time>2019-09-04T14:10:08Z</time>
      </trkpt>
      <trkpt lat="57.432056972756982" lon="-5.80983798019588">
        <ele>36.670000000000002</ele>
        <time>2019-09-04T14:10:09Z</time>
      </trkpt>
      <trkpt lat="57.432001987472177" lon="-5.809809984639287">
        <ele>38.109999999999999</ele>
        <time>2019-09-04T14:10:10Z</time>
      </trkpt>
      <trkpt lat="57.431956976652145" lon="-5.809786012396216">
        <ele>39.07</ele>
        <time>2019-09-04T14:10:11Z</time>
      </trkpt>
      <trkpt lat="57.431887993589044" lon="-5.809744019061327">
        <ele>40.030000000000001</ele>
        <time>2019-09-04T14:10:12Z</time>
      </trkpt>
      <trkpt lat="57.43187902495265" lon="-5.809671012684703">
        <ele>40.990000000000002</ele>
        <time>2019-09-04T14:10:13Z</time>
      </trkpt>
      <trkpt lat="57.431888999417424" lon="-5.809546960517764">
        <ele>41.950000000000003</ele>
        <time>2019-09-04T14:10:14Z</time>
      </trkpt>
      <trkpt lat="57.431910960003734" lon="-5.809515025466681">
        <ele>42.920000000000002</ele>
        <time>2019-09-04T14:10:15Z</time>
      </trkpt>
      <trkpt lat="57.43198798969388" lon="-5.809522988274694">
        <ele>43.880000000000003</ele>
        <time>2019-09-04T14:10:16Z</time>
      </trkpt>
      <trkpt lat="57.432052027434111" lon="-5.809531034901738">
        <ele>44.359999999999999</ele>
        <time>2019-09-04T14:10:17Z</time>
      </trkpt>
      <trkpt lat="57.432611016556621" lon="-5.809594988822937">
        <ele>46.280000000000001</ele>
        <time>2019-09-04T14:10:24Z</time>
      </trkpt>
      <trkpt lat="57.432661978527904" lon="-5.80960001796484">
        <ele>46.759999999999998</ele>
        <time>2019-09-04T14:10:25Z</time>
      </trkpt>
      <trkpt lat="57.432735990732908" lon="-5.809504967182875">
        <ele>46.759999999999998</ele>
        <time>2019-09-04T14:10:26Z</time>
      </trkpt>
      <trkpt lat="57.432796005159616" lon="-5.809427015483379">
        <ele>47.240000000000002</ele>
        <time>2019-09-04T14:10:27Z</time>
      </trkpt>
      <trkpt lat="57.432840010151267" lon="-5.809304974973202">
        <ele>47.240000000000002</ele>
        <time>2019-09-04T14:10:28Z</time>
      </trkpt>
      <trkpt lat="57.432878986001015" lon="-5.809159968048334">
        <ele>47.719999999999999</ele>
        <time>2019-09-04T14:10:29Z</time>
      </trkpt>
      <trkpt lat="57.433256004005671" lon="-5.807763040065765">
        <ele>51.57</ele>
        <time>2019-09-04T14:10:37Z</time>
      </trkpt>
      <trkpt lat="57.433561021462083" lon="-5.806629974395037">
        <ele>53.490000000000002</ele>
        <time>2019-09-04T14:10:46Z</time>
      </trkpt>
      <trkpt lat="57.434045998379588" lon="-5.80483197234571">
        <ele>60.700000000000003</ele>
        <time>2019-09-04T14:10:57Z</time>
      </trkpt>
      <trkpt lat="57.434375993907452" lon="-5.803609974682331">
        <ele>66.950000000000003</ele>
        <time>2019-09-04T14:11:06Z</time>
      </trkpt>
      <trkpt lat="57.434461992233992" lon="-5.803142013028264">
        <ele>69.829999999999998</ele>
        <time>2019-09-04T14:11:09Z</time>
      </trkpt>
      <trkpt lat="57.434710012748837" lon="-5.801316015422344">
        <ele>81.370000000000005</ele>
        <time>2019-09-04T14:11:19Z</time>
      </trkpt>
      <trkpt lat="57.434597024694085" lon="-5.799549026414752">
        <ele>94.349999999999994</ele>
        <time>2019-09-04T14:11:28Z</time>
      </trkpt>
      <trkpt lat="57.434406001120806" lon="-5.797565029934049">
        <ele>104.92</ele>
        <time>2019-09-04T14:11:37Z</time>
      </trkpt>
      <trkpt lat="57.434428967535496" lon="-5.796502958983183">
        <ele>111.65000000000001</ele>
        <time>2019-09-04T14:11:42Z</time>
      </trkpt>
      <trkpt lat="57.434446988627315" lon="-5.796326017007232">
        <ele>112.61</ele>
        <time>2019-09-04T14:11:43Z</time>
      </trkpt>
      <trkpt lat="57.434464003890753" lon="-5.796168018132448">
        <ele>114.05</ele>
        <time>2019-09-04T14:11:44Z</time>
      </trkpt>
      <trkpt lat="57.434525024145842" lon="-5.796036003157497">
        <ele>115.01000000000001</ele>
        <time>2019-09-04T14:11:45Z</time>
      </trkpt>
      <trkpt lat="57.434581015259027" lon="-5.79591597430408">
        <ele>115.5</ele>
        <time>2019-09-04T14:11:46Z</time>
      </trkpt>
      <trkpt lat="57.434645975008607" lon="-5.795826036483049">
        <ele>116.45999999999999</ele>
        <time>2019-09-04T14:11:47Z</time>
      </trkpt>
      <trkpt lat="57.43471696972847" lon="-5.795740960165858">
        <ele>116.94</ele>
        <time>2019-09-04T14:11:48Z</time>
      </trkpt>
      <trkpt lat="57.434788970276713" lon="-5.795654039829969">
        <ele>117.42</ele>
        <time>2019-09-04T14:11:49Z</time>
      </trkpt>
      <trkpt lat="57.434859964996576" lon="-5.795568963512778">
        <ele>117.90000000000001</ele>
        <time>2019-09-04T14:11:50Z</time>
      </trkpt>
      <trkpt lat="57.43493003770709" lon="-5.795477014034987">
        <ele>118.38</ele>
        <time>2019-09-04T14:11:51Z</time>
      </trkpt>
      <trkpt lat="57.435615006834269" lon="-5.794070027768612">
        <ele>124.15000000000001</ele>
        <time>2019-09-04T14:12:01Z</time>
      </trkpt>
      <trkpt lat="57.436040975153446" lon="-5.79286596737802">
        <ele>128.94999999999999</ele>
        <time>2019-09-04T14:12:08Z</time>
      </trkpt>
      <trkpt lat="57.436071988195181" lon="-5.792668992653489">
        <ele>129.91999999999999</ele>
        <time>2019-09-04T14:12:09Z</time>
      </trkpt>
      <trkpt lat="57.436099983751774" lon="-5.792466988787055">
        <ele>130.40000000000001</ele>
        <time>2019-09-04T14:12:10Z</time>
      </trkpt>
      <trkpt lat="57.43626301176846" lon="-5.791259994730353">
        <ele>135.19999999999999</ele>
        <time>2019-09-04T14:12:16Z</time>
      </trkpt>
      <trkpt lat="57.436321014538407" lon="-5.79110199585557">
        <ele>136.16</ele>
        <time>2019-09-04T14:12:17Z</time>
      </trkpt>
      <trkpt lat="57.436383962631226" lon="-5.790951959788799">
        <ele>137.13</ele>
        <time>2019-09-04T14:12:18Z</time>
      </trkpt>
      <trkpt lat="57.436873968690634" lon="-5.789770027622581">
        <ele>144.34</ele>
        <time>2019-09-04T14:12:26Z</time>
      </trkpt>
      <trkpt lat="57.436917973682284" lon="-5.789594007655978">
        <ele>144.81999999999999</ele>
        <time>2019-09-04T14:12:27Z</time>
      </trkpt>
      <trkpt lat="57.437501018866897" lon="-5.78729703091085">
        <ele>152.99000000000001</ele>
        <time>2019-09-04T14:12:39Z</time>
      </trkpt>
      <trkpt lat="57.437739986926317" lon="-5.785826006904244">
        <ele>158.27000000000001</ele>
        <time>2019-09-04T14:12:46Z</time>
      </trkpt>
      <trkpt lat="57.437954982742667" lon="-5.78467701561749">
        <ele>162.12</ele>
        <time>2019-09-04T14:12:52Z</time>
      </trkpt>
      <trkpt lat="57.437980966642499" lon="-5.78450501896441">
        <ele>163.08000000000001</ele>
        <time>2019-09-04T14:12:53Z</time>
      </trkpt>
      <trkpt lat="57.437966968864202" lon="-5.784321958199143">
        <ele>164.03999999999999</ele>
        <time>2019-09-04T14:12:54Z</time>
      </trkpt>
      <trkpt lat="57.437951965257525" lon="-5.784126995131373">
        <ele>165</ele>
        <time>2019-09-04T14:12:55Z</time>
      </trkpt>
      <trkpt lat="57.4379360396415" lon="-5.783923985436559">
        <ele>165.96000000000001</ele>
        <time>2019-09-04T14:12:56Z</time>
      </trkpt>
      <trkpt lat="57.437941990792751" lon="-5.783315040171146">
        <ele>169.33000000000001</ele>
        <time>2019-09-04T14:12:59Z</time>
      </trkpt>
      <trkpt lat="57.437951965257525" lon="-5.783129967749119">
        <ele>170.28999999999999</ele>
        <time>2019-09-04T14:13:00Z</time>
      </trkpt>
      <trkpt lat="57.437962023541331" lon="-5.782970963045955">
        <ele>171.25</ele>
        <time>2019-09-04T14:13:01Z</time>
      </trkpt>
      <trkpt lat="57.438013991340995" lon="-5.78283098526299">
        <ele>172.21000000000001</ele>
        <time>2019-09-04T14:13:02Z</time>
      </trkpt>
      <trkpt lat="57.438065959140658" lon="-5.782688995823264">
        <ele>173.16999999999999</ele>
        <time>2019-09-04T14:13:03Z</time>
      </trkpt>
      <trkpt lat="57.438123961910605" lon="-5.782532002776861">
        <ele>174.13999999999999</ele>
        <time>2019-09-04T14:13:04Z</time>
      </trkpt>
      <trkpt lat="57.43873399682343" lon="-5.780884036794305">
        <ele>180.38</ele>
        <time>2019-09-04T14:13:13Z</time>
      </trkpt>
      <trkpt lat="57.439004983752966" lon="-5.779976025223732">
        <ele>183.75</ele>
        <time>2019-09-04T14:13:18Z</time>
      </trkpt>
      <trkpt lat="57.439318969845772" lon="-5.777563964948058">
        <ele>191.91999999999999</ele>
        <time>2019-09-04T14:13:29Z</time>
      </trkpt>
      <trkpt lat="57.43939901702106" lon="-5.776730971410871">
        <ele>194.80000000000001</ele>
        <time>2019-09-04T14:13:34Z</time>
      </trkpt>
      <trkpt lat="57.439390970394015" lon="-5.776568027213216">
        <ele>195.28</ele>
        <time>2019-09-04T14:13:35Z</time>
      </trkpt>
      <trkpt lat="57.439256021752954" lon="-5.775776021182537">
        <ele>197.69</ele>
        <time>2019-09-04T14:13:44Z</time>
      </trkpt>
      <trkpt lat="57.439220985397696" lon="-5.775564964860678">
        <ele>198.65000000000001</ele>
        <time>2019-09-04T14:13:49Z</time>
      </trkpt>
      <trkpt lat="57.439205981791019" lon="-5.775477038696408">
        <ele>198.65000000000001</ele>
        <time>2019-09-04T14:13:50Z</time>
      </trkpt>
      <trkpt lat="57.439185027033091" lon="-5.77535399235785">
        <ele>199.13</ele>
        <time>2019-09-04T14:13:51Z</time>
      </trkpt>
      <trkpt lat="57.438890989869833" lon="-5.77490296214819">
        <ele>200.09</ele>
        <time>2019-09-04T14:13:56Z</time>
      </trkpt>
      <trkpt lat="57.438772972673178" lon="-5.774721996858716">
        <ele>200.56999999999999</ele>
        <time>2019-09-04T14:13:58Z</time>
      </trkpt>
      <trkpt lat="57.438712958246469" lon="-5.774629041552544">
        <ele>201.05000000000001</ele>
        <time>2019-09-04T14:13:59Z</time>
      </trkpt>
      <trkpt lat="57.43864799849689" lon="-5.774528961628676">
        <ele>201.05000000000001</ele>
        <time>2019-09-04T14:14:00Z</time>
      </trkpt>
      <trkpt lat="57.43798197247088" lon="-5.773185007274151">
        <ele>204.90000000000001</ele>
        <time>2019-09-04T14:14:10Z</time>
      </trkpt>
      <trkpt lat="57.437278982251883" lon="-5.771148037165403">
        <ele>209.69999999999999</ele>
        <time>2019-09-04T14:14:22Z</time>
      </trkpt>
      <trkpt lat="57.43710296228528" lon="-5.770569015294313">
        <ele>211.15000000000001</ele>
        <time>2019-09-04T14:14:25Z</time>
      </trkpt>
      <trkpt lat="57.437010006979108" lon="-5.770387966185808">
        <ele>211.63</ele>
        <time>2019-09-04T14:14:26Z</time>
      </trkpt>
      <trkpt lat="57.436924008652568" lon="-5.770220998674631">
        <ele>211.63</ele>
        <time>2019-09-04T14:14:27Z</time>
      </trkpt>
      <trkpt lat="57.436684034764767" lon="-5.769690005108714">
        <ele>212.59</ele>
        <time>2019-09-04T14:14:30Z</time>
      </trkpt>
      <trkpt lat="57.436614967882633" lon="-5.769507028162479">
        <ele>213.06999999999999</ele>
        <time>2019-09-04T14:14:31Z</time>
      </trkpt>
      <trkpt lat="57.436545984819531" lon="-5.769323967397213">
        <ele>213.55000000000001</ele>
        <time>2019-09-04T14:14:32Z</time>
      </trkpt>
      <trkpt lat="57.436144994571805" lon="-5.767828971147537">
        <ele>218.84</ele>
        <time>2019-09-04T14:14:41Z</time>
      </trkpt>
      <trkpt lat="57.435981966555119" lon="-5.767467962577939">
        <ele>221.24000000000001</ele>
        <time>2019-09-04T14:14:44Z</time>
      </trkpt>
      <trkpt lat="57.435493972152472" lon="-5.766422990709543">
        <ele>227.00999999999999</ele>
        <time>2019-09-04T14:14:50Z</time>
      </trkpt>
      <trkpt lat="57.434617979452014" lon="-5.76467502862215">
        <ele>232.78</ele>
        <time>2019-09-04T14:15:00Z</time>
      </trkpt>
      <trkpt lat="57.433654982596636" lon="-5.763028990477324">
        <ele>239.50999999999999</ele>
        <time>2019-09-04T14:15:10Z</time>
      </trkpt>
      <trkpt lat="57.433379972353578" lon="-5.762593969702721">
        <ele>240.94999999999999</ele>
        <time>2019-09-04T14:15:13Z</time>
      </trkpt>
      <trkpt lat="57.432874040678144" lon="-5.762089965865016">
        <ele>244.31</ele>
        <time>2019-09-04T14:15:20Z</time>
      </trkpt>
      <trkpt lat="57.432807991281152" lon="-5.762056019157171">
        <ele>244.78999999999999</ele>
        <time>2019-09-04T14:15:21Z</time>
      </trkpt>
      <trkpt lat="57.432568017393351" lon="-5.761930961161852">
        <ele>245.75</ele>
        <time>2019-09-04T14:15:24Z</time>
      </trkpt>
      <trkpt lat="57.432468021288514" lon="-5.761878993362188">
        <ele>245.75</ele>
        <time>2019-09-04T14:15:25Z</time>
      </trkpt>
      <trkpt lat="57.432372970506549" lon="-5.761789977550507">
        <ele>246.22999999999999</ele>
        <time>2019-09-04T14:15:26Z</time>
      </trkpt>
      <trkpt lat="57.432275991886854" lon="-5.761665003374219">
        <ele>246.72</ele>
        <time>2019-09-04T14:15:27Z</time>
      </trkpt>
      <trkpt lat="57.432175995782018" lon="-5.761536005884409">
        <ele>247.19999999999999</ele>
        <time>2019-09-04T14:15:28Z</time>
      </trkpt>
      <trkpt lat="57.432083962485194" lon="-5.761379012838006">
        <ele>248.16</ele>
        <time>2019-09-04T14:15:29Z</time>
      </trkpt>
      <trkpt lat="57.432002993300557" lon="-5.761202992871404">
        <ele>248.63999999999999</ele>
        <time>2019-09-04T14:15:30Z</time>
      </trkpt>
      <trkpt lat="57.431317018344998" lon="-5.759611018002033">
        <ele>254.41</ele>
        <time>2019-09-04T14:15:40Z</time>
      </trkpt>
      <trkpt lat="57.430949974805117" lon="-5.758694037795067">
        <ele>258.25</ele>
        <time>2019-09-04T14:15:48Z</time>
      </trkpt>
      <trkpt lat="57.430904963985085" lon="-5.758525980636478">
        <ele>258.25</ele>
        <time>2019-09-04T14:15:49Z</time>
      </trkpt>
      <trkpt lat="57.43091301061213" lon="-5.758397988975048">
        <ele>258.73000000000002</ele>
        <time>2019-09-04T14:15:50Z</time>
      </trkpt>
      <trkpt lat="57.430920973420143" lon="-5.758267985656858">
        <ele>258.73000000000002</ele>
        <time>2019-09-04T14:15:51Z</time>
      </trkpt>
      <trkpt lat="57.430951986461878" lon="-5.758125996217132">
        <ele>259.20999999999998</ele>
        <time>2019-09-04T14:15:52Z</time>
      </trkpt>
      <trkpt lat="57.430986016988754" lon="-5.757998004555702">
        <ele>260.17000000000002</ele>
        <time>2019-09-04T14:15:53Z</time>
      </trkpt>
      <trkpt lat="57.431306960061193" lon="-5.757013969123364">
        <ele>263.06</ele>
        <time>2019-09-04T14:16:00Z</time>
      </trkpt>
      <trkpt lat="57.431504018604755" lon="-5.756699983030558">
        <ele>264.98000000000002</ele>
        <time>2019-09-04T14:16:03Z</time>
      </trkpt>
      <trkpt lat="57.43157803080976" lon="-5.756590012460947">
        <ele>265.94</ele>
        <time>2019-09-04T14:16:04Z</time>
      </trkpt>
      <trkpt lat="57.432382022961974" lon="-5.75584402307868">
        <ele>272.67000000000002</ele>
        <time>2019-09-04T14:16:14Z</time>
      </trkpt>
      <trkpt lat="57.432427033782005" lon="-5.75573799200356">
        <ele>273.14999999999998</ele>
        <time>2019-09-04T14:16:15Z</time>
      </trkpt>
      <trkpt lat="57.432489981874824" lon="-5.755590973421931">
        <ele>273.63</ele>
        <time>2019-09-04T14:16:16Z</time>
      </trkpt>
      <trkpt lat="57.432489981874824" lon="-5.755508998408914">
        <ele>274.58999999999997</ele>
        <time>2019-09-04T14:16:17Z</time>
      </trkpt>
      <trkpt lat="57.432489981874824" lon="-5.755354017019272">
        <ele>275.06999999999999</ele>
        <time>2019-09-04T14:16:18Z</time>
      </trkpt>
      <trkpt lat="57.432436002418399" lon="-5.75519802980125">
        <ele>275.56</ele>
        <time>2019-09-04T14:16:19Z</time>
      </trkpt>
      <trkpt lat="57.432379005476832" lon="-5.755056040361524">
        <ele>276.04000000000002</ele>
        <time>2019-09-04T14:16:20Z</time>
      </trkpt>
      <trkpt lat="57.432323014363647" lon="-5.754915978759527">
        <ele>277.48000000000002</ele>
        <time>2019-09-04T14:16:21Z</time>
      </trkpt>
      <trkpt lat="57.432103995233774" lon="-5.754367969930172">
        <ele>281.80000000000001</ele>
        <time>2019-09-04T14:16:25Z</time>
      </trkpt>
      <trkpt lat="57.43207398802042" lon="-5.75423302128911">
        <ele>282.76999999999998</ele>
        <time>2019-09-04T14:16:26Z</time>
      </trkpt>
      <trkpt lat="57.432041969150305" lon="-5.754090026021004">
        <ele>283.73000000000002</ele>
        <time>2019-09-04T14:16:27Z</time>
      </trkpt>
      <trkpt lat="57.432022020220757" lon="-5.75391098856926">
        <ele>284.69</ele>
        <time>2019-09-04T14:16:28Z</time>
      </trkpt>
      <trkpt lat="57.432029983028769" lon="-5.753768999129534">
        <ele>286.13</ele>
        <time>2019-09-04T14:16:29Z</time>
      </trkpt>
      <trkpt lat="57.432038029655814" lon="-5.753634972497821">
        <ele>287.08999999999997</ele>
        <time>2019-09-04T14:16:30Z</time>
      </trkpt>
      <trkpt lat="57.432103995233774" lon="-5.753527013584971">
        <ele>288.05000000000001</ele>
        <time>2019-09-04T14:16:31Z</time>
      </trkpt>
      <trkpt lat="57.432164009660482" lon="-5.753444032743573">
        <ele>289.00999999999999</ele>
        <time>2019-09-04T14:16:32Z</time>
      </trkpt>
      <trkpt lat="57.432254031300545" lon="-5.753316963091493">
        <ele>289.97000000000003</ele>
        <time>2019-09-04T14:16:33Z</time>
      </trkpt>
      <trkpt lat="57.432316979393363" lon="-5.753276981413364">
        <ele>290.94</ele>
        <time>2019-09-04T14:16:34Z</time>
      </trkpt>
      <trkpt lat="57.433487009257078" lon="-5.752533003687859">
        <ele>301.99000000000001</ele>
        <time>2019-09-04T14:16:45Z</time>
      </trkpt>
      <trkpt lat="57.43452301248908" lon="-5.751875024288893">
        <ele>310.63999999999999</ele>
        <time>2019-09-04T14:16:56Z</time>
      </trkpt>
      <trkpt lat="57.434582021087408" lon="-5.751793971285224">
        <ele>311.60000000000002</ele>
        <time>2019-09-04T14:16:57Z</time>
      </trkpt>
      <trkpt lat="57.434627031907439" lon="-5.751704033464193">
        <ele>312.08999999999997</ele>
        <time>2019-09-04T14:16:58Z</time>
      </trkpt>
      <trkpt lat="57.434675982221961" lon="-5.751571012660861">
        <ele>312.56999999999999</ele>
        <time>2019-09-04T14:16:59Z</time>
      </trkpt>
      <trkpt lat="57.434666007757187" lon="-5.751454001292586">
        <ele>313.52999999999997</ele>
        <time>2019-09-04T14:17:00Z</time>
      </trkpt>
      <trkpt lat="57.434636000543833" lon="-5.751319974660873">
        <ele>314.00999999999999</ele>
        <time>2019-09-04T14:17:01Z</time>
      </trkpt>
      <trkpt lat="57.434586966410279" lon="-5.751217966899276">
        <ele>314.97000000000003</ele>
        <time>2019-09-04T14:17:02Z</time>
      </trkpt>
      <trkpt lat="57.434532986953855" lon="-5.751105984672904">
        <ele>315.93000000000001</ele>
        <time>2019-09-04T14:17:03Z</time>
      </trkpt>
      <trkpt lat="57.434475990012288" lon="-5.750987967476249">
        <ele>316.88999999999999</ele>
        <time>2019-09-04T14:17:04Z</time>
      </trkpt>
      <trkpt lat="57.433552974835038" lon="-5.749145960435271">
        <ele>335.16000000000003</ele>
        <time>2019-09-04T14:17:18Z</time>
      </trkpt>
      <trkpt lat="57.433076966553926" lon="-5.74755197390914">
        <ele>346.69</ele>
        <time>2019-09-04T14:17:27Z</time>
      </trkpt>
      <trkpt lat="57.433003960177302" lon="-5.747397998347879">
        <ele>348.13</ele>
        <time>2019-09-04T14:17:28Z</time>
      </trkpt>
      <trkpt lat="57.432925002649426" lon="-5.747253997251391">
        <ele>349.10000000000002</ele>
        <time>2019-09-04T14:17:29Z</time>
      </trkpt>
      <trkpt lat="57.432746971026063" lon="-5.747011005878449">
        <ele>351.98000000000002</ele>
        <time>2019-09-04T14:17:31Z</time>
      </trkpt>
      <trkpt lat="57.432648986577988" lon="-5.746917966753244">
        <ele>353.42000000000002</ele>
        <time>2019-09-04T14:17:32Z</time>
      </trkpt>
      <trkpt lat="57.431447021663189" lon="-5.745722036808729">
        <ele>364.48000000000002</ele>
        <time>2019-09-04T14:17:43Z</time>
      </trkpt>
      <trkpt lat="57.430617967620492" lon="-5.744633981958032">
        <ele>373.13</ele>
        <time>2019-09-04T14:17:52Z</time>
      </trkpt>
      <trkpt lat="57.43056801147759" lon="-5.744500039145351">
        <ele>374.08999999999997</ele>
        <time>2019-09-04T14:17:53Z</time>
      </trkpt>
      <trkpt lat="57.430518977344036" lon="-5.74437003582716">
        <ele>375.05000000000001</ele>
        <time>2019-09-04T14:17:54Z</time>
      </trkpt>
      <trkpt lat="57.430481007322669" lon="-5.744222011417151">
        <ele>376.00999999999999</ele>
        <time>2019-09-04T14:17:55Z</time>
      </trkpt>
      <trkpt lat="57.430454017594457" lon="-5.744063006713986">
        <ele>376.49000000000001</ele>
        <time>2019-09-04T14:17:56Z</time>
      </trkpt>
      <trkpt lat="57.430429961532354" lon="-5.743917999789119">
        <ele>377.44999999999999</ele>
        <time>2019-09-04T14:17:57Z</time>
      </trkpt>
      <trkpt lat="57.430443959310651" lon="-5.743749020621181">
        <ele>377.94</ele>
        <time>2019-09-04T14:17:58Z</time>
      </trkpt>
      <trkpt lat="57.430452005937696" lon="-5.743661010637879">
        <ele>378.89999999999998</ele>
        <time>2019-09-04T14:17:59Z</time>
      </trkpt>
      <trkpt lat="57.430512020364404" lon="-5.743522038683295">
        <ele>379.86000000000001</ele>
        <time>2019-09-04T14:18:00Z</time>
      </trkpt>
      <trkpt lat="57.430553007870913" lon="-5.743428999558091">
        <ele>381.30000000000001</ele>
        <time>2019-09-04T14:18:01Z</time>
      </trkpt>
      <trkpt lat="57.430588966235518" lon="-5.743347024545074">
        <ele>382.25999999999999</ele>
        <time>2019-09-04T14:18:02Z</time>
      </trkpt>
      <trkpt lat="57.430628025904298" lon="-5.743279969319701">
        <ele>383.22000000000003</ele>
        <time>2019-09-04T14:18:03Z</time>
      </trkpt>
      <trkpt lat="57.430685022845864" lon="-5.743200005963445">
        <ele>384.66000000000003</ele>
        <time>2019-09-04T14:18:04Z</time>
      </trkpt>
      <trkpt lat="57.431034967303276" lon="-5.742665994912386">
        <ele>388.02999999999997</ele>
        <time>2019-09-04T14:18:09Z</time>
      </trkpt>
      <trkpt lat="57.431096993386745" lon="-5.74254303239286">
        <ele>388.50999999999999</ele>
        <time>2019-09-04T14:18:10Z</time>
      </trkpt>
      <trkpt lat="57.431232025846839" lon="-5.741905001923442">
        <ele>389.47000000000003</ele>
        <time>2019-09-04T14:18:14Z</time>
      </trkpt>
      <trkpt lat="57.431333027780056" lon="-5.741383982822299">
        <ele>389.47000000000003</ele>
        <time>2019-09-04T14:18:17Z</time>
      </trkpt>
      <trkpt lat="57.431344008073211" lon="-5.741173010319471">
        <ele>389.94999999999999</ele>
        <time>2019-09-04T14:18:18Z</time>
      </trkpt>
      <trkpt lat="57.431327998638153" lon="-5.740981986746192">
        <ele>389.94999999999999</ele>
        <time>2019-09-04T14:18:19Z</time>
      </trkpt>
      <trkpt lat="57.431309977546334" lon="-5.7407639734447">
        <ele>390.43000000000001</ele>
        <time>2019-09-04T14:18:20Z</time>
      </trkpt>
      <trkpt lat="57.43127703666687" lon="-5.740608992055059">
        <ele>390.91000000000003</ele>
        <time>2019-09-04T14:18:21Z</time>
      </trkpt>
      <trkpt lat="57.431238982826471" lon="-5.740429032593966">
        <ele>391.38999999999999</ele>
        <time>2019-09-04T14:18:22Z</time>
      </trkpt>
      <trkpt lat="57.430625008419156" lon="-5.738173965364695">
        <ele>399.07999999999998</ele>
        <time>2019-09-04T14:18:36Z</time>
      </trkpt>
      <trkpt lat="57.43052501231432" lon="-5.737635008990765">
        <ele>400.52999999999997</ele>
        <time>2019-09-04T14:18:39Z</time>
      </trkpt>
      <trkpt lat="57.43050497956574" lon="-5.737439962103963">
        <ele>401.00999999999999</ele>
        <time>2019-09-04T14:18:40Z</time>
      </trkpt>
      <trkpt lat="57.430489975959063" lon="-5.737238964065909">
        <ele>401.49000000000001</ele>
        <time>2019-09-04T14:18:41Z</time>
      </trkpt>
      <trkpt lat="57.430316973477602" lon="-5.734862023964524">
        <ele>414.94999999999999</ele>
        <time>2019-09-04T14:18:53Z</time>
      </trkpt>
      <trkpt lat="57.430065013468266" lon="-5.732487011700869">
        <ele>426.48000000000002</ele>
        <time>2019-09-04T14:19:06Z</time>
      </trkpt>
      <trkpt lat="57.429507030174136" lon="-5.730769978836179">
        <ele>434.64999999999998</ele>
        <time>2019-09-04T14:19:16Z</time>
      </trkpt>
      <trkpt lat="57.428718041628599" lon="-5.729063004255295">
        <ele>447.14999999999998</ele>
        <time>2019-09-04T14:19:27Z</time>
      </trkpt>
      <trkpt lat="57.428064001724124" lon="-5.727442028000951">
        <ele>463.97000000000003</ele>
        <time>2019-09-04T14:19:40Z</time>
      </trkpt>
      <trkpt lat="57.427893010899425" lon="-5.72697096504271">
        <ele>469.25999999999999</ele>
        <time>2019-09-04T14:19:44Z</time>
      </trkpt>
      <trkpt lat="57.427849005907774" lon="-5.726848002523184">
        <ele>470.22000000000003</ele>
        <time>2019-09-04T14:19:45Z</time>
      </trkpt>
      <trkpt lat="57.427791003137827" lon="-5.726687991991639">
        <ele>471.66000000000003</ele>
        <time>2019-09-04T14:19:46Z</time>
      </trkpt>
      <trkpt lat="57.427554968744516" lon="-5.726391021162272">
        <ele>475.50999999999999</ele>
        <time>2019-09-04T14:19:50Z</time>
      </trkpt>
      <trkpt lat="57.427481962367892" lon="-5.726359002292156">
        <ele>476.47000000000003</ele>
        <time>2019-09-04T14:19:51Z</time>
      </trkpt>
      <trkpt lat="57.4274090398103" lon="-5.726326983422041">
        <ele>477.43000000000001</ele>
        <time>2019-09-04T14:19:52Z</time>
      </trkpt>
      <trkpt lat="57.427125982940197" lon="-5.726204020902515">
        <ele>481.75999999999999</ele>
        <time>2019-09-04T14:19:56Z</time>
      </trkpt>
      <trkpt lat="57.427074015140533" lon="-5.726158004254103">
        <ele>482.72000000000003</ele>
        <time>2019-09-04T14:19:57Z</time>
      </trkpt>
      <trkpt lat="57.426996985450387" lon="-5.726065970957279">
        <ele>484.63999999999999</ele>
        <time>2019-09-04T14:19:59Z</time>
      </trkpt>
      <trkpt lat="57.426974019035697" lon="-5.725986007601023">
        <ele>485.60000000000002</ele>
        <time>2019-09-04T14:20:00Z</time>
      </trkpt>
      <trkpt lat="57.426955997943878" lon="-5.725922975689173">
        <ele>486.56</ele>
        <time>2019-09-04T14:20:01Z</time>
      </trkpt>
      <trkpt lat="57.426987010985613" lon="-5.725865978747606">
        <ele>487.52999999999997</ele>
        <time>2019-09-04T14:20:02Z</time>
      </trkpt>
      <trkpt lat="57.427039984613657" lon="-5.72578702121973">
        <ele>488.49000000000001</ele>
        <time>2019-09-04T14:20:03Z</time>
      </trkpt>
      <trkpt lat="57.427095975726843" lon="-5.725746033713222">
        <ele>489.44999999999999</ele>
        <time>2019-09-04T14:20:04Z</time>
      </trkpt>
      <trkpt lat="57.427181974053383" lon="-5.725684007629752">
        <ele>490.41000000000003</ele>
        <time>2019-09-04T14:20:05Z</time>
      </trkpt>
      <trkpt lat="57.427487997338176" lon="-5.725463982671499">
        <ele>492.81</ele>
        <time>2019-09-04T14:20:09Z</time>
      </trkpt>
      <trkpt lat="57.427546000108123" lon="-5.72542198933661">
        <ele>493.76999999999998</ele>
        <time>2019-09-04T14:20:10Z</time>
      </trkpt>
      <trkpt lat="57.427601991221309" lon="-5.725315036252141">
        <ele>494.25999999999999</ele>
        <time>2019-09-04T14:20:11Z</time>
      </trkpt>
      <trkpt lat="57.427631998434663" lon="-5.725214034318924">
        <ele>495.22000000000003</ele>
        <time>2019-09-04T14:20:12Z</time>
      </trkpt>
      <trkpt lat="57.427639039233327" lon="-5.725091993808746">
        <ele>495.69999999999999</ele>
        <time>2019-09-04T14:20:13Z</time>
      </trkpt>
      <trkpt lat="57.427637027576566" lon="-5.72497196495533">
        <ele>496.66000000000003</ele>
        <time>2019-09-04T14:20:14Z</time>
      </trkpt>
      <trkpt lat="57.427637027576566" lon="-5.723730018362403">
        <ele>508.19</ele>
        <time>2019-09-04T14:20:24Z</time>
      </trkpt>
      <trkpt lat="57.427642978727818" lon="-5.723630022257567">
        <ele>509.16000000000003</ele>
        <time>2019-09-04T14:20:25Z</time>
      </trkpt>
      <trkpt lat="57.427650019526482" lon="-5.723526002839208">
        <ele>510.60000000000002</ele>
        <time>2019-09-04T14:20:26Z</time>
      </trkpt>
      <trkpt lat="57.427655970677733" lon="-5.723412008956075">
        <ele>512.03999999999996</ele>
        <time>2019-09-04T14:20:27Z</time>
      </trkpt>
      <trkpt lat="57.427650019526482" lon="-5.723275970667601">
        <ele>512.51999999999998</ele>
        <time>2019-09-04T14:20:28Z</time>
      </trkpt>
      <trkpt lat="57.427616994827986" lon="-5.723158959299326">
        <ele>513.48000000000002</ele>
        <time>2019-09-04T14:20:29Z</time>
      </trkpt>
      <trkpt lat="57.42758103646338" lon="-5.723032979294658">
        <ele>514.44000000000005</ele>
        <time>2019-09-04T14:20:30Z</time>
      </trkpt>
      <trkpt lat="57.427544994279742" lon="-5.722902975976467">
        <ele>514.91999999999996</ele>
        <time>2019-09-04T14:20:31Z</time>
      </trkpt>
      <trkpt lat="57.427429994568229" lon="-5.72249704040587">
        <ele>516.85000000000002</ele>
        <time>2019-09-04T14:20:34Z</time>
      </trkpt>
      <trkpt lat="57.427320023998618" lon="-5.722105018794537">
        <ele>519.25</ele>
        <time>2019-09-04T14:20:37Z</time>
      </trkpt>
      <trkpt lat="57.427283981814981" lon="-5.721977027133107">
        <ele>520.21000000000004</ele>
        <time>2019-09-04T14:20:38Z</time>
      </trkpt>
      <trkpt lat="57.427247017621994" lon="-5.721847023814917">
        <ele>521.16999999999996</ele>
        <time>2019-09-04T14:20:39Z</time>
      </trkpt>
      <trkpt lat="57.427198989316821" lon="-5.721728000789881">
        <ele>522.13</ele>
        <time>2019-09-04T14:20:40Z</time>
      </trkpt>
      <trkpt lat="57.427138974890113" lon="-5.721608977764845">
        <ele>522.61000000000001</ele>
        <time>2019-09-04T14:20:41Z</time>
      </trkpt>
      <trkpt lat="57.427077032625675" lon="-5.721484003588557">
        <ele>523.58000000000004</ele>
        <time>2019-09-04T14:20:42Z</time>
      </trkpt>
      <trkpt lat="57.426489964127541" lon="-5.720198974013329">
        <ele>536.07000000000005</ele>
        <time>2019-09-04T14:20:52Z</time>
      </trkpt>
      <trkpt lat="57.426053015515208" lon="-5.719550969079137">
        <ele>543.27999999999997</ele>
        <time>2019-09-04T14:20:58Z</time>
      </trkpt>
      <trkpt lat="57.425979003310204" lon="-5.719440998509526">
        <ele>544.72000000000003</ele>
        <time>2019-09-04T14:20:59Z</time>
      </trkpt>
      <trkpt lat="57.425901973620057" lon="-5.719325998798013">
        <ele>546.16999999999996</ele>
        <time>2019-09-04T14:21:00Z</time>
      </trkpt>
      <trkpt lat="57.425848999992013" lon="-5.719171017408371">
        <ele>547.61000000000001</ele>
        <time>2019-09-04T14:21:01Z</time>
      </trkpt>
      <trkpt lat="57.425795020535588" lon="-5.719012012705207">
        <ele>549.04999999999995</ele>
        <time>2019-09-04T14:21:02Z</time>
      </trkpt>
      <trkpt lat="57.425180962309241" lon="-5.717251980677247">
        <ele>562.99000000000001</ele>
        <time>2019-09-04T14:21:13Z</time>
      </trkpt>
      <trkpt lat="57.424883991479874" lon="-5.716744959354401">
        <ele>568.27999999999997</ele>
        <time>2019-09-04T14:21:17Z</time>
      </trkpt>
      <trkpt lat="57.424792964011431" lon="-5.716663990169764">
        <ele>569.24000000000001</ele>
        <time>2019-09-04T14:21:18Z</time>
      </trkpt>
      <trkpt lat="57.424707971513271" lon="-5.716626020148397">
        <ele>570.67999999999995</ele>
        <time>2019-09-04T14:21:19Z</time>
      </trkpt>
      <trkpt lat="57.42461996152997" lon="-5.716587966307998">
        <ele>571.63999999999999</ele>
        <time>2019-09-04T14:21:20Z</time>
      </trkpt>
      <trkpt lat="57.424532035365701" lon="-5.71654899045825">
        <ele>572.60000000000002</ele>
        <time>2019-09-04T14:21:21Z</time>
      </trkpt>
      <trkpt lat="57.423631986603141" lon="-5.716083962470293">
        <ele>581.25</ele>
        <time>2019-09-04T14:21:31Z</time>
      </trkpt>
      <trkpt lat="57.42354498244822" lon="-5.715987989678979">
        <ele>581.73000000000002</ele>
        <time>2019-09-04T14:21:32Z</time>
      </trkpt>
      <trkpt lat="57.423464013263583" lon="-5.715871984139085">
        <ele>582.70000000000005</ele>
        <time>2019-09-04T14:21:33Z</time>
      </trkpt>
      <trkpt lat="57.423382038250566" lon="-5.71575497277081">
        <ele>583.65999999999997</ele>
        <time>2019-09-04T14:21:34Z</time>
      </trkpt>
      <trkpt lat="57.423298973590136" lon="-5.715637039393187">
        <ele>584.62</ele>
        <time>2019-09-04T14:21:35Z</time>
      </trkpt>
      <trkpt lat="57.422444019466639" lon="-5.713845994323492">
        <ele>595.66999999999996</ele>
        <time>2019-09-04T14:21:47Z</time>
      </trkpt>
      <trkpt lat="57.421578001230955" lon="-5.71210197173059">
        <ele>606.73000000000002</ele>
        <time>2019-09-04T14:21:58Z</time>
      </trkpt>
      <trkpt lat="57.42120299488306" lon="-5.711516998708248">
        <ele>611.05999999999995</ele>
        <time>2019-09-04T14:22:03Z</time>
      </trkpt>
      <trkpt lat="57.421174999326468" lon="-5.711427982896566">
        <ele>611.53999999999996</ele>
        <time>2019-09-04T14:22:04Z</time>
      </trkpt>
      <trkpt lat="57.420894037932158" lon="-5.710543021559715">
        <ele>614.41999999999996</ele>
        <time>2019-09-04T14:22:10Z</time>
      </trkpt>
      <trkpt lat="57.420850032940507" lon="-5.71040497161448">
        <ele>615.38</ele>
        <time>2019-09-04T14:22:11Z</time>
      </trkpt>
      <trkpt lat="57.420805022120476" lon="-5.710262982174754">
        <ele>615.86000000000001</ele>
        <time>2019-09-04T14:22:12Z</time>
      </trkpt>
      <trkpt lat="57.41993498057127" lon="-5.709073003381491">
        <ele>621.63</ele>
        <time>2019-09-04T14:22:23Z</time>
      </trkpt>
      <trkpt lat="57.4191839620471" lon="-5.708570005372167">
        <ele>625.96000000000004</ele>
        <time>2019-09-04T14:22:31Z</time>
      </trkpt>
      <trkpt lat="57.419040966778994" lon="-5.708478977903724">
        <ele>626.91999999999996</ele>
        <time>2019-09-04T14:22:33Z</time>
      </trkpt>
      <trkpt lat="57.41873100399971" lon="-5.708187036216259">
        <ele>627.88</ele>
        <time>2019-09-04T14:22:37Z</time>
      </trkpt>
      <trkpt lat="57.418650034815073" lon="-5.70810598321259">
        <ele>627.88</ele>
        <time>2019-09-04T14:22:38Z</time>
      </trkpt>
      <trkpt lat="57.418592032045126" lon="-5.707983020693064">
        <ele>628.36000000000001</ele>
        <time>2019-09-04T14:22:39Z</time>
      </trkpt>
      <trkpt lat="57.418532017618418" lon="-5.707857962697744">
        <ele>628.36000000000001</ele>
        <time>2019-09-04T14:22:40Z</time>
      </trkpt>
      <trkpt lat="57.418470997363329" lon="-5.707728965207934">
        <ele>628.36000000000001</ele>
        <time>2019-09-04T14:22:41Z</time>
      </trkpt>
      <trkpt lat="57.418202022090554" lon="-5.707258991897106">
        <ele>629.32000000000005</ele>
        <time>2019-09-04T14:22:45Z</time>
      </trkpt>
      <trkpt lat="57.418119041249156" lon="-5.707216998562217">
        <ele>629.79999999999995</ele>
        <time>2019-09-04T14:22:46Z</time>
      </trkpt>
      <trkpt lat="57.418032037094235" lon="-5.707172993570566">
        <ele>629.79999999999995</ele>
        <time>2019-09-04T14:22:47Z</time>
      </trkpt>
      <trkpt lat="57.416837029159069" lon="-5.706505961716175">
        <ele>629.32000000000005</ele>
        <time>2019-09-04T14:22:59Z</time>
      </trkpt>
      <trkpt lat="57.416186006739736" lon="-5.705859968438745">
        <ele>627.88</ele>
        <time>2019-09-04T14:23:08Z</time>
      </trkpt>
      <trkpt lat="57.415817035362124" lon="-5.705338027328253">
        <ele>624.99000000000001</ele>
        <time>2019-09-04T14:23:15Z</time>
      </trkpt>
      <trkpt lat="57.415709998458624" lon="-5.705301985144615">
        <ele>624.02999999999997</ele>
        <time>2019-09-04T14:23:16Z</time>
      </trkpt>
      <trkpt lat="57.415618970990181" lon="-5.705271977931261">
        <ele>623.07000000000005</ele>
        <time>2019-09-04T14:23:17Z</time>
      </trkpt>
      <trkpt lat="57.415324011817575" lon="-5.70513904094696">
        <ele>620.66999999999996</ele>
        <time>2019-09-04T14:23:20Z</time>
      </trkpt>
      <trkpt lat="57.41522996686399" lon="-5.70503200404346">
        <ele>619.71000000000004</ele>
        <time>2019-09-04T14:23:21Z</time>
      </trkpt>
      <trkpt lat="57.414718000218272" lon="-5.704448958858848">
        <ele>615.38</ele>
        <time>2019-09-04T14:23:28Z</time>
      </trkpt>
      <trkpt lat="57.414651028811932" lon="-5.704372012987733">
        <ele>614.41999999999996</ele>
        <time>2019-09-04T14:23:29Z</time>
      </trkpt>
      <trkpt lat="57.414054991677403" lon="-5.703393006697297">
        <ele>605.76999999999998</ele>
        <time>2019-09-04T14:23:38Z</time>
      </trkpt>
      <trkpt lat="57.413221998140216" lon="-5.701979985460639">
        <ele>597.60000000000002</ele>
        <time>2019-09-04T14:23:49Z</time>
      </trkpt>
      <trkpt lat="57.412937013432384" lon="-5.701497020199895">
        <ele>597.12</ele>
        <time>2019-09-04T14:23:53Z</time>
      </trkpt>
      <trkpt lat="57.412836011499166" lon="-5.701417978852987">
        <ele>597.12</ele>
        <time>2019-09-04T14:23:54Z</time>
      </trkpt>
      <trkpt lat="57.412753030657768" lon="-5.7014000415802">
        <ele>597.60000000000002</ele>
        <time>2019-09-04T14:23:55Z</time>
      </trkpt>
      <trkpt lat="57.412706008180976" lon="-5.701388977468014">
        <ele>597.60000000000002</ele>
        <time>2019-09-04T14:23:56Z</time>
      </trkpt>
      <trkpt lat="57.412614980712533" lon="-5.701449997723103">
        <ele>597.60000000000002</ele>
        <time>2019-09-04T14:23:57Z</time>
      </trkpt>
      <trkpt lat="57.412542980164289" lon="-5.701498026028276">
        <ele>597.12</ele>
        <time>2019-09-04T14:23:58Z</time>
      </trkpt>
      <trkpt lat="57.412458993494511" lon="-5.701554017141461">
        <ele>597.12</ele>
        <time>2019-09-04T14:23:59Z</time>
      </trkpt>
      <trkpt lat="57.412369977682829" lon="-5.701613025739789">
        <ele>596.63999999999999</ele>
        <time>2019-09-04T14:24:00Z</time>
      </trkpt>
      <trkpt lat="57.412277022376657" lon="-5.701675973832607">
        <ele>595.66999999999996</ele>
        <time>2019-09-04T14:24:01Z</time>
      </trkpt>
      <trkpt lat="57.41217995993793" lon="-5.701704975217581">
        <ele>594.71000000000004</ele>
        <time>2019-09-04T14:24:02Z</time>
      </trkpt>
      <trkpt lat="57.412083987146616" lon="-5.70172400213778">
        <ele>594.23000000000002</ele>
        <time>2019-09-04T14:24:03Z</time>
      </trkpt>
      <trkpt lat="57.411996982991695" lon="-5.70172400213778">
        <ele>593.26999999999998</ele>
        <time>2019-09-04T14:24:04Z</time>
      </trkpt>
      <trkpt lat="57.411908973008394" lon="-5.701705981045961">
        <ele>592.78999999999996</ele>
        <time>2019-09-04T14:24:05Z</time>
      </trkpt>
      <trkpt lat="57.411823980510235" lon="-5.701688965782523">
        <ele>591.83000000000004</ele>
        <time>2019-09-04T14:24:06Z</time>
      </trkpt>
      <trkpt lat="57.411740999668837" lon="-5.701673040166497">
        <ele>591.35000000000002</ele>
        <time>2019-09-04T14:24:07Z</time>
      </trkpt>
      <trkpt lat="57.411098023876548" lon="-5.701396018266678">
        <ele>583.65999999999997</ele>
        <time>2019-09-04T14:24:17Z</time>
      </trkpt>
      <trkpt lat="57.411062987521291" lon="-5.701375985518098">
        <ele>582.70000000000005</ele>
        <time>2019-09-04T14:24:18Z</time>
      </trkpt>
      <trkpt lat="57.411011019721627" lon="-5.701331980526447">
        <ele>582.22000000000003</ele>
        <time>2019-09-04T14:24:19Z</time>
      </trkpt>
      <trkpt lat="57.411011019721627" lon="-5.701282024383545">
        <ele>581.73000000000002</ele>
        <time>2019-09-04T14:24:20Z</time>
      </trkpt>
      <trkpt lat="57.411063993349671" lon="-5.701237013563514">
        <ele>580.76999999999998</ele>
        <time>2019-09-04T14:24:21Z</time>
      </trkpt>
      <trkpt lat="57.411097018048167" lon="-5.701209018006921">
        <ele>579.80999999999995</ele>
        <time>2019-09-04T14:24:22Z</time>
      </trkpt>
      <trkpt lat="57.411136999726295" lon="-5.701173981651664">
        <ele>578.85000000000002</ele>
        <time>2019-09-04T14:24:23Z</time>
      </trkpt>
      <trkpt lat="57.411185028031468" lon="-5.701133999973536">
        <ele>578.37</ele>
        <time>2019-09-04T14:24:24Z</time>
      </trkpt>
      <trkpt lat="57.411243030801415" lon="-5.701084965839982">
        <ele>577.88999999999999</ele>
        <time>2019-09-04T14:24:25Z</time>
      </trkpt>
      <trkpt lat="57.411346966400743" lon="-5.700996033847332">
        <ele>576.45000000000005</ele>
        <time>2019-09-04T14:24:27Z</time>
      </trkpt>
      <trkpt lat="57.411389965564013" lon="-5.700959991663694">
        <ele>575.49000000000001</ele>
        <time>2019-09-04T14:24:28Z</time>
      </trkpt>
      <trkpt lat="57.41142500191927" lon="-5.70092897862196">
        <ele>574.52999999999997</ele>
        <time>2019-09-04T14:24:29Z</time>
      </trkpt>
      <trkpt lat="57.411454003304243" lon="-5.700905006378889">
        <ele>574.03999999999996</ele>
        <time>2019-09-04T14:24:30Z</time>
      </trkpt>
      <trkpt lat="57.411478981375694" lon="-5.700882961973548">
        <ele>573.08000000000004</ele>
        <time>2019-09-04T14:24:31Z</time>
      </trkpt>
      <trkpt lat="57.411503037437797" lon="-5.700863013044">
        <ele>572.60000000000002</ele>
        <time>2019-09-04T14:24:32Z</time>
      </trkpt>
      <trkpt lat="57.41161996498704" lon="-5.700652962550521">
        <ele>570.67999999999995</ele>
        <time>2019-09-04T14:24:37Z</time>
      </trkpt>
      <trkpt lat="57.411629017442465" lon="-5.700574005022645">
        <ele>570.20000000000005</ele>
        <time>2019-09-04T14:24:38Z</time>
      </trkpt>
      <trkpt lat="57.411609990522265" lon="-5.700488006696105">
        <ele>570.20000000000005</ele>
        <time>2019-09-04T14:24:39Z</time>
      </trkpt>
      <trkpt lat="57.411589035764337" lon="-5.700392033904791">
        <ele>570.20000000000005</ele>
        <time>2019-09-04T14:24:40Z</time>
      </trkpt>
      <trkpt lat="57.411567997187376" lon="-5.700296983122826">
        <ele>569.72000000000003</ele>
        <time>2019-09-04T14:24:41Z</time>
      </trkpt>
      <trkpt lat="57.411513011902571" lon="-5.700044017285109">
        <ele>568.75999999999999</ele>
        <time>2019-09-04T14:24:44Z</time>
      </trkpt>
      <trkpt lat="57.411494990810752" lon="-5.69996296428144">
        <ele>568.27999999999997</ele>
        <time>2019-09-04T14:24:45Z</time>
      </trkpt>
      <trkpt lat="57.411483004689217" lon="-5.699908984825015">
        <ele>567.79999999999995</ele>
        <time>2019-09-04T14:24:46Z</time>
      </trkpt>
      <trkpt lat="57.41146800108254" lon="-5.699684014543891">
        <ele>566.83000000000004</ele>
        <time>2019-09-04T14:24:48Z</time>
      </trkpt>
      <trkpt lat="57.411461966112256" lon="-5.699585024267435">
        <ele>566.35000000000002</ele>
        <time>2019-09-04T14:24:49Z</time>
      </trkpt>
      <trkpt lat="57.411422990262508" lon="-5.698982030153275">
        <ele>560.59000000000003</ele>
        <time>2019-09-04T14:24:56Z</time>
      </trkpt>
      <trkpt lat="57.41140597499907" lon="-5.698725041002035">
        <ele>558.17999999999995</ele>
        <time>2019-09-04T14:24:59Z</time>
      </trkpt>
      <trkpt lat="57.411401029676199" lon="-5.698649017140269">
        <ele>557.70000000000005</ele>
        <time>2019-09-04T14:25:00Z</time>
      </trkpt>
      <trkpt lat="57.411396000534296" lon="-5.698571987450123">
        <ele>557.22000000000003</ele>
        <time>2019-09-04T14:25:01Z</time>
      </trkpt>
      <trkpt lat="57.411390971392393" lon="-5.698494035750628">
        <ele>557.22000000000003</ele>
        <time>2019-09-04T14:25:02Z</time>
      </trkpt>
      <trkpt lat="57.411387031897902" lon="-5.698423963040113">
        <ele>556.74000000000001</ele>
        <time>2019-09-04T14:25:03Z</time>
      </trkpt>
      <trkpt lat="57.411375967785716" lon="-5.698256995528936">
        <ele>556.25999999999999</ele>
        <time>2019-09-04T14:25:06Z</time>
      </trkpt>
      <trkpt lat="57.411375967785716" lon="-5.698256995528936">
        <ele>555.77999999999997</ele>
        <time>2019-09-04T14:25:07Z</time>
      </trkpt>
      <trkpt lat="57.411375967785716" lon="-5.698256995528936">
        <ele>555.77999999999997</ele>
        <time>2019-09-04T14:25:08Z</time>
      </trkpt>
      <trkpt lat="57.411363981664181" lon="-5.698283985257149">
        <ele>555.29999999999995</ele>
        <time>2019-09-04T14:25:09Z</time>
      </trkpt>
      <trkpt lat="57.411344032734632" lon="-5.698331007733941">
        <ele>554.82000000000005</ele>
        <time>2019-09-04T14:25:10Z</time>
      </trkpt>
      <trkpt lat="57.411311008036137" lon="-5.698407031595707">
        <ele>554.34000000000003</ele>
        <time>2019-09-04T14:25:11Z</time>
      </trkpt>
      <trkpt lat="57.411222998052835" lon="-5.699027962982655">
        <ele>550.49000000000001</ele>
        <time>2019-09-04T14:25:18Z</time>
      </trkpt>
      <trkpt lat="57.41121000610292" lon="-5.699114967137575">
        <ele>549.52999999999997</ele>
        <time>2019-09-04T14:25:19Z</time>
      </trkpt>
      <trkpt lat="57.411159966140985" lon="-5.699461977928877">
        <ele>548.09000000000003</ele>
        <time>2019-09-04T14:25:22Z</time>
      </trkpt>
      <trkpt lat="57.411114033311605" lon="-5.699564991518855">
        <ele>547.13</ele>
        <time>2019-09-04T14:25:23Z</time>
      </trkpt>
      <trkpt lat="57.411069022491574" lon="-5.699669010937214">
        <ele>546.16999999999996</ele>
        <time>2019-09-04T14:25:24Z</time>
      </trkpt>
      <trkpt lat="57.411023005843163" lon="-5.699774036183953">
        <ele>545.20000000000005</ele>
        <time>2019-09-04T14:25:25Z</time>
      </trkpt>
      <trkpt lat="57.410962991416454" lon="-5.699835978448391">
        <ele>544.72000000000003</ele>
        <time>2019-09-04T14:25:26Z</time>
      </trkpt>
      <trkpt lat="57.410920998081565" lon="-5.699865985661745">
        <ele>543.75999999999999</ele>
        <time>2019-09-04T14:25:27Z</time>
      </trkpt>
      <trkpt lat="57.410860983654857" lon="-5.699908984825015">
        <ele>542.79999999999995</ele>
        <time>2019-09-04T14:25:28Z</time>
      </trkpt>
      <trkpt lat="57.410819996148348" lon="-5.699881995096803">
        <ele>542.32000000000005</ele>
        <time>2019-09-04T14:25:29Z</time>
      </trkpt>
      <trkpt lat="57.410758975893259" lon="-5.699841007590294">
        <ele>541.36000000000001</ele>
        <time>2019-09-04T14:25:30Z</time>
      </trkpt>
      <trkpt lat="57.41069401614368" lon="-5.699738999828696">
        <ele>540.39999999999998</ele>
        <time>2019-09-04T14:25:31Z</time>
      </trkpt>
      <trkpt lat="57.410644982010126" lon="-5.699631962925196">
        <ele>538.96000000000004</ele>
        <time>2019-09-04T14:25:32Z</time>
      </trkpt>
      <trkpt lat="57.410593014210463" lon="-5.699516041204333">
        <ele>537.99000000000001</ele>
        <time>2019-09-04T14:25:33Z</time>
      </trkpt>
      <trkpt lat="57.410537023097277" lon="-5.699394000694156">
        <ele>536.54999999999995</ele>
        <time>2019-09-04T14:25:34Z</time>
      </trkpt>
      <trkpt lat="57.410470973700285" lon="-5.699304984882474">
        <ele>535.11000000000001</ele>
        <time>2019-09-04T14:25:35Z</time>
      </trkpt>
      <trkpt lat="57.410324960947037" lon="-5.699157966300845">
        <ele>532.23000000000002</ele>
        <time>2019-09-04T14:25:37Z</time>
      </trkpt>
      <trkpt lat="57.4102439917624" lon="-5.699157966300845">
        <ele>531.26999999999998</ele>
        <time>2019-09-04T14:25:38Z</time>
      </trkpt>
      <trkpt lat="57.410083981230855" lon="-5.699157966300845">
        <ele>528.86000000000001</ele>
        <time>2019-09-04T14:25:40Z</time>
      </trkpt>
      <trkpt lat="57.409996977075934" lon="-5.699157966300845">
        <ele>527.89999999999998</ele>
        <time>2019-09-04T14:25:41Z</time>
      </trkpt>
      <trkpt lat="57.409909972921014" lon="-5.699157966300845">
        <ele>526.94000000000005</ele>
        <time>2019-09-04T14:25:42Z</time>
      </trkpt>
      <trkpt lat="57.409692965447903" lon="-5.699157966300845">
        <ele>523.58000000000004</ele>
        <time>2019-09-04T14:25:45Z</time>
      </trkpt>
      <trkpt lat="57.409638985991478" lon="-5.699157966300845">
        <ele>522.61000000000001</ele>
        <time>2019-09-04T14:25:46Z</time>
      </trkpt>
      <trkpt lat="57.409562962129712" lon="-5.699157966300845">
        <ele>521.64999999999998</ele>
        <time>2019-09-04T14:25:48Z</time>
      </trkpt>
      <trkpt lat="57.409533960744739" lon="-5.699157966300845">
        <ele>521.16999999999996</ele>
        <time>2019-09-04T14:25:49Z</time>
      </trkpt>
      <trkpt lat="57.409530021250248" lon="-5.699157966300845">
        <ele>521.16999999999996</ele>
        <time>2019-09-04T14:25:50Z</time>
      </trkpt>
      <trkpt lat="57.409534966573119" lon="-5.699143968522549">
        <ele>520.69000000000005</ele>
        <time>2019-09-04T14:25:51Z</time>
      </trkpt>
      <trkpt lat="57.409547036513686" lon="-5.699113961309195">
        <ele>520.21000000000004</ele>
        <time>2019-09-04T14:25:52Z</time>
      </trkpt>
      <trkpt lat="57.409594980999827" lon="-5.698985969647765">
        <ele>519.73000000000002</ele>
        <time>2019-09-04T14:25:53Z</time>
      </trkpt>
      <trkpt lat="57.409606967121363" lon="-5.698980018496513">
        <ele>519.73000000000002</ele>
        <time>2019-09-04T14:25:54Z</time>
      </trkpt>
      <trkpt lat="57.410155981779099" lon="-5.698656979948282">
        <ele>515.39999999999998</ele>
        <time>2019-09-04T14:26:00Z</time>
      </trkpt>
      <trkpt lat="57.410241980105639" lon="-5.698582967743278">
        <ele>514.44000000000005</ele>
        <time>2019-09-04T14:26:01Z</time>
      </trkpt>
      <trkpt lat="57.410345999523997" lon="-5.698493029922247">
        <ele>513.48000000000002</ele>
        <time>2019-09-04T14:26:02Z</time>
      </trkpt>
      <trkpt lat="57.410385981202126" lon="-5.698391022160649">
        <ele>512.51999999999998</ele>
        <time>2019-09-04T14:26:03Z</time>
      </trkpt>
      <trkpt lat="57.41054498590529" lon="-5.697994977235794">
        <ele>509.63999999999999</ele>
        <time>2019-09-04T14:26:06Z</time>
      </trkpt>
      <trkpt lat="57.410591002553701" lon="-5.697838990017772">
        <ele>509.16000000000003</ele>
        <time>2019-09-04T14:26:07Z</time>
      </trkpt>
      <trkpt lat="57.41063098423183" lon="-5.697688031941652">
        <ele>508.19</ele>
        <time>2019-09-04T14:26:08Z</time>
      </trkpt>
      <trkpt lat="57.410675995051861" lon="-5.697404975071549">
        <ele>506.75</ele>
        <time>2019-09-04T14:26:10Z</time>
      </trkpt>
      <trkpt lat="57.410682030022144" lon="-5.697301961481571">
        <ele>506.26999999999998</ele>
        <time>2019-09-04T14:26:11Z</time>
      </trkpt>
      <trkpt lat="57.41069502197206" lon="-5.697069028392434">
        <ele>504.35000000000002</ele>
        <time>2019-09-04T14:26:13Z</time>
      </trkpt>
      <trkpt lat="57.41071698255837" lon="-5.696326978504658">
        <ele>499.54000000000002</ele>
        <time>2019-09-04T14:26:17Z</time>
      </trkpt>
      <trkpt lat="57.410690998658538" lon="-5.696146013215184">
        <ele>498.10000000000002</ele>
        <time>2019-09-04T14:26:18Z</time>
      </trkpt>
      <trkpt lat="57.410209039226174" lon="-5.694256983697414">
        <ele>477.91000000000003</ele>
        <time>2019-09-04T14:26:29Z</time>
      </trkpt>
      <trkpt lat="57.409769995138049" lon="-5.692877992987633">
        <ele>463.00999999999999</ele>
        <time>2019-09-04T14:26:38Z</time>
      </trkpt>
      <trkpt lat="57.409570002928376" lon="-5.692363008856773">
        <ele>456.75999999999999</ele>
        <time>2019-09-04T14:26:41Z</time>
      </trkpt>
      <trkpt lat="57.408448001369834" lon="-5.690169967710972">
        <ele>433.69</ele>
        <time>2019-09-04T14:26:54Z</time>
      </trkpt>
      <trkpt lat="57.407875014469028" lon="-5.689072022214532">
        <ele>422.16000000000003</ele>
        <time>2019-09-04T14:27:01Z</time>
      </trkpt>
      <trkpt lat="57.407826986163855" lon="-5.688898013904691">
        <ele>420.70999999999998</ele>
        <time>2019-09-04T14:27:02Z</time>
      </trkpt>
      <trkpt lat="57.407783987000585" lon="-5.688726017251611">
        <ele>419.26999999999998</ele>
        <time>2019-09-04T14:27:03Z</time>
      </trkpt>
      <trkpt lat="57.407446028664708" lon="-5.68700403906405">
        <ele>406.29000000000002</ele>
        <time>2019-09-04T14:27:12Z</time>
      </trkpt>
      <trkpt lat="57.407374028116465" lon="-5.686851991340518">
        <ele>404.85000000000002</ele>
        <time>2019-09-04T14:27:13Z</time>
      </trkpt>
      <trkpt lat="57.407175963744521" lon="-5.686433985829353">
        <ele>400.52999999999997</ele>
        <time>2019-09-04T14:27:16Z</time>
      </trkpt>
      <trkpt lat="57.407119972631335" lon="-5.686315968632698">
        <ele>399.07999999999998</ele>
        <time>2019-09-04T14:27:17Z</time>
      </trkpt>
      <trkpt lat="57.407077979296446" lon="-5.686188982799649">
        <ele>397.63999999999999</ele>
        <time>2019-09-04T14:27:18Z</time>
      </trkpt>
      <trkpt lat="57.407059958204627" lon="-5.686046993359923">
        <ele>395.72000000000003</ele>
        <time>2019-09-04T14:27:19Z</time>
      </trkpt>
      <trkpt lat="57.40704202093184" lon="-5.685902992263436">
        <ele>394.27999999999997</ele>
        <time>2019-09-04T14:27:20Z</time>
      </trkpt>
      <trkpt lat="57.407047972083092" lon="-5.685756979510188">
        <ele>392.83999999999997</ele>
        <time>2019-09-04T14:27:21Z</time>
      </trkpt>
      <trkpt lat="57.407055012881756" lon="-5.685606021434069">
        <ele>391.87</ele>
        <time>2019-09-04T14:27:22Z</time>
      </trkpt>
      <trkpt lat="57.407061969861388" lon="-5.685453973710537">
        <ele>390.91000000000003</ele>
        <time>2019-09-04T14:27:23Z</time>
      </trkpt>
      <trkpt lat="57.407083008438349" lon="-5.684996992349625">
        <ele>387.06999999999999</ele>
        <time>2019-09-04T14:27:26Z</time>
      </trkpt>
      <trkpt lat="57.407359024509788" lon="-5.683006038889289">
        <ele>374.56999999999999</ele>
        <time>2019-09-04T14:27:38Z</time>
      </trkpt>
      <trkpt lat="57.407664963975549" lon="-5.681747999042273">
        <ele>366.88</ele>
        <time>2019-09-04T14:27:46Z</time>
      </trkpt>
      <trkpt lat="57.407696982845664" lon="-5.681643979623914">
        <ele>365.92000000000002</ele>
        <time>2019-09-04T14:27:47Z</time>
      </trkpt>
      <trkpt lat="57.407724978402257" lon="-5.681553035974503">
        <ele>364.95999999999998</ele>
        <time>2019-09-04T14:27:48Z</time>
      </trkpt>
      <trkpt lat="57.407750962302089" lon="-5.681467037647963">
        <ele>364.48000000000002</ele>
        <time>2019-09-04T14:27:49Z</time>
      </trkpt>
      <trkpt lat="57.407779963687062" lon="-5.68137601017952">
        <ele>363.51999999999998</ele>
        <time>2019-09-04T14:27:50Z</time>
      </trkpt>
      <trkpt lat="57.407810976728797" lon="-5.681274002417922">
        <ele>362.55000000000001</ele>
        <time>2019-09-04T14:27:51Z</time>
      </trkpt>
      <trkpt lat="57.407880965620279" lon="-5.681048026308417">
        <ele>361.11000000000001</ele>
        <time>2019-09-04T14:27:53Z</time>
      </trkpt>
      <trkpt lat="57.407921031117439" lon="-5.680919028818607">
        <ele>360.63</ele>
        <time>2019-09-04T14:27:54Z</time>
      </trkpt>
      <trkpt lat="57.407921031117439" lon="-5.680777039378882">
        <ele>360.14999999999998</ele>
        <time>2019-09-04T14:27:55Z</time>
      </trkpt>
      <trkpt lat="57.407921031117439" lon="-5.680613005533814">
        <ele>359.19</ele>
        <time>2019-09-04T14:27:56Z</time>
      </trkpt>
      <trkpt lat="57.407921031117439" lon="-5.680443020537496">
        <ele>358.70999999999998</ele>
        <time>2019-09-04T14:27:57Z</time>
      </trkpt>
      <trkpt lat="57.407921031117439" lon="-5.680272029712796">
        <ele>358.23000000000002</ele>
        <time>2019-09-04T14:27:58Z</time>
      </trkpt>
      <trkpt lat="57.407943997532129" lon="-5.678616017103195">
        <ele>353.42000000000002</ele>
        <time>2019-09-04T14:28:07Z</time>
      </trkpt>
      <trkpt lat="57.407813994213939" lon="-5.67686696536839">
        <ele>346.69</ele>
        <time>2019-09-04T14:28:17Z</time>
      </trkpt>
      <trkpt lat="57.407813994213939" lon="-5.676705026999116">
        <ele>345.73000000000002</ele>
        <time>2019-09-04T14:28:18Z</time>
      </trkpt>
      <trkpt lat="57.407782981172204" lon="-5.676205968484283">
        <ele>343.81</ele>
        <time>2019-09-04T14:28:21Z</time>
      </trkpt>
      <trkpt lat="57.407634034752846" lon="-5.674355998635292">
        <ele>337.07999999999998</ele>
        <time>2019-09-04T14:28:32Z</time>
      </trkpt>
      <trkpt lat="57.407603021711111" lon="-5.674190036952496">
        <ele>336.60000000000002</ele>
        <time>2019-09-04T14:28:33Z</time>
      </trkpt>
      <trkpt lat="57.407569997012615" lon="-5.674018962308765">
        <ele>335.63999999999999</ele>
        <time>2019-09-04T14:28:34Z</time>
      </trkpt>
      <trkpt lat="57.407506965100765" lon="-5.673687038943172">
        <ele>334.19999999999999</ele>
        <time>2019-09-04T14:28:36Z</time>
      </trkpt>
      <trkpt lat="57.407470000907779" lon="-5.673494003713131">
        <ele>333.23000000000002</ele>
        <time>2019-09-04T14:28:37Z</time>
      </trkpt>
      <trkpt lat="57.407462960109115" lon="-5.673356037586927">
        <ele>332.26999999999998</ele>
        <time>2019-09-04T14:28:38Z</time>
      </trkpt>
      <trkpt lat="57.407421972602606" lon="-5.672650029882789">
        <ele>327.47000000000003</ele>
        <time>2019-09-04T14:28:42Z</time>
      </trkpt>
      <trkpt lat="57.407045038416982" lon="-5.670764017850161">
        <ele>317.37</ele>
        <time>2019-09-04T14:28:53Z</time>
      </trkpt>
      <trkpt lat="57.406782014295459" lon="-5.668627973645926">
        <ele>308.24000000000001</ele>
        <time>2019-09-04T14:29:02Z</time>
      </trkpt>
      <trkpt lat="57.406431986019015" lon="-5.667006997391582">
        <ele>299.58999999999997</ele>
        <time>2019-09-04T14:29:09Z</time>
      </trkpt>
      <trkpt lat="57.406174996867776" lon="-5.665151998400688">
        <ele>289.49000000000001</ele>
        <time>2019-09-04T14:29:17Z</time>
      </trkpt>
      <trkpt lat="57.406115988269448" lon="-5.66496298648417">
        <ele>288.52999999999997</ele>
        <time>2019-09-04T14:29:18Z</time>
      </trkpt>
      <trkpt lat="57.406058991327882" lon="-5.664780009537935">
        <ele>287.56999999999999</ele>
        <time>2019-09-04T14:29:19Z</time>
      </trkpt>
      <trkpt lat="57.405476029962301" lon="-5.662401979789138">
        <ele>270.26999999999998</ele>
        <time>2019-09-04T14:29:30Z</time>
      </trkpt>
      <trkpt lat="57.405360024422407" lon="-5.661966037005186">
        <ele>266.42000000000002</ele>
        <time>2019-09-04T14:29:32Z</time>
      </trkpt>
      <trkpt lat="57.405287018045783" lon="-5.661771995946765">
        <ele>264.5</ele>
        <time>2019-09-04T14:29:33Z</time>
      </trkpt>
      <trkpt lat="57.405193978920579" lon="-5.661625983193517">
        <ele>263.06</ele>
        <time>2019-09-04T14:29:34Z</time>
      </trkpt>
      <trkpt lat="57.405094988644123" lon="-5.661476030945778">
        <ele>261.62</ele>
        <time>2019-09-04T14:29:35Z</time>
      </trkpt>
      <trkpt lat="57.40498099476099" lon="-5.661305962130427">
        <ele>259.69</ele>
        <time>2019-09-04T14:29:36Z</time>
      </trkpt>
      <trkpt lat="57.404865995049477" lon="-5.661182999610901">
        <ele>258.25</ele>
        <time>2019-09-04T14:29:37Z</time>
      </trkpt>
      <trkpt lat="57.40474202670157" lon="-5.661048972979188">
        <ele>256.81</ele>
        <time>2019-09-04T14:29:38Z</time>
      </trkpt>
      <trkpt lat="57.404324021190405" lon="-5.660540023818612">
        <ele>250.08000000000001</ele>
        <time>2019-09-04T14:29:42Z</time>
      </trkpt>
      <trkpt lat="57.404243974015117" lon="-5.660405997186899">
        <ele>248.63999999999999</ele>
        <time>2019-09-04T14:29:43Z</time>
      </trkpt>
      <trkpt lat="57.40420600399375" lon="-5.660197958350182">
        <ele>246.72</ele>
        <time>2019-09-04T14:29:44Z</time>
      </trkpt>
      <trkpt lat="57.404181025922298" lon="-5.660006012767553">
        <ele>245.75</ele>
        <time>2019-09-04T14:29:45Z</time>
      </trkpt>
      <trkpt lat="57.404154036194086" lon="-5.659797973930836">
        <ele>244.31</ele>
        <time>2019-09-04T14:29:46Z</time>
      </trkpt>
      <trkpt lat="57.404096033424139" lon="-5.659349039196968">
        <ele>241.91</ele>
        <time>2019-09-04T14:29:48Z</time>
      </trkpt>
      <trkpt lat="57.404051022604108" lon="-5.659124990925193">
        <ele>240.94999999999999</ele>
        <time>2019-09-04T14:29:49Z</time>
      </trkpt>
      <trkpt lat="57.403987990692258" lon="-5.658913012593985">
        <ele>239.99000000000001</ele>
        <time>2019-09-04T14:29:50Z</time>
      </trkpt>
      <trkpt lat="57.403908027336001" lon="-5.658724000677466">
        <ele>239.02000000000001</ele>
        <time>2019-09-04T14:29:51Z</time>
      </trkpt>
      <trkpt lat="57.403822029009461" lon="-5.658540017902851">
        <ele>238.06</ele>
        <time>2019-09-04T14:29:52Z</time>
      </trkpt>
      <trkpt lat="57.403736030682921" lon="-5.658357040956616">
        <ele>237.09999999999999</ele>
        <time>2019-09-04T14:29:53Z</time>
      </trkpt>
      <trkpt lat="57.403649026528001" lon="-5.658171968534589">
        <ele>236.13999999999999</ele>
        <time>2019-09-04T14:29:54Z</time>
      </trkpt>
      <trkpt lat="57.402495006099343" lon="-5.656344965100288">
        <ele>226.53</ele>
        <time>2019-09-04T14:30:06Z</time>
      </trkpt>
      <trkpt lat="57.402158975601196" lon="-5.655570980161429">
        <ele>220.75999999999999</ele>
        <time>2019-09-04T14:30:11Z</time>
      </trkpt>
      <trkpt lat="57.402113964781165" lon="-5.655448017641902">
        <ele>219.80000000000001</ele>
        <time>2019-09-04T14:30:12Z</time>
      </trkpt>
      <trkpt lat="57.402137015014887" lon="-5.655291024595499">
        <ele>218.84</ele>
        <time>2019-09-04T14:30:13Z</time>
      </trkpt>
      <trkpt lat="57.402164004743099" lon="-5.655170995742083">
        <ele>217.88</ele>
        <time>2019-09-04T14:30:14Z</time>
      </trkpt>
      <trkpt lat="57.402193006128073" lon="-5.655038980767131">
        <ele>216.91</ele>
        <time>2019-09-04T14:30:15Z</time>
      </trkpt>
      <trkpt lat="57.402227958664298" lon="-5.654881987720728">
        <ele>215.94999999999999</ele>
        <time>2019-09-04T14:30:16Z</time>
      </trkpt>
      <trkpt lat="57.402568012475967" lon="-5.653408030048013">
        <ele>212.59</ele>
        <time>2019-09-04T14:30:24Z</time>
      </trkpt>
      <trkpt lat="57.402758030220866" lon="-5.652767987921834">
        <ele>211.63</ele>
        <time>2019-09-04T14:30:28Z</time>
      </trkpt>
      <trkpt lat="57.402786025777459" lon="-5.652603032067418">
        <ele>211.15000000000001</ele>
        <time>2019-09-04T14:30:29Z</time>
      </trkpt>
      <trkpt lat="57.402806980535388" lon="-5.65243698656559">
        <ele>210.66999999999999</ele>
        <time>2019-09-04T14:30:30Z</time>
      </trkpt>
      <trkpt lat="57.402808992192149" lon="-5.65226498991251">
        <ele>210.66999999999999</ele>
        <time>2019-09-04T14:30:31Z</time>
      </trkpt>
      <trkpt lat="57.402801029384136" lon="-5.652089975774288">
        <ele>209.69999999999999</ele>
        <time>2019-09-04T14:30:32Z</time>
      </trkpt>
      <trkpt lat="57.402792982757092" lon="-5.651908004656434">
        <ele>209.22</ele>
        <time>2019-09-04T14:30:33Z</time>
      </trkpt>
      <trkpt lat="57.402748977765441" lon="-5.651724021881819">
        <ele>208.25999999999999</ele>
        <time>2019-09-04T14:30:34Z</time>
      </trkpt>
      <trkpt lat="57.402707990258932" lon="-5.651554958894849">
        <ele>207.30000000000001</ele>
        <time>2019-09-04T14:30:35Z</time>
      </trkpt>
      <trkpt lat="57.402670020237565" lon="-5.651396960020065">
        <ele>206.34</ele>
        <time>2019-09-04T14:30:36Z</time>
      </trkpt>
      <trkpt lat="57.402602965012193" lon="-5.651306016370654">
        <ele>205.38</ele>
        <time>2019-09-04T14:30:37Z</time>
      </trkpt>
      <trkpt lat="57.402524007484317" lon="-5.651222029700875">
        <ele>204.90000000000001</ele>
        <time>2019-09-04T14:30:38Z</time>
      </trkpt>
      <trkpt lat="57.402444966137409" lon="-5.651137959212065">
        <ele>203.94</ele>
        <time>2019-09-04T14:30:39Z</time>
      </trkpt>
      <trkpt lat="57.40236097946763" lon="-5.651049027219415">
        <ele>203.46000000000001</ele>
        <time>2019-09-04T14:30:40Z</time>
      </trkpt>
      <trkpt lat="57.402256960049272" lon="-5.651025976985693">
        <ele>202.49000000000001</ele>
        <time>2019-09-04T14:30:41Z</time>
      </trkpt>
      <trkpt lat="57.402137015014887" lon="-5.650999993085861">
        <ele>201.05000000000001</ele>
        <time>2019-09-04T14:30:42Z</time>
      </trkpt>
      <trkpt lat="57.401065975427628" lon="-5.650686006993055">
        <ele>190</ele>
        <time>2019-09-04T14:30:51Z</time>
      </trkpt>
      <trkpt lat="57.400990035384893" lon="-5.650639990344644">
        <ele>189.03999999999999</ele>
        <time>2019-09-04T14:30:52Z</time>
      </trkpt>
      <trkpt lat="57.400932032614946" lon="-5.650576958432794">
        <ele>188.08000000000001</ele>
        <time>2019-09-04T14:30:53Z</time>
      </trkpt>
      <trkpt lat="57.400878975167871" lon="-5.650520967319608">
        <ele>187.59</ele>
        <time>2019-09-04T14:30:54Z</time>
      </trkpt>
      <trkpt lat="57.400829019024968" lon="-5.650466987863183">
        <ele>186.63</ele>
        <time>2019-09-04T14:30:55Z</time>
      </trkpt>
      <trkpt lat="57.400779984891415" lon="-5.65041502006352">
        <ele>186.15000000000001</ele>
        <time>2019-09-04T14:30:56Z</time>
      </trkpt>
      <trkpt lat="57.400722987949848" lon="-5.650336984544992">
        <ele>185.19</ele>
        <time>2019-09-04T14:30:57Z</time>
      </trkpt>
      <trkpt lat="57.400691974908113" lon="-5.650254003703594">
        <ele>184.22999999999999</ele>
        <time>2019-09-04T14:30:58Z</time>
      </trkpt>
      <trkpt lat="57.400668002665043" lon="-5.650190971791744">
        <ele>184.22999999999999</ele>
        <time>2019-09-04T14:30:59Z</time>
      </trkpt>
      <trkpt lat="57.400677977129817" lon="-5.650025010108948">
        <ele>183.75</ele>
        <time>2019-09-04T14:31:00Z</time>
      </trkpt>
      <trkpt lat="57.400684012100101" lon="-5.64992300234735">
        <ele>182.78999999999999</ele>
        <time>2019-09-04T14:31:01Z</time>
      </trkpt>
      <trkpt lat="57.400698009878397" lon="-5.649802973493934">
        <ele>182.31</ele>
        <time>2019-09-04T14:31:02Z</time>
      </trkpt>
      <trkpt lat="57.400729022920132" lon="-5.649710018187761">
        <ele>181.83000000000001</ele>
        <time>2019-09-04T14:31:03Z</time>
      </trkpt>
      <trkpt lat="57.400761041790247" lon="-5.649613961577416">
        <ele>181.34999999999999</ele>
        <time>2019-09-04T14:31:04Z</time>
      </trkpt>
      <trkpt lat="57.400813009589911" lon="-5.649521006271243">
        <ele>180.38</ele>
        <time>2019-09-04T14:31:05Z</time>
      </trkpt>
      <trkpt lat="57.400872018188238" lon="-5.649445988237858">
        <ele>179.90000000000001</ele>
        <time>2019-09-04T14:31:06Z</time>
      </trkpt>
      <trkpt lat="57.400933960452676" lon="-5.649368036538363">
        <ele>179.41999999999999</ele>
        <time>2019-09-04T14:31:07Z</time>
      </trkpt>
      <trkpt lat="57.400996992364526" lon="-5.649286983534694">
        <ele>178.94</ele>
        <time>2019-09-04T14:31:08Z</time>
      </trkpt>
      <trkpt lat="57.401086008176208" lon="-5.64925798214972">
        <ele>177.97999999999999</ele>
        <time>2019-09-04T14:31:09Z</time>
      </trkpt>
      <trkpt lat="57.401167983189225" lon="-5.649244990199804">
        <ele>177.5</ele>
        <time>2019-09-04T14:31:10Z</time>
      </trkpt>
      <trkpt lat="57.401252975687385" lon="-5.649231998249888">
        <ele>177.02000000000001</ele>
        <time>2019-09-04T14:31:11Z</time>
      </trkpt>
      <trkpt lat="57.401335034519434" lon="-5.649220012128353">
        <ele>176.53999999999999</ele>
        <time>2019-09-04T14:31:12Z</time>
      </trkpt>
      <trkpt lat="57.401893017813563" lon="-5.649135019630194">
        <ele>173.16999999999999</ele>
        <time>2019-09-04T14:31:19Z</time>
      </trkpt>
      <trkpt lat="57.401998965069652" lon="-5.649118004366756">
        <ele>172.69</ele>
        <time>2019-09-04T14:31:20Z</time>
      </trkpt>
      <trkpt lat="57.40205998532474" lon="-5.649070981889963">
        <ele>172.21000000000001</ele>
        <time>2019-09-04T14:31:21Z</time>
      </trkpt>
      <trkpt lat="57.402142966166139" lon="-5.649008033797145">
        <ele>171.72999999999999</ele>
        <time>2019-09-04T14:31:22Z</time>
      </trkpt>
      <trkpt lat="57.402228964492679" lon="-5.648940978571773">
        <ele>171.25</ele>
        <time>2019-09-04T14:31:23Z</time>
      </trkpt>
      <trkpt lat="57.402315968647599" lon="-5.64882799051702">
        <ele>170.77000000000001</ele>
        <time>2019-09-04T14:31:24Z</time>
      </trkpt>
      <trkpt lat="57.402386963367462" lon="-5.648690024390817">
        <ele>170.28999999999999</ele>
        <time>2019-09-04T14:31:25Z</time>
      </trkpt>
      <trkpt lat="57.402458963915706" lon="-5.648548034951091">
        <ele>169.81</ele>
        <time>2019-09-04T14:31:26Z</time>
      </trkpt>
      <trkpt lat="57.403034968301654" lon="-5.647567017003894">
        <ele>165</ele>
        <time>2019-09-04T14:31:34Z</time>
      </trkpt>
      <trkpt lat="57.40399201400578" lon="-5.646560015156865">
        <ele>160.68000000000001</ele>
        <time>2019-09-04T14:31:45Z</time>
      </trkpt>
      <trkpt lat="57.4041429720819" lon="-5.646433029323816">
        <ele>160.19999999999999</ele>
        <time>2019-09-04T14:31:47Z</time>
      </trkpt>
      <trkpt lat="57.404210027307272" lon="-5.64637603238225">
        <ele>159.72</ele>
        <time>2019-09-04T14:31:48Z</time>
      </trkpt>
      <trkpt lat="57.40431597456336" lon="-5.646286010742188">
        <ele>159.72</ele>
        <time>2019-09-04T14:31:49Z</time>
      </trkpt>
      <trkpt lat="57.404343970119953" lon="-5.646182997152209">
        <ele>159.24000000000001</ele>
        <time>2019-09-04T14:31:50Z</time>
      </trkpt>
      <trkpt lat="57.404381018131971" lon="-5.646006977185607">
        <ele>158.75</ele>
        <time>2019-09-04T14:31:51Z</time>
      </trkpt>
      <trkpt lat="57.404381018131971" lon="-5.645848978310823">
        <ele>158.27000000000001</ele>
        <time>2019-09-04T14:31:52Z</time>
      </trkpt>
      <trkpt lat="57.404381018131971" lon="-5.645685028284788">
        <ele>157.78999999999999</ele>
        <time>2019-09-04T14:31:53Z</time>
      </trkpt>
      <trkpt lat="57.404381018131971" lon="-5.645535998046398">
        <ele>156.83000000000001</ele>
        <time>2019-09-04T14:31:54Z</time>
      </trkpt>
      <trkpt lat="57.404384035617113" lon="-5.645407000556588">
        <ele>156.34999999999999</ele>
        <time>2019-09-04T14:31:55Z</time>
      </trkpt>
      <trkpt lat="57.404404990375042" lon="-5.645294012501836">
        <ele>155.87</ele>
        <time>2019-09-04T14:31:56Z</time>
      </trkpt>
      <trkpt lat="57.40444203838706" lon="-5.645177001133561">
        <ele>155.38999999999999</ele>
        <time>2019-09-04T14:31:57Z</time>
      </trkpt>
      <trkpt lat="57.404502974823117" lon="-5.645127967000008">
        <ele>154.43000000000001</ele>
        <time>2019-09-04T14:31:58Z</time>
      </trkpt>
      <trkpt lat="57.404572041705251" lon="-5.645072981715202">
        <ele>154.43000000000001</ele>
        <time>2019-09-04T14:31:59Z</time>
      </trkpt>
      <trkpt lat="57.404645970091224" lon="-5.645012967288494">
        <ele>153.94999999999999</ele>
        <time>2019-09-04T14:32:00Z</time>
      </trkpt>
      <trkpt lat="57.404725011438131" lon="-5.644950019195676">
        <ele>153.47</ele>
        <time>2019-09-04T14:32:01Z</time>
      </trkpt>
      <trkpt lat="57.405030028894544" lon="-5.644706021994352">
        <ele>152.50999999999999</ele>
        <time>2019-09-04T14:32:05Z</time>
      </trkpt>
      <trkpt lat="57.405979027971625" lon="-5.644361022859812">
        <ele>147.69999999999999</ele>
        <time>2019-09-04T14:32:15Z</time>
      </trkpt>
      <trkpt lat="57.406355962157249" lon="-5.644277036190033">
        <ele>145.78</ele>
        <time>2019-09-04T14:32:19Z</time>
      </trkpt>
      <trkpt lat="57.407200019806623" lon="-5.644156001508236">
        <ele>141.44999999999999</ele>
        <time>2019-09-04T14:32:29Z</time>
      </trkpt>
      <trkpt lat="57.407922958955169" lon="-5.64397101290524">
        <ele>137.61000000000001</ele>
        <time>2019-09-04T14:32:37Z</time>
      </trkpt>
      <trkpt lat="57.40800803527236" lon="-5.644015017896891">
        <ele>137.13</ele>
        <time>2019-09-04T14:32:38Z</time>
      </trkpt>
      <trkpt lat="57.408803980797529" lon="-5.644433023408055">
        <ele>132.31999999999999</ele>
        <time>2019-09-04T14:32:47Z</time>
      </trkpt>
      <trkpt lat="57.409119978547096" lon="-5.644598985090852">
        <ele>128.47</ele>
        <time>2019-09-04T14:32:57Z</time>
      </trkpt>
      <trkpt lat="57.409260040149093" lon="-5.644671991467476">
        <ele>127.03</ele>
        <time>2019-09-04T14:33:01Z</time>
      </trkpt>
      <trkpt lat="57.40957603789866" lon="-5.644838958978653">
        <ele>125.59</ele>
        <time>2019-09-04T14:33:06Z</time>
      </trkpt>
      <trkpt lat="57.409640997648239" lon="-5.644818004220724">
        <ele>125.11</ele>
        <time>2019-09-04T14:33:07Z</time>
      </trkpt>
      <trkpt lat="57.409692965447903" lon="-5.644782967865467">
        <ele>125.11</ele>
        <time>2019-09-04T14:33:08Z</time>
      </trkpt>
      <trkpt lat="57.409734958782792" lon="-5.644727982580662">
        <ele>124.63</ele>
        <time>2019-09-04T14:33:09Z</time>
      </trkpt>
      <trkpt lat="57.409763960167766" lon="-5.644641984254122">
        <ele>124.15000000000001</ele>
        <time>2019-09-04T14:33:10Z</time>
      </trkpt>
      <trkpt lat="57.40979396738112" lon="-5.644551962614059">
        <ele>123.67</ele>
        <time>2019-09-04T14:33:11Z</time>
      </trkpt>
      <trkpt lat="57.40979203954339" lon="-5.644416008144617">
        <ele>123.67</ele>
        <time>2019-09-04T14:33:12Z</time>
      </trkpt>
      <trkpt lat="57.409763960167766" lon="-5.644277036190033">
        <ele>122.70999999999999</ele>
        <time>2019-09-04T14:33:13Z</time>
      </trkpt>
      <trkpt lat="57.409732025116682" lon="-5.644114008173347">
        <ele>121.73999999999999</ele>
        <time>2019-09-04T14:33:14Z</time>
      </trkpt>
      <trkpt lat="57.409695982933044" lon="-5.643931031227112">
        <ele>121.26000000000001</ele>
        <time>2019-09-04T14:33:15Z</time>
      </trkpt>
      <trkpt lat="57.409237995743752" lon="-5.641786018386483">
        <ele>113.09</ele>
        <time>2019-09-04T14:33:24Z</time>
      </trkpt>
      <trkpt lat="57.408669032156467" lon="-5.639217970892787">
        <ele>107.81</ele>
        <time>2019-09-04T14:33:34Z</time>
      </trkpt>
      <trkpt lat="57.408601976931095" lon="-5.638896021991968">
        <ele>107.81</ele>
        <time>2019-09-04T14:33:36Z</time>
      </trkpt>
      <trkpt lat="57.408583033829927" lon="-5.638755038380623">
        <ele>107.81</ele>
        <time>2019-09-04T14:33:37Z</time>
      </trkpt>
      <trkpt lat="57.408576998859644" lon="-5.638635009527206">
        <ele>107.81</ele>
        <time>2019-09-04T14:33:38Z</time>
      </trkpt>
      <trkpt lat="57.408570041880012" lon="-5.638507017865777">
        <ele>107.31999999999999</ele>
        <time>2019-09-04T14:33:39Z</time>
      </trkpt>
      <trkpt lat="57.408585967496037" lon="-5.638332003727555">
        <ele>107.31999999999999</ele>
        <time>2019-09-04T14:33:40Z</time>
      </trkpt>
      <trkpt lat="57.408622009679675" lon="-5.638194959610701">
        <ele>107.31999999999999</ele>
        <time>2019-09-04T14:33:41Z</time>
      </trkpt>
      <trkpt lat="57.408661991357803" lon="-5.63804198987782">
        <ele>107.31999999999999</ele>
        <time>2019-09-04T14:33:42Z</time>
      </trkpt>
      <trkpt lat="57.408702978864312" lon="-5.637888014316559">
        <ele>106.84</ele>
        <time>2019-09-04T14:33:43Z</time>
      </trkpt>
      <trkpt lat="57.40874296054244" lon="-5.637735966593027">
        <ele>106.84</ele>
        <time>2019-09-04T14:33:44Z</time>
      </trkpt>
      <trkpt lat="57.408797023817897" lon="-5.637598000466824">
        <ele>106.84</ele>
        <time>2019-09-04T14:33:45Z</time>
      </trkpt>
      <trkpt lat="57.408857960253954" lon="-5.637463973835111">
        <ele>106.84</ele>
        <time>2019-09-04T14:33:46Z</time>
      </trkpt>
      <trkpt lat="57.409239001572132" lon="-5.636642966419458">
        <ele>105.88</ele>
        <time>2019-09-04T14:33:53Z</time>
      </trkpt>
      <trkpt lat="57.409659018740058" lon="-5.635492969304323">
        <ele>104.44</ele>
        <time>2019-09-04T14:34:00Z</time>
      </trkpt>
      <trkpt lat="57.409753985702991" lon="-5.635338993743062">
        <ele>104.92</ele>
        <time>2019-09-04T14:34:01Z</time>
      </trkpt>
      <trkpt lat="57.409831015393138" lon="-5.635214019566774">
        <ele>104.92</ele>
        <time>2019-09-04T14:34:02Z</time>
      </trkpt>
      <trkpt lat="57.40992003120482" lon="-5.635125003755093">
        <ele>104.44</ele>
        <time>2019-09-04T14:34:03Z</time>
      </trkpt>
      <trkpt lat="57.410013992339373" lon="-5.635030958801508">
        <ele>104.44</ele>
        <time>2019-09-04T14:34:04Z</time>
      </trkpt>
      <trkpt lat="57.410478014498949" lon="-5.634528966620565">
        <ele>103.95999999999999</ele>
        <time>2019-09-04T14:34:10Z</time>
      </trkpt>
      <trkpt lat="57.410526964813471" lon="-5.634407009929419">
        <ele>103.48</ele>
        <time>2019-09-04T14:34:11Z</time>
      </trkpt>
      <trkpt lat="57.410582033917308" lon="-5.634246999397874">
        <ele>102.52</ele>
        <time>2019-09-04T14:34:12Z</time>
      </trkpt>
      <trkpt lat="57.410582033917308" lon="-5.634077014401555">
        <ele>101.56</ele>
        <time>2019-09-04T14:34:13Z</time>
      </trkpt>
      <trkpt lat="57.410582033917308" lon="-5.633889008313417">
        <ele>100.59999999999999</ele>
        <time>2019-09-04T14:34:14Z</time>
      </trkpt>
      <trkpt lat="57.410555966198444" lon="-5.633685998618603">
        <ele>100.11</ele>
        <time>2019-09-04T14:34:15Z</time>
      </trkpt>
      <trkpt lat="57.410511039197445" lon="-5.633493969216943">
        <ele>99.150000000000006</ele>
        <time>2019-09-04T14:34:16Z</time>
      </trkpt>
      <trkpt lat="57.410464016720653" lon="-5.63329397700727">
        <ele>98.189999999999998</ele>
        <time>2019-09-04T14:34:17Z</time>
      </trkpt>
      <trkpt lat="57.410414982587099" lon="-5.633087027817965">
        <ele>97.230000000000004</ele>
        <time>2019-09-04T14:34:18Z</time>
      </trkpt>
      <trkpt lat="57.410364020615816" lon="-5.632869014516473">
        <ele>96.269999999999996</ele>
        <time>2019-09-04T14:34:19Z</time>
      </trkpt>
      <trkpt lat="57.410283973440528" lon="-5.632674973458052">
        <ele>95.310000000000002</ele>
        <time>2019-09-04T14:34:20Z</time>
      </trkpt>
      <trkpt lat="57.410189006477594" lon="-5.632500965148211">
        <ele>94.349999999999994</ele>
        <time>2019-09-04T14:34:21Z</time>
      </trkpt>
      <trkpt lat="57.409130958840251" lon="-5.630774041637778">
        <ele>83.290000000000006</ele>
        <time>2019-09-04T14:34:31Z</time>
      </trkpt>
      <trkpt lat="57.408368038013577" lon="-5.630098963156343">
        <ele>78.480000000000004</ele>
        <time>2019-09-04T14:34:39Z</time>
      </trkpt>
      <trkpt lat="57.408315986394882" lon="-5.630030985921621">
        <ele>78</ele>
        <time>2019-09-04T14:34:40Z</time>
      </trkpt>
      <trkpt lat="57.40826703608036" lon="-5.629967032000423">
        <ele>77.519999999999996</ele>
        <time>2019-09-04T14:34:41Z</time>
      </trkpt>
      <trkpt lat="57.408220013603568" lon="-5.629880027845502">
        <ele>77.519999999999996</ele>
        <time>2019-09-04T14:34:42Z</time>
      </trkpt>
      <trkpt lat="57.408181959763169" lon="-5.62979000620544">
        <ele>77.040000000000006</ele>
        <time>2019-09-04T14:34:43Z</time>
      </trkpt>
      <trkpt lat="57.40814097225666" lon="-5.629692021757364">
        <ele>76.560000000000002</ele>
        <time>2019-09-04T14:34:44Z</time>
      </trkpt>
      <trkpt lat="57.408107025548816" lon="-5.629560006782413">
        <ele>76.079999999999998</ele>
        <time>2019-09-04T14:34:45Z</time>
      </trkpt>
      <trkpt lat="57.408078024163842" lon="-5.629439977928996">
        <ele>75.599999999999994</ele>
        <time>2019-09-04T14:34:46Z</time>
      </trkpt>
      <trkpt lat="57.407992025837302" lon="-5.629080981016159">
        <ele>75.120000000000005</ele>
        <time>2019-09-04T14:34:49Z</time>
      </trkpt>
      <trkpt lat="57.407984985038638" lon="-5.628935974091291">
        <ele>74.640000000000001</ele>
        <time>2019-09-04T14:34:50Z</time>
      </trkpt>
      <trkpt lat="57.407984985038638" lon="-5.628789039328694">
        <ele>74.159999999999997</ele>
        <time>2019-09-04T14:34:51Z</time>
      </trkpt>
      <trkpt lat="57.407984985038638" lon="-5.628631040453911">
        <ele>73.680000000000007</ele>
        <time>2019-09-04T14:34:52Z</time>
      </trkpt>
      <trkpt lat="57.407984985038638" lon="-5.628464994952083">
        <ele>73.200000000000003</ele>
        <time>2019-09-04T14:34:53Z</time>
      </trkpt>
      <trkpt lat="57.407997976988554" lon="-5.628292998299003">
        <ele>72.719999999999999</ele>
        <time>2019-09-04T14:34:54Z</time>
      </trkpt>
      <trkpt lat="57.408169973641634" lon="-5.626916019245982">
        <ele>67.430000000000007</ele>
        <time>2019-09-04T14:35:02Z</time>
      </trkpt>
      <trkpt lat="57.408187994733453" lon="-5.626767994835973">
        <ele>66.469999999999999</ele>
        <time>2019-09-04T14:35:03Z</time>
      </trkpt>
      <trkpt lat="57.408187994733453" lon="-5.626591974869371">
        <ele>65.989999999999995</ele>
        <time>2019-09-04T14:35:04Z</time>
      </trkpt>
      <trkpt lat="57.408167961984873" lon="-5.626449985429645">
        <ele>65.030000000000001</ele>
        <time>2019-09-04T14:35:05Z</time>
      </trkpt>
      <trkpt lat="57.408149018883705" lon="-5.626315958797932">
        <ele>64.549999999999997</ele>
        <time>2019-09-04T14:35:06Z</time>
      </trkpt>
      <trkpt lat="57.408115994185209" lon="-5.626173969358206">
        <ele>63.579999999999998</ele>
        <time>2019-09-04T14:35:07Z</time>
      </trkpt>
      <trkpt lat="57.4080750066787" lon="-5.626068022102118">
        <ele>63.100000000000001</ele>
        <time>2019-09-04T14:35:08Z</time>
      </trkpt>
      <trkpt lat="57.408034019172192" lon="-5.625961991026998">
        <ele>62.619999999999997</ele>
        <time>2019-09-04T14:35:09Z</time>
      </trkpt>
      <trkpt lat="57.407941985875368" lon="-5.625729979947209">
        <ele>61.18</ele>
        <time>2019-09-04T14:35:11Z</time>
      </trkpt>
      <trkpt lat="57.407933017238975" lon="-5.625639036297798">
        <ele>60.700000000000003</ele>
        <time>2019-09-04T14:35:12Z</time>
      </trkpt>
      <trkpt lat="57.40792203694582" lon="-5.625522024929524">
        <ele>60.219999999999999</ele>
        <time>2019-09-04T14:35:13Z</time>
      </trkpt>
      <trkpt lat="57.40794500336051" lon="-5.625421022996306">
        <ele>59.740000000000002</ele>
        <time>2019-09-04T14:35:14Z</time>
      </trkpt>
      <trkpt lat="57.407971993088722" lon="-5.625313986092806">
        <ele>58.780000000000001</ele>
        <time>2019-09-04T14:35:15Z</time>
      </trkpt>
      <trkpt lat="57.408004011958838" lon="-5.625187000259757">
        <ele>58.299999999999997</ele>
        <time>2019-09-04T14:35:16Z</time>
      </trkpt>
      <trkpt lat="57.408038964495063" lon="-5.625050039961934">
        <ele>58.299999999999997</ele>
        <time>2019-09-04T14:35:17Z</time>
      </trkpt>
      <trkpt lat="57.40820299834013" lon="-5.624404968693852">
        <ele>55.890000000000001</ele>
        <time>2019-09-04T14:35:21Z</time>
      </trkpt>
      <trkpt lat="57.4082459975034" lon="-5.624228026717901">
        <ele>55.409999999999997</ele>
        <time>2019-09-04T14:35:22Z</time>
      </trkpt>
      <trkpt lat="57.408278016373515" lon="-5.624038008973002">
        <ele>54.450000000000003</ele>
        <time>2019-09-04T14:35:23Z</time>
      </trkpt>
      <trkpt lat="57.40829000249505" lon="-5.623832987621427">
        <ele>53.490000000000002</ele>
        <time>2019-09-04T14:35:24Z</time>
      </trkpt>
      <trkpt lat="57.408295031636953" lon="-5.623628972098231">
        <ele>52.530000000000001</ele>
        <time>2019-09-04T14:35:25Z</time>
      </trkpt>
      <trkpt lat="57.408364014700055" lon="-5.621070982888341">
        <ele>42.439999999999998</ele>
        <time>2019-09-04T14:35:37Z</time>
      </trkpt>
      <trkpt lat="57.408385975286365" lon="-5.620705028995872">
        <ele>40.509999999999998</ele>
        <time>2019-09-04T14:35:39Z</time>
      </trkpt>
      <trkpt lat="57.40841799415648" lon="-5.620557004585862">
        <ele>40.030000000000001</ele>
        <time>2019-09-04T14:35:40Z</time>
      </trkpt>
      <trkpt lat="57.40846099331975" lon="-5.620415015146136">
        <ele>39.07</ele>
        <time>2019-09-04T14:35:41Z</time>
      </trkpt>
      <trkpt lat="57.408512039110065" lon="-5.620298003777862">
        <ele>38.590000000000003</ele>
        <time>2019-09-04T14:35:42Z</time>
      </trkpt>
      <trkpt lat="57.408565012738109" lon="-5.620177974924445">
        <ele>38.590000000000003</ele>
        <time>2019-09-04T14:35:43Z</time>
      </trkpt>
      <trkpt lat="57.408637013286352" lon="-5.620077978819609">
        <ele>38.109999999999999</ele>
        <time>2019-09-04T14:35:44Z</time>
      </trkpt>
      <trkpt lat="57.408716976642609" lon="-5.619998015463352">
        <ele>38.109999999999999</ele>
        <time>2019-09-04T14:35:45Z</time>
      </trkpt>
      <trkpt lat="57.408803980797529" lon="-5.619912017136812">
        <ele>37.630000000000003</ele>
        <time>2019-09-04T14:35:46Z</time>
      </trkpt>
      <trkpt lat="57.40961903706193" lon="-5.618807030841708">
        <ele>30.899999999999999</ele>
        <time>2019-09-04T14:35:54Z</time>
      </trkpt>
      <trkpt lat="57.41063199006021" lon="-5.617025960236788">
        <ele>23.210000000000001</ele>
        <time>2019-09-04T14:36:05Z</time>
      </trkpt>
      <trkpt lat="57.410961985588074" lon="-5.616504019126296">
        <ele>21.289999999999999</ele>
        <time>2019-09-04T14:36:10Z</time>
      </trkpt>
      <trkpt lat="57.411049995571375" lon="-5.616420032456517">
        <ele>20.809999999999999</ele>
        <time>2019-09-04T14:36:11Z</time>
      </trkpt>
      <trkpt lat="57.41114404052496" lon="-5.616358006373048">
        <ele>20.809999999999999</ele>
        <time>2019-09-04T14:36:12Z</time>
      </trkpt>
      <trkpt lat="57.412646999582648" lon="-5.615370031446219">
        <ele>20.809999999999999</ele>
        <time>2019-09-04T14:36:27Z</time>
      </trkpt>
      <trkpt lat="57.414237968623638" lon="-5.61451499350369">
        <ele>20.32</ele>
        <time>2019-09-04T14:36:39Z</time>
      </trkpt>
      <trkpt lat="57.415527021512389" lon="-5.613583009690046">
        <ele>20.809999999999999</ele>
        <time>2019-09-04T14:36:48Z</time>
      </trkpt>
      <trkpt lat="57.416118029505014" lon="-5.61294699087739">
        <ele>20.32</ele>
        <time>2019-09-04T14:36:54Z</time>
      </trkpt>
      <trkpt lat="57.416837029159069" lon="-5.611892966553569">
        <ele>19.359999999999999</ele>
        <time>2019-09-04T14:37:05Z</time>
      </trkpt>
      <trkpt lat="57.41718202829361" lon="-5.611444031819701">
        <ele>18.399999999999999</ele>
        <time>2019-09-04T14:37:09Z</time>
      </trkpt>
      <trkpt lat="57.418004041537642" lon="-5.610890993848443">
        <ele>15.52</ele>
        <time>2019-09-04T14:37:16Z</time>
      </trkpt>
      <trkpt lat="57.418127004057169" lon="-5.610808013007045">
        <ele>15.039999999999999</ele>
        <time>2019-09-04T14:37:17Z</time>
      </trkpt>
      <trkpt lat="57.418235968798399" lon="-5.610641967505217">
        <ele>14.56</ele>
        <time>2019-09-04T14:37:18Z</time>
      </trkpt>
      <trkpt lat="57.418319033458829" lon="-5.61045597307384">
        <ele>14.08</ele>
        <time>2019-09-04T14:37:19Z</time>
      </trkpt>
      <trkpt lat="57.418400002643466" lon="-5.610274001955986">
        <ele>13.6</ele>
        <time>2019-09-04T14:37:20Z</time>
      </trkpt>
      <trkpt lat="57.419012971222401" lon="-5.609282003715634">
        <ele>11.19</ele>
        <time>2019-09-04T14:37:28Z</time>
      </trkpt>
      <trkpt lat="57.419259985908866" lon="-5.608962988480926">
        <ele>10.710000000000001</ele>
        <time>2019-09-04T14:37:32Z</time>
      </trkpt>
      <trkpt lat="57.419337015599012" lon="-5.60886399820447">
        <ele>10.23</ele>
        <time>2019-09-04T14:37:33Z</time>
      </trkpt>
      <trkpt lat="57.419350007548928" lon="-5.608802977949381">
        <ele>10.23</ele>
        <time>2019-09-04T14:37:34Z</time>
      </trkpt>
      <trkpt lat="57.419374985620379" lon="-5.608636010438204">
        <ele>10.23</ele>
        <time>2019-09-04T14:37:35Z</time>
      </trkpt>
      <trkpt lat="57.41935302503407" lon="-5.608471976593137">
        <ele>9.75</ele>
        <time>2019-09-04T14:37:36Z</time>
      </trkpt>
      <trkpt lat="57.419326035305858" lon="-5.608277013525367">
        <ele>9.75</ele>
        <time>2019-09-04T14:37:37Z</time>
      </trkpt>
      <trkpt lat="57.419297033920884" lon="-5.608054976910353">
        <ele>9.27</ele>
        <time>2019-09-04T14:37:38Z</time>
      </trkpt>
      <trkpt lat="57.418913980945945" lon="-5.605703014880419">
        <ele>6.39</ele>
        <time>2019-09-04T14:37:47Z</time>
      </trkpt>
      <trkpt lat="57.418554984033108" lon="-5.603592032566667">
        <ele>6.39</ele>
        <time>2019-09-04T14:37:57Z</time>
      </trkpt>
      <trkpt lat="57.418465968221426" lon="-5.603067995980382">
        <ele>7.35</ele>
        <time>2019-09-04T14:38:02Z</time>
      </trkpt>
      <trkpt lat="57.418453982099891" lon="-5.6029980070889">
        <ele>7.35</ele>
        <time>2019-09-04T14:38:03Z</time>
      </trkpt>
      <trkpt lat="57.418439984321594" lon="-5.602917959913611">
        <ele>7.35</ele>
        <time>2019-09-04T14:38:04Z</time>
      </trkpt>
      <trkpt lat="57.418403020128608" lon="-5.602699024602771">
        <ele>7.83</ele>
        <time>2019-09-04T14:38:07Z</time>
      </trkpt>
      <trkpt lat="57.418377958238125" lon="-5.602554017677903">
        <ele>8.310000000000001</ele>
        <time>2019-09-04T14:38:09Z</time>
      </trkpt>
      <trkpt lat="57.418333031237125" lon="-5.602515041828156">
        <ele>8.789999999999999</ele>
        <time>2019-09-04T14:38:10Z</time>
      </trkpt>
      <trkpt lat="57.418286008760333" lon="-5.602517975494266">
        <ele>9.27</ele>
        <time>2019-09-04T14:38:11Z</time>
      </trkpt>
      <trkpt lat="57.41821400821209" lon="-5.602523004636169">
        <ele>9.75</ele>
        <time>2019-09-04T14:38:12Z</time>
      </trkpt>
      <trkpt lat="57.418118035420775" lon="-5.602529039606452">
        <ele>9.75</ele>
        <time>2019-09-04T14:38:13Z</time>
      </trkpt>
      <trkpt lat="57.418006975203753" lon="-5.602537002414465">
        <ele>10.23</ele>
        <time>2019-09-04T14:38:14Z</time>
      </trkpt>
      <trkpt lat="57.417109021916986" lon="-5.602596011012793">
        <ele>11.19</ele>
        <time>2019-09-04T14:38:20Z</time>
      </trkpt>
      <trkpt lat="57.415790967643261" lon="-5.603145025670528">
        <ele>10.710000000000001</ele>
        <time>2019-09-04T14:38:28Z</time>
      </trkpt>
      <trkpt lat="57.414193963631988" lon="-5.604592999443412">
        <ele>8.310000000000001</ele>
        <time>2019-09-04T14:38:38Z</time>
      </trkpt>
      <trkpt lat="57.412404008209705" lon="-5.60585699044168">
        <ele>8.310000000000001</ele>
        <time>2019-09-04T14:38:49Z</time>
      </trkpt>
      <trkpt lat="57.410825025290251" lon="-5.607010005041957">
        <ele>8.789999999999999</ele>
        <time>2019-09-04T14:38:58Z</time>
      </trkpt>
      <trkpt lat="57.409176975488663" lon="-5.608496032655239">
        <ele>6.87</ele>
        <time>2019-09-04T14:39:07Z</time>
      </trkpt>
      <trkpt lat="57.407673010602593" lon="-5.609579980373383">
        <ele>7.83</ele>
        <time>2019-09-04T14:39:16Z</time>
      </trkpt>
      <trkpt lat="57.406232999637723" lon="-5.610657976940274">
        <ele>12.15</ele>
        <time>2019-09-04T14:39:25Z</time>
      </trkpt>
      <trkpt lat="57.405277965590358" lon="-5.610697958618403">
        <ele>18.879999999999999</ele>
        <time>2019-09-04T14:39:31Z</time>
      </trkpt>
      <trkpt lat="57.404715958982706" lon="-5.610570972785354">
        <ele>23.210000000000001</ele>
        <time>2019-09-04T14:39:35Z</time>
      </trkpt>
      <trkpt lat="57.40405797958374" lon="-5.610323958098888">
        <ele>28.02</ele>
        <time>2019-09-04T14:39:40Z</time>
      </trkpt>
      <trkpt lat="57.402817960828543" lon="-5.609845016151667">
        <ele>34.259999999999998</ele>
        <time>2019-09-04T14:39:48Z</time>
      </trkpt>
      <trkpt lat="57.401646003127098" lon="-5.609175972640514">
        <ele>36.670000000000002</ele>
        <time>2019-09-04T14:39:56Z</time>
      </trkpt>
      <trkpt lat="57.400459963828325" lon="-5.608208030462265">
        <ele>35.710000000000001</ele>
        <time>2019-09-04T14:40:05Z</time>
      </trkpt>
      <trkpt lat="57.399248024448752" lon="-5.606402987614274">
        <ele>29.940000000000001</ele>
        <time>2019-09-04T14:40:16Z</time>
      </trkpt>
      <trkpt lat="57.39900603890419" lon="-5.605949023738504">
        <ele>28.98</ele>
        <time>2019-09-04T14:40:19Z</time>
      </trkpt>
      <trkpt lat="57.39896496757865" lon="-5.605795970186591">
        <ele>28.5</ele>
        <time>2019-09-04T14:40:20Z</time>
      </trkpt>
      <trkpt lat="57.398930015042424" lon="-5.605666972696781">
        <ele>28.02</ele>
        <time>2019-09-04T14:40:21Z</time>
      </trkpt>
      <trkpt lat="57.398883998394012" lon="-5.605315016582608">
        <ele>28.02</ele>
        <time>2019-09-04T14:40:23Z</time>
      </trkpt>
      <trkpt lat="57.398862959817052" lon="-5.605132039636374">
        <ele>28.02</ele>
        <time>2019-09-04T14:40:24Z</time>
      </trkpt>
      <trkpt lat="57.398809986189008" lon="-5.603065984323621">
        <ele>31.859999999999999</ele>
        <time>2019-09-04T14:40:33Z</time>
      </trkpt>
      <trkpt lat="57.398824989795685" lon="-5.602602967992425">
        <ele>31.859999999999999</ele>
        <time>2019-09-04T14:40:35Z</time>
      </trkpt>
      <trkpt lat="57.398904031142592" lon="-5.60063699260354">
        <ele>30.899999999999999</ele>
        <time>2019-09-04T14:40:44Z</time>
      </trkpt>
      <trkpt lat="57.399048032239079" lon="-5.598190985620022">
        <ele>33.299999999999997</ele>
        <time>2019-09-04T14:40:55Z</time>
      </trkpt>
      <trkpt lat="57.399292029440403" lon="-5.594434970989823">
        <ele>36.189999999999998</ele>
        <time>2019-09-04T14:41:09Z</time>
      </trkpt>
      <trkpt lat="57.399596963077784" lon="-5.591169968247414">
        <ele>37.630000000000003</ele>
        <time>2019-09-04T14:41:20Z</time>
      </trkpt>
      <trkpt lat="57.399708023294806" lon="-5.590405035763979">
        <ele>36.670000000000002</ele>
        <time>2019-09-04T14:41:23Z</time>
      </trkpt>
      <trkpt lat="57.399779018014669" lon="-5.590162966400385">
        <ele>35.710000000000001</ele>
        <time>2019-09-04T14:41:24Z</time>
      </trkpt>
      <trkpt lat="57.399852024391294" lon="-5.589912012219429">
        <ele>35.229999999999997</ele>
        <time>2019-09-04T14:41:25Z</time>
      </trkpt>
      <trkpt lat="57.400587033480406" lon="-5.587634984403849">
        <ele>32.340000000000003</ele>
        <time>2019-09-04T14:41:34Z</time>
      </trkpt>
      <trkpt lat="57.401608033105731" lon="-5.585222002118826">
        <ele>32.82</ele>
        <time>2019-09-04T14:41:45Z</time>
      </trkpt>
      <trkpt lat="57.402289984747767" lon="-5.583079000934959">
        <ele>31.379999999999999</ele>
        <time>2019-09-04T14:41:54Z</time>
      </trkpt>
      <trkpt lat="57.402579998597503" lon="-5.582002010196447">
        <ele>32.82</ele>
        <time>2019-09-04T14:42:01Z</time>
      </trkpt>
      <trkpt lat="57.402622997760773" lon="-5.581818027421832">
        <ele>33.299999999999997</ele>
        <time>2019-09-04T14:42:02Z</time>
      </trkpt>
      <trkpt lat="57.402633978053927" lon="-5.581603031605482">
        <ele>33.299999999999997</ele>
        <time>2019-09-04T14:42:03Z</time>
      </trkpt>
      <trkpt lat="57.402634983882308" lon="-5.581370014697313">
        <ele>33.780000000000001</ele>
        <time>2019-09-04T14:42:04Z</time>
      </trkpt>
      <trkpt lat="57.402607994154096" lon="-5.58112702332437">
        <ele>33.780000000000001</ele>
        <time>2019-09-04T14:42:05Z</time>
      </trkpt>
      <trkpt lat="57.402578992769122" lon="-5.580871040001512">
        <ele>33.780000000000001</ele>
        <time>2019-09-04T14:42:06Z</time>
      </trkpt>
      <trkpt lat="57.402549991384149" lon="-5.58061103336513">
        <ele>34.259999999999998</ele>
        <time>2019-09-04T14:42:07Z</time>
      </trkpt>
      <trkpt lat="57.402535993605852" lon="-5.578894000500441">
        <ele>36.670000000000002</ele>
        <time>2019-09-04T14:42:14Z</time>
      </trkpt>
      <trkpt lat="57.4028529971838" lon="-5.576515970751643">
        <ele>36.670000000000002</ele>
        <time>2019-09-04T14:42:24Z</time>
      </trkpt>
      <trkpt lat="57.403360018506646" lon="-5.574621995911002">
        <ele>38.109999999999999</ele>
        <time>2019-09-04T14:42:32Z</time>
      </trkpt>
      <trkpt lat="57.403934011235833" lon="-5.572325019165874">
        <ele>41.469999999999999</ele>
        <time>2019-09-04T14:42:42Z</time>
      </trkpt>
      <trkpt lat="57.404245985671878" lon="-5.570321995764971">
        <ele>43.880000000000003</ele>
        <time>2019-09-04T14:42:50Z</time>
      </trkpt>
      <trkpt lat="57.404587967321277" lon="-5.568421985954046">
        <ele>46.759999999999998</ele>
        <time>2019-09-04T14:42:59Z</time>
      </trkpt>
      <trkpt lat="57.404810003936291" lon="-5.567385982722044">
        <ele>47.719999999999999</ele>
        <time>2019-09-04T14:43:03Z</time>
      </trkpt>
      <trkpt lat="57.404821990057826" lon="-5.567147014662623">
        <ele>48.200000000000003</ele>
        <time>2019-09-04T14:43:04Z</time>
      </trkpt>
      <trkpt lat="57.40482802502811" lon="-5.566890025511384">
        <ele>48.200000000000003</ele>
        <time>2019-09-04T14:43:05Z</time>
      </trkpt>
      <trkpt lat="57.404817966744304" lon="-5.566636975854635">
        <ele>48.68</ele>
        <time>2019-09-04T14:43:06Z</time>
      </trkpt>
      <trkpt lat="57.404804974794388" lon="-5.566374035552144">
        <ele>49.159999999999997</ele>
        <time>2019-09-04T14:43:07Z</time>
      </trkpt>
      <trkpt lat="57.404758036136627" lon="-5.56612903252244">
        <ele>49.649999999999999</ele>
        <time>2019-09-04T14:43:08Z</time>
      </trkpt>
      <trkpt lat="57.404510015621781" lon="-5.564731014892459">
        <ele>53.009999999999998</ele>
        <time>2019-09-04T14:43:14Z</time>
      </trkpt>
      <trkpt lat="57.404513033106923" lon="-5.564489029347897">
        <ele>53.490000000000002</ele>
        <time>2019-09-04T14:43:15Z</time>
      </trkpt>
      <trkpt lat="57.404628032818437" lon="-5.56204997934401">
        <ele>57.82</ele>
        <time>2019-09-04T14:43:25Z</time>
      </trkpt>
      <trkpt lat="57.404952999204397" lon="-5.559987025335431">
        <ele>63.579999999999998</ele>
        <time>2019-09-04T14:43:34Z</time>
      </trkpt>
      <trkpt lat="57.405203031376004" lon="-5.559251010417938">
        <ele>65.510000000000005</ele>
        <time>2019-09-04T14:43:41Z</time>
      </trkpt>
      <trkpt lat="57.405331023037434" lon="-5.558609962463379">
        <ele>67.430000000000007</ele>
        <time>2019-09-04T14:43:46Z</time>
      </trkpt>
      <trkpt lat="57.405408974736929" lon="-5.556811960414052">
        <ele>69.829999999999998</ele>
        <time>2019-09-04T14:43:56Z</time>
      </trkpt>
      <trkpt lat="57.405536966398358" lon="-5.55396999232471">
        <ele>71.269999999999996</ele>
        <time>2019-09-04T14:44:10Z</time>
      </trkpt>
      <trkpt lat="57.40562497638166" lon="-5.553213022649288">
        <ele>71.760000000000005</ele>
        <time>2019-09-04T14:44:14Z</time>
      </trkpt>
      <trkpt lat="57.405663030222058" lon="-5.553029039874673">
        <ele>71.760000000000005</ele>
        <time>2019-09-04T14:44:15Z</time>
      </trkpt>
      <trkpt lat="57.406053962185979" lon="-5.550757041200995">
        <ele>75.599999999999994</ele>
        <time>2019-09-04T14:44:27Z</time>
      </trkpt>
      <trkpt lat="57.406053962185979" lon="-5.550580015406013">
        <ele>76.079999999999998</ele>
        <time>2019-09-04T14:44:28Z</time>
      </trkpt>
      <trkpt lat="57.406048011034727" lon="-5.550389997661114">
        <ele>76.560000000000002</ele>
        <time>2019-09-04T14:44:29Z</time>
      </trkpt>
      <trkpt lat="57.406019009649754" lon="-5.55018899962306">
        <ele>77.040000000000006</ele>
        <time>2019-09-04T14:44:30Z</time>
      </trkpt>
      <trkpt lat="57.405989002436399" lon="-5.549976015463471">
        <ele>77.040000000000006</ele>
        <time>2019-09-04T14:44:31Z</time>
      </trkpt>
      <trkpt lat="57.405975004658103" lon="-5.5497379694134">
        <ele>77.040000000000006</ele>
        <time>2019-09-04T14:44:32Z</time>
      </trkpt>
      <trkpt lat="57.40599000826478" lon="-5.549505036324263">
        <ele>77.040000000000006</ele>
        <time>2019-09-04T14:44:33Z</time>
      </trkpt>
      <trkpt lat="57.406006017699838" lon="-5.54926598444581">
        <ele>76.560000000000002</ele>
        <time>2019-09-04T14:44:34Z</time>
      </trkpt>
      <trkpt lat="57.406010963022709" lon="-5.549037996679544">
        <ele>76.560000000000002</ele>
        <time>2019-09-04T14:44:35Z</time>
      </trkpt>
      <trkpt lat="57.406003000214696" lon="-5.548826018348336">
        <ele>76.560000000000002</ele>
        <time>2019-09-04T14:44:36Z</time>
      </trkpt>
      <trkpt lat="57.405962012708187" lon="-5.548627031967044">
        <ele>76.560000000000002</ele>
        <time>2019-09-04T14:44:37Z</time>
      </trkpt>
      <trkpt lat="57.405922031030059" lon="-5.548429973423481">
        <ele>76.560000000000002</ele>
        <time>2019-09-04T14:44:38Z</time>
      </trkpt>
      <trkpt lat="57.405765959993005" lon="-5.547603014856577">
        <ele>78</ele>
        <time>2019-09-04T14:44:42Z</time>
      </trkpt>
      <trkpt lat="57.40573201328516" lon="-5.547167994081974">
        <ele>78.969999999999999</ele>
        <time>2019-09-04T14:44:44Z</time>
      </trkpt>
      <trkpt lat="57.40573201328516" lon="-5.546957021579146">
        <ele>79.450000000000003</ele>
        <time>2019-09-04T14:44:45Z</time>
      </trkpt>
      <trkpt lat="57.405735030770302" lon="-5.54673096165061">
        <ele>79.930000000000007</ele>
        <time>2019-09-04T14:44:46Z</time>
      </trkpt>
      <trkpt lat="57.405780963599682" lon="-5.546537004411221">
        <ele>80.409999999999997</ele>
        <time>2019-09-04T14:44:47Z</time>
      </trkpt>
      <trkpt lat="57.405827986076474" lon="-5.546336006373167">
        <ele>81.370000000000005</ele>
        <time>2019-09-04T14:44:48Z</time>
      </trkpt>
      <trkpt lat="57.405875008553267" lon="-5.546139031648636">
        <ele>82.329999999999998</ele>
        <time>2019-09-04T14:44:49Z</time>
      </trkpt>
      <trkpt lat="57.40599000826478" lon="-5.545624969527125">
        <ele>83.769999999999996</ele>
        <time>2019-09-04T14:44:52Z</time>
      </trkpt>
      <trkpt lat="57.40599000826478" lon="-5.545450961217284">
        <ele>84.730000000000004</ele>
        <time>2019-09-04T14:44:53Z</time>
      </trkpt>
      <trkpt lat="57.405984979122877" lon="-5.545263960957527">
        <ele>85.689999999999998</ele>
        <time>2019-09-04T14:44:54Z</time>
      </trkpt>
      <trkpt lat="57.405878026038408" lon="-5.544334994629026">
        <ele>89.060000000000002</ele>
        <time>2019-09-04T14:44:58Z</time>
      </trkpt>
      <trkpt lat="57.405875008553267" lon="-5.544060990214348">
        <ele>90.5</ele>
        <time>2019-09-04T14:44:59Z</time>
      </trkpt>
      <trkpt lat="57.405903004109859" lon="-5.543792014941573">
        <ele>91.939999999999998</ele>
        <time>2019-09-04T14:45:00Z</time>
      </trkpt>
      <trkpt lat="57.406010963022709" lon="-5.54275500588119">
        <ele>97.709999999999994</ele>
        <time>2019-09-04T14:45:04Z</time>
      </trkpt>
      <trkpt lat="57.406007023528218" lon="-5.542507991194725">
        <ele>98.670000000000002</ele>
        <time>2019-09-04T14:45:05Z</time>
      </trkpt>
      <trkpt lat="57.40592697635293" lon="-5.539799965918064">
        <ele>110.20999999999999</ele>
        <time>2019-09-04T14:45:15Z</time>
      </trkpt>
      <trkpt lat="57.405779035761952" lon="-5.537846982479096">
        <ele>116.45999999999999</ele>
        <time>2019-09-04T14:45:22Z</time>
      </trkpt>
      <trkpt lat="57.405851958319545" lon="-5.537221021950245">
        <ele>117.90000000000001</ele>
        <time>2019-09-04T14:45:24Z</time>
      </trkpt>
      <trkpt lat="57.406242974102497" lon="-5.534892026335001">
        <ele>126.06999999999999</ele>
        <time>2019-09-04T14:45:32Z</time>
      </trkpt>
      <trkpt lat="57.406206009909511" lon="-5.532253989949822">
        <ele>133.75999999999999</ele>
        <time>2019-09-04T14:45:41Z</time>
      </trkpt>
      <trkpt lat="57.40613903850317" lon="-5.529727013781667">
        <ele>140.49000000000001</ele>
        <time>2019-09-04T14:45:49Z</time>
      </trkpt>
      <trkpt lat="57.406121017411351" lon="-5.528846997767687">
        <ele>142.88999999999999</ele>
        <time>2019-09-04T14:45:52Z</time>
      </trkpt>
      <trkpt lat="57.406080029904842" lon="-5.528549021109939">
        <ele>143.37</ele>
        <time>2019-09-04T14:45:53Z</time>
      </trkpt>
      <trkpt lat="57.405731007456779" lon="-5.526456981897354">
        <ele>148.18000000000001</ele>
        <time>2019-09-04T14:46:01Z</time>
      </trkpt>
      <trkpt lat="57.405230021104217" lon="-5.52449201233685">
        <ele>150.09999999999999</ele>
        <time>2019-09-04T14:46:11Z</time>
      </trkpt>
      <trkpt lat="57.404917040839791" lon="-5.523380991071463">
        <ele>150.09999999999999</ele>
        <time>2019-09-04T14:46:17Z</time>
      </trkpt>
      <trkpt lat="57.40487203001976" lon="-5.523202959448099">
        <ele>150.58000000000001</ele>
        <time>2019-09-04T14:46:18Z</time>
      </trkpt>
      <trkpt lat="57.4048509914428" lon="-5.522999027743936">
        <ele>151.06</ele>
        <time>2019-09-04T14:46:19Z</time>
      </trkpt>
      <trkpt lat="57.404757030308247" lon="-5.522041982039809">
        <ele>148.66</ele>
        <time>2019-09-04T14:46:25Z</time>
      </trkpt>
      <trkpt lat="57.404734985902905" lon="-5.521738976240158">
        <ele>146.74000000000001</ele>
        <time>2019-09-04T14:46:30Z</time>
      </trkpt>
      <trkpt lat="57.404728028923273" lon="-5.521641997620463">
        <ele>147.22</ele>
        <time>2019-09-04T14:46:31Z</time>
      </trkpt>
      <trkpt lat="57.404710007831454" lon="-5.521404035389423">
        <ele>147.69999999999999</ele>
        <time>2019-09-04T14:46:33Z</time>
      </trkpt>
      <trkpt lat="57.40461302921176" lon="-5.520090004429221">
        <ele>143.84999999999999</ele>
        <time>2019-09-04T14:46:40Z</time>
      </trkpt>
      <trkpt lat="57.404532982036471" lon="-5.519001027569175">
        <ele>140.97</ele>
        <time>2019-09-04T14:46:47Z</time>
      </trkpt>
      <trkpt lat="57.404410019516945" lon="-5.51649802364409">
        <ele>131.84</ele>
        <time>2019-09-04T14:46:57Z</time>
      </trkpt>
      <trkpt lat="57.404283033683896" lon="-5.515194972977042">
        <ele>125.11</ele>
        <time>2019-09-04T14:47:02Z</time>
      </trkpt>
      <trkpt lat="57.404218995943666" lon="-5.514978971332312">
        <ele>123.67</ele>
        <time>2019-09-04T14:47:03Z</time>
      </trkpt>
      <trkpt lat="57.404111959040165" lon="-5.514616034924984">
        <ele>121.26000000000001</ele>
        <time>2019-09-04T14:47:05Z</time>
      </trkpt>
      <trkpt lat="57.404082035645843" lon="-5.514450995251536">
        <ele>120.78</ele>
        <time>2019-09-04T14:47:06Z</time>
      </trkpt>
      <trkpt lat="57.404058985412121" lon="-5.514291990548372">
        <ele>120.3</ele>
        <time>2019-09-04T14:47:07Z</time>
      </trkpt>
      <trkpt lat="57.404039958491921" lon="-5.514117982238531">
        <ele>120.3</ele>
        <time>2019-09-04T14:47:08Z</time>
      </trkpt>
      <trkpt lat="57.40405404008925" lon="-5.513931987807155">
        <ele>119.81999999999999</ele>
        <time>2019-09-04T14:47:09Z</time>
      </trkpt>
      <trkpt lat="57.404069965705276" lon="-5.513720009475946">
        <ele>119.81999999999999</ele>
        <time>2019-09-04T14:47:10Z</time>
      </trkpt>
      <trkpt lat="57.404091004282236" lon="-5.513494033366442">
        <ele>119.34</ele>
        <time>2019-09-04T14:47:11Z</time>
      </trkpt>
      <trkpt lat="57.404117994010448" lon="-5.513257998973131">
        <ele>119.34</ele>
        <time>2019-09-04T14:47:12Z</time>
      </trkpt>
      <trkpt lat="57.404246991500258" lon="-5.512130968272686">
        <ele>116.94</ele>
        <time>2019-09-04T14:47:17Z</time>
      </trkpt>
      <trkpt lat="57.404238022863865" lon="-5.51190197467804">
        <ele>115.98</ele>
        <time>2019-09-04T14:47:18Z</time>
      </trkpt>
      <trkpt lat="57.404220001772046" lon="-5.511653032153845">
        <ele>115.01000000000001</ele>
        <time>2019-09-04T14:47:19Z</time>
      </trkpt>
      <trkpt lat="57.404155964031816" lon="-5.510874018073082">
        <ele>111.17</ele>
        <time>2019-09-04T14:47:22Z</time>
      </trkpt>
      <trkpt lat="57.404091004282236" lon="-5.510647958144546">
        <ele>109.73</ele>
        <time>2019-09-04T14:47:23Z</time>
      </trkpt>
      <trkpt lat="57.404025960713625" lon="-5.51042097620666">
        <ele>108.29000000000001</ele>
        <time>2019-09-04T14:47:24Z</time>
      </trkpt>
      <trkpt lat="57.403953038156033" lon="-5.510208997875452">
        <ele>106.84</ele>
        <time>2019-09-04T14:47:25Z</time>
      </trkpt>
      <trkpt lat="57.403873996809125" lon="-5.510017974302173">
        <ele>105.40000000000001</ele>
        <time>2019-09-04T14:47:26Z</time>
      </trkpt>
      <trkpt lat="57.403646009042859" lon="-5.509469965472817">
        <ele>102.52</ele>
        <time>2019-09-04T14:47:30Z</time>
      </trkpt>
      <trkpt lat="57.403589012101293" lon="-5.509396037086844">
        <ele>101.56</ele>
        <time>2019-09-04T14:47:31Z</time>
      </trkpt>
      <trkpt lat="57.403513994067907" lon="-5.509335016831756">
        <ele>100.59999999999999</ele>
        <time>2019-09-04T14:47:32Z</time>
      </trkpt>
      <trkpt lat="57.40343302488327" lon="-5.509268967434764">
        <ele>100.11</ele>
        <time>2019-09-04T14:47:33Z</time>
      </trkpt>
      <trkpt lat="57.403348032385111" lon="-5.509227979928255">
        <ele>99.150000000000006</ele>
        <time>2019-09-04T14:47:34Z</time>
      </trkpt>
      <trkpt lat="57.403246024623513" lon="-5.509209958836436">
        <ele>98.189999999999998</ele>
        <time>2019-09-04T14:47:35Z</time>
      </trkpt>
      <trkpt lat="57.403142005205154" lon="-5.509192021563649">
        <ele>96.75</ele>
        <time>2019-09-04T14:47:36Z</time>
      </trkpt>
      <trkpt lat="57.402812009677291" lon="-5.509068975225091">
        <ele>93.870000000000005</ele>
        <time>2019-09-04T14:47:39Z</time>
      </trkpt>
      <trkpt lat="57.402699021622539" lon="-5.509016001597047">
        <ele>92.420000000000002</ele>
        <time>2019-09-04T14:47:40Z</time>
      </trkpt>
      <trkpt lat="57.40259600803256" lon="-5.508936960250139">
        <ele>91.939999999999998</ele>
        <time>2019-09-04T14:47:41Z</time>
      </trkpt>
      <trkpt lat="57.402525013312697" lon="-5.508818021044135">
        <ele>90.980000000000004</ele>
        <time>2019-09-04T14:47:42Z</time>
      </trkpt>
      <trkpt lat="57.402456030249596" lon="-5.508704027161002">
        <ele>90.019999999999996</ele>
        <time>2019-09-04T14:47:43Z</time>
      </trkpt>
      <trkpt lat="57.402385035529733" lon="-5.508585004135966">
        <ele>89.540000000000006</ele>
        <time>2019-09-04T14:47:44Z</time>
      </trkpt>
      <trkpt lat="57.402215972542763" lon="-5.508345030248165">
        <ele>88.579999999999998</ele>
        <time>2019-09-04T14:47:46Z</time>
      </trkpt>
      <trkpt lat="57.40212201140821" lon="-5.508234975859523">
        <ele>88.099999999999994</ele>
        <time>2019-09-04T14:47:47Z</time>
      </trkpt>
      <trkpt lat="57.40184498950839" lon="-5.507947979494929">
        <ele>86.659999999999997</ele>
        <time>2019-09-04T14:47:50Z</time>
      </trkpt>
      <trkpt lat="57.401536032557487" lon="-5.507749998942018">
        <ele>84.730000000000004</ele>
        <time>2019-09-04T14:47:53Z</time>
      </trkpt>
      <trkpt lat="57.400545040145516" lon="-5.507525028660893">
        <ele>75.120000000000005</ele>
        <time>2019-09-04T14:48:03Z</time>
      </trkpt>
      <trkpt lat="57.400288973003626" lon="-5.507486974820495">
        <ele>73.200000000000003</ele>
        <time>2019-09-04T14:48:06Z</time>
      </trkpt>
      <trkpt lat="57.400200963020325" lon="-5.507485968992114">
        <ele>72.719999999999999</ele>
        <time>2019-09-04T14:48:07Z</time>
      </trkpt>
      <trkpt lat="57.399248024448752" lon="-5.508174039423466">
        <ele>66.469999999999999</ele>
        <time>2019-09-04T14:48:17Z</time>
      </trkpt>
      <trkpt lat="57.398278992623091" lon="-5.508738979697228">
        <ele>60.219999999999999</ele>
        <time>2019-09-04T14:48:24Z</time>
      </trkpt>
      <trkpt lat="57.39812501706183" lon="-5.508727999404073">
        <ele>59.259999999999998</ele>
        <time>2019-09-04T14:48:25Z</time>
      </trkpt>
      <trkpt lat="57.397973975166678" lon="-5.508686006069183">
        <ele>57.82</ele>
        <time>2019-09-04T14:48:26Z</time>
      </trkpt>
      <trkpt lat="57.397831985726953" lon="-5.50859497860074">
        <ele>56.859999999999999</ele>
        <time>2019-09-04T14:48:27Z</time>
      </trkpt>
      <trkpt lat="57.397688990458846" lon="-5.50850504077971">
        <ele>55.409999999999997</ele>
        <time>2019-09-04T14:48:28Z</time>
      </trkpt>
      <trkpt lat="57.397554041817784" lon="-5.508416024968028">
        <ele>53.969999999999999</ele>
        <time>2019-09-04T14:48:29Z</time>
      </trkpt>
      <trkpt lat="57.397438958287239" lon="-5.508259031921625">
        <ele>52.530000000000001</ele>
        <time>2019-09-04T14:48:30Z</time>
      </trkpt>
      <trkpt lat="57.397326976060867" lon="-5.508106984198093">
        <ele>51.090000000000003</ele>
        <time>2019-09-04T14:48:31Z</time>
      </trkpt>
      <trkpt lat="57.397236032411456" lon="-5.507929036393762">
        <ele>49.649999999999999</ele>
        <time>2019-09-04T14:48:32Z</time>
      </trkpt>
      <trkpt lat="57.397146010771394" lon="-5.507748993113637">
        <ele>48.200000000000003</ele>
        <time>2019-09-04T14:48:33Z</time>
      </trkpt>
      <trkpt lat="57.397068981081247" lon="-5.507551012560725">
        <ele>46.759999999999998</ele>
        <time>2019-09-04T14:48:34Z</time>
      </trkpt>
      <trkpt lat="57.397021958604455" lon="-5.507325036451221">
        <ele>45.32</ele>
        <time>2019-09-04T14:48:35Z</time>
      </trkpt>
      <trkpt lat="57.396973008289933" lon="-5.507094031199813">
        <ele>43.880000000000003</ele>
        <time>2019-09-04T14:48:36Z</time>
      </trkpt>
      <trkpt lat="57.39692397415638" lon="-5.506860008463264">
        <ele>42.439999999999998</ele>
        <time>2019-09-04T14:48:37Z</time>
      </trkpt>
      <trkpt lat="57.396892961114645" lon="-5.506621040403843">
        <ele>40.990000000000002</ele>
        <time>2019-09-04T14:48:38Z</time>
      </trkpt>
      <trkpt lat="57.396897990256548" lon="-5.506376959383488">
        <ele>39.549999999999997</ele>
        <time>2019-09-04T14:48:39Z</time>
      </trkpt>
      <trkpt lat="57.396903019398451" lon="-5.50614201463759">
        <ele>37.630000000000003</ele>
        <time>2019-09-04T14:48:40Z</time>
      </trkpt>
      <trkpt lat="57.396906958892941" lon="-5.505915032699704">
        <ele>36.189999999999998</ele>
        <time>2019-09-04T14:48:41Z</time>
      </trkpt>
      <trkpt lat="57.396910982206464" lon="-5.505698025226593">
        <ele>34.740000000000002</ele>
        <time>2019-09-04T14:48:42Z</time>
      </trkpt>
      <trkpt lat="57.396936966106296" lon="-5.505496021360159">
        <ele>33.299999999999997</ele>
        <time>2019-09-04T14:48:43Z</time>
      </trkpt>
      <trkpt lat="57.396978037431836" lon="-5.505301980301738">
        <ele>31.859999999999999</ele>
        <time>2019-09-04T14:48:44Z</time>
      </trkpt>
      <trkpt lat="57.397018019109964" lon="-5.505109028890729">
        <ele>29.940000000000001</ele>
        <time>2019-09-04T14:48:45Z</time>
      </trkpt>
      <trkpt lat="57.397531997412443" lon="-5.503250006586313">
        <ele>15.52</ele>
        <time>2019-09-04T14:48:54Z</time>
      </trkpt>
      <trkpt lat="57.397990990430117" lon="-5.501259975135326">
        <ele>7.35</ele>
        <time>2019-09-04T14:49:04Z</time>
      </trkpt>
      <trkpt lat="57.398342024534941" lon="-5.499145975336433">
        <ele>8.789999999999999</ele>
        <time>2019-09-04T14:49:15Z</time>
      </trkpt>
      <trkpt lat="57.398766987025738" lon="-5.496919993311167">
        <ele>9.27</ele>
        <time>2019-09-04T14:49:27Z</time>
      </trkpt>
      <trkpt lat="57.399263028055429" lon="-5.495000034570694">
        <ele>7.83</ele>
        <time>2019-09-04T14:49:37Z</time>
      </trkpt>
      <trkpt lat="57.399752028286457" lon="-5.492573976516724">
        <ele>5.91</ele>
        <time>2019-09-04T14:49:50Z</time>
      </trkpt>
      <trkpt lat="57.400316968560219" lon="-5.490945037454367">
        <ele>5.91</ele>
        <time>2019-09-04T14:50:00Z</time>
      </trkpt>
      <trkpt lat="57.400845028460026" lon="-5.48944903537631">
        <ele>6.87</ele>
        <time>2019-09-04T14:50:10Z</time>
      </trkpt>
      <trkpt lat="57.401087014004588" lon="-5.488511016592383">
        <ele>6.39</ele>
        <time>2019-09-04T14:50:16Z</time>
      </trkpt>
      <trkpt lat="57.401685984805226" lon="-5.486343037337065">
        <ele>7.35</ele>
        <time>2019-09-04T14:50:28Z</time>
      </trkpt>
      <trkpt lat="57.402374977245927" lon="-5.483523029834032">
        <ele>8.310000000000001</ele>
        <time>2019-09-04T14:50:42Z</time>
      </trkpt>
      <trkpt lat="57.402801029384136" lon="-5.481674987822771">
        <ele>7.35</ele>
        <time>2019-09-04T14:50:51Z</time>
      </trkpt>
      <trkpt lat="57.40287596359849" lon="-5.481495028361678">
        <ele>7.35</ele>
        <time>2019-09-04T14:50:52Z</time>
      </trkpt>
      <trkpt lat="57.402956010773778" lon="-5.481325965374708">
        <ele>7.83</ele>
        <time>2019-09-04T14:50:53Z</time>
      </trkpt>
      <trkpt lat="57.40304502658546" lon="-5.481172995641828">
        <ele>7.83</ele>
        <time>2019-09-04T14:50:54Z</time>
      </trkpt>
      <trkpt lat="57.40313395857811" lon="-5.481022037565708">
        <ele>7.83</ele>
        <time>2019-09-04T14:50:55Z</time>
      </trkpt>
      <trkpt lat="57.403237977996469" lon="-5.480903014540672">
        <ele>7.83</ele>
        <time>2019-09-04T14:50:56Z</time>
      </trkpt>
      <trkpt lat="57.404025960713625" lon="-5.480057029053569">
        <ele>7.35</ele>
        <time>2019-09-04T14:51:05Z</time>
      </trkpt>
      <trkpt lat="57.404567012563348" lon="-5.479613039642572">
        <ele>7.35</ele>
        <time>2019-09-04T14:51:14Z</time>
      </trkpt>
      <trkpt lat="57.405353989452124" lon="-5.479004010558128">
        <ele>5.91</ele>
        <time>2019-09-04T14:51:24Z</time>
      </trkpt>
      <trkpt lat="57.406366020441055" lon="-5.477943029254675">
        <ele>6.87</ele>
        <time>2019-09-04T14:51:34Z</time>
      </trkpt>
      <trkpt lat="57.407373022288084" lon="-5.477106012403965">
        <ele>9.27</ele>
        <time>2019-09-04T14:51:43Z</time>
      </trkpt>
      <trkpt lat="57.409227015450597" lon="-5.47604201361537">
        <ele>8.789999999999999</ele>
        <time>2019-09-04T14:51:59Z</time>
      </trkpt>
      <trkpt lat="57.410293025895953" lon="-5.47552602365613">
        <ele>8.789999999999999</ele>
        <time>2019-09-04T14:52:09Z</time>
      </trkpt>
      <trkpt lat="57.411393988877535" lon="-5.475332988426089">
        <ele>7.83</ele>
        <time>2019-09-04T14:52:19Z</time>
      </trkpt>
      <trkpt lat="57.41260701790452" lon="-5.474986983463168">
        <ele>7.35</ele>
        <time>2019-09-04T14:52:29Z</time>
      </trkpt>
      <trkpt lat="57.413833038881421" lon="-5.473932037129998">
        <ele>8.310000000000001</ele>
        <time>2019-09-04T14:52:40Z</time>
      </trkpt>
      <trkpt lat="57.415398024022579" lon="-5.47221802175045">
        <ele>7.83</ele>
        <time>2019-09-04T14:52:55Z</time>
      </trkpt>
      <trkpt lat="57.415651995688677" lon="-5.47193999402225">
        <ele>6.87</ele>
        <time>2019-09-04T14:53:00Z</time>
      </trkpt>
      <trkpt lat="57.415711004287004" lon="-5.471875034272671">
        <ele>6.39</ele>
        <time>2019-09-04T14:53:11Z</time>
      </trkpt>
      <trkpt lat="57.415933040902019" lon="-5.471631037071347">
        <ele>5.91</ele>
        <time>2019-09-04T14:53:30Z</time>
      </trkpt>
      <trkpt lat="57.416783971711993" lon="-5.470673991367221">
        <ele>5.91</ele>
        <time>2019-09-04T14:53:40Z</time>
      </trkpt>
      <trkpt lat="57.418012004345655" lon="-5.469086961820722">
        <ele>5.91</ele>
        <time>2019-09-04T14:53:51Z</time>
      </trkpt>
      <trkpt lat="57.418610975146294" lon="-5.468204012140632">
        <ele>5.91</ele>
        <time>2019-09-04T14:53:58Z</time>
      </trkpt>
      <trkpt lat="57.418712982907891" lon="-5.468053976073861">
        <ele>6.39</ele>
        <time>2019-09-04T14:54:00Z</time>
      </trkpt>
      <trkpt lat="57.419304996728897" lon="-5.467116963118315">
        <ele>6.39</ele>
        <time>2019-09-04T14:54:09Z</time>
      </trkpt>
      <trkpt lat="57.420043023303151" lon="-5.465887002646923">
        <ele>9.27</ele>
        <time>2019-09-04T14:54:19Z</time>
      </trkpt>
      <trkpt lat="57.420909963548183" lon="-5.464496025815606">
        <ele>11.19</ele>
        <time>2019-09-04T14:54:30Z</time>
      </trkpt>
      <trkpt lat="57.421421008184552" lon="-5.463679041713476">
        <ele>12.630000000000001</ele>
        <time>2019-09-04T14:54:37Z</time>
      </trkpt>
      <trkpt lat="57.421595016494393" lon="-5.463413000106812">
        <ele>13.6</ele>
        <time>2019-09-04T14:54:41Z</time>
      </trkpt>
      <trkpt lat="57.421634998172522" lon="-5.463351979851723">
        <ele>13.6</ele>
        <time>2019-09-04T14:54:42Z</time>
      </trkpt>
      <trkpt lat="57.421860974282026" lon="-5.463006980717182">
        <ele>14.08</ele>
        <time>2019-09-04T14:54:47Z</time>
      </trkpt>
      <trkpt lat="57.42193297483027" lon="-5.462897010147572">
        <ele>14.08</ele>
        <time>2019-09-04T14:54:48Z</time>
      </trkpt>
      <trkpt lat="57.422010004520416" lon="-5.462779998779297">
        <ele>13.6</ele>
        <time>2019-09-04T14:54:49Z</time>
      </trkpt>
      <trkpt lat="57.422940982505679" lon="-5.461406959220767">
        <ele>12.630000000000001</ele>
        <time>2019-09-04T14:55:00Z</time>
      </trkpt>
      <trkpt lat="57.424044962972403" lon="-5.459751030430198">
        <ele>11.67</ele>
        <time>2019-09-04T14:55:12Z</time>
      </trkpt>
      <trkpt lat="57.425076020881534" lon="-5.458184033632278">
        <ele>11.19</ele>
        <time>2019-09-04T14:55:21Z</time>
      </trkpt>
      <trkpt lat="57.426319979131222" lon="-5.4559569619596">
        <ele>11.19</ele>
        <time>2019-09-04T14:55:32Z</time>
      </trkpt>
      <trkpt lat="57.427729982882738" lon="-5.453488994389772">
        <ele>10.710000000000001</ele>
        <time>2019-09-04T14:55:43Z</time>
      </trkpt>
      <trkpt lat="57.42900000885129" lon="-5.451253959909082">
        <ele>10.710000000000001</ele>
        <time>2019-09-04T14:55:54Z</time>
      </trkpt>
      <trkpt lat="57.430503973737359" lon="-5.448607038706541">
        <ele>7.35</ele>
        <time>2019-09-04T14:56:08Z</time>
      </trkpt>
      <trkpt lat="57.43127703666687" lon="-5.44723198749125">
        <ele>7.83</ele>
        <time>2019-09-04T14:56:18Z</time>
      </trkpt>
      <trkpt lat="57.431413996964693" lon="-5.446967035531998">
        <ele>7.83</ele>
        <time>2019-09-04T14:56:21Z</time>
      </trkpt>
      <trkpt lat="57.43144802749157" lon="-5.446900986135006">
        <ele>7.83</ele>
        <time>2019-09-04T14:56:22Z</time>
      </trkpt>
      <trkpt lat="57.431464036926627" lon="-5.446799984201789">
        <ele>7.83</ele>
        <time>2019-09-04T14:56:23Z</time>
      </trkpt>
      <trkpt lat="57.431434029713273" lon="-5.44673795811832">
        <ele>7.83</ele>
        <time>2019-09-04T14:56:24Z</time>
      </trkpt>
      <trkpt lat="57.431393964216113" lon="-5.44665195979178">
        <ele>7.83</ele>
        <time>2019-09-04T14:56:25Z</time>
      </trkpt>
      <trkpt lat="57.431339984759688" lon="-5.446538971737027">
        <ele>7.83</ele>
        <time>2019-09-04T14:56:26Z</time>
      </trkpt>
      <trkpt lat="57.43127603083849" lon="-5.446405028924346">
        <ele>7.83</ele>
        <time>2019-09-04T14:56:27Z</time>
      </trkpt>
      <trkpt lat="57.430696003139019" lon="-5.445182025432587">
        <ele>7.83</ele>
        <time>2019-09-04T14:56:33Z</time>
      </trkpt>
      <trkpt lat="57.429334027692676" lon="-5.442316001281142">
        <ele>5.42</ele>
        <time>2019-09-04T14:56:45Z</time>
      </trkpt>
      <trkpt lat="57.42788597010076" lon="-5.439305976033211">
        <ele>4.94</ele>
        <time>2019-09-04T14:56:58Z</time>
      </trkpt>
      <trkpt lat="57.427222961559892" lon="-5.437995968386531">
        <ele>4.94</ele>
        <time>2019-09-04T14:57:05Z</time>
      </trkpt>
      <trkpt lat="57.42640002630651" lon="-5.436774976551533">
        <ele>4.46</ele>
        <time>2019-09-04T14:57:14Z</time>
      </trkpt>
      <trkpt lat="57.425698963925242" lon="-5.436052959412336">
        <ele>5.91</ele>
        <time>2019-09-04T14:57:21Z</time>
      </trkpt>
      <trkpt lat="57.424648962914944" lon="-5.434861974790692">
        <ele>4.94</ele>
        <time>2019-09-04T14:57:30Z</time>
      </trkpt>
      <trkpt lat="57.423550011590123" lon="-5.433119963854551">
        <ele>4.46</ele>
        <time>2019-09-04T14:57:39Z</time>
      </trkpt>
      <trkpt lat="57.423255974426866" lon="-5.432531973347068">
        <ele>4.94</ele>
        <time>2019-09-04T14:57:42Z</time>
      </trkpt>
      <trkpt lat="57.422736966982484" lon="-5.430806977674365">
        <ele>6.87</ele>
        <time>2019-09-04T14:57:51Z</time>
      </trkpt>
      <trkpt lat="57.42253496311605" lon="-5.429796036332846">
        <ele>7.35</ele>
        <time>2019-09-04T14:57:57Z</time>
      </trkpt>
      <trkpt lat="57.422431027516723" lon="-5.42942002415657">
        <ele>8.310000000000001</ele>
        <time>2019-09-04T14:58:00Z</time>
      </trkpt>
      <trkpt lat="57.422404959797859" lon="-5.429327990859747">
        <ele>8.310000000000001</ele>
        <time>2019-09-04T14:58:01Z</time>
      </trkpt>
      <trkpt lat="57.422369001433253" lon="-5.429224977269769">
        <ele>8.789999999999999</ele>
        <time>2019-09-04T14:58:02Z</time>
      </trkpt>
      <trkpt lat="57.422334970906377" lon="-5.429131016135216">
        <ele>8.789999999999999</ele>
        <time>2019-09-04T14:58:03Z</time>
      </trkpt>
      <trkpt lat="57.422303035855293" lon="-5.429039988666773">
        <ele>9.27</ele>
        <time>2019-09-04T14:58:04Z</time>
      </trkpt>
      <trkpt lat="57.422275962308049" lon="-5.428962958976626">
        <ele>9.75</ele>
        <time>2019-09-04T14:58:05Z</time>
      </trkpt>
      <trkpt lat="57.422204967588186" lon="-5.428891964256764">
        <ele>9.75</ele>
        <time>2019-09-04T14:58:06Z</time>
      </trkpt>
      <trkpt lat="57.422136990353465" lon="-5.428823987022042">
        <ele>9.75</ele>
        <time>2019-09-04T14:58:07Z</time>
      </trkpt>
      <trkpt lat="57.422050992026925" lon="-5.428794985637069">
        <ele>9.75</ele>
        <time>2019-09-04T14:58:08Z</time>
      </trkpt>
      <trkpt lat="57.421947978436947" lon="-5.428802026435733">
        <ele>9.27</ele>
        <time>2019-09-04T14:58:09Z</time>
      </trkpt>
      <trkpt lat="57.421300979331136" lon="-5.428829016163945">
        <ele>9.75</ele>
        <time>2019-09-04T14:58:14Z</time>
      </trkpt>
      <trkpt lat="57.421170976012945" lon="-5.428878972306848">
        <ele>9.75</ele>
        <time>2019-09-04T14:58:15Z</time>
      </trkpt>
      <trkpt lat="57.421044996008277" lon="-5.428954996168613">
        <ele>9.75</ele>
        <time>2019-09-04T14:58:16Z</time>
      </trkpt>
      <trkpt lat="57.420932007953525" lon="-5.429087011143565">
        <ele>10.23</ele>
        <time>2019-09-04T14:58:17Z</time>
      </trkpt>
      <trkpt lat="57.420818014070392" lon="-5.429230006411672">
        <ele>10.23</ele>
        <time>2019-09-04T14:58:18Z</time>
      </trkpt>
      <trkpt lat="57.420713994652033" lon="-5.429381970316172">
        <ele>10.23</ele>
        <time>2019-09-04T14:58:19Z</time>
      </trkpt>
      <trkpt lat="57.420613998547196" lon="-5.429547009989619">
        <ele>10.23</ele>
        <time>2019-09-04T14:58:20Z</time>
      </trkpt>
      <trkpt lat="57.420516014099121" lon="-5.429708026349545">
        <ele>10.23</ele>
        <time>2019-09-04T14:58:21Z</time>
      </trkpt>
      <trkpt lat="57.420252989977598" lon="-5.430139023810625">
        <ele>10.23</ele>
        <time>2019-09-04T14:58:24Z</time>
      </trkpt>
      <trkpt lat="57.420153999701142" lon="-5.43021303601563">
        <ele>10.23</ele>
        <time>2019-09-04T14:58:25Z</time>
      </trkpt>
      <trkpt lat="57.420052997767925" lon="-5.430271960794926">
        <ele>10.710000000000001</ele>
        <time>2019-09-04T14:58:26Z</time>
      </trkpt>
      <trkpt lat="57.418588008731604" lon="-5.431048041209579">
        <ele>10.710000000000001</ele>
        <time>2019-09-04T14:58:39Z</time>
      </trkpt>
      <trkpt lat="57.416771985590458" lon="-5.432068035006523">
        <ele>5.91</ele>
        <time>2019-09-04T14:58:52Z</time>
      </trkpt>
      <trkpt lat="57.415588963776827" lon="-5.433612987399101">
        <ele>4.46</ele>
        <time>2019-09-04T14:59:01Z</time>
      </trkpt>
      <trkpt lat="57.414741972461343" lon="-5.435971990227699">
        <ele>4.46</ele>
        <time>2019-09-04T14:59:10Z</time>
      </trkpt>
      <trkpt lat="57.413801020011306" lon="-5.438985032960773">
        <ele>3.98</ele>
        <time>2019-09-04T14:59:20Z</time>
      </trkpt>
      <trkpt lat="57.412498975172639" lon="-5.44108796864748">
        <ele>3.5</ele>
        <time>2019-09-04T14:59:29Z</time>
      </trkpt>
      <trkpt lat="57.411427013576031" lon="-5.442696958780289">
        <ele>3.98</ele>
        <time>2019-09-04T14:59:37Z</time>
      </trkpt>
      <trkpt lat="57.411285024136305" lon="-5.442822016775608">
        <ele>4.46</ele>
        <time>2019-09-04T14:59:38Z</time>
      </trkpt>
      <trkpt lat="57.4100730009377" lon="-5.443675965070725">
        <ele>5.91</ele>
        <time>2019-09-04T14:59:46Z</time>
      </trkpt>
      <trkpt lat="57.408857038244605" lon="-5.444600991904736">
        <ele>6.87</ele>
        <time>2019-09-04T14:59:55Z</time>
      </trkpt>
      <trkpt lat="57.408717982470989" lon="-5.444742981344461">
        <ele>6.87</ele>
        <time>2019-09-04T14:59:56Z</time>
      </trkpt>
      <trkpt lat="57.407756997272372" lon="-5.446271002292633">
        <ele>6.39</ele>
        <time>2019-09-04T15:00:03Z</time>
      </trkpt>
      <trkpt lat="57.407264979556203" lon="-5.447384035214782">
        <ele>8.310000000000001</ele>
        <time>2019-09-04T15:00:08Z</time>
      </trkpt>
      <trkpt lat="57.407190967351198" lon="-5.447501968592405">
        <ele>8.789999999999999</ele>
        <time>2019-09-04T15:00:09Z</time>
      </trkpt>
      <trkpt lat="57.407045038416982" lon="-5.447606993839145">
        <ele>9.27</ele>
        <time>2019-09-04T15:00:10Z</time>
      </trkpt>
      <trkpt lat="57.406934984028339" lon="-5.447685029357672">
        <ele>9.75</ele>
        <time>2019-09-04T15:00:11Z</time>
      </trkpt>
      <trkpt lat="57.406834987923503" lon="-5.447728028520942">
        <ele>10.23</ele>
        <time>2019-09-04T15:00:12Z</time>
      </trkpt>
      <trkpt lat="57.406726023182273" lon="-5.447749989107251">
        <ele>11.19</ele>
        <time>2019-09-04T15:00:13Z</time>
      </trkpt>
      <trkpt lat="57.406610017642379" lon="-5.447745965793729">
        <ele>12.15</ele>
        <time>2019-09-04T15:00:14Z</time>
      </trkpt>
      <trkpt lat="57.40564601495862" lon="-5.447568017989397">
        <ele>24.649999999999999</ele>
        <time>2019-09-04T15:00:21Z</time>
      </trkpt>
      <trkpt lat="57.404001988470554" lon="-5.447634989395738">
        <ele>50.130000000000003</ele>
        <time>2019-09-04T15:00:31Z</time>
      </trkpt>
      <trkpt lat="57.402748977765441" lon="-5.448165982961655">
        <ele>69.829999999999998</ele>
        <time>2019-09-04T15:00:40Z</time>
      </trkpt>
      <trkpt lat="57.402635989710689" lon="-5.448161037638784">
        <ele>71.269999999999996</ele>
        <time>2019-09-04T15:00:41Z</time>
      </trkpt>
      <trkpt lat="57.402529958635569" lon="-5.448157014325261">
        <ele>72.239999999999995</ele>
        <time>2019-09-04T15:00:42Z</time>
      </trkpt>
      <trkpt lat="57.4024230055511" lon="-5.448152991011739">
        <ele>72.719999999999999</ele>
        <time>2019-09-04T15:00:43Z</time>
      </trkpt>
      <trkpt lat="57.40231798030436" lon="-5.448148967698216">
        <ele>73.200000000000003</ele>
        <time>2019-09-04T15:00:44Z</time>
      </trkpt>
      <trkpt lat="57.402223013341427" lon="-5.448176041245461">
        <ele>73.200000000000003</ele>
        <time>2019-09-04T15:00:45Z</time>
      </trkpt>
      <trkpt lat="57.402140032500029" lon="-5.448249969631434">
        <ele>73.200000000000003</ele>
        <time>2019-09-04T15:00:46Z</time>
      </trkpt>
      <trkpt lat="57.402049005031586" lon="-5.448333034291863">
        <ele>73.680000000000007</ele>
        <time>2019-09-04T15:00:47Z</time>
      </trkpt>
      <trkpt lat="57.401963006705046" lon="-5.448463959619403">
        <ele>73.680000000000007</ele>
        <time>2019-09-04T15:00:48Z</time>
      </trkpt>
      <trkpt lat="57.401866028085351" lon="-5.448616007342935">
        <ele>74.159999999999997</ele>
        <time>2019-09-04T15:00:49Z</time>
      </trkpt>
      <trkpt lat="57.401783969253302" lon="-5.448747016489506">
        <ele>74.640000000000001</ele>
        <time>2019-09-04T15:00:50Z</time>
      </trkpt>
      <trkpt lat="57.401724038645625" lon="-5.448973998427391">
        <ele>74.640000000000001</ele>
        <time>2019-09-04T15:00:51Z</time>
      </trkpt>
      <trkpt lat="57.401670981198549" lon="-5.449176002293825">
        <ele>75.599999999999994</ele>
        <time>2019-09-04T15:00:52Z</time>
      </trkpt>
      <trkpt lat="57.401621025055647" lon="-5.449366020038724">
        <ele>76.079999999999998</ele>
        <time>2019-09-04T15:00:53Z</time>
      </trkpt>
      <trkpt lat="57.401167983189225" lon="-5.450808964669704">
        <ele>75.120000000000005</ele>
        <time>2019-09-04T15:01:00Z</time>
      </trkpt>
      <trkpt lat="57.400536993518472" lon="-5.452481992542744">
        <ele>67.430000000000007</ele>
        <time>2019-09-04T15:01:09Z</time>
      </trkpt>
      <trkpt lat="57.399816988036036" lon="-5.453913034871221">
        <ele>60.700000000000003</ele>
        <time>2019-09-04T15:01:17Z</time>
      </trkpt>
      <trkpt lat="57.399723026901484" lon="-5.454023005440831">
        <ele>59.259999999999998</ele>
        <time>2019-09-04T15:01:18Z</time>
      </trkpt>
      <trkpt lat="57.399615989997983" lon="-5.454085031524301">
        <ele>57.82</ele>
        <time>2019-09-04T15:01:19Z</time>
      </trkpt>
      <trkpt lat="57.399496966972947" lon="-5.454138005152345">
        <ele>56.369999999999997</ele>
        <time>2019-09-04T15:01:20Z</time>
      </trkpt>
      <trkpt lat="57.399366963654757" lon="-5.454195002093911">
        <ele>54.450000000000003</ele>
        <time>2019-09-04T15:01:21Z</time>
      </trkpt>
      <trkpt lat="57.397774988785386" lon="-5.454922970384359">
        <ele>33.299999999999997</ele>
        <time>2019-09-04T15:01:32Z</time>
      </trkpt>
      <trkpt lat="57.397654037922621" lon="-5.455044005066156">
        <ele>31.379999999999999</ele>
        <time>2019-09-04T15:01:33Z</time>
      </trkpt>
      <trkpt lat="57.397539960220456" lon="-5.455167973414064">
        <ele>29.460000000000001</ele>
        <time>2019-09-04T15:01:34Z</time>
      </trkpt>
      <trkpt lat="57.397441975772381" lon="-5.455324966460466">
        <ele>27.530000000000001</ele>
        <time>2019-09-04T15:01:35Z</time>
      </trkpt>
      <trkpt lat="57.397344997152686" lon="-5.455479025840759">
        <ele>25.129999999999999</ele>
        <time>2019-09-04T15:01:36Z</time>
      </trkpt>
      <trkpt lat="57.397241983562708" lon="-5.455594025552273">
        <ele>23.210000000000001</ele>
        <time>2019-09-04T15:01:37Z</time>
      </trkpt>
      <trkpt lat="57.39713896997273" lon="-5.455705001950264">
        <ele>20.809999999999999</ele>
        <time>2019-09-04T15:01:38Z</time>
      </trkpt>
      <trkpt lat="57.397027993574739" lon="-5.455780019983649">
        <ele>18.879999999999999</ele>
        <time>2019-09-04T15:01:39Z</time>
      </trkpt>
      <trkpt lat="57.396786008030176" lon="-5.455849003046751">
        <ele>15.039999999999999</ele>
        <time>2019-09-04T15:01:41Z</time>
      </trkpt>
      <trkpt lat="57.39666698500514" lon="-5.455883033573628">
        <ele>13.119999999999999</ele>
        <time>2019-09-04T15:01:42Z</time>
      </trkpt>
      <trkpt lat="57.396548967808485" lon="-5.455852020531893">
        <ele>10.710000000000001</ele>
        <time>2019-09-04T15:01:43Z</time>
      </trkpt>
      <trkpt lat="57.396418964490294" lon="-5.455789994448423">
        <ele>8.789999999999999</ele>
        <time>2019-09-04T15:01:44Z</time>
      </trkpt>
      <trkpt lat="57.396275969222188" lon="-5.455722017213702">
        <ele>6.87</ele>
        <time>2019-09-04T15:01:45Z</time>
      </trkpt>
      <trkpt lat="57.396125011146069" lon="-5.455650016665459">
        <ele>5.42</ele>
        <time>2019-09-04T15:01:46Z</time>
      </trkpt>
      <trkpt lat="57.394671002402902" lon="-5.455133020877838">
        <ele>-1.3</ele>
        <time>2019-09-04T15:01:55Z</time>
      </trkpt>
      <trkpt lat="57.393285976722836" lon="-5.455169985070825">
        <ele>-1.79</ele>
        <time>2019-09-04T15:02:03Z</time>
      </trkpt>
      <trkpt lat="57.391902040690184" lon="-5.455705001950264">
        <ele>-0.82</ele>
        <time>2019-09-04T15:02:11Z</time>
      </trkpt>
      <trkpt lat="57.39088699221611" lon="-5.456572026014328">
        <ele>1.1</ele>
        <time>2019-09-04T15:02:18Z</time>
      </trkpt>
      <trkpt lat="57.389085972681642" lon="-5.458314958959818">
        <ele>6.39</ele>
        <time>2019-09-04T15:02:28Z</time>
      </trkpt>
      <trkpt lat="57.388205034658313" lon="-5.459465961903334">
        <ele>13.6</ele>
        <time>2019-09-04T15:02:34Z</time>
      </trkpt>
      <trkpt lat="57.388109983876348" lon="-5.459751030430198">
        <ele>15.039999999999999</ele>
        <time>2019-09-04T15:02:35Z</time>
      </trkpt>
      <trkpt lat="57.387581001967192" lon="-5.461748018860817">
        <ele>23.690000000000001</ele>
        <time>2019-09-04T15:02:42Z</time>
      </trkpt>
      <trkpt lat="57.386978007853031" lon="-5.463869981467724">
        <ele>28.98</ele>
        <time>2019-09-04T15:02:51Z</time>
      </trkpt>
      <trkpt lat="57.385946027934551" lon="-5.466601978987455">
        <ele>22.73</ele>
        <time>2019-09-04T15:03:02Z</time>
      </trkpt>
      <trkpt lat="57.385491980239749" lon="-5.468407021835446">
        <ele>21.77</ele>
        <time>2019-09-04T15:03:09Z</time>
      </trkpt>
      <trkpt lat="57.385425008833408" lon="-5.468619000166655">
        <ele>21.289999999999999</ele>
        <time>2019-09-04T15:03:10Z</time>
      </trkpt>
      <trkpt lat="57.384466035291553" lon="-5.469988016411662">
        <ele>15.52</ele>
        <time>2019-09-04T15:03:18Z</time>
      </trkpt>
      <trkpt lat="57.383091989904642" lon="-5.47150899656117">
        <ele>9.75</ele>
        <time>2019-09-04T15:03:28Z</time>
      </trkpt>
      <trkpt lat="57.382468963041902" lon="-5.472494037821889">
        <ele>8.310000000000001</ele>
        <time>2019-09-04T15:03:35Z</time>
      </trkpt>
      <trkpt lat="57.382428981363773" lon="-5.472565032541752">
        <ele>8.310000000000001</ele>
        <time>2019-09-04T15:03:36Z</time>
      </trkpt>
      <trkpt lat="57.382353963330388" lon="-5.472724959254265">
        <ele>8.310000000000001</ele>
        <time>2019-09-04T15:03:37Z</time>
      </trkpt>
      <trkpt lat="57.382290009409189" lon="-5.472860997542739">
        <ele>8.310000000000001</ele>
        <time>2019-09-04T15:03:38Z</time>
      </trkpt>
      <trkpt lat="57.382229994982481" lon="-5.473006004467607">
        <ele>8.310000000000001</ele>
        <time>2019-09-04T15:03:39Z</time>
      </trkpt>
      <trkpt lat="57.382169980555773" lon="-5.473174983635545">
        <ele>8.310000000000001</ele>
        <time>2019-09-04T15:03:40Z</time>
      </trkpt>
      <trkpt lat="57.381510995328426" lon="-5.475106006488204">
        <ele>7.83</ele>
        <time>2019-09-04T15:03:49Z</time>
      </trkpt>
      <trkpt lat="57.380912024527788" lon="-5.477234004065394">
        <ele>5.91</ele>
        <time>2019-09-04T15:03:59Z</time>
      </trkpt>
      <trkpt lat="57.380083976313472" lon="-5.479066036641598">
        <ele>8.789999999999999</ele>
        <time>2019-09-04T15:04:09Z</time>
      </trkpt>
      <trkpt lat="57.379364976659417" lon="-5.480866972357035">
        <ele>9.75</ele>
        <time>2019-09-04T15:04:17Z</time>
      </trkpt>
      <trkpt lat="57.379040010273457" lon="-5.481571974232793">
        <ele>9.27</ele>
        <time>2019-09-04T15:04:21Z</time>
      </trkpt>
      <trkpt lat="57.37896298058331" lon="-5.481678005307913">
        <ele>9.27</ele>
        <time>2019-09-04T15:04:22Z</time>
      </trkpt>
      <trkpt lat="57.378809005022049" lon="-5.481891995295882">
        <ele>8.310000000000001</ele>
        <time>2019-09-04T15:04:26Z</time>
      </trkpt>
      <trkpt lat="57.37876701168716" lon="-5.48195100389421">
        <ele>8.310000000000001</ele>
        <time>2019-09-04T15:04:27Z</time>
      </trkpt>
      <trkpt lat="57.378244986757636" lon="-5.482543017715216">
        <ele>7.83</ele>
        <time>2019-09-04T15:04:34Z</time>
      </trkpt>
      <trkpt lat="57.377594970166683" lon="-5.483516994863749">
        <ele>7.35</ele>
        <time>2019-09-04T15:04:42Z</time>
      </trkpt>
      <trkpt lat="57.377515006810427" lon="-5.483665019273758">
        <ele>7.35</ele>
        <time>2019-09-04T15:04:43Z</time>
      </trkpt>
      <trkpt lat="57.3774369712919" lon="-5.48384003341198">
        <ele>7.83</ele>
        <time>2019-09-04T15:04:44Z</time>
      </trkpt>
      <trkpt lat="57.376495013013482" lon="-5.486037014052272">
        <ele>9.75</ele>
        <time>2019-09-04T15:04:55Z</time>
      </trkpt>
      <trkpt lat="57.376345982775092" lon="-5.486464994028211">
        <ele>9.75</ele>
        <time>2019-09-04T15:04:57Z</time>
      </trkpt>
      <trkpt lat="57.376284962520003" lon="-5.486701028421521">
        <ele>9.75</ele>
        <time>2019-09-04T15:04:58Z</time>
      </trkpt>
      <trkpt lat="57.375728990882635" lon="-5.488933967426419">
        <ele>12.15</ele>
        <time>2019-09-04T15:05:08Z</time>
      </trkpt>
      <trkpt lat="57.375298999249935" lon="-5.490532983094454">
        <ele>13.119999999999999</ele>
        <time>2019-09-04T15:05:17Z</time>
      </trkpt>
      <trkpt lat="57.375187017023563" lon="-5.490946965292096">
        <ele>13.119999999999999</ele>
        <time>2019-09-04T15:05:19Z</time>
      </trkpt>
      <trkpt lat="57.375156003981829" lon="-5.491175036877394">
        <ele>13.119999999999999</ele>
        <time>2019-09-04T15:05:20Z</time>
      </trkpt>
      <trkpt lat="57.375123985111713" lon="-5.491408975794911">
        <ele>13.119999999999999</ele>
        <time>2019-09-04T15:05:21Z</time>
      </trkpt>
      <trkpt lat="57.37477102316916" lon="-5.493732020258904">
        <ele>10.710000000000001</ele>
        <time>2019-09-04T15:05:30Z</time>
      </trkpt>
      <trkpt lat="57.374558039009571" lon="-5.494333002716303">
        <ele>9.75</ele>
        <time>2019-09-04T15:05:33Z</time>
      </trkpt>
      <trkpt lat="57.374460976570845" lon="-5.494501981884241">
        <ele>9.75</ele>
        <time>2019-09-04T15:05:34Z</time>
      </trkpt>
      <trkpt lat="57.373506026342511" lon="-5.495845014229417">
        <ele>8.310000000000001</ele>
        <time>2019-09-04T15:05:43Z</time>
      </trkpt>
      <trkpt lat="57.372680995613337" lon="-5.49703499302268">
        <ele>8.789999999999999</ele>
        <time>2019-09-04T15:05:50Z</time>
      </trkpt>
      <trkpt lat="57.372132986783981" lon="-5.497945016250014">
        <ele>9.27</ele>
        <time>2019-09-04T15:05:55Z</time>
      </trkpt>
      <trkpt lat="57.372030979022384" lon="-5.498113995417953">
        <ele>9.27</ele>
        <time>2019-09-04T15:05:56Z</time>
      </trkpt>
      <trkpt lat="57.370887016877532" lon="-5.499576972797513">
        <ele>11.19</ele>
        <time>2019-09-04T15:06:06Z</time>
      </trkpt>
      <trkpt lat="57.369523029774427" lon="-5.500522032380104">
        <ele>11.67</ele>
        <time>2019-09-04T15:06:16Z</time>
      </trkpt>
      <trkpt lat="57.368285022675991" lon="-5.501927006989718">
        <ele>10.710000000000001</ele>
        <time>2019-09-04T15:06:25Z</time>
      </trkpt>
      <trkpt lat="57.367153968662024" lon="-5.503514036536217">
        <ele>7.83</ele>
        <time>2019-09-04T15:06:34Z</time>
      </trkpt>
      <trkpt lat="57.366435974836349" lon="-5.504087023437023">
        <ele>7.35</ele>
        <time>2019-09-04T15:06:41Z</time>
      </trkpt>
      <trkpt lat="57.365581020712852" lon="-5.504742991179228">
        <ele>5.91</ele>
        <time>2019-09-04T15:06:49Z</time>
      </trkpt>
      <trkpt lat="57.364745009690523" lon="-5.505919978022575">
        <ele>4.46</ele>
        <time>2019-09-04T15:06:56Z</time>
      </trkpt>
      <trkpt lat="57.364292973652482" lon="-5.506832012906671">
        <ele>4.46</ele>
        <time>2019-09-04T15:07:01Z</time>
      </trkpt>
      <trkpt lat="57.364217033609748" lon="-5.506983976811171">
        <ele>4.94</ele>
        <time>2019-09-04T15:07:02Z</time>
      </trkpt>
      <trkpt lat="57.36351303756237" lon="-5.508281998336315">
        <ele>6.87</ele>
        <time>2019-09-04T15:07:13Z</time>
      </trkpt>
      <trkpt lat="57.363473977893591" lon="-5.508333966135979">
        <ele>6.87</ele>
        <time>2019-09-04T15:07:14Z</time>
      </trkpt>
      <trkpt lat="57.363437013700604" lon="-5.508384006097913">
        <ele>7.35</ele>
        <time>2019-09-04T15:07:15Z</time>
      </trkpt>
      <trkpt lat="57.36295597627759" lon="-5.508922962471843">
        <ele>10.710000000000001</ele>
        <time>2019-09-04T15:07:23Z</time>
      </trkpt>
      <trkpt lat="57.362738968804479" lon="-5.509114991873503">
        <ele>13.6</ele>
        <time>2019-09-04T15:07:26Z</time>
      </trkpt>
      <trkpt lat="57.362664034590125" lon="-5.509160002693534">
        <ele>14.56</ele>
        <time>2019-09-04T15:07:27Z</time>
      </trkpt>
      <trkpt lat="57.362584993243217" lon="-5.509208030998707">
        <ele>15.52</ele>
        <time>2019-09-04T15:07:28Z</time>
      </trkpt>
      <trkpt lat="57.361903041601181" lon="-5.509748999029398">
        <ele>23.210000000000001</ele>
        <time>2019-09-04T15:07:37Z</time>
      </trkpt>
      <trkpt lat="57.361835986375809" lon="-5.509855030104518">
        <ele>24.170000000000002</ele>
        <time>2019-09-04T15:07:38Z</time>
      </trkpt>
      <trkpt lat="57.361658038571477" lon="-5.510136997327209">
        <ele>25.609999999999999</ele>
        <time>2019-09-04T15:07:40Z</time>
      </trkpt>
      <trkpt lat="57.361590983346105" lon="-5.51028803922236">
        <ele>26.57</ele>
        <time>2019-09-04T15:07:41Z</time>
      </trkpt>
      <trkpt lat="57.361517976969481" lon="-5.510451989248395">
        <ele>27.530000000000001</ele>
        <time>2019-09-04T15:07:42Z</time>
      </trkpt>
      <trkpt lat="57.361122015863657" lon="-5.511338962242007">
        <ele>32.82</ele>
        <time>2019-09-04T15:07:48Z</time>
      </trkpt>
      <trkpt lat="57.361045992001891" lon="-5.511465026065707">
        <ele>34.259999999999998</ele>
        <time>2019-09-04T15:07:49Z</time>
      </trkpt>
      <trkpt lat="57.360963011160493" lon="-5.511602992191911">
        <ele>35.229999999999997</ele>
        <time>2019-09-04T15:07:50Z</time>
      </trkpt>
      <trkpt lat="57.360701998695731" lon="-5.512039018794894">
        <ele>38.590000000000003</ele>
        <time>2019-09-04T15:07:53Z</time>
      </trkpt>
      <trkpt lat="57.360543999820948" lon="-5.512399021536112">
        <ele>41.469999999999999</ele>
        <time>2019-09-04T15:07:55Z</time>
      </trkpt>
      <trkpt lat="57.360394969582558" lon="-5.513039985671639">
        <ele>46.759999999999998</ele>
        <time>2019-09-04T15:07:58Z</time>
      </trkpt>
      <trkpt lat="57.360349036753178" lon="-5.513254981487989">
        <ele>48.200000000000003</ele>
        <time>2019-09-04T15:07:59Z</time>
      </trkpt>
      <trkpt lat="57.360091963782907" lon="-5.514449989423156">
        <ele>57.82</ele>
        <time>2019-09-04T15:08:06Z</time>
      </trkpt>
      <trkpt lat="57.360018035396934" lon="-5.514617962762713">
        <ele>58.780000000000001</ele>
        <time>2019-09-04T15:08:07Z</time>
      </trkpt>
      <trkpt lat="57.359958020970225" lon="-5.514755006879568">
        <ele>59.740000000000002</ele>
        <time>2019-09-04T15:08:08Z</time>
      </trkpt>
      <trkpt lat="57.359659960493445" lon="-5.515325982123613">
        <ele>64.069999999999993</ele>
        <time>2019-09-04T15:08:12Z</time>
      </trkpt>
      <trkpt lat="57.359570022672415" lon="-5.515454979613423">
        <ele>65.030000000000001</ele>
        <time>2019-09-04T15:08:13Z</time>
      </trkpt>
      <trkpt lat="57.359486036002636" lon="-5.515577020123601">
        <ele>65.989999999999995</ele>
        <time>2019-09-04T15:08:14Z</time>
      </trkpt>
      <trkpt lat="57.359408000484109" lon="-5.515689002349973">
        <ele>66.950000000000003</ele>
        <time>2019-09-04T15:08:15Z</time>
      </trkpt>
      <trkpt lat="57.359330970793962" lon="-5.515799978747964">
        <ele>67.430000000000007</ele>
        <time>2019-09-04T15:08:16Z</time>
      </trkpt>
      <trkpt lat="57.359255030751228" lon="-5.515909027308226">
        <ele>68.390000000000001</ele>
        <time>2019-09-04T15:08:17Z</time>
      </trkpt>
      <trkpt lat="57.359200967475772" lon="-5.516097033396363">
        <ele>69.349999999999994</ele>
        <time>2019-09-04T15:08:18Z</time>
      </trkpt>
      <trkpt lat="57.359145982190967" lon="-5.516287973150611">
        <ele>70.310000000000002</ele>
        <time>2019-09-04T15:08:19Z</time>
      </trkpt>
      <trkpt lat="57.359086973592639" lon="-5.516490982845426">
        <ele>71.269999999999996</ele>
        <time>2019-09-04T15:08:20Z</time>
      </trkpt>
      <trkpt lat="57.359028970822692" lon="-5.51669399254024">
        <ele>71.760000000000005</ele>
        <time>2019-09-04T15:08:21Z</time>
      </trkpt>
      <trkpt lat="57.358911037445068" lon="-5.51707997918129">
        <ele>73.200000000000003</ele>
        <time>2019-09-04T15:08:23Z</time>
      </trkpt>
      <trkpt lat="57.35885001718998" lon="-5.517234038561583">
        <ele>74.159999999999997</ele>
        <time>2019-09-04T15:08:24Z</time>
      </trkpt>
      <trkpt lat="57.358788996934891" lon="-5.517364963889122">
        <ele>74.640000000000001</ele>
        <time>2019-09-04T15:08:25Z</time>
      </trkpt>
      <trkpt lat="57.358702998608351" lon="-5.517463032156229">
        <ele>75.599999999999994</ele>
        <time>2019-09-04T15:08:26Z</time>
      </trkpt>
      <trkpt lat="57.358611971139908" lon="-5.517566967755556">
        <ele>76.560000000000002</ele>
        <time>2019-09-04T15:08:27Z</time>
      </trkpt>
      <trkpt lat="57.358514992520213" lon="-5.517678027972579">
        <ele>77.519999999999996</ele>
        <time>2019-09-04T15:08:28Z</time>
      </trkpt>
      <trkpt lat="57.358196983113885" lon="-5.518044987693429">
        <ele>79.450000000000003</ele>
        <time>2019-09-04T15:08:31Z</time>
      </trkpt>
      <trkpt lat="57.358106961473823" lon="-5.518198041245341">
        <ele>79.930000000000007</ele>
        <time>2019-09-04T15:08:32Z</time>
      </trkpt>
      <trkpt lat="57.357774032279849" lon="-5.518762981519103">
        <ele>82.810000000000002</ele>
        <time>2019-09-04T15:08:36Z</time>
      </trkpt>
      <trkpt lat="57.357683004811406" lon="-5.518843028694391">
        <ele>84.25</ele>
        <time>2019-09-04T15:08:37Z</time>
      </trkpt>
      <trkpt lat="57.357492987066507" lon="-5.519008990377188">
        <ele>85.209999999999994</ele>
        <time>2019-09-04T15:08:39Z</time>
      </trkpt>
      <trkpt lat="57.357188975438476" lon="-5.519275031983852">
        <ele>86.659999999999997</ele>
        <time>2019-09-04T15:08:42Z</time>
      </trkpt>
      <trkpt lat="57.357087973505259" lon="-5.519363963976502">
        <ele>86.659999999999997</ele>
        <time>2019-09-04T15:08:43Z</time>
      </trkpt>
      <trkpt lat="57.356999041512609" lon="-5.519523974508047">
        <ele>87.140000000000001</ele>
        <time>2019-09-04T15:08:44Z</time>
      </trkpt>
      <trkpt lat="57.356399986892939" lon="-5.520428968593478">
        <ele>89.540000000000006</ele>
        <time>2019-09-04T15:08:51Z</time>
      </trkpt>
      <trkpt lat="57.355804033577442" lon="-5.521092982962728">
        <ele>89.060000000000002</ele>
        <time>2019-09-04T15:08:58Z</time>
      </trkpt>
      <trkpt lat="57.355441013351083" lon="-5.521775018423796">
        <ele>90.019999999999996</ele>
        <time>2019-09-04T15:09:03Z</time>
      </trkpt>
      <trkpt lat="57.35537001863122" lon="-5.521908039227128">
        <ele>90.019999999999996</ele>
        <time>2019-09-04T15:09:04Z</time>
      </trkpt>
      <trkpt lat="57.35528502613306" lon="-5.522067965939641">
        <ele>90.019999999999996</ele>
        <time>2019-09-04T15:09:05Z</time>
      </trkpt>
      <trkpt lat="57.355247978121042" lon="-5.522167040035129">
        <ele>90.5</ele>
        <time>2019-09-04T15:09:06Z</time>
      </trkpt>
      <trkpt lat="57.355195004492998" lon="-5.522308023646474">
        <ele>90.5</ele>
        <time>2019-09-04T15:09:07Z</time>
      </trkpt>
      <trkpt lat="57.355144964531064" lon="-5.522471973672509">
        <ele>90.980000000000004</ele>
        <time>2019-09-04T15:09:08Z</time>
      </trkpt>
      <trkpt lat="57.355110011994839" lon="-5.522652016952634">
        <ele>91.459999999999994</ele>
        <time>2019-09-04T15:09:09Z</time>
      </trkpt>
      <trkpt lat="57.355072963982821" lon="-5.52283700555563">
        <ele>91.939999999999998</ele>
        <time>2019-09-04T15:09:10Z</time>
      </trkpt>
      <trkpt lat="57.354859979823232" lon="-5.523681985214353">
        <ele>94.829999999999998</ele>
        <time>2019-09-04T15:09:15Z</time>
      </trkpt>
      <trkpt lat="57.35481102950871" lon="-5.523818023502827">
        <ele>95.310000000000002</ele>
        <time>2019-09-04T15:09:16Z</time>
      </trkpt>
      <trkpt lat="57.354744980111718" lon="-5.523925982415676">
        <ele>95.310000000000002</ele>
        <time>2019-09-04T15:09:17Z</time>
      </trkpt>
      <trkpt lat="57.354666022583842" lon="-5.524022039026022">
        <ele>95.790000000000006</ele>
        <time>2019-09-04T15:09:18Z</time>
      </trkpt>
      <trkpt lat="57.354577006772161" lon="-5.52412798628211">
        <ele>95.790000000000006</ele>
        <time>2019-09-04T15:09:19Z</time>
      </trkpt>
      <trkpt lat="57.354481033980846" lon="-5.524184983223677">
        <ele>95.790000000000006</ele>
        <time>2019-09-04T15:09:20Z</time>
      </trkpt>
      <trkpt lat="57.354372991248965" lon="-5.524250026792288">
        <ele>95.790000000000006</ele>
        <time>2019-09-04T15:09:21Z</time>
      </trkpt>
      <trkpt lat="57.353787012398243" lon="-5.52462100982666">
        <ele>96.75</ele>
        <time>2019-09-04T15:09:26Z</time>
      </trkpt>
      <trkpt lat="57.353436984121799" lon="-5.525145968422294">
        <ele>99.150000000000006</ele>
        <time>2019-09-04T15:09:30Z</time>
      </trkpt>
      <trkpt lat="57.353373030200601" lon="-5.525302961468697">
        <ele>100.11</ele>
        <time>2019-09-04T15:09:31Z</time>
      </trkpt>
      <trkpt lat="57.353319972753525" lon="-5.525485016405582">
        <ele>100.59999999999999</ele>
        <time>2019-09-04T15:09:32Z</time>
      </trkpt>
      <trkpt lat="57.352988971397281" lon="-5.526616992428899">
        <ele>104.92</ele>
        <time>2019-09-04T15:09:38Z</time>
      </trkpt>
      <trkpt lat="57.352928034961224" lon="-5.526764011010528">
        <ele>105.88</ele>
        <time>2019-09-04T15:09:39Z</time>
      </trkpt>
      <trkpt lat="57.352855028584599" lon="-5.526937013491988">
        <ele>107.31999999999999</ele>
        <time>2019-09-04T15:09:40Z</time>
      </trkpt>
      <trkpt lat="57.352780010551214" lon="-5.527117978781462">
        <ele>108.29000000000001</ele>
        <time>2019-09-04T15:09:41Z</time>
      </trkpt>
      <trkpt lat="57.352700969204307" lon="-5.527304979041219">
        <ele>109.73</ele>
        <time>2019-09-04T15:09:42Z</time>
      </trkpt>
      <trkpt lat="57.352618994191289" lon="-5.527502037584782">
        <ele>111.17</ele>
        <time>2019-09-04T15:09:43Z</time>
      </trkpt>
      <trkpt lat="57.352064028382301" lon="-5.528683969751">
        <ele>119.34</ele>
        <time>2019-09-04T15:09:49Z</time>
      </trkpt>
      <trkpt lat="57.351996973156929" lon="-5.528915980830789">
        <ele>120.3</ele>
        <time>2019-09-04T15:09:50Z</time>
      </trkpt>
      <trkpt lat="57.351928995922208" lon="-5.529151009395719">
        <ele>121.73999999999999</ele>
        <time>2019-09-04T15:09:51Z</time>
      </trkpt>
      <trkpt lat="57.351389033719897" lon="-5.530758993700147">
        <ele>127.03</ele>
        <time>2019-09-04T15:09:59Z</time>
      </trkpt>
      <trkpt lat="57.350926017388701" lon="-5.53173297084868">
        <ele>126.06999999999999</ele>
        <time>2019-09-04T15:10:05Z</time>
      </trkpt>
      <trkpt lat="57.350858962163329" lon="-5.531928017735481">
        <ele>125.59</ele>
        <time>2019-09-04T15:10:06Z</time>
      </trkpt>
      <trkpt lat="57.350633991882205" lon="-5.532579040154815">
        <ele>123.67</ele>
        <time>2019-09-04T15:10:09Z</time>
      </trkpt>
      <trkpt lat="57.35055604018271" lon="-5.532803004607558">
        <ele>122.70999999999999</ele>
        <time>2019-09-04T15:10:10Z</time>
      </trkpt>
      <trkpt lat="57.349761016666889" lon="-5.534449964761734">
        <ele>116.45999999999999</ele>
        <time>2019-09-04T15:10:19Z</time>
      </trkpt>
      <trkpt lat="57.349589020013809" lon="-5.534683987498283">
        <ele>116.45999999999999</ele>
        <time>2019-09-04T15:10:21Z</time>
      </trkpt>
      <trkpt lat="57.349147964268923" lon="-5.535285975784063">
        <ele>117.90000000000001</ele>
        <time>2019-09-04T15:10:27Z</time>
      </trkpt>
      <trkpt lat="57.349103959277272" lon="-5.535398963838816">
        <ele>118.38</ele>
        <time>2019-09-04T15:10:28Z</time>
      </trkpt>
      <trkpt lat="57.348642032593489" lon="-5.536765968427062">
        <ele>125.59</ele>
        <time>2019-09-04T15:10:36Z</time>
      </trkpt>
      <trkpt lat="57.348597021773458" lon="-5.536936037242413">
        <ele>126.55</ele>
        <time>2019-09-04T15:10:37Z</time>
      </trkpt>
      <trkpt lat="57.348597021773458" lon="-5.537101998925209">
        <ele>127.03</ele>
        <time>2019-09-04T15:10:38Z</time>
      </trkpt>
      <trkpt lat="57.34860397875309" lon="-5.537267038598657">
        <ele>127.51000000000001</ele>
        <time>2019-09-04T15:10:39Z</time>
      </trkpt>
      <trkpt lat="57.348612025380135" lon="-5.537430988624692">
        <ele>127.98999999999999</ele>
        <time>2019-09-04T15:10:40Z</time>
      </trkpt>
      <trkpt lat="57.348649995401502" lon="-5.537567026913166">
        <ele>128.47</ele>
        <time>2019-09-04T15:10:41Z</time>
      </trkpt>
      <trkpt lat="57.348692994564772" lon="-5.537722008302808">
        <ele>128.47</ele>
        <time>2019-09-04T15:10:42Z</time>
      </trkpt>
      <trkpt lat="57.348718978464603" lon="-5.537817981094122">
        <ele>128.47</ele>
        <time>2019-09-04T15:10:43Z</time>
      </trkpt>
      <trkpt lat="57.348829032853246" lon="-5.537945972755551">
        <ele>128.47</ele>
        <time>2019-09-04T15:10:44Z</time>
      </trkpt>
      <trkpt lat="57.34892500564456" lon="-5.538058038800955">
        <ele>127.98999999999999</ele>
        <time>2019-09-04T15:10:45Z</time>
      </trkpt>
      <trkpt lat="57.349027013406157" lon="-5.53817798383534">
        <ele>127.98999999999999</ele>
        <time>2019-09-04T15:10:46Z</time>
      </trkpt>
      <trkpt lat="57.349337982013822" lon="-5.53854301571846">
        <ele>125.59</ele>
        <time>2019-09-04T15:10:49Z</time>
      </trkpt>
      <trkpt lat="57.34942096285522" lon="-5.538735967129469">
        <ele>124.63</ele>
        <time>2019-09-04T15:10:50Z</time>
      </trkpt>
      <trkpt lat="57.349502015858889" lon="-5.538927996531129">
        <ele>123.67</ele>
        <time>2019-09-04T15:10:51Z</time>
      </trkpt>
      <trkpt lat="57.349563958123326" lon="-5.539156990125775">
        <ele>122.70999999999999</ele>
        <time>2019-09-04T15:10:52Z</time>
      </trkpt>
      <trkpt lat="57.349624978378415" lon="-5.539401993155479">
        <ele>121.26000000000001</ele>
        <time>2019-09-04T15:10:53Z</time>
      </trkpt>
      <trkpt lat="57.349684992805123" lon="-5.539643978700042">
        <ele>120.3</ele>
        <time>2019-09-04T15:10:54Z</time>
      </trkpt>
      <trkpt lat="57.350155971944332" lon="-5.541300997138023">
        <ele>109.25</ele>
        <time>2019-09-04T15:11:02Z</time>
      </trkpt>
      <trkpt lat="57.35032101161778" lon="-5.541807012632489">
        <ele>105.40000000000001</ele>
        <time>2019-09-04T15:11:05Z</time>
      </trkpt>
      <trkpt lat="57.350363004952669" lon="-5.541979009285569">
        <ele>103.95999999999999</ele>
        <time>2019-09-04T15:11:06Z</time>
      </trkpt>
      <trkpt lat="57.350389994680882" lon="-5.542154023423791">
        <ele>103.48</ele>
        <time>2019-09-04T15:11:07Z</time>
      </trkpt>
      <trkpt lat="57.350416984409094" lon="-5.542329959571362">
        <ele>102.52</ele>
        <time>2019-09-04T15:11:08Z</time>
      </trkpt>
      <trkpt lat="57.350436011329293" lon="-5.542452000081539">
        <ele>102.04000000000001</ele>
        <time>2019-09-04T15:11:09Z</time>
      </trkpt>
      <trkpt lat="57.35043098218739" lon="-5.542684011161327">
        <ele>101.56</ele>
        <time>2019-09-04T15:11:10Z</time>
      </trkpt>
      <trkpt lat="57.350427964702249" lon="-5.542865982279182">
        <ele>101.08</ele>
        <time>2019-09-04T15:11:11Z</time>
      </trkpt>
      <trkpt lat="57.350358981639147" lon="-5.543941967189312">
        <ele>102.52</ele>
        <time>2019-09-04T15:11:19Z</time>
      </trkpt>
      <trkpt lat="57.350254040211439" lon="-5.544734979048371">
        <ele>103.95999999999999</ele>
        <time>2019-09-04T15:11:26Z</time>
      </trkpt>
      <trkpt lat="57.350053964182734" lon="-5.54623500443995">
        <ele>108.29000000000001</ele>
        <time>2019-09-04T15:11:37Z</time>
      </trkpt>
      <trkpt lat="57.349852966144681" lon="-5.548000987619162">
        <ele>107.81</ele>
        <time>2019-09-04T15:11:44Z</time>
      </trkpt>
      <trkpt lat="57.349416017532349" lon="-5.550442971289158">
        <ele>96.269999999999996</ele>
        <time>2019-09-04T15:11:53Z</time>
      </trkpt>
      <trkpt lat="57.348744040355086" lon="-5.552528975531459">
        <ele>89.060000000000002</ele>
        <time>2019-09-04T15:12:02Z</time>
      </trkpt>
      <trkpt lat="57.347708959132433" lon="-5.554728973656893">
        <ele>84.730000000000004</ele>
        <time>2019-09-04T15:12:12Z</time>
      </trkpt>
      <trkpt lat="57.347020972520113" lon="-5.556840961799026">
        <ele>78.480000000000004</ele>
        <time>2019-09-04T15:12:20Z</time>
      </trkpt>
      <trkpt lat="57.346374979242682" lon="-5.559290992096067">
        <ele>68.390000000000001</ele>
        <time>2019-09-04T15:12:29Z</time>
      </trkpt>
      <trkpt lat="57.345581967383623" lon="-5.560655985027552">
        <ele>60.219999999999999</ele>
        <time>2019-09-04T15:12:36Z</time>
      </trkpt>
      <trkpt lat="57.344540013000369" lon="-5.561206005513668">
        <ele>53.009999999999998</ele>
        <time>2019-09-04T15:12:43Z</time>
      </trkpt>
      <trkpt lat="57.344371033832431" lon="-5.5612129624933">
        <ele>52.530000000000001</ele>
        <time>2019-09-04T15:12:44Z</time>
      </trkpt>
      <trkpt lat="57.3441999591887" lon="-5.56116602383554">
        <ele>51.57</ele>
        <time>2019-09-04T15:12:45Z</time>
      </trkpt>
      <trkpt lat="57.34402502886951" lon="-5.561117995530367">
        <ele>50.609999999999999</ele>
        <time>2019-09-04T15:12:46Z</time>
      </trkpt>
      <trkpt lat="57.34385596588254" lon="-5.561028979718685">
        <ele>49.649999999999999</ele>
        <time>2019-09-04T15:12:47Z</time>
      </trkpt>
      <trkpt lat="57.343694027513266" lon="-5.560914985835552">
        <ele>49.159999999999997</ele>
        <time>2019-09-04T15:12:48Z</time>
      </trkpt>
      <trkpt lat="57.343535022810102" lon="-5.560803003609181">
        <ele>48.68</ele>
        <time>2019-09-04T15:12:49Z</time>
      </trkpt>
      <trkpt lat="57.343376018106937" lon="-5.560691021382809">
        <ele>48.68</ele>
        <time>2019-09-04T15:12:50Z</time>
      </trkpt>
      <trkpt lat="57.343240985646844" lon="-5.560524975880981">
        <ele>47.719999999999999</ele>
        <time>2019-09-04T15:12:51Z</time>
      </trkpt>
      <trkpt lat="57.343096984550357" lon="-5.560348033905029">
        <ele>47.240000000000002</ele>
        <time>2019-09-04T15:12:52Z</time>
      </trkpt>
      <trkpt lat="57.342981984838843" lon="-5.560153992846608">
        <ele>46.759999999999998</ele>
        <time>2019-09-04T15:12:53Z</time>
      </trkpt>
      <trkpt lat="57.342862039804459" lon="-5.559950983151794">
        <ele>46.280000000000001</ele>
        <time>2019-09-04T15:12:54Z</time>
      </trkpt>
      <trkpt lat="57.342166006565094" lon="-5.557992970570922">
        <ele>40.030000000000001</ele>
        <time>2019-09-04T15:13:02Z</time>
      </trkpt>
      <trkpt lat="57.341585978865623" lon="-5.555661041289568">
        <ele>35.710000000000001</ele>
        <time>2019-09-04T15:13:10Z</time>
      </trkpt>
      <trkpt lat="57.340793972834945" lon="-5.55268001742661">
        <ele>32.82</ele>
        <time>2019-09-04T15:13:19Z</time>
      </trkpt>
      <trkpt lat="57.340288041159511" lon="-5.550218001008034">
        <ele>29.460000000000001</ele>
        <time>2019-09-04T15:13:27Z</time>
      </trkpt>
      <trkpt lat="57.340178992599249" lon="-5.547626987099648">
        <ele>27.050000000000001</ele>
        <time>2019-09-04T15:13:35Z</time>
      </trkpt>
      <trkpt lat="57.340345038101077" lon="-5.544155035167933">
        <ele>23.210000000000001</ele>
        <time>2019-09-04T15:13:45Z</time>
      </trkpt>
      <trkpt lat="57.340026022866368" lon="-5.542148994281888">
        <ele>22.25</ele>
        <time>2019-09-04T15:13:51Z</time>
      </trkpt>
      <trkpt lat="57.339270981028676" lon="-5.540502034127712">
        <ele>21.77</ele>
        <time>2019-09-04T15:13:57Z</time>
      </trkpt>
      <trkpt lat="57.338167000561953" lon="-5.539550017565489">
        <ele>23.210000000000001</ele>
        <time>2019-09-04T15:14:04Z</time>
      </trkpt>
      <trkpt lat="57.336998982354999" lon="-5.539570972323418">
        <ele>25.609999999999999</ele>
        <time>2019-09-04T15:14:11Z</time>
      </trkpt>
      <trkpt lat="57.335971025750041" lon="-5.540397008880973">
        <ele>31.379999999999999</ele>
        <time>2019-09-04T15:14:18Z</time>
      </trkpt>
      <trkpt lat="57.334863021969795" lon="-5.542073976248503">
        <ele>40.990000000000002</ele>
        <time>2019-09-04T15:14:27Z</time>
      </trkpt>
      <trkpt lat="57.334471000358462" lon="-5.542666995897889">
        <ele>45.32</ele>
        <time>2019-09-04T15:14:30Z</time>
      </trkpt>
      <trkpt lat="57.333129979670048" lon="-5.543777011334896">
        <ele>56.369999999999997</ele>
        <time>2019-09-04T15:14:39Z</time>
      </trkpt>
      <trkpt lat="57.331567006185651" lon="-5.544157968834043">
        <ele>66.950000000000003</ele>
        <time>2019-09-04T15:14:48Z</time>
      </trkpt>
      <trkpt lat="57.33010402880609" lon="-5.544843021780253">
        <ele>76.079999999999998</ele>
        <time>2019-09-04T15:14:56Z</time>
      </trkpt>
      <trkpt lat="57.328845988959074" lon="-5.546124028041959">
        <ele>86.180000000000007</ele>
        <time>2019-09-04T15:15:04Z</time>
      </trkpt>
      <trkpt lat="57.327387034893036" lon="-5.546710006892681">
        <ele>96.75</ele>
        <time>2019-09-04T15:15:12Z</time>
      </trkpt>
      <trkpt lat="57.325867982581258" lon="-5.546240033581853">
        <ele>109.25</ele>
        <time>2019-09-04T15:15:20Z</time>
      </trkpt>
      <trkpt lat="57.324471976608038" lon="-5.545147033408284">
        <ele>122.22</ele>
        <time>2019-09-04T15:15:28Z</time>
      </trkpt>
      <trkpt lat="57.323264982551336" lon="-5.544876968488097">
        <ele>131.84</ele>
        <time>2019-09-04T15:15:34Z</time>
      </trkpt>
      <trkpt lat="57.321907030418515" lon="-5.54535398259759">
        <ele>146.25999999999999</ele>
        <time>2019-09-04T15:15:41Z</time>
      </trkpt>
      <trkpt lat="57.320747980847955" lon="-5.546548990532756">
        <ele>159.24000000000001</ele>
        <time>2019-09-04T15:15:48Z</time>
      </trkpt>
      <trkpt lat="57.319430010393262" lon="-5.547981038689613">
        <ele>172.69</ele>
        <time>2019-09-04T15:15:56Z</time>
      </trkpt>
      <trkpt lat="57.31766696088016" lon="-5.548836998641491">
        <ele>185.19</ele>
        <time>2019-09-04T15:16:05Z</time>
      </trkpt>
      <trkpt lat="57.315873987972736" lon="-5.548766003921628">
        <ele>192.88</ele>
        <time>2019-09-04T15:16:14Z</time>
      </trkpt>
      <trkpt lat="57.3139279615134" lon="-5.548669025301933">
        <ele>195.77000000000001</ele>
        <time>2019-09-04T15:16:23Z</time>
      </trkpt>
      <trkpt lat="57.312152003869414" lon="-5.549413003027439">
        <ele>194.31999999999999</ele>
        <time>2019-09-04T15:16:31Z</time>
      </trkpt>
      <trkpt lat="57.31040203012526" lon="-5.551187032833695">
        <ele>188.56</ele>
        <time>2019-09-04T15:16:40Z</time>
      </trkpt>
      <trkpt lat="57.309186989441514" lon="-5.553397005423904">
        <ele>181.34999999999999</ele>
        <time>2019-09-04T15:16:48Z</time>
      </trkpt>
      <trkpt lat="57.308261962607503" lon="-5.556077035143971">
        <ele>174.62</ele>
        <time>2019-09-04T15:16:56Z</time>
      </trkpt>
      <trkpt lat="57.307402985170484" lon="-5.559066021814942">
        <ele>168.84999999999999</ele>
        <time>2019-09-04T15:17:05Z</time>
      </trkpt>
      <trkpt lat="57.306252988055348" lon="-5.562773002311587">
        <ele>165.96000000000001</ele>
        <time>2019-09-04T15:17:16Z</time>
      </trkpt>
      <trkpt lat="57.305169040337205" lon="-5.564764039590955">
        <ele>163.08000000000001</ele>
        <time>2019-09-04T15:17:23Z</time>
      </trkpt>
      <trkpt lat="57.303857021033764" lon="-5.566015960648656">
        <ele>160.68000000000001</ele>
        <time>2019-09-04T15:17:30Z</time>
      </trkpt>
      <trkpt lat="57.302486998960376" lon="-5.566453998908401">
        <ele>159.72</ele>
        <time>2019-09-04T15:17:37Z</time>
      </trkpt>
      <trkpt lat="57.300859987735748" lon="-5.566019983962178">
        <ele>159.72</ele>
        <time>2019-09-04T15:17:45Z</time>
      </trkpt>
      <trkpt lat="57.299038013443351" lon="-5.564835034310818">
        <ele>161.16</ele>
        <time>2019-09-04T15:17:54Z</time>
      </trkpt>
      <trkpt lat="57.297384012490511" lon="-5.564648034051061">
        <ele>161.63999999999999</ele>
        <time>2019-09-04T15:18:02Z</time>
      </trkpt>
      <trkpt lat="57.295702015981078" lon="-5.565302995964885">
        <ele>160.19999999999999</ele>
        <time>2019-09-04T15:18:10Z</time>
      </trkpt>
      <trkpt lat="57.293886998668313" lon="-5.565871959552169">
        <ele>152.99000000000001</ele>
        <time>2019-09-04T15:18:19Z</time>
      </trkpt>
      <trkpt lat="57.292481018230319" lon="-5.565964998677373">
        <ele>144.81999999999999</ele>
        <time>2019-09-04T15:18:27Z</time>
      </trkpt>
      <trkpt lat="57.291015023365617" lon="-5.566654996946454">
        <ele>133.28</ele>
        <time>2019-09-04T15:18:35Z</time>
      </trkpt>
      <trkpt lat="57.289904002100229" lon="-5.567973973229528">
        <ele>120.3</ele>
        <time>2019-09-04T15:18:42Z</time>
      </trkpt>
      <trkpt lat="57.289041001349688" lon="-5.569927962496877">
        <ele>107.31999999999999</ele>
        <time>2019-09-04T15:18:50Z</time>
      </trkpt>
      <trkpt lat="57.28855200111866" lon="-5.572421997785568">
        <ele>93.870000000000005</ele>
        <time>2019-09-04T15:18:59Z</time>
      </trkpt>
      <trkpt lat="57.288511013612151" lon="-5.574968000873923">
        <ele>82.329999999999998</ele>
        <time>2019-09-04T15:19:07Z</time>
      </trkpt>
      <trkpt lat="57.288930024951696" lon="-5.577820027247071">
        <ele>68.870000000000005</ele>
        <time>2019-09-04T15:19:16Z</time>
      </trkpt>
      <trkpt lat="57.289028009399772" lon="-5.579821038991213">
        <ele>58.299999999999997</ele>
        <time>2019-09-04T15:19:23Z</time>
      </trkpt>
      <trkpt lat="57.289000013843179" lon="-5.580104012042284">
        <ele>56.369999999999997</ele>
        <time>2019-09-04T15:19:24Z</time>
      </trkpt>
      <trkpt lat="57.28895902633667" lon="-5.580394025892019">
        <ele>54.93</ele>
        <time>2019-09-04T15:19:25Z</time>
      </trkpt>
      <trkpt lat="57.288894988596439" lon="-5.580666018649936">
        <ele>53.490000000000002</ele>
        <time>2019-09-04T15:19:26Z</time>
      </trkpt>
      <trkpt lat="57.288805972784758" lon="-5.580927031114698">
        <ele>52.049999999999997</ele>
        <time>2019-09-04T15:19:27Z</time>
      </trkpt>
      <trkpt lat="57.288714023306966" lon="-5.581196006387472">
        <ele>50.609999999999999</ele>
        <time>2019-09-04T15:19:28Z</time>
      </trkpt>
      <trkpt lat="57.28861796669662" lon="-5.581455007195473">
        <ele>48.68</ele>
        <time>2019-09-04T15:19:29Z</time>
      </trkpt>
      <trkpt lat="57.288489975035191" lon="-5.5816850066185">
        <ele>47.240000000000002</ele>
        <time>2019-09-04T15:19:30Z</time>
      </trkpt>
      <trkpt lat="57.288365000858903" lon="-5.581910982728005">
        <ele>45.799999999999997</ele>
        <time>2019-09-04T15:19:31Z</time>
      </trkpt>
      <trkpt lat="57.28823097422719" lon="-5.582097982987762">
        <ele>43.880000000000003</ele>
        <time>2019-09-04T15:19:32Z</time>
      </trkpt>
      <trkpt lat="57.288088984787464" lon="-5.58226402848959">
        <ele>41.950000000000003</ele>
        <time>2019-09-04T15:19:33Z</time>
      </trkpt>
      <trkpt lat="57.287940960377455" lon="-5.582377016544342">
        <ele>40.509999999999998</ele>
        <time>2019-09-04T15:19:34Z</time>
      </trkpt>
      <trkpt lat="57.287787990644574" lon="-5.58248003013432">
        <ele>38.590000000000003</ele>
        <time>2019-09-04T15:19:35Z</time>
      </trkpt>
      <trkpt lat="57.287634015083313" lon="-5.582582037895918">
        <ele>36.670000000000002</ele>
        <time>2019-09-04T15:19:36Z</time>
      </trkpt>
      <trkpt lat="57.287472998723388" lon="-5.582614978775382">
        <ele>35.229999999999997</ele>
        <time>2019-09-04T15:19:37Z</time>
      </trkpt>
      <trkpt lat="57.287306031212211" lon="-5.582632999867201">
        <ele>33.780000000000001</ele>
        <time>2019-09-04T15:19:38Z</time>
      </trkpt>
      <trkpt lat="57.287143003195524" lon="-5.582621013745666">
        <ele>31.859999999999999</ele>
        <time>2019-09-04T15:19:39Z</time>
      </trkpt>
      <trkpt lat="57.286978969350457" lon="-5.582574997097254">
        <ele>30.420000000000002</ele>
        <time>2019-09-04T15:19:40Z</time>
      </trkpt>
      <trkpt lat="57.286824993789196" lon="-5.582527974620462">
        <ele>28.5</ele>
        <time>2019-09-04T15:19:41Z</time>
      </trkpt>
      <trkpt lat="57.28668199852109" lon="-5.582429990172386">
        <ele>27.050000000000001</ele>
        <time>2019-09-04T15:19:42Z</time>
      </trkpt>
      <trkpt lat="57.286541014909744" lon="-5.582333011552692">
        <ele>25.129999999999999</ele>
        <time>2019-09-04T15:19:43Z</time>
      </trkpt>
      <trkpt lat="57.286411011591554" lon="-5.582210971042514">
        <ele>23.210000000000001</ele>
        <time>2019-09-04T15:19:44Z</time>
      </trkpt>
      <trkpt lat="57.286284025758505" lon="-5.58207300491631">
        <ele>21.77</ele>
        <time>2019-09-04T15:19:45Z</time>
      </trkpt>
      <trkpt lat="57.286177994683385" lon="-5.581911988556385">
        <ele>19.84</ele>
        <time>2019-09-04T15:19:46Z</time>
      </trkpt>
      <trkpt lat="57.286084033548832" lon="-5.581756001338363">
        <ele>18.399999999999999</ele>
        <time>2019-09-04T15:19:47Z</time>
      </trkpt>
      <trkpt lat="57.285825032740831" lon="-5.581300025805831">
        <ele>12.15</ele>
        <time>2019-09-04T15:19:52Z</time>
      </trkpt>
      <trkpt lat="57.285806005820632" lon="-5.581259960308671">
        <ele>11.19</ele>
        <time>2019-09-04T15:19:53Z</time>
      </trkpt>
      <trkpt lat="57.285774992778897" lon="-5.581378983333707">
        <ele>9.75</ele>
        <time>2019-09-04T15:19:54Z</time>
      </trkpt>
      <trkpt lat="57.285751020535827" lon="-5.581374960020185">
        <ele>8.789999999999999</ele>
        <time>2019-09-04T15:19:55Z</time>
      </trkpt>
      <trkpt lat="57.285654963925481" lon="-5.581355011090636">
        <ele>7.83</ele>
        <time>2019-09-04T15:19:56Z</time>
      </trkpt>
      <trkpt lat="57.285714978352189" lon="-5.581366997212172">
        <ele>6.87</ele>
        <time>2019-09-04T15:19:57Z</time>
      </trkpt>
      <trkpt lat="57.285687988623977" lon="-5.581361968070269">
        <ele>4.46</ele>
        <time>2019-09-04T15:20:08Z</time>
      </trkpt>
      <trkpt lat="57.285596961155534" lon="-5.581448972225189">
        <ele>3.02</ele>
        <time>2019-09-04T15:20:18Z</time>
      </trkpt>
      <trkpt lat="57.285559996962547" lon="-5.581508986651897">
        <ele>3.02</ele>
        <time>2019-09-04T15:20:19Z</time>
      </trkpt>
      <trkpt lat="57.285483973100781" lon="-5.581633960828185">
        <ele>3.02</ele>
        <time>2019-09-04T15:20:20Z</time>
      </trkpt>
      <trkpt lat="57.285477016121149" lon="-5.581789026036859">
        <ele>3.5</ele>
        <time>2019-09-04T15:20:21Z</time>
      </trkpt>
      <trkpt lat="57.285467963665724" lon="-5.581972002983093">
        <ele>3.98</ele>
        <time>2019-09-04T15:20:22Z</time>
      </trkpt>
      <trkpt lat="57.28545899502933" lon="-5.582169983536005">
        <ele>3.98</ele>
        <time>2019-09-04T15:20:23Z</time>
      </trkpt>
      <trkpt lat="57.285423036664724" lon="-5.584024982526898">
        <ele>3.5</ele>
        <time>2019-09-04T15:20:30Z</time>
      </trkpt>
      <trkpt lat="57.285682037472725" lon="-5.586342997848988">
        <ele>3.02</ele>
        <time>2019-09-04T15:20:37Z</time>
      </trkpt>
      <trkpt lat="57.286136001348495" lon="-5.588871985673904">
        <ele>1.58</ele>
        <time>2019-09-04T15:20:45Z</time>
      </trkpt>
      <trkpt lat="57.286155028268695" lon="-5.589211033657193">
        <ele>1.1</ele>
        <time>2019-09-04T15:20:46Z</time>
      </trkpt>
      <trkpt lat="57.286168020218611" lon="-5.589544968679547">
        <ele>0.62</ele>
        <time>2019-09-04T15:20:47Z</time>
      </trkpt>
      <trkpt lat="57.286155028268695" lon="-5.589877981692553">
        <ele>0.14</ele>
        <time>2019-09-04T15:20:48Z</time>
      </trkpt>
      <trkpt lat="57.286141030490398" lon="-5.590206971392036">
        <ele>-0.34</ele>
        <time>2019-09-04T15:20:49Z</time>
      </trkpt>
      <trkpt lat="57.286128038540483" lon="-5.590532021597028">
        <ele>-0.82</ele>
        <time>2019-09-04T15:20:50Z</time>
      </trkpt>
      <trkpt lat="57.285726964473724" lon="-5.593060003593564">
        <ele>-1.3</ele>
        <time>2019-09-04T15:20:58Z</time>
      </trkpt>
      <trkpt lat="57.28509396314621" lon="-5.596560034900904">
        <ele>-0.82</ele>
        <time>2019-09-04T15:21:08Z</time>
      </trkpt>
      <trkpt lat="57.284305980429053" lon="-5.600971011444926">
        <ele>3.5</ele>
        <time>2019-09-04T15:21:20Z</time>
      </trkpt>
      <trkpt lat="57.284272033721209" lon="-5.601373007521033">
        <ele>3.5</ele>
        <time>2019-09-04T15:21:21Z</time>
      </trkpt>
      <trkpt lat="57.284236997365952" lon="-5.601784978061914">
        <ele>3.5</ele>
        <time>2019-09-04T15:21:22Z</time>
      </trkpt>
      <trkpt lat="57.284015966579318" lon="-5.603908030316234">
        <ele>3.98</ele>
        <time>2019-09-04T15:21:28Z</time>
      </trkpt>
      <trkpt lat="57.283570971339941" lon="-5.606235014274716">
        <ele>7.35</ele>
        <time>2019-09-04T15:21:38Z</time>
      </trkpt>
      <trkpt lat="57.283057998865843" lon="-5.608636010438204">
        <ele>6.39</ele>
        <time>2019-09-04T15:21:47Z</time>
      </trkpt>
      <trkpt lat="57.282711993902922" lon="-5.611495999619365">
        <ele>4.46</ele>
        <time>2019-09-04T15:21:55Z</time>
      </trkpt>
      <trkpt lat="57.282298011705279" lon="-5.614999970421195">
        <ele>3.98</ele>
        <time>2019-09-04T15:22:06Z</time>
      </trkpt>
      <trkpt lat="57.282115034759045" lon="-5.618412997573614">
        <ele>3.98</ele>
        <time>2019-09-04T15:22:16Z</time>
      </trkpt>
      <trkpt lat="57.282262975350022" lon="-5.622009001672268">
        <ele>4.94</ele>
        <time>2019-09-04T15:22:26Z</time>
      </trkpt>
      <trkpt lat="57.282370012253523" lon="-5.624612001702189">
        <ele>4.46</ele>
        <time>2019-09-04T15:22:35Z</time>
      </trkpt>
      <trkpt lat="57.282500015571713" lon="-5.627768961712718">
        <ele>3.02</ele>
        <time>2019-09-04T15:22:46Z</time>
      </trkpt>
      <trkpt lat="57.282512001693249" lon="-5.630702963098884">
        <ele>2.06</ele>
        <time>2019-09-04T15:22:56Z</time>
      </trkpt>
      <trkpt lat="57.282724985852838" lon="-5.633933013305068">
        <ele>1.58</ele>
        <time>2019-09-04T15:23:07Z</time>
      </trkpt>
      <trkpt lat="57.283305013552308" lon="-5.637859012931585">
        <ele>0.62</ele>
        <time>2019-09-04T15:23:21Z</time>
      </trkpt>
      <trkpt lat="57.28345999494195" lon="-5.638365028426051">
        <ele>1.1</ele>
        <time>2019-09-04T15:23:23Z</time>
      </trkpt>
      <trkpt lat="57.283562002703547" lon="-5.638581030070782">
        <ele>1.1</ele>
        <time>2019-09-04T15:23:24Z</time>
      </trkpt>
      <trkpt lat="57.283673984929919" lon="-5.63877297565341">
        <ele>1.1</ele>
        <time>2019-09-04T15:23:25Z</time>
      </trkpt>
      <trkpt lat="57.283783033490181" lon="-5.638959975913167">
        <ele>1.1</ele>
        <time>2019-09-04T15:23:26Z</time>
      </trkpt>
      <trkpt lat="57.283899039030075" lon="-5.639104982838035">
        <ele>1.1</ele>
        <time>2019-09-04T15:23:27Z</time>
      </trkpt>
      <trkpt lat="57.285049958154559" lon="-5.640336032956839">
        <ele>2.06</ele>
        <time>2019-09-04T15:23:36Z</time>
      </trkpt>
      <trkpt lat="57.286550989374518" lon="-5.641838992014527">
        <ele>6.39</ele>
        <time>2019-09-04T15:23:46Z</time>
      </trkpt>
      <trkpt lat="57.287220032885671" lon="-5.642796959728003">
        <ele>7.35</ele>
        <time>2019-09-04T15:23:51Z</time>
      </trkpt>
      <trkpt lat="57.287331009283662" lon="-5.643013967201114">
        <ele>7.83</ele>
        <time>2019-09-04T15:23:52Z</time>
      </trkpt>
      <trkpt lat="57.287441985681653" lon="-5.643229968845844">
        <ele>7.83</ele>
        <time>2019-09-04T15:23:53Z</time>
      </trkpt>
      <trkpt lat="57.287526978179812" lon="-5.64347698353231">
        <ele>8.310000000000001</ele>
        <time>2019-09-04T15:23:54Z</time>
      </trkpt>
      <trkpt lat="57.287600990384817" lon="-5.643745036795735">
        <ele>8.310000000000001</ele>
        <time>2019-09-04T15:23:55Z</time>
      </trkpt>
      <trkpt lat="57.287676008418202" lon="-5.64401300624013">
        <ele>8.789999999999999</ele>
        <time>2019-09-04T15:23:56Z</time>
      </trkpt>
      <trkpt lat="57.287749014794827" lon="-5.644278964027762">
        <ele>9.27</ele>
        <time>2019-09-04T15:23:57Z</time>
      </trkpt>
      <trkpt lat="57.287796037271619" lon="-5.64455296844244">
        <ele>9.75</ele>
        <time>2019-09-04T15:23:58Z</time>
      </trkpt>
      <trkpt lat="57.288094013929367" lon="-5.64650502987206">
        <ele>14.56</ele>
        <time>2019-09-04T15:24:05Z</time>
      </trkpt>
      <trkpt lat="57.288279002532363" lon="-5.649245996028185">
        <ele>21.289999999999999</ele>
        <time>2019-09-04T15:24:14Z</time>
      </trkpt>
      <trkpt lat="57.287998041138053" lon="-5.651646992191672">
        <ele>31.859999999999999</ele>
        <time>2019-09-04T15:24:22Z</time>
      </trkpt>
      <trkpt lat="57.287277029827237" lon="-5.653783958405256">
        <ele>41.469999999999999</ele>
        <time>2019-09-04T15:24:30Z</time>
      </trkpt>
      <trkpt lat="57.286373963579535" lon="-5.655664019286633">
        <ele>47.719999999999999</ele>
        <time>2019-09-04T15:24:37Z</time>
      </trkpt>
      <trkpt lat="57.285753032192588" lon="-5.656928010284901">
        <ele>49.649999999999999</ele>
        <time>2019-09-04T15:24:43Z</time>
      </trkpt>
      <trkpt lat="57.284882990643382" lon="-5.658697010949254">
        <ele>47.719999999999999</ele>
        <time>2019-09-04T15:24:51Z</time>
      </trkpt>
      <trkpt lat="57.283860985189676" lon="-5.660801958292723">
        <ele>48.200000000000003</ele>
        <time>2019-09-04T15:25:00Z</time>
      </trkpt>
      <trkpt lat="57.282974012196064" lon="-5.663192979991436">
        <ele>48.200000000000003</ele>
        <time>2019-09-04T15:25:09Z</time>
      </trkpt>
      <trkpt lat="57.282592970877886" lon="-5.665633035823703">
        <ele>46.759999999999998</ele>
        <time>2019-09-04T15:25:17Z</time>
      </trkpt>
      <trkpt lat="57.282374035567045" lon="-5.66915201023221">
        <ele>39.549999999999997</ele>
        <time>2019-09-04T15:25:27Z</time>
      </trkpt>
      <trkpt lat="57.281989976763725" lon="-5.672067990526557">
        <ele>29.940000000000001</ele>
        <time>2019-09-04T15:25:35Z</time>
      </trkpt>
      <trkpt lat="57.281508017331362" lon="-5.675488980486989">
        <ele>18.399999999999999</ele>
        <time>2019-09-04T15:25:45Z</time>
      </trkpt>
      <trkpt lat="57.281142985448241" lon="-5.678931009024382">
        <ele>16</ele>
        <time>2019-09-04T15:25:54Z</time>
      </trkpt>
      <trkpt lat="57.281286986544728" lon="-5.682205986231566">
        <ele>15.52</ele>
        <time>2019-09-04T15:26:02Z</time>
      </trkpt>
      <trkpt lat="57.281843964010477" lon="-5.685225985944271">
        <ele>14.08</ele>
        <time>2019-09-04T15:26:10Z</time>
      </trkpt>
      <trkpt lat="57.282585008069873" lon="-5.688243974000216">
        <ele>13.6</ele>
        <time>2019-09-04T15:26:19Z</time>
      </trkpt>
      <trkpt lat="57.283145003020763" lon="-5.690596019849181">
        <ele>14.08</ele>
        <time>2019-09-04T15:26:27Z</time>
      </trkpt>
      <trkpt lat="57.283169981092215" lon="-5.690886033698916">
        <ele>14.08</ele>
        <time>2019-09-04T15:26:28Z</time>
      </trkpt>
      <trkpt lat="57.283195964992046" lon="-5.691178981214762">
        <ele>14.56</ele>
        <time>2019-09-04T15:26:29Z</time>
      </trkpt>
      <trkpt lat="57.283194959163666" lon="-5.691459020599723">
        <ele>15.52</ele>
        <time>2019-09-04T15:26:30Z</time>
      </trkpt>
      <trkpt lat="57.283166963607073" lon="-5.691731013357639">
        <ele>16</ele>
        <time>2019-09-04T15:26:31Z</time>
      </trkpt>
      <trkpt lat="57.28313997387886" lon="-5.691985990852118">
        <ele>16.48</ele>
        <time>2019-09-04T15:26:32Z</time>
      </trkpt>
      <trkpt lat="57.283114995807409" lon="-5.692224958911538">
        <ele>17.440000000000001</ele>
        <time>2019-09-04T15:26:33Z</time>
      </trkpt>
      <trkpt lat="57.283079959452152" lon="-5.692434003576636">
        <ele>17.920000000000002</ele>
        <time>2019-09-04T15:26:34Z</time>
      </trkpt>
      <trkpt lat="57.283019023016095" lon="-5.692660985514522">
        <ele>18.399999999999999</ele>
        <time>2019-09-04T15:26:35Z</time>
      </trkpt>
      <trkpt lat="57.282949034124613" lon="-5.692884027957916">
        <ele>18.879999999999999</ele>
        <time>2019-09-04T15:26:36Z</time>
      </trkpt>
      <trkpt lat="57.282857000827789" lon="-5.693104974925518">
        <ele>20.32</ele>
        <time>2019-09-04T15:26:37Z</time>
      </trkpt>
      <trkpt lat="57.282763039693236" lon="-5.693328017368913">
        <ele>21.77</ele>
        <time>2019-09-04T15:26:38Z</time>
      </trkpt>
      <trkpt lat="57.281855028122663" lon="-5.694816978648305">
        <ele>34.259999999999998</ele>
        <time>2019-09-04T15:26:46Z</time>
      </trkpt>
      <trkpt lat="57.281678002327681" lon="-5.695209000259638">
        <ele>36.189999999999998</ele>
        <time>2019-09-04T15:26:48Z</time>
      </trkpt>
      <trkpt lat="57.281588986515999" lon="-5.695414021611214">
        <ele>36.670000000000002</ele>
        <time>2019-09-04T15:26:49Z</time>
      </trkpt>
      <trkpt lat="57.281448002904654" lon="-5.695886006578803">
        <ele>37.630000000000003</ele>
        <time>2019-09-04T15:26:51Z</time>
      </trkpt>
      <trkpt lat="57.281401986256242" lon="-5.696146013215184">
        <ele>38.109999999999999</ele>
        <time>2019-09-04T15:26:52Z</time>
      </trkpt>
      <trkpt lat="57.281130999326706" lon="-5.698620015755296">
        <ele>43.880000000000003</ele>
        <time>2019-09-04T15:27:01Z</time>
      </trkpt>
      <trkpt lat="57.281138962134719" lon="-5.698940036818385">
        <ele>44.359999999999999</ele>
        <time>2019-09-04T15:27:02Z</time>
      </trkpt>
      <trkpt lat="57.281146002933383" lon="-5.699265003204346">
        <ele>44.840000000000003</ele>
        <time>2019-09-04T15:27:03Z</time>
      </trkpt>
      <trkpt lat="57.281152959913015" lon="-5.699589969590306">
        <ele>44.840000000000003</ele>
        <time>2019-09-04T15:27:04Z</time>
      </trkpt>
      <trkpt lat="57.281160000711679" lon="-5.699906973168254">
        <ele>45.32</ele>
        <time>2019-09-04T15:27:05Z</time>
      </trkpt>
      <trkpt lat="57.281166035681963" lon="-5.700503010302782">
        <ele>45.32</ele>
        <time>2019-09-04T15:27:07Z</time>
      </trkpt>
      <trkpt lat="57.281157989054918" lon="-5.700791012495756">
        <ele>45.32</ele>
        <time>2019-09-04T15:27:08Z</time>
      </trkpt>
      <trkpt lat="57.281149020418525" lon="-5.701083038002253">
        <ele>44.840000000000003</ele>
        <time>2019-09-04T15:27:09Z</time>
      </trkpt>
      <trkpt lat="57.281096968799829" lon="-5.701365005224943">
        <ele>44.359999999999999</ele>
        <time>2019-09-04T15:27:10Z</time>
      </trkpt>
      <trkpt lat="57.281041983515024" lon="-5.701655019074678">
        <ele>43.880000000000003</ele>
        <time>2019-09-04T15:27:11Z</time>
      </trkpt>
      <trkpt lat="57.280692961066961" lon="-5.7035499997437">
        <ele>37.149999999999999</ele>
        <time>2019-09-04T15:27:18Z</time>
      </trkpt>
      <trkpt lat="57.280674017965794" lon="-5.703822998329997">
        <ele>36.189999999999998</ele>
        <time>2019-09-04T15:27:19Z</time>
      </trkpt>
      <trkpt lat="57.280655996873975" lon="-5.704099014401436">
        <ele>35.229999999999997</ele>
        <time>2019-09-04T15:27:20Z</time>
      </trkpt>
      <trkpt lat="57.280669994652271" lon="-5.70436698384583">
        <ele>34.259999999999998</ele>
        <time>2019-09-04T15:27:21Z</time>
      </trkpt>
      <trkpt lat="57.280779965221882" lon="-5.706111006438732">
        <ele>26.57</ele>
        <time>2019-09-04T15:27:29Z</time>
      </trkpt>
      <trkpt lat="57.281072996556759" lon="-5.70791102014482">
        <ele>18.879999999999999</ele>
        <time>2019-09-04T15:27:37Z</time>
      </trkpt>
      <trkpt lat="57.281192019581795" lon="-5.709584970027208">
        <ele>14.56</ele>
        <time>2019-09-04T15:27:43Z</time>
      </trkpt>
      <trkpt lat="57.281192019581795" lon="-5.710350992158055">
        <ele>14.56</ele>
        <time>2019-09-04T15:27:48Z</time>
      </trkpt>
      <trkpt lat="57.281192019581795" lon="-5.71081199683249">
        <ele>15.52</ele>
        <time>2019-09-04T15:27:57Z</time>
      </trkpt>
      <trkpt lat="57.28118397295475" lon="-5.710932025685906">
        <ele>14.56</ele>
        <time>2019-09-04T15:28:08Z</time>
      </trkpt>
      <trkpt lat="57.28118397295475" lon="-5.710932025685906">
        <ele>14.56</ele>
        <time>2019-09-04T15:28:27Z</time>
      </trkpt>
      <trkpt lat="57.28118397295475" lon="-5.710932025685906">
        <ele>14.56</ele>
        <time>2019-09-04T15:28:47Z</time>
      </trkpt>
      <trkpt lat="57.28118397295475" lon="-5.710932025685906">
        <ele>14.56</ele>
        <time>2019-09-04T15:29:05Z</time>
      </trkpt>
      <trkpt lat="57.281153965741396" lon="-5.711239976808429">
        <ele>25.609999999999999</ele>
        <time>2019-09-04T15:32:58Z</time>
      </trkpt>
      <trkpt lat="57.281148014590144" lon="-5.711288005113602">
        <ele>15.52</ele>
        <time>2019-09-04T15:33:12Z</time>
      </trkpt>
      <trkpt lat="57.281165029853582" lon="-5.711259003728628">
        <ele>18.399999999999999</ele>
        <time>2019-09-04T15:34:07Z</time>
      </trkpt>
      <trkpt lat="57.281146002933383" lon="-5.711251040920615">
        <ele>15.52</ele>
        <time>2019-09-04T15:34:51Z</time>
      </trkpt>
      <trkpt lat="57.281146002933383" lon="-5.711251962929964">
        <ele>15.52</ele>
        <time>2019-09-04T15:36:10Z</time>
      </trkpt>
      <trkpt lat="57.281127981841564" lon="-5.711688995361328">
        <ele>16.48</ele>
        <time>2019-09-04T15:36:20Z</time>
      </trkpt>
      <trkpt lat="57.281123958528042" lon="-5.711713973432779">
        <ele>16.48</ele>
        <time>2019-09-04T15:36:31Z</time>
      </trkpt>
      <trkpt lat="57.281123958528042" lon="-5.711713973432779">
        <ele>16.48</ele>
        <time>2019-09-04T15:37:20Z</time>
      </trkpt>
      <trkpt lat="57.281123958528042" lon="-5.711713973432779">
        <ele>16.48</ele>
        <time>2019-09-04T15:38:01Z</time>
      </trkpt>
      <trkpt lat="57.281123958528042" lon="-5.711713973432779">
        <ele>16.48</ele>
        <time>2019-09-04T15:38:26Z</time>
      </trkpt>
      <trkpt lat="57.281123958528042" lon="-5.711713973432779">
        <ele>16</ele>
        <time>2019-09-04T15:38:53Z</time>
      </trkpt>
      <trkpt lat="57.281123958528042" lon="-5.711713973432779">
        <ele>15.52</ele>
        <time>2019-09-04T15:39:33Z</time>
      </trkpt>
      <trkpt lat="57.281127981841564" lon="-5.711688995361328">
        <ele>15.52</ele>
        <time>2019-09-04T15:40:18Z</time>
      </trkpt>
      <trkpt lat="57.281111972406507" lon="-5.711797038093209">
        <ele>15.039999999999999</ele>
        <time>2019-09-04T15:40:19Z</time>
      </trkpt>
      <trkpt lat="57.281106021255255" lon="-5.711840959265828">
        <ele>15.039999999999999</ele>
        <time>2019-09-04T15:40:20Z</time>
      </trkpt>
      <trkpt lat="57.2810950409621" lon="-5.711917988955975">
        <ele>15.039999999999999</ele>
        <time>2019-09-04T15:40:21Z</time>
      </trkpt>
      <trkpt lat="57.281078025698662" lon="-5.712033994495869">
        <ele>14.56</ele>
        <time>2019-09-04T15:40:22Z</time>
      </trkpt>
      <trkpt lat="57.280979035422206" lon="-5.713659999892116">
        <ele>13.119999999999999</ele>
        <time>2019-09-04T15:40:31Z</time>
      </trkpt>
      <trkpt lat="57.280931007117033" lon="-5.714711006730795">
        <ele>13.119999999999999</ele>
        <time>2019-09-04T15:40:37Z</time>
      </trkpt>
      <trkpt lat="57.280922960489988" lon="-5.714898006990552">
        <ele>13.119999999999999</ele>
        <time>2019-09-04T15:40:38Z</time>
      </trkpt>
      <trkpt lat="57.280913991853595" lon="-5.715084001421928">
        <ele>12.630000000000001</ele>
        <time>2019-09-04T15:40:39Z</time>
      </trkpt>
      <trkpt lat="57.280918015167117" lon="-5.715899979695678">
        <ele>12.15</ele>
        <time>2019-09-04T15:40:43Z</time>
      </trkpt>
      <trkpt lat="57.280928995460272" lon="-5.716112963855267">
        <ele>12.15</ele>
        <time>2019-09-04T15:40:44Z</time>
      </trkpt>
      <trkpt lat="57.280974006280303" lon="-5.716868005692959">
        <ele>12.630000000000001</ele>
        <time>2019-09-04T15:40:47Z</time>
      </trkpt>
      <trkpt lat="57.280953973531723" lon="-5.717108985409141">
        <ele>12.630000000000001</ele>
        <time>2019-09-04T15:40:48Z</time>
      </trkpt>
      <trkpt lat="57.280916003510356" lon="-5.717377960681915">
        <ele>12.630000000000001</ele>
        <time>2019-09-04T15:40:49Z</time>
      </trkpt>
      <trkpt lat="57.280869986861944" lon="-5.717696975916624">
        <ele>13.119999999999999</ele>
        <time>2019-09-04T15:40:50Z</time>
      </trkpt>
      <trkpt lat="57.280819024890661" lon="-5.717866960912943">
        <ele>14.08</ele>
        <time>2019-09-04T15:40:51Z</time>
      </trkpt>
      <trkpt lat="57.28049598634243" lon="-5.718944035470486">
        <ele>18.399999999999999</ele>
        <time>2019-09-04T15:40:58Z</time>
      </trkpt>
      <trkpt lat="57.280088039115071" lon="-5.720595018938184">
        <ele>16.960000000000001</ele>
        <time>2019-09-04T15:41:07Z</time>
      </trkpt>
      <trkpt lat="57.280020983889699" lon="-5.721909971907735">
        <ele>15.52</ele>
        <time>2019-09-04T15:41:12Z</time>
      </trkpt>
      <trkpt lat="57.280319966375828" lon="-5.723772011697292">
        <ele>15.039999999999999</ele>
        <time>2019-09-04T15:41:20Z</time>
      </trkpt>
      <trkpt lat="57.281045001000166" lon="-5.725347977131605">
        <ele>16.48</ele>
        <time>2019-09-04T15:41:29Z</time>
      </trkpt>
      <trkpt lat="57.281705997884274" lon="-5.727288974449039">
        <ele>15.039999999999999</ele>
        <time>2019-09-04T15:41:37Z</time>
      </trkpt>
      <trkpt lat="57.281812028959394" lon="-5.728187011554837">
        <ele>15.039999999999999</ele>
        <time>2019-09-04T15:41:40Z</time>
      </trkpt>
      <trkpt lat="57.281836001202464" lon="-5.728490017354488">
        <ele>15.039999999999999</ele>
        <time>2019-09-04T15:41:41Z</time>
      </trkpt>
      <trkpt lat="57.281836001202464" lon="-5.728742983192205">
        <ele>15.039999999999999</ele>
        <time>2019-09-04T15:41:42Z</time>
      </trkpt>
      <trkpt lat="57.281750002875924" lon="-5.729947965592146">
        <ele>16</ele>
        <time>2019-09-04T15:41:48Z</time>
      </trkpt>
      <trkpt lat="57.281713960692286" lon="-5.730130020529032">
        <ele>15.52</ele>
        <time>2019-09-04T15:41:50Z</time>
      </trkpt>
      <trkpt lat="57.281680013984442" lon="-5.730301011353731">
        <ele>16</ele>
        <time>2019-09-04T15:41:52Z</time>
      </trkpt>
      <trkpt lat="57.281660987064242" lon="-5.730393966659904">
        <ele>16</ele>
        <time>2019-09-04T15:41:53Z</time>
      </trkpt>
      <trkpt lat="57.281604995951056" lon="-5.730673000216484">
        <ele>16.48</ele>
        <time>2019-09-04T15:42:01Z</time>
      </trkpt>
      <trkpt lat="57.281604995951056" lon="-5.730673000216484">
        <ele>16.48</ele>
        <time>2019-09-04T15:42:46Z</time>
      </trkpt>
      <trkpt lat="57.281604995951056" lon="-5.730673000216484">
        <ele>16</ele>
        <time>2019-09-04T15:43:32Z</time>
      </trkpt>
      <trkpt lat="57.281511034816504" lon="-5.731146996840835">
        <ele>15.52</ele>
        <time>2019-09-04T15:43:40Z</time>
      </trkpt>
      <trkpt lat="57.281429981812835" lon="-5.731518985703588">
        <ele>15.039999999999999</ele>
        <time>2019-09-04T15:43:43Z</time>
      </trkpt>
      <trkpt lat="57.281056987121701" lon="-5.733210034668446">
        <ele>14.56</ele>
        <time>2019-09-04T15:43:55Z</time>
      </trkpt>
      <trkpt lat="57.280630012974143" lon="-5.735180033370853">
        <ele>11.67</ele>
        <time>2019-09-04T15:44:06Z</time>
      </trkpt>
      <trkpt lat="57.280177976936102" lon="-5.737265031784773">
        <ele>11.19</ele>
        <time>2019-09-04T15:44:16Z</time>
      </trkpt>
      <trkpt lat="57.279522009193897" lon="-5.739725036546588">
        <ele>12.15</ele>
        <time>2019-09-04T15:44:26Z</time>
      </trkpt>
      <trkpt lat="57.278714999556541" lon="-5.740927001461387">
        <ele>19.359999999999999</ele>
        <time>2019-09-04T15:44:34Z</time>
      </trkpt>
      <trkpt lat="57.2771439794451" lon="-5.742205996066332">
        <ele>35.710000000000001</ele>
        <time>2019-09-04T15:44:48Z</time>
      </trkpt>
      <trkpt lat="57.275387970730662" lon="-5.743575012311339">
        <ele>40.509999999999998</ele>
        <time>2019-09-04T15:45:01Z</time>
      </trkpt>
      <trkpt lat="57.27383203804493" lon="-5.744772031903267">
        <ele>28.98</ele>
        <time>2019-09-04T15:45:10Z</time>
      </trkpt>
      <trkpt lat="57.272990997880697" lon="-5.744947968050838">
        <ele>26.09</ele>
        <time>2019-09-04T15:45:15Z</time>
      </trkpt>
      <trkpt lat="57.272897036746144" lon="-5.744932964444161">
        <ele>25.609999999999999</ele>
        <time>2019-09-04T15:45:16Z</time>
      </trkpt>
      <trkpt lat="57.272819001227617" lon="-5.744897006079555">
        <ele>25.129999999999999</ele>
        <time>2019-09-04T15:45:17Z</time>
      </trkpt>
      <trkpt lat="57.272752029821277" lon="-5.74486599303782">
        <ele>25.129999999999999</ele>
        <time>2019-09-04T15:45:18Z</time>
      </trkpt>
      <trkpt lat="57.272648010402918" lon="-5.74480103328824">
        <ele>25.129999999999999</ele>
        <time>2019-09-04T15:45:19Z</time>
      </trkpt>
      <trkpt lat="57.27260903455317" lon="-5.744584025815129">
        <ele>25.129999999999999</ele>
        <time>2019-09-04T15:45:20Z</time>
      </trkpt>
      <trkpt lat="57.272598976269364" lon="-5.744580002501607">
        <ele>25.129999999999999</ele>
        <time>2019-09-04T15:45:21Z</time>
      </trkpt>
      <trkpt lat="57.27254499681294" lon="-5.744561981409788">
        <ele>25.129999999999999</ele>
        <time>2019-09-04T15:45:22Z</time>
      </trkpt>
      <trkpt lat="57.272506020963192" lon="-5.744619984179735">
        <ele>25.129999999999999</ele>
        <time>2019-09-04T15:45:23Z</time>
      </trkpt>
      <trkpt lat="57.272470984607935" lon="-5.744673041626811">
        <ele>25.129999999999999</ele>
        <time>2019-09-04T15:45:24Z</time>
      </trkpt>
      <trkpt lat="57.2724589984864" lon="-5.744690978899598">
        <ele>25.129999999999999</ele>
        <time>2019-09-04T15:45:25Z</time>
      </trkpt>
      <trkpt lat="57.27248003706336" lon="-5.744976969435811">
        <ele>25.609999999999999</ele>
        <time>2019-09-04T15:45:26Z</time>
      </trkpt>
      <trkpt lat="57.272122967988253" lon="-5.746152028441429">
        <ele>28.02</ele>
        <time>2019-09-04T15:45:32Z</time>
      </trkpt>
      <trkpt lat="57.27160002104938" lon="-5.748725021257997">
        <ele>31.859999999999999</ele>
        <time>2019-09-04T15:45:41Z</time>
      </trkpt>
      <trkpt lat="57.270730985328555" lon="-5.751794977113605">
        <ele>34.259999999999998</ele>
        <time>2019-09-04T15:45:51Z</time>
      </trkpt>
      <trkpt lat="57.269483003765345" lon="-5.75463904067874">
        <ele>32.82</ele>
        <time>2019-09-04T15:46:01Z</time>
      </trkpt>
      <trkpt lat="57.269340008497238" lon="-5.754887983202934">
        <ele>32.340000000000003</ele>
        <time>2019-09-04T15:46:02Z</time>
      </trkpt>
      <trkpt lat="57.267935033887625" lon="-5.757115976884961">
        <ele>33.780000000000001</ele>
        <time>2019-09-04T15:46:11Z</time>
      </trkpt>
      <trkpt lat="57.267158031463623" lon="-5.759158981963992">
        <ele>34.740000000000002</ele>
        <time>2019-09-04T15:46:18Z</time>
      </trkpt>
      <trkpt lat="57.266734996810555" lon="-5.761470040306449">
        <ele>37.149999999999999</ele>
        <time>2019-09-04T15:46:25Z</time>
      </trkpt>
      <trkpt lat="57.266783025115728" lon="-5.76433103531599">
        <ele>38.590000000000003</ele>
        <time>2019-09-04T15:46:33Z</time>
      </trkpt>
      <trkpt lat="57.267205975949764" lon="-5.767731992527843">
        <ele>38.590000000000003</ele>
        <time>2019-09-04T15:46:42Z</time>
      </trkpt>
      <trkpt lat="57.26728099398315" lon="-5.771287009119988">
        <ele>36.670000000000002</ele>
        <time>2019-09-04T15:46:51Z</time>
      </trkpt>
      <trkpt lat="57.266971031203866" lon="-5.774461990222335">
        <ele>35.710000000000001</ele>
        <time>2019-09-04T15:46:59Z</time>
      </trkpt>
      <trkpt lat="57.266319002956152" lon="-5.777700003236532">
        <ele>32.82</ele>
        <time>2019-09-04T15:47:08Z</time>
      </trkpt>
      <trkpt lat="57.265528002753854" lon="-5.78117597848177">
        <ele>30.420000000000002</ele>
        <time>2019-09-04T15:47:18Z</time>
      </trkpt>
      <trkpt lat="57.264612028375268" lon="-5.784767959266901">
        <ele>28.98</ele>
        <time>2019-09-04T15:47:29Z</time>
      </trkpt>
      <trkpt lat="57.263464964926243" lon="-5.788491033017635">
        <ele>25.129999999999999</ele>
        <time>2019-09-04T15:47:41Z</time>
      </trkpt>
      <trkpt lat="57.262111036106944" lon="-5.792479980736971">
        <ele>18.879999999999999</ele>
        <time>2019-09-04T15:47:54Z</time>
      </trkpt>
      <trkpt lat="57.261031027883291" lon="-5.79563501290977">
        <ele>18.879999999999999</ele>
        <time>2019-09-04T15:48:04Z</time>
      </trkpt>
      <trkpt lat="57.259767036885023" lon="-5.798861039802432">
        <ele>20.809999999999999</ele>
        <time>2019-09-04T15:48:15Z</time>
      </trkpt>
      <trkpt lat="57.258372958749533" lon="-5.801964020356536">
        <ele>20.32</ele>
        <time>2019-09-04T15:48:27Z</time>
      </trkpt>
      <trkpt lat="57.256618039682508" lon="-5.80564702861011">
        <ele>19.359999999999999</ele>
        <time>2019-09-04T15:48:40Z</time>
      </trkpt>
      <trkpt lat="57.255081972107291" lon="-5.809591971337795">
        <ele>18.399999999999999</ele>
        <time>2019-09-04T15:48:52Z</time>
      </trkpt>
      <trkpt lat="57.254093997180462" lon="-5.812721019610763">
        <ele>19.359999999999999</ele>
        <time>2019-09-04T15:49:01Z</time>
      </trkpt>
      <trkpt lat="57.253134017810225" lon="-5.815827017650008">
        <ele>22.25</ele>
        <time>2019-09-04T15:49:11Z</time>
      </trkpt>
      <trkpt lat="57.251694006845355" lon="-5.819771960377693">
        <ele>25.129999999999999</ele>
        <time>2019-09-04T15:49:24Z</time>
      </trkpt>
      <trkpt lat="57.250328008085489" lon="-5.823196973651648">
        <ele>28.5</ele>
        <time>2019-09-04T15:49:35Z</time>
      </trkpt>
      <trkpt lat="57.248994028195739" lon="-5.82573601976037">
        <ele>29.460000000000001</ele>
        <time>2019-09-04T15:49:45Z</time>
      </trkpt>
      <trkpt lat="57.247704975306988" lon="-5.828187977895141">
        <ele>27.530000000000001</ele>
        <time>2019-09-04T15:49:56Z</time>
      </trkpt>
      <trkpt lat="57.246950017288327" lon="-5.829598987475038">
        <ele>28.5</ele>
        <time>2019-09-04T15:50:04Z</time>
      </trkpt>
      <trkpt lat="57.245962964370847" lon="-5.831738971173763">
        <ele>28.98</ele>
        <time>2019-09-04T15:50:15Z</time>
      </trkpt>
      <trkpt lat="57.245102981105447" lon="-5.833773007616401">
        <ele>27.050000000000001</ele>
        <time>2019-09-04T15:50:24Z</time>
      </trkpt>
      <trkpt lat="57.245031986385584" lon="-5.83402999676764">
        <ele>27.530000000000001</ele>
        <time>2019-09-04T15:50:25Z</time>
      </trkpt>
      <trkpt lat="57.244265964254737" lon="-5.836798958480358">
        <ele>30.420000000000002</ele>
        <time>2019-09-04T15:50:35Z</time>
      </trkpt>
      <trkpt lat="57.243508994579315" lon="-5.839344039559364">
        <ele>32.340000000000003</ele>
        <time>2019-09-04T15:50:45Z</time>
      </trkpt>
      <trkpt lat="57.243353007361293" lon="-5.839745029807091">
        <ele>32.82</ele>
        <time>2019-09-04T15:50:47Z</time>
      </trkpt>
      <trkpt lat="57.243264997377992" lon="-5.839920965954661">
        <ele>33.299999999999997</ele>
        <time>2019-09-04T15:50:48Z</time>
      </trkpt>
      <trkpt lat="57.243170030415058" lon="-5.840071002021432">
        <ele>33.780000000000001</ele>
        <time>2019-09-04T15:50:49Z</time>
      </trkpt>
      <trkpt lat="57.243062993511558" lon="-5.840183990076184">
        <ele>34.259999999999998</ele>
        <time>2019-09-04T15:50:50Z</time>
      </trkpt>
      <trkpt lat="57.242952017113566" lon="-5.840301001444459">
        <ele>34.740000000000002</ele>
        <time>2019-09-04T15:50:51Z</time>
      </trkpt>
      <trkpt lat="57.242832994088531" lon="-5.840426981449127">
        <ele>34.740000000000002</ele>
        <time>2019-09-04T15:50:52Z</time>
      </trkpt>
      <trkpt lat="57.2417570091784" lon="-5.841687032952905">
        <ele>38.109999999999999</ele>
        <time>2019-09-04T15:51:00Z</time>
      </trkpt>
      <trkpt lat="57.240631990134716" lon="-5.842693028971553">
        <ele>40.509999999999998</ele>
        <time>2019-09-04T15:51:08Z</time>
      </trkpt>
      <trkpt lat="57.240521013736725" lon="-5.842854967340827">
        <ele>40.990000000000002</ele>
        <time>2019-09-04T15:51:09Z</time>
      </trkpt>
      <trkpt lat="57.240411965176463" lon="-5.843024030327797">
        <ele>40.990000000000002</ele>
        <time>2019-09-04T15:51:10Z</time>
      </trkpt>
      <trkpt lat="57.240010974928737" lon="-5.843778988346458">
        <ele>41.469999999999999</ele>
        <time>2019-09-04T15:51:14Z</time>
      </trkpt>
      <trkpt lat="57.239927994087338" lon="-5.843993984162808">
        <ele>41.469999999999999</ele>
        <time>2019-09-04T15:51:15Z</time>
      </trkpt>
      <trkpt lat="57.23984501324594" lon="-5.844206968322396">
        <ele>41.469999999999999</ele>
        <time>2019-09-04T15:51:16Z</time>
      </trkpt>
      <trkpt lat="57.239805031567812" lon="-5.844455994665623">
        <ele>41.469999999999999</ele>
        <time>2019-09-04T15:51:17Z</time>
      </trkpt>
      <trkpt lat="57.239763960242271" lon="-5.844718012958765">
        <ele>40.990000000000002</ele>
        <time>2019-09-04T15:51:18Z</time>
      </trkpt>
      <trkpt lat="57.239721966907382" lon="-5.844990005716682">
        <ele>40.990000000000002</ele>
        <time>2019-09-04T15:51:19Z</time>
      </trkpt>
      <trkpt lat="57.239273032173514" lon="-5.848026014864445">
        <ele>37.149999999999999</ele>
        <time>2019-09-04T15:51:29Z</time>
      </trkpt>
      <trkpt lat="57.238842034712434" lon="-5.850181002169848">
        <ele>37.149999999999999</ele>
        <time>2019-09-04T15:51:37Z</time>
      </trkpt>
      <trkpt lat="57.23851103335619" lon="-5.852466998621821">
        <ele>34.740000000000002</ele>
        <time>2019-09-04T15:51:45Z</time>
      </trkpt>
      <trkpt lat="57.238133009523153" lon="-5.855906009674072">
        <ele>30.899999999999999</ele>
        <time>2019-09-04T15:51:56Z</time>
      </trkpt>
      <trkpt lat="57.237672004848719" lon="-5.859687002375722">
        <ele>26.09</ele>
        <time>2019-09-04T15:52:09Z</time>
      </trkpt>
      <trkpt lat="57.23720203153789" lon="-5.863333968445659">
        <ele>17.440000000000001</ele>
        <time>2019-09-04T15:52:21Z</time>
      </trkpt>
      <trkpt lat="57.236827025189996" lon="-5.866241985931993">
        <ele>16.48</ele>
        <time>2019-09-04T15:52:30Z</time>
      </trkpt>
      <trkpt lat="57.236470961943269" lon="-5.869009019806981">
        <ele>13.119999999999999</ele>
        <time>2019-09-04T15:52:39Z</time>
      </trkpt>
      <trkpt lat="57.236197041347623" lon="-5.871128970757127">
        <ele>16.48</ele>
        <time>2019-09-04T15:52:48Z</time>
      </trkpt>
      <trkpt lat="57.236033007502556" lon="-5.872406959533691">
        <ele>19.84</ele>
        <time>2019-09-04T15:52:56Z</time>
      </trkpt>
      <trkpt lat="57.236019009724259" lon="-5.872511984780431">
        <ele>19.84</ele>
        <time>2019-09-04T15:52:57Z</time>
      </trkpt>
      <trkpt lat="57.236008029431105" lon="-5.87259697727859">
        <ele>19.84</ele>
        <time>2019-09-04T15:52:58Z</time>
      </trkpt>
      <trkpt lat="57.235932005569339" lon="-5.872612986713648">
        <ele>19.84</ele>
        <time>2019-09-04T15:52:59Z</time>
      </trkpt>
      <trkpt lat="57.235882971435785" lon="-5.872592031955719">
        <ele>20.32</ele>
        <time>2019-09-04T15:53:00Z</time>
      </trkpt>
      <trkpt lat="57.235833015292883" lon="-5.872536962851882">
        <ele>20.32</ele>
        <time>2019-09-04T15:53:01Z</time>
      </trkpt>
      <trkpt lat="57.235783981159329" lon="-5.872433027252555">
        <ele>20.32</ele>
        <time>2019-09-04T15:53:02Z</time>
      </trkpt>
      <trkpt lat="57.235727990046144" lon="-5.872310986742377">
        <ele>20.32</ele>
        <time>2019-09-04T15:53:03Z</time>
      </trkpt>
      <trkpt lat="57.235673004761338" lon="-5.872157011181116">
        <ele>20.809999999999999</ele>
        <time>2019-09-04T15:53:04Z</time>
      </trkpt>
      <trkpt lat="57.235113009810448" lon="-5.870570987462997">
        <ele>25.129999999999999</ele>
        <time>2019-09-04T15:53:12Z</time>
      </trkpt>
      <trkpt lat="57.23430197685957" lon="-5.86851398460567">
        <ele>25.129999999999999</ele>
        <time>2019-09-04T15:53:21Z</time>
      </trkpt>
      <trkpt lat="57.233373010531068" lon="-5.866451030597091">
        <ele>22.73</ele>
        <time>2019-09-04T15:53:31Z</time>
      </trkpt>
      <trkpt lat="57.232349999248981" lon="-5.864011980593205">
        <ele>23.690000000000001</ele>
        <time>2019-09-04T15:53:42Z</time>
      </trkpt>
      <trkpt lat="57.23133796826005" lon="-5.861637974157929">
        <ele>27.530000000000001</ele>
        <time>2019-09-04T15:53:52Z</time>
      </trkpt>
      <trkpt lat="57.230615029111505" lon="-5.858998009935021">
        <ele>32.82</ele>
        <time>2019-09-04T15:54:02Z</time>
      </trkpt>
      <trkpt lat="57.229899968951941" lon="-5.856600031256676">
        <ele>39.07</ele>
        <time>2019-09-04T15:54:10Z</time>
      </trkpt>
      <trkpt lat="57.228670008480549" lon="-5.85422401316464">
        <ele>47.719999999999999</ele>
        <time>2019-09-04T15:54:18Z</time>
      </trkpt>
      <trkpt lat="57.225889982655644" lon="-5.850361967459321">
        <ele>57.340000000000003</ele>
        <time>2019-09-04T15:54:33Z</time>
      </trkpt>
      <trkpt lat="57.222194988280535" lon="-5.845799027010799">
        <ele>64.069999999999993</ele>
        <time>2019-09-04T15:54:52Z</time>
      </trkpt>
      <trkpt lat="57.21874700859189" lon="-5.842089029029012">
        <ele>63.579999999999998</ele>
        <time>2019-09-04T15:55:09Z</time>
      </trkpt>
      <trkpt lat="57.215863969177008" lon="-5.839220993220806">
        <ele>61.18</ele>
        <time>2019-09-04T15:55:23Z</time>
      </trkpt>
      <trkpt lat="57.214380037039518" lon="-5.837206989526749">
        <ele>58.780000000000001</ele>
        <time>2019-09-04T15:55:31Z</time>
      </trkpt>
      <trkpt lat="57.21268898807466" lon="-5.834581023082137">
        <ele>56.859999999999999</ele>
        <time>2019-09-04T15:55:41Z</time>
      </trkpt>
      <trkpt lat="57.210359992459416" lon="-5.83104302175343">
        <ele>57.82</ele>
        <time>2019-09-04T15:55:55Z</time>
      </trkpt>
      <trkpt lat="57.207626989111304" lon="-5.826555015519261">
        <ele>62.140000000000001</ele>
        <time>2019-09-04T15:56:12Z</time>
      </trkpt>
      <trkpt lat="57.20501703210175" lon="-5.821813959628344">
        <ele>66.469999999999999</ele>
        <time>2019-09-04T15:56:29Z</time>
      </trkpt>
      <trkpt lat="57.203118028119206" lon="-5.818246034905314">
        <ele>67.909999999999997</ele>
        <time>2019-09-04T15:56:42Z</time>
      </trkpt>
      <trkpt lat="57.201786981895566" lon="-5.816605025902391">
        <ele>68.870000000000005</ele>
        <time>2019-09-04T15:56:50Z</time>
      </trkpt>
      <trkpt lat="57.200432969257236" lon="-5.815931037068367">
        <ele>70.790000000000006</ele>
        <time>2019-09-04T15:56:57Z</time>
      </trkpt>
      <trkpt lat="57.198048988357186" lon="-5.815181024372578">
        <ele>65.510000000000005</ele>
        <time>2019-09-04T15:57:08Z</time>
      </trkpt>
      <trkpt lat="57.194974003359675" lon="-5.814435034990311">
        <ele>47.719999999999999</ele>
        <time>2019-09-04T15:57:22Z</time>
      </trkpt>
      <trkpt lat="57.19238399527967" lon="-5.814273012802005">
        <ele>32.82</ele>
        <time>2019-09-04T15:57:34Z</time>
      </trkpt>
      <trkpt lat="57.190973991528153" lon="-5.815158979967237">
        <ele>27.050000000000001</ele>
        <time>2019-09-04T15:57:41Z</time>
      </trkpt>
      <trkpt lat="57.189552001655102" lon="-5.816918006166816">
        <ele>23.210000000000001</ele>
        <time>2019-09-04T15:57:49Z</time>
      </trkpt>
      <trkpt lat="57.186900973320007" lon="-5.82036598585546">
        <ele>16.960000000000001</ele>
        <time>2019-09-04T15:58:04Z</time>
      </trkpt>
      <trkpt lat="57.185604963451624" lon="-5.820895973592997">
        <ele>16</ele>
        <time>2019-09-04T15:58:10Z</time>
      </trkpt>
      <trkpt lat="57.185384016484022" lon="-5.820854986086488">
        <ele>15.52</ele>
        <time>2019-09-04T15:58:11Z</time>
      </trkpt>
      <trkpt lat="57.185167009010911" lon="-5.820803018286824">
        <ele>15.52</ele>
        <time>2019-09-04T15:58:12Z</time>
      </trkpt>
      <trkpt lat="57.1849500015378" lon="-5.820705033838749">
        <ele>15.52</ele>
        <time>2019-09-04T15:58:13Z</time>
      </trkpt>
      <trkpt lat="57.184741040691733" lon="-5.820596991106868">
        <ele>15.52</ele>
        <time>2019-09-04T15:58:14Z</time>
      </trkpt>
      <trkpt lat="57.184545993804932" lon="-5.820446033030748">
        <ele>15.52</ele>
        <time>2019-09-04T15:58:15Z</time>
      </trkpt>
      <trkpt lat="57.182882018387318" lon="-5.818686001002789">
        <ele>17.920000000000002</ele>
        <time>2019-09-04T15:58:24Z</time>
      </trkpt>
      <trkpt lat="57.179734027013183" lon="-5.815184963867068">
        <ele>20.809999999999999</ele>
        <time>2019-09-04T15:58:41Z</time>
      </trkpt>
      <trkpt lat="57.176534989848733" lon="-5.811859024688602">
        <ele>21.289999999999999</ele>
        <time>2019-09-04T15:58:58Z</time>
      </trkpt>
      <trkpt lat="57.173438966274261" lon="-5.808637021109462">
        <ele>16.960000000000001</ele>
        <time>2019-09-04T15:59:14Z</time>
      </trkpt>
      <trkpt lat="57.170331040397286" lon="-5.805558012798429">
        <ele>16.960000000000001</ele>
        <time>2019-09-04T15:59:29Z</time>
      </trkpt>
      <trkpt lat="57.169040981680155" lon="-5.80489601008594">
        <ele>14.56</ele>
        <time>2019-09-04T15:59:35Z</time>
      </trkpt>
      <trkpt lat="57.16866203583777" lon="-5.804679002612829">
        <ele>14.08</ele>
        <time>2019-09-04T15:59:37Z</time>
      </trkpt>
      <trkpt lat="57.168486015871167" lon="-5.804525027051568">
        <ele>13.6</ele>
        <time>2019-09-04T15:59:38Z</time>
      </trkpt>
      <trkpt lat="57.168331034481525" lon="-5.804340038448572">
        <ele>13.119999999999999</ele>
        <time>2019-09-04T15:59:39Z</time>
      </trkpt>
      <trkpt lat="57.167497035115957" lon="-5.803383998572826">
        <ele>11.67</ele>
        <time>2019-09-04T15:59:45Z</time>
      </trkpt>
      <trkpt lat="57.166034979745746" lon="-5.802440028637648">
        <ele>9.75</ele>
        <time>2019-09-04T15:59:54Z</time>
      </trkpt>
      <trkpt lat="57.164434958249331" lon="-5.80132800154388">
        <ele>6.87</ele>
        <time>2019-09-04T16:00:03Z</time>
      </trkpt>
      <trkpt lat="57.162810964509845" lon="-5.800509005784988">
        <ele>10.23</ele>
        <time>2019-09-04T16:00:13Z</time>
      </trkpt>
      <trkpt lat="57.161392997950315" lon="-5.799948005005717">
        <ele>11.19</ele>
        <time>2019-09-04T16:00:21Z</time>
      </trkpt>
      <trkpt lat="57.160431006923318" lon="-5.799329001456499">
        <ele>12.15</ele>
        <time>2019-09-04T16:00:27Z</time>
      </trkpt>
      <trkpt lat="57.160298991948366" lon="-5.799258006736636">
        <ele>13.6</ele>
        <time>2019-09-04T16:00:28Z</time>
      </trkpt>
      <trkpt lat="57.160159014165401" lon="-5.799258006736636">
        <ele>15.039999999999999</ele>
        <time>2019-09-04T16:00:29Z</time>
      </trkpt>
      <trkpt lat="57.160024987533689" lon="-5.79926697537303">
        <ele>16.48</ele>
        <time>2019-09-04T16:00:30Z</time>
      </trkpt>
      <trkpt lat="57.159893978387117" lon="-5.799336964264512">
        <ele>17.920000000000002</ele>
        <time>2019-09-04T16:00:31Z</time>
      </trkpt>
      <trkpt lat="57.159764980897307" lon="-5.799406031146646">
        <ele>19.359999999999999</ele>
        <time>2019-09-04T16:00:32Z</time>
      </trkpt>
      <trkpt lat="57.159655010327697" lon="-5.799511978402734">
        <ele>21.289999999999999</ele>
        <time>2019-09-04T16:00:33Z</time>
      </trkpt>
      <trkpt lat="57.159546967595816" lon="-5.799648016691208">
        <ele>22.25</ele>
        <time>2019-09-04T16:00:34Z</time>
      </trkpt>
      <trkpt lat="57.159441020339727" lon="-5.79978296533227">
        <ele>23.210000000000001</ele>
        <time>2019-09-04T16:00:35Z</time>
      </trkpt>
      <trkpt lat="57.159341024234891" lon="-5.79993300139904">
        <ele>24.649999999999999</ele>
        <time>2019-09-04T16:00:36Z</time>
      </trkpt>
      <trkpt lat="57.158575002104044" lon="-5.801033964380622">
        <ele>28.5</ele>
        <time>2019-09-04T16:00:43Z</time>
      </trkpt>
      <trkpt lat="57.158448016270995" lon="-5.801153993234038">
        <ele>28.5</ele>
        <time>2019-09-04T16:00:44Z</time>
      </trkpt>
      <trkpt lat="57.157138008624315" lon="-5.801828987896442">
        <ele>28.5</ele>
        <time>2019-09-04T16:00:54Z</time>
      </trkpt>
      <trkpt lat="57.156501989811659" lon="-5.801893025636673">
        <ele>27.050000000000001</ele>
        <time>2019-09-04T16:00:58Z</time>
      </trkpt>
      <trkpt lat="57.156341979280114" lon="-5.801841979846358">
        <ele>26.57</ele>
        <time>2019-09-04T16:00:59Z</time>
      </trkpt>
      <trkpt lat="57.156184986233711" lon="-5.80173896625638">
        <ele>26.09</ele>
        <time>2019-09-04T16:01:00Z</time>
      </trkpt>
      <trkpt lat="57.156023969873786" lon="-5.801635030657053">
        <ele>26.09</ele>
        <time>2019-09-04T16:01:01Z</time>
      </trkpt>
      <trkpt lat="57.155865970999002" lon="-5.801517013460398">
        <ele>25.609999999999999</ele>
        <time>2019-09-04T16:01:02Z</time>
      </trkpt>
      <trkpt lat="57.155716018751264" lon="-5.801358008757234">
        <ele>25.609999999999999</ele>
        <time>2019-09-04T16:01:03Z</time>
      </trkpt>
      <trkpt lat="57.155574029311538" lon="-5.801206966862083">
        <ele>25.609999999999999</ele>
        <time>2019-09-04T16:01:04Z</time>
      </trkpt>
      <trkpt lat="57.155438996851444" lon="-5.801064977422357">
        <ele>26.09</ele>
        <time>2019-09-04T16:01:05Z</time>
      </trkpt>
      <trkpt lat="57.155160969123244" lon="-5.800790973007679">
        <ele>25.609999999999999</ele>
        <time>2019-09-04T16:01:07Z</time>
      </trkpt>
      <trkpt lat="57.155004981905222" lon="-5.800732970237732">
        <ele>25.129999999999999</ele>
        <time>2019-09-04T16:01:08Z</time>
      </trkpt>
      <trkpt lat="57.154847988858819" lon="-5.800674967467785">
        <ele>25.129999999999999</ele>
        <time>2019-09-04T16:01:09Z</time>
      </trkpt>
      <trkpt lat="57.154690995812416" lon="-5.800616964697838">
        <ele>25.129999999999999</ele>
        <time>2019-09-04T16:01:10Z</time>
      </trkpt>
      <trkpt lat="57.154530985280871" lon="-5.800595004111528">
        <ele>24.649999999999999</ele>
        <time>2019-09-04T16:01:11Z</time>
      </trkpt>
      <trkpt lat="57.154367035254836" lon="-5.800609001889825">
        <ele>24.649999999999999</ele>
        <time>2019-09-04T16:01:12Z</time>
      </trkpt>
      <trkpt lat="57.15420501306653" lon="-5.800668010488153">
        <ele>24.649999999999999</ele>
        <time>2019-09-04T16:01:13Z</time>
      </trkpt>
      <trkpt lat="57.154037039726973" lon="-5.800733976066113">
        <ele>24.649999999999999</ele>
        <time>2019-09-04T16:01:14Z</time>
      </trkpt>
      <trkpt lat="57.152240965515375" lon="-5.801445012912154">
        <ele>23.690000000000001</ele>
        <time>2019-09-04T16:01:24Z</time>
      </trkpt>
      <trkpt lat="57.150921989232302" lon="-5.802024034783244">
        <ele>26.57</ele>
        <time>2019-09-04T16:01:32Z</time>
      </trkpt>
      <trkpt lat="57.150779999792576" lon="-5.802159989252687">
        <ele>26.57</ele>
        <time>2019-09-04T16:01:33Z</time>
      </trkpt>
      <trkpt lat="57.150643039494753" lon="-5.802319999784231">
        <ele>26.57</ele>
        <time>2019-09-04T16:01:34Z</time>
      </trkpt>
      <trkpt lat="57.150525022298098" lon="-5.802518986165524">
        <ele>27.050000000000001</ele>
        <time>2019-09-04T16:01:35Z</time>
      </trkpt>
      <trkpt lat="57.150413962081075" lon="-5.802743034437299">
        <ele>27.050000000000001</ele>
        <time>2019-09-04T16:01:36Z</time>
      </trkpt>
      <trkpt lat="57.150302985683084" lon="-5.802985019981861">
        <ele>26.57</ele>
        <time>2019-09-04T16:01:37Z</time>
      </trkpt>
      <trkpt lat="57.149699991568923" lon="-5.804278012365103">
        <ele>23.210000000000001</ele>
        <time>2019-09-04T16:01:42Z</time>
      </trkpt>
      <trkpt lat="57.149539981037378" lon="-5.804455038160086">
        <ele>22.25</ele>
        <time>2019-09-04T16:01:43Z</time>
      </trkpt>
      <trkpt lat="57.149378964677453" lon="-5.804632985964418">
        <ele>21.77</ele>
        <time>2019-09-04T16:01:44Z</time>
      </trkpt>
      <trkpt lat="57.149206968024373" lon="-5.804769024252892">
        <ele>20.809999999999999</ele>
        <time>2019-09-04T16:01:45Z</time>
      </trkpt>
      <trkpt lat="57.149022985249758" lon="-5.804854016751051">
        <ele>20.32</ele>
        <time>2019-09-04T16:01:46Z</time>
      </trkpt>
      <trkpt lat="57.148840008303523" lon="-5.80493900924921">
        <ele>19.84</ele>
        <time>2019-09-04T16:01:47Z</time>
      </trkpt>
      <trkpt lat="57.147679030895233" lon="-5.8055180311203">
        <ele>16</ele>
        <time>2019-09-04T16:01:54Z</time>
      </trkpt>
      <trkpt lat="57.147532012313604" lon="-5.805631019175053">
        <ele>15.52</ele>
        <time>2019-09-04T16:01:55Z</time>
      </trkpt>
      <trkpt lat="57.147389017045498" lon="-5.805833023041487">
        <ele>14.56</ele>
        <time>2019-09-04T16:01:56Z</time>
      </trkpt>
      <trkpt lat="57.147254990413785" lon="-5.806022034958005">
        <ele>14.08</ele>
        <time>2019-09-04T16:01:57Z</time>
      </trkpt>
      <trkpt lat="57.147128004580736" lon="-5.806226972490549">
        <ele>13.6</ele>
        <time>2019-09-04T16:01:58Z</time>
      </trkpt>
      <trkpt lat="57.1470089815557" lon="-5.806473987177014">
        <ele>13.6</ele>
        <time>2019-09-04T16:01:59Z</time>
      </trkpt>
      <trkpt lat="57.146889958530664" lon="-5.806723013520241">
        <ele>13.6</ele>
        <time>2019-09-04T16:02:00Z</time>
      </trkpt>
      <trkpt lat="57.145801987498999" lon="-5.809347974136472">
        <ele>22.25</ele>
        <time>2019-09-04T16:02:10Z</time>
      </trkpt>
      <trkpt lat="57.14509698562324" lon="-5.812209974974394">
        <ele>31.379999999999999</ele>
        <time>2019-09-04T16:02:20Z</time>
      </trkpt>
      <trkpt lat="57.145084999501705" lon="-5.812494959682226">
        <ele>31.379999999999999</ele>
        <time>2019-09-04T16:02:21Z</time>
      </trkpt>
      <trkpt lat="57.145075025036931" lon="-5.812769969925284">
        <ele>31.379999999999999</ele>
        <time>2019-09-04T16:02:22Z</time>
      </trkpt>
      <trkpt lat="57.144890036433935" lon="-5.815325025469065">
        <ele>32.340000000000003</ele>
        <time>2019-09-04T16:02:31Z</time>
      </trkpt>
      <trkpt lat="57.144839996472001" lon="-5.815629037097096">
        <ele>32.340000000000003</ele>
        <time>2019-09-04T16:02:32Z</time>
      </trkpt>
      <trkpt lat="57.144689038395882" lon="-5.816245023161173">
        <ele>31.859999999999999</ele>
        <time>2019-09-04T16:02:34Z</time>
      </trkpt>
      <trkpt lat="57.144609997048974" lon="-5.816566972061992">
        <ele>31.379999999999999</ele>
        <time>2019-09-04T16:02:35Z</time>
      </trkpt>
      <trkpt lat="57.14350501075387" lon="-5.819532992318273">
        <ele>34.259999999999998</ele>
        <time>2019-09-04T16:02:45Z</time>
      </trkpt>
      <trkpt lat="57.14230296202004" lon="-5.822183014824987">
        <ele>41.469999999999999</ele>
        <time>2019-09-04T16:02:55Z</time>
      </trkpt>
      <trkpt lat="57.140875020995736" lon="-5.825025988742709">
        <ele>46.759999999999998</ele>
        <time>2019-09-04T16:03:05Z</time>
      </trkpt>
      <trkpt lat="57.13983298279345" lon="-5.828193007037044">
        <ele>48.68</ele>
        <time>2019-09-04T16:03:14Z</time>
      </trkpt>
      <trkpt lat="57.13867200538516" lon="-5.830475986003876">
        <ele>54.93</ele>
        <time>2019-09-04T16:03:22Z</time>
      </trkpt>
      <trkpt lat="57.136592036113143" lon="-5.83327897824347">
        <ele>59.740000000000002</ele>
        <time>2019-09-04T16:03:34Z</time>
      </trkpt>
      <trkpt lat="57.133630039170384" lon="-5.83686601370573">
        <ele>68.390000000000001</ele>
        <time>2019-09-04T16:03:51Z</time>
      </trkpt>
      <trkpt lat="57.130772983655334" lon="-5.840115007013083">
        <ele>84.25</ele>
        <time>2019-09-04T16:04:07Z</time>
      </trkpt>
      <trkpt lat="57.12792900390923" lon="-5.842807022854686">
        <ele>82.810000000000002</ele>
        <time>2019-09-04T16:04:22Z</time>
      </trkpt>
      <trkpt lat="57.126941028982401" lon="-5.843480005860329">
        <ele>78.480000000000004</ele>
        <time>2019-09-04T16:04:27Z</time>
      </trkpt>
      <trkpt lat="57.126736007630825" lon="-5.843538008630276">
        <ele>77.519999999999996</ele>
        <time>2019-09-04T16:04:28Z</time>
      </trkpt>
      <trkpt lat="57.126037962734699" lon="-5.843764990568161">
        <ele>74.640000000000001</ele>
        <time>2019-09-04T16:04:32Z</time>
      </trkpt>
      <trkpt lat="57.125890022143722" lon="-5.843873033300042">
        <ele>73.680000000000007</ele>
        <time>2019-09-04T16:04:33Z</time>
      </trkpt>
      <trkpt lat="57.125749960541725" lon="-5.844001024961472">
        <ele>73.200000000000003</ele>
        <time>2019-09-04T16:04:34Z</time>
      </trkpt>
      <trkpt lat="57.125634038820863" lon="-5.84419003687799">
        <ele>72.719999999999999</ele>
        <time>2019-09-04T16:04:35Z</time>
      </trkpt>
      <trkpt lat="57.125521972775459" lon="-5.844389023259282">
        <ele>71.760000000000005</ele>
        <time>2019-09-04T16:04:36Z</time>
      </trkpt>
      <trkpt lat="57.125416025519371" lon="-5.844603013247252">
        <ele>71.269999999999996</ele>
        <time>2019-09-04T16:04:37Z</time>
      </trkpt>
      <trkpt lat="57.125319968909025" lon="-5.844846004620194">
        <ele>70.310000000000002</ele>
        <time>2019-09-04T16:04:38Z</time>
      </trkpt>
      <trkpt lat="57.12522299028933" lon="-5.845091007649899">
        <ele>69.829999999999998</ele>
        <time>2019-09-04T16:04:39Z</time>
      </trkpt>
      <trkpt lat="57.124926019459963" lon="-5.845770025625825">
        <ele>67.430000000000007</ele>
        <time>2019-09-04T16:04:42Z</time>
      </trkpt>
      <trkpt lat="57.124804984778166" lon="-5.845963982865214">
        <ele>66.469999999999999</ele>
        <time>2019-09-04T16:04:43Z</time>
      </trkpt>
      <trkpt lat="57.124659977853298" lon="-5.846095997840166">
        <ele>65.989999999999995</ele>
        <time>2019-09-04T16:04:44Z</time>
      </trkpt>
      <trkpt lat="57.124508013948798" lon="-5.846218960359693">
        <ele>65.510000000000005</ele>
        <time>2019-09-04T16:04:45Z</time>
      </trkpt>
      <trkpt lat="57.124349009245634" lon="-5.846304036676884">
        <ele>65.030000000000001</ele>
        <time>2019-09-04T16:04:46Z</time>
      </trkpt>
      <trkpt lat="57.124181035906076" lon="-5.846362039446831">
        <ele>64.549999999999997</ele>
        <time>2019-09-04T16:04:47Z</time>
      </trkpt>
      <trkpt lat="57.124010967090726" lon="-5.846419958397746">
        <ele>64.069999999999993</ele>
        <time>2019-09-04T16:04:48Z</time>
      </trkpt>
      <trkpt lat="57.122634993866086" lon="-5.847015995532274">
        <ele>61.18</ele>
        <time>2019-09-04T16:04:56Z</time>
      </trkpt>
      <trkpt lat="57.121252985671163" lon="-5.847052959725261">
        <ele>55.409999999999997</ele>
        <time>2019-09-04T16:05:03Z</time>
      </trkpt>
      <trkpt lat="57.11920402944088" lon="-5.846375031396747">
        <ele>40.030000000000001</ele>
        <time>2019-09-04T16:05:13Z</time>
      </trkpt>
      <trkpt lat="57.119015017524362" lon="-5.846357010304928">
        <ele>38.590000000000003</ele>
        <time>2019-09-04T16:05:14Z</time>
      </trkpt>
      <trkpt lat="57.118803961202502" lon="-5.846407972276211">
        <ele>37.149999999999999</ele>
        <time>2019-09-04T16:05:15Z</time>
      </trkpt>
      <trkpt lat="57.117270994931459" lon="-5.8467279933393">
        <ele>31.859999999999999</ele>
        <time>2019-09-04T16:05:23Z</time>
      </trkpt>
      <trkpt lat="57.11596199311316" lon="-5.847152033820748">
        <ele>28.5</ele>
        <time>2019-09-04T16:05:31Z</time>
      </trkpt>
      <trkpt lat="57.11499597877264" lon="-5.848309993743897">
        <ele>25.609999999999999</ele>
        <time>2019-09-04T16:05:38Z</time>
      </trkpt>
      <trkpt lat="57.113936003297567" lon="-5.850092992186546">
        <ele>22.73</ele>
        <time>2019-09-04T16:05:47Z</time>
      </trkpt>
      <trkpt lat="57.113050036132336" lon="-5.852297013625503">
        <ele>17.440000000000001</ele>
        <time>2019-09-04T16:05:56Z</time>
      </trkpt>
      <trkpt lat="57.112861024215817" lon="-5.852760029956698">
        <ele>15.52</ele>
        <time>2019-09-04T16:05:58Z</time>
      </trkpt>
      <trkpt lat="57.112744012847543" lon="-5.85291400551796">
        <ele>15.039999999999999</ele>
        <time>2019-09-04T16:05:59Z</time>
      </trkpt>
      <trkpt lat="57.112624989822507" lon="-5.853068986907601">
        <ele>14.08</ele>
        <time>2019-09-04T16:06:00Z</time>
      </trkpt>
      <trkpt lat="57.111415984109044" lon="-5.85424697957933">
        <ele>12.15</ele>
        <time>2019-09-04T16:06:09Z</time>
      </trkpt>
      <trkpt lat="57.110582990571856" lon="-5.854750983417034">
        <ele>14.08</ele>
        <time>2019-09-04T16:06:14Z</time>
      </trkpt>
      <trkpt lat="57.110430020838976" lon="-5.854886015877128">
        <ele>15.039999999999999</ele>
        <time>2019-09-04T16:06:15Z</time>
      </trkpt>
      <trkpt lat="57.110281996428967" lon="-5.855047032237053">
        <ele>15.52</ele>
        <time>2019-09-04T16:06:16Z</time>
      </trkpt>
      <trkpt lat="57.110148975625634" lon="-5.855253981426358">
        <ele>16.48</ele>
        <time>2019-09-04T16:06:17Z</time>
      </trkpt>
      <trkpt lat="57.110013021156192" lon="-5.855466965585947">
        <ele>17.440000000000001</ele>
        <time>2019-09-04T16:06:18Z</time>
      </trkpt>
      <trkpt lat="57.109495019540191" lon="-5.856256037950516">
        <ele>17.920000000000002</ele>
        <time>2019-09-04T16:06:22Z</time>
      </trkpt>
      <trkpt lat="57.109353030100465" lon="-5.856370031833649">
        <ele>17.920000000000002</ele>
        <time>2019-09-04T16:06:23Z</time>
      </trkpt>
      <trkpt lat="57.109219003468752" lon="-5.856476984918118">
        <ele>17.440000000000001</ele>
        <time>2019-09-04T16:06:24Z</time>
      </trkpt>
      <trkpt lat="57.109076008200645" lon="-5.856485031545162">
        <ele>17.440000000000001</ele>
        <time>2019-09-04T16:06:25Z</time>
      </trkpt>
      <trkpt lat="57.10893401876092" lon="-5.856476984918118">
        <ele>17.920000000000002</ele>
        <time>2019-09-04T16:06:26Z</time>
      </trkpt>
      <trkpt lat="57.108794040977955" lon="-5.856414036825299">
        <ele>18.399999999999999</ele>
        <time>2019-09-04T16:06:27Z</time>
      </trkpt>
      <trkpt lat="57.108648028224707" lon="-5.856346981599927">
        <ele>18.879999999999999</ele>
        <time>2019-09-04T16:06:28Z</time>
      </trkpt>
      <trkpt lat="57.108049979433417" lon="-5.856098961085081">
        <ele>20.32</ele>
        <time>2019-09-04T16:06:32Z</time>
      </trkpt>
      <trkpt lat="57.107888041064143" lon="-5.856127962470055">
        <ele>20.809999999999999</ele>
        <time>2019-09-04T16:06:33Z</time>
      </trkpt>
      <trkpt lat="57.107731970027089" lon="-5.856155036017299">
        <ele>21.289999999999999</ele>
        <time>2019-09-04T16:06:34Z</time>
      </trkpt>
      <trkpt lat="57.107586963102221" lon="-5.856254026293755">
        <ele>21.77</ele>
        <time>2019-09-04T16:06:35Z</time>
      </trkpt>
      <trkpt lat="57.107440028339624" lon="-5.856388974934816">
        <ele>21.77</ele>
        <time>2019-09-04T16:06:36Z</time>
      </trkpt>
      <trkpt lat="57.107286974787712" lon="-5.856529036536813">
        <ele>21.77</ele>
        <time>2019-09-04T16:06:37Z</time>
      </trkpt>
      <trkpt lat="57.107129981741309" lon="-5.856673959642649">
        <ele>21.77</ele>
        <time>2019-09-04T16:06:38Z</time>
      </trkpt>
      <trkpt lat="57.105732969939709" lon="-5.857794033363462">
        <ele>23.690000000000001</ele>
        <time>2019-09-04T16:06:46Z</time>
      </trkpt>
      <trkpt lat="57.105525014922023" lon="-5.85785798728466">
        <ele>24.170000000000002</ele>
        <time>2019-09-04T16:06:47Z</time>
      </trkpt>
      <trkpt lat="57.105346983298659" lon="-5.857911966741085">
        <ele>24.649999999999999</ele>
        <time>2019-09-04T16:06:48Z</time>
      </trkpt>
      <trkpt lat="57.104855971410871" lon="-5.858063008636236">
        <ele>28.02</ele>
        <time>2019-09-04T16:06:51Z</time>
      </trkpt>
      <trkpt lat="57.104690009728074" lon="-5.858113970607519">
        <ele>28.5</ele>
        <time>2019-09-04T16:06:52Z</time>
      </trkpt>
      <trkpt lat="57.104534022510052" lon="-5.858241962268949">
        <ele>29.460000000000001</ele>
        <time>2019-09-04T16:06:53Z</time>
      </trkpt>
      <trkpt lat="57.104251971468329" lon="-5.858482019975781">
        <ele>30.899999999999999</ele>
        <time>2019-09-04T16:06:55Z</time>
      </trkpt>
      <trkpt lat="57.104102019220591" lon="-5.858610011637211">
        <ele>31.379999999999999</ele>
        <time>2019-09-04T16:06:56Z</time>
      </trkpt>
      <trkpt lat="57.104021972045302" lon="-5.858787959441543">
        <ele>31.379999999999999</ele>
        <time>2019-09-04T16:06:57Z</time>
      </trkpt>
      <trkpt lat="57.103931028395891" lon="-5.858989041298628">
        <ele>31.379999999999999</ele>
        <time>2019-09-04T16:06:58Z</time>
      </trkpt>
      <trkpt lat="57.103869002312422" lon="-5.859213005751371">
        <ele>31.379999999999999</ele>
        <time>2019-09-04T16:06:59Z</time>
      </trkpt>
      <trkpt lat="57.103813011199236" lon="-5.859457002952695">
        <ele>30.899999999999999</ele>
        <time>2019-09-04T16:07:00Z</time>
      </trkpt>
      <trkpt lat="57.103754002600908" lon="-5.859714997932315">
        <ele>30.420000000000002</ele>
        <time>2019-09-04T16:07:01Z</time>
      </trkpt>
      <trkpt lat="57.103692982345819" lon="-5.859980033710599">
        <ele>29.940000000000001</ele>
        <time>2019-09-04T16:07:02Z</time>
      </trkpt>
      <trkpt lat="57.103608995676041" lon="-5.860205003991723">
        <ele>29.460000000000001</ele>
        <time>2019-09-04T16:07:03Z</time>
      </trkpt>
      <trkpt lat="57.103514028713107" lon="-5.860401978716254">
        <ele>29.460000000000001</ele>
        <time>2019-09-04T16:07:04Z</time>
      </trkpt>
      <trkpt lat="57.103406991809607" lon="-5.860554026439786">
        <ele>29.460000000000001</ele>
        <time>2019-09-04T16:07:05Z</time>
      </trkpt>
      <trkpt lat="57.103304984048009" lon="-5.860700039193034">
        <ele>29.460000000000001</ele>
        <time>2019-09-04T16:07:06Z</time>
      </trkpt>
      <trkpt lat="57.102084998041391" lon="-5.862026978284121">
        <ele>28.98</ele>
        <time>2019-09-04T16:07:17Z</time>
      </trkpt>
      <trkpt lat="57.101488038897514" lon="-5.862498041242361">
        <ele>29.460000000000001</ele>
        <time>2019-09-04T16:07:21Z</time>
      </trkpt>
      <trkpt lat="57.100181970745325" lon="-5.864123962819576">
        <ele>30.899999999999999</ele>
        <time>2019-09-04T16:07:29Z</time>
      </trkpt>
      <trkpt lat="57.099056029692292" lon="-5.865448974072933">
        <ele>35.229999999999997</ele>
        <time>2019-09-04T16:07:36Z</time>
      </trkpt>
      <trkpt lat="57.097958000376821" lon="-5.866899965330958">
        <ele>40.509999999999998</ele>
        <time>2019-09-04T16:07:44Z</time>
      </trkpt>
      <trkpt lat="57.096712030470371" lon="-5.867667999118567">
        <ele>43.399999999999999</ele>
        <time>2019-09-04T16:07:51Z</time>
      </trkpt>
      <trkpt lat="57.096543973311782" lon="-5.867705969139934">
        <ele>44.359999999999999</ele>
        <time>2019-09-04T16:07:52Z</time>
      </trkpt>
      <trkpt lat="57.096373988315463" lon="-5.86771703325212">
        <ele>44.840000000000003</ele>
        <time>2019-09-04T16:07:53Z</time>
      </trkpt>
      <trkpt lat="57.095260033383965" lon="-5.867563979700208">
        <ele>44.359999999999999</ele>
        <time>2019-09-04T16:08:00Z</time>
      </trkpt>
      <trkpt lat="57.095118965953588" lon="-5.867603961378336">
        <ele>43.880000000000003</ele>
        <time>2019-09-04T16:08:01Z</time>
      </trkpt>
      <trkpt lat="57.094983011484146" lon="-5.867683002725244">
        <ele>42.439999999999998</ele>
        <time>2019-09-04T16:08:02Z</time>
      </trkpt>
      <trkpt lat="57.094844961538911" lon="-5.867763971909881">
        <ele>40.990000000000002</ele>
        <time>2019-09-04T16:08:03Z</time>
      </trkpt>
      <trkpt lat="57.094718981534243" lon="-5.867922976613045">
        <ele>39.549999999999997</ele>
        <time>2019-09-04T16:08:04Z</time>
      </trkpt>
      <trkpt lat="57.094590989872813" lon="-5.868092961609364">
        <ele>37.630000000000003</ele>
        <time>2019-09-04T16:08:05Z</time>
      </trkpt>
      <trkpt lat="57.094343975186348" lon="-5.868423040956259">
        <ele>34.259999999999998</ele>
        <time>2019-09-04T16:08:07Z</time>
      </trkpt>
      <trkpt lat="57.094201985746622" lon="-5.868547009304166">
        <ele>32.82</ele>
        <time>2019-09-04T16:08:08Z</time>
      </trkpt>
      <trkpt lat="57.092833975329995" lon="-5.869516041129828">
        <ele>23.210000000000001</ele>
        <time>2019-09-04T16:08:16Z</time>
      </trkpt>
      <trkpt lat="57.091565961018205" lon="-5.870517008006573">
        <ele>18.879999999999999</ele>
        <time>2019-09-04T16:08:24Z</time>
      </trkpt>
      <trkpt lat="57.089658994227648" lon="-5.872357003390789">
        <ele>17.920000000000002</ele>
        <time>2019-09-04T16:08:36Z</time>
      </trkpt>
      <trkpt lat="57.087733000516891" lon="-5.874428004026413">
        <ele>23.210000000000001</ele>
        <time>2019-09-04T16:08:48Z</time>
      </trkpt>
      <trkpt lat="57.086987011134624" lon="-5.875651007518172">
        <ele>27.050000000000001</ele>
        <time>2019-09-04T16:08:55Z</time>
      </trkpt>
      <trkpt lat="57.085973974317312" lon="-5.878141019493341">
        <ele>30.420000000000002</ele>
        <time>2019-09-04T16:09:05Z</time>
      </trkpt>
      <trkpt lat="57.085900967940688" lon="-5.878389040008187">
        <ele>30.420000000000002</ele>
        <time>2019-09-04T16:09:06Z</time>
      </trkpt>
      <trkpt lat="57.085844976827502" lon="-5.878660026937723">
        <ele>30.899999999999999</ele>
        <time>2019-09-04T16:09:07Z</time>
      </trkpt>
      <trkpt lat="57.085803989320993" lon="-5.87893595919013">
        <ele>31.379999999999999</ele>
        <time>2019-09-04T16:09:08Z</time>
      </trkpt>
      <trkpt lat="57.085773982107639" lon="-5.879231002181768">
        <ele>31.859999999999999</ele>
        <time>2019-09-04T16:09:09Z</time>
      </trkpt>
      <trkpt lat="57.085742969065905" lon="-5.879531996324658">
        <ele>32.340000000000003</ele>
        <time>2019-09-04T16:09:10Z</time>
      </trkpt>
      <trkpt lat="57.085492014884949" lon="-5.882326019927859">
        <ele>30.899999999999999</ele>
        <time>2019-09-04T16:09:19Z</time>
      </trkpt>
      <trkpt lat="57.085254974663258" lon="-5.883966023102403">
        <ele>28.5</ele>
        <time>2019-09-04T16:09:24Z</time>
      </trkpt>
      <trkpt lat="57.085179034620523" lon="-5.884263999760151">
        <ele>28.02</ele>
        <time>2019-09-04T16:09:25Z</time>
      </trkpt>
      <trkpt lat="57.0850870013237" lon="-5.88454102165997">
        <ele>27.530000000000001</ele>
        <time>2019-09-04T16:09:26Z</time>
      </trkpt>
      <trkpt lat="57.084976024925709" lon="-5.884774038568139">
        <ele>27.530000000000001</ele>
        <time>2019-09-04T16:09:27Z</time>
      </trkpt>
      <trkpt lat="57.084857001900673" lon="-5.884990962222219">
        <ele>27.530000000000001</ele>
        <time>2019-09-04T16:09:28Z</time>
      </trkpt>
      <trkpt lat="57.084725992754102" lon="-5.885192966088653">
        <ele>27.530000000000001</ele>
        <time>2019-09-04T16:09:29Z</time>
      </trkpt>
      <trkpt lat="57.084587020799518" lon="-5.885366974398494">
        <ele>28.02</ele>
        <time>2019-09-04T16:09:30Z</time>
      </trkpt>
      <trkpt lat="57.084447965025902" lon="-5.885522961616516">
        <ele>28.5</ele>
        <time>2019-09-04T16:09:31Z</time>
      </trkpt>
      <trkpt lat="57.08431301638484" lon="-5.885674003511667">
        <ele>28.5</ele>
        <time>2019-09-04T16:09:32Z</time>
      </trkpt>
      <trkpt lat="57.083042990416288" lon="-5.887083001434803">
        <ele>25.129999999999999</ele>
        <time>2019-09-04T16:09:41Z</time>
      </trkpt>
      <trkpt lat="57.082891026511788" lon="-5.887251980602741">
        <ele>23.690000000000001</ele>
        <time>2019-09-04T16:09:42Z</time>
      </trkpt>
      <trkpt lat="57.081743041053414" lon="-5.888465009629726">
        <ele>13.119999999999999</ele>
        <time>2019-09-04T16:09:50Z</time>
      </trkpt>
      <trkpt lat="57.08160700276494" lon="-5.888522006571293">
        <ele>12.15</ele>
        <time>2019-09-04T16:09:51Z</time>
      </trkpt>
      <trkpt lat="57.081461995840073" lon="-5.888522006571293">
        <ele>10.710000000000001</ele>
        <time>2019-09-04T16:09:52Z</time>
      </trkpt>
      <trkpt lat="57.081314977258444" lon="-5.888522006571293">
        <ele>9.75</ele>
        <time>2019-09-04T16:09:53Z</time>
      </trkpt>
      <trkpt lat="57.08117600530386" lon="-5.888454029336572">
        <ele>8.789999999999999</ele>
        <time>2019-09-04T16:09:54Z</time>
      </trkpt>
      <trkpt lat="57.081030998378992" lon="-5.888351015746594">
        <ele>7.83</ele>
        <time>2019-09-04T16:09:55Z</time>
      </trkpt>
      <trkpt lat="57.080882973968983" lon="-5.888243978843093">
        <ele>7.35</ele>
        <time>2019-09-04T16:09:56Z</time>
      </trkpt>
      <trkpt lat="57.080734027549624" lon="-5.888126967474818">
        <ele>6.39</ele>
        <time>2019-09-04T16:09:57Z</time>
      </trkpt>
      <trkpt lat="57.080031037330627" lon="-5.887532019987702">
        <ele>4.46</ele>
        <time>2019-09-04T16:10:02Z</time>
      </trkpt>
      <trkpt lat="57.079884018748999" lon="-5.887468988075852">
        <ele>3.98</ele>
        <time>2019-09-04T16:10:03Z</time>
      </trkpt>
      <trkpt lat="57.07971403375268" lon="-5.887430012226105">
        <ele>3.98</ele>
        <time>2019-09-04T16:10:04Z</time>
      </trkpt>
      <trkpt lat="57.078466974198818" lon="-5.887005971744657">
        <ele>2.54</ele>
        <time>2019-09-04T16:10:11Z</time>
      </trkpt>
      <trkpt lat="57.078157011419535" lon="-5.886847972869873">
        <ele>2.06</ele>
        <time>2019-09-04T16:10:13Z</time>
      </trkpt>
      <trkpt lat="57.077999012544751" lon="-5.886834980919957">
        <ele>1.58</ele>
        <time>2019-09-04T16:10:14Z</time>
      </trkpt>
      <trkpt lat="57.077834978699684" lon="-5.886858031153679">
        <ele>1.58</ele>
        <time>2019-09-04T16:10:15Z</time>
      </trkpt>
      <trkpt lat="57.077677985653281" lon="-5.886931037530303">
        <ele>1.58</ele>
        <time>2019-09-04T16:10:16Z</time>
      </trkpt>
      <trkpt lat="57.077516969293356" lon="-5.887015024200082">
        <ele>1.1</ele>
        <time>2019-09-04T16:10:17Z</time>
      </trkpt>
      <trkpt lat="57.077357964590192" lon="-5.887113008648157">
        <ele>0.62</ele>
        <time>2019-09-04T16:10:18Z</time>
      </trkpt>
      <trkpt lat="57.076048040762544" lon="-5.888049015775323">
        <ele>0.14</ele>
        <time>2019-09-04T16:10:26Z</time>
      </trkpt>
      <trkpt lat="57.075414033606648" lon="-5.888487976044416">
        <ele>1.1</ele>
        <time>2019-09-04T16:10:30Z</time>
      </trkpt>
      <trkpt lat="57.075262991711497" lon="-5.888628959655762">
        <ele>1.1</ele>
        <time>2019-09-04T16:10:31Z</time>
      </trkpt>
      <trkpt lat="57.074556984007359" lon="-5.889405962079763">
        <ele>2.54</ele>
        <time>2019-09-04T16:10:36Z</time>
      </trkpt>
      <trkpt lat="57.074394039809704" lon="-5.889501012861729">
        <ele>3.02</ele>
        <time>2019-09-04T16:10:37Z</time>
      </trkpt>
      <trkpt lat="57.073157960548997" lon="-5.890311961993575">
        <ele>4.94</ele>
        <time>2019-09-04T16:10:45Z</time>
      </trkpt>
      <trkpt lat="57.072787983343005" lon="-5.89059803634882">
        <ele>5.42</ele>
        <time>2019-09-04T16:10:48Z</time>
      </trkpt>
      <trkpt lat="57.072676001116633" lon="-5.890732984989882">
        <ele>5.91</ele>
        <time>2019-09-04T16:10:49Z</time>
      </trkpt>
      <trkpt lat="57.072569970041513" lon="-5.890896013006568">
        <ele>5.91</ele>
        <time>2019-09-04T16:10:50Z</time>
      </trkpt>
      <trkpt lat="57.072467040270567" lon="-5.89109499938786">
        <ele>5.91</ele>
        <time>2019-09-04T16:10:51Z</time>
      </trkpt>
      <trkpt lat="57.07238900475204" lon="-5.891346959397197">
        <ele>5.91</ele>
        <time>2019-09-04T16:10:52Z</time>
      </trkpt>
      <trkpt lat="57.072307029739022" lon="-5.8916109893471">
        <ele>5.91</ele>
        <time>2019-09-04T16:10:53Z</time>
      </trkpt>
      <trkpt lat="57.071948032826185" lon="-5.893009006977081">
        <ele>6.39</ele>
        <time>2019-09-04T16:10:58Z</time>
      </trkpt>
      <trkpt lat="57.071883995085955" lon="-5.893274964764714">
        <ele>6.39</ele>
        <time>2019-09-04T16:10:59Z</time>
      </trkpt>
      <trkpt lat="57.071793973445892" lon="-5.893510999158025">
        <ele>6.87</ele>
        <time>2019-09-04T16:11:00Z</time>
      </trkpt>
      <trkpt lat="57.071677967905998" lon="-5.893707973882556">
        <ele>6.87</ele>
        <time>2019-09-04T16:11:01Z</time>
      </trkpt>
      <trkpt lat="57.071535978466272" lon="-5.893848035484552">
        <ele>7.35</ele>
        <time>2019-09-04T16:11:02Z</time>
      </trkpt>
      <trkpt lat="57.071387032046914" lon="-5.893950965255499">
        <ele>7.35</ele>
        <time>2019-09-04T16:11:03Z</time>
      </trkpt>
      <trkpt lat="57.071230039000511" lon="-5.894047021865845">
        <ele>7.83</ele>
        <time>2019-09-04T16:11:04Z</time>
      </trkpt>
      <trkpt lat="57.070640036836267" lon="-5.894512971863151">
        <ele>8.310000000000001</ele>
        <time>2019-09-04T16:11:08Z</time>
      </trkpt>
      <trkpt lat="57.070503998547792" lon="-5.894659990444779">
        <ele>8.789999999999999</ele>
        <time>2019-09-04T16:11:09Z</time>
      </trkpt>
      <trkpt lat="57.070366032421589" lon="-5.894807009026408">
        <ele>9.27</ele>
        <time>2019-09-04T16:11:10Z</time>
      </trkpt>
      <trkpt lat="57.070235023275018" lon="-5.894985962659121">
        <ele>9.75</ele>
        <time>2019-09-04T16:11:11Z</time>
      </trkpt>
      <trkpt lat="57.070114994421601" lon="-5.895207999274135">
        <ele>10.23</ele>
        <time>2019-09-04T16:11:12Z</time>
      </trkpt>
      <trkpt lat="57.069993037730455" lon="-5.895437998697162">
        <ele>10.710000000000001</ele>
        <time>2019-09-04T16:11:13Z</time>
      </trkpt>
      <trkpt lat="57.069879965856671" lon="-5.895683001726866">
        <ele>11.67</ele>
        <time>2019-09-04T16:11:14Z</time>
      </trkpt>
      <trkpt lat="57.069098018109798" lon="-5.897288974374533">
        <ele>16.48</ele>
        <time>2019-09-04T16:11:22Z</time>
      </trkpt>
      <trkpt lat="57.068970026448369" lon="-5.897425012663007">
        <ele>16.960000000000001</ele>
        <time>2019-09-04T16:11:23Z</time>
      </trkpt>
      <trkpt lat="57.068828037008643" lon="-5.897522997111082">
        <ele>17.440000000000001</ele>
        <time>2019-09-04T16:11:24Z</time>
      </trkpt>
      <trkpt lat="57.068679006770253" lon="-5.89762601070106">
        <ele>17.440000000000001</ele>
        <time>2019-09-04T16:11:25Z</time>
      </trkpt>
      <trkpt lat="57.068530982360244" lon="-5.897728018462658">
        <ele>17.920000000000002</ele>
        <time>2019-09-04T16:11:26Z</time>
      </trkpt>
      <trkpt lat="57.068391004577279" lon="-5.897823991253972">
        <ele>17.920000000000002</ele>
        <time>2019-09-04T16:11:27Z</time>
      </trkpt>
      <trkpt lat="57.067229021340609" lon="-5.898822024464607">
        <ele>21.289999999999999</ele>
        <time>2019-09-04T16:11:35Z</time>
      </trkpt>
      <trkpt lat="57.066143983975053" lon="-5.899998005479574">
        <ele>21.289999999999999</ele>
        <time>2019-09-04T16:11:43Z</time>
      </trkpt>
      <trkpt lat="57.065258016809821" lon="-5.900834016501904">
        <ele>16.960000000000001</ele>
        <time>2019-09-04T16:11:53Z</time>
      </trkpt>
      <trkpt lat="57.065199008211493" lon="-5.900890007615089">
        <ele>16.48</ele>
        <time>2019-09-04T16:11:54Z</time>
      </trkpt>
      <trkpt lat="57.065142011269927" lon="-5.900942981243134">
        <ele>16.48</ele>
        <time>2019-09-04T16:11:55Z</time>
      </trkpt>
      <trkpt lat="57.065088031813502" lon="-5.900994027033448">
        <ele>16</ele>
        <time>2019-09-04T16:11:56Z</time>
      </trkpt>
      <trkpt lat="57.065019970759749" lon="-5.901010036468506">
        <ele>15.52</ele>
        <time>2019-09-04T16:11:57Z</time>
      </trkpt>
      <trkpt lat="57.064970014616847" lon="-5.901010036468506">
        <ele>15.039999999999999</ele>
        <time>2019-09-04T16:11:58Z</time>
      </trkpt>
      <trkpt lat="57.064921986311674" lon="-5.900981035083532">
        <ele>15.039999999999999</ele>
        <time>2019-09-04T16:11:59Z</time>
      </trkpt>
      <trkpt lat="57.064883010461926" lon="-5.900953039526939">
        <ele>14.56</ele>
        <time>2019-09-04T16:12:00Z</time>
      </trkpt>
      <trkpt lat="57.064844034612179" lon="-5.900924960151315">
        <ele>14.08</ele>
        <time>2019-09-04T16:12:01Z</time>
      </trkpt>
      <trkpt lat="57.064781002700329" lon="-5.901017999276519">
        <ele>14.08</ele>
        <time>2019-09-04T16:12:02Z</time>
      </trkpt>
      <trkpt lat="57.064758036285639" lon="-5.90110600925982">
        <ele>13.6</ele>
        <time>2019-09-04T16:12:03Z</time>
      </trkpt>
      <trkpt lat="57.064726017415524" lon="-5.901220003142953">
        <ele>13.6</ele>
        <time>2019-09-04T16:12:04Z</time>
      </trkpt>
      <trkpt lat="57.064691986888647" lon="-5.901346988976002">
        <ele>13.119999999999999</ele>
        <time>2019-09-04T16:12:05Z</time>
      </trkpt>
      <trkpt lat="57.064597019925714" lon="-5.901456037536264">
        <ele>12.630000000000001</ele>
        <time>2019-09-04T16:12:06Z</time>
      </trkpt>
      <trkpt lat="57.064502974972129" lon="-5.901543041691184">
        <ele>11.67</ele>
        <time>2019-09-04T16:12:07Z</time>
      </trkpt>
      <trkpt lat="57.06439602188766" lon="-5.901643037796021">
        <ele>11.19</ele>
        <time>2019-09-04T16:12:08Z</time>
      </trkpt>
      <trkpt lat="57.064200975000858" lon="-5.901825008913875">
        <ele>10.23</ele>
        <time>2019-09-04T16:12:10Z</time>
      </trkpt>
      <trkpt lat="57.064102990552783" lon="-5.901916036382318">
        <ele>9.75</ele>
        <time>2019-09-04T16:12:11Z</time>
      </trkpt>
      <trkpt lat="57.064011041074991" lon="-5.902040004730225">
        <ele>9.75</ele>
        <time>2019-09-04T16:12:12Z</time>
      </trkpt>
      <trkpt lat="57.063844995573163" lon="-5.902320966124535">
        <ele>8.789999999999999</ele>
        <time>2019-09-04T16:12:14Z</time>
      </trkpt>
      <trkpt lat="57.063756985589862" lon="-5.902449041604996">
        <ele>8.310000000000001</ele>
        <time>2019-09-04T16:12:15Z</time>
      </trkpt>
      <trkpt lat="57.063651960343122" lon="-5.902539985254407">
        <ele>7.83</ele>
        <time>2019-09-04T16:12:16Z</time>
      </trkpt>
      <trkpt lat="57.063539978116751" lon="-5.902623971924186">
        <ele>7.83</ele>
        <time>2019-09-04T16:12:17Z</time>
      </trkpt>
      <trkpt lat="57.063425984233618" lon="-5.902698989957571">
        <ele>7.83</ele>
        <time>2019-09-04T16:12:18Z</time>
      </trkpt>
      <trkpt lat="57.0630850084126" lon="-5.902924966067076">
        <ele>7.83</ele>
        <time>2019-09-04T16:12:21Z</time>
      </trkpt>
      <trkpt lat="57.062984006479383" lon="-5.902992021292448">
        <ele>7.83</ele>
        <time>2019-09-04T16:12:22Z</time>
      </trkpt>
      <trkpt lat="57.062811003997922" lon="-5.903107021003962">
        <ele>7.83</ele>
        <time>2019-09-04T16:12:24Z</time>
      </trkpt>
      <trkpt lat="57.062743026763201" lon="-5.903152031823993">
        <ele>7.83</ele>
        <time>2019-09-04T16:12:25Z</time>
      </trkpt>
      <trkpt lat="57.062481008470058" lon="-5.903326040133834">
        <ele>7.83</ele>
        <time>2019-09-04T16:12:29Z</time>
      </trkpt>
      <trkpt lat="57.062413031235337" lon="-5.903370967134833">
        <ele>7.83</ele>
        <time>2019-09-04T16:12:30Z</time>
      </trkpt>
      <trkpt lat="57.062158975750208" lon="-5.903540030121803">
        <ele>7.35</ele>
        <time>2019-09-04T16:12:33Z</time>
      </trkpt>
      <trkpt lat="57.062065014615655" lon="-5.903601972386241">
        <ele>6.87</ele>
        <time>2019-09-04T16:12:34Z</time>
      </trkpt>
      <trkpt lat="57.06188103184104" lon="-5.903723007068038">
        <ele>6.39</ele>
        <time>2019-09-04T16:12:36Z</time>
      </trkpt>
      <trkpt lat="57.061785981059074" lon="-5.903786960989237">
        <ele>6.39</ele>
        <time>2019-09-04T16:12:37Z</time>
      </trkpt>
      <trkpt lat="57.061683973297477" lon="-5.903854016214609">
        <ele>6.39</ele>
        <time>2019-09-04T16:12:38Z</time>
      </trkpt>
      <trkpt lat="57.060561971738935" lon="-5.904337987303734">
        <ele>6.87</ele>
        <time>2019-09-04T16:12:49Z</time>
      </trkpt>
      <trkpt lat="57.060478990897536" lon="-5.904420968145132">
        <ele>7.35</ele>
        <time>2019-09-04T16:12:50Z</time>
      </trkpt>
      <trkpt lat="57.06040296703577" lon="-5.904521970078349">
        <ele>7.83</ele>
        <time>2019-09-04T16:12:51Z</time>
      </trkpt>
      <trkpt lat="57.059989990666509" lon="-5.905255973339081">
        <ele>13.6</ele>
        <time>2019-09-04T16:12:59Z</time>
      </trkpt>
      <trkpt lat="57.059963000938296" lon="-5.905305007472634">
        <ele>14.08</ele>
        <time>2019-09-04T16:13:00Z</time>
      </trkpt>
      <trkpt lat="57.059939028695226" lon="-5.905347000807524">
        <ele>14.56</ele>
        <time>2019-09-04T16:13:01Z</time>
      </trkpt>
      <trkpt lat="57.059920001775026" lon="-5.9053810313344">
        <ele>15.039999999999999</ele>
        <time>2019-09-04T16:13:02Z</time>
      </trkpt>
      <trkpt lat="57.059904998168349" lon="-5.905408021062613">
        <ele>15.52</ele>
        <time>2019-09-04T16:13:03Z</time>
      </trkpt>
      <trkpt lat="57.059892006218433" lon="-5.905430987477303">
        <ele>16</ele>
        <time>2019-09-04T16:13:04Z</time>
      </trkpt>
      <trkpt lat="57.059880020096898" lon="-5.905453031882644">
        <ele>16.48</ele>
        <time>2019-09-04T16:13:05Z</time>
      </trkpt>
      <trkpt lat="57.059856969863176" lon="-5.905494019389153">
        <ele>17.440000000000001</ele>
        <time>2019-09-04T16:13:12Z</time>
      </trkpt>
      <trkpt lat="57.059837020933628" lon="-5.905529977753758">
        <ele>17.920000000000002</ele>
        <time>2019-09-04T16:13:13Z</time>
      </trkpt>
      <trkpt lat="57.059811959043145" lon="-5.905572976917028">
        <ele>17.920000000000002</ele>
        <time>2019-09-04T16:13:14Z</time>
      </trkpt>
      <trkpt lat="57.059785975143313" lon="-5.905619999393821">
        <ele>17.440000000000001</ele>
        <time>2019-09-04T16:13:15Z</time>
      </trkpt>
      <trkpt lat="57.059763008728623" lon="-5.90566098690033">
        <ele>17.440000000000001</ele>
        <time>2019-09-04T16:13:16Z</time>
      </trkpt>
      <trkpt lat="57.059663012623787" lon="-5.905838012695313">
        <ele>16.960000000000001</ele>
        <time>2019-09-04T16:13:23Z</time>
      </trkpt>
      <trkpt lat="57.059663012623787" lon="-5.905839018523693">
        <ele>16.48</ele>
        <time>2019-09-04T16:13:24Z</time>
      </trkpt>
      <trkpt lat="57.059651026502252" lon="-5.905862990766764">
        <ele>16.48</ele>
        <time>2019-09-04T16:13:25Z</time>
      </trkpt>
      <trkpt lat="57.059641974046826" lon="-5.905882017686963">
        <ele>16</ele>
        <time>2019-09-04T16:13:26Z</time>
      </trkpt>
      <trkpt lat="57.059768959879875" lon="-5.906104976311326">
        <ele>15.52</ele>
        <time>2019-09-04T16:13:34Z</time>
      </trkpt>
      <trkpt lat="57.059795027598739" lon="-5.906116962432861">
        <ele>15.52</ele>
        <time>2019-09-04T16:14:01Z</time>
      </trkpt>
      <trkpt lat="57.059925030916929" lon="-5.9059820137918">
        <ele>13.119999999999999</ele>
        <time>2019-09-04T16:14:12Z</time>
      </trkpt>
      <trkpt lat="57.059946991503239" lon="-5.905925016850233">
        <ele>9.75</ele>
        <time>2019-09-04T16:14:31Z</time>
      </trkpt>
      <trkpt lat="57.059945985674858" lon="-5.905942032113671">
        <ele>6.87</ele>
        <time>2019-09-04T16:14:45Z</time>
      </trkpt>
      <trkpt lat="57.059945985674858" lon="-5.905942032113671">
        <ele>6.87</ele>
        <time>2019-09-04T16:15:07Z</time>
      </trkpt>
      <trkpt lat="57.059941040351987" lon="-5.905934991315007">
        <ele>5.91</ele>
        <time>2019-09-04T16:15:34Z</time>
      </trkpt>
    </trkseg>
  </trk>

</gpx>